<?xml version="1.0" encoding="UTF-8" standalone="no" ?>
<gpx xmlns="http://www.topografix.com/GPX/1/1" xmlns:xsi="http://www.w3.org/2001/XMLSchema-instance" xsi:schemaLocation="http://www.topografix.com/GPX/1/1 http://www.topografix.com/GPX/1/1/gpx.xsd" version="1.1" creator="VisuGPX - https://www.visugpx.com">
  <metadata>
    <name>Glaris-Engelberg(tout)</name>
  </metadata>
  <trk>
    <name><![CDATA[Glaris-Engelberg(tout)_13]]></name>
    <extensions>
      <line xmlns="http://www.topografix.com/GPX/gpx_style/0/2">
        <color>0000FF</color>
        <width>4</width>
      </line>
    </extensions>
    <trkseg>
      <trkpt lat="47.02611" lon="8.93661">
        <ele>899</ele>
        <time>2021-08-03T08:27:28.236Z</time>
      </trkpt>
      <trkpt lat="47.02611" lon="8.93659">
        <ele>899</ele>
        <time>2021-08-03T08:27:29.236Z</time>
      </trkpt>
      <trkpt lat="47.02611" lon="8.93658">
        <ele>899</ele>
        <time>2021-08-03T08:27:30.236Z</time>
      </trkpt>
      <trkpt lat="47.02611" lon="8.93656">
        <ele>899</ele>
        <time>2021-08-03T08:27:31.236Z</time>
      </trkpt>
      <trkpt lat="47.02611" lon="8.93655">
        <ele>899</ele>
        <time>2021-08-03T08:27:32.236Z</time>
      </trkpt>
      <trkpt lat="47.02611" lon="8.93654">
        <ele>899</ele>
        <time>2021-08-03T08:27:33.236Z</time>
      </trkpt>
      <trkpt lat="47.02611" lon="8.93653">
        <ele>899</ele>
        <time>2021-08-03T08:27:34.236Z</time>
      </trkpt>
      <trkpt lat="47.02611" lon="8.93653">
        <ele>899</ele>
        <time>2021-08-03T08:27:35.236Z</time>
      </trkpt>
      <trkpt lat="47.02611" lon="8.93653">
        <ele>898</ele>
        <time>2021-08-03T08:27:36.236Z</time>
      </trkpt>
      <trkpt lat="47.02611" lon="8.93654">
        <ele>898</ele>
        <time>2021-08-03T08:27:37.236Z</time>
      </trkpt>
      <trkpt lat="47.02611" lon="8.93656">
        <ele>898</ele>
        <time>2021-08-03T08:27:38.236Z</time>
      </trkpt>
      <trkpt lat="47.02611" lon="8.93658">
        <ele>898</ele>
        <time>2021-08-03T08:27:39.236Z</time>
      </trkpt>
      <trkpt lat="47.02612" lon="8.93659">
        <ele>899</ele>
        <time>2021-08-03T08:27:40.236Z</time>
      </trkpt>
      <trkpt lat="47.02612" lon="8.93661">
        <ele>899</ele>
        <time>2021-08-03T08:27:41.236Z</time>
      </trkpt>
      <trkpt lat="47.02613" lon="8.93663">
        <ele>899</ele>
        <time>2021-08-03T08:27:42.236Z</time>
      </trkpt>
      <trkpt lat="47.02613" lon="8.93664">
        <ele>900</ele>
        <time>2021-08-03T08:27:43.236Z</time>
      </trkpt>
      <trkpt lat="47.02613" lon="8.93666">
        <ele>900</ele>
        <time>2021-08-03T08:27:44.236Z</time>
      </trkpt>
      <trkpt lat="47.02614" lon="8.93668">
        <ele>900</ele>
        <time>2021-08-03T08:27:45.236Z</time>
      </trkpt>
      <trkpt lat="47.02614" lon="8.93669">
        <ele>901</ele>
        <time>2021-08-03T08:27:46.236Z</time>
      </trkpt>
      <trkpt lat="47.02614" lon="8.93671">
        <ele>901</ele>
        <time>2021-08-03T08:27:47.236Z</time>
      </trkpt>
      <trkpt lat="47.02614" lon="8.93673">
        <ele>901</ele>
        <time>2021-08-03T08:27:48.236Z</time>
      </trkpt>
      <trkpt lat="47.02615" lon="8.93675">
        <ele>901</ele>
        <time>2021-08-03T08:27:49.236Z</time>
      </trkpt>
      <trkpt lat="47.02615" lon="8.93677">
        <ele>901</ele>
        <time>2021-08-03T08:27:50.236Z</time>
      </trkpt>
      <trkpt lat="47.02615" lon="8.93679">
        <ele>901</ele>
        <time>2021-08-03T08:27:51.236Z</time>
      </trkpt>
      <trkpt lat="47.02615" lon="8.93681">
        <ele>901</ele>
        <time>2021-08-03T08:27:52.236Z</time>
      </trkpt>
      <trkpt lat="47.02615" lon="8.93683">
        <ele>900</ele>
        <time>2021-08-03T08:27:53.236Z</time>
      </trkpt>
      <trkpt lat="47.02615" lon="8.93684">
        <ele>900</ele>
        <time>2021-08-03T08:27:54.236Z</time>
      </trkpt>
      <trkpt lat="47.02615" lon="8.93686">
        <ele>900</ele>
        <time>2021-08-03T08:27:55.236Z</time>
      </trkpt>
      <trkpt lat="47.02615" lon="8.93687">
        <ele>900</ele>
        <time>2021-08-03T08:27:56.236Z</time>
      </trkpt>
      <trkpt lat="47.02615" lon="8.93689">
        <ele>900</ele>
        <time>2021-08-03T08:27:57.236Z</time>
      </trkpt>
      <trkpt lat="47.02615" lon="8.9369">
        <ele>900</ele>
        <time>2021-08-03T08:27:58.236Z</time>
      </trkpt>
      <trkpt lat="47.02615" lon="8.93692">
        <ele>899</ele>
        <time>2021-08-03T08:27:59.236Z</time>
      </trkpt>
      <trkpt lat="47.02615" lon="8.93693">
        <ele>899</ele>
        <time>2021-08-03T08:28:00.236Z</time>
      </trkpt>
      <trkpt lat="47.02615" lon="8.93695">
        <ele>899</ele>
        <time>2021-08-03T08:28:01.236Z</time>
      </trkpt>
      <trkpt lat="47.02615" lon="8.93697">
        <ele>898</ele>
        <time>2021-08-03T08:28:02.236Z</time>
      </trkpt>
      <trkpt lat="47.02616" lon="8.93698">
        <ele>898</ele>
        <time>2021-08-03T08:28:03.236Z</time>
      </trkpt>
      <trkpt lat="47.02616" lon="8.937">
        <ele>898</ele>
        <time>2021-08-03T08:28:04.236Z</time>
      </trkpt>
      <trkpt lat="47.02616" lon="8.93702">
        <ele>898</ele>
        <time>2021-08-03T08:28:05.236Z</time>
      </trkpt>
      <trkpt lat="47.02616" lon="8.93703">
        <ele>898</ele>
        <time>2021-08-03T08:28:06.236Z</time>
      </trkpt>
      <trkpt lat="47.02616" lon="8.93705">
        <ele>898</ele>
        <time>2021-08-03T08:28:07.236Z</time>
      </trkpt>
      <trkpt lat="47.02615" lon="8.93706">
        <ele>898</ele>
        <time>2021-08-03T08:28:08.236Z</time>
      </trkpt>
      <trkpt lat="47.02615" lon="8.93708">
        <ele>897</ele>
        <time>2021-08-03T08:28:09.236Z</time>
      </trkpt>
      <trkpt lat="47.02615" lon="8.9371">
        <ele>897</ele>
        <time>2021-08-03T08:28:10.236Z</time>
      </trkpt>
      <trkpt lat="47.02615" lon="8.93712">
        <ele>897</ele>
        <time>2021-08-03T08:28:11.236Z</time>
      </trkpt>
      <trkpt lat="47.02615" lon="8.93714">
        <ele>897</ele>
        <time>2021-08-03T08:28:12.236Z</time>
      </trkpt>
      <trkpt lat="47.02615" lon="8.93716">
        <ele>897</ele>
        <time>2021-08-03T08:28:13.236Z</time>
      </trkpt>
      <trkpt lat="47.02615" lon="8.93717">
        <ele>897</ele>
        <time>2021-08-03T08:28:14.236Z</time>
      </trkpt>
      <trkpt lat="47.02615" lon="8.93719">
        <ele>897</ele>
        <time>2021-08-03T08:28:15.236Z</time>
      </trkpt>
      <trkpt lat="47.02614" lon="8.9372">
        <ele>897</ele>
        <time>2021-08-03T08:28:16.236Z</time>
      </trkpt>
      <trkpt lat="47.02614" lon="8.93722">
        <ele>897</ele>
        <time>2021-08-03T08:28:17.236Z</time>
      </trkpt>
      <trkpt lat="47.02614" lon="8.93725">
        <ele>898</ele>
        <time>2021-08-03T08:28:18.236Z</time>
      </trkpt>
      <trkpt lat="47.02614" lon="8.93726">
        <ele>898</ele>
        <time>2021-08-03T08:28:19.236Z</time>
      </trkpt>
      <trkpt lat="47.02614" lon="8.93728">
        <ele>898</ele>
        <time>2021-08-03T08:28:20.236Z</time>
      </trkpt>
      <trkpt lat="47.02613" lon="8.9373">
        <ele>899</ele>
        <time>2021-08-03T08:28:21.236Z</time>
      </trkpt>
      <trkpt lat="47.02613" lon="8.93732">
        <ele>899</ele>
        <time>2021-08-03T08:28:22.236Z</time>
      </trkpt>
      <trkpt lat="47.02613" lon="8.93734">
        <ele>900</ele>
        <time>2021-08-03T08:28:23.236Z</time>
      </trkpt>
      <trkpt lat="47.02613" lon="8.93736">
        <ele>900</ele>
        <time>2021-08-03T08:28:24.236Z</time>
      </trkpt>
      <trkpt lat="47.02613" lon="8.93737">
        <ele>901</ele>
        <time>2021-08-03T08:28:25.236Z</time>
      </trkpt>
      <trkpt lat="47.02612" lon="8.93739">
        <ele>900</ele>
        <time>2021-08-03T08:28:26.236Z</time>
      </trkpt>
      <trkpt lat="47.02612" lon="8.93741">
        <ele>900</ele>
        <time>2021-08-03T08:28:27.236Z</time>
      </trkpt>
      <trkpt lat="47.02612" lon="8.93743">
        <ele>899</ele>
        <time>2021-08-03T08:28:28.236Z</time>
      </trkpt>
      <trkpt lat="47.02612" lon="8.93745">
        <ele>899</ele>
        <time>2021-08-03T08:28:29.236Z</time>
      </trkpt>
      <trkpt lat="47.02612" lon="8.93746">
        <ele>898</ele>
        <time>2021-08-03T08:28:30.236Z</time>
      </trkpt>
      <trkpt lat="47.02612" lon="8.93748">
        <ele>897</ele>
        <time>2021-08-03T08:28:31.236Z</time>
      </trkpt>
      <trkpt lat="47.02611" lon="8.9375">
        <ele>896</ele>
        <time>2021-08-03T08:28:32.236Z</time>
      </trkpt>
      <trkpt lat="47.02611" lon="8.93751">
        <ele>895</ele>
        <time>2021-08-03T08:28:33.236Z</time>
      </trkpt>
      <trkpt lat="47.02611" lon="8.93752">
        <ele>894</ele>
        <time>2021-08-03T08:28:34.236Z</time>
      </trkpt>
      <trkpt lat="47.02611" lon="8.93751">
        <ele>893</ele>
        <time>2021-08-03T08:28:35.236Z</time>
      </trkpt>
      <trkpt lat="47.02612" lon="8.9375">
        <ele>892</ele>
        <time>2021-08-03T08:28:36.236Z</time>
      </trkpt>
      <trkpt lat="47.02612" lon="8.93748">
        <ele>892</ele>
        <time>2021-08-03T08:28:37.236Z</time>
      </trkpt>
      <trkpt lat="47.02612" lon="8.93746">
        <ele>891</ele>
        <time>2021-08-03T08:28:38.236Z</time>
      </trkpt>
      <trkpt lat="47.02612" lon="8.93744">
        <ele>891</ele>
        <time>2021-08-03T08:28:39.236Z</time>
      </trkpt>
      <trkpt lat="47.02613" lon="8.93742">
        <ele>891</ele>
        <time>2021-08-03T08:28:40.236Z</time>
      </trkpt>
      <trkpt lat="47.02613" lon="8.9374">
        <ele>890</ele>
        <time>2021-08-03T08:28:41.236Z</time>
      </trkpt>
      <trkpt lat="47.02613" lon="8.93738">
        <ele>890</ele>
        <time>2021-08-03T08:28:42.236Z</time>
      </trkpt>
      <trkpt lat="47.02613" lon="8.93736">
        <ele>891</ele>
        <time>2021-08-03T08:28:43.236Z</time>
      </trkpt>
      <trkpt lat="47.02613" lon="8.93734">
        <ele>891</ele>
        <time>2021-08-03T08:28:44.236Z</time>
      </trkpt>
      <trkpt lat="47.02614" lon="8.93732">
        <ele>891</ele>
        <time>2021-08-03T08:28:45.236Z</time>
      </trkpt>
      <trkpt lat="47.02614" lon="8.9373">
        <ele>890</ele>
        <time>2021-08-03T08:28:46.236Z</time>
      </trkpt>
      <trkpt lat="47.02614" lon="8.93728">
        <ele>890</ele>
        <time>2021-08-03T08:28:47.236Z</time>
      </trkpt>
      <trkpt lat="47.02615" lon="8.93726">
        <ele>889</ele>
        <time>2021-08-03T08:28:48.236Z</time>
      </trkpt>
      <trkpt lat="47.02615" lon="8.93724">
        <ele>889</ele>
        <time>2021-08-03T08:28:49.236Z</time>
      </trkpt>
      <trkpt lat="47.02615" lon="8.93722">
        <ele>889</ele>
        <time>2021-08-03T08:28:50.236Z</time>
      </trkpt>
      <trkpt lat="47.02615" lon="8.9372">
        <ele>888</ele>
        <time>2021-08-03T08:28:51.236Z</time>
      </trkpt>
      <trkpt lat="47.02615" lon="8.93718">
        <ele>888</ele>
        <time>2021-08-03T08:28:52.236Z</time>
      </trkpt>
      <trkpt lat="47.02616" lon="8.93716">
        <ele>888</ele>
        <time>2021-08-03T08:28:53.236Z</time>
      </trkpt>
      <trkpt lat="47.02616" lon="8.93714">
        <ele>888</ele>
        <time>2021-08-03T08:28:54.236Z</time>
      </trkpt>
      <trkpt lat="47.02617" lon="8.93713">
        <ele>888</ele>
        <time>2021-08-03T08:28:55.236Z</time>
      </trkpt>
      <trkpt lat="47.02616" lon="8.93711">
        <ele>889</ele>
        <time>2021-08-03T08:28:56.236Z</time>
      </trkpt>
      <trkpt lat="47.02616" lon="8.93709">
        <ele>889</ele>
        <time>2021-08-03T08:28:57.236Z</time>
      </trkpt>
      <trkpt lat="47.02616" lon="8.93707">
        <ele>889</ele>
        <time>2021-08-03T08:28:58.236Z</time>
      </trkpt>
      <trkpt lat="47.02616" lon="8.93706">
        <ele>890</ele>
        <time>2021-08-03T08:28:59.236Z</time>
      </trkpt>
      <trkpt lat="47.02617" lon="8.93704">
        <ele>890</ele>
        <time>2021-08-03T08:29:00.236Z</time>
      </trkpt>
      <trkpt lat="47.02617" lon="8.93702">
        <ele>891</ele>
        <time>2021-08-03T08:29:01.236Z</time>
      </trkpt>
      <trkpt lat="47.02617" lon="8.937">
        <ele>892</ele>
        <time>2021-08-03T08:29:02.236Z</time>
      </trkpt>
      <trkpt lat="47.02617" lon="8.93699">
        <ele>893</ele>
        <time>2021-08-03T08:29:03.236Z</time>
      </trkpt>
      <trkpt lat="47.02618" lon="8.93697">
        <ele>893</ele>
        <time>2021-08-03T08:29:04.236Z</time>
      </trkpt>
      <trkpt lat="47.02618" lon="8.93695">
        <ele>894</ele>
        <time>2021-08-03T08:29:05.236Z</time>
      </trkpt>
      <trkpt lat="47.02619" lon="8.93694">
        <ele>894</ele>
        <time>2021-08-03T08:29:06.236Z</time>
      </trkpt>
      <trkpt lat="47.02619" lon="8.93691">
        <ele>895</ele>
        <time>2021-08-03T08:29:07.236Z</time>
      </trkpt>
      <trkpt lat="47.02619" lon="8.9369">
        <ele>896</ele>
        <time>2021-08-03T08:29:08.236Z</time>
      </trkpt>
      <trkpt lat="47.02619" lon="8.93688">
        <ele>896</ele>
        <time>2021-08-03T08:29:09.236Z</time>
      </trkpt>
      <trkpt lat="47.0262" lon="8.93686">
        <ele>897</ele>
        <time>2021-08-03T08:29:10.236Z</time>
      </trkpt>
      <trkpt lat="47.02619" lon="8.93685">
        <ele>897</ele>
        <time>2021-08-03T08:29:11.236Z</time>
      </trkpt>
      <trkpt lat="47.02619" lon="8.93683">
        <ele>897</ele>
        <time>2021-08-03T08:29:12.236Z</time>
      </trkpt>
      <trkpt lat="47.02619" lon="8.93681">
        <ele>897</ele>
        <time>2021-08-03T08:29:13.236Z</time>
      </trkpt>
      <trkpt lat="47.02619" lon="8.93679">
        <ele>897</ele>
        <time>2021-08-03T08:29:14.236Z</time>
      </trkpt>
      <trkpt lat="47.02619" lon="8.93678">
        <ele>898</ele>
        <time>2021-08-03T08:29:15.236Z</time>
      </trkpt>
      <trkpt lat="47.02619" lon="8.93676">
        <ele>898</ele>
        <time>2021-08-03T08:29:16.236Z</time>
      </trkpt>
      <trkpt lat="47.02619" lon="8.93674">
        <ele>898</ele>
        <time>2021-08-03T08:29:17.236Z</time>
      </trkpt>
      <trkpt lat="47.02619" lon="8.93672">
        <ele>898</ele>
        <time>2021-08-03T08:29:18.236Z</time>
      </trkpt>
      <trkpt lat="47.02619" lon="8.9367">
        <ele>898</ele>
        <time>2021-08-03T08:29:19.236Z</time>
      </trkpt>
      <trkpt lat="47.02619" lon="8.93668">
        <ele>898</ele>
        <time>2021-08-03T08:29:20.236Z</time>
      </trkpt>
      <trkpt lat="47.02619" lon="8.93667">
        <ele>898</ele>
        <time>2021-08-03T08:29:21.236Z</time>
      </trkpt>
      <trkpt lat="47.02618" lon="8.93665">
        <ele>897</ele>
        <time>2021-08-03T08:29:22.236Z</time>
      </trkpt>
      <trkpt lat="47.02618" lon="8.93663">
        <ele>897</ele>
        <time>2021-08-03T08:29:23.236Z</time>
      </trkpt>
      <trkpt lat="47.02617" lon="8.9366">
        <ele>897</ele>
        <time>2021-08-03T08:29:24.236Z</time>
      </trkpt>
      <trkpt lat="47.02617" lon="8.93658">
        <ele>897</ele>
        <time>2021-08-03T08:29:25.236Z</time>
      </trkpt>
      <trkpt lat="47.02616" lon="8.93656">
        <ele>897</ele>
        <time>2021-08-03T08:29:26.236Z</time>
      </trkpt>
      <trkpt lat="47.02616" lon="8.93654">
        <ele>897</ele>
        <time>2021-08-03T08:29:27.236Z</time>
      </trkpt>
      <trkpt lat="47.02615" lon="8.93652">
        <ele>897</ele>
        <time>2021-08-03T08:29:28.236Z</time>
      </trkpt>
      <trkpt lat="47.02615" lon="8.9365">
        <ele>897</ele>
        <time>2021-08-03T08:29:29.236Z</time>
      </trkpt>
      <trkpt lat="47.02615" lon="8.93648">
        <ele>897</ele>
        <time>2021-08-03T08:29:30.236Z</time>
      </trkpt>
      <trkpt lat="47.02614" lon="8.93646">
        <ele>897</ele>
        <time>2021-08-03T08:29:31.236Z</time>
      </trkpt>
      <trkpt lat="47.02614" lon="8.93644">
        <ele>897</ele>
        <time>2021-08-03T08:29:32.236Z</time>
      </trkpt>
      <trkpt lat="47.02614" lon="8.93642">
        <ele>897</ele>
        <time>2021-08-03T08:29:33.236Z</time>
      </trkpt>
      <trkpt lat="47.02613" lon="8.93641">
        <ele>897</ele>
        <time>2021-08-03T08:29:34.236Z</time>
      </trkpt>
      <trkpt lat="47.02613" lon="8.93639">
        <ele>897</ele>
        <time>2021-08-03T08:29:35.236Z</time>
      </trkpt>
      <trkpt lat="47.02613" lon="8.93638">
        <ele>897</ele>
        <time>2021-08-03T08:29:36.236Z</time>
      </trkpt>
      <trkpt lat="47.02613" lon="8.93637">
        <ele>897</ele>
        <time>2021-08-03T08:29:37.236Z</time>
      </trkpt>
      <trkpt lat="47.02612" lon="8.93636">
        <ele>897</ele>
        <time>2021-08-03T08:29:38.236Z</time>
      </trkpt>
      <trkpt lat="47.02612" lon="8.93634">
        <ele>897</ele>
        <time>2021-08-03T08:29:39.236Z</time>
      </trkpt>
      <trkpt lat="47.02613" lon="8.93632">
        <ele>897</ele>
        <time>2021-08-03T08:29:40.236Z</time>
      </trkpt>
      <trkpt lat="47.02613" lon="8.9363">
        <ele>897</ele>
        <time>2021-08-03T08:29:41.236Z</time>
      </trkpt>
      <trkpt lat="47.02613" lon="8.93628">
        <ele>898</ele>
        <time>2021-08-03T08:29:42.236Z</time>
      </trkpt>
      <trkpt lat="47.02613" lon="8.93627">
        <ele>898</ele>
        <time>2021-08-03T08:29:43.236Z</time>
      </trkpt>
      <trkpt lat="47.02613" lon="8.93625">
        <ele>899</ele>
        <time>2021-08-03T08:29:44.236Z</time>
      </trkpt>
      <trkpt lat="47.02613" lon="8.93624">
        <ele>899</ele>
        <time>2021-08-03T08:29:45.236Z</time>
      </trkpt>
      <trkpt lat="47.02613" lon="8.93623">
        <ele>900</ele>
        <time>2021-08-03T08:29:46.236Z</time>
      </trkpt>
      <trkpt lat="47.02613" lon="8.93621">
        <ele>900</ele>
        <time>2021-08-03T08:29:47.236Z</time>
      </trkpt>
      <trkpt lat="47.02612" lon="8.93619">
        <ele>901</ele>
        <time>2021-08-03T08:29:48.236Z</time>
      </trkpt>
      <trkpt lat="47.02612" lon="8.93618">
        <ele>901</ele>
        <time>2021-08-03T08:29:49.236Z</time>
      </trkpt>
      <trkpt lat="47.02612" lon="8.93617">
        <ele>901</ele>
        <time>2021-08-03T08:29:50.236Z</time>
      </trkpt>
      <trkpt lat="47.02612" lon="8.93616">
        <ele>902</ele>
        <time>2021-08-03T08:29:51.236Z</time>
      </trkpt>
      <trkpt lat="47.02612" lon="8.93615">
        <ele>902</ele>
        <time>2021-08-03T08:29:52.236Z</time>
      </trkpt>
      <trkpt lat="47.02611" lon="8.93614">
        <ele>902</ele>
        <time>2021-08-03T08:29:53.236Z</time>
      </trkpt>
      <trkpt lat="47.0261" lon="8.93613">
        <ele>902</ele>
        <time>2021-08-03T08:29:54.236Z</time>
      </trkpt>
      <trkpt lat="47.0261" lon="8.93613">
        <ele>902</ele>
        <time>2021-08-03T08:29:55.236Z</time>
      </trkpt>
      <trkpt lat="47.02609" lon="8.93612">
        <ele>901</ele>
        <time>2021-08-03T08:29:56.236Z</time>
      </trkpt>
      <trkpt lat="47.02609" lon="8.93612">
        <ele>901</ele>
        <time>2021-08-03T08:29:57.236Z</time>
      </trkpt>
      <trkpt lat="47.02609" lon="8.93611">
        <ele>901</ele>
        <time>2021-08-03T08:29:58.236Z</time>
      </trkpt>
      <trkpt lat="47.0261" lon="8.93611">
        <ele>901</ele>
        <time>2021-08-03T08:29:59.236Z</time>
      </trkpt>
      <trkpt lat="47.0261" lon="8.9361">
        <ele>901</ele>
        <time>2021-08-03T08:30:00.236Z</time>
      </trkpt>
      <trkpt lat="47.0261" lon="8.9361">
        <ele>901</ele>
        <time>2021-08-03T08:30:01.236Z</time>
      </trkpt>
      <trkpt lat="47.0261" lon="8.93609">
        <ele>900</ele>
        <time>2021-08-03T08:30:02.236Z</time>
      </trkpt>
      <trkpt lat="47.02611" lon="8.93607">
        <ele>900</ele>
        <time>2021-08-03T08:30:03.236Z</time>
      </trkpt>
      <trkpt lat="47.02611" lon="8.93607">
        <ele>900</ele>
        <time>2021-08-03T08:30:04.236Z</time>
      </trkpt>
      <trkpt lat="47.02611" lon="8.93607">
        <ele>900</ele>
        <time>2021-08-03T08:30:05.236Z</time>
      </trkpt>
      <trkpt lat="47.02611" lon="8.93605">
        <ele>900</ele>
        <time>2021-08-03T08:30:06.236Z</time>
      </trkpt>
      <trkpt lat="47.02611" lon="8.93605">
        <ele>900</ele>
        <time>2021-08-03T08:30:07.236Z</time>
      </trkpt>
      <trkpt lat="47.02611" lon="8.93603">
        <ele>900</ele>
        <time>2021-08-03T08:30:08.236Z</time>
      </trkpt>
      <trkpt lat="47.02612" lon="8.93602">
        <ele>901</ele>
        <time>2021-08-03T08:30:09.236Z</time>
      </trkpt>
      <trkpt lat="47.02612" lon="8.93601">
        <ele>901</ele>
        <time>2021-08-03T08:30:10.236Z</time>
      </trkpt>
      <trkpt lat="47.02612" lon="8.93599">
        <ele>902</ele>
        <time>2021-08-03T08:30:11.236Z</time>
      </trkpt>
      <trkpt lat="47.02612" lon="8.93598">
        <ele>902</ele>
        <time>2021-08-03T08:30:12.236Z</time>
      </trkpt>
      <trkpt lat="47.02612" lon="8.93597">
        <ele>902</ele>
        <time>2021-08-03T08:30:13.236Z</time>
      </trkpt>
      <trkpt lat="47.02612" lon="8.93596">
        <ele>902</ele>
        <time>2021-08-03T08:30:14.236Z</time>
      </trkpt>
      <trkpt lat="47.02613" lon="8.93594">
        <ele>902</ele>
        <time>2021-08-03T08:30:15.236Z</time>
      </trkpt>
      <trkpt lat="47.02612" lon="8.93593">
        <ele>902</ele>
        <time>2021-08-03T08:30:16.236Z</time>
      </trkpt>
      <trkpt lat="47.02613" lon="8.93592">
        <ele>901</ele>
        <time>2021-08-03T08:30:17.236Z</time>
      </trkpt>
      <trkpt lat="47.02613" lon="8.93591">
        <ele>901</ele>
        <time>2021-08-03T08:30:18.236Z</time>
      </trkpt>
      <trkpt lat="47.02614" lon="8.9359">
        <ele>901</ele>
        <time>2021-08-03T08:30:19.236Z</time>
      </trkpt>
      <trkpt lat="47.02614" lon="8.93589">
        <ele>901</ele>
        <time>2021-08-03T08:30:20.236Z</time>
      </trkpt>
      <trkpt lat="47.02615" lon="8.93589">
        <ele>901</ele>
        <time>2021-08-03T08:30:21.236Z</time>
      </trkpt>
      <trkpt lat="47.02616" lon="8.93589">
        <ele>900</ele>
        <time>2021-08-03T08:30:22.236Z</time>
      </trkpt>
      <trkpt lat="47.02616" lon="8.93589">
        <ele>900</ele>
        <time>2021-08-03T08:30:23.236Z</time>
      </trkpt>
      <trkpt lat="47.02616" lon="8.93589">
        <ele>899</ele>
        <time>2021-08-03T08:30:24.236Z</time>
      </trkpt>
      <trkpt lat="47.02616" lon="8.93589">
        <ele>900</ele>
        <time>2021-08-03T08:30:25.237Z</time>
      </trkpt>
      <trkpt lat="47.02616" lon="8.93589">
        <ele>900</ele>
        <time>2021-08-03T08:30:26.237Z</time>
      </trkpt>
      <trkpt lat="47.02616" lon="8.93588">
        <ele>901</ele>
        <time>2021-08-03T08:30:27.237Z</time>
      </trkpt>
      <trkpt lat="47.02617" lon="8.93588">
        <ele>901</ele>
        <time>2021-08-03T08:30:28.238Z</time>
      </trkpt>
      <trkpt lat="47.02617" lon="8.93587">
        <ele>901</ele>
        <time>2021-08-03T08:30:29.238Z</time>
      </trkpt>
      <trkpt lat="47.02616" lon="8.93586">
        <ele>901</ele>
        <time>2021-08-03T08:30:30.238Z</time>
      </trkpt>
      <trkpt lat="47.02616" lon="8.93586">
        <ele>902</ele>
        <time>2021-08-03T08:30:31.237Z</time>
      </trkpt>
      <trkpt lat="47.02615" lon="8.93586">
        <ele>902</ele>
        <time>2021-08-03T08:30:32.237Z</time>
      </trkpt>
      <trkpt lat="47.02615" lon="8.93586">
        <ele>902</ele>
        <time>2021-08-03T08:30:33.238Z</time>
      </trkpt>
      <trkpt lat="47.02615" lon="8.93586">
        <ele>902</ele>
        <time>2021-08-03T08:30:34.238Z</time>
      </trkpt>
      <trkpt lat="47.02615" lon="8.93586">
        <ele>903</ele>
        <time>2021-08-03T08:30:35.238Z</time>
      </trkpt>
      <trkpt lat="47.02615" lon="8.93584">
        <ele>906</ele>
        <time>2021-08-03T08:30:36.238Z</time>
      </trkpt>
      <trkpt lat="47.02615" lon="8.93584">
        <ele>907</ele>
        <time>2021-08-03T08:30:37.239Z</time>
      </trkpt>
      <trkpt lat="47.02616" lon="8.93584">
        <ele>907</ele>
        <time>2021-08-03T08:30:38.238Z</time>
      </trkpt>
      <trkpt lat="47.02616" lon="8.93584">
        <ele>907</ele>
        <time>2021-08-03T08:30:39.239Z</time>
      </trkpt>
      <trkpt lat="47.02617" lon="8.93584">
        <ele>907</ele>
        <time>2021-08-03T08:30:40.239Z</time>
      </trkpt>
      <trkpt lat="47.02617" lon="8.93585">
        <ele>908</ele>
        <time>2021-08-03T08:30:41.238Z</time>
      </trkpt>
      <trkpt lat="47.02617" lon="8.93584">
        <ele>907</ele>
        <time>2021-08-03T08:30:42.238Z</time>
      </trkpt>
      <trkpt lat="47.02617" lon="8.93583">
        <ele>908</ele>
        <time>2021-08-03T08:30:43.238Z</time>
      </trkpt>
      <trkpt lat="47.02617" lon="8.93582">
        <ele>908</ele>
        <time>2021-08-03T08:30:44.238Z</time>
      </trkpt>
      <trkpt lat="47.02618" lon="8.93581">
        <ele>908</ele>
        <time>2021-08-03T08:30:45.239Z</time>
      </trkpt>
      <trkpt lat="47.02618" lon="8.9358">
        <ele>908</ele>
        <time>2021-08-03T08:30:46.238Z</time>
      </trkpt>
      <trkpt lat="47.02617" lon="8.93578">
        <ele>908</ele>
        <time>2021-08-03T08:30:47.238Z</time>
      </trkpt>
      <trkpt lat="47.02618" lon="8.93577">
        <ele>908</ele>
        <time>2021-08-03T08:30:48.238Z</time>
      </trkpt>
      <trkpt lat="47.02618" lon="8.93576">
        <ele>908</ele>
        <time>2021-08-03T08:30:49.238Z</time>
      </trkpt>
      <trkpt lat="47.02618" lon="8.93574">
        <ele>908</ele>
        <time>2021-08-03T08:30:50.238Z</time>
      </trkpt>
      <trkpt lat="47.02618" lon="8.93573">
        <ele>907</ele>
        <time>2021-08-03T08:30:51.238Z</time>
      </trkpt>
      <trkpt lat="47.02618" lon="8.93572">
        <ele>907</ele>
        <time>2021-08-03T08:30:52.238Z</time>
      </trkpt>
      <trkpt lat="47.02618" lon="8.9357">
        <ele>907</ele>
        <time>2021-08-03T08:30:53.238Z</time>
      </trkpt>
      <trkpt lat="47.02619" lon="8.93569">
        <ele>906</ele>
        <time>2021-08-03T08:30:54.238Z</time>
      </trkpt>
      <trkpt lat="47.02619" lon="8.93567">
        <ele>906</ele>
        <time>2021-08-03T08:30:55.239Z</time>
      </trkpt>
      <trkpt lat="47.02619" lon="8.93566">
        <ele>906</ele>
        <time>2021-08-03T08:30:56.239Z</time>
      </trkpt>
      <trkpt lat="47.0262" lon="8.93565">
        <ele>906</ele>
        <time>2021-08-03T08:30:57.239Z</time>
      </trkpt>
      <trkpt lat="47.0262" lon="8.93563">
        <ele>906</ele>
        <time>2021-08-03T08:30:58.238Z</time>
      </trkpt>
      <trkpt lat="47.0262" lon="8.93562">
        <ele>906</ele>
        <time>2021-08-03T08:30:59.239Z</time>
      </trkpt>
      <trkpt lat="47.0262" lon="8.9356">
        <ele>906</ele>
        <time>2021-08-03T08:31:00.239Z</time>
      </trkpt>
      <trkpt lat="47.02621" lon="8.93559">
        <ele>907</ele>
        <time>2021-08-03T08:31:01.239Z</time>
      </trkpt>
      <trkpt lat="47.02621" lon="8.93558">
        <ele>907</ele>
        <time>2021-08-03T08:31:02.239Z</time>
      </trkpt>
      <trkpt lat="47.02621" lon="8.93557">
        <ele>908</ele>
        <time>2021-08-03T08:31:03.239Z</time>
      </trkpt>
      <trkpt lat="47.02621" lon="8.93555">
        <ele>908</ele>
        <time>2021-08-03T08:31:04.239Z</time>
      </trkpt>
      <trkpt lat="47.02622" lon="8.93554">
        <ele>909</ele>
        <time>2021-08-03T08:31:05.239Z</time>
      </trkpt>
      <trkpt lat="47.02622" lon="8.93553">
        <ele>909</ele>
        <time>2021-08-03T08:31:06.239Z</time>
      </trkpt>
      <trkpt lat="47.02622" lon="8.93551">
        <ele>909</ele>
        <time>2021-08-03T08:31:07.239Z</time>
      </trkpt>
      <trkpt lat="47.02622" lon="8.9355">
        <ele>909</ele>
        <time>2021-08-03T08:31:08.238Z</time>
      </trkpt>
      <trkpt lat="47.02623" lon="8.93549">
        <ele>908</ele>
        <time>2021-08-03T08:31:09.239Z</time>
      </trkpt>
      <trkpt lat="47.02623" lon="8.93548">
        <ele>908</ele>
        <time>2021-08-03T08:31:10.239Z</time>
      </trkpt>
      <trkpt lat="47.02624" lon="8.93547">
        <ele>907</ele>
        <time>2021-08-03T08:31:11.239Z</time>
      </trkpt>
      <trkpt lat="47.02624" lon="8.93545">
        <ele>907</ele>
        <time>2021-08-03T08:31:12.239Z</time>
      </trkpt>
      <trkpt lat="47.02625" lon="8.93544">
        <ele>906</ele>
        <time>2021-08-03T08:31:13.239Z</time>
      </trkpt>
      <trkpt lat="47.02625" lon="8.93543">
        <ele>906</ele>
        <time>2021-08-03T08:31:14.238Z</time>
      </trkpt>
      <trkpt lat="47.02626" lon="8.9354">
        <ele>906</ele>
        <time>2021-08-03T08:31:15.239Z</time>
      </trkpt>
      <trkpt lat="47.02625" lon="8.93538">
        <ele>906</ele>
        <time>2021-08-03T08:31:16.238Z</time>
      </trkpt>
      <trkpt lat="47.02625" lon="8.93537">
        <ele>907</ele>
        <time>2021-08-03T08:31:17.238Z</time>
      </trkpt>
      <trkpt lat="47.02625" lon="8.93536">
        <ele>908</ele>
        <time>2021-08-03T08:31:18.238Z</time>
      </trkpt>
      <trkpt lat="47.02625" lon="8.93535">
        <ele>908</ele>
        <time>2021-08-03T08:31:19.238Z</time>
      </trkpt>
      <trkpt lat="47.02625" lon="8.93534">
        <ele>909</ele>
        <time>2021-08-03T08:31:20.238Z</time>
      </trkpt>
      <trkpt lat="47.02626" lon="8.93533">
        <ele>909</ele>
        <time>2021-08-03T08:31:21.238Z</time>
      </trkpt>
      <trkpt lat="47.02626" lon="8.93532">
        <ele>909</ele>
        <time>2021-08-03T08:31:22.239Z</time>
      </trkpt>
      <trkpt lat="47.02627" lon="8.93531">
        <ele>909</ele>
        <time>2021-08-03T08:31:23.238Z</time>
      </trkpt>
      <trkpt lat="47.02627" lon="8.9353">
        <ele>909</ele>
        <time>2021-08-03T08:31:24.239Z</time>
      </trkpt>
      <trkpt lat="47.02628" lon="8.93528">
        <ele>909</ele>
        <time>2021-08-03T08:31:25.239Z</time>
      </trkpt>
      <trkpt lat="47.02628" lon="8.93527">
        <ele>910</ele>
        <time>2021-08-03T08:31:26.238Z</time>
      </trkpt>
      <trkpt lat="47.02628" lon="8.93526">
        <ele>910</ele>
        <time>2021-08-03T08:31:27.238Z</time>
      </trkpt>
      <trkpt lat="47.02629" lon="8.93525">
        <ele>911</ele>
        <time>2021-08-03T08:31:28.238Z</time>
      </trkpt>
      <trkpt lat="47.02629" lon="8.93524">
        <ele>911</ele>
        <time>2021-08-03T08:31:29.239Z</time>
      </trkpt>
      <trkpt lat="47.02629" lon="8.93522">
        <ele>912</ele>
        <time>2021-08-03T08:31:30.239Z</time>
      </trkpt>
      <trkpt lat="47.0263" lon="8.93521">
        <ele>912</ele>
        <time>2021-08-03T08:31:31.239Z</time>
      </trkpt>
      <trkpt lat="47.0263" lon="8.9352">
        <ele>912</ele>
        <time>2021-08-03T08:31:32.238Z</time>
      </trkpt>
      <trkpt lat="47.0263" lon="8.93518">
        <ele>912</ele>
        <time>2021-08-03T08:31:33.238Z</time>
      </trkpt>
      <trkpt lat="47.0263" lon="8.93517">
        <ele>912</ele>
        <time>2021-08-03T08:31:34.239Z</time>
      </trkpt>
      <trkpt lat="47.0263" lon="8.93516">
        <ele>912</ele>
        <time>2021-08-03T08:31:35.239Z</time>
      </trkpt>
      <trkpt lat="47.02631" lon="8.93516">
        <ele>912</ele>
        <time>2021-08-03T08:31:36.238Z</time>
      </trkpt>
      <trkpt lat="47.02631" lon="8.93516">
        <ele>912</ele>
        <time>2021-08-03T08:31:37.238Z</time>
      </trkpt>
      <trkpt lat="47.02631" lon="8.93515">
        <ele>911</ele>
        <time>2021-08-03T08:31:38.239Z</time>
      </trkpt>
      <trkpt lat="47.02631" lon="8.93515">
        <ele>911</ele>
        <time>2021-08-03T08:31:39.238Z</time>
      </trkpt>
      <trkpt lat="47.02632" lon="8.93513">
        <ele>913</ele>
        <time>2021-08-03T08:31:40.239Z</time>
      </trkpt>
      <trkpt lat="47.02632" lon="8.93512">
        <ele>913</ele>
        <time>2021-08-03T08:31:41.240Z</time>
      </trkpt>
      <trkpt lat="47.02633" lon="8.9351">
        <ele>914</ele>
        <time>2021-08-03T08:31:42.239Z</time>
      </trkpt>
      <trkpt lat="47.02633" lon="8.93509">
        <ele>914</ele>
        <time>2021-08-03T08:31:43.239Z</time>
      </trkpt>
      <trkpt lat="47.02633" lon="8.93508">
        <ele>913</ele>
        <time>2021-08-03T08:31:44.240Z</time>
      </trkpt>
      <trkpt lat="47.02633" lon="8.93506">
        <ele>913</ele>
        <time>2021-08-03T08:31:45.240Z</time>
      </trkpt>
      <trkpt lat="47.02632" lon="8.93505">
        <ele>913</ele>
        <time>2021-08-03T08:31:46.240Z</time>
      </trkpt>
      <trkpt lat="47.02632" lon="8.93503">
        <ele>913</ele>
        <time>2021-08-03T08:31:47.239Z</time>
      </trkpt>
      <trkpt lat="47.02632" lon="8.93501">
        <ele>913</ele>
        <time>2021-08-03T08:31:48.240Z</time>
      </trkpt>
      <trkpt lat="47.02632" lon="8.935">
        <ele>913</ele>
        <time>2021-08-03T08:31:49.239Z</time>
      </trkpt>
      <trkpt lat="47.02632" lon="8.93499">
        <ele>913</ele>
        <time>2021-08-03T08:31:50.240Z</time>
      </trkpt>
      <trkpt lat="47.02632" lon="8.93497">
        <ele>913</ele>
        <time>2021-08-03T08:31:51.239Z</time>
      </trkpt>
      <trkpt lat="47.02632" lon="8.93496">
        <ele>913</ele>
        <time>2021-08-03T08:31:52.239Z</time>
      </trkpt>
      <trkpt lat="47.02632" lon="8.93494">
        <ele>912</ele>
        <time>2021-08-03T08:31:53.240Z</time>
      </trkpt>
      <trkpt lat="47.02633" lon="8.93493">
        <ele>913</ele>
        <time>2021-08-03T08:31:54.240Z</time>
      </trkpt>
      <trkpt lat="47.02633" lon="8.93491">
        <ele>913</ele>
        <time>2021-08-03T08:31:55.239Z</time>
      </trkpt>
      <trkpt lat="47.02634" lon="8.93489">
        <ele>913</ele>
        <time>2021-08-03T08:31:56.240Z</time>
      </trkpt>
      <trkpt lat="47.02634" lon="8.93488">
        <ele>914</ele>
        <time>2021-08-03T08:31:57.239Z</time>
      </trkpt>
      <trkpt lat="47.02634" lon="8.93487">
        <ele>914</ele>
        <time>2021-08-03T08:31:58.240Z</time>
      </trkpt>
      <trkpt lat="47.02634" lon="8.93485">
        <ele>914</ele>
        <time>2021-08-03T08:31:59.239Z</time>
      </trkpt>
      <trkpt lat="47.02634" lon="8.93484">
        <ele>914</ele>
        <time>2021-08-03T08:32:00.239Z</time>
      </trkpt>
      <trkpt lat="47.02635" lon="8.93483">
        <ele>914</ele>
        <time>2021-08-03T08:32:01.239Z</time>
      </trkpt>
      <trkpt lat="47.02635" lon="8.93481">
        <ele>914</ele>
        <time>2021-08-03T08:32:02.239Z</time>
      </trkpt>
      <trkpt lat="47.02634" lon="8.9348">
        <ele>914</ele>
        <time>2021-08-03T08:32:03.239Z</time>
      </trkpt>
      <trkpt lat="47.02634" lon="8.93479">
        <ele>914</ele>
        <time>2021-08-03T08:32:04.239Z</time>
      </trkpt>
      <trkpt lat="47.02633" lon="8.93478">
        <ele>914</ele>
        <time>2021-08-03T08:32:05.239Z</time>
      </trkpt>
      <trkpt lat="47.02633" lon="8.93477">
        <ele>914</ele>
        <time>2021-08-03T08:32:06.240Z</time>
      </trkpt>
      <trkpt lat="47.02633" lon="8.93477">
        <ele>914</ele>
        <time>2021-08-03T08:32:07.240Z</time>
      </trkpt>
      <trkpt lat="47.02633" lon="8.93477">
        <ele>914</ele>
        <time>2021-08-03T08:32:08.239Z</time>
      </trkpt>
      <trkpt lat="47.02632" lon="8.93476">
        <ele>915</ele>
        <time>2021-08-03T08:32:09.239Z</time>
      </trkpt>
      <trkpt lat="47.02632" lon="8.93476">
        <ele>915</ele>
        <time>2021-08-03T08:32:10.240Z</time>
      </trkpt>
      <trkpt lat="47.02632" lon="8.93475">
        <ele>915</ele>
        <time>2021-08-03T08:32:11.240Z</time>
      </trkpt>
      <trkpt lat="47.02632" lon="8.93474">
        <ele>915</ele>
        <time>2021-08-03T08:32:12.239Z</time>
      </trkpt>
      <trkpt lat="47.02632" lon="8.93474">
        <ele>915</ele>
        <time>2021-08-03T08:32:13.240Z</time>
      </trkpt>
      <trkpt lat="47.02632" lon="8.93473">
        <ele>915</ele>
        <time>2021-08-03T08:32:14.240Z</time>
      </trkpt>
      <trkpt lat="47.02632" lon="8.93473">
        <ele>915</ele>
        <time>2021-08-03T08:32:15.240Z</time>
      </trkpt>
      <trkpt lat="47.02632" lon="8.93473">
        <ele>915</ele>
        <time>2021-08-03T08:32:16.239Z</time>
      </trkpt>
      <trkpt lat="47.02631" lon="8.93472">
        <ele>915</ele>
        <time>2021-08-03T08:32:17.239Z</time>
      </trkpt>
      <trkpt lat="47.02631" lon="8.9347">
        <ele>915</ele>
        <time>2021-08-03T08:32:18.240Z</time>
      </trkpt>
      <trkpt lat="47.02631" lon="8.93469">
        <ele>915</ele>
        <time>2021-08-03T08:32:19.240Z</time>
      </trkpt>
      <trkpt lat="47.02631" lon="8.93468">
        <ele>915</ele>
        <time>2021-08-03T08:32:20.240Z</time>
      </trkpt>
      <trkpt lat="47.02632" lon="8.93467">
        <ele>915</ele>
        <time>2021-08-03T08:32:21.240Z</time>
      </trkpt>
      <trkpt lat="47.02632" lon="8.93466">
        <ele>914</ele>
        <time>2021-08-03T08:32:22.240Z</time>
      </trkpt>
      <trkpt lat="47.02632" lon="8.93464">
        <ele>914</ele>
        <time>2021-08-03T08:32:23.240Z</time>
      </trkpt>
      <trkpt lat="47.02632" lon="8.93463">
        <ele>914</ele>
        <time>2021-08-03T08:32:24.240Z</time>
      </trkpt>
      <trkpt lat="47.02632" lon="8.93462">
        <ele>914</ele>
        <time>2021-08-03T08:32:25.240Z</time>
      </trkpt>
      <trkpt lat="47.02632" lon="8.93461">
        <ele>914</ele>
        <time>2021-08-03T08:32:26.239Z</time>
      </trkpt>
      <trkpt lat="47.02631" lon="8.93461">
        <ele>914</ele>
        <time>2021-08-03T08:32:27.240Z</time>
      </trkpt>
      <trkpt lat="47.02631" lon="8.93461">
        <ele>913</ele>
        <time>2021-08-03T08:32:28.241Z</time>
      </trkpt>
      <trkpt lat="47.02631" lon="8.93461">
        <ele>913</ele>
        <time>2021-08-03T08:32:29.241Z</time>
      </trkpt>
      <trkpt lat="47.02631" lon="8.93461">
        <ele>913</ele>
        <time>2021-08-03T08:32:30.241Z</time>
      </trkpt>
      <trkpt lat="47.02631" lon="8.9346">
        <ele>914</ele>
        <time>2021-08-03T08:32:31.241Z</time>
      </trkpt>
      <trkpt lat="47.02631" lon="8.9346">
        <ele>914</ele>
        <time>2021-08-03T08:32:32.241Z</time>
      </trkpt>
      <trkpt lat="47.02631" lon="8.9346">
        <ele>914</ele>
        <time>2021-08-03T08:32:33.241Z</time>
      </trkpt>
      <trkpt lat="47.02631" lon="8.9346">
        <ele>914</ele>
        <time>2021-08-03T08:32:34.242Z</time>
      </trkpt>
      <trkpt lat="47.02631" lon="8.9346">
        <ele>914</ele>
        <time>2021-08-03T08:32:35.242Z</time>
      </trkpt>
      <trkpt lat="47.02631" lon="8.93459">
        <ele>914</ele>
        <time>2021-08-03T08:32:36.242Z</time>
      </trkpt>
      <trkpt lat="47.02631" lon="8.93459">
        <ele>914</ele>
        <time>2021-08-03T08:32:37.242Z</time>
      </trkpt>
      <trkpt lat="47.02631" lon="8.93457">
        <ele>914</ele>
        <time>2021-08-03T08:32:38.242Z</time>
      </trkpt>
      <trkpt lat="47.02631" lon="8.93456">
        <ele>913</ele>
        <time>2021-08-03T08:32:39.241Z</time>
      </trkpt>
      <trkpt lat="47.02631" lon="8.93455">
        <ele>914</ele>
        <time>2021-08-03T08:32:40.241Z</time>
      </trkpt>
      <trkpt lat="47.02631" lon="8.93454">
        <ele>914</ele>
        <time>2021-08-03T08:32:41.241Z</time>
      </trkpt>
      <trkpt lat="47.02632" lon="8.93453">
        <ele>914</ele>
        <time>2021-08-03T08:32:42.241Z</time>
      </trkpt>
      <trkpt lat="47.02632" lon="8.93451">
        <ele>914</ele>
        <time>2021-08-03T08:32:43.242Z</time>
      </trkpt>
      <trkpt lat="47.02632" lon="8.9345">
        <ele>913</ele>
        <time>2021-08-03T08:32:44.242Z</time>
      </trkpt>
      <trkpt lat="47.02632" lon="8.93449">
        <ele>913</ele>
        <time>2021-08-03T08:32:45.241Z</time>
      </trkpt>
      <trkpt lat="47.02632" lon="8.93447">
        <ele>913</ele>
        <time>2021-08-03T08:32:46.242Z</time>
      </trkpt>
      <trkpt lat="47.02632" lon="8.93447">
        <ele>914</ele>
        <time>2021-08-03T08:32:47.241Z</time>
      </trkpt>
      <trkpt lat="47.02632" lon="8.93446">
        <ele>914</ele>
        <time>2021-08-03T08:32:48.242Z</time>
      </trkpt>
      <trkpt lat="47.02632" lon="8.93446">
        <ele>914</ele>
        <time>2021-08-03T08:32:49.241Z</time>
      </trkpt>
      <trkpt lat="47.02632" lon="8.93444">
        <ele>914</ele>
        <time>2021-08-03T08:32:50.241Z</time>
      </trkpt>
      <trkpt lat="47.02632" lon="8.93443">
        <ele>915</ele>
        <time>2021-08-03T08:32:51.242Z</time>
      </trkpt>
      <trkpt lat="47.02632" lon="8.93442">
        <ele>916</ele>
        <time>2021-08-03T08:32:52.241Z</time>
      </trkpt>
      <trkpt lat="47.02632" lon="8.93441">
        <ele>916</ele>
        <time>2021-08-03T08:32:53.242Z</time>
      </trkpt>
      <trkpt lat="47.02632" lon="8.9344">
        <ele>916</ele>
        <time>2021-08-03T08:32:54.241Z</time>
      </trkpt>
      <trkpt lat="47.02632" lon="8.93439">
        <ele>916</ele>
        <time>2021-08-03T08:32:55.242Z</time>
      </trkpt>
      <trkpt lat="47.02632" lon="8.93438">
        <ele>917</ele>
        <time>2021-08-03T08:32:56.242Z</time>
      </trkpt>
      <trkpt lat="47.02632" lon="8.93437">
        <ele>917</ele>
        <time>2021-08-03T08:32:57.241Z</time>
      </trkpt>
      <trkpt lat="47.02632" lon="8.93436">
        <ele>917</ele>
        <time>2021-08-03T08:32:58.242Z</time>
      </trkpt>
      <trkpt lat="47.02632" lon="8.93435">
        <ele>916</ele>
        <time>2021-08-03T08:32:59.242Z</time>
      </trkpt>
      <trkpt lat="47.02632" lon="8.93434">
        <ele>916</ele>
        <time>2021-08-03T08:33:00.242Z</time>
      </trkpt>
      <trkpt lat="47.02632" lon="8.93433">
        <ele>916</ele>
        <time>2021-08-03T08:33:01.241Z</time>
      </trkpt>
      <trkpt lat="47.02632" lon="8.93431">
        <ele>916</ele>
        <time>2021-08-03T08:33:02.241Z</time>
      </trkpt>
      <trkpt lat="47.02632" lon="8.9343">
        <ele>916</ele>
        <time>2021-08-03T08:33:03.241Z</time>
      </trkpt>
      <trkpt lat="47.02632" lon="8.93429">
        <ele>915</ele>
        <time>2021-08-03T08:33:04.242Z</time>
      </trkpt>
      <trkpt lat="47.02633" lon="8.93428">
        <ele>915</ele>
        <time>2021-08-03T08:33:05.242Z</time>
      </trkpt>
      <trkpt lat="47.02633" lon="8.93427">
        <ele>914</ele>
        <time>2021-08-03T08:33:06.241Z</time>
      </trkpt>
      <trkpt lat="47.02633" lon="8.93425">
        <ele>914</ele>
        <time>2021-08-03T08:33:07.242Z</time>
      </trkpt>
      <trkpt lat="47.02633" lon="8.93424">
        <ele>914</ele>
        <time>2021-08-03T08:33:08.241Z</time>
      </trkpt>
      <trkpt lat="47.02633" lon="8.93422">
        <ele>914</ele>
        <time>2021-08-03T08:33:09.242Z</time>
      </trkpt>
      <trkpt lat="47.02633" lon="8.93421">
        <ele>914</ele>
        <time>2021-08-03T08:33:10.242Z</time>
      </trkpt>
      <trkpt lat="47.02633" lon="8.9342">
        <ele>914</ele>
        <time>2021-08-03T08:33:11.242Z</time>
      </trkpt>
      <trkpt lat="47.02633" lon="8.93419">
        <ele>914</ele>
        <time>2021-08-03T08:33:12.241Z</time>
      </trkpt>
      <trkpt lat="47.02633" lon="8.93418">
        <ele>914</ele>
        <time>2021-08-03T08:33:13.242Z</time>
      </trkpt>
      <trkpt lat="47.02633" lon="8.93416">
        <ele>914</ele>
        <time>2021-08-03T08:33:14.242Z</time>
      </trkpt>
      <trkpt lat="47.02633" lon="8.93415">
        <ele>915</ele>
        <time>2021-08-03T08:33:15.242Z</time>
      </trkpt>
      <trkpt lat="47.02632" lon="8.93414">
        <ele>915</ele>
        <time>2021-08-03T08:33:16.242Z</time>
      </trkpt>
      <trkpt lat="47.02632" lon="8.93413">
        <ele>915</ele>
        <time>2021-08-03T08:33:17.241Z</time>
      </trkpt>
      <trkpt lat="47.02632" lon="8.93411">
        <ele>916</ele>
        <time>2021-08-03T08:33:18.242Z</time>
      </trkpt>
      <trkpt lat="47.02632" lon="8.9341">
        <ele>916</ele>
        <time>2021-08-03T08:33:19.242Z</time>
      </trkpt>
      <trkpt lat="47.02632" lon="8.93409">
        <ele>917</ele>
        <time>2021-08-03T08:33:20.242Z</time>
      </trkpt>
      <trkpt lat="47.02632" lon="8.93407">
        <ele>917</ele>
        <time>2021-08-03T08:33:21.241Z</time>
      </trkpt>
      <trkpt lat="47.02632" lon="8.93406">
        <ele>918</ele>
        <time>2021-08-03T08:33:22.241Z</time>
      </trkpt>
      <trkpt lat="47.02632" lon="8.93405">
        <ele>918</ele>
        <time>2021-08-03T08:33:23.241Z</time>
      </trkpt>
      <trkpt lat="47.02632" lon="8.93403">
        <ele>919</ele>
        <time>2021-08-03T08:33:24.242Z</time>
      </trkpt>
      <trkpt lat="47.02632" lon="8.93402">
        <ele>919</ele>
        <time>2021-08-03T08:33:25.241Z</time>
      </trkpt>
      <trkpt lat="47.02632" lon="8.934">
        <ele>920</ele>
        <time>2021-08-03T08:33:26.241Z</time>
      </trkpt>
      <trkpt lat="47.02631" lon="8.93398">
        <ele>920</ele>
        <time>2021-08-03T08:33:27.241Z</time>
      </trkpt>
      <trkpt lat="47.02632" lon="8.93397">
        <ele>920</ele>
        <time>2021-08-03T08:33:28.242Z</time>
      </trkpt>
      <trkpt lat="47.02632" lon="8.93396">
        <ele>921</ele>
        <time>2021-08-03T08:33:29.241Z</time>
      </trkpt>
      <trkpt lat="47.02632" lon="8.93395">
        <ele>921</ele>
        <time>2021-08-03T08:33:30.241Z</time>
      </trkpt>
      <trkpt lat="47.02633" lon="8.93394">
        <ele>922</ele>
        <time>2021-08-03T08:33:31.241Z</time>
      </trkpt>
      <trkpt lat="47.02633" lon="8.93393">
        <ele>922</ele>
        <time>2021-08-03T08:33:32.242Z</time>
      </trkpt>
      <trkpt lat="47.02634" lon="8.93392">
        <ele>923</ele>
        <time>2021-08-03T08:33:33.241Z</time>
      </trkpt>
      <trkpt lat="47.02634" lon="8.93392">
        <ele>923</ele>
        <time>2021-08-03T08:33:34.242Z</time>
      </trkpt>
      <trkpt lat="47.02634" lon="8.93392">
        <ele>924</ele>
        <time>2021-08-03T08:33:35.242Z</time>
      </trkpt>
      <trkpt lat="47.02634" lon="8.93393">
        <ele>924</ele>
        <time>2021-08-03T08:33:36.242Z</time>
      </trkpt>
      <trkpt lat="47.02634" lon="8.93392">
        <ele>925</ele>
        <time>2021-08-03T08:33:37.241Z</time>
      </trkpt>
      <trkpt lat="47.02633" lon="8.9339">
        <ele>925</ele>
        <time>2021-08-03T08:33:38.241Z</time>
      </trkpt>
      <trkpt lat="47.02633" lon="8.93389">
        <ele>924</ele>
        <time>2021-08-03T08:33:39.241Z</time>
      </trkpt>
      <trkpt lat="47.02633" lon="8.93387">
        <ele>924</ele>
        <time>2021-08-03T08:33:40.241Z</time>
      </trkpt>
      <trkpt lat="47.02634" lon="8.93386">
        <ele>924</ele>
        <time>2021-08-03T08:33:41.242Z</time>
      </trkpt>
      <trkpt lat="47.02634" lon="8.93384">
        <ele>924</ele>
        <time>2021-08-03T08:33:42.241Z</time>
      </trkpt>
      <trkpt lat="47.02634" lon="8.93383">
        <ele>924</ele>
        <time>2021-08-03T08:33:43.241Z</time>
      </trkpt>
      <trkpt lat="47.02634" lon="8.93382">
        <ele>924</ele>
        <time>2021-08-03T08:33:44.242Z</time>
      </trkpt>
      <trkpt lat="47.02634" lon="8.93381">
        <ele>924</ele>
        <time>2021-08-03T08:33:45.241Z</time>
      </trkpt>
      <trkpt lat="47.02634" lon="8.9338">
        <ele>924</ele>
        <time>2021-08-03T08:33:46.242Z</time>
      </trkpt>
      <trkpt lat="47.02634" lon="8.93378">
        <ele>924</ele>
        <time>2021-08-03T08:33:47.241Z</time>
      </trkpt>
      <trkpt lat="47.02634" lon="8.93377">
        <ele>924</ele>
        <time>2021-08-03T08:33:48.242Z</time>
      </trkpt>
      <trkpt lat="47.02634" lon="8.93375">
        <ele>925</ele>
        <time>2021-08-03T08:33:49.241Z</time>
      </trkpt>
      <trkpt lat="47.02634" lon="8.93374">
        <ele>925</ele>
        <time>2021-08-03T08:33:50.242Z</time>
      </trkpt>
      <trkpt lat="47.02634" lon="8.93372">
        <ele>925</ele>
        <time>2021-08-03T08:33:51.241Z</time>
      </trkpt>
      <trkpt lat="47.02634" lon="8.93371">
        <ele>926</ele>
        <time>2021-08-03T08:33:52.241Z</time>
      </trkpt>
      <trkpt lat="47.02634" lon="8.9337">
        <ele>926</ele>
        <time>2021-08-03T08:33:53.241Z</time>
      </trkpt>
      <trkpt lat="47.02634" lon="8.93368">
        <ele>926</ele>
        <time>2021-08-03T08:33:54.241Z</time>
      </trkpt>
      <trkpt lat="47.02634" lon="8.93366">
        <ele>926</ele>
        <time>2021-08-03T08:33:55.242Z</time>
      </trkpt>
      <trkpt lat="47.02634" lon="8.93364">
        <ele>927</ele>
        <time>2021-08-03T08:33:56.242Z</time>
      </trkpt>
      <trkpt lat="47.02634" lon="8.93363">
        <ele>927</ele>
        <time>2021-08-03T08:33:57.241Z</time>
      </trkpt>
      <trkpt lat="47.02634" lon="8.93361">
        <ele>927</ele>
        <time>2021-08-03T08:33:58.242Z</time>
      </trkpt>
      <trkpt lat="47.02635" lon="8.9336">
        <ele>928</ele>
        <time>2021-08-03T08:33:59.241Z</time>
      </trkpt>
      <trkpt lat="47.02635" lon="8.93358">
        <ele>928</ele>
        <time>2021-08-03T08:34:00.242Z</time>
      </trkpt>
      <trkpt lat="47.02635" lon="8.93357">
        <ele>928</ele>
        <time>2021-08-03T08:34:01.241Z</time>
      </trkpt>
      <trkpt lat="47.02635" lon="8.93355">
        <ele>928</ele>
        <time>2021-08-03T08:34:02.241Z</time>
      </trkpt>
      <trkpt lat="47.02635" lon="8.93354">
        <ele>928</ele>
        <time>2021-08-03T08:34:03.242Z</time>
      </trkpt>
      <trkpt lat="47.02635" lon="8.93352">
        <ele>928</ele>
        <time>2021-08-03T08:34:04.242Z</time>
      </trkpt>
      <trkpt lat="47.02635" lon="8.93351">
        <ele>927</ele>
        <time>2021-08-03T08:34:05.241Z</time>
      </trkpt>
      <trkpt lat="47.02635" lon="8.93349">
        <ele>927</ele>
        <time>2021-08-03T08:34:06.242Z</time>
      </trkpt>
      <trkpt lat="47.02635" lon="8.93348">
        <ele>926</ele>
        <time>2021-08-03T08:34:07.242Z</time>
      </trkpt>
      <trkpt lat="47.02635" lon="8.93346">
        <ele>926</ele>
        <time>2021-08-03T08:34:08.242Z</time>
      </trkpt>
      <trkpt lat="47.02635" lon="8.93345">
        <ele>926</ele>
        <time>2021-08-03T08:34:09.241Z</time>
      </trkpt>
      <trkpt lat="47.02634" lon="8.93343">
        <ele>926</ele>
        <time>2021-08-03T08:34:10.242Z</time>
      </trkpt>
      <trkpt lat="47.02635" lon="8.93341">
        <ele>926</ele>
        <time>2021-08-03T08:34:11.242Z</time>
      </trkpt>
      <trkpt lat="47.02635" lon="8.9334">
        <ele>926</ele>
        <time>2021-08-03T08:34:12.242Z</time>
      </trkpt>
      <trkpt lat="47.02635" lon="8.93338">
        <ele>926</ele>
        <time>2021-08-03T08:34:13.242Z</time>
      </trkpt>
      <trkpt lat="47.02636" lon="8.93337">
        <ele>926</ele>
        <time>2021-08-03T08:34:14.242Z</time>
      </trkpt>
      <trkpt lat="47.02637" lon="8.93336">
        <ele>926</ele>
        <time>2021-08-03T08:34:15.242Z</time>
      </trkpt>
      <trkpt lat="47.02637" lon="8.93335">
        <ele>926</ele>
        <time>2021-08-03T08:34:16.242Z</time>
      </trkpt>
      <trkpt lat="47.02637" lon="8.93333">
        <ele>927</ele>
        <time>2021-08-03T08:34:17.241Z</time>
      </trkpt>
      <trkpt lat="47.02637" lon="8.93331">
        <ele>927</ele>
        <time>2021-08-03T08:34:18.242Z</time>
      </trkpt>
      <trkpt lat="47.02638" lon="8.9333">
        <ele>927</ele>
        <time>2021-08-03T08:34:19.241Z</time>
      </trkpt>
      <trkpt lat="47.02638" lon="8.93328">
        <ele>928</ele>
        <time>2021-08-03T08:34:20.241Z</time>
      </trkpt>
      <trkpt lat="47.02639" lon="8.93327">
        <ele>928</ele>
        <time>2021-08-03T08:34:21.241Z</time>
      </trkpt>
      <trkpt lat="47.02639" lon="8.93325">
        <ele>929</ele>
        <time>2021-08-03T08:34:22.242Z</time>
      </trkpt>
      <trkpt lat="47.02639" lon="8.93324">
        <ele>929</ele>
        <time>2021-08-03T08:34:23.242Z</time>
      </trkpt>
      <trkpt lat="47.02639" lon="8.93322">
        <ele>929</ele>
        <time>2021-08-03T08:34:24.241Z</time>
      </trkpt>
      <trkpt lat="47.02639" lon="8.9332">
        <ele>929</ele>
        <time>2021-08-03T08:34:25.241Z</time>
      </trkpt>
      <trkpt lat="47.02639" lon="8.93318">
        <ele>930</ele>
        <time>2021-08-03T08:34:26.241Z</time>
      </trkpt>
      <trkpt lat="47.02639" lon="8.93316">
        <ele>930</ele>
        <time>2021-08-03T08:34:27.241Z</time>
      </trkpt>
      <trkpt lat="47.02639" lon="8.93315">
        <ele>930</ele>
        <time>2021-08-03T08:34:28.242Z</time>
      </trkpt>
      <trkpt lat="47.02639" lon="8.93314">
        <ele>930</ele>
        <time>2021-08-03T08:34:29.242Z</time>
      </trkpt>
      <trkpt lat="47.02639" lon="8.93312">
        <ele>930</ele>
        <time>2021-08-03T08:34:30.242Z</time>
      </trkpt>
      <trkpt lat="47.0264" lon="8.93311">
        <ele>930</ele>
        <time>2021-08-03T08:34:31.242Z</time>
      </trkpt>
      <trkpt lat="47.02641" lon="8.9331">
        <ele>929</ele>
        <time>2021-08-03T08:34:32.242Z</time>
      </trkpt>
      <trkpt lat="47.02641" lon="8.93309">
        <ele>929</ele>
        <time>2021-08-03T08:34:33.242Z</time>
      </trkpt>
      <trkpt lat="47.02641" lon="8.93307">
        <ele>929</ele>
        <time>2021-08-03T08:34:34.241Z</time>
      </trkpt>
      <trkpt lat="47.02642" lon="8.93306">
        <ele>928</ele>
        <time>2021-08-03T08:34:35.242Z</time>
      </trkpt>
      <trkpt lat="47.02642" lon="8.93305">
        <ele>928</ele>
        <time>2021-08-03T08:34:36.241Z</time>
      </trkpt>
      <trkpt lat="47.02642" lon="8.93304">
        <ele>928</ele>
        <time>2021-08-03T08:34:37.242Z</time>
      </trkpt>
      <trkpt lat="47.02642" lon="8.93302">
        <ele>928</ele>
        <time>2021-08-03T08:34:38.242Z</time>
      </trkpt>
      <trkpt lat="47.02642" lon="8.93301">
        <ele>927</ele>
        <time>2021-08-03T08:34:39.242Z</time>
      </trkpt>
      <trkpt lat="47.02642" lon="8.933">
        <ele>927</ele>
        <time>2021-08-03T08:34:40.241Z</time>
      </trkpt>
      <trkpt lat="47.02642" lon="8.93298">
        <ele>927</ele>
        <time>2021-08-03T08:34:41.241Z</time>
      </trkpt>
      <trkpt lat="47.02642" lon="8.93297">
        <ele>927</ele>
        <time>2021-08-03T08:34:42.241Z</time>
      </trkpt>
      <trkpt lat="47.02642" lon="8.93295">
        <ele>927</ele>
        <time>2021-08-03T08:34:43.242Z</time>
      </trkpt>
      <trkpt lat="47.02642" lon="8.93294">
        <ele>928</ele>
        <time>2021-08-03T08:34:44.242Z</time>
      </trkpt>
      <trkpt lat="47.02642" lon="8.93292">
        <ele>928</ele>
        <time>2021-08-03T08:34:45.242Z</time>
      </trkpt>
      <trkpt lat="47.02642" lon="8.93291">
        <ele>928</ele>
        <time>2021-08-03T08:34:46.242Z</time>
      </trkpt>
      <trkpt lat="47.02642" lon="8.9329">
        <ele>928</ele>
        <time>2021-08-03T08:34:47.242Z</time>
      </trkpt>
      <trkpt lat="47.02642" lon="8.93288">
        <ele>928</ele>
        <time>2021-08-03T08:34:48.242Z</time>
      </trkpt>
      <trkpt lat="47.02642" lon="8.93286">
        <ele>928</ele>
        <time>2021-08-03T08:34:49.242Z</time>
      </trkpt>
      <trkpt lat="47.02643" lon="8.93285">
        <ele>929</ele>
        <time>2021-08-03T08:34:50.242Z</time>
      </trkpt>
      <trkpt lat="47.02643" lon="8.93284">
        <ele>929</ele>
        <time>2021-08-03T08:34:51.242Z</time>
      </trkpt>
      <trkpt lat="47.02643" lon="8.93282">
        <ele>929</ele>
        <time>2021-08-03T08:34:52.241Z</time>
      </trkpt>
      <trkpt lat="47.02643" lon="8.93281">
        <ele>929</ele>
        <time>2021-08-03T08:34:53.242Z</time>
      </trkpt>
      <trkpt lat="47.02644" lon="8.93279">
        <ele>929</ele>
        <time>2021-08-03T08:34:54.242Z</time>
      </trkpt>
      <trkpt lat="47.02644" lon="8.93278">
        <ele>929</ele>
        <time>2021-08-03T08:34:55.241Z</time>
      </trkpt>
      <trkpt lat="47.02644" lon="8.93277">
        <ele>929</ele>
        <time>2021-08-03T08:34:56.241Z</time>
      </trkpt>
      <trkpt lat="47.02644" lon="8.93275">
        <ele>930</ele>
        <time>2021-08-03T08:34:57.242Z</time>
      </trkpt>
      <trkpt lat="47.02644" lon="8.93274">
        <ele>930</ele>
        <time>2021-08-03T08:34:58.241Z</time>
      </trkpt>
      <trkpt lat="47.02644" lon="8.93272">
        <ele>930</ele>
        <time>2021-08-03T08:34:59.242Z</time>
      </trkpt>
      <trkpt lat="47.02644" lon="8.93271">
        <ele>931</ele>
        <time>2021-08-03T08:35:00.242Z</time>
      </trkpt>
      <trkpt lat="47.02644" lon="8.93269">
        <ele>931</ele>
        <time>2021-08-03T08:35:01.242Z</time>
      </trkpt>
      <trkpt lat="47.02644" lon="8.93268">
        <ele>931</ele>
        <time>2021-08-03T08:35:02.242Z</time>
      </trkpt>
      <trkpt lat="47.02644" lon="8.93266">
        <ele>931</ele>
        <time>2021-08-03T08:35:03.242Z</time>
      </trkpt>
      <trkpt lat="47.02644" lon="8.93265">
        <ele>932</ele>
        <time>2021-08-03T08:35:04.242Z</time>
      </trkpt>
      <trkpt lat="47.02644" lon="8.93264">
        <ele>932</ele>
        <time>2021-08-03T08:35:05.242Z</time>
      </trkpt>
      <trkpt lat="47.02644" lon="8.93262">
        <ele>932</ele>
        <time>2021-08-03T08:35:06.242Z</time>
      </trkpt>
      <trkpt lat="47.02643" lon="8.9326">
        <ele>932</ele>
        <time>2021-08-03T08:35:07.242Z</time>
      </trkpt>
      <trkpt lat="47.02642" lon="8.93258">
        <ele>933</ele>
        <time>2021-08-03T08:35:08.242Z</time>
      </trkpt>
      <trkpt lat="47.02641" lon="8.93256">
        <ele>933</ele>
        <time>2021-08-03T08:35:09.242Z</time>
      </trkpt>
      <trkpt lat="47.02641" lon="8.93254">
        <ele>933</ele>
        <time>2021-08-03T08:35:10.242Z</time>
      </trkpt>
      <trkpt lat="47.02641" lon="8.93253">
        <ele>933</ele>
        <time>2021-08-03T08:35:11.241Z</time>
      </trkpt>
      <trkpt lat="47.0264" lon="8.93252">
        <ele>934</ele>
        <time>2021-08-03T08:35:12.242Z</time>
      </trkpt>
      <trkpt lat="47.0264" lon="8.93251">
        <ele>934</ele>
        <time>2021-08-03T08:35:13.242Z</time>
      </trkpt>
      <trkpt lat="47.02641" lon="8.93251">
        <ele>934</ele>
        <time>2021-08-03T08:35:14.242Z</time>
      </trkpt>
      <trkpt lat="47.02641" lon="8.93251">
        <ele>934</ele>
        <time>2021-08-03T08:35:15.242Z</time>
      </trkpt>
      <trkpt lat="47.0264" lon="8.9325">
        <ele>934</ele>
        <time>2021-08-03T08:35:16.241Z</time>
      </trkpt>
      <trkpt lat="47.0264" lon="8.93248">
        <ele>934</ele>
        <time>2021-08-03T08:35:17.242Z</time>
      </trkpt>
      <trkpt lat="47.0264" lon="8.93247">
        <ele>935</ele>
        <time>2021-08-03T08:35:18.241Z</time>
      </trkpt>
      <trkpt lat="47.0264" lon="8.93246">
        <ele>935</ele>
        <time>2021-08-03T08:35:19.241Z</time>
      </trkpt>
      <trkpt lat="47.0264" lon="8.93245">
        <ele>935</ele>
        <time>2021-08-03T08:35:20.241Z</time>
      </trkpt>
      <trkpt lat="47.0264" lon="8.93244">
        <ele>935</ele>
        <time>2021-08-03T08:35:21.241Z</time>
      </trkpt>
      <trkpt lat="47.0264" lon="8.93243">
        <ele>935</ele>
        <time>2021-08-03T08:35:22.241Z</time>
      </trkpt>
      <trkpt lat="47.0264" lon="8.93242">
        <ele>935</ele>
        <time>2021-08-03T08:35:23.242Z</time>
      </trkpt>
      <trkpt lat="47.0264" lon="8.9324">
        <ele>935</ele>
        <time>2021-08-03T08:35:24.242Z</time>
      </trkpt>
      <trkpt lat="47.02639" lon="8.93239">
        <ele>935</ele>
        <time>2021-08-03T08:35:25.242Z</time>
      </trkpt>
      <trkpt lat="47.02639" lon="8.93237">
        <ele>935</ele>
        <time>2021-08-03T08:35:26.241Z</time>
      </trkpt>
      <trkpt lat="47.02638" lon="8.93236">
        <ele>934</ele>
        <time>2021-08-03T08:35:27.242Z</time>
      </trkpt>
      <trkpt lat="47.02638" lon="8.93235">
        <ele>934</ele>
        <time>2021-08-03T08:35:28.241Z</time>
      </trkpt>
      <trkpt lat="47.02638" lon="8.93234">
        <ele>934</ele>
        <time>2021-08-03T08:35:29.241Z</time>
      </trkpt>
      <trkpt lat="47.02638" lon="8.93233">
        <ele>935</ele>
        <time>2021-08-03T08:35:30.241Z</time>
      </trkpt>
      <trkpt lat="47.02637" lon="8.93232">
        <ele>935</ele>
        <time>2021-08-03T08:35:31.242Z</time>
      </trkpt>
      <trkpt lat="47.02637" lon="8.93231">
        <ele>935</ele>
        <time>2021-08-03T08:35:32.241Z</time>
      </trkpt>
      <trkpt lat="47.02637" lon="8.93229">
        <ele>935</ele>
        <time>2021-08-03T08:35:33.242Z</time>
      </trkpt>
      <trkpt lat="47.02636" lon="8.93228">
        <ele>935</ele>
        <time>2021-08-03T08:35:34.242Z</time>
      </trkpt>
      <trkpt lat="47.02636" lon="8.93226">
        <ele>935</ele>
        <time>2021-08-03T08:35:35.242Z</time>
      </trkpt>
      <trkpt lat="47.02635" lon="8.93225">
        <ele>935</ele>
        <time>2021-08-03T08:35:36.242Z</time>
      </trkpt>
      <trkpt lat="47.02635" lon="8.93223">
        <ele>935</ele>
        <time>2021-08-03T08:35:37.242Z</time>
      </trkpt>
      <trkpt lat="47.02634" lon="8.93221">
        <ele>936</ele>
        <time>2021-08-03T08:35:38.242Z</time>
      </trkpt>
      <trkpt lat="47.02634" lon="8.93219">
        <ele>936</ele>
        <time>2021-08-03T08:35:39.241Z</time>
      </trkpt>
      <trkpt lat="47.02633" lon="8.93218">
        <ele>935</ele>
        <time>2021-08-03T08:35:40.242Z</time>
      </trkpt>
      <trkpt lat="47.02633" lon="8.93217">
        <ele>935</ele>
        <time>2021-08-03T08:35:41.241Z</time>
      </trkpt>
      <trkpt lat="47.02633" lon="8.93215">
        <ele>935</ele>
        <time>2021-08-03T08:35:42.241Z</time>
      </trkpt>
      <trkpt lat="47.02633" lon="8.93214">
        <ele>935</ele>
        <time>2021-08-03T08:35:43.242Z</time>
      </trkpt>
      <trkpt lat="47.02633" lon="8.93213">
        <ele>935</ele>
        <time>2021-08-03T08:35:44.242Z</time>
      </trkpt>
      <trkpt lat="47.02632" lon="8.93211">
        <ele>935</ele>
        <time>2021-08-03T08:35:45.242Z</time>
      </trkpt>
      <trkpt lat="47.02632" lon="8.93209">
        <ele>935</ele>
        <time>2021-08-03T08:35:46.242Z</time>
      </trkpt>
      <trkpt lat="47.02631" lon="8.93208">
        <ele>936</ele>
        <time>2021-08-03T08:35:47.241Z</time>
      </trkpt>
      <trkpt lat="47.02631" lon="8.93206">
        <ele>936</ele>
        <time>2021-08-03T08:35:48.241Z</time>
      </trkpt>
      <trkpt lat="47.0263" lon="8.93204">
        <ele>937</ele>
        <time>2021-08-03T08:35:49.242Z</time>
      </trkpt>
      <trkpt lat="47.02629" lon="8.93202">
        <ele>937</ele>
        <time>2021-08-03T08:35:50.241Z</time>
      </trkpt>
      <trkpt lat="47.02629" lon="8.93201">
        <ele>937</ele>
        <time>2021-08-03T08:35:51.242Z</time>
      </trkpt>
      <trkpt lat="47.02629" lon="8.93199">
        <ele>937</ele>
        <time>2021-08-03T08:35:52.242Z</time>
      </trkpt>
      <trkpt lat="47.02628" lon="8.93198">
        <ele>937</ele>
        <time>2021-08-03T08:35:53.242Z</time>
      </trkpt>
      <trkpt lat="47.02628" lon="8.93196">
        <ele>937</ele>
        <time>2021-08-03T08:35:54.242Z</time>
      </trkpt>
      <trkpt lat="47.02628" lon="8.93195">
        <ele>937</ele>
        <time>2021-08-03T08:35:55.242Z</time>
      </trkpt>
      <trkpt lat="47.02627" lon="8.93193">
        <ele>937</ele>
        <time>2021-08-03T08:35:56.241Z</time>
      </trkpt>
      <trkpt lat="47.02626" lon="8.93191">
        <ele>938</ele>
        <time>2021-08-03T08:35:57.242Z</time>
      </trkpt>
      <trkpt lat="47.02626" lon="8.9319">
        <ele>938</ele>
        <time>2021-08-03T08:35:58.241Z</time>
      </trkpt>
      <trkpt lat="47.02625" lon="8.93189">
        <ele>938</ele>
        <time>2021-08-03T08:35:59.242Z</time>
      </trkpt>
      <trkpt lat="47.02625" lon="8.93188">
        <ele>938</ele>
        <time>2021-08-03T08:36:00.241Z</time>
      </trkpt>
      <trkpt lat="47.02625" lon="8.93187">
        <ele>938</ele>
        <time>2021-08-03T08:36:01.242Z</time>
      </trkpt>
      <trkpt lat="47.02624" lon="8.93185">
        <ele>938</ele>
        <time>2021-08-03T08:36:02.241Z</time>
      </trkpt>
      <trkpt lat="47.02623" lon="8.93183">
        <ele>939</ele>
        <time>2021-08-03T08:36:03.241Z</time>
      </trkpt>
      <trkpt lat="47.02623" lon="8.93182">
        <ele>939</ele>
        <time>2021-08-03T08:36:04.242Z</time>
      </trkpt>
      <trkpt lat="47.02622" lon="8.9318">
        <ele>939</ele>
        <time>2021-08-03T08:36:05.242Z</time>
      </trkpt>
      <trkpt lat="47.02622" lon="8.93179">
        <ele>940</ele>
        <time>2021-08-03T08:36:06.241Z</time>
      </trkpt>
      <trkpt lat="47.02622" lon="8.93178">
        <ele>940</ele>
        <time>2021-08-03T08:36:07.242Z</time>
      </trkpt>
      <trkpt lat="47.02622" lon="8.93177">
        <ele>940</ele>
        <time>2021-08-03T08:36:08.241Z</time>
      </trkpt>
      <trkpt lat="47.02622" lon="8.93176">
        <ele>940</ele>
        <time>2021-08-03T08:36:09.242Z</time>
      </trkpt>
      <trkpt lat="47.02622" lon="8.93175">
        <ele>940</ele>
        <time>2021-08-03T08:36:10.242Z</time>
      </trkpt>
      <trkpt lat="47.02621" lon="8.93173">
        <ele>940</ele>
        <time>2021-08-03T08:36:11.242Z</time>
      </trkpt>
      <trkpt lat="47.02621" lon="8.93172">
        <ele>940</ele>
        <time>2021-08-03T08:36:12.241Z</time>
      </trkpt>
      <trkpt lat="47.0262" lon="8.93171">
        <ele>940</ele>
        <time>2021-08-03T08:36:13.241Z</time>
      </trkpt>
      <trkpt lat="47.02621" lon="8.93171">
        <ele>940</ele>
        <time>2021-08-03T08:36:14.241Z</time>
      </trkpt>
      <trkpt lat="47.02621" lon="8.9317">
        <ele>940</ele>
        <time>2021-08-03T08:36:15.242Z</time>
      </trkpt>
      <trkpt lat="47.02621" lon="8.93169">
        <ele>939</ele>
        <time>2021-08-03T08:36:16.242Z</time>
      </trkpt>
      <trkpt lat="47.0262" lon="8.93168">
        <ele>939</ele>
        <time>2021-08-03T08:36:17.242Z</time>
      </trkpt>
      <trkpt lat="47.0262" lon="8.93166">
        <ele>939</ele>
        <time>2021-08-03T08:36:18.242Z</time>
      </trkpt>
      <trkpt lat="47.0262" lon="8.93165">
        <ele>939</ele>
        <time>2021-08-03T08:36:19.242Z</time>
      </trkpt>
      <trkpt lat="47.02619" lon="8.93163">
        <ele>938</ele>
        <time>2021-08-03T08:36:20.242Z</time>
      </trkpt>
      <trkpt lat="47.02618" lon="8.93162">
        <ele>938</ele>
        <time>2021-08-03T08:36:21.241Z</time>
      </trkpt>
      <trkpt lat="47.02618" lon="8.9316">
        <ele>938</ele>
        <time>2021-08-03T08:36:22.242Z</time>
      </trkpt>
      <trkpt lat="47.02617" lon="8.93158">
        <ele>938</ele>
        <time>2021-08-03T08:36:23.241Z</time>
      </trkpt>
      <trkpt lat="47.02617" lon="8.93156">
        <ele>938</ele>
        <time>2021-08-03T08:36:24.242Z</time>
      </trkpt>
      <trkpt lat="47.02617" lon="8.93155">
        <ele>938</ele>
        <time>2021-08-03T08:36:25.242Z</time>
      </trkpt>
      <trkpt lat="47.02617" lon="8.93154">
        <ele>938</ele>
        <time>2021-08-03T08:36:26.242Z</time>
      </trkpt>
      <trkpt lat="47.02617" lon="8.93153">
        <ele>937</ele>
        <time>2021-08-03T08:36:27.242Z</time>
      </trkpt>
      <trkpt lat="47.02617" lon="8.93151">
        <ele>938</ele>
        <time>2021-08-03T08:36:28.242Z</time>
      </trkpt>
      <trkpt lat="47.02617" lon="8.9315">
        <ele>938</ele>
        <time>2021-08-03T08:36:29.242Z</time>
      </trkpt>
      <trkpt lat="47.02617" lon="8.93149">
        <ele>939</ele>
        <time>2021-08-03T08:36:30.242Z</time>
      </trkpt>
      <trkpt lat="47.02617" lon="8.93148">
        <ele>939</ele>
        <time>2021-08-03T08:36:31.242Z</time>
      </trkpt>
      <trkpt lat="47.02617" lon="8.93146">
        <ele>939</ele>
        <time>2021-08-03T08:36:32.242Z</time>
      </trkpt>
      <trkpt lat="47.02617" lon="8.93145">
        <ele>939</ele>
        <time>2021-08-03T08:36:33.241Z</time>
      </trkpt>
      <trkpt lat="47.02617" lon="8.93144">
        <ele>939</ele>
        <time>2021-08-03T08:36:34.241Z</time>
      </trkpt>
      <trkpt lat="47.02617" lon="8.93143">
        <ele>940</ele>
        <time>2021-08-03T08:36:35.241Z</time>
      </trkpt>
      <trkpt lat="47.02616" lon="8.93142">
        <ele>940</ele>
        <time>2021-08-03T08:36:36.242Z</time>
      </trkpt>
      <trkpt lat="47.02616" lon="8.9314">
        <ele>941</ele>
        <time>2021-08-03T08:36:37.242Z</time>
      </trkpt>
      <trkpt lat="47.02616" lon="8.93139">
        <ele>941</ele>
        <time>2021-08-03T08:36:38.241Z</time>
      </trkpt>
      <trkpt lat="47.02615" lon="8.93137">
        <ele>942</ele>
        <time>2021-08-03T08:36:39.242Z</time>
      </trkpt>
      <trkpt lat="47.02615" lon="8.93136">
        <ele>942</ele>
        <time>2021-08-03T08:36:40.242Z</time>
      </trkpt>
      <trkpt lat="47.02614" lon="8.93134">
        <ele>942</ele>
        <time>2021-08-03T08:36:41.242Z</time>
      </trkpt>
      <trkpt lat="47.02614" lon="8.93133">
        <ele>943</ele>
        <time>2021-08-03T08:36:42.241Z</time>
      </trkpt>
      <trkpt lat="47.02615" lon="8.93132">
        <ele>943</ele>
        <time>2021-08-03T08:36:43.242Z</time>
      </trkpt>
      <trkpt lat="47.02615" lon="8.9313">
        <ele>943</ele>
        <time>2021-08-03T08:36:44.241Z</time>
      </trkpt>
      <trkpt lat="47.02615" lon="8.93128">
        <ele>943</ele>
        <time>2021-08-03T08:36:45.242Z</time>
      </trkpt>
      <trkpt lat="47.02615" lon="8.93127">
        <ele>943</ele>
        <time>2021-08-03T08:36:46.241Z</time>
      </trkpt>
      <trkpt lat="47.02615" lon="8.93125">
        <ele>944</ele>
        <time>2021-08-03T08:36:47.242Z</time>
      </trkpt>
      <trkpt lat="47.02615" lon="8.93123">
        <ele>944</ele>
        <time>2021-08-03T08:36:48.241Z</time>
      </trkpt>
      <trkpt lat="47.02615" lon="8.93121">
        <ele>944</ele>
        <time>2021-08-03T08:36:49.242Z</time>
      </trkpt>
      <trkpt lat="47.02615" lon="8.93119">
        <ele>944</ele>
        <time>2021-08-03T08:36:50.242Z</time>
      </trkpt>
      <trkpt lat="47.02615" lon="8.93118">
        <ele>945</ele>
        <time>2021-08-03T08:36:51.242Z</time>
      </trkpt>
      <trkpt lat="47.02614" lon="8.93116">
        <ele>945</ele>
        <time>2021-08-03T08:36:52.241Z</time>
      </trkpt>
      <trkpt lat="47.02614" lon="8.93114">
        <ele>945</ele>
        <time>2021-08-03T08:36:53.242Z</time>
      </trkpt>
      <trkpt lat="47.02614" lon="8.93112">
        <ele>945</ele>
        <time>2021-08-03T08:36:54.242Z</time>
      </trkpt>
      <trkpt lat="47.02614" lon="8.93111">
        <ele>945</ele>
        <time>2021-08-03T08:36:55.241Z</time>
      </trkpt>
      <trkpt lat="47.02614" lon="8.93109">
        <ele>945</ele>
        <time>2021-08-03T08:36:56.242Z</time>
      </trkpt>
      <trkpt lat="47.02614" lon="8.93107">
        <ele>945</ele>
        <time>2021-08-03T08:36:57.241Z</time>
      </trkpt>
      <trkpt lat="47.02614" lon="8.93106">
        <ele>945</ele>
        <time>2021-08-03T08:36:58.242Z</time>
      </trkpt>
      <trkpt lat="47.02615" lon="8.93105">
        <ele>945</ele>
        <time>2021-08-03T08:36:59.242Z</time>
      </trkpt>
      <trkpt lat="47.02615" lon="8.93103">
        <ele>945</ele>
        <time>2021-08-03T08:37:00.241Z</time>
      </trkpt>
      <trkpt lat="47.02616" lon="8.93102">
        <ele>944</ele>
        <time>2021-08-03T08:37:01.242Z</time>
      </trkpt>
      <trkpt lat="47.02616" lon="8.931">
        <ele>944</ele>
        <time>2021-08-03T08:37:02.242Z</time>
      </trkpt>
      <trkpt lat="47.02616" lon="8.93099">
        <ele>944</ele>
        <time>2021-08-03T08:37:03.241Z</time>
      </trkpt>
      <trkpt lat="47.02616" lon="8.93097">
        <ele>944</ele>
        <time>2021-08-03T08:37:04.242Z</time>
      </trkpt>
      <trkpt lat="47.02616" lon="8.93096">
        <ele>943</ele>
        <time>2021-08-03T08:37:05.241Z</time>
      </trkpt>
      <trkpt lat="47.02616" lon="8.93094">
        <ele>943</ele>
        <time>2021-08-03T08:37:06.242Z</time>
      </trkpt>
      <trkpt lat="47.02616" lon="8.93092">
        <ele>944</ele>
        <time>2021-08-03T08:37:07.242Z</time>
      </trkpt>
      <trkpt lat="47.02616" lon="8.93091">
        <ele>944</ele>
        <time>2021-08-03T08:37:08.242Z</time>
      </trkpt>
      <trkpt lat="47.02616" lon="8.9309">
        <ele>944</ele>
        <time>2021-08-03T08:37:09.242Z</time>
      </trkpt>
      <trkpt lat="47.02617" lon="8.93088">
        <ele>945</ele>
        <time>2021-08-03T08:37:10.241Z</time>
      </trkpt>
      <trkpt lat="47.02617" lon="8.93087">
        <ele>945</ele>
        <time>2021-08-03T08:37:11.242Z</time>
      </trkpt>
      <trkpt lat="47.02617" lon="8.93085">
        <ele>945</ele>
        <time>2021-08-03T08:37:12.242Z</time>
      </trkpt>
      <trkpt lat="47.02616" lon="8.93084">
        <ele>946</ele>
        <time>2021-08-03T08:37:13.242Z</time>
      </trkpt>
      <trkpt lat="47.02616" lon="8.93082">
        <ele>946</ele>
        <time>2021-08-03T08:37:14.242Z</time>
      </trkpt>
      <trkpt lat="47.02616" lon="8.93081">
        <ele>946</ele>
        <time>2021-08-03T08:37:15.242Z</time>
      </trkpt>
      <trkpt lat="47.02616" lon="8.9308">
        <ele>945</ele>
        <time>2021-08-03T08:37:16.242Z</time>
      </trkpt>
      <trkpt lat="47.02616" lon="8.93079">
        <ele>945</ele>
        <time>2021-08-03T08:37:17.242Z</time>
      </trkpt>
      <trkpt lat="47.02617" lon="8.93078">
        <ele>946</ele>
        <time>2021-08-03T08:37:18.241Z</time>
      </trkpt>
      <trkpt lat="47.02618" lon="8.93076">
        <ele>946</ele>
        <time>2021-08-03T08:37:19.241Z</time>
      </trkpt>
      <trkpt lat="47.02618" lon="8.93075">
        <ele>946</ele>
        <time>2021-08-03T08:37:20.242Z</time>
      </trkpt>
      <trkpt lat="47.02618" lon="8.93074">
        <ele>946</ele>
        <time>2021-08-03T08:37:21.241Z</time>
      </trkpt>
      <trkpt lat="47.02618" lon="8.93073">
        <ele>946</ele>
        <time>2021-08-03T08:37:22.242Z</time>
      </trkpt>
      <trkpt lat="47.02619" lon="8.93073">
        <ele>946</ele>
        <time>2021-08-03T08:37:23.242Z</time>
      </trkpt>
      <trkpt lat="47.02619" lon="8.93072">
        <ele>946</ele>
        <time>2021-08-03T08:37:24.242Z</time>
      </trkpt>
      <trkpt lat="47.02619" lon="8.93071">
        <ele>945</ele>
        <time>2021-08-03T08:37:25.241Z</time>
      </trkpt>
      <trkpt lat="47.02619" lon="8.9307">
        <ele>945</ele>
        <time>2021-08-03T08:37:26.242Z</time>
      </trkpt>
      <trkpt lat="47.02619" lon="8.93069">
        <ele>945</ele>
        <time>2021-08-03T08:37:27.242Z</time>
      </trkpt>
      <trkpt lat="47.02619" lon="8.93068">
        <ele>945</ele>
        <time>2021-08-03T08:37:28.241Z</time>
      </trkpt>
      <trkpt lat="47.02619" lon="8.93067">
        <ele>946</ele>
        <time>2021-08-03T08:37:29.241Z</time>
      </trkpt>
      <trkpt lat="47.02619" lon="8.93066">
        <ele>946</ele>
        <time>2021-08-03T08:37:30.242Z</time>
      </trkpt>
      <trkpt lat="47.0262" lon="8.93064">
        <ele>947</ele>
        <time>2021-08-03T08:37:31.241Z</time>
      </trkpt>
      <trkpt lat="47.0262" lon="8.93063">
        <ele>947</ele>
        <time>2021-08-03T08:37:32.241Z</time>
      </trkpt>
      <trkpt lat="47.0262" lon="8.93062">
        <ele>947</ele>
        <time>2021-08-03T08:37:33.242Z</time>
      </trkpt>
      <trkpt lat="47.0262" lon="8.9306">
        <ele>947</ele>
        <time>2021-08-03T08:37:34.242Z</time>
      </trkpt>
      <trkpt lat="47.02621" lon="8.93059">
        <ele>947</ele>
        <time>2021-08-03T08:37:35.241Z</time>
      </trkpt>
      <trkpt lat="47.02621" lon="8.93057">
        <ele>947</ele>
        <time>2021-08-03T08:37:36.242Z</time>
      </trkpt>
      <trkpt lat="47.02621" lon="8.93056">
        <ele>947</ele>
        <time>2021-08-03T08:37:37.242Z</time>
      </trkpt>
      <trkpt lat="47.02621" lon="8.93054">
        <ele>947</ele>
        <time>2021-08-03T08:37:38.242Z</time>
      </trkpt>
      <trkpt lat="47.02621" lon="8.93053">
        <ele>947</ele>
        <time>2021-08-03T08:37:39.242Z</time>
      </trkpt>
      <trkpt lat="47.02621" lon="8.93051">
        <ele>947</ele>
        <time>2021-08-03T08:37:40.241Z</time>
      </trkpt>
      <trkpt lat="47.02622" lon="8.9305">
        <ele>947</ele>
        <time>2021-08-03T08:37:41.242Z</time>
      </trkpt>
      <trkpt lat="47.02622" lon="8.93049">
        <ele>947</ele>
        <time>2021-08-03T08:37:42.242Z</time>
      </trkpt>
      <trkpt lat="47.02622" lon="8.93047">
        <ele>947</ele>
        <time>2021-08-03T08:37:43.242Z</time>
      </trkpt>
      <trkpt lat="47.02622" lon="8.93045">
        <ele>947</ele>
        <time>2021-08-03T08:37:44.242Z</time>
      </trkpt>
      <trkpt lat="47.02622" lon="8.93044">
        <ele>947</ele>
        <time>2021-08-03T08:37:45.241Z</time>
      </trkpt>
      <trkpt lat="47.02622" lon="8.93043">
        <ele>947</ele>
        <time>2021-08-03T08:37:46.242Z</time>
      </trkpt>
      <trkpt lat="47.02623" lon="8.93041">
        <ele>947</ele>
        <time>2021-08-03T08:37:47.242Z</time>
      </trkpt>
      <trkpt lat="47.02623" lon="8.9304">
        <ele>948</ele>
        <time>2021-08-03T08:37:48.242Z</time>
      </trkpt>
      <trkpt lat="47.02623" lon="8.93038">
        <ele>948</ele>
        <time>2021-08-03T08:37:49.241Z</time>
      </trkpt>
      <trkpt lat="47.02623" lon="8.93037">
        <ele>948</ele>
        <time>2021-08-03T08:37:50.242Z</time>
      </trkpt>
      <trkpt lat="47.02623" lon="8.93035">
        <ele>949</ele>
        <time>2021-08-03T08:37:51.242Z</time>
      </trkpt>
      <trkpt lat="47.02623" lon="8.93034">
        <ele>949</ele>
        <time>2021-08-03T08:37:52.242Z</time>
      </trkpt>
      <trkpt lat="47.02622" lon="8.93034">
        <ele>949</ele>
        <time>2021-08-03T08:37:53.242Z</time>
      </trkpt>
      <trkpt lat="47.02622" lon="8.93033">
        <ele>950</ele>
        <time>2021-08-03T08:37:54.242Z</time>
      </trkpt>
      <trkpt lat="47.02621" lon="8.93032">
        <ele>950</ele>
        <time>2021-08-03T08:37:55.242Z</time>
      </trkpt>
      <trkpt lat="47.0262" lon="8.9303">
        <ele>950</ele>
        <time>2021-08-03T08:37:56.242Z</time>
      </trkpt>
      <trkpt lat="47.0262" lon="8.93029">
        <ele>951</ele>
        <time>2021-08-03T08:37:57.242Z</time>
      </trkpt>
      <trkpt lat="47.02619" lon="8.93028">
        <ele>951</ele>
        <time>2021-08-03T08:37:58.242Z</time>
      </trkpt>
      <trkpt lat="47.02619" lon="8.93027">
        <ele>951</ele>
        <time>2021-08-03T08:37:59.241Z</time>
      </trkpt>
      <trkpt lat="47.02618" lon="8.93026">
        <ele>951</ele>
        <time>2021-08-03T08:38:00.241Z</time>
      </trkpt>
      <trkpt lat="47.02618" lon="8.93026">
        <ele>951</ele>
        <time>2021-08-03T08:38:01.242Z</time>
      </trkpt>
      <trkpt lat="47.02618" lon="8.93026">
        <ele>951</ele>
        <time>2021-08-03T08:38:02.242Z</time>
      </trkpt>
      <trkpt lat="47.02618" lon="8.93026">
        <ele>951</ele>
        <time>2021-08-03T08:38:03.242Z</time>
      </trkpt>
      <trkpt lat="47.02618" lon="8.93025">
        <ele>955</ele>
        <time>2021-08-03T08:38:04.242Z</time>
      </trkpt>
      <trkpt lat="47.02619" lon="8.93024">
        <ele>954</ele>
        <time>2021-08-03T08:38:05.242Z</time>
      </trkpt>
      <trkpt lat="47.0262" lon="8.93023">
        <ele>954</ele>
        <time>2021-08-03T08:38:06.243Z</time>
      </trkpt>
      <trkpt lat="47.0262" lon="8.93021">
        <ele>954</ele>
        <time>2021-08-03T08:38:07.242Z</time>
      </trkpt>
      <trkpt lat="47.02621" lon="8.9302">
        <ele>953</ele>
        <time>2021-08-03T08:38:08.242Z</time>
      </trkpt>
      <trkpt lat="47.02622" lon="8.93019">
        <ele>952</ele>
        <time>2021-08-03T08:38:09.243Z</time>
      </trkpt>
      <trkpt lat="47.02623" lon="8.93018">
        <ele>952</ele>
        <time>2021-08-03T08:38:10.243Z</time>
      </trkpt>
      <trkpt lat="47.02623" lon="8.93017">
        <ele>952</ele>
        <time>2021-08-03T08:38:11.243Z</time>
      </trkpt>
      <trkpt lat="47.02623" lon="8.93015">
        <ele>952</ele>
        <time>2021-08-03T08:38:12.243Z</time>
      </trkpt>
      <trkpt lat="47.02623" lon="8.93012">
        <ele>952</ele>
        <time>2021-08-03T08:38:13.242Z</time>
      </trkpt>
      <trkpt lat="47.02623" lon="8.9301">
        <ele>952</ele>
        <time>2021-08-03T08:38:14.243Z</time>
      </trkpt>
      <trkpt lat="47.02624" lon="8.93008">
        <ele>952</ele>
        <time>2021-08-03T08:38:15.242Z</time>
      </trkpt>
      <trkpt lat="47.02624" lon="8.93006">
        <ele>951</ele>
        <time>2021-08-03T08:38:16.242Z</time>
      </trkpt>
      <trkpt lat="47.02624" lon="8.93004">
        <ele>952</ele>
        <time>2021-08-03T08:38:17.243Z</time>
      </trkpt>
      <trkpt lat="47.02624" lon="8.93003">
        <ele>952</ele>
        <time>2021-08-03T08:38:18.243Z</time>
      </trkpt>
      <trkpt lat="47.02625" lon="8.93001">
        <ele>952</ele>
        <time>2021-08-03T08:38:19.243Z</time>
      </trkpt>
      <trkpt lat="47.02625" lon="8.92999">
        <ele>952</ele>
        <time>2021-08-03T08:38:20.242Z</time>
      </trkpt>
      <trkpt lat="47.02625" lon="8.92997">
        <ele>953</ele>
        <time>2021-08-03T08:38:21.243Z</time>
      </trkpt>
      <trkpt lat="47.02626" lon="8.92995">
        <ele>953</ele>
        <time>2021-08-03T08:38:22.243Z</time>
      </trkpt>
      <trkpt lat="47.02626" lon="8.92994">
        <ele>953</ele>
        <time>2021-08-03T08:38:23.243Z</time>
      </trkpt>
      <trkpt lat="47.02626" lon="8.92992">
        <ele>953</ele>
        <time>2021-08-03T08:38:24.243Z</time>
      </trkpt>
      <trkpt lat="47.02626" lon="8.9299">
        <ele>953</ele>
        <time>2021-08-03T08:38:25.242Z</time>
      </trkpt>
      <trkpt lat="47.02626" lon="8.92987">
        <ele>953</ele>
        <time>2021-08-03T08:38:26.242Z</time>
      </trkpt>
      <trkpt lat="47.02627" lon="8.92986">
        <ele>952</ele>
        <time>2021-08-03T08:38:27.242Z</time>
      </trkpt>
      <trkpt lat="47.02627" lon="8.92984">
        <ele>952</ele>
        <time>2021-08-03T08:38:28.242Z</time>
      </trkpt>
      <trkpt lat="47.02628" lon="8.92983">
        <ele>952</ele>
        <time>2021-08-03T08:38:29.242Z</time>
      </trkpt>
      <trkpt lat="47.02628" lon="8.92981">
        <ele>952</ele>
        <time>2021-08-03T08:38:30.242Z</time>
      </trkpt>
      <trkpt lat="47.02628" lon="8.9298">
        <ele>952</ele>
        <time>2021-08-03T08:38:31.243Z</time>
      </trkpt>
      <trkpt lat="47.02629" lon="8.92979">
        <ele>952</ele>
        <time>2021-08-03T08:38:32.242Z</time>
      </trkpt>
      <trkpt lat="47.02629" lon="8.92977">
        <ele>952</ele>
        <time>2021-08-03T08:38:33.242Z</time>
      </trkpt>
      <trkpt lat="47.0263" lon="8.92976">
        <ele>953</ele>
        <time>2021-08-03T08:38:34.243Z</time>
      </trkpt>
      <trkpt lat="47.0263" lon="8.92974">
        <ele>953</ele>
        <time>2021-08-03T08:38:35.242Z</time>
      </trkpt>
      <trkpt lat="47.0263" lon="8.92973">
        <ele>953</ele>
        <time>2021-08-03T08:38:36.242Z</time>
      </trkpt>
      <trkpt lat="47.02629" lon="8.92971">
        <ele>953</ele>
        <time>2021-08-03T08:38:37.242Z</time>
      </trkpt>
      <trkpt lat="47.02629" lon="8.92969">
        <ele>954</ele>
        <time>2021-08-03T08:38:38.242Z</time>
      </trkpt>
      <trkpt lat="47.02629" lon="8.92968">
        <ele>954</ele>
        <time>2021-08-03T08:38:39.242Z</time>
      </trkpt>
      <trkpt lat="47.02629" lon="8.92967">
        <ele>955</ele>
        <time>2021-08-03T08:38:40.243Z</time>
      </trkpt>
      <trkpt lat="47.0263" lon="8.92966">
        <ele>955</ele>
        <time>2021-08-03T08:38:41.242Z</time>
      </trkpt>
      <trkpt lat="47.02629" lon="8.92965">
        <ele>955</ele>
        <time>2021-08-03T08:38:42.242Z</time>
      </trkpt>
      <trkpt lat="47.0263" lon="8.92963">
        <ele>956</ele>
        <time>2021-08-03T08:38:43.242Z</time>
      </trkpt>
      <trkpt lat="47.0263" lon="8.92962">
        <ele>956</ele>
        <time>2021-08-03T08:38:44.242Z</time>
      </trkpt>
      <trkpt lat="47.0263" lon="8.92961">
        <ele>956</ele>
        <time>2021-08-03T08:38:45.242Z</time>
      </trkpt>
      <trkpt lat="47.02629" lon="8.92959">
        <ele>957</ele>
        <time>2021-08-03T08:38:46.243Z</time>
      </trkpt>
      <trkpt lat="47.02629" lon="8.92957">
        <ele>957</ele>
        <time>2021-08-03T08:38:47.243Z</time>
      </trkpt>
      <trkpt lat="47.02629" lon="8.92956">
        <ele>957</ele>
        <time>2021-08-03T08:38:48.242Z</time>
      </trkpt>
      <trkpt lat="47.0263" lon="8.92954">
        <ele>957</ele>
        <time>2021-08-03T08:38:49.242Z</time>
      </trkpt>
      <trkpt lat="47.0263" lon="8.92954">
        <ele>957</ele>
        <time>2021-08-03T08:38:50.243Z</time>
      </trkpt>
      <trkpt lat="47.0263" lon="8.92953">
        <ele>957</ele>
        <time>2021-08-03T08:38:51.243Z</time>
      </trkpt>
      <trkpt lat="47.0263" lon="8.92952">
        <ele>957</ele>
        <time>2021-08-03T08:38:52.243Z</time>
      </trkpt>
      <trkpt lat="47.0263" lon="8.92951">
        <ele>957</ele>
        <time>2021-08-03T08:38:53.242Z</time>
      </trkpt>
      <trkpt lat="47.0263" lon="8.92949">
        <ele>957</ele>
        <time>2021-08-03T08:38:54.243Z</time>
      </trkpt>
      <trkpt lat="47.02631" lon="8.92947">
        <ele>957</ele>
        <time>2021-08-03T08:38:55.243Z</time>
      </trkpt>
      <trkpt lat="47.02631" lon="8.92946">
        <ele>957</ele>
        <time>2021-08-03T08:38:56.242Z</time>
      </trkpt>
      <trkpt lat="47.02631" lon="8.92945">
        <ele>957</ele>
        <time>2021-08-03T08:38:57.243Z</time>
      </trkpt>
      <trkpt lat="47.02632" lon="8.92944">
        <ele>957</ele>
        <time>2021-08-03T08:38:58.242Z</time>
      </trkpt>
      <trkpt lat="47.02631" lon="8.92942">
        <ele>957</ele>
        <time>2021-08-03T08:38:59.243Z</time>
      </trkpt>
      <trkpt lat="47.02631" lon="8.92941">
        <ele>957</ele>
        <time>2021-08-03T08:39:00.243Z</time>
      </trkpt>
      <trkpt lat="47.02632" lon="8.9294">
        <ele>957</ele>
        <time>2021-08-03T08:39:01.243Z</time>
      </trkpt>
      <trkpt lat="47.02632" lon="8.92938">
        <ele>958</ele>
        <time>2021-08-03T08:39:02.243Z</time>
      </trkpt>
      <trkpt lat="47.02632" lon="8.92937">
        <ele>958</ele>
        <time>2021-08-03T08:39:03.242Z</time>
      </trkpt>
      <trkpt lat="47.02632" lon="8.92936">
        <ele>958</ele>
        <time>2021-08-03T08:39:04.243Z</time>
      </trkpt>
      <trkpt lat="47.02632" lon="8.92934">
        <ele>957</ele>
        <time>2021-08-03T08:39:05.243Z</time>
      </trkpt>
      <trkpt lat="47.02632" lon="8.92933">
        <ele>957</ele>
        <time>2021-08-03T08:39:06.243Z</time>
      </trkpt>
      <trkpt lat="47.02632" lon="8.92931">
        <ele>956</ele>
        <time>2021-08-03T08:39:07.243Z</time>
      </trkpt>
      <trkpt lat="47.02633" lon="8.9293">
        <ele>956</ele>
        <time>2021-08-03T08:39:08.243Z</time>
      </trkpt>
      <trkpt lat="47.02633" lon="8.92929">
        <ele>956</ele>
        <time>2021-08-03T08:39:09.243Z</time>
      </trkpt>
      <trkpt lat="47.02634" lon="8.92928">
        <ele>956</ele>
        <time>2021-08-03T08:39:10.242Z</time>
      </trkpt>
      <trkpt lat="47.02633" lon="8.92926">
        <ele>957</ele>
        <time>2021-08-03T08:39:11.242Z</time>
      </trkpt>
      <trkpt lat="47.02633" lon="8.92924">
        <ele>957</ele>
        <time>2021-08-03T08:39:12.242Z</time>
      </trkpt>
      <trkpt lat="47.02633" lon="8.92923">
        <ele>957</ele>
        <time>2021-08-03T08:39:13.243Z</time>
      </trkpt>
      <trkpt lat="47.02633" lon="8.92921">
        <ele>957</ele>
        <time>2021-08-03T08:39:14.243Z</time>
      </trkpt>
      <trkpt lat="47.02633" lon="8.9292">
        <ele>957</ele>
        <time>2021-08-03T08:39:15.243Z</time>
      </trkpt>
      <trkpt lat="47.02633" lon="8.92919">
        <ele>957</ele>
        <time>2021-08-03T08:39:16.242Z</time>
      </trkpt>
      <trkpt lat="47.02633" lon="8.92917">
        <ele>957</ele>
        <time>2021-08-03T08:39:17.242Z</time>
      </trkpt>
      <trkpt lat="47.02633" lon="8.92915">
        <ele>957</ele>
        <time>2021-08-03T08:39:18.242Z</time>
      </trkpt>
      <trkpt lat="47.02633" lon="8.92913">
        <ele>957</ele>
        <time>2021-08-03T08:39:19.243Z</time>
      </trkpt>
      <trkpt lat="47.02632" lon="8.92912">
        <ele>958</ele>
        <time>2021-08-03T08:39:20.243Z</time>
      </trkpt>
      <trkpt lat="47.02632" lon="8.9291">
        <ele>958</ele>
        <time>2021-08-03T08:39:21.242Z</time>
      </trkpt>
      <trkpt lat="47.02632" lon="8.92909">
        <ele>957</ele>
        <time>2021-08-03T08:39:22.243Z</time>
      </trkpt>
      <trkpt lat="47.02632" lon="8.92908">
        <ele>957</ele>
        <time>2021-08-03T08:39:23.242Z</time>
      </trkpt>
      <trkpt lat="47.02632" lon="8.92906">
        <ele>957</ele>
        <time>2021-08-03T08:39:24.242Z</time>
      </trkpt>
      <trkpt lat="47.02632" lon="8.92905">
        <ele>957</ele>
        <time>2021-08-03T08:39:25.242Z</time>
      </trkpt>
      <trkpt lat="47.02632" lon="8.92903">
        <ele>957</ele>
        <time>2021-08-03T08:39:26.243Z</time>
      </trkpt>
      <trkpt lat="47.02632" lon="8.92901">
        <ele>957</ele>
        <time>2021-08-03T08:39:27.242Z</time>
      </trkpt>
      <trkpt lat="47.02632" lon="8.929">
        <ele>957</ele>
        <time>2021-08-03T08:39:28.243Z</time>
      </trkpt>
      <trkpt lat="47.02633" lon="8.92899">
        <ele>958</ele>
        <time>2021-08-03T08:39:29.243Z</time>
      </trkpt>
      <trkpt lat="47.02633" lon="8.92897">
        <ele>958</ele>
        <time>2021-08-03T08:39:30.243Z</time>
      </trkpt>
      <trkpt lat="47.02633" lon="8.92896">
        <ele>959</ele>
        <time>2021-08-03T08:39:31.243Z</time>
      </trkpt>
      <trkpt lat="47.02634" lon="8.92895">
        <ele>959</ele>
        <time>2021-08-03T08:39:32.243Z</time>
      </trkpt>
      <trkpt lat="47.02634" lon="8.92893">
        <ele>959</ele>
        <time>2021-08-03T08:39:33.243Z</time>
      </trkpt>
      <trkpt lat="47.02634" lon="8.92892">
        <ele>959</ele>
        <time>2021-08-03T08:39:34.242Z</time>
      </trkpt>
      <trkpt lat="47.02634" lon="8.92891">
        <ele>959</ele>
        <time>2021-08-03T08:39:35.242Z</time>
      </trkpt>
      <trkpt lat="47.02634" lon="8.92889">
        <ele>958</ele>
        <time>2021-08-03T08:39:36.242Z</time>
      </trkpt>
      <trkpt lat="47.02634" lon="8.92888">
        <ele>958</ele>
        <time>2021-08-03T08:39:37.242Z</time>
      </trkpt>
      <trkpt lat="47.02634" lon="8.92887">
        <ele>959</ele>
        <time>2021-08-03T08:39:38.242Z</time>
      </trkpt>
      <trkpt lat="47.02634" lon="8.92885">
        <ele>959</ele>
        <time>2021-08-03T08:39:39.242Z</time>
      </trkpt>
      <trkpt lat="47.02634" lon="8.92884">
        <ele>959</ele>
        <time>2021-08-03T08:39:40.243Z</time>
      </trkpt>
      <trkpt lat="47.02633" lon="8.92884">
        <ele>959</ele>
        <time>2021-08-03T08:39:41.242Z</time>
      </trkpt>
      <trkpt lat="47.02633" lon="8.92884">
        <ele>959</ele>
        <time>2021-08-03T08:39:42.243Z</time>
      </trkpt>
      <trkpt lat="47.02633" lon="8.92885">
        <ele>967</ele>
        <time>2021-08-03T08:39:43.244Z</time>
      </trkpt>
      <trkpt lat="47.02632" lon="8.92887">
        <ele>965</ele>
        <time>2021-08-03T08:39:44.244Z</time>
      </trkpt>
      <trkpt lat="47.02632" lon="8.92887">
        <ele>965</ele>
        <time>2021-08-03T08:39:45.244Z</time>
      </trkpt>
      <trkpt lat="47.02632" lon="8.92887">
        <ele>964</ele>
        <time>2021-08-03T08:39:46.244Z</time>
      </trkpt>
      <trkpt lat="47.0263" lon="8.92891">
        <ele>964</ele>
        <time>2021-08-03T08:39:47.244Z</time>
      </trkpt>
      <trkpt lat="47.0263" lon="8.92893">
        <ele>963</ele>
        <time>2021-08-03T08:39:48.243Z</time>
      </trkpt>
      <trkpt lat="47.02629" lon="8.92895">
        <ele>963</ele>
        <time>2021-08-03T08:39:49.243Z</time>
      </trkpt>
      <trkpt lat="47.02629" lon="8.92896">
        <ele>962</ele>
        <time>2021-08-03T08:39:50.244Z</time>
      </trkpt>
      <trkpt lat="47.02629" lon="8.92898">
        <ele>962</ele>
        <time>2021-08-03T08:39:51.244Z</time>
      </trkpt>
      <trkpt lat="47.02629" lon="8.92899">
        <ele>961</ele>
        <time>2021-08-03T08:39:52.243Z</time>
      </trkpt>
      <trkpt lat="47.02629" lon="8.929">
        <ele>961</ele>
        <time>2021-08-03T08:39:53.243Z</time>
      </trkpt>
      <trkpt lat="47.02629" lon="8.929">
        <ele>961</ele>
        <time>2021-08-03T08:39:54.244Z</time>
      </trkpt>
      <trkpt lat="47.0263" lon="8.92901">
        <ele>961</ele>
        <time>2021-08-03T08:39:55.244Z</time>
      </trkpt>
      <trkpt lat="47.0263" lon="8.92903">
        <ele>961</ele>
        <time>2021-08-03T08:39:56.243Z</time>
      </trkpt>
      <trkpt lat="47.0263" lon="8.92905">
        <ele>961</ele>
        <time>2021-08-03T08:39:57.244Z</time>
      </trkpt>
      <trkpt lat="47.0263" lon="8.92906">
        <ele>961</ele>
        <time>2021-08-03T08:39:58.243Z</time>
      </trkpt>
      <trkpt lat="47.0263" lon="8.92907">
        <ele>961</ele>
        <time>2021-08-03T08:39:59.244Z</time>
      </trkpt>
      <trkpt lat="47.0263" lon="8.92909">
        <ele>961</ele>
        <time>2021-08-03T08:40:00.243Z</time>
      </trkpt>
      <trkpt lat="47.0263" lon="8.9291">
        <ele>961</ele>
        <time>2021-08-03T08:40:01.243Z</time>
      </trkpt>
      <trkpt lat="47.0263" lon="8.92912">
        <ele>961</ele>
        <time>2021-08-03T08:40:02.243Z</time>
      </trkpt>
      <trkpt lat="47.0263" lon="8.92913">
        <ele>961</ele>
        <time>2021-08-03T08:40:03.244Z</time>
      </trkpt>
      <trkpt lat="47.0263" lon="8.92914">
        <ele>961</ele>
        <time>2021-08-03T08:40:04.244Z</time>
      </trkpt>
      <trkpt lat="47.0263" lon="8.92916">
        <ele>962</ele>
        <time>2021-08-03T08:40:05.243Z</time>
      </trkpt>
      <trkpt lat="47.0263" lon="8.92917">
        <ele>962</ele>
        <time>2021-08-03T08:40:06.243Z</time>
      </trkpt>
      <trkpt lat="47.0263" lon="8.92918">
        <ele>962</ele>
        <time>2021-08-03T08:40:07.243Z</time>
      </trkpt>
      <trkpt lat="47.0263" lon="8.9292">
        <ele>962</ele>
        <time>2021-08-03T08:40:08.243Z</time>
      </trkpt>
      <trkpt lat="47.0263" lon="8.92921">
        <ele>962</ele>
        <time>2021-08-03T08:40:09.243Z</time>
      </trkpt>
      <trkpt lat="47.02629" lon="8.92922">
        <ele>961</ele>
        <time>2021-08-03T08:40:10.244Z</time>
      </trkpt>
      <trkpt lat="47.02629" lon="8.92923">
        <ele>961</ele>
        <time>2021-08-03T08:40:11.243Z</time>
      </trkpt>
      <trkpt lat="47.02629" lon="8.92925">
        <ele>961</ele>
        <time>2021-08-03T08:40:12.244Z</time>
      </trkpt>
      <trkpt lat="47.02629" lon="8.92927">
        <ele>961</ele>
        <time>2021-08-03T08:40:13.244Z</time>
      </trkpt>
      <trkpt lat="47.02629" lon="8.92928">
        <ele>961</ele>
        <time>2021-08-03T08:40:14.244Z</time>
      </trkpt>
      <trkpt lat="47.02629" lon="8.9293">
        <ele>960</ele>
        <time>2021-08-03T08:40:15.243Z</time>
      </trkpt>
      <trkpt lat="47.02629" lon="8.92931">
        <ele>960</ele>
        <time>2021-08-03T08:40:16.243Z</time>
      </trkpt>
      <trkpt lat="47.02629" lon="8.92933">
        <ele>959</ele>
        <time>2021-08-03T08:40:17.243Z</time>
      </trkpt>
      <trkpt lat="47.02629" lon="8.92935">
        <ele>958</ele>
        <time>2021-08-03T08:40:18.243Z</time>
      </trkpt>
      <trkpt lat="47.02629" lon="8.92937">
        <ele>957</ele>
        <time>2021-08-03T08:40:19.243Z</time>
      </trkpt>
      <trkpt lat="47.02629" lon="8.92938">
        <ele>957</ele>
        <time>2021-08-03T08:40:20.243Z</time>
      </trkpt>
      <trkpt lat="47.02628" lon="8.92939">
        <ele>956</ele>
        <time>2021-08-03T08:40:21.243Z</time>
      </trkpt>
      <trkpt lat="47.02628" lon="8.92941">
        <ele>955</ele>
        <time>2021-08-03T08:40:22.243Z</time>
      </trkpt>
      <trkpt lat="47.02628" lon="8.92943">
        <ele>955</ele>
        <time>2021-08-03T08:40:23.243Z</time>
      </trkpt>
      <trkpt lat="47.02628" lon="8.92944">
        <ele>955</ele>
        <time>2021-08-03T08:40:24.243Z</time>
      </trkpt>
      <trkpt lat="47.02627" lon="8.92946">
        <ele>955</ele>
        <time>2021-08-03T08:40:25.243Z</time>
      </trkpt>
      <trkpt lat="47.02627" lon="8.92948">
        <ele>955</ele>
        <time>2021-08-03T08:40:26.243Z</time>
      </trkpt>
      <trkpt lat="47.02627" lon="8.9295">
        <ele>955</ele>
        <time>2021-08-03T08:40:27.244Z</time>
      </trkpt>
      <trkpt lat="47.02627" lon="8.92953">
        <ele>956</ele>
        <time>2021-08-03T08:40:28.243Z</time>
      </trkpt>
      <trkpt lat="47.02627" lon="8.92954">
        <ele>956</ele>
        <time>2021-08-03T08:40:29.244Z</time>
      </trkpt>
      <trkpt lat="47.02627" lon="8.92956">
        <ele>956</ele>
        <time>2021-08-03T08:40:30.243Z</time>
      </trkpt>
      <trkpt lat="47.02627" lon="8.92957">
        <ele>956</ele>
        <time>2021-08-03T08:40:31.244Z</time>
      </trkpt>
      <trkpt lat="47.02626" lon="8.92958">
        <ele>955</ele>
        <time>2021-08-03T08:40:32.244Z</time>
      </trkpt>
      <trkpt lat="47.02626" lon="8.9296">
        <ele>955</ele>
        <time>2021-08-03T08:40:33.244Z</time>
      </trkpt>
      <trkpt lat="47.02626" lon="8.92961">
        <ele>955</ele>
        <time>2021-08-03T08:40:34.244Z</time>
      </trkpt>
      <trkpt lat="47.02626" lon="8.92963">
        <ele>955</ele>
        <time>2021-08-03T08:40:35.244Z</time>
      </trkpt>
      <trkpt lat="47.02625" lon="8.92965">
        <ele>955</ele>
        <time>2021-08-03T08:40:36.244Z</time>
      </trkpt>
      <trkpt lat="47.02625" lon="8.92966">
        <ele>954</ele>
        <time>2021-08-03T08:40:37.243Z</time>
      </trkpt>
      <trkpt lat="47.02625" lon="8.92967">
        <ele>954</ele>
        <time>2021-08-03T08:40:38.244Z</time>
      </trkpt>
      <trkpt lat="47.02625" lon="8.92969">
        <ele>953</ele>
        <time>2021-08-03T08:40:39.244Z</time>
      </trkpt>
      <trkpt lat="47.02625" lon="8.92971">
        <ele>952</ele>
        <time>2021-08-03T08:40:40.244Z</time>
      </trkpt>
      <trkpt lat="47.02625" lon="8.92972">
        <ele>951</ele>
        <time>2021-08-03T08:40:41.244Z</time>
      </trkpt>
      <trkpt lat="47.02625" lon="8.92974">
        <ele>951</ele>
        <time>2021-08-03T08:40:42.244Z</time>
      </trkpt>
      <trkpt lat="47.02625" lon="8.92975">
        <ele>950</ele>
        <time>2021-08-03T08:40:43.244Z</time>
      </trkpt>
      <trkpt lat="47.02625" lon="8.92977">
        <ele>949</ele>
        <time>2021-08-03T08:40:44.243Z</time>
      </trkpt>
      <trkpt lat="47.02625" lon="8.92978">
        <ele>949</ele>
        <time>2021-08-03T08:40:45.244Z</time>
      </trkpt>
      <trkpt lat="47.02625" lon="8.9298">
        <ele>948</ele>
        <time>2021-08-03T08:40:46.244Z</time>
      </trkpt>
      <trkpt lat="47.02624" lon="8.92982">
        <ele>948</ele>
        <time>2021-08-03T08:40:47.243Z</time>
      </trkpt>
      <trkpt lat="47.02624" lon="8.92984">
        <ele>948</ele>
        <time>2021-08-03T08:40:48.244Z</time>
      </trkpt>
      <trkpt lat="47.02624" lon="8.92986">
        <ele>948</ele>
        <time>2021-08-03T08:40:49.243Z</time>
      </trkpt>
      <trkpt lat="47.02624" lon="8.92988">
        <ele>948</ele>
        <time>2021-08-03T08:40:50.244Z</time>
      </trkpt>
      <trkpt lat="47.02624" lon="8.9299">
        <ele>948</ele>
        <time>2021-08-03T08:40:51.243Z</time>
      </trkpt>
      <trkpt lat="47.02624" lon="8.92991">
        <ele>948</ele>
        <time>2021-08-03T08:40:52.244Z</time>
      </trkpt>
      <trkpt lat="47.02623" lon="8.92994">
        <ele>947</ele>
        <time>2021-08-03T08:40:53.243Z</time>
      </trkpt>
      <trkpt lat="47.02623" lon="8.92996">
        <ele>947</ele>
        <time>2021-08-03T08:40:54.244Z</time>
      </trkpt>
      <trkpt lat="47.02623" lon="8.92998">
        <ele>947</ele>
        <time>2021-08-03T08:40:55.244Z</time>
      </trkpt>
      <trkpt lat="47.02623" lon="8.93">
        <ele>947</ele>
        <time>2021-08-03T08:40:56.244Z</time>
      </trkpt>
      <trkpt lat="47.02622" lon="8.93002">
        <ele>947</ele>
        <time>2021-08-03T08:40:57.243Z</time>
      </trkpt>
      <trkpt lat="47.02622" lon="8.93003">
        <ele>947</ele>
        <time>2021-08-03T08:40:58.243Z</time>
      </trkpt>
      <trkpt lat="47.02622" lon="8.93005">
        <ele>947</ele>
        <time>2021-08-03T08:40:59.243Z</time>
      </trkpt>
      <trkpt lat="47.02622" lon="8.93008">
        <ele>946</ele>
        <time>2021-08-03T08:41:00.244Z</time>
      </trkpt>
      <trkpt lat="47.02622" lon="8.93009">
        <ele>946</ele>
        <time>2021-08-03T08:41:01.244Z</time>
      </trkpt>
      <trkpt lat="47.02622" lon="8.93011">
        <ele>946</ele>
        <time>2021-08-03T08:41:02.244Z</time>
      </trkpt>
      <trkpt lat="47.02622" lon="8.93013">
        <ele>946</ele>
        <time>2021-08-03T08:41:03.243Z</time>
      </trkpt>
      <trkpt lat="47.02622" lon="8.93015">
        <ele>947</ele>
        <time>2021-08-03T08:41:04.244Z</time>
      </trkpt>
      <trkpt lat="47.02622" lon="8.93016">
        <ele>947</ele>
        <time>2021-08-03T08:41:05.244Z</time>
      </trkpt>
      <trkpt lat="47.02622" lon="8.93018">
        <ele>947</ele>
        <time>2021-08-03T08:41:06.244Z</time>
      </trkpt>
      <trkpt lat="47.02622" lon="8.93019">
        <ele>948</ele>
        <time>2021-08-03T08:41:07.244Z</time>
      </trkpt>
      <trkpt lat="47.02622" lon="8.93021">
        <ele>948</ele>
        <time>2021-08-03T08:41:08.244Z</time>
      </trkpt>
      <trkpt lat="47.02622" lon="8.93023">
        <ele>948</ele>
        <time>2021-08-03T08:41:09.243Z</time>
      </trkpt>
      <trkpt lat="47.02622" lon="8.93025">
        <ele>948</ele>
        <time>2021-08-03T08:41:10.243Z</time>
      </trkpt>
      <trkpt lat="47.02622" lon="8.93026">
        <ele>948</ele>
        <time>2021-08-03T08:41:11.244Z</time>
      </trkpt>
      <trkpt lat="47.02621" lon="8.93028">
        <ele>949</ele>
        <time>2021-08-03T08:41:12.244Z</time>
      </trkpt>
      <trkpt lat="47.02622" lon="8.93029">
        <ele>949</ele>
        <time>2021-08-03T08:41:13.244Z</time>
      </trkpt>
      <trkpt lat="47.02622" lon="8.93031">
        <ele>950</ele>
        <time>2021-08-03T08:41:14.244Z</time>
      </trkpt>
      <trkpt lat="47.02623" lon="8.93032">
        <ele>950</ele>
        <time>2021-08-03T08:41:15.244Z</time>
      </trkpt>
      <trkpt lat="47.02623" lon="8.93034">
        <ele>951</ele>
        <time>2021-08-03T08:41:16.243Z</time>
      </trkpt>
      <trkpt lat="47.02624" lon="8.93035">
        <ele>951</ele>
        <time>2021-08-03T08:41:17.244Z</time>
      </trkpt>
      <trkpt lat="47.02625" lon="8.93036">
        <ele>952</ele>
        <time>2021-08-03T08:41:18.243Z</time>
      </trkpt>
      <trkpt lat="47.02626" lon="8.93037">
        <ele>952</ele>
        <time>2021-08-03T08:41:19.244Z</time>
      </trkpt>
      <trkpt lat="47.02626" lon="8.93038">
        <ele>953</ele>
        <time>2021-08-03T08:41:20.243Z</time>
      </trkpt>
      <trkpt lat="47.02627" lon="8.93038">
        <ele>953</ele>
        <time>2021-08-03T08:41:21.244Z</time>
      </trkpt>
      <trkpt lat="47.02628" lon="8.93038">
        <ele>953</ele>
        <time>2021-08-03T08:41:22.244Z</time>
      </trkpt>
      <trkpt lat="47.02629" lon="8.93038">
        <ele>953</ele>
        <time>2021-08-03T08:41:23.244Z</time>
      </trkpt>
      <trkpt lat="47.0263" lon="8.93038">
        <ele>953</ele>
        <time>2021-08-03T08:41:24.243Z</time>
      </trkpt>
      <trkpt lat="47.02631" lon="8.93039">
        <ele>953</ele>
        <time>2021-08-03T08:41:25.244Z</time>
      </trkpt>
      <trkpt lat="47.02631" lon="8.93039">
        <ele>953</ele>
        <time>2021-08-03T08:41:26.244Z</time>
      </trkpt>
      <trkpt lat="47.02632" lon="8.93039">
        <ele>954</ele>
        <time>2021-08-03T08:41:27.243Z</time>
      </trkpt>
      <trkpt lat="47.02633" lon="8.93038">
        <ele>954</ele>
        <time>2021-08-03T08:41:28.244Z</time>
      </trkpt>
      <trkpt lat="47.02633" lon="8.93036">
        <ele>954</ele>
        <time>2021-08-03T08:41:29.244Z</time>
      </trkpt>
      <trkpt lat="47.02634" lon="8.93036">
        <ele>953</ele>
        <time>2021-08-03T08:41:30.244Z</time>
      </trkpt>
      <trkpt lat="47.02633" lon="8.93035">
        <ele>953</ele>
        <time>2021-08-03T08:41:31.243Z</time>
      </trkpt>
      <trkpt lat="47.02633" lon="8.93034">
        <ele>953</ele>
        <time>2021-08-03T08:41:32.244Z</time>
      </trkpt>
      <trkpt lat="47.02632" lon="8.93032">
        <ele>952</ele>
        <time>2021-08-03T08:41:33.244Z</time>
      </trkpt>
      <trkpt lat="47.02632" lon="8.93032">
        <ele>952</ele>
        <time>2021-08-03T08:41:34.244Z</time>
      </trkpt>
      <trkpt lat="47.02632" lon="8.93032">
        <ele>953</ele>
        <time>2021-08-03T08:41:35.244Z</time>
      </trkpt>
      <trkpt lat="47.02632" lon="8.93031">
        <ele>954</ele>
        <time>2021-08-03T08:41:36.243Z</time>
      </trkpt>
      <trkpt lat="47.02632" lon="8.93031">
        <ele>956</ele>
        <time>2021-08-03T08:41:37.243Z</time>
      </trkpt>
      <trkpt lat="47.02633" lon="8.93031">
        <ele>962</ele>
        <time>2021-08-03T08:41:38.244Z</time>
      </trkpt>
      <trkpt lat="47.02634" lon="8.93031">
        <ele>963</ele>
        <time>2021-08-03T08:41:39.245Z</time>
      </trkpt>
      <trkpt lat="47.02634" lon="8.93031">
        <ele>963</ele>
        <time>2021-08-03T08:41:40.245Z</time>
      </trkpt>
      <trkpt lat="47.02634" lon="8.93031">
        <ele>963</ele>
        <time>2021-08-03T08:41:41.244Z</time>
      </trkpt>
      <trkpt lat="47.02635" lon="8.93032">
        <ele>963</ele>
        <time>2021-08-03T08:41:42.245Z</time>
      </trkpt>
      <trkpt lat="47.02635" lon="8.93032">
        <ele>957</ele>
        <time>2021-08-03T08:41:43.245Z</time>
      </trkpt>
      <trkpt lat="47.02636" lon="8.93033">
        <ele>957</ele>
        <time>2021-08-03T08:41:44.246Z</time>
      </trkpt>
      <trkpt lat="47.02636" lon="8.93032">
        <ele>956</ele>
        <time>2021-08-03T08:41:45.246Z</time>
      </trkpt>
      <trkpt lat="47.02636" lon="8.93031">
        <ele>956</ele>
        <time>2021-08-03T08:41:46.246Z</time>
      </trkpt>
      <trkpt lat="47.02636" lon="8.93031">
        <ele>955</ele>
        <time>2021-08-03T08:41:47.245Z</time>
      </trkpt>
      <trkpt lat="47.02637" lon="8.9303">
        <ele>954</ele>
        <time>2021-08-03T08:41:48.245Z</time>
      </trkpt>
      <trkpt lat="47.02637" lon="8.93029">
        <ele>954</ele>
        <time>2021-08-03T08:41:49.246Z</time>
      </trkpt>
      <trkpt lat="47.02637" lon="8.93028">
        <ele>954</ele>
        <time>2021-08-03T08:41:50.246Z</time>
      </trkpt>
      <trkpt lat="47.02637" lon="8.93027">
        <ele>953</ele>
        <time>2021-08-03T08:41:51.245Z</time>
      </trkpt>
      <trkpt lat="47.02637" lon="8.93026">
        <ele>953</ele>
        <time>2021-08-03T08:41:52.245Z</time>
      </trkpt>
      <trkpt lat="47.02637" lon="8.93026">
        <ele>953</ele>
        <time>2021-08-03T08:41:53.246Z</time>
      </trkpt>
      <trkpt lat="47.02638" lon="8.93024">
        <ele>953</ele>
        <time>2021-08-03T08:41:54.245Z</time>
      </trkpt>
      <trkpt lat="47.02638" lon="8.93024">
        <ele>953</ele>
        <time>2021-08-03T08:41:55.246Z</time>
      </trkpt>
      <trkpt lat="47.02639" lon="8.93023">
        <ele>953</ele>
        <time>2021-08-03T08:41:56.246Z</time>
      </trkpt>
      <trkpt lat="47.02639" lon="8.93022">
        <ele>953</ele>
        <time>2021-08-03T08:41:57.246Z</time>
      </trkpt>
      <trkpt lat="47.02639" lon="8.93021">
        <ele>953</ele>
        <time>2021-08-03T08:41:58.245Z</time>
      </trkpt>
      <trkpt lat="47.02639" lon="8.93021">
        <ele>953</ele>
        <time>2021-08-03T08:41:59.246Z</time>
      </trkpt>
      <trkpt lat="47.02639" lon="8.93021">
        <ele>953</ele>
        <time>2021-08-03T08:42:00.246Z</time>
      </trkpt>
      <trkpt lat="47.02639" lon="8.93019">
        <ele>956</ele>
        <time>2021-08-03T08:42:01.245Z</time>
      </trkpt>
      <trkpt lat="47.0264" lon="8.93018">
        <ele>956</ele>
        <time>2021-08-03T08:42:02.245Z</time>
      </trkpt>
      <trkpt lat="47.0264" lon="8.93019">
        <ele>956</ele>
        <time>2021-08-03T08:42:03.245Z</time>
      </trkpt>
      <trkpt lat="47.0264" lon="8.93019">
        <ele>955</ele>
        <time>2021-08-03T08:42:04.245Z</time>
      </trkpt>
      <trkpt lat="47.0264" lon="8.93019">
        <ele>954</ele>
        <time>2021-08-03T08:42:05.245Z</time>
      </trkpt>
      <trkpt lat="47.0264" lon="8.93018">
        <ele>954</ele>
        <time>2021-08-03T08:42:06.245Z</time>
      </trkpt>
      <trkpt lat="47.0264" lon="8.93017">
        <ele>953</ele>
        <time>2021-08-03T08:42:07.246Z</time>
      </trkpt>
      <trkpt lat="47.0264" lon="8.93016">
        <ele>953</ele>
        <time>2021-08-03T08:42:08.245Z</time>
      </trkpt>
      <trkpt lat="47.0264" lon="8.93015">
        <ele>953</ele>
        <time>2021-08-03T08:42:09.246Z</time>
      </trkpt>
      <trkpt lat="47.0264" lon="8.93014">
        <ele>953</ele>
        <time>2021-08-03T08:42:10.245Z</time>
      </trkpt>
      <trkpt lat="47.02641" lon="8.93012">
        <ele>953</ele>
        <time>2021-08-03T08:42:11.245Z</time>
      </trkpt>
      <trkpt lat="47.02641" lon="8.93011">
        <ele>953</ele>
        <time>2021-08-03T08:42:12.245Z</time>
      </trkpt>
      <trkpt lat="47.02641" lon="8.9301">
        <ele>953</ele>
        <time>2021-08-03T08:42:13.245Z</time>
      </trkpt>
      <trkpt lat="47.02641" lon="8.93009">
        <ele>953</ele>
        <time>2021-08-03T08:42:14.245Z</time>
      </trkpt>
      <trkpt lat="47.02641" lon="8.93008">
        <ele>953</ele>
        <time>2021-08-03T08:42:15.245Z</time>
      </trkpt>
      <trkpt lat="47.02642" lon="8.93007">
        <ele>954</ele>
        <time>2021-08-03T08:42:16.246Z</time>
      </trkpt>
      <trkpt lat="47.02642" lon="8.93005">
        <ele>954</ele>
        <time>2021-08-03T08:42:17.245Z</time>
      </trkpt>
      <trkpt lat="47.02643" lon="8.93004">
        <ele>954</ele>
        <time>2021-08-03T08:42:18.245Z</time>
      </trkpt>
      <trkpt lat="47.02643" lon="8.93003">
        <ele>954</ele>
        <time>2021-08-03T08:42:19.245Z</time>
      </trkpt>
      <trkpt lat="47.02644" lon="8.93002">
        <ele>954</ele>
        <time>2021-08-03T08:42:20.246Z</time>
      </trkpt>
      <trkpt lat="47.02644" lon="8.93001">
        <ele>954</ele>
        <time>2021-08-03T08:42:21.245Z</time>
      </trkpt>
      <trkpt lat="47.02644" lon="8.93">
        <ele>954</ele>
        <time>2021-08-03T08:42:22.245Z</time>
      </trkpt>
      <trkpt lat="47.02644" lon="8.92999">
        <ele>955</ele>
        <time>2021-08-03T08:42:23.245Z</time>
      </trkpt>
      <trkpt lat="47.02644" lon="8.92997">
        <ele>955</ele>
        <time>2021-08-03T08:42:24.245Z</time>
      </trkpt>
      <trkpt lat="47.02644" lon="8.92996">
        <ele>955</ele>
        <time>2021-08-03T08:42:25.245Z</time>
      </trkpt>
      <trkpt lat="47.02644" lon="8.92995">
        <ele>955</ele>
        <time>2021-08-03T08:42:26.245Z</time>
      </trkpt>
      <trkpt lat="47.02644" lon="8.92994">
        <ele>955</ele>
        <time>2021-08-03T08:42:27.245Z</time>
      </trkpt>
      <trkpt lat="47.02644" lon="8.92993">
        <ele>955</ele>
        <time>2021-08-03T08:42:28.245Z</time>
      </trkpt>
      <trkpt lat="47.02644" lon="8.92992">
        <ele>955</ele>
        <time>2021-08-03T08:42:29.245Z</time>
      </trkpt>
      <trkpt lat="47.02644" lon="8.92991">
        <ele>955</ele>
        <time>2021-08-03T08:42:30.245Z</time>
      </trkpt>
      <trkpt lat="47.02645" lon="8.9299">
        <ele>955</ele>
        <time>2021-08-03T08:42:31.246Z</time>
      </trkpt>
      <trkpt lat="47.02645" lon="8.92989">
        <ele>955</ele>
        <time>2021-08-03T08:42:32.246Z</time>
      </trkpt>
      <trkpt lat="47.02645" lon="8.92987">
        <ele>955</ele>
        <time>2021-08-03T08:42:33.245Z</time>
      </trkpt>
      <trkpt lat="47.02645" lon="8.92987">
        <ele>955</ele>
        <time>2021-08-03T08:42:34.245Z</time>
      </trkpt>
      <trkpt lat="47.02645" lon="8.92985">
        <ele>955</ele>
        <time>2021-08-03T08:42:35.245Z</time>
      </trkpt>
      <trkpt lat="47.02646" lon="8.92984">
        <ele>954</ele>
        <time>2021-08-03T08:42:36.245Z</time>
      </trkpt>
      <trkpt lat="47.02646" lon="8.92983">
        <ele>954</ele>
        <time>2021-08-03T08:42:37.245Z</time>
      </trkpt>
      <trkpt lat="47.02647" lon="8.92982">
        <ele>955</ele>
        <time>2021-08-03T08:42:38.245Z</time>
      </trkpt>
      <trkpt lat="47.02647" lon="8.92981">
        <ele>955</ele>
        <time>2021-08-03T08:42:39.245Z</time>
      </trkpt>
      <trkpt lat="47.02647" lon="8.9298">
        <ele>955</ele>
        <time>2021-08-03T08:42:40.245Z</time>
      </trkpt>
      <trkpt lat="47.02647" lon="8.92979">
        <ele>955</ele>
        <time>2021-08-03T08:42:41.245Z</time>
      </trkpt>
      <trkpt lat="47.02648" lon="8.92977">
        <ele>955</ele>
        <time>2021-08-03T08:42:42.246Z</time>
      </trkpt>
      <trkpt lat="47.02648" lon="8.92977">
        <ele>955</ele>
        <time>2021-08-03T08:42:43.246Z</time>
      </trkpt>
      <trkpt lat="47.02649" lon="8.92975">
        <ele>955</ele>
        <time>2021-08-03T08:42:44.245Z</time>
      </trkpt>
      <trkpt lat="47.02649" lon="8.92974">
        <ele>955</ele>
        <time>2021-08-03T08:42:45.245Z</time>
      </trkpt>
      <trkpt lat="47.02649" lon="8.92973">
        <ele>955</ele>
        <time>2021-08-03T08:42:46.245Z</time>
      </trkpt>
      <trkpt lat="47.02649" lon="8.92972">
        <ele>955</ele>
        <time>2021-08-03T08:42:47.245Z</time>
      </trkpt>
      <trkpt lat="47.02649" lon="8.92971">
        <ele>955</ele>
        <time>2021-08-03T08:42:48.245Z</time>
      </trkpt>
      <trkpt lat="47.0265" lon="8.9297">
        <ele>955</ele>
        <time>2021-08-03T08:42:49.245Z</time>
      </trkpt>
      <trkpt lat="47.0265" lon="8.92969">
        <ele>955</ele>
        <time>2021-08-03T08:42:50.245Z</time>
      </trkpt>
      <trkpt lat="47.02651" lon="8.92968">
        <ele>955</ele>
        <time>2021-08-03T08:42:51.245Z</time>
      </trkpt>
      <trkpt lat="47.02651" lon="8.92968">
        <ele>954</ele>
        <time>2021-08-03T08:42:52.245Z</time>
      </trkpt>
      <trkpt lat="47.02652" lon="8.92966">
        <ele>954</ele>
        <time>2021-08-03T08:42:53.246Z</time>
      </trkpt>
      <trkpt lat="47.02652" lon="8.92965">
        <ele>954</ele>
        <time>2021-08-03T08:42:54.245Z</time>
      </trkpt>
      <trkpt lat="47.02652" lon="8.92964">
        <ele>955</ele>
        <time>2021-08-03T08:42:55.245Z</time>
      </trkpt>
      <trkpt lat="47.02653" lon="8.92963">
        <ele>955</ele>
        <time>2021-08-03T08:42:56.246Z</time>
      </trkpt>
      <trkpt lat="47.02653" lon="8.92962">
        <ele>955</ele>
        <time>2021-08-03T08:42:57.245Z</time>
      </trkpt>
      <trkpt lat="47.02654" lon="8.92961">
        <ele>955</ele>
        <time>2021-08-03T08:42:58.245Z</time>
      </trkpt>
      <trkpt lat="47.02655" lon="8.9296">
        <ele>956</ele>
        <time>2021-08-03T08:42:59.246Z</time>
      </trkpt>
      <trkpt lat="47.02655" lon="8.92959">
        <ele>957</ele>
        <time>2021-08-03T08:43:00.245Z</time>
      </trkpt>
      <trkpt lat="47.02656" lon="8.92958">
        <ele>957</ele>
        <time>2021-08-03T08:43:01.245Z</time>
      </trkpt>
      <trkpt lat="47.02657" lon="8.92957">
        <ele>958</ele>
        <time>2021-08-03T08:43:02.245Z</time>
      </trkpt>
      <trkpt lat="47.02657" lon="8.92955">
        <ele>958</ele>
        <time>2021-08-03T08:43:03.245Z</time>
      </trkpt>
      <trkpt lat="47.02657" lon="8.92954">
        <ele>958</ele>
        <time>2021-08-03T08:43:04.245Z</time>
      </trkpt>
      <trkpt lat="47.02658" lon="8.92953">
        <ele>958</ele>
        <time>2021-08-03T08:43:05.245Z</time>
      </trkpt>
      <trkpt lat="47.02658" lon="8.92952">
        <ele>958</ele>
        <time>2021-08-03T08:43:06.245Z</time>
      </trkpt>
      <trkpt lat="47.02658" lon="8.92951">
        <ele>958</ele>
        <time>2021-08-03T08:43:07.246Z</time>
      </trkpt>
      <trkpt lat="47.02659" lon="8.9295">
        <ele>958</ele>
        <time>2021-08-03T08:43:08.245Z</time>
      </trkpt>
      <trkpt lat="47.02659" lon="8.92948">
        <ele>958</ele>
        <time>2021-08-03T08:43:09.245Z</time>
      </trkpt>
      <trkpt lat="47.02659" lon="8.92947">
        <ele>958</ele>
        <time>2021-08-03T08:43:10.245Z</time>
      </trkpt>
      <trkpt lat="47.02659" lon="8.92946">
        <ele>959</ele>
        <time>2021-08-03T08:43:11.245Z</time>
      </trkpt>
      <trkpt lat="47.0266" lon="8.92945">
        <ele>959</ele>
        <time>2021-08-03T08:43:12.246Z</time>
      </trkpt>
      <trkpt lat="47.0266" lon="8.92944">
        <ele>960</ele>
        <time>2021-08-03T08:43:13.245Z</time>
      </trkpt>
      <trkpt lat="47.0266" lon="8.92943">
        <ele>960</ele>
        <time>2021-08-03T08:43:14.246Z</time>
      </trkpt>
      <trkpt lat="47.0266" lon="8.92942">
        <ele>961</ele>
        <time>2021-08-03T08:43:15.245Z</time>
      </trkpt>
      <trkpt lat="47.0266" lon="8.92941">
        <ele>962</ele>
        <time>2021-08-03T08:43:16.246Z</time>
      </trkpt>
      <trkpt lat="47.0266" lon="8.9294">
        <ele>962</ele>
        <time>2021-08-03T08:43:17.245Z</time>
      </trkpt>
      <trkpt lat="47.0266" lon="8.92939">
        <ele>963</ele>
        <time>2021-08-03T08:43:18.245Z</time>
      </trkpt>
      <trkpt lat="47.02659" lon="8.92938">
        <ele>963</ele>
        <time>2021-08-03T08:43:19.246Z</time>
      </trkpt>
      <trkpt lat="47.02659" lon="8.92938">
        <ele>963</ele>
        <time>2021-08-03T08:43:20.245Z</time>
      </trkpt>
      <trkpt lat="47.02659" lon="8.92937">
        <ele>964</ele>
        <time>2021-08-03T08:43:21.245Z</time>
      </trkpt>
      <trkpt lat="47.02659" lon="8.92936">
        <ele>964</ele>
        <time>2021-08-03T08:43:22.245Z</time>
      </trkpt>
      <trkpt lat="47.02659" lon="8.92935">
        <ele>964</ele>
        <time>2021-08-03T08:43:23.245Z</time>
      </trkpt>
      <trkpt lat="47.02659" lon="8.92934">
        <ele>965</ele>
        <time>2021-08-03T08:43:24.245Z</time>
      </trkpt>
      <trkpt lat="47.02659" lon="8.92933">
        <ele>964</ele>
        <time>2021-08-03T08:43:25.245Z</time>
      </trkpt>
      <trkpt lat="47.02659" lon="8.92933">
        <ele>964</ele>
        <time>2021-08-03T08:43:26.245Z</time>
      </trkpt>
      <trkpt lat="47.02659" lon="8.92932">
        <ele>964</ele>
        <time>2021-08-03T08:43:27.245Z</time>
      </trkpt>
      <trkpt lat="47.02659" lon="8.92931">
        <ele>963</ele>
        <time>2021-08-03T08:43:28.245Z</time>
      </trkpt>
      <trkpt lat="47.02659" lon="8.92931">
        <ele>964</ele>
        <time>2021-08-03T08:43:29.245Z</time>
      </trkpt>
      <trkpt lat="47.02659" lon="8.92929">
        <ele>963</ele>
        <time>2021-08-03T08:43:30.245Z</time>
      </trkpt>
      <trkpt lat="47.02658" lon="8.92928">
        <ele>963</ele>
        <time>2021-08-03T08:43:31.246Z</time>
      </trkpt>
      <trkpt lat="47.02658" lon="8.92928">
        <ele>963</ele>
        <time>2021-08-03T08:43:32.245Z</time>
      </trkpt>
      <trkpt lat="47.02658" lon="8.92927">
        <ele>962</ele>
        <time>2021-08-03T08:43:33.245Z</time>
      </trkpt>
      <trkpt lat="47.02658" lon="8.92927">
        <ele>962</ele>
        <time>2021-08-03T08:43:34.246Z</time>
      </trkpt>
      <trkpt lat="47.02658" lon="8.92926">
        <ele>962</ele>
        <time>2021-08-03T08:43:35.245Z</time>
      </trkpt>
      <trkpt lat="47.02658" lon="8.92925">
        <ele>962</ele>
        <time>2021-08-03T08:43:36.246Z</time>
      </trkpt>
      <trkpt lat="47.02658" lon="8.92924">
        <ele>962</ele>
        <time>2021-08-03T08:43:37.246Z</time>
      </trkpt>
      <trkpt lat="47.02657" lon="8.92923">
        <ele>962</ele>
        <time>2021-08-03T08:43:38.246Z</time>
      </trkpt>
      <trkpt lat="47.02657" lon="8.92922">
        <ele>962</ele>
        <time>2021-08-03T08:43:39.246Z</time>
      </trkpt>
      <trkpt lat="47.02657" lon="8.92922">
        <ele>962</ele>
        <time>2021-08-03T08:43:40.245Z</time>
      </trkpt>
      <trkpt lat="47.02658" lon="8.92921">
        <ele>962</ele>
        <time>2021-08-03T08:43:41.246Z</time>
      </trkpt>
      <trkpt lat="47.02658" lon="8.9292">
        <ele>962</ele>
        <time>2021-08-03T08:43:42.245Z</time>
      </trkpt>
      <trkpt lat="47.02658" lon="8.92919">
        <ele>962</ele>
        <time>2021-08-03T08:43:43.245Z</time>
      </trkpt>
      <trkpt lat="47.02657" lon="8.92919">
        <ele>963</ele>
        <time>2021-08-03T08:43:44.245Z</time>
      </trkpt>
      <trkpt lat="47.02657" lon="8.92917">
        <ele>963</ele>
        <time>2021-08-03T08:43:45.245Z</time>
      </trkpt>
      <trkpt lat="47.02657" lon="8.92917">
        <ele>964</ele>
        <time>2021-08-03T08:43:46.245Z</time>
      </trkpt>
      <trkpt lat="47.02657" lon="8.92916">
        <ele>964</ele>
        <time>2021-08-03T08:43:47.245Z</time>
      </trkpt>
      <trkpt lat="47.02657" lon="8.92915">
        <ele>964</ele>
        <time>2021-08-03T08:43:48.245Z</time>
      </trkpt>
      <trkpt lat="47.02656" lon="8.92914">
        <ele>964</ele>
        <time>2021-08-03T08:43:49.245Z</time>
      </trkpt>
      <trkpt lat="47.02656" lon="8.92914">
        <ele>964</ele>
        <time>2021-08-03T08:43:50.245Z</time>
      </trkpt>
      <trkpt lat="47.02656" lon="8.92912">
        <ele>964</ele>
        <time>2021-08-03T08:43:51.245Z</time>
      </trkpt>
      <trkpt lat="47.02657" lon="8.92912">
        <ele>965</ele>
        <time>2021-08-03T08:43:52.245Z</time>
      </trkpt>
      <trkpt lat="47.02657" lon="8.92911">
        <ele>965</ele>
        <time>2021-08-03T08:43:53.245Z</time>
      </trkpt>
      <trkpt lat="47.02657" lon="8.9291">
        <ele>965</ele>
        <time>2021-08-03T08:43:54.245Z</time>
      </trkpt>
      <trkpt lat="47.02657" lon="8.92909">
        <ele>965</ele>
        <time>2021-08-03T08:43:55.246Z</time>
      </trkpt>
      <trkpt lat="47.02657" lon="8.92909">
        <ele>965</ele>
        <time>2021-08-03T08:43:56.245Z</time>
      </trkpt>
      <trkpt lat="47.02657" lon="8.92908">
        <ele>966</ele>
        <time>2021-08-03T08:43:57.245Z</time>
      </trkpt>
      <trkpt lat="47.02657" lon="8.92908">
        <ele>966</ele>
        <time>2021-08-03T08:43:58.245Z</time>
      </trkpt>
      <trkpt lat="47.02657" lon="8.92906">
        <ele>967</ele>
        <time>2021-08-03T08:43:59.247Z</time>
      </trkpt>
      <trkpt lat="47.02657" lon="8.92905">
        <ele>967</ele>
        <time>2021-08-03T08:44:00.246Z</time>
      </trkpt>
      <trkpt lat="47.02657" lon="8.92903">
        <ele>968</ele>
        <time>2021-08-03T08:44:01.247Z</time>
      </trkpt>
      <trkpt lat="47.02658" lon="8.92902">
        <ele>968</ele>
        <time>2021-08-03T08:44:02.246Z</time>
      </trkpt>
      <trkpt lat="47.02658" lon="8.92902">
        <ele>968</ele>
        <time>2021-08-03T08:44:03.246Z</time>
      </trkpt>
      <trkpt lat="47.02659" lon="8.92901">
        <ele>968</ele>
        <time>2021-08-03T08:44:04.247Z</time>
      </trkpt>
      <trkpt lat="47.0266" lon="8.929">
        <ele>969</ele>
        <time>2021-08-03T08:44:05.247Z</time>
      </trkpt>
      <trkpt lat="47.0266" lon="8.92899">
        <ele>969</ele>
        <time>2021-08-03T08:44:06.247Z</time>
      </trkpt>
      <trkpt lat="47.0266" lon="8.92899">
        <ele>969</ele>
        <time>2021-08-03T08:44:07.247Z</time>
      </trkpt>
      <trkpt lat="47.02661" lon="8.92899">
        <ele>970</ele>
        <time>2021-08-03T08:44:08.246Z</time>
      </trkpt>
      <trkpt lat="47.02661" lon="8.92899">
        <ele>970</ele>
        <time>2021-08-03T08:44:09.246Z</time>
      </trkpt>
      <trkpt lat="47.02661" lon="8.92899">
        <ele>970</ele>
        <time>2021-08-03T08:44:10.247Z</time>
      </trkpt>
      <trkpt lat="47.02661" lon="8.92898">
        <ele>970</ele>
        <time>2021-08-03T08:44:11.247Z</time>
      </trkpt>
      <trkpt lat="47.02661" lon="8.92898">
        <ele>970</ele>
        <time>2021-08-03T08:44:12.247Z</time>
      </trkpt>
      <trkpt lat="47.02662" lon="8.92897">
        <ele>970</ele>
        <time>2021-08-03T08:44:13.246Z</time>
      </trkpt>
      <trkpt lat="47.02662" lon="8.92897">
        <ele>970</ele>
        <time>2021-08-03T08:44:14.247Z</time>
      </trkpt>
      <trkpt lat="47.02662" lon="8.92896">
        <ele>970</ele>
        <time>2021-08-03T08:44:15.247Z</time>
      </trkpt>
      <trkpt lat="47.02663" lon="8.92895">
        <ele>969</ele>
        <time>2021-08-03T08:44:16.246Z</time>
      </trkpt>
      <trkpt lat="47.02664" lon="8.92895">
        <ele>969</ele>
        <time>2021-08-03T08:44:17.247Z</time>
      </trkpt>
      <trkpt lat="47.02664" lon="8.92894">
        <ele>968</ele>
        <time>2021-08-03T08:44:18.246Z</time>
      </trkpt>
      <trkpt lat="47.02665" lon="8.92893">
        <ele>968</ele>
        <time>2021-08-03T08:44:19.247Z</time>
      </trkpt>
      <trkpt lat="47.02665" lon="8.92893">
        <ele>968</ele>
        <time>2021-08-03T08:44:20.246Z</time>
      </trkpt>
      <trkpt lat="47.02666" lon="8.92892">
        <ele>967</ele>
        <time>2021-08-03T08:44:21.246Z</time>
      </trkpt>
      <trkpt lat="47.02666" lon="8.92891">
        <ele>968</ele>
        <time>2021-08-03T08:44:22.247Z</time>
      </trkpt>
      <trkpt lat="47.02666" lon="8.92891">
        <ele>967</ele>
        <time>2021-08-03T08:44:23.247Z</time>
      </trkpt>
      <trkpt lat="47.02667" lon="8.92891">
        <ele>967</ele>
        <time>2021-08-03T08:44:24.247Z</time>
      </trkpt>
      <trkpt lat="47.02668" lon="8.9289">
        <ele>968</ele>
        <time>2021-08-03T08:44:25.247Z</time>
      </trkpt>
      <trkpt lat="47.02668" lon="8.92889">
        <ele>968</ele>
        <time>2021-08-03T08:44:26.247Z</time>
      </trkpt>
      <trkpt lat="47.02669" lon="8.92888">
        <ele>969</ele>
        <time>2021-08-03T08:44:27.247Z</time>
      </trkpt>
      <trkpt lat="47.02669" lon="8.92887">
        <ele>969</ele>
        <time>2021-08-03T08:44:28.246Z</time>
      </trkpt>
      <trkpt lat="47.0267" lon="8.92886">
        <ele>969</ele>
        <time>2021-08-03T08:44:29.247Z</time>
      </trkpt>
      <trkpt lat="47.0267" lon="8.92885">
        <ele>969</ele>
        <time>2021-08-03T08:44:30.247Z</time>
      </trkpt>
      <trkpt lat="47.02671" lon="8.92884">
        <ele>969</ele>
        <time>2021-08-03T08:44:31.247Z</time>
      </trkpt>
      <trkpt lat="47.02672" lon="8.92884">
        <ele>970</ele>
        <time>2021-08-03T08:44:32.247Z</time>
      </trkpt>
      <trkpt lat="47.02673" lon="8.92884">
        <ele>970</ele>
        <time>2021-08-03T08:44:33.246Z</time>
      </trkpt>
      <trkpt lat="47.02674" lon="8.92883">
        <ele>971</ele>
        <time>2021-08-03T08:44:34.247Z</time>
      </trkpt>
      <trkpt lat="47.02675" lon="8.92882">
        <ele>972</ele>
        <time>2021-08-03T08:44:35.247Z</time>
      </trkpt>
      <trkpt lat="47.02676" lon="8.92881">
        <ele>972</ele>
        <time>2021-08-03T08:44:36.247Z</time>
      </trkpt>
      <trkpt lat="47.02676" lon="8.9288">
        <ele>973</ele>
        <time>2021-08-03T08:44:37.247Z</time>
      </trkpt>
      <trkpt lat="47.02677" lon="8.92879">
        <ele>973</ele>
        <time>2021-08-03T08:44:38.247Z</time>
      </trkpt>
      <trkpt lat="47.02678" lon="8.92878">
        <ele>973</ele>
        <time>2021-08-03T08:44:39.247Z</time>
      </trkpt>
      <trkpt lat="47.02679" lon="8.92877">
        <ele>974</ele>
        <time>2021-08-03T08:44:40.247Z</time>
      </trkpt>
      <trkpt lat="47.0268" lon="8.92875">
        <ele>974</ele>
        <time>2021-08-03T08:44:41.246Z</time>
      </trkpt>
      <trkpt lat="47.02681" lon="8.92874">
        <ele>975</ele>
        <time>2021-08-03T08:44:42.247Z</time>
      </trkpt>
      <trkpt lat="47.02682" lon="8.92873">
        <ele>975</ele>
        <time>2021-08-03T08:44:43.247Z</time>
      </trkpt>
      <trkpt lat="47.02683" lon="8.92872">
        <ele>975</ele>
        <time>2021-08-03T08:44:44.247Z</time>
      </trkpt>
      <trkpt lat="47.02683" lon="8.92871">
        <ele>975</ele>
        <time>2021-08-03T08:44:45.247Z</time>
      </trkpt>
      <trkpt lat="47.02684" lon="8.9287">
        <ele>975</ele>
        <time>2021-08-03T08:44:46.246Z</time>
      </trkpt>
      <trkpt lat="47.02685" lon="8.92868">
        <ele>975</ele>
        <time>2021-08-03T08:44:47.247Z</time>
      </trkpt>
      <trkpt lat="47.02686" lon="8.92867">
        <ele>975</ele>
        <time>2021-08-03T08:44:48.247Z</time>
      </trkpt>
      <trkpt lat="47.02686" lon="8.92866">
        <ele>976</ele>
        <time>2021-08-03T08:44:49.247Z</time>
      </trkpt>
      <trkpt lat="47.02686" lon="8.92864">
        <ele>976</ele>
        <time>2021-08-03T08:44:50.246Z</time>
      </trkpt>
      <trkpt lat="47.02686" lon="8.92863">
        <ele>976</ele>
        <time>2021-08-03T08:44:51.247Z</time>
      </trkpt>
      <trkpt lat="47.02687" lon="8.92862">
        <ele>976</ele>
        <time>2021-08-03T08:44:52.246Z</time>
      </trkpt>
      <trkpt lat="47.02688" lon="8.92861">
        <ele>976</ele>
        <time>2021-08-03T08:44:53.247Z</time>
      </trkpt>
      <trkpt lat="47.02689" lon="8.9286">
        <ele>976</ele>
        <time>2021-08-03T08:44:54.247Z</time>
      </trkpt>
      <trkpt lat="47.0269" lon="8.92859">
        <ele>976</ele>
        <time>2021-08-03T08:44:55.247Z</time>
      </trkpt>
      <trkpt lat="47.02691" lon="8.92858">
        <ele>976</ele>
        <time>2021-08-03T08:44:56.246Z</time>
      </trkpt>
      <trkpt lat="47.02691" lon="8.92857">
        <ele>976</ele>
        <time>2021-08-03T08:44:57.247Z</time>
      </trkpt>
      <trkpt lat="47.02692" lon="8.92856">
        <ele>977</ele>
        <time>2021-08-03T08:44:58.246Z</time>
      </trkpt>
      <trkpt lat="47.02693" lon="8.92854">
        <ele>977</ele>
        <time>2021-08-03T08:44:59.247Z</time>
      </trkpt>
      <trkpt lat="47.02693" lon="8.92853">
        <ele>977</ele>
        <time>2021-08-03T08:45:00.247Z</time>
      </trkpt>
      <trkpt lat="47.02694" lon="8.92852">
        <ele>976</ele>
        <time>2021-08-03T08:45:01.246Z</time>
      </trkpt>
      <trkpt lat="47.02694" lon="8.92851">
        <ele>976</ele>
        <time>2021-08-03T08:45:02.247Z</time>
      </trkpt>
      <trkpt lat="47.02695" lon="8.9285">
        <ele>976</ele>
        <time>2021-08-03T08:45:03.247Z</time>
      </trkpt>
      <trkpt lat="47.02695" lon="8.92848">
        <ele>976</ele>
        <time>2021-08-03T08:45:04.247Z</time>
      </trkpt>
      <trkpt lat="47.02695" lon="8.92847">
        <ele>976</ele>
        <time>2021-08-03T08:45:05.247Z</time>
      </trkpt>
      <trkpt lat="47.02696" lon="8.92846">
        <ele>976</ele>
        <time>2021-08-03T08:45:06.247Z</time>
      </trkpt>
      <trkpt lat="47.02697" lon="8.92845">
        <ele>976</ele>
        <time>2021-08-03T08:45:07.247Z</time>
      </trkpt>
      <trkpt lat="47.02697" lon="8.92844">
        <ele>977</ele>
        <time>2021-08-03T08:45:08.247Z</time>
      </trkpt>
      <trkpt lat="47.02697" lon="8.92843">
        <ele>977</ele>
        <time>2021-08-03T08:45:09.247Z</time>
      </trkpt>
      <trkpt lat="47.02697" lon="8.92841">
        <ele>977</ele>
        <time>2021-08-03T08:45:10.247Z</time>
      </trkpt>
      <trkpt lat="47.02698" lon="8.9284">
        <ele>977</ele>
        <time>2021-08-03T08:45:11.246Z</time>
      </trkpt>
      <trkpt lat="47.02698" lon="8.92839">
        <ele>977</ele>
        <time>2021-08-03T08:45:12.247Z</time>
      </trkpt>
      <trkpt lat="47.02699" lon="8.92838">
        <ele>976</ele>
        <time>2021-08-03T08:45:13.247Z</time>
      </trkpt>
      <trkpt lat="47.02699" lon="8.92836">
        <ele>976</ele>
        <time>2021-08-03T08:45:14.247Z</time>
      </trkpt>
      <trkpt lat="47.027" lon="8.92835">
        <ele>976</ele>
        <time>2021-08-03T08:45:15.247Z</time>
      </trkpt>
      <trkpt lat="47.02701" lon="8.92834">
        <ele>976</ele>
        <time>2021-08-03T08:45:16.247Z</time>
      </trkpt>
      <trkpt lat="47.02701" lon="8.92833">
        <ele>976</ele>
        <time>2021-08-03T08:45:17.247Z</time>
      </trkpt>
      <trkpt lat="47.02701" lon="8.92831">
        <ele>977</ele>
        <time>2021-08-03T08:45:18.246Z</time>
      </trkpt>
      <trkpt lat="47.02702" lon="8.9283">
        <ele>978</ele>
        <time>2021-08-03T08:45:19.247Z</time>
      </trkpt>
      <trkpt lat="47.02702" lon="8.92829">
        <ele>979</ele>
        <time>2021-08-03T08:45:20.247Z</time>
      </trkpt>
      <trkpt lat="47.02703" lon="8.92828">
        <ele>980</ele>
        <time>2021-08-03T08:45:21.246Z</time>
      </trkpt>
      <trkpt lat="47.02703" lon="8.92827">
        <ele>981</ele>
        <time>2021-08-03T08:45:22.246Z</time>
      </trkpt>
      <trkpt lat="47.02703" lon="8.92826">
        <ele>982</ele>
        <time>2021-08-03T08:45:23.247Z</time>
      </trkpt>
      <trkpt lat="47.02704" lon="8.92825">
        <ele>983</ele>
        <time>2021-08-03T08:45:24.247Z</time>
      </trkpt>
      <trkpt lat="47.02704" lon="8.92824">
        <ele>983</ele>
        <time>2021-08-03T08:45:25.246Z</time>
      </trkpt>
      <trkpt lat="47.02704" lon="8.92823">
        <ele>983</ele>
        <time>2021-08-03T08:45:26.247Z</time>
      </trkpt>
      <trkpt lat="47.02704" lon="8.92822">
        <ele>983</ele>
        <time>2021-08-03T08:45:27.247Z</time>
      </trkpt>
      <trkpt lat="47.02704" lon="8.92821">
        <ele>984</ele>
        <time>2021-08-03T08:45:28.247Z</time>
      </trkpt>
      <trkpt lat="47.02705" lon="8.9282">
        <ele>984</ele>
        <time>2021-08-03T08:45:29.247Z</time>
      </trkpt>
      <trkpt lat="47.02706" lon="8.92819">
        <ele>984</ele>
        <time>2021-08-03T08:45:30.247Z</time>
      </trkpt>
      <trkpt lat="47.02707" lon="8.92818">
        <ele>984</ele>
        <time>2021-08-03T08:45:31.247Z</time>
      </trkpt>
      <trkpt lat="47.02707" lon="8.92817">
        <ele>984</ele>
        <time>2021-08-03T08:45:32.246Z</time>
      </trkpt>
      <trkpt lat="47.02708" lon="8.92816">
        <ele>984</ele>
        <time>2021-08-03T08:45:33.247Z</time>
      </trkpt>
      <trkpt lat="47.02708" lon="8.92815">
        <ele>984</ele>
        <time>2021-08-03T08:45:34.246Z</time>
      </trkpt>
      <trkpt lat="47.02708" lon="8.92814">
        <ele>984</ele>
        <time>2021-08-03T08:45:35.247Z</time>
      </trkpt>
      <trkpt lat="47.02709" lon="8.92813">
        <ele>984</ele>
        <time>2021-08-03T08:45:36.247Z</time>
      </trkpt>
      <trkpt lat="47.02709" lon="8.92813">
        <ele>984</ele>
        <time>2021-08-03T08:45:37.247Z</time>
      </trkpt>
      <trkpt lat="47.0271" lon="8.92812">
        <ele>984</ele>
        <time>2021-08-03T08:45:38.246Z</time>
      </trkpt>
      <trkpt lat="47.02709" lon="8.9281">
        <ele>984</ele>
        <time>2021-08-03T08:45:39.247Z</time>
      </trkpt>
      <trkpt lat="47.02709" lon="8.92809">
        <ele>983</ele>
        <time>2021-08-03T08:45:40.246Z</time>
      </trkpt>
      <trkpt lat="47.02709" lon="8.92808">
        <ele>983</ele>
        <time>2021-08-03T08:45:41.247Z</time>
      </trkpt>
      <trkpt lat="47.0271" lon="8.92807">
        <ele>982</ele>
        <time>2021-08-03T08:45:42.247Z</time>
      </trkpt>
      <trkpt lat="47.0271" lon="8.92806">
        <ele>982</ele>
        <time>2021-08-03T08:45:43.247Z</time>
      </trkpt>
      <trkpt lat="47.02711" lon="8.92804">
        <ele>981</ele>
        <time>2021-08-03T08:45:44.246Z</time>
      </trkpt>
      <trkpt lat="47.02711" lon="8.92803">
        <ele>981</ele>
        <time>2021-08-03T08:45:45.247Z</time>
      </trkpt>
      <trkpt lat="47.02712" lon="8.92802">
        <ele>980</ele>
        <time>2021-08-03T08:45:46.246Z</time>
      </trkpt>
      <trkpt lat="47.02713" lon="8.92802">
        <ele>979</ele>
        <time>2021-08-03T08:45:47.247Z</time>
      </trkpt>
      <trkpt lat="47.02713" lon="8.928">
        <ele>979</ele>
        <time>2021-08-03T08:45:48.246Z</time>
      </trkpt>
      <trkpt lat="47.02714" lon="8.92799">
        <ele>979</ele>
        <time>2021-08-03T08:45:49.246Z</time>
      </trkpt>
      <trkpt lat="47.02714" lon="8.92798">
        <ele>979</ele>
        <time>2021-08-03T08:45:50.246Z</time>
      </trkpt>
      <trkpt lat="47.02714" lon="8.92797">
        <ele>979</ele>
        <time>2021-08-03T08:45:51.246Z</time>
      </trkpt>
      <trkpt lat="47.02714" lon="8.92795">
        <ele>980</ele>
        <time>2021-08-03T08:45:52.247Z</time>
      </trkpt>
      <trkpt lat="47.02714" lon="8.92795">
        <ele>980</ele>
        <time>2021-08-03T08:45:53.246Z</time>
      </trkpt>
      <trkpt lat="47.02714" lon="8.92793">
        <ele>980</ele>
        <time>2021-08-03T08:45:54.246Z</time>
      </trkpt>
      <trkpt lat="47.02715" lon="8.92792">
        <ele>980</ele>
        <time>2021-08-03T08:45:55.247Z</time>
      </trkpt>
      <trkpt lat="47.02715" lon="8.92791">
        <ele>980</ele>
        <time>2021-08-03T08:45:56.247Z</time>
      </trkpt>
      <trkpt lat="47.02716" lon="8.9279">
        <ele>980</ele>
        <time>2021-08-03T08:45:57.246Z</time>
      </trkpt>
      <trkpt lat="47.02717" lon="8.92789">
        <ele>980</ele>
        <time>2021-08-03T08:45:58.247Z</time>
      </trkpt>
      <trkpt lat="47.02718" lon="8.92788">
        <ele>980</ele>
        <time>2021-08-03T08:45:59.247Z</time>
      </trkpt>
      <trkpt lat="47.02718" lon="8.92787">
        <ele>980</ele>
        <time>2021-08-03T08:46:00.247Z</time>
      </trkpt>
      <trkpt lat="47.02719" lon="8.92787">
        <ele>980</ele>
        <time>2021-08-03T08:46:01.246Z</time>
      </trkpt>
      <trkpt lat="47.0272" lon="8.92786">
        <ele>981</ele>
        <time>2021-08-03T08:46:02.246Z</time>
      </trkpt>
      <trkpt lat="47.02721" lon="8.92785">
        <ele>981</ele>
        <time>2021-08-03T08:46:03.246Z</time>
      </trkpt>
      <trkpt lat="47.02722" lon="8.92784">
        <ele>981</ele>
        <time>2021-08-03T08:46:04.246Z</time>
      </trkpt>
      <trkpt lat="47.02723" lon="8.92784">
        <ele>981</ele>
        <time>2021-08-03T08:46:05.246Z</time>
      </trkpt>
      <trkpt lat="47.02723" lon="8.92783">
        <ele>981</ele>
        <time>2021-08-03T08:46:06.246Z</time>
      </trkpt>
      <trkpt lat="47.02724" lon="8.92783">
        <ele>981</ele>
        <time>2021-08-03T08:46:07.247Z</time>
      </trkpt>
      <trkpt lat="47.02725" lon="8.92782">
        <ele>981</ele>
        <time>2021-08-03T08:46:08.247Z</time>
      </trkpt>
      <trkpt lat="47.02726" lon="8.92782">
        <ele>982</ele>
        <time>2021-08-03T08:46:09.246Z</time>
      </trkpt>
      <trkpt lat="47.02726" lon="8.92781">
        <ele>982</ele>
        <time>2021-08-03T08:46:10.246Z</time>
      </trkpt>
      <trkpt lat="47.02727" lon="8.92781">
        <ele>982</ele>
        <time>2021-08-03T08:46:11.246Z</time>
      </trkpt>
      <trkpt lat="47.02727" lon="8.92781">
        <ele>982</ele>
        <time>2021-08-03T08:46:12.247Z</time>
      </trkpt>
      <trkpt lat="47.02727" lon="8.9278">
        <ele>983</ele>
        <time>2021-08-03T08:46:13.246Z</time>
      </trkpt>
      <trkpt lat="47.02728" lon="8.9278">
        <ele>983</ele>
        <time>2021-08-03T08:46:14.247Z</time>
      </trkpt>
      <trkpt lat="47.02728" lon="8.92779">
        <ele>983</ele>
        <time>2021-08-03T08:46:15.247Z</time>
      </trkpt>
      <trkpt lat="47.02729" lon="8.92779">
        <ele>984</ele>
        <time>2021-08-03T08:46:16.247Z</time>
      </trkpt>
      <trkpt lat="47.0273" lon="8.92778">
        <ele>985</ele>
        <time>2021-08-03T08:46:17.247Z</time>
      </trkpt>
      <trkpt lat="47.02731" lon="8.92778">
        <ele>986</ele>
        <time>2021-08-03T08:46:18.247Z</time>
      </trkpt>
      <trkpt lat="47.02732" lon="8.92777">
        <ele>986</ele>
        <time>2021-08-03T08:46:19.246Z</time>
      </trkpt>
      <trkpt lat="47.02732" lon="8.92777">
        <ele>987</ele>
        <time>2021-08-03T08:46:20.247Z</time>
      </trkpt>
      <trkpt lat="47.02733" lon="8.92778">
        <ele>987</ele>
        <time>2021-08-03T08:46:21.247Z</time>
      </trkpt>
      <trkpt lat="47.02734" lon="8.92778">
        <ele>988</ele>
        <time>2021-08-03T08:46:22.247Z</time>
      </trkpt>
      <trkpt lat="47.02734" lon="8.92778">
        <ele>988</ele>
        <time>2021-08-03T08:46:23.246Z</time>
      </trkpt>
      <trkpt lat="47.02735" lon="8.92777">
        <ele>988</ele>
        <time>2021-08-03T08:46:24.247Z</time>
      </trkpt>
      <trkpt lat="47.02736" lon="8.92777">
        <ele>988</ele>
        <time>2021-08-03T08:46:25.247Z</time>
      </trkpt>
      <trkpt lat="47.02737" lon="8.92777">
        <ele>988</ele>
        <time>2021-08-03T08:46:26.246Z</time>
      </trkpt>
      <trkpt lat="47.02738" lon="8.92776">
        <ele>988</ele>
        <time>2021-08-03T08:46:27.246Z</time>
      </trkpt>
      <trkpt lat="47.02739" lon="8.92776">
        <ele>988</ele>
        <time>2021-08-03T08:46:28.247Z</time>
      </trkpt>
      <trkpt lat="47.0274" lon="8.92776">
        <ele>988</ele>
        <time>2021-08-03T08:46:29.247Z</time>
      </trkpt>
      <trkpt lat="47.0274" lon="8.92776">
        <ele>987</ele>
        <time>2021-08-03T08:46:30.247Z</time>
      </trkpt>
      <trkpt lat="47.02741" lon="8.92777">
        <ele>987</ele>
        <time>2021-08-03T08:46:31.246Z</time>
      </trkpt>
      <trkpt lat="47.02742" lon="8.92777">
        <ele>987</ele>
        <time>2021-08-03T08:46:32.247Z</time>
      </trkpt>
      <trkpt lat="47.02743" lon="8.92777">
        <ele>987</ele>
        <time>2021-08-03T08:46:33.246Z</time>
      </trkpt>
      <trkpt lat="47.02743" lon="8.92776">
        <ele>987</ele>
        <time>2021-08-03T08:46:34.247Z</time>
      </trkpt>
      <trkpt lat="47.02743" lon="8.92775">
        <ele>987</ele>
        <time>2021-08-03T08:46:35.246Z</time>
      </trkpt>
      <trkpt lat="47.02743" lon="8.92774">
        <ele>987</ele>
        <time>2021-08-03T08:46:36.246Z</time>
      </trkpt>
      <trkpt lat="47.02744" lon="8.92773">
        <ele>988</ele>
        <time>2021-08-03T08:46:37.247Z</time>
      </trkpt>
      <trkpt lat="47.02744" lon="8.92772">
        <ele>988</ele>
        <time>2021-08-03T08:46:38.246Z</time>
      </trkpt>
      <trkpt lat="47.02744" lon="8.92771">
        <ele>989</ele>
        <time>2021-08-03T08:46:39.247Z</time>
      </trkpt>
      <trkpt lat="47.02744" lon="8.9277">
        <ele>989</ele>
        <time>2021-08-03T08:46:40.247Z</time>
      </trkpt>
      <trkpt lat="47.02744" lon="8.92769">
        <ele>990</ele>
        <time>2021-08-03T08:46:41.247Z</time>
      </trkpt>
      <trkpt lat="47.02745" lon="8.92768">
        <ele>991</ele>
        <time>2021-08-03T08:46:42.246Z</time>
      </trkpt>
      <trkpt lat="47.02746" lon="8.92768">
        <ele>991</ele>
        <time>2021-08-03T08:46:43.247Z</time>
      </trkpt>
      <trkpt lat="47.02747" lon="8.92767">
        <ele>992</ele>
        <time>2021-08-03T08:46:44.247Z</time>
      </trkpt>
      <trkpt lat="47.02747" lon="8.92766">
        <ele>992</ele>
        <time>2021-08-03T08:46:45.246Z</time>
      </trkpt>
      <trkpt lat="47.02747" lon="8.92765">
        <ele>992</ele>
        <time>2021-08-03T08:46:46.247Z</time>
      </trkpt>
      <trkpt lat="47.02748" lon="8.92764">
        <ele>993</ele>
        <time>2021-08-03T08:46:47.247Z</time>
      </trkpt>
      <trkpt lat="47.02748" lon="8.92763">
        <ele>993</ele>
        <time>2021-08-03T08:46:48.247Z</time>
      </trkpt>
      <trkpt lat="47.02748" lon="8.92761">
        <ele>994</ele>
        <time>2021-08-03T08:46:49.247Z</time>
      </trkpt>
      <trkpt lat="47.02747" lon="8.9276">
        <ele>993</ele>
        <time>2021-08-03T08:46:50.246Z</time>
      </trkpt>
      <trkpt lat="47.02747" lon="8.92759">
        <ele>993</ele>
        <time>2021-08-03T08:46:51.246Z</time>
      </trkpt>
      <trkpt lat="47.02747" lon="8.92757">
        <ele>993</ele>
        <time>2021-08-03T08:46:52.247Z</time>
      </trkpt>
      <trkpt lat="47.02748" lon="8.92756">
        <ele>994</ele>
        <time>2021-08-03T08:46:53.247Z</time>
      </trkpt>
      <trkpt lat="47.02748" lon="8.92754">
        <ele>994</ele>
        <time>2021-08-03T08:46:54.246Z</time>
      </trkpt>
      <trkpt lat="47.02748" lon="8.92753">
        <ele>995</ele>
        <time>2021-08-03T08:46:55.247Z</time>
      </trkpt>
      <trkpt lat="47.02748" lon="8.92752">
        <ele>995</ele>
        <time>2021-08-03T08:46:56.247Z</time>
      </trkpt>
      <trkpt lat="47.02749" lon="8.92751">
        <ele>995</ele>
        <time>2021-08-03T08:46:57.246Z</time>
      </trkpt>
      <trkpt lat="47.02749" lon="8.92751">
        <ele>996</ele>
        <time>2021-08-03T08:46:58.247Z</time>
      </trkpt>
      <trkpt lat="47.02749" lon="8.9275">
        <ele>995</ele>
        <time>2021-08-03T08:46:59.247Z</time>
      </trkpt>
      <trkpt lat="47.0275" lon="8.92749">
        <ele>995</ele>
        <time>2021-08-03T08:47:00.246Z</time>
      </trkpt>
      <trkpt lat="47.0275" lon="8.92748">
        <ele>995</ele>
        <time>2021-08-03T08:47:01.247Z</time>
      </trkpt>
      <trkpt lat="47.02751" lon="8.92747">
        <ele>995</ele>
        <time>2021-08-03T08:47:02.246Z</time>
      </trkpt>
      <trkpt lat="47.02751" lon="8.92746">
        <ele>995</ele>
        <time>2021-08-03T08:47:03.247Z</time>
      </trkpt>
      <trkpt lat="47.02751" lon="8.92745">
        <ele>995</ele>
        <time>2021-08-03T08:47:04.246Z</time>
      </trkpt>
      <trkpt lat="47.02752" lon="8.92744">
        <ele>996</ele>
        <time>2021-08-03T08:47:05.247Z</time>
      </trkpt>
      <trkpt lat="47.02753" lon="8.92743">
        <ele>996</ele>
        <time>2021-08-03T08:47:06.246Z</time>
      </trkpt>
      <trkpt lat="47.02753" lon="8.92743">
        <ele>996</ele>
        <time>2021-08-03T08:47:07.247Z</time>
      </trkpt>
      <trkpt lat="47.02754" lon="8.92742">
        <ele>996</ele>
        <time>2021-08-03T08:47:08.247Z</time>
      </trkpt>
      <trkpt lat="47.02755" lon="8.92741">
        <ele>996</ele>
        <time>2021-08-03T08:47:09.247Z</time>
      </trkpt>
      <trkpt lat="47.02755" lon="8.9274">
        <ele>996</ele>
        <time>2021-08-03T08:47:10.247Z</time>
      </trkpt>
      <trkpt lat="47.02756" lon="8.92739">
        <ele>996</ele>
        <time>2021-08-03T08:47:11.247Z</time>
      </trkpt>
      <trkpt lat="47.02757" lon="8.92739">
        <ele>996</ele>
        <time>2021-08-03T08:47:12.247Z</time>
      </trkpt>
      <trkpt lat="47.02758" lon="8.92738">
        <ele>996</ele>
        <time>2021-08-03T08:47:13.247Z</time>
      </trkpt>
      <trkpt lat="47.02758" lon="8.92737">
        <ele>996</ele>
        <time>2021-08-03T08:47:14.246Z</time>
      </trkpt>
      <trkpt lat="47.02759" lon="8.92737">
        <ele>995</ele>
        <time>2021-08-03T08:47:15.246Z</time>
      </trkpt>
      <trkpt lat="47.02759" lon="8.92736">
        <ele>995</ele>
        <time>2021-08-03T08:47:16.246Z</time>
      </trkpt>
      <trkpt lat="47.02761" lon="8.92736">
        <ele>996</ele>
        <time>2021-08-03T08:47:17.246Z</time>
      </trkpt>
      <trkpt lat="47.02761" lon="8.92735">
        <ele>996</ele>
        <time>2021-08-03T08:47:18.246Z</time>
      </trkpt>
      <trkpt lat="47.02762" lon="8.92734">
        <ele>996</ele>
        <time>2021-08-03T08:47:19.247Z</time>
      </trkpt>
      <trkpt lat="47.02763" lon="8.92733">
        <ele>996</ele>
        <time>2021-08-03T08:47:20.247Z</time>
      </trkpt>
      <trkpt lat="47.02763" lon="8.92732">
        <ele>996</ele>
        <time>2021-08-03T08:47:21.246Z</time>
      </trkpt>
      <trkpt lat="47.02764" lon="8.92732">
        <ele>995</ele>
        <time>2021-08-03T08:47:22.247Z</time>
      </trkpt>
      <trkpt lat="47.02765" lon="8.92731">
        <ele>995</ele>
        <time>2021-08-03T08:47:23.247Z</time>
      </trkpt>
      <trkpt lat="47.02766" lon="8.92731">
        <ele>995</ele>
        <time>2021-08-03T08:47:24.247Z</time>
      </trkpt>
      <trkpt lat="47.02766" lon="8.9273">
        <ele>995</ele>
        <time>2021-08-03T08:47:25.247Z</time>
      </trkpt>
      <trkpt lat="47.02767" lon="8.92728">
        <ele>995</ele>
        <time>2021-08-03T08:47:26.246Z</time>
      </trkpt>
      <trkpt lat="47.02767" lon="8.92728">
        <ele>996</ele>
        <time>2021-08-03T08:47:27.246Z</time>
      </trkpt>
      <trkpt lat="47.02768" lon="8.92727">
        <ele>996</ele>
        <time>2021-08-03T08:47:28.247Z</time>
      </trkpt>
      <trkpt lat="47.02768" lon="8.92726">
        <ele>997</ele>
        <time>2021-08-03T08:47:29.247Z</time>
      </trkpt>
      <trkpt lat="47.02769" lon="8.92725">
        <ele>998</ele>
        <time>2021-08-03T08:47:30.247Z</time>
      </trkpt>
      <trkpt lat="47.02769" lon="8.92724">
        <ele>998</ele>
        <time>2021-08-03T08:47:31.246Z</time>
      </trkpt>
      <trkpt lat="47.02768" lon="8.92724">
        <ele>998</ele>
        <time>2021-08-03T08:47:32.246Z</time>
      </trkpt>
      <trkpt lat="47.02766" lon="8.9272">
        <ele>997</ele>
        <time>2021-08-03T08:47:33.246Z</time>
      </trkpt>
      <trkpt lat="47.02765" lon="8.9272">
        <ele>998</ele>
        <time>2021-08-03T08:47:34.247Z</time>
      </trkpt>
      <trkpt lat="47.02765" lon="8.92719">
        <ele>998</ele>
        <time>2021-08-03T08:47:35.246Z</time>
      </trkpt>
      <trkpt lat="47.02765" lon="8.92719">
        <ele>998</ele>
        <time>2021-08-03T08:47:36.247Z</time>
      </trkpt>
      <trkpt lat="47.02766" lon="8.9272">
        <ele>999</ele>
        <time>2021-08-03T08:47:37.247Z</time>
      </trkpt>
      <trkpt lat="47.02766" lon="8.9272">
        <ele>999</ele>
        <time>2021-08-03T08:47:38.246Z</time>
      </trkpt>
      <trkpt lat="47.02766" lon="8.9272">
        <ele>999</ele>
        <time>2021-08-03T08:47:39.247Z</time>
      </trkpt>
      <trkpt lat="47.02767" lon="8.9272">
        <ele>999</ele>
        <time>2021-08-03T08:47:40.246Z</time>
      </trkpt>
      <trkpt lat="47.02768" lon="8.9272">
        <ele>998</ele>
        <time>2021-08-03T08:47:41.247Z</time>
      </trkpt>
      <trkpt lat="47.02769" lon="8.92719">
        <ele>998</ele>
        <time>2021-08-03T08:47:42.246Z</time>
      </trkpt>
      <trkpt lat="47.02769" lon="8.92719">
        <ele>999</ele>
        <time>2021-08-03T08:47:43.247Z</time>
      </trkpt>
      <trkpt lat="47.0277" lon="8.92718">
        <ele>999</ele>
        <time>2021-08-03T08:47:44.247Z</time>
      </trkpt>
      <trkpt lat="47.0277" lon="8.92717">
        <ele>998</ele>
        <time>2021-08-03T08:47:45.247Z</time>
      </trkpt>
      <trkpt lat="47.02771" lon="8.92717">
        <ele>998</ele>
        <time>2021-08-03T08:47:46.246Z</time>
      </trkpt>
      <trkpt lat="47.02772" lon="8.92716">
        <ele>998</ele>
        <time>2021-08-03T08:47:47.247Z</time>
      </trkpt>
      <trkpt lat="47.02772" lon="8.92715">
        <ele>997</ele>
        <time>2021-08-03T08:47:48.246Z</time>
      </trkpt>
      <trkpt lat="47.02773" lon="8.92714">
        <ele>997</ele>
        <time>2021-08-03T08:47:49.247Z</time>
      </trkpt>
      <trkpt lat="47.02774" lon="8.92714">
        <ele>997</ele>
        <time>2021-08-03T08:47:50.246Z</time>
      </trkpt>
      <trkpt lat="47.02775" lon="8.92712">
        <ele>998</ele>
        <time>2021-08-03T08:47:51.246Z</time>
      </trkpt>
      <trkpt lat="47.02776" lon="8.92711">
        <ele>999</ele>
        <time>2021-08-03T08:47:52.247Z</time>
      </trkpt>
      <trkpt lat="47.02776" lon="8.9271">
        <ele>1000</ele>
        <time>2021-08-03T08:47:53.247Z</time>
      </trkpt>
      <trkpt lat="47.02777" lon="8.9271">
        <ele>1000</ele>
        <time>2021-08-03T08:47:54.247Z</time>
      </trkpt>
      <trkpt lat="47.02778" lon="8.92708">
        <ele>1001</ele>
        <time>2021-08-03T08:47:55.247Z</time>
      </trkpt>
      <trkpt lat="47.02779" lon="8.92708">
        <ele>1001</ele>
        <time>2021-08-03T08:47:56.247Z</time>
      </trkpt>
      <trkpt lat="47.02779" lon="8.92707">
        <ele>1002</ele>
        <time>2021-08-03T08:47:57.246Z</time>
      </trkpt>
      <trkpt lat="47.0278" lon="8.92706">
        <ele>1002</ele>
        <time>2021-08-03T08:47:58.247Z</time>
      </trkpt>
      <trkpt lat="47.02781" lon="8.92705">
        <ele>1003</ele>
        <time>2021-08-03T08:47:59.247Z</time>
      </trkpt>
      <trkpt lat="47.02781" lon="8.92704">
        <ele>1003</ele>
        <time>2021-08-03T08:48:00.247Z</time>
      </trkpt>
      <trkpt lat="47.02782" lon="8.92704">
        <ele>1003</ele>
        <time>2021-08-03T08:48:01.246Z</time>
      </trkpt>
      <trkpt lat="47.02782" lon="8.92703">
        <ele>1004</ele>
        <time>2021-08-03T08:48:02.246Z</time>
      </trkpt>
      <trkpt lat="47.02783" lon="8.92702">
        <ele>1004</ele>
        <time>2021-08-03T08:48:03.247Z</time>
      </trkpt>
      <trkpt lat="47.02783" lon="8.92701">
        <ele>1004</ele>
        <time>2021-08-03T08:48:04.247Z</time>
      </trkpt>
      <trkpt lat="47.02784" lon="8.92701">
        <ele>1005</ele>
        <time>2021-08-03T08:48:05.247Z</time>
      </trkpt>
      <trkpt lat="47.02784" lon="8.927">
        <ele>1005</ele>
        <time>2021-08-03T08:48:06.247Z</time>
      </trkpt>
      <trkpt lat="47.02785" lon="8.92699">
        <ele>1005</ele>
        <time>2021-08-03T08:48:07.246Z</time>
      </trkpt>
      <trkpt lat="47.02786" lon="8.92698">
        <ele>1005</ele>
        <time>2021-08-03T08:48:08.247Z</time>
      </trkpt>
      <trkpt lat="47.02786" lon="8.92697">
        <ele>1004</ele>
        <time>2021-08-03T08:48:09.247Z</time>
      </trkpt>
      <trkpt lat="47.02787" lon="8.92696">
        <ele>1004</ele>
        <time>2021-08-03T08:48:10.247Z</time>
      </trkpt>
      <trkpt lat="47.02787" lon="8.92694">
        <ele>1004</ele>
        <time>2021-08-03T08:48:11.247Z</time>
      </trkpt>
      <trkpt lat="47.02788" lon="8.92693">
        <ele>1004</ele>
        <time>2021-08-03T08:48:12.247Z</time>
      </trkpt>
      <trkpt lat="47.02789" lon="8.92692">
        <ele>1004</ele>
        <time>2021-08-03T08:48:13.247Z</time>
      </trkpt>
      <trkpt lat="47.02789" lon="8.92691">
        <ele>1004</ele>
        <time>2021-08-03T08:48:14.247Z</time>
      </trkpt>
      <trkpt lat="47.02789" lon="8.9269">
        <ele>1004</ele>
        <time>2021-08-03T08:48:15.246Z</time>
      </trkpt>
      <trkpt lat="47.02788" lon="8.92688">
        <ele>1003</ele>
        <time>2021-08-03T08:48:16.247Z</time>
      </trkpt>
      <trkpt lat="47.02788" lon="8.92687">
        <ele>1003</ele>
        <time>2021-08-03T08:48:17.247Z</time>
      </trkpt>
      <trkpt lat="47.02789" lon="8.92685">
        <ele>1003</ele>
        <time>2021-08-03T08:48:18.247Z</time>
      </trkpt>
      <trkpt lat="47.0279" lon="8.92683">
        <ele>1003</ele>
        <time>2021-08-03T08:48:19.247Z</time>
      </trkpt>
      <trkpt lat="47.0279" lon="8.92682">
        <ele>1003</ele>
        <time>2021-08-03T08:48:20.247Z</time>
      </trkpt>
      <trkpt lat="47.0279" lon="8.9268">
        <ele>1004</ele>
        <time>2021-08-03T08:48:21.247Z</time>
      </trkpt>
      <trkpt lat="47.0279" lon="8.92679">
        <ele>1004</ele>
        <time>2021-08-03T08:48:22.247Z</time>
      </trkpt>
      <trkpt lat="47.02789" lon="8.92677">
        <ele>1004</ele>
        <time>2021-08-03T08:48:23.247Z</time>
      </trkpt>
      <trkpt lat="47.02789" lon="8.92676">
        <ele>1004</ele>
        <time>2021-08-03T08:48:24.247Z</time>
      </trkpt>
      <trkpt lat="47.0279" lon="8.92674">
        <ele>1004</ele>
        <time>2021-08-03T08:48:25.247Z</time>
      </trkpt>
      <trkpt lat="47.0279" lon="8.92673">
        <ele>1004</ele>
        <time>2021-08-03T08:48:26.246Z</time>
      </trkpt>
      <trkpt lat="47.0279" lon="8.92672">
        <ele>1004</ele>
        <time>2021-08-03T08:48:27.247Z</time>
      </trkpt>
      <trkpt lat="47.0279" lon="8.92671">
        <ele>1004</ele>
        <time>2021-08-03T08:48:28.247Z</time>
      </trkpt>
      <trkpt lat="47.02791" lon="8.9267">
        <ele>1004</ele>
        <time>2021-08-03T08:48:29.246Z</time>
      </trkpt>
      <trkpt lat="47.02791" lon="8.92669">
        <ele>1004</ele>
        <time>2021-08-03T08:48:30.246Z</time>
      </trkpt>
      <trkpt lat="47.02791" lon="8.92669">
        <ele>1004</ele>
        <time>2021-08-03T08:48:31.246Z</time>
      </trkpt>
      <trkpt lat="47.02792" lon="8.92668">
        <ele>1003</ele>
        <time>2021-08-03T08:48:32.247Z</time>
      </trkpt>
      <trkpt lat="47.02791" lon="8.92668">
        <ele>1003</ele>
        <time>2021-08-03T08:48:33.246Z</time>
      </trkpt>
      <trkpt lat="47.0279" lon="8.92667">
        <ele>1002</ele>
        <time>2021-08-03T08:48:34.247Z</time>
      </trkpt>
      <trkpt lat="47.0279" lon="8.92667">
        <ele>1002</ele>
        <time>2021-08-03T08:48:35.247Z</time>
      </trkpt>
      <trkpt lat="47.0279" lon="8.92667">
        <ele>1001</ele>
        <time>2021-08-03T08:48:36.246Z</time>
      </trkpt>
      <trkpt lat="47.02789" lon="8.92667">
        <ele>1001</ele>
        <time>2021-08-03T08:48:37.246Z</time>
      </trkpt>
      <trkpt lat="47.02789" lon="8.92666">
        <ele>1001</ele>
        <time>2021-08-03T08:48:38.247Z</time>
      </trkpt>
      <trkpt lat="47.0279" lon="8.92666">
        <ele>1001</ele>
        <time>2021-08-03T08:48:39.248Z</time>
      </trkpt>
      <trkpt lat="47.02791" lon="8.92665">
        <ele>1001</ele>
        <time>2021-08-03T08:48:40.248Z</time>
      </trkpt>
      <trkpt lat="47.0279" lon="8.92665">
        <ele>1002</ele>
        <time>2021-08-03T08:48:41.248Z</time>
      </trkpt>
      <trkpt lat="47.0279" lon="8.92665">
        <ele>1002</ele>
        <time>2021-08-03T08:48:42.247Z</time>
      </trkpt>
      <trkpt lat="47.02789" lon="8.92666">
        <ele>1005</ele>
        <time>2021-08-03T08:48:43.248Z</time>
      </trkpt>
      <trkpt lat="47.02789" lon="8.92666">
        <ele>1005</ele>
        <time>2021-08-03T08:48:44.247Z</time>
      </trkpt>
      <trkpt lat="47.02789" lon="8.92666">
        <ele>1006</ele>
        <time>2021-08-03T08:48:45.247Z</time>
      </trkpt>
      <trkpt lat="47.02788" lon="8.92665">
        <ele>1014</ele>
        <time>2021-08-03T08:48:46.248Z</time>
      </trkpt>
      <trkpt lat="47.02788" lon="8.92664">
        <ele>1013</ele>
        <time>2021-08-03T08:48:47.249Z</time>
      </trkpt>
      <trkpt lat="47.02787" lon="8.92663">
        <ele>1013</ele>
        <time>2021-08-03T08:48:48.249Z</time>
      </trkpt>
      <trkpt lat="47.02787" lon="8.92662">
        <ele>1013</ele>
        <time>2021-08-03T08:48:49.249Z</time>
      </trkpt>
      <trkpt lat="47.02787" lon="8.92662">
        <ele>1013</ele>
        <time>2021-08-03T08:48:50.248Z</time>
      </trkpt>
      <trkpt lat="47.02787" lon="8.92661">
        <ele>1013</ele>
        <time>2021-08-03T08:48:51.249Z</time>
      </trkpt>
      <trkpt lat="47.02786" lon="8.92659">
        <ele>1007</ele>
        <time>2021-08-03T08:48:52.251Z</time>
      </trkpt>
      <trkpt lat="47.02788" lon="8.9266">
        <ele>1007</ele>
        <time>2021-08-03T08:48:53.251Z</time>
      </trkpt>
      <trkpt lat="47.0279" lon="8.9266">
        <ele>1007</ele>
        <time>2021-08-03T08:48:54.250Z</time>
      </trkpt>
      <trkpt lat="47.02791" lon="8.9266">
        <ele>1007</ele>
        <time>2021-08-03T08:48:55.250Z</time>
      </trkpt>
      <trkpt lat="47.02791" lon="8.92659">
        <ele>1007</ele>
        <time>2021-08-03T08:48:56.250Z</time>
      </trkpt>
      <trkpt lat="47.02791" lon="8.92659">
        <ele>1007</ele>
        <time>2021-08-03T08:48:57.250Z</time>
      </trkpt>
      <trkpt lat="47.02792" lon="8.92657">
        <ele>1006</ele>
        <time>2021-08-03T08:48:58.251Z</time>
      </trkpt>
      <trkpt lat="47.02792" lon="8.92656">
        <ele>1006</ele>
        <time>2021-08-03T08:48:59.251Z</time>
      </trkpt>
      <trkpt lat="47.02791" lon="8.92655">
        <ele>1006</ele>
        <time>2021-08-03T08:49:00.250Z</time>
      </trkpt>
      <trkpt lat="47.02791" lon="8.92654">
        <ele>1007</ele>
        <time>2021-08-03T08:49:01.250Z</time>
      </trkpt>
      <trkpt lat="47.02791" lon="8.92653">
        <ele>1007</ele>
        <time>2021-08-03T08:49:02.251Z</time>
      </trkpt>
      <trkpt lat="47.02791" lon="8.92652">
        <ele>1007</ele>
        <time>2021-08-03T08:49:03.251Z</time>
      </trkpt>
      <trkpt lat="47.0279" lon="8.92651">
        <ele>1008</ele>
        <time>2021-08-03T08:49:04.250Z</time>
      </trkpt>
      <trkpt lat="47.0279" lon="8.92651">
        <ele>1008</ele>
        <time>2021-08-03T08:49:05.250Z</time>
      </trkpt>
      <trkpt lat="47.0279" lon="8.9265">
        <ele>1008</ele>
        <time>2021-08-03T08:49:06.251Z</time>
      </trkpt>
      <trkpt lat="47.02789" lon="8.92649">
        <ele>1009</ele>
        <time>2021-08-03T08:49:07.250Z</time>
      </trkpt>
      <trkpt lat="47.02789" lon="8.92648">
        <ele>1010</ele>
        <time>2021-08-03T08:49:08.250Z</time>
      </trkpt>
      <trkpt lat="47.02789" lon="8.92647">
        <ele>1010</ele>
        <time>2021-08-03T08:49:09.250Z</time>
      </trkpt>
      <trkpt lat="47.02789" lon="8.92647">
        <ele>1011</ele>
        <time>2021-08-03T08:49:10.251Z</time>
      </trkpt>
      <trkpt lat="47.02789" lon="8.92646">
        <ele>1011</ele>
        <time>2021-08-03T08:49:11.250Z</time>
      </trkpt>
      <trkpt lat="47.02789" lon="8.92646">
        <ele>1012</ele>
        <time>2021-08-03T08:49:12.250Z</time>
      </trkpt>
      <trkpt lat="47.02788" lon="8.92646">
        <ele>1012</ele>
        <time>2021-08-03T08:49:13.251Z</time>
      </trkpt>
      <trkpt lat="47.02788" lon="8.92645">
        <ele>1012</ele>
        <time>2021-08-03T08:49:14.251Z</time>
      </trkpt>
      <trkpt lat="47.02788" lon="8.92644">
        <ele>1012</ele>
        <time>2021-08-03T08:49:15.251Z</time>
      </trkpt>
      <trkpt lat="47.02787" lon="8.92643">
        <ele>1013</ele>
        <time>2021-08-03T08:49:16.251Z</time>
      </trkpt>
      <trkpt lat="47.02787" lon="8.92643">
        <ele>1013</ele>
        <time>2021-08-03T08:49:17.251Z</time>
      </trkpt>
      <trkpt lat="47.02787" lon="8.92643">
        <ele>1013</ele>
        <time>2021-08-03T08:49:18.251Z</time>
      </trkpt>
      <trkpt lat="47.02787" lon="8.92641">
        <ele>1015</ele>
        <time>2021-08-03T08:49:19.251Z</time>
      </trkpt>
      <trkpt lat="47.02787" lon="8.9264">
        <ele>1015</ele>
        <time>2021-08-03T08:49:20.251Z</time>
      </trkpt>
      <trkpt lat="47.02786" lon="8.92639">
        <ele>1015</ele>
        <time>2021-08-03T08:49:21.250Z</time>
      </trkpt>
      <trkpt lat="47.02786" lon="8.92639">
        <ele>1015</ele>
        <time>2021-08-03T08:49:22.251Z</time>
      </trkpt>
      <trkpt lat="47.02786" lon="8.92638">
        <ele>1015</ele>
        <time>2021-08-03T08:49:23.251Z</time>
      </trkpt>
      <trkpt lat="47.02785" lon="8.92637">
        <ele>1015</ele>
        <time>2021-08-03T08:49:24.251Z</time>
      </trkpt>
      <trkpt lat="47.02785" lon="8.92637">
        <ele>1015</ele>
        <time>2021-08-03T08:49:25.251Z</time>
      </trkpt>
      <trkpt lat="47.02785" lon="8.92637">
        <ele>1014</ele>
        <time>2021-08-03T08:49:26.251Z</time>
      </trkpt>
      <trkpt lat="47.02785" lon="8.92636">
        <ele>1014</ele>
        <time>2021-08-03T08:49:27.251Z</time>
      </trkpt>
      <trkpt lat="47.02784" lon="8.92635">
        <ele>1013</ele>
        <time>2021-08-03T08:49:28.251Z</time>
      </trkpt>
      <trkpt lat="47.02784" lon="8.92633">
        <ele>1013</ele>
        <time>2021-08-03T08:49:29.251Z</time>
      </trkpt>
      <trkpt lat="47.02783" lon="8.92632">
        <ele>1012</ele>
        <time>2021-08-03T08:49:30.250Z</time>
      </trkpt>
      <trkpt lat="47.02783" lon="8.92631">
        <ele>1011</ele>
        <time>2021-08-03T08:49:31.251Z</time>
      </trkpt>
      <trkpt lat="47.02783" lon="8.9263">
        <ele>1011</ele>
        <time>2021-08-03T08:49:32.251Z</time>
      </trkpt>
      <trkpt lat="47.02782" lon="8.92628">
        <ele>1012</ele>
        <time>2021-08-03T08:49:33.251Z</time>
      </trkpt>
      <trkpt lat="47.02781" lon="8.92627">
        <ele>1012</ele>
        <time>2021-08-03T08:49:34.251Z</time>
      </trkpt>
      <trkpt lat="47.02781" lon="8.92626">
        <ele>1013</ele>
        <time>2021-08-03T08:49:35.251Z</time>
      </trkpt>
      <trkpt lat="47.02781" lon="8.92625">
        <ele>1013</ele>
        <time>2021-08-03T08:49:36.251Z</time>
      </trkpt>
      <trkpt lat="47.02782" lon="8.92624">
        <ele>1013</ele>
        <time>2021-08-03T08:49:37.251Z</time>
      </trkpt>
      <trkpt lat="47.02782" lon="8.92624">
        <ele>1014</ele>
        <time>2021-08-03T08:49:38.251Z</time>
      </trkpt>
      <trkpt lat="47.02782" lon="8.92623">
        <ele>1015</ele>
        <time>2021-08-03T08:49:39.251Z</time>
      </trkpt>
      <trkpt lat="47.02781" lon="8.92622">
        <ele>1015</ele>
        <time>2021-08-03T08:49:40.251Z</time>
      </trkpt>
      <trkpt lat="47.02781" lon="8.92621">
        <ele>1015</ele>
        <time>2021-08-03T08:49:41.251Z</time>
      </trkpt>
      <trkpt lat="47.0278" lon="8.9262">
        <ele>1015</ele>
        <time>2021-08-03T08:49:42.250Z</time>
      </trkpt>
      <trkpt lat="47.0278" lon="8.92619">
        <ele>1015</ele>
        <time>2021-08-03T08:49:43.251Z</time>
      </trkpt>
      <trkpt lat="47.0278" lon="8.92617">
        <ele>1015</ele>
        <time>2021-08-03T08:49:44.251Z</time>
      </trkpt>
      <trkpt lat="47.0278" lon="8.92616">
        <ele>1015</ele>
        <time>2021-08-03T08:49:45.251Z</time>
      </trkpt>
      <trkpt lat="47.02779" lon="8.92617">
        <ele>1015</ele>
        <time>2021-08-03T08:49:46.250Z</time>
      </trkpt>
      <trkpt lat="47.0278" lon="8.92617">
        <ele>1015</ele>
        <time>2021-08-03T08:49:47.250Z</time>
      </trkpt>
      <trkpt lat="47.0278" lon="8.92616">
        <ele>1016</ele>
        <time>2021-08-03T08:49:48.251Z</time>
      </trkpt>
      <trkpt lat="47.0278" lon="8.92616">
        <ele>1016</ele>
        <time>2021-08-03T08:49:49.251Z</time>
      </trkpt>
      <trkpt lat="47.02779" lon="8.92612">
        <ele>1018</ele>
        <time>2021-08-03T08:49:50.250Z</time>
      </trkpt>
      <trkpt lat="47.02779" lon="8.92612">
        <ele>1018</ele>
        <time>2021-08-03T08:49:51.250Z</time>
      </trkpt>
      <trkpt lat="47.02778" lon="8.92611">
        <ele>1018</ele>
        <time>2021-08-03T08:49:52.250Z</time>
      </trkpt>
      <trkpt lat="47.02778" lon="8.9261">
        <ele>1018</ele>
        <time>2021-08-03T08:49:53.251Z</time>
      </trkpt>
      <trkpt lat="47.02778" lon="8.92609">
        <ele>1018</ele>
        <time>2021-08-03T08:49:54.250Z</time>
      </trkpt>
      <trkpt lat="47.02777" lon="8.92608">
        <ele>1019</ele>
        <time>2021-08-03T08:49:55.251Z</time>
      </trkpt>
      <trkpt lat="47.02777" lon="8.92608">
        <ele>1019</ele>
        <time>2021-08-03T08:49:56.251Z</time>
      </trkpt>
      <trkpt lat="47.02777" lon="8.92607">
        <ele>1019</ele>
        <time>2021-08-03T08:49:57.251Z</time>
      </trkpt>
      <trkpt lat="47.02777" lon="8.92606">
        <ele>1019</ele>
        <time>2021-08-03T08:49:58.250Z</time>
      </trkpt>
      <trkpt lat="47.02777" lon="8.92606">
        <ele>1019</ele>
        <time>2021-08-03T08:49:59.251Z</time>
      </trkpt>
      <trkpt lat="47.02777" lon="8.92605">
        <ele>1019</ele>
        <time>2021-08-03T08:50:00.250Z</time>
      </trkpt>
      <trkpt lat="47.02777" lon="8.92604">
        <ele>1020</ele>
        <time>2021-08-03T08:50:01.251Z</time>
      </trkpt>
      <trkpt lat="47.02777" lon="8.92603">
        <ele>1021</ele>
        <time>2021-08-03T08:50:02.250Z</time>
      </trkpt>
      <trkpt lat="47.02778" lon="8.92603">
        <ele>1021</ele>
        <time>2021-08-03T08:50:03.250Z</time>
      </trkpt>
      <trkpt lat="47.02778" lon="8.92602">
        <ele>1021</ele>
        <time>2021-08-03T08:50:04.251Z</time>
      </trkpt>
      <trkpt lat="47.02779" lon="8.92601">
        <ele>1022</ele>
        <time>2021-08-03T08:50:05.251Z</time>
      </trkpt>
      <trkpt lat="47.02779" lon="8.926">
        <ele>1022</ele>
        <time>2021-08-03T08:50:06.251Z</time>
      </trkpt>
      <trkpt lat="47.02779" lon="8.92599">
        <ele>1022</ele>
        <time>2021-08-03T08:50:07.251Z</time>
      </trkpt>
      <trkpt lat="47.02779" lon="8.92599">
        <ele>1023</ele>
        <time>2021-08-03T08:50:08.250Z</time>
      </trkpt>
      <trkpt lat="47.02779" lon="8.92598">
        <ele>1023</ele>
        <time>2021-08-03T08:50:09.251Z</time>
      </trkpt>
      <trkpt lat="47.02779" lon="8.92596">
        <ele>1023</ele>
        <time>2021-08-03T08:50:10.251Z</time>
      </trkpt>
      <trkpt lat="47.02779" lon="8.92595">
        <ele>1023</ele>
        <time>2021-08-03T08:50:11.251Z</time>
      </trkpt>
      <trkpt lat="47.02779" lon="8.92595">
        <ele>1023</ele>
        <time>2021-08-03T08:50:12.251Z</time>
      </trkpt>
      <trkpt lat="47.02779" lon="8.92594">
        <ele>1024</ele>
        <time>2021-08-03T08:50:13.251Z</time>
      </trkpt>
      <trkpt lat="47.02779" lon="8.92593">
        <ele>1024</ele>
        <time>2021-08-03T08:50:14.251Z</time>
      </trkpt>
      <trkpt lat="47.02779" lon="8.92592">
        <ele>1024</ele>
        <time>2021-08-03T08:50:15.251Z</time>
      </trkpt>
      <trkpt lat="47.02778" lon="8.92591">
        <ele>1024</ele>
        <time>2021-08-03T08:50:16.250Z</time>
      </trkpt>
      <trkpt lat="47.02778" lon="8.9259">
        <ele>1025</ele>
        <time>2021-08-03T08:50:17.251Z</time>
      </trkpt>
      <trkpt lat="47.02778" lon="8.92589">
        <ele>1025</ele>
        <time>2021-08-03T08:50:18.250Z</time>
      </trkpt>
      <trkpt lat="47.02778" lon="8.92588">
        <ele>1025</ele>
        <time>2021-08-03T08:50:19.251Z</time>
      </trkpt>
      <trkpt lat="47.02778" lon="8.92587">
        <ele>1025</ele>
        <time>2021-08-03T08:50:20.250Z</time>
      </trkpt>
      <trkpt lat="47.02777" lon="8.92586">
        <ele>1025</ele>
        <time>2021-08-03T08:50:21.251Z</time>
      </trkpt>
      <trkpt lat="47.02777" lon="8.92585">
        <ele>1024</ele>
        <time>2021-08-03T08:50:22.251Z</time>
      </trkpt>
      <trkpt lat="47.02777" lon="8.92584">
        <ele>1024</ele>
        <time>2021-08-03T08:50:23.251Z</time>
      </trkpt>
      <trkpt lat="47.02776" lon="8.92583">
        <ele>1024</ele>
        <time>2021-08-03T08:50:24.251Z</time>
      </trkpt>
      <trkpt lat="47.02775" lon="8.92582">
        <ele>1024</ele>
        <time>2021-08-03T08:50:25.251Z</time>
      </trkpt>
      <trkpt lat="47.02775" lon="8.92581">
        <ele>1024</ele>
        <time>2021-08-03T08:50:26.250Z</time>
      </trkpt>
      <trkpt lat="47.02775" lon="8.9258">
        <ele>1024</ele>
        <time>2021-08-03T08:50:27.251Z</time>
      </trkpt>
      <trkpt lat="47.02775" lon="8.92579">
        <ele>1024</ele>
        <time>2021-08-03T08:50:28.251Z</time>
      </trkpt>
      <trkpt lat="47.02774" lon="8.92578">
        <ele>1023</ele>
        <time>2021-08-03T08:50:29.250Z</time>
      </trkpt>
      <trkpt lat="47.02774" lon="8.92577">
        <ele>1023</ele>
        <time>2021-08-03T08:50:30.251Z</time>
      </trkpt>
      <trkpt lat="47.02774" lon="8.92577">
        <ele>1023</ele>
        <time>2021-08-03T08:50:31.251Z</time>
      </trkpt>
      <trkpt lat="47.02774" lon="8.92576">
        <ele>1023</ele>
        <time>2021-08-03T08:50:32.250Z</time>
      </trkpt>
      <trkpt lat="47.02774" lon="8.92575">
        <ele>1024</ele>
        <time>2021-08-03T08:50:33.251Z</time>
      </trkpt>
      <trkpt lat="47.02773" lon="8.92574">
        <ele>1024</ele>
        <time>2021-08-03T08:50:34.250Z</time>
      </trkpt>
      <trkpt lat="47.02773" lon="8.92573">
        <ele>1024</ele>
        <time>2021-08-03T08:50:35.251Z</time>
      </trkpt>
      <trkpt lat="47.02773" lon="8.92573">
        <ele>1024</ele>
        <time>2021-08-03T08:50:36.250Z</time>
      </trkpt>
      <trkpt lat="47.02772" lon="8.92573">
        <ele>1024</ele>
        <time>2021-08-03T08:50:37.251Z</time>
      </trkpt>
      <trkpt lat="47.02772" lon="8.92572">
        <ele>1024</ele>
        <time>2021-08-03T08:50:38.251Z</time>
      </trkpt>
      <trkpt lat="47.02772" lon="8.92571">
        <ele>1024</ele>
        <time>2021-08-03T08:50:39.251Z</time>
      </trkpt>
      <trkpt lat="47.02772" lon="8.9257">
        <ele>1024</ele>
        <time>2021-08-03T08:50:40.251Z</time>
      </trkpt>
      <trkpt lat="47.02771" lon="8.9257">
        <ele>1024</ele>
        <time>2021-08-03T08:50:41.250Z</time>
      </trkpt>
      <trkpt lat="47.02771" lon="8.92569">
        <ele>1024</ele>
        <time>2021-08-03T08:50:42.250Z</time>
      </trkpt>
      <trkpt lat="47.02771" lon="8.92568">
        <ele>1024</ele>
        <time>2021-08-03T08:50:43.250Z</time>
      </trkpt>
      <trkpt lat="47.02771" lon="8.92567">
        <ele>1024</ele>
        <time>2021-08-03T08:50:44.250Z</time>
      </trkpt>
      <trkpt lat="47.02771" lon="8.92566">
        <ele>1024</ele>
        <time>2021-08-03T08:50:45.251Z</time>
      </trkpt>
      <trkpt lat="47.02771" lon="8.92566">
        <ele>1024</ele>
        <time>2021-08-03T08:50:46.250Z</time>
      </trkpt>
      <trkpt lat="47.0277" lon="8.92565">
        <ele>1024</ele>
        <time>2021-08-03T08:50:47.250Z</time>
      </trkpt>
      <trkpt lat="47.0277" lon="8.92564">
        <ele>1024</ele>
        <time>2021-08-03T08:50:48.250Z</time>
      </trkpt>
      <trkpt lat="47.02769" lon="8.92563">
        <ele>1024</ele>
        <time>2021-08-03T08:50:49.250Z</time>
      </trkpt>
      <trkpt lat="47.02769" lon="8.92562">
        <ele>1025</ele>
        <time>2021-08-03T08:50:50.250Z</time>
      </trkpt>
      <trkpt lat="47.02769" lon="8.92561">
        <ele>1025</ele>
        <time>2021-08-03T08:50:51.251Z</time>
      </trkpt>
      <trkpt lat="47.02769" lon="8.92561">
        <ele>1024</ele>
        <time>2021-08-03T08:50:52.251Z</time>
      </trkpt>
      <trkpt lat="47.02768" lon="8.9256">
        <ele>1024</ele>
        <time>2021-08-03T08:50:53.251Z</time>
      </trkpt>
      <trkpt lat="47.02768" lon="8.92559">
        <ele>1024</ele>
        <time>2021-08-03T08:50:54.251Z</time>
      </trkpt>
      <trkpt lat="47.02768" lon="8.92558">
        <ele>1024</ele>
        <time>2021-08-03T08:50:55.251Z</time>
      </trkpt>
      <trkpt lat="47.02768" lon="8.92557">
        <ele>1024</ele>
        <time>2021-08-03T08:50:56.251Z</time>
      </trkpt>
      <trkpt lat="47.02768" lon="8.92556">
        <ele>1024</ele>
        <time>2021-08-03T08:50:57.250Z</time>
      </trkpt>
      <trkpt lat="47.02768" lon="8.92555">
        <ele>1024</ele>
        <time>2021-08-03T08:50:58.250Z</time>
      </trkpt>
      <trkpt lat="47.02768" lon="8.92555">
        <ele>1024</ele>
        <time>2021-08-03T08:50:59.250Z</time>
      </trkpt>
      <trkpt lat="47.02768" lon="8.92554">
        <ele>1024</ele>
        <time>2021-08-03T08:51:00.251Z</time>
      </trkpt>
      <trkpt lat="47.02767" lon="8.92553">
        <ele>1024</ele>
        <time>2021-08-03T08:51:01.251Z</time>
      </trkpt>
      <trkpt lat="47.02767" lon="8.92552">
        <ele>1024</ele>
        <time>2021-08-03T08:51:02.251Z</time>
      </trkpt>
      <trkpt lat="47.02766" lon="8.92551">
        <ele>1024</ele>
        <time>2021-08-03T08:51:03.251Z</time>
      </trkpt>
      <trkpt lat="47.02766" lon="8.9255">
        <ele>1023</ele>
        <time>2021-08-03T08:51:04.251Z</time>
      </trkpt>
      <trkpt lat="47.02766" lon="8.92548">
        <ele>1024</ele>
        <time>2021-08-03T08:51:05.250Z</time>
      </trkpt>
      <trkpt lat="47.02766" lon="8.92547">
        <ele>1024</ele>
        <time>2021-08-03T08:51:06.250Z</time>
      </trkpt>
      <trkpt lat="47.02766" lon="8.92546">
        <ele>1024</ele>
        <time>2021-08-03T08:51:07.251Z</time>
      </trkpt>
      <trkpt lat="47.02766" lon="8.92546">
        <ele>1025</ele>
        <time>2021-08-03T08:51:08.251Z</time>
      </trkpt>
      <trkpt lat="47.02766" lon="8.92545">
        <ele>1025</ele>
        <time>2021-08-03T08:51:09.251Z</time>
      </trkpt>
      <trkpt lat="47.02766" lon="8.92544">
        <ele>1026</ele>
        <time>2021-08-03T08:51:10.251Z</time>
      </trkpt>
      <trkpt lat="47.02766" lon="8.92542">
        <ele>1026</ele>
        <time>2021-08-03T08:51:11.251Z</time>
      </trkpt>
      <trkpt lat="47.02766" lon="8.92541">
        <ele>1027</ele>
        <time>2021-08-03T08:51:12.250Z</time>
      </trkpt>
      <trkpt lat="47.02767" lon="8.92541">
        <ele>1027</ele>
        <time>2021-08-03T08:51:13.251Z</time>
      </trkpt>
      <trkpt lat="47.02767" lon="8.9254">
        <ele>1028</ele>
        <time>2021-08-03T08:51:14.251Z</time>
      </trkpt>
      <trkpt lat="47.02767" lon="8.9254">
        <ele>1028</ele>
        <time>2021-08-03T08:51:15.251Z</time>
      </trkpt>
      <trkpt lat="47.02767" lon="8.92539">
        <ele>1028</ele>
        <time>2021-08-03T08:51:16.251Z</time>
      </trkpt>
      <trkpt lat="47.02767" lon="8.92538">
        <ele>1028</ele>
        <time>2021-08-03T08:51:17.251Z</time>
      </trkpt>
      <trkpt lat="47.02768" lon="8.92538">
        <ele>1028</ele>
        <time>2021-08-03T08:51:18.251Z</time>
      </trkpt>
      <trkpt lat="47.02768" lon="8.92537">
        <ele>1028</ele>
        <time>2021-08-03T08:51:19.250Z</time>
      </trkpt>
      <trkpt lat="47.02768" lon="8.92537">
        <ele>1028</ele>
        <time>2021-08-03T08:51:20.250Z</time>
      </trkpt>
      <trkpt lat="47.02768" lon="8.92536">
        <ele>1027</ele>
        <time>2021-08-03T08:51:21.250Z</time>
      </trkpt>
      <trkpt lat="47.02769" lon="8.92536">
        <ele>1027</ele>
        <time>2021-08-03T08:51:22.250Z</time>
      </trkpt>
      <trkpt lat="47.02769" lon="8.92535">
        <ele>1026</ele>
        <time>2021-08-03T08:51:23.251Z</time>
      </trkpt>
      <trkpt lat="47.02769" lon="8.92534">
        <ele>1025</ele>
        <time>2021-08-03T08:51:24.251Z</time>
      </trkpt>
      <trkpt lat="47.0277" lon="8.92534">
        <ele>1025</ele>
        <time>2021-08-03T08:51:25.250Z</time>
      </trkpt>
      <trkpt lat="47.0277" lon="8.92533">
        <ele>1025</ele>
        <time>2021-08-03T08:51:26.251Z</time>
      </trkpt>
      <trkpt lat="47.0277" lon="8.92532">
        <ele>1025</ele>
        <time>2021-08-03T08:51:27.251Z</time>
      </trkpt>
      <trkpt lat="47.02771" lon="8.92532">
        <ele>1025</ele>
        <time>2021-08-03T08:51:28.250Z</time>
      </trkpt>
      <trkpt lat="47.02771" lon="8.92532">
        <ele>1025</ele>
        <time>2021-08-03T08:51:29.251Z</time>
      </trkpt>
      <trkpt lat="47.02777" lon="8.92533">
        <ele>1029</ele>
        <time>2021-08-03T08:51:30.251Z</time>
      </trkpt>
      <trkpt lat="47.02777" lon="8.92534">
        <ele>1029</ele>
        <time>2021-08-03T08:51:31.252Z</time>
      </trkpt>
      <trkpt lat="47.02776" lon="8.92534">
        <ele>1035</ele>
        <time>2021-08-03T08:51:32.252Z</time>
      </trkpt>
      <trkpt lat="47.02776" lon="8.92533">
        <ele>1035</ele>
        <time>2021-08-03T08:51:33.252Z</time>
      </trkpt>
      <trkpt lat="47.02776" lon="8.92532">
        <ele>1035</ele>
        <time>2021-08-03T08:51:34.251Z</time>
      </trkpt>
      <trkpt lat="47.02774" lon="8.92531">
        <ele>1035</ele>
        <time>2021-08-03T08:51:35.251Z</time>
      </trkpt>
      <trkpt lat="47.02773" lon="8.92529">
        <ele>1035</ele>
        <time>2021-08-03T08:51:36.251Z</time>
      </trkpt>
      <trkpt lat="47.02773" lon="8.92528">
        <ele>1034</ele>
        <time>2021-08-03T08:51:37.251Z</time>
      </trkpt>
      <trkpt lat="47.02773" lon="8.92527">
        <ele>1034</ele>
        <time>2021-08-03T08:51:38.251Z</time>
      </trkpt>
      <trkpt lat="47.02772" lon="8.92525">
        <ele>1034</ele>
        <time>2021-08-03T08:51:39.252Z</time>
      </trkpt>
      <trkpt lat="47.02772" lon="8.92524">
        <ele>1034</ele>
        <time>2021-08-03T08:51:40.252Z</time>
      </trkpt>
      <trkpt lat="47.02771" lon="8.92522">
        <ele>1034</ele>
        <time>2021-08-03T08:51:41.252Z</time>
      </trkpt>
      <trkpt lat="47.02771" lon="8.92521">
        <ele>1034</ele>
        <time>2021-08-03T08:51:42.252Z</time>
      </trkpt>
      <trkpt lat="47.02771" lon="8.92519">
        <ele>1034</ele>
        <time>2021-08-03T08:51:43.252Z</time>
      </trkpt>
      <trkpt lat="47.02771" lon="8.92518">
        <ele>1034</ele>
        <time>2021-08-03T08:51:44.252Z</time>
      </trkpt>
      <trkpt lat="47.02771" lon="8.92517">
        <ele>1034</ele>
        <time>2021-08-03T08:51:45.252Z</time>
      </trkpt>
      <trkpt lat="47.02771" lon="8.92515">
        <ele>1035</ele>
        <time>2021-08-03T08:51:46.251Z</time>
      </trkpt>
      <trkpt lat="47.02772" lon="8.92513">
        <ele>1035</ele>
        <time>2021-08-03T08:51:47.252Z</time>
      </trkpt>
      <trkpt lat="47.02771" lon="8.92512">
        <ele>1035</ele>
        <time>2021-08-03T08:51:48.251Z</time>
      </trkpt>
      <trkpt lat="47.02771" lon="8.9251">
        <ele>1035</ele>
        <time>2021-08-03T08:51:49.252Z</time>
      </trkpt>
      <trkpt lat="47.02772" lon="8.92509">
        <ele>1035</ele>
        <time>2021-08-03T08:51:50.252Z</time>
      </trkpt>
      <trkpt lat="47.02772" lon="8.92508">
        <ele>1035</ele>
        <time>2021-08-03T08:51:51.251Z</time>
      </trkpt>
      <trkpt lat="47.02772" lon="8.92507">
        <ele>1035</ele>
        <time>2021-08-03T08:51:52.252Z</time>
      </trkpt>
      <trkpt lat="47.02772" lon="8.92505">
        <ele>1036</ele>
        <time>2021-08-03T08:51:53.252Z</time>
      </trkpt>
      <trkpt lat="47.02772" lon="8.92504">
        <ele>1036</ele>
        <time>2021-08-03T08:51:54.251Z</time>
      </trkpt>
      <trkpt lat="47.02772" lon="8.92503">
        <ele>1037</ele>
        <time>2021-08-03T08:51:55.252Z</time>
      </trkpt>
      <trkpt lat="47.02772" lon="8.92503">
        <ele>1037</ele>
        <time>2021-08-03T08:51:56.251Z</time>
      </trkpt>
      <trkpt lat="47.02772" lon="8.92502">
        <ele>1037</ele>
        <time>2021-08-03T08:51:57.252Z</time>
      </trkpt>
      <trkpt lat="47.02772" lon="8.92501">
        <ele>1037</ele>
        <time>2021-08-03T08:51:58.252Z</time>
      </trkpt>
      <trkpt lat="47.02773" lon="8.925">
        <ele>1037</ele>
        <time>2021-08-03T08:51:59.251Z</time>
      </trkpt>
      <trkpt lat="47.02773" lon="8.92499">
        <ele>1037</ele>
        <time>2021-08-03T08:52:00.252Z</time>
      </trkpt>
      <trkpt lat="47.02773" lon="8.92498">
        <ele>1037</ele>
        <time>2021-08-03T08:52:01.252Z</time>
      </trkpt>
      <trkpt lat="47.02773" lon="8.92497">
        <ele>1037</ele>
        <time>2021-08-03T08:52:02.251Z</time>
      </trkpt>
      <trkpt lat="47.02774" lon="8.92496">
        <ele>1037</ele>
        <time>2021-08-03T08:52:03.251Z</time>
      </trkpt>
      <trkpt lat="47.02775" lon="8.92494">
        <ele>1037</ele>
        <time>2021-08-03T08:52:04.252Z</time>
      </trkpt>
      <trkpt lat="47.02775" lon="8.92493">
        <ele>1037</ele>
        <time>2021-08-03T08:52:05.251Z</time>
      </trkpt>
      <trkpt lat="47.02775" lon="8.92492">
        <ele>1037</ele>
        <time>2021-08-03T08:52:06.252Z</time>
      </trkpt>
      <trkpt lat="47.02776" lon="8.92491">
        <ele>1036</ele>
        <time>2021-08-03T08:52:07.252Z</time>
      </trkpt>
      <trkpt lat="47.02776" lon="8.9249">
        <ele>1036</ele>
        <time>2021-08-03T08:52:08.251Z</time>
      </trkpt>
      <trkpt lat="47.02777" lon="8.92489">
        <ele>1035</ele>
        <time>2021-08-03T08:52:09.252Z</time>
      </trkpt>
      <trkpt lat="47.02777" lon="8.92489">
        <ele>1035</ele>
        <time>2021-08-03T08:52:10.252Z</time>
      </trkpt>
      <trkpt lat="47.02777" lon="8.92488">
        <ele>1035</ele>
        <time>2021-08-03T08:52:11.252Z</time>
      </trkpt>
      <trkpt lat="47.02775" lon="8.92494">
        <ele>1033</ele>
        <time>2021-08-03T08:52:12.253Z</time>
      </trkpt>
      <trkpt lat="47.02775" lon="8.92493">
        <ele>1033</ele>
        <time>2021-08-03T08:52:13.255Z</time>
      </trkpt>
      <trkpt lat="47.02775" lon="8.92492">
        <ele>1033</ele>
        <time>2021-08-03T08:52:14.254Z</time>
      </trkpt>
      <trkpt lat="47.02776" lon="8.92492">
        <ele>1033</ele>
        <time>2021-08-03T08:52:15.254Z</time>
      </trkpt>
      <trkpt lat="47.02777" lon="8.9249">
        <ele>1034</ele>
        <time>2021-08-03T08:52:16.255Z</time>
      </trkpt>
      <trkpt lat="47.02781" lon="8.92486">
        <ele>1034</ele>
        <time>2021-08-03T08:52:17.256Z</time>
      </trkpt>
      <trkpt lat="47.02781" lon="8.92486">
        <ele>1034</ele>
        <time>2021-08-03T08:52:18.255Z</time>
      </trkpt>
      <trkpt lat="47.02781" lon="8.92487">
        <ele>1033</ele>
        <time>2021-08-03T08:52:19.255Z</time>
      </trkpt>
      <trkpt lat="47.02782" lon="8.92488">
        <ele>1033</ele>
        <time>2021-08-03T08:52:20.255Z</time>
      </trkpt>
      <trkpt lat="47.02782" lon="8.92489">
        <ele>1032</ele>
        <time>2021-08-03T08:52:21.255Z</time>
      </trkpt>
      <trkpt lat="47.02782" lon="8.9249">
        <ele>1031</ele>
        <time>2021-08-03T08:52:22.256Z</time>
      </trkpt>
      <trkpt lat="47.02783" lon="8.92492">
        <ele>1031</ele>
        <time>2021-08-03T08:52:23.256Z</time>
      </trkpt>
      <trkpt lat="47.02783" lon="8.92494">
        <ele>1030</ele>
        <time>2021-08-03T08:52:24.256Z</time>
      </trkpt>
      <trkpt lat="47.02783" lon="8.92495">
        <ele>1030</ele>
        <time>2021-08-03T08:52:25.255Z</time>
      </trkpt>
      <trkpt lat="47.02784" lon="8.92496">
        <ele>1030</ele>
        <time>2021-08-03T08:52:26.256Z</time>
      </trkpt>
      <trkpt lat="47.02784" lon="8.92497">
        <ele>1029</ele>
        <time>2021-08-03T08:52:27.256Z</time>
      </trkpt>
      <trkpt lat="47.02785" lon="8.92499">
        <ele>1029</ele>
        <time>2021-08-03T08:52:28.255Z</time>
      </trkpt>
      <trkpt lat="47.02785" lon="8.925">
        <ele>1028</ele>
        <time>2021-08-03T08:52:29.256Z</time>
      </trkpt>
      <trkpt lat="47.02786" lon="8.92501">
        <ele>1028</ele>
        <time>2021-08-03T08:52:30.256Z</time>
      </trkpt>
      <trkpt lat="47.02787" lon="8.92502">
        <ele>1028</ele>
        <time>2021-08-03T08:52:31.256Z</time>
      </trkpt>
      <trkpt lat="47.02788" lon="8.92504">
        <ele>1028</ele>
        <time>2021-08-03T08:52:32.256Z</time>
      </trkpt>
      <trkpt lat="47.02788" lon="8.92505">
        <ele>1028</ele>
        <time>2021-08-03T08:52:33.256Z</time>
      </trkpt>
      <trkpt lat="47.02789" lon="8.92505">
        <ele>1028</ele>
        <time>2021-08-03T08:52:34.256Z</time>
      </trkpt>
      <trkpt lat="47.02789" lon="8.92506">
        <ele>1028</ele>
        <time>2021-08-03T08:52:35.256Z</time>
      </trkpt>
      <trkpt lat="47.02789" lon="8.92505">
        <ele>1028</ele>
        <time>2021-08-03T08:52:36.255Z</time>
      </trkpt>
      <trkpt lat="47.02789" lon="8.92501">
        <ele>1031</ele>
        <time>2021-08-03T08:52:37.257Z</time>
      </trkpt>
      <trkpt lat="47.02789" lon="8.92501">
        <ele>1032</ele>
        <time>2021-08-03T08:52:38.256Z</time>
      </trkpt>
      <trkpt lat="47.02789" lon="8.92501">
        <ele>1033</ele>
        <time>2021-08-03T08:52:39.256Z</time>
      </trkpt>
      <trkpt lat="47.02789" lon="8.92501">
        <ele>1033</ele>
        <time>2021-08-03T08:52:40.257Z</time>
      </trkpt>
      <trkpt lat="47.02789" lon="8.925">
        <ele>1034</ele>
        <time>2021-08-03T08:52:41.257Z</time>
      </trkpt>
      <trkpt lat="47.02786" lon="8.92503">
        <ele>1034</ele>
        <time>2021-08-03T08:52:42.258Z</time>
      </trkpt>
      <trkpt lat="47.02786" lon="8.92502">
        <ele>1034</ele>
        <time>2021-08-03T08:52:43.258Z</time>
      </trkpt>
      <trkpt lat="47.02786" lon="8.92502">
        <ele>1035</ele>
        <time>2021-08-03T08:52:44.258Z</time>
      </trkpt>
      <trkpt lat="47.02786" lon="8.92502">
        <ele>1035</ele>
        <time>2021-08-03T08:52:45.257Z</time>
      </trkpt>
      <trkpt lat="47.02786" lon="8.92503">
        <ele>1036</ele>
        <time>2021-08-03T08:52:46.257Z</time>
      </trkpt>
      <trkpt lat="47.02786" lon="8.92503">
        <ele>1037</ele>
        <time>2021-08-03T08:52:47.257Z</time>
      </trkpt>
      <trkpt lat="47.02786" lon="8.92501">
        <ele>1041</ele>
        <time>2021-08-03T08:52:48.259Z</time>
      </trkpt>
      <trkpt lat="47.02786" lon="8.92502">
        <ele>1041</ele>
        <time>2021-08-03T08:52:49.259Z</time>
      </trkpt>
      <trkpt lat="47.02786" lon="8.92503">
        <ele>1041</ele>
        <time>2021-08-03T08:52:50.259Z</time>
      </trkpt>
      <trkpt lat="47.02786" lon="8.92505">
        <ele>1041</ele>
        <time>2021-08-03T08:52:51.259Z</time>
      </trkpt>
      <trkpt lat="47.02786" lon="8.92507">
        <ele>1040</ele>
        <time>2021-08-03T08:52:52.259Z</time>
      </trkpt>
      <trkpt lat="47.02786" lon="8.92509">
        <ele>1040</ele>
        <time>2021-08-03T08:52:53.259Z</time>
      </trkpt>
      <trkpt lat="47.02786" lon="8.9251">
        <ele>1039</ele>
        <time>2021-08-03T08:52:54.258Z</time>
      </trkpt>
      <trkpt lat="47.02787" lon="8.9251">
        <ele>1039</ele>
        <time>2021-08-03T08:52:55.259Z</time>
      </trkpt>
      <trkpt lat="47.02788" lon="8.92511">
        <ele>1038</ele>
        <time>2021-08-03T08:52:56.259Z</time>
      </trkpt>
      <trkpt lat="47.02788" lon="8.92511">
        <ele>1038</ele>
        <time>2021-08-03T08:52:57.258Z</time>
      </trkpt>
      <trkpt lat="47.02788" lon="8.92513">
        <ele>1037</ele>
        <time>2021-08-03T08:52:58.258Z</time>
      </trkpt>
      <trkpt lat="47.02788" lon="8.92515">
        <ele>1037</ele>
        <time>2021-08-03T08:52:59.258Z</time>
      </trkpt>
      <trkpt lat="47.02788" lon="8.92516">
        <ele>1037</ele>
        <time>2021-08-03T08:53:00.259Z</time>
      </trkpt>
      <trkpt lat="47.02788" lon="8.92518">
        <ele>1036</ele>
        <time>2021-08-03T08:53:01.259Z</time>
      </trkpt>
      <trkpt lat="47.02788" lon="8.92519">
        <ele>1036</ele>
        <time>2021-08-03T08:53:02.258Z</time>
      </trkpt>
      <trkpt lat="47.02788" lon="8.9252">
        <ele>1035</ele>
        <time>2021-08-03T08:53:03.258Z</time>
      </trkpt>
      <trkpt lat="47.02789" lon="8.92521">
        <ele>1035</ele>
        <time>2021-08-03T08:53:04.258Z</time>
      </trkpt>
      <trkpt lat="47.02789" lon="8.92523">
        <ele>1035</ele>
        <time>2021-08-03T08:53:05.259Z</time>
      </trkpt>
      <trkpt lat="47.02789" lon="8.92524">
        <ele>1034</ele>
        <time>2021-08-03T08:53:06.259Z</time>
      </trkpt>
      <trkpt lat="47.0279" lon="8.92525">
        <ele>1034</ele>
        <time>2021-08-03T08:53:07.258Z</time>
      </trkpt>
      <trkpt lat="47.0279" lon="8.92526">
        <ele>1034</ele>
        <time>2021-08-03T08:53:08.259Z</time>
      </trkpt>
      <trkpt lat="47.0279" lon="8.92527">
        <ele>1034</ele>
        <time>2021-08-03T08:53:09.259Z</time>
      </trkpt>
      <trkpt lat="47.02791" lon="8.92529">
        <ele>1034</ele>
        <time>2021-08-03T08:53:10.259Z</time>
      </trkpt>
      <trkpt lat="47.02792" lon="8.9253">
        <ele>1034</ele>
        <time>2021-08-03T08:53:11.259Z</time>
      </trkpt>
      <trkpt lat="47.02792" lon="8.9253">
        <ele>1034</ele>
        <time>2021-08-03T08:53:12.259Z</time>
      </trkpt>
      <trkpt lat="47.02793" lon="8.92531">
        <ele>1033</ele>
        <time>2021-08-03T08:53:13.258Z</time>
      </trkpt>
      <trkpt lat="47.02793" lon="8.92532">
        <ele>1033</ele>
        <time>2021-08-03T08:53:14.258Z</time>
      </trkpt>
      <trkpt lat="47.02793" lon="8.92533">
        <ele>1033</ele>
        <time>2021-08-03T08:53:15.259Z</time>
      </trkpt>
      <trkpt lat="47.02794" lon="8.92534">
        <ele>1033</ele>
        <time>2021-08-03T08:53:16.259Z</time>
      </trkpt>
      <trkpt lat="47.02795" lon="8.92534">
        <ele>1034</ele>
        <time>2021-08-03T08:53:17.259Z</time>
      </trkpt>
      <trkpt lat="47.02795" lon="8.92534">
        <ele>1034</ele>
        <time>2021-08-03T08:53:18.259Z</time>
      </trkpt>
      <trkpt lat="47.02795" lon="8.92535">
        <ele>1034</ele>
        <time>2021-08-03T08:53:19.259Z</time>
      </trkpt>
      <trkpt lat="47.02796" lon="8.92536">
        <ele>1034</ele>
        <time>2021-08-03T08:53:20.259Z</time>
      </trkpt>
      <trkpt lat="47.02796" lon="8.92537">
        <ele>1034</ele>
        <time>2021-08-03T08:53:21.259Z</time>
      </trkpt>
      <trkpt lat="47.02797" lon="8.92538">
        <ele>1034</ele>
        <time>2021-08-03T08:53:22.259Z</time>
      </trkpt>
      <trkpt lat="47.02797" lon="8.92538">
        <ele>1034</ele>
        <time>2021-08-03T08:53:23.259Z</time>
      </trkpt>
      <trkpt lat="47.02798" lon="8.92539">
        <ele>1034</ele>
        <time>2021-08-03T08:53:24.258Z</time>
      </trkpt>
      <trkpt lat="47.02798" lon="8.92539">
        <ele>1034</ele>
        <time>2021-08-03T08:53:25.258Z</time>
      </trkpt>
      <trkpt lat="47.02798" lon="8.9254">
        <ele>1034</ele>
        <time>2021-08-03T08:53:26.259Z</time>
      </trkpt>
      <trkpt lat="47.02799" lon="8.92541">
        <ele>1034</ele>
        <time>2021-08-03T08:53:27.258Z</time>
      </trkpt>
      <trkpt lat="47.028" lon="8.92543">
        <ele>1034</ele>
        <time>2021-08-03T08:53:28.259Z</time>
      </trkpt>
      <trkpt lat="47.028" lon="8.92544">
        <ele>1034</ele>
        <time>2021-08-03T08:53:29.258Z</time>
      </trkpt>
      <trkpt lat="47.02801" lon="8.92545">
        <ele>1035</ele>
        <time>2021-08-03T08:53:30.258Z</time>
      </trkpt>
      <trkpt lat="47.02802" lon="8.92546">
        <ele>1035</ele>
        <time>2021-08-03T08:53:31.258Z</time>
      </trkpt>
      <trkpt lat="47.02803" lon="8.92546">
        <ele>1035</ele>
        <time>2021-08-03T08:53:32.258Z</time>
      </trkpt>
      <trkpt lat="47.02804" lon="8.92547">
        <ele>1035</ele>
        <time>2021-08-03T08:53:33.258Z</time>
      </trkpt>
      <trkpt lat="47.02805" lon="8.92548">
        <ele>1036</ele>
        <time>2021-08-03T08:53:34.259Z</time>
      </trkpt>
      <trkpt lat="47.02806" lon="8.92549">
        <ele>1036</ele>
        <time>2021-08-03T08:53:35.258Z</time>
      </trkpt>
      <trkpt lat="47.02806" lon="8.92549">
        <ele>1036</ele>
        <time>2021-08-03T08:53:36.259Z</time>
      </trkpt>
      <trkpt lat="47.02807" lon="8.92551">
        <ele>1036</ele>
        <time>2021-08-03T08:53:37.258Z</time>
      </trkpt>
      <trkpt lat="47.02808" lon="8.92552">
        <ele>1036</ele>
        <time>2021-08-03T08:53:38.258Z</time>
      </trkpt>
      <trkpt lat="47.02808" lon="8.92553">
        <ele>1036</ele>
        <time>2021-08-03T08:53:39.259Z</time>
      </trkpt>
      <trkpt lat="47.02809" lon="8.92554">
        <ele>1036</ele>
        <time>2021-08-03T08:53:40.258Z</time>
      </trkpt>
      <trkpt lat="47.02809" lon="8.92555">
        <ele>1036</ele>
        <time>2021-08-03T08:53:41.258Z</time>
      </trkpt>
      <trkpt lat="47.0281" lon="8.92556">
        <ele>1036</ele>
        <time>2021-08-03T08:53:42.258Z</time>
      </trkpt>
      <trkpt lat="47.02811" lon="8.92557">
        <ele>1035</ele>
        <time>2021-08-03T08:53:43.259Z</time>
      </trkpt>
      <trkpt lat="47.02812" lon="8.92558">
        <ele>1035</ele>
        <time>2021-08-03T08:53:44.258Z</time>
      </trkpt>
      <trkpt lat="47.02812" lon="8.92559">
        <ele>1034</ele>
        <time>2021-08-03T08:53:45.259Z</time>
      </trkpt>
      <trkpt lat="47.02813" lon="8.9256">
        <ele>1035</ele>
        <time>2021-08-03T08:53:46.258Z</time>
      </trkpt>
      <trkpt lat="47.02813" lon="8.92561">
        <ele>1035</ele>
        <time>2021-08-03T08:53:47.258Z</time>
      </trkpt>
      <trkpt lat="47.02813" lon="8.92563">
        <ele>1035</ele>
        <time>2021-08-03T08:53:48.259Z</time>
      </trkpt>
      <trkpt lat="47.02814" lon="8.92564">
        <ele>1035</ele>
        <time>2021-08-03T08:53:49.258Z</time>
      </trkpt>
      <trkpt lat="47.02815" lon="8.92565">
        <ele>1035</ele>
        <time>2021-08-03T08:53:50.258Z</time>
      </trkpt>
      <trkpt lat="47.02816" lon="8.92566">
        <ele>1034</ele>
        <time>2021-08-03T08:53:51.258Z</time>
      </trkpt>
      <trkpt lat="47.02816" lon="8.92567">
        <ele>1034</ele>
        <time>2021-08-03T08:53:52.259Z</time>
      </trkpt>
      <trkpt lat="47.02817" lon="8.92568">
        <ele>1034</ele>
        <time>2021-08-03T08:53:53.259Z</time>
      </trkpt>
      <trkpt lat="47.02818" lon="8.92569">
        <ele>1034</ele>
        <time>2021-08-03T08:53:54.258Z</time>
      </trkpt>
      <trkpt lat="47.02818" lon="8.92569">
        <ele>1035</ele>
        <time>2021-08-03T08:53:55.258Z</time>
      </trkpt>
      <trkpt lat="47.02819" lon="8.9257">
        <ele>1035</ele>
        <time>2021-08-03T08:53:56.258Z</time>
      </trkpt>
      <trkpt lat="47.0282" lon="8.92571">
        <ele>1035</ele>
        <time>2021-08-03T08:53:57.258Z</time>
      </trkpt>
      <trkpt lat="47.0282" lon="8.92571">
        <ele>1035</ele>
        <time>2021-08-03T08:53:58.258Z</time>
      </trkpt>
      <trkpt lat="47.02821" lon="8.92572">
        <ele>1035</ele>
        <time>2021-08-03T08:53:59.258Z</time>
      </trkpt>
      <trkpt lat="47.02822" lon="8.92572">
        <ele>1035</ele>
        <time>2021-08-03T08:54:00.258Z</time>
      </trkpt>
      <trkpt lat="47.02822" lon="8.92573">
        <ele>1035</ele>
        <time>2021-08-03T08:54:01.258Z</time>
      </trkpt>
      <trkpt lat="47.02823" lon="8.92573">
        <ele>1036</ele>
        <time>2021-08-03T08:54:02.258Z</time>
      </trkpt>
      <trkpt lat="47.02824" lon="8.92574">
        <ele>1036</ele>
        <time>2021-08-03T08:54:03.258Z</time>
      </trkpt>
      <trkpt lat="47.02825" lon="8.92575">
        <ele>1036</ele>
        <time>2021-08-03T08:54:04.258Z</time>
      </trkpt>
      <trkpt lat="47.02825" lon="8.92575">
        <ele>1036</ele>
        <time>2021-08-03T08:54:05.258Z</time>
      </trkpt>
      <trkpt lat="47.02826" lon="8.92575">
        <ele>1037</ele>
        <time>2021-08-03T08:54:06.258Z</time>
      </trkpt>
      <trkpt lat="47.02827" lon="8.92575">
        <ele>1038</ele>
        <time>2021-08-03T08:54:07.259Z</time>
      </trkpt>
      <trkpt lat="47.02828" lon="8.92575">
        <ele>1038</ele>
        <time>2021-08-03T08:54:08.259Z</time>
      </trkpt>
      <trkpt lat="47.02829" lon="8.92575">
        <ele>1038</ele>
        <time>2021-08-03T08:54:09.259Z</time>
      </trkpt>
      <trkpt lat="47.0283" lon="8.92574">
        <ele>1038</ele>
        <time>2021-08-03T08:54:10.258Z</time>
      </trkpt>
      <trkpt lat="47.02831" lon="8.92573">
        <ele>1038</ele>
        <time>2021-08-03T08:54:11.259Z</time>
      </trkpt>
      <trkpt lat="47.02832" lon="8.92573">
        <ele>1038</ele>
        <time>2021-08-03T08:54:12.259Z</time>
      </trkpt>
      <trkpt lat="47.02833" lon="8.92572">
        <ele>1038</ele>
        <time>2021-08-03T08:54:13.258Z</time>
      </trkpt>
      <trkpt lat="47.02833" lon="8.92571">
        <ele>1038</ele>
        <time>2021-08-03T08:54:14.259Z</time>
      </trkpt>
      <trkpt lat="47.02833" lon="8.92569">
        <ele>1039</ele>
        <time>2021-08-03T08:54:15.259Z</time>
      </trkpt>
      <trkpt lat="47.02834" lon="8.92568">
        <ele>1039</ele>
        <time>2021-08-03T08:54:16.258Z</time>
      </trkpt>
      <trkpt lat="47.02834" lon="8.92567">
        <ele>1039</ele>
        <time>2021-08-03T08:54:17.258Z</time>
      </trkpt>
      <trkpt lat="47.02835" lon="8.92565">
        <ele>1040</ele>
        <time>2021-08-03T08:54:18.259Z</time>
      </trkpt>
      <trkpt lat="47.02836" lon="8.92564">
        <ele>1040</ele>
        <time>2021-08-03T08:54:19.258Z</time>
      </trkpt>
      <trkpt lat="47.02836" lon="8.92563">
        <ele>1041</ele>
        <time>2021-08-03T08:54:20.258Z</time>
      </trkpt>
      <trkpt lat="47.02836" lon="8.92561">
        <ele>1041</ele>
        <time>2021-08-03T08:54:21.259Z</time>
      </trkpt>
      <trkpt lat="47.02835" lon="8.92559">
        <ele>1041</ele>
        <time>2021-08-03T08:54:22.259Z</time>
      </trkpt>
      <trkpt lat="47.02836" lon="8.92557">
        <ele>1041</ele>
        <time>2021-08-03T08:54:23.259Z</time>
      </trkpt>
      <trkpt lat="47.02835" lon="8.92555">
        <ele>1042</ele>
        <time>2021-08-03T08:54:24.259Z</time>
      </trkpt>
      <trkpt lat="47.02835" lon="8.92553">
        <ele>1042</ele>
        <time>2021-08-03T08:54:25.259Z</time>
      </trkpt>
      <trkpt lat="47.02835" lon="8.92551">
        <ele>1043</ele>
        <time>2021-08-03T08:54:26.259Z</time>
      </trkpt>
      <trkpt lat="47.02834" lon="8.92549">
        <ele>1043</ele>
        <time>2021-08-03T08:54:27.258Z</time>
      </trkpt>
      <trkpt lat="47.02834" lon="8.92547">
        <ele>1043</ele>
        <time>2021-08-03T08:54:28.259Z</time>
      </trkpt>
      <trkpt lat="47.02835" lon="8.92546">
        <ele>1044</ele>
        <time>2021-08-03T08:54:29.259Z</time>
      </trkpt>
      <trkpt lat="47.02834" lon="8.92545">
        <ele>1044</ele>
        <time>2021-08-03T08:54:30.258Z</time>
      </trkpt>
      <trkpt lat="47.02834" lon="8.92544">
        <ele>1045</ele>
        <time>2021-08-03T08:54:31.258Z</time>
      </trkpt>
      <trkpt lat="47.02833" lon="8.92544">
        <ele>1046</ele>
        <time>2021-08-03T08:54:32.258Z</time>
      </trkpt>
      <trkpt lat="47.02833" lon="8.92544">
        <ele>1046</ele>
        <time>2021-08-03T08:54:33.258Z</time>
      </trkpt>
      <trkpt lat="47.02832" lon="8.92544">
        <ele>1046</ele>
        <time>2021-08-03T08:54:34.258Z</time>
      </trkpt>
      <trkpt lat="47.02832" lon="8.92544">
        <ele>1044</ele>
        <time>2021-08-03T08:54:35.258Z</time>
      </trkpt>
      <trkpt lat="47.02832" lon="8.92544">
        <ele>1044</ele>
        <time>2021-08-03T08:54:36.258Z</time>
      </trkpt>
      <trkpt lat="47.02832" lon="8.92543">
        <ele>1044</ele>
        <time>2021-08-03T08:54:37.258Z</time>
      </trkpt>
      <trkpt lat="47.02832" lon="8.92542">
        <ele>1044</ele>
        <time>2021-08-03T08:54:38.259Z</time>
      </trkpt>
      <trkpt lat="47.02832" lon="8.9254">
        <ele>1044</ele>
        <time>2021-08-03T08:54:39.258Z</time>
      </trkpt>
      <trkpt lat="47.02832" lon="8.92539">
        <ele>1044</ele>
        <time>2021-08-03T08:54:40.259Z</time>
      </trkpt>
      <trkpt lat="47.02832" lon="8.92539">
        <ele>1044</ele>
        <time>2021-08-03T08:54:41.259Z</time>
      </trkpt>
      <trkpt lat="47.02832" lon="8.92538">
        <ele>1044</ele>
        <time>2021-08-03T08:54:42.258Z</time>
      </trkpt>
      <trkpt lat="47.02831" lon="8.92538">
        <ele>1044</ele>
        <time>2021-08-03T08:54:43.259Z</time>
      </trkpt>
      <trkpt lat="47.02831" lon="8.92537">
        <ele>1043</ele>
        <time>2021-08-03T08:54:44.259Z</time>
      </trkpt>
      <trkpt lat="47.02831" lon="8.92536">
        <ele>1043</ele>
        <time>2021-08-03T08:54:45.259Z</time>
      </trkpt>
      <trkpt lat="47.02831" lon="8.92535">
        <ele>1043</ele>
        <time>2021-08-03T08:54:46.259Z</time>
      </trkpt>
      <trkpt lat="47.0283" lon="8.92534">
        <ele>1043</ele>
        <time>2021-08-03T08:54:47.258Z</time>
      </trkpt>
      <trkpt lat="47.0283" lon="8.92533">
        <ele>1043</ele>
        <time>2021-08-03T08:54:48.259Z</time>
      </trkpt>
      <trkpt lat="47.0283" lon="8.92532">
        <ele>1043</ele>
        <time>2021-08-03T08:54:49.259Z</time>
      </trkpt>
      <trkpt lat="47.02829" lon="8.92531">
        <ele>1044</ele>
        <time>2021-08-03T08:54:50.259Z</time>
      </trkpt>
      <trkpt lat="47.0283" lon="8.92529">
        <ele>1044</ele>
        <time>2021-08-03T08:54:51.258Z</time>
      </trkpt>
      <trkpt lat="47.0283" lon="8.92528">
        <ele>1045</ele>
        <time>2021-08-03T08:54:52.259Z</time>
      </trkpt>
      <trkpt lat="47.0283" lon="8.92526">
        <ele>1045</ele>
        <time>2021-08-03T08:54:53.259Z</time>
      </trkpt>
      <trkpt lat="47.02831" lon="8.92525">
        <ele>1045</ele>
        <time>2021-08-03T08:54:54.259Z</time>
      </trkpt>
      <trkpt lat="47.0283" lon="8.92523">
        <ele>1045</ele>
        <time>2021-08-03T08:54:55.259Z</time>
      </trkpt>
      <trkpt lat="47.02829" lon="8.92522">
        <ele>1045</ele>
        <time>2021-08-03T08:54:56.259Z</time>
      </trkpt>
      <trkpt lat="47.02829" lon="8.9252">
        <ele>1044</ele>
        <time>2021-08-03T08:54:57.259Z</time>
      </trkpt>
      <trkpt lat="47.02829" lon="8.92519">
        <ele>1044</ele>
        <time>2021-08-03T08:54:58.259Z</time>
      </trkpt>
      <trkpt lat="47.02829" lon="8.92518">
        <ele>1044</ele>
        <time>2021-08-03T08:54:59.259Z</time>
      </trkpt>
      <trkpt lat="47.02829" lon="8.92518">
        <ele>1044</ele>
        <time>2021-08-03T08:55:00.259Z</time>
      </trkpt>
      <trkpt lat="47.02829" lon="8.92517">
        <ele>1044</ele>
        <time>2021-08-03T08:55:01.258Z</time>
      </trkpt>
      <trkpt lat="47.02829" lon="8.92515">
        <ele>1044</ele>
        <time>2021-08-03T08:55:02.259Z</time>
      </trkpt>
      <trkpt lat="47.02829" lon="8.92514">
        <ele>1044</ele>
        <time>2021-08-03T08:55:03.258Z</time>
      </trkpt>
      <trkpt lat="47.02829" lon="8.92513">
        <ele>1044</ele>
        <time>2021-08-03T08:55:04.258Z</time>
      </trkpt>
      <trkpt lat="47.02829" lon="8.92512">
        <ele>1044</ele>
        <time>2021-08-03T08:55:05.259Z</time>
      </trkpt>
      <trkpt lat="47.02829" lon="8.92511">
        <ele>1044</ele>
        <time>2021-08-03T08:55:06.258Z</time>
      </trkpt>
      <trkpt lat="47.02828" lon="8.92511">
        <ele>1045</ele>
        <time>2021-08-03T08:55:07.258Z</time>
      </trkpt>
      <trkpt lat="47.02828" lon="8.9251">
        <ele>1045</ele>
        <time>2021-08-03T08:55:08.258Z</time>
      </trkpt>
      <trkpt lat="47.02827" lon="8.92509">
        <ele>1045</ele>
        <time>2021-08-03T08:55:09.258Z</time>
      </trkpt>
      <trkpt lat="47.02827" lon="8.92507">
        <ele>1045</ele>
        <time>2021-08-03T08:55:10.259Z</time>
      </trkpt>
      <trkpt lat="47.02827" lon="8.92505">
        <ele>1046</ele>
        <time>2021-08-03T08:55:11.259Z</time>
      </trkpt>
      <trkpt lat="47.02827" lon="8.92504">
        <ele>1046</ele>
        <time>2021-08-03T08:55:12.258Z</time>
      </trkpt>
      <trkpt lat="47.02827" lon="8.92502">
        <ele>1046</ele>
        <time>2021-08-03T08:55:13.259Z</time>
      </trkpt>
      <trkpt lat="47.02827" lon="8.925">
        <ele>1046</ele>
        <time>2021-08-03T08:55:14.259Z</time>
      </trkpt>
      <trkpt lat="47.02827" lon="8.92499">
        <ele>1046</ele>
        <time>2021-08-03T08:55:15.259Z</time>
      </trkpt>
      <trkpt lat="47.02827" lon="8.92497">
        <ele>1046</ele>
        <time>2021-08-03T08:55:16.259Z</time>
      </trkpt>
      <trkpt lat="47.02828" lon="8.92495">
        <ele>1046</ele>
        <time>2021-08-03T08:55:17.259Z</time>
      </trkpt>
      <trkpt lat="47.02828" lon="8.92494">
        <ele>1047</ele>
        <time>2021-08-03T08:55:18.259Z</time>
      </trkpt>
      <trkpt lat="47.02828" lon="8.92493">
        <ele>1047</ele>
        <time>2021-08-03T08:55:19.259Z</time>
      </trkpt>
      <trkpt lat="47.02828" lon="8.92491">
        <ele>1048</ele>
        <time>2021-08-03T08:55:20.259Z</time>
      </trkpt>
      <trkpt lat="47.02828" lon="8.9249">
        <ele>1048</ele>
        <time>2021-08-03T08:55:21.259Z</time>
      </trkpt>
      <trkpt lat="47.02827" lon="8.92489">
        <ele>1048</ele>
        <time>2021-08-03T08:55:22.259Z</time>
      </trkpt>
      <trkpt lat="47.02827" lon="8.92489">
        <ele>1049</ele>
        <time>2021-08-03T08:55:23.259Z</time>
      </trkpt>
      <trkpt lat="47.02826" lon="8.92488">
        <ele>1049</ele>
        <time>2021-08-03T08:55:24.259Z</time>
      </trkpt>
      <trkpt lat="47.02826" lon="8.92486">
        <ele>1050</ele>
        <time>2021-08-03T08:55:25.258Z</time>
      </trkpt>
      <trkpt lat="47.02826" lon="8.92485">
        <ele>1050</ele>
        <time>2021-08-03T08:55:26.258Z</time>
      </trkpt>
      <trkpt lat="47.02826" lon="8.92485">
        <ele>1050</ele>
        <time>2021-08-03T08:55:27.258Z</time>
      </trkpt>
      <trkpt lat="47.02826" lon="8.92484">
        <ele>1049</ele>
        <time>2021-08-03T08:55:28.258Z</time>
      </trkpt>
      <trkpt lat="47.02826" lon="8.92483">
        <ele>1049</ele>
        <time>2021-08-03T08:55:29.258Z</time>
      </trkpt>
      <trkpt lat="47.02825" lon="8.92482">
        <ele>1049</ele>
        <time>2021-08-03T08:55:30.259Z</time>
      </trkpt>
      <trkpt lat="47.02825" lon="8.92481">
        <ele>1049</ele>
        <time>2021-08-03T08:55:31.258Z</time>
      </trkpt>
      <trkpt lat="47.02825" lon="8.9248">
        <ele>1048</ele>
        <time>2021-08-03T08:55:32.258Z</time>
      </trkpt>
      <trkpt lat="47.02826" lon="8.92479">
        <ele>1048</ele>
        <time>2021-08-03T08:55:33.259Z</time>
      </trkpt>
      <trkpt lat="47.02826" lon="8.92478">
        <ele>1049</ele>
        <time>2021-08-03T08:55:34.258Z</time>
      </trkpt>
      <trkpt lat="47.02826" lon="8.92478">
        <ele>1049</ele>
        <time>2021-08-03T08:55:35.258Z</time>
      </trkpt>
      <trkpt lat="47.02826" lon="8.92477">
        <ele>1049</ele>
        <time>2021-08-03T08:55:36.259Z</time>
      </trkpt>
      <trkpt lat="47.02825" lon="8.92477">
        <ele>1049</ele>
        <time>2021-08-03T08:55:37.258Z</time>
      </trkpt>
      <trkpt lat="47.02825" lon="8.92477">
        <ele>1049</ele>
        <time>2021-08-03T08:55:38.258Z</time>
      </trkpt>
      <trkpt lat="47.02828" lon="8.9248">
        <ele>1051</ele>
        <time>2021-08-03T08:55:39.259Z</time>
      </trkpt>
      <trkpt lat="47.02829" lon="8.9248">
        <ele>1051</ele>
        <time>2021-08-03T08:55:40.259Z</time>
      </trkpt>
      <trkpt lat="47.02828" lon="8.92479">
        <ele>1051</ele>
        <time>2021-08-03T08:55:41.259Z</time>
      </trkpt>
      <trkpt lat="47.02828" lon="8.92478">
        <ele>1051</ele>
        <time>2021-08-03T08:55:42.260Z</time>
      </trkpt>
      <trkpt lat="47.02827" lon="8.92477">
        <ele>1051</ele>
        <time>2021-08-03T08:55:43.259Z</time>
      </trkpt>
      <trkpt lat="47.02826" lon="8.92475">
        <ele>1051</ele>
        <time>2021-08-03T08:55:44.259Z</time>
      </trkpt>
      <trkpt lat="47.02826" lon="8.92474">
        <ele>1052</ele>
        <time>2021-08-03T08:55:45.259Z</time>
      </trkpt>
      <trkpt lat="47.02826" lon="8.92473">
        <ele>1052</ele>
        <time>2021-08-03T08:55:46.259Z</time>
      </trkpt>
      <trkpt lat="47.02826" lon="8.92473">
        <ele>1051</ele>
        <time>2021-08-03T08:55:47.260Z</time>
      </trkpt>
      <trkpt lat="47.02826" lon="8.92473">
        <ele>1051</ele>
        <time>2021-08-03T08:55:48.260Z</time>
      </trkpt>
      <trkpt lat="47.02825" lon="8.92471">
        <ele>1050</ele>
        <time>2021-08-03T08:55:49.262Z</time>
      </trkpt>
      <trkpt lat="47.02825" lon="8.9247">
        <ele>1050</ele>
        <time>2021-08-03T08:55:50.261Z</time>
      </trkpt>
      <trkpt lat="47.02825" lon="8.92469">
        <ele>1051</ele>
        <time>2021-08-03T08:55:51.262Z</time>
      </trkpt>
      <trkpt lat="47.02825" lon="8.92468">
        <ele>1051</ele>
        <time>2021-08-03T08:55:52.262Z</time>
      </trkpt>
      <trkpt lat="47.02825" lon="8.92467">
        <ele>1052</ele>
        <time>2021-08-03T08:55:53.262Z</time>
      </trkpt>
      <trkpt lat="47.02825" lon="8.92466">
        <ele>1052</ele>
        <time>2021-08-03T08:55:54.262Z</time>
      </trkpt>
      <trkpt lat="47.02825" lon="8.92464">
        <ele>1053</ele>
        <time>2021-08-03T08:55:55.261Z</time>
      </trkpt>
      <trkpt lat="47.02825" lon="8.92464">
        <ele>1053</ele>
        <time>2021-08-03T08:55:56.261Z</time>
      </trkpt>
      <trkpt lat="47.02825" lon="8.92462">
        <ele>1053</ele>
        <time>2021-08-03T08:55:57.262Z</time>
      </trkpt>
      <trkpt lat="47.02824" lon="8.92461">
        <ele>1054</ele>
        <time>2021-08-03T08:55:58.261Z</time>
      </trkpt>
      <trkpt lat="47.02823" lon="8.9246">
        <ele>1054</ele>
        <time>2021-08-03T08:55:59.262Z</time>
      </trkpt>
      <trkpt lat="47.02822" lon="8.92458">
        <ele>1055</ele>
        <time>2021-08-03T08:56:00.261Z</time>
      </trkpt>
      <trkpt lat="47.02822" lon="8.92457">
        <ele>1055</ele>
        <time>2021-08-03T08:56:01.261Z</time>
      </trkpt>
      <trkpt lat="47.02822" lon="8.92456">
        <ele>1056</ele>
        <time>2021-08-03T08:56:02.261Z</time>
      </trkpt>
      <trkpt lat="47.02822" lon="8.92455">
        <ele>1056</ele>
        <time>2021-08-03T08:56:03.261Z</time>
      </trkpt>
      <trkpt lat="47.02822" lon="8.92453">
        <ele>1057</ele>
        <time>2021-08-03T08:56:04.262Z</time>
      </trkpt>
      <trkpt lat="47.02821" lon="8.92452">
        <ele>1057</ele>
        <time>2021-08-03T08:56:05.262Z</time>
      </trkpt>
      <trkpt lat="47.02822" lon="8.92451">
        <ele>1057</ele>
        <time>2021-08-03T08:56:06.261Z</time>
      </trkpt>
      <trkpt lat="47.02822" lon="8.9245">
        <ele>1057</ele>
        <time>2021-08-03T08:56:07.261Z</time>
      </trkpt>
      <trkpt lat="47.02822" lon="8.92449">
        <ele>1056</ele>
        <time>2021-08-03T08:56:08.261Z</time>
      </trkpt>
      <trkpt lat="47.02822" lon="8.92448">
        <ele>1056</ele>
        <time>2021-08-03T08:56:09.261Z</time>
      </trkpt>
      <trkpt lat="47.02822" lon="8.92446">
        <ele>1056</ele>
        <time>2021-08-03T08:56:10.261Z</time>
      </trkpt>
      <trkpt lat="47.02822" lon="8.92444">
        <ele>1056</ele>
        <time>2021-08-03T08:56:11.262Z</time>
      </trkpt>
      <trkpt lat="47.02821" lon="8.92443">
        <ele>1055</ele>
        <time>2021-08-03T08:56:12.261Z</time>
      </trkpt>
      <trkpt lat="47.02821" lon="8.92442">
        <ele>1056</ele>
        <time>2021-08-03T08:56:13.261Z</time>
      </trkpt>
      <trkpt lat="47.02821" lon="8.9244">
        <ele>1056</ele>
        <time>2021-08-03T08:56:14.261Z</time>
      </trkpt>
      <trkpt lat="47.02821" lon="8.92439">
        <ele>1056</ele>
        <time>2021-08-03T08:56:15.261Z</time>
      </trkpt>
      <trkpt lat="47.02821" lon="8.92438">
        <ele>1056</ele>
        <time>2021-08-03T08:56:16.261Z</time>
      </trkpt>
      <trkpt lat="47.02821" lon="8.92437">
        <ele>1056</ele>
        <time>2021-08-03T08:56:17.262Z</time>
      </trkpt>
      <trkpt lat="47.02821" lon="8.92436">
        <ele>1057</ele>
        <time>2021-08-03T08:56:18.261Z</time>
      </trkpt>
      <trkpt lat="47.02821" lon="8.92435">
        <ele>1057</ele>
        <time>2021-08-03T08:56:19.261Z</time>
      </trkpt>
      <trkpt lat="47.02821" lon="8.92435">
        <ele>1057</ele>
        <time>2021-08-03T08:56:20.261Z</time>
      </trkpt>
      <trkpt lat="47.02821" lon="8.92434">
        <ele>1057</ele>
        <time>2021-08-03T08:56:21.261Z</time>
      </trkpt>
      <trkpt lat="47.02821" lon="8.92433">
        <ele>1057</ele>
        <time>2021-08-03T08:56:22.261Z</time>
      </trkpt>
      <trkpt lat="47.0282" lon="8.92433">
        <ele>1057</ele>
        <time>2021-08-03T08:56:23.261Z</time>
      </trkpt>
      <trkpt lat="47.0282" lon="8.92432">
        <ele>1057</ele>
        <time>2021-08-03T08:56:24.261Z</time>
      </trkpt>
      <trkpt lat="47.0282" lon="8.92431">
        <ele>1058</ele>
        <time>2021-08-03T08:56:25.262Z</time>
      </trkpt>
      <trkpt lat="47.0282" lon="8.92431">
        <ele>1057</ele>
        <time>2021-08-03T08:56:26.262Z</time>
      </trkpt>
      <trkpt lat="47.0282" lon="8.9243">
        <ele>1057</ele>
        <time>2021-08-03T08:56:27.262Z</time>
      </trkpt>
      <trkpt lat="47.02821" lon="8.92429">
        <ele>1057</ele>
        <time>2021-08-03T08:56:28.261Z</time>
      </trkpt>
      <trkpt lat="47.02821" lon="8.92428">
        <ele>1057</ele>
        <time>2021-08-03T08:56:29.261Z</time>
      </trkpt>
      <trkpt lat="47.02821" lon="8.92427">
        <ele>1057</ele>
        <time>2021-08-03T08:56:30.262Z</time>
      </trkpt>
      <trkpt lat="47.02821" lon="8.92426">
        <ele>1057</ele>
        <time>2021-08-03T08:56:31.262Z</time>
      </trkpt>
      <trkpt lat="47.0282" lon="8.92425">
        <ele>1056</ele>
        <time>2021-08-03T08:56:32.261Z</time>
      </trkpt>
      <trkpt lat="47.0282" lon="8.92424">
        <ele>1056</ele>
        <time>2021-08-03T08:56:33.261Z</time>
      </trkpt>
      <trkpt lat="47.0282" lon="8.92424">
        <ele>1056</ele>
        <time>2021-08-03T08:56:34.261Z</time>
      </trkpt>
      <trkpt lat="47.02819" lon="8.92423">
        <ele>1056</ele>
        <time>2021-08-03T08:56:35.261Z</time>
      </trkpt>
      <trkpt lat="47.02819" lon="8.92422">
        <ele>1057</ele>
        <time>2021-08-03T08:56:36.262Z</time>
      </trkpt>
      <trkpt lat="47.02819" lon="8.92422">
        <ele>1057</ele>
        <time>2021-08-03T08:56:37.262Z</time>
      </trkpt>
      <trkpt lat="47.02819" lon="8.92421">
        <ele>1057</ele>
        <time>2021-08-03T08:56:38.261Z</time>
      </trkpt>
      <trkpt lat="47.02819" lon="8.92419">
        <ele>1057</ele>
        <time>2021-08-03T08:56:39.261Z</time>
      </trkpt>
      <trkpt lat="47.02819" lon="8.92418">
        <ele>1057</ele>
        <time>2021-08-03T08:56:40.261Z</time>
      </trkpt>
      <trkpt lat="47.02819" lon="8.92418">
        <ele>1057</ele>
        <time>2021-08-03T08:56:41.262Z</time>
      </trkpt>
      <trkpt lat="47.02819" lon="8.92417">
        <ele>1057</ele>
        <time>2021-08-03T08:56:42.262Z</time>
      </trkpt>
      <trkpt lat="47.02819" lon="8.92416">
        <ele>1057</ele>
        <time>2021-08-03T08:56:43.262Z</time>
      </trkpt>
      <trkpt lat="47.02819" lon="8.92415">
        <ele>1056</ele>
        <time>2021-08-03T08:56:44.261Z</time>
      </trkpt>
      <trkpt lat="47.02819" lon="8.92414">
        <ele>1056</ele>
        <time>2021-08-03T08:56:45.261Z</time>
      </trkpt>
      <trkpt lat="47.0282" lon="8.92414">
        <ele>1056</ele>
        <time>2021-08-03T08:56:46.261Z</time>
      </trkpt>
      <trkpt lat="47.0282" lon="8.92413">
        <ele>1056</ele>
        <time>2021-08-03T08:56:47.261Z</time>
      </trkpt>
      <trkpt lat="47.0282" lon="8.92412">
        <ele>1056</ele>
        <time>2021-08-03T08:56:48.261Z</time>
      </trkpt>
      <trkpt lat="47.0282" lon="8.92411">
        <ele>1056</ele>
        <time>2021-08-03T08:56:49.262Z</time>
      </trkpt>
      <trkpt lat="47.0282" lon="8.9241">
        <ele>1056</ele>
        <time>2021-08-03T08:56:50.261Z</time>
      </trkpt>
      <trkpt lat="47.0282" lon="8.92409">
        <ele>1056</ele>
        <time>2021-08-03T08:56:51.261Z</time>
      </trkpt>
      <trkpt lat="47.0282" lon="8.92408">
        <ele>1056</ele>
        <time>2021-08-03T08:56:52.261Z</time>
      </trkpt>
      <trkpt lat="47.0282" lon="8.92406">
        <ele>1057</ele>
        <time>2021-08-03T08:56:53.263Z</time>
      </trkpt>
      <trkpt lat="47.0282" lon="8.92404">
        <ele>1057</ele>
        <time>2021-08-03T08:56:54.262Z</time>
      </trkpt>
      <trkpt lat="47.0282" lon="8.92403">
        <ele>1058</ele>
        <time>2021-08-03T08:56:55.262Z</time>
      </trkpt>
      <trkpt lat="47.0282" lon="8.92402">
        <ele>1059</ele>
        <time>2021-08-03T08:56:56.262Z</time>
      </trkpt>
      <trkpt lat="47.0282" lon="8.92401">
        <ele>1059</ele>
        <time>2021-08-03T08:56:57.262Z</time>
      </trkpt>
      <trkpt lat="47.0282" lon="8.92401">
        <ele>1060</ele>
        <time>2021-08-03T08:56:58.262Z</time>
      </trkpt>
      <trkpt lat="47.02819" lon="8.92402">
        <ele>1060</ele>
        <time>2021-08-03T08:56:59.262Z</time>
      </trkpt>
      <trkpt lat="47.02818" lon="8.92402">
        <ele>1061</ele>
        <time>2021-08-03T08:57:00.262Z</time>
      </trkpt>
      <trkpt lat="47.02818" lon="8.92402">
        <ele>1062</ele>
        <time>2021-08-03T08:57:01.263Z</time>
      </trkpt>
      <trkpt lat="47.02818" lon="8.92401">
        <ele>1062</ele>
        <time>2021-08-03T08:57:02.262Z</time>
      </trkpt>
      <trkpt lat="47.02818" lon="8.92402">
        <ele>1063</ele>
        <time>2021-08-03T08:57:03.263Z</time>
      </trkpt>
      <trkpt lat="47.02819" lon="8.92402">
        <ele>1063</ele>
        <time>2021-08-03T08:57:04.262Z</time>
      </trkpt>
      <trkpt lat="47.0282" lon="8.92401">
        <ele>1063</ele>
        <time>2021-08-03T08:57:05.263Z</time>
      </trkpt>
      <trkpt lat="47.0282" lon="8.924">
        <ele>1063</ele>
        <time>2021-08-03T08:57:06.262Z</time>
      </trkpt>
      <trkpt lat="47.02819" lon="8.92399">
        <ele>1063</ele>
        <time>2021-08-03T08:57:07.263Z</time>
      </trkpt>
      <trkpt lat="47.0282" lon="8.92399">
        <ele>1063</ele>
        <time>2021-08-03T08:57:08.263Z</time>
      </trkpt>
      <trkpt lat="47.0282" lon="8.92398">
        <ele>1063</ele>
        <time>2021-08-03T08:57:09.262Z</time>
      </trkpt>
      <trkpt lat="47.02819" lon="8.92396">
        <ele>1062</ele>
        <time>2021-08-03T08:57:10.262Z</time>
      </trkpt>
      <trkpt lat="47.02819" lon="8.92396">
        <ele>1062</ele>
        <time>2021-08-03T08:57:11.263Z</time>
      </trkpt>
      <trkpt lat="47.02819" lon="8.92394">
        <ele>1062</ele>
        <time>2021-08-03T08:57:12.262Z</time>
      </trkpt>
      <trkpt lat="47.0282" lon="8.92393">
        <ele>1062</ele>
        <time>2021-08-03T08:57:13.263Z</time>
      </trkpt>
      <trkpt lat="47.0282" lon="8.92392">
        <ele>1062</ele>
        <time>2021-08-03T08:57:14.263Z</time>
      </trkpt>
      <trkpt lat="47.0282" lon="8.92391">
        <ele>1062</ele>
        <time>2021-08-03T08:57:15.262Z</time>
      </trkpt>
      <trkpt lat="47.0282" lon="8.92389">
        <ele>1062</ele>
        <time>2021-08-03T08:57:16.262Z</time>
      </trkpt>
      <trkpt lat="47.0282" lon="8.92388">
        <ele>1062</ele>
        <time>2021-08-03T08:57:17.262Z</time>
      </trkpt>
      <trkpt lat="47.0282" lon="8.92387">
        <ele>1062</ele>
        <time>2021-08-03T08:57:18.263Z</time>
      </trkpt>
      <trkpt lat="47.0282" lon="8.92385">
        <ele>1062</ele>
        <time>2021-08-03T08:57:19.262Z</time>
      </trkpt>
      <trkpt lat="47.0282" lon="8.92384">
        <ele>1062</ele>
        <time>2021-08-03T08:57:20.262Z</time>
      </trkpt>
      <trkpt lat="47.0282" lon="8.92384">
        <ele>1062</ele>
        <time>2021-08-03T08:57:21.263Z</time>
      </trkpt>
      <trkpt lat="47.0282" lon="8.92383">
        <ele>1062</ele>
        <time>2021-08-03T08:57:22.262Z</time>
      </trkpt>
      <trkpt lat="47.0282" lon="8.92383">
        <ele>1063</ele>
        <time>2021-08-03T08:57:23.262Z</time>
      </trkpt>
      <trkpt lat="47.0282" lon="8.92382">
        <ele>1063</ele>
        <time>2021-08-03T08:57:24.262Z</time>
      </trkpt>
      <trkpt lat="47.0282" lon="8.92382">
        <ele>1064</ele>
        <time>2021-08-03T08:57:25.262Z</time>
      </trkpt>
      <trkpt lat="47.0282" lon="8.9238">
        <ele>1064</ele>
        <time>2021-08-03T08:57:26.262Z</time>
      </trkpt>
      <trkpt lat="47.0282" lon="8.92378">
        <ele>1065</ele>
        <time>2021-08-03T08:57:27.263Z</time>
      </trkpt>
      <trkpt lat="47.02819" lon="8.92377">
        <ele>1065</ele>
        <time>2021-08-03T08:57:28.262Z</time>
      </trkpt>
      <trkpt lat="47.02818" lon="8.92375">
        <ele>1065</ele>
        <time>2021-08-03T08:57:29.262Z</time>
      </trkpt>
      <trkpt lat="47.02818" lon="8.92375">
        <ele>1066</ele>
        <time>2021-08-03T08:57:30.262Z</time>
      </trkpt>
      <trkpt lat="47.02817" lon="8.92374">
        <ele>1065</ele>
        <time>2021-08-03T08:57:31.262Z</time>
      </trkpt>
      <trkpt lat="47.02817" lon="8.92372">
        <ele>1065</ele>
        <time>2021-08-03T08:57:32.263Z</time>
      </trkpt>
      <trkpt lat="47.02817" lon="8.92372">
        <ele>1065</ele>
        <time>2021-08-03T08:57:33.262Z</time>
      </trkpt>
      <trkpt lat="47.02817" lon="8.92371">
        <ele>1065</ele>
        <time>2021-08-03T08:57:34.263Z</time>
      </trkpt>
      <trkpt lat="47.02817" lon="8.9237">
        <ele>1065</ele>
        <time>2021-08-03T08:57:35.263Z</time>
      </trkpt>
      <trkpt lat="47.02817" lon="8.92369">
        <ele>1066</ele>
        <time>2021-08-03T08:57:36.262Z</time>
      </trkpt>
      <trkpt lat="47.02817" lon="8.92368">
        <ele>1066</ele>
        <time>2021-08-03T08:57:37.262Z</time>
      </trkpt>
      <trkpt lat="47.02816" lon="8.92367">
        <ele>1066</ele>
        <time>2021-08-03T08:57:38.263Z</time>
      </trkpt>
      <trkpt lat="47.02816" lon="8.92367">
        <ele>1066</ele>
        <time>2021-08-03T08:57:39.262Z</time>
      </trkpt>
      <trkpt lat="47.02816" lon="8.92365">
        <ele>1066</ele>
        <time>2021-08-03T08:57:40.263Z</time>
      </trkpt>
      <trkpt lat="47.02816" lon="8.92364">
        <ele>1066</ele>
        <time>2021-08-03T08:57:41.262Z</time>
      </trkpt>
      <trkpt lat="47.02815" lon="8.92363">
        <ele>1066</ele>
        <time>2021-08-03T08:57:42.262Z</time>
      </trkpt>
      <trkpt lat="47.02815" lon="8.92362">
        <ele>1066</ele>
        <time>2021-08-03T08:57:43.262Z</time>
      </trkpt>
      <trkpt lat="47.02815" lon="8.92362">
        <ele>1065</ele>
        <time>2021-08-03T08:57:44.262Z</time>
      </trkpt>
      <trkpt lat="47.02814" lon="8.92361">
        <ele>1065</ele>
        <time>2021-08-03T08:57:45.262Z</time>
      </trkpt>
      <trkpt lat="47.02814" lon="8.92361">
        <ele>1064</ele>
        <time>2021-08-03T08:57:46.263Z</time>
      </trkpt>
      <trkpt lat="47.02813" lon="8.9236">
        <ele>1064</ele>
        <time>2021-08-03T08:57:47.262Z</time>
      </trkpt>
      <trkpt lat="47.02813" lon="8.92358">
        <ele>1064</ele>
        <time>2021-08-03T08:57:48.263Z</time>
      </trkpt>
      <trkpt lat="47.02813" lon="8.92357">
        <ele>1064</ele>
        <time>2021-08-03T08:57:49.262Z</time>
      </trkpt>
      <trkpt lat="47.02813" lon="8.92356">
        <ele>1064</ele>
        <time>2021-08-03T08:57:50.262Z</time>
      </trkpt>
      <trkpt lat="47.02812" lon="8.92355">
        <ele>1064</ele>
        <time>2021-08-03T08:57:51.262Z</time>
      </trkpt>
      <trkpt lat="47.02812" lon="8.92354">
        <ele>1064</ele>
        <time>2021-08-03T08:57:52.262Z</time>
      </trkpt>
      <trkpt lat="47.02812" lon="8.92353">
        <ele>1064</ele>
        <time>2021-08-03T08:57:53.262Z</time>
      </trkpt>
      <trkpt lat="47.02812" lon="8.92352">
        <ele>1064</ele>
        <time>2021-08-03T08:57:54.263Z</time>
      </trkpt>
      <trkpt lat="47.02812" lon="8.92351">
        <ele>1065</ele>
        <time>2021-08-03T08:57:55.263Z</time>
      </trkpt>
      <trkpt lat="47.02812" lon="8.9235">
        <ele>1065</ele>
        <time>2021-08-03T08:57:56.262Z</time>
      </trkpt>
      <trkpt lat="47.02812" lon="8.92349">
        <ele>1066</ele>
        <time>2021-08-03T08:57:57.263Z</time>
      </trkpt>
      <trkpt lat="47.02812" lon="8.92348">
        <ele>1066</ele>
        <time>2021-08-03T08:57:58.262Z</time>
      </trkpt>
      <trkpt lat="47.02812" lon="8.92346">
        <ele>1067</ele>
        <time>2021-08-03T08:57:59.262Z</time>
      </trkpt>
      <trkpt lat="47.02812" lon="8.92345">
        <ele>1067</ele>
        <time>2021-08-03T08:58:00.263Z</time>
      </trkpt>
      <trkpt lat="47.02812" lon="8.92343">
        <ele>1067</ele>
        <time>2021-08-03T08:58:01.262Z</time>
      </trkpt>
      <trkpt lat="47.02812" lon="8.92341">
        <ele>1067</ele>
        <time>2021-08-03T08:58:02.262Z</time>
      </trkpt>
      <trkpt lat="47.02812" lon="8.9234">
        <ele>1067</ele>
        <time>2021-08-03T08:58:03.262Z</time>
      </trkpt>
      <trkpt lat="47.02811" lon="8.92339">
        <ele>1067</ele>
        <time>2021-08-03T08:58:04.262Z</time>
      </trkpt>
      <trkpt lat="47.02811" lon="8.92338">
        <ele>1067</ele>
        <time>2021-08-03T08:58:05.262Z</time>
      </trkpt>
      <trkpt lat="47.02811" lon="8.92337">
        <ele>1067</ele>
        <time>2021-08-03T08:58:06.262Z</time>
      </trkpt>
      <trkpt lat="47.02811" lon="8.92336">
        <ele>1067</ele>
        <time>2021-08-03T08:58:07.263Z</time>
      </trkpt>
      <trkpt lat="47.0281" lon="8.92334">
        <ele>1067</ele>
        <time>2021-08-03T08:58:08.263Z</time>
      </trkpt>
      <trkpt lat="47.0281" lon="8.92332">
        <ele>1068</ele>
        <time>2021-08-03T08:58:09.262Z</time>
      </trkpt>
      <trkpt lat="47.02809" lon="8.92331">
        <ele>1068</ele>
        <time>2021-08-03T08:58:10.263Z</time>
      </trkpt>
      <trkpt lat="47.02808" lon="8.9233">
        <ele>1068</ele>
        <time>2021-08-03T08:58:11.262Z</time>
      </trkpt>
      <trkpt lat="47.02808" lon="8.9233">
        <ele>1069</ele>
        <time>2021-08-03T08:58:12.262Z</time>
      </trkpt>
      <trkpt lat="47.02807" lon="8.92328">
        <ele>1069</ele>
        <time>2021-08-03T08:58:13.262Z</time>
      </trkpt>
      <trkpt lat="47.02807" lon="8.92327">
        <ele>1069</ele>
        <time>2021-08-03T08:58:14.263Z</time>
      </trkpt>
      <trkpt lat="47.02807" lon="8.92326">
        <ele>1069</ele>
        <time>2021-08-03T08:58:15.262Z</time>
      </trkpt>
      <trkpt lat="47.02807" lon="8.92325">
        <ele>1069</ele>
        <time>2021-08-03T08:58:16.263Z</time>
      </trkpt>
      <trkpt lat="47.02806" lon="8.92324">
        <ele>1069</ele>
        <time>2021-08-03T08:58:17.262Z</time>
      </trkpt>
      <trkpt lat="47.02805" lon="8.92323">
        <ele>1069</ele>
        <time>2021-08-03T08:58:18.263Z</time>
      </trkpt>
      <trkpt lat="47.02805" lon="8.92322">
        <ele>1069</ele>
        <time>2021-08-03T08:58:19.262Z</time>
      </trkpt>
      <trkpt lat="47.02805" lon="8.92321">
        <ele>1069</ele>
        <time>2021-08-03T08:58:20.263Z</time>
      </trkpt>
      <trkpt lat="47.02805" lon="8.9232">
        <ele>1069</ele>
        <time>2021-08-03T08:58:21.262Z</time>
      </trkpt>
      <trkpt lat="47.02804" lon="8.92319">
        <ele>1069</ele>
        <time>2021-08-03T08:58:22.262Z</time>
      </trkpt>
      <trkpt lat="47.02804" lon="8.92317">
        <ele>1069</ele>
        <time>2021-08-03T08:58:23.263Z</time>
      </trkpt>
      <trkpt lat="47.02803" lon="8.92316">
        <ele>1069</ele>
        <time>2021-08-03T08:58:24.263Z</time>
      </trkpt>
      <trkpt lat="47.02802" lon="8.92315">
        <ele>1069</ele>
        <time>2021-08-03T08:58:25.262Z</time>
      </trkpt>
      <trkpt lat="47.02802" lon="8.92314">
        <ele>1068</ele>
        <time>2021-08-03T08:58:26.262Z</time>
      </trkpt>
      <trkpt lat="47.02802" lon="8.92313">
        <ele>1068</ele>
        <time>2021-08-03T08:58:27.262Z</time>
      </trkpt>
      <trkpt lat="47.02801" lon="8.92312">
        <ele>1068</ele>
        <time>2021-08-03T08:58:28.262Z</time>
      </trkpt>
      <trkpt lat="47.028" lon="8.92311">
        <ele>1067</ele>
        <time>2021-08-03T08:58:29.262Z</time>
      </trkpt>
      <trkpt lat="47.028" lon="8.9231">
        <ele>1067</ele>
        <time>2021-08-03T08:58:30.263Z</time>
      </trkpt>
      <trkpt lat="47.02799" lon="8.92309">
        <ele>1066</ele>
        <time>2021-08-03T08:58:31.262Z</time>
      </trkpt>
      <trkpt lat="47.02799" lon="8.92308">
        <ele>1066</ele>
        <time>2021-08-03T08:58:32.262Z</time>
      </trkpt>
      <trkpt lat="47.02798" lon="8.92307">
        <ele>1066</ele>
        <time>2021-08-03T08:58:33.263Z</time>
      </trkpt>
      <trkpt lat="47.02798" lon="8.92307">
        <ele>1066</ele>
        <time>2021-08-03T08:58:34.262Z</time>
      </trkpt>
      <trkpt lat="47.02797" lon="8.92306">
        <ele>1066</ele>
        <time>2021-08-03T08:58:35.263Z</time>
      </trkpt>
      <trkpt lat="47.02797" lon="8.92306">
        <ele>1066</ele>
        <time>2021-08-03T08:58:36.262Z</time>
      </trkpt>
      <trkpt lat="47.02797" lon="8.92305">
        <ele>1066</ele>
        <time>2021-08-03T08:58:37.262Z</time>
      </trkpt>
      <trkpt lat="47.02796" lon="8.92304">
        <ele>1067</ele>
        <time>2021-08-03T08:58:38.262Z</time>
      </trkpt>
      <trkpt lat="47.02796" lon="8.92303">
        <ele>1067</ele>
        <time>2021-08-03T08:58:39.263Z</time>
      </trkpt>
      <trkpt lat="47.02795" lon="8.92302">
        <ele>1067</ele>
        <time>2021-08-03T08:58:40.263Z</time>
      </trkpt>
      <trkpt lat="47.02794" lon="8.92301">
        <ele>1068</ele>
        <time>2021-08-03T08:58:41.263Z</time>
      </trkpt>
      <trkpt lat="47.02794" lon="8.923">
        <ele>1068</ele>
        <time>2021-08-03T08:58:42.262Z</time>
      </trkpt>
      <trkpt lat="47.02793" lon="8.92299">
        <ele>1069</ele>
        <time>2021-08-03T08:58:43.262Z</time>
      </trkpt>
      <trkpt lat="47.02792" lon="8.92298">
        <ele>1070</ele>
        <time>2021-08-03T08:58:44.263Z</time>
      </trkpt>
      <trkpt lat="47.02792" lon="8.92297">
        <ele>1070</ele>
        <time>2021-08-03T08:58:45.263Z</time>
      </trkpt>
      <trkpt lat="47.02791" lon="8.92295">
        <ele>1071</ele>
        <time>2021-08-03T08:58:46.262Z</time>
      </trkpt>
      <trkpt lat="47.02791" lon="8.92294">
        <ele>1072</ele>
        <time>2021-08-03T08:58:47.262Z</time>
      </trkpt>
      <trkpt lat="47.0279" lon="8.92293">
        <ele>1072</ele>
        <time>2021-08-03T08:58:48.262Z</time>
      </trkpt>
      <trkpt lat="47.02789" lon="8.92293">
        <ele>1073</ele>
        <time>2021-08-03T08:58:49.263Z</time>
      </trkpt>
      <trkpt lat="47.02789" lon="8.92293">
        <ele>1073</ele>
        <time>2021-08-03T08:58:50.263Z</time>
      </trkpt>
      <trkpt lat="47.02788" lon="8.92293">
        <ele>1074</ele>
        <time>2021-08-03T08:58:51.262Z</time>
      </trkpt>
      <trkpt lat="47.02788" lon="8.92292">
        <ele>1075</ele>
        <time>2021-08-03T08:58:52.262Z</time>
      </trkpt>
      <trkpt lat="47.02787" lon="8.92291">
        <ele>1076</ele>
        <time>2021-08-03T08:58:53.262Z</time>
      </trkpt>
      <trkpt lat="47.02787" lon="8.9229">
        <ele>1076</ele>
        <time>2021-08-03T08:58:54.262Z</time>
      </trkpt>
      <trkpt lat="47.02786" lon="8.92289">
        <ele>1076</ele>
        <time>2021-08-03T08:58:55.263Z</time>
      </trkpt>
      <trkpt lat="47.02784" lon="8.92288">
        <ele>1076</ele>
        <time>2021-08-03T08:58:56.263Z</time>
      </trkpt>
      <trkpt lat="47.02784" lon="8.92288">
        <ele>1076</ele>
        <time>2021-08-03T08:58:57.263Z</time>
      </trkpt>
      <trkpt lat="47.02783" lon="8.92289">
        <ele>1076</ele>
        <time>2021-08-03T08:58:58.262Z</time>
      </trkpt>
      <trkpt lat="47.02783" lon="8.9229">
        <ele>1075</ele>
        <time>2021-08-03T08:58:59.263Z</time>
      </trkpt>
      <trkpt lat="47.02783" lon="8.92288">
        <ele>1075</ele>
        <time>2021-08-03T08:59:00.262Z</time>
      </trkpt>
      <trkpt lat="47.02782" lon="8.92286">
        <ele>1075</ele>
        <time>2021-08-03T08:59:01.262Z</time>
      </trkpt>
      <trkpt lat="47.02781" lon="8.92284">
        <ele>1075</ele>
        <time>2021-08-03T08:59:02.262Z</time>
      </trkpt>
      <trkpt lat="47.02781" lon="8.92283">
        <ele>1075</ele>
        <time>2021-08-03T08:59:03.262Z</time>
      </trkpt>
      <trkpt lat="47.0278" lon="8.92281">
        <ele>1075</ele>
        <time>2021-08-03T08:59:04.262Z</time>
      </trkpt>
      <trkpt lat="47.0278" lon="8.9228">
        <ele>1075</ele>
        <time>2021-08-03T08:59:05.262Z</time>
      </trkpt>
      <trkpt lat="47.0278" lon="8.92278">
        <ele>1075</ele>
        <time>2021-08-03T08:59:06.262Z</time>
      </trkpt>
      <trkpt lat="47.0278" lon="8.92277">
        <ele>1076</ele>
        <time>2021-08-03T08:59:07.262Z</time>
      </trkpt>
      <trkpt lat="47.0278" lon="8.92276">
        <ele>1076</ele>
        <time>2021-08-03T08:59:08.262Z</time>
      </trkpt>
      <trkpt lat="47.02779" lon="8.92275">
        <ele>1076</ele>
        <time>2021-08-03T08:59:09.263Z</time>
      </trkpt>
      <trkpt lat="47.02779" lon="8.92274">
        <ele>1077</ele>
        <time>2021-08-03T08:59:10.262Z</time>
      </trkpt>
      <trkpt lat="47.02778" lon="8.92273">
        <ele>1077</ele>
        <time>2021-08-03T08:59:11.263Z</time>
      </trkpt>
      <trkpt lat="47.02778" lon="8.92272">
        <ele>1077</ele>
        <time>2021-08-03T08:59:12.262Z</time>
      </trkpt>
      <trkpt lat="47.02778" lon="8.9227">
        <ele>1077</ele>
        <time>2021-08-03T08:59:13.262Z</time>
      </trkpt>
      <trkpt lat="47.02778" lon="8.92269">
        <ele>1078</ele>
        <time>2021-08-03T08:59:14.262Z</time>
      </trkpt>
      <trkpt lat="47.02778" lon="8.92268">
        <ele>1078</ele>
        <time>2021-08-03T08:59:15.262Z</time>
      </trkpt>
      <trkpt lat="47.02778" lon="8.92267">
        <ele>1078</ele>
        <time>2021-08-03T08:59:16.262Z</time>
      </trkpt>
      <trkpt lat="47.02778" lon="8.92266">
        <ele>1078</ele>
        <time>2021-08-03T08:59:17.262Z</time>
      </trkpt>
      <trkpt lat="47.02778" lon="8.92265">
        <ele>1078</ele>
        <time>2021-08-03T08:59:18.262Z</time>
      </trkpt>
      <trkpt lat="47.02778" lon="8.92264">
        <ele>1078</ele>
        <time>2021-08-03T08:59:19.263Z</time>
      </trkpt>
      <trkpt lat="47.02779" lon="8.92262">
        <ele>1078</ele>
        <time>2021-08-03T08:59:20.263Z</time>
      </trkpt>
      <trkpt lat="47.02779" lon="8.92261">
        <ele>1078</ele>
        <time>2021-08-03T08:59:21.263Z</time>
      </trkpt>
      <trkpt lat="47.0278" lon="8.92259">
        <ele>1078</ele>
        <time>2021-08-03T08:59:22.262Z</time>
      </trkpt>
      <trkpt lat="47.0278" lon="8.92255">
        <ele>1078</ele>
        <time>2021-08-03T08:59:23.262Z</time>
      </trkpt>
      <trkpt lat="47.0278" lon="8.92254">
        <ele>1077</ele>
        <time>2021-08-03T08:59:24.263Z</time>
      </trkpt>
      <trkpt lat="47.0278" lon="8.92253">
        <ele>1077</ele>
        <time>2021-08-03T08:59:25.263Z</time>
      </trkpt>
      <trkpt lat="47.0278" lon="8.92252">
        <ele>1078</ele>
        <time>2021-08-03T08:59:26.262Z</time>
      </trkpt>
      <trkpt lat="47.0278" lon="8.92251">
        <ele>1078</ele>
        <time>2021-08-03T08:59:27.263Z</time>
      </trkpt>
      <trkpt lat="47.02779" lon="8.92251">
        <ele>1078</ele>
        <time>2021-08-03T08:59:28.262Z</time>
      </trkpt>
      <trkpt lat="47.02779" lon="8.9225">
        <ele>1078</ele>
        <time>2021-08-03T08:59:29.263Z</time>
      </trkpt>
      <trkpt lat="47.02779" lon="8.92249">
        <ele>1078</ele>
        <time>2021-08-03T08:59:30.262Z</time>
      </trkpt>
      <trkpt lat="47.02779" lon="8.92248">
        <ele>1078</ele>
        <time>2021-08-03T08:59:31.262Z</time>
      </trkpt>
      <trkpt lat="47.02779" lon="8.92246">
        <ele>1079</ele>
        <time>2021-08-03T08:59:32.263Z</time>
      </trkpt>
      <trkpt lat="47.02779" lon="8.92245">
        <ele>1079</ele>
        <time>2021-08-03T08:59:33.262Z</time>
      </trkpt>
      <trkpt lat="47.02779" lon="8.92244">
        <ele>1079</ele>
        <time>2021-08-03T08:59:34.262Z</time>
      </trkpt>
      <trkpt lat="47.02779" lon="8.92242">
        <ele>1080</ele>
        <time>2021-08-03T08:59:35.262Z</time>
      </trkpt>
      <trkpt lat="47.02779" lon="8.92241">
        <ele>1080</ele>
        <time>2021-08-03T08:59:36.263Z</time>
      </trkpt>
      <trkpt lat="47.02779" lon="8.9224">
        <ele>1081</ele>
        <time>2021-08-03T08:59:37.263Z</time>
      </trkpt>
      <trkpt lat="47.02779" lon="8.92239">
        <ele>1081</ele>
        <time>2021-08-03T08:59:38.263Z</time>
      </trkpt>
      <trkpt lat="47.0278" lon="8.92238">
        <ele>1082</ele>
        <time>2021-08-03T08:59:39.262Z</time>
      </trkpt>
      <trkpt lat="47.0278" lon="8.92237">
        <ele>1082</ele>
        <time>2021-08-03T08:59:40.262Z</time>
      </trkpt>
      <trkpt lat="47.0278" lon="8.92236">
        <ele>1083</ele>
        <time>2021-08-03T08:59:41.263Z</time>
      </trkpt>
      <trkpt lat="47.0278" lon="8.92235">
        <ele>1083</ele>
        <time>2021-08-03T08:59:42.263Z</time>
      </trkpt>
      <trkpt lat="47.02781" lon="8.92234">
        <ele>1083</ele>
        <time>2021-08-03T08:59:43.262Z</time>
      </trkpt>
      <trkpt lat="47.02782" lon="8.92233">
        <ele>1084</ele>
        <time>2021-08-03T08:59:44.263Z</time>
      </trkpt>
      <trkpt lat="47.02782" lon="8.92232">
        <ele>1084</ele>
        <time>2021-08-03T08:59:45.263Z</time>
      </trkpt>
      <trkpt lat="47.02782" lon="8.92232">
        <ele>1084</ele>
        <time>2021-08-03T08:59:46.262Z</time>
      </trkpt>
      <trkpt lat="47.02782" lon="8.92231">
        <ele>1084</ele>
        <time>2021-08-03T08:59:47.262Z</time>
      </trkpt>
      <trkpt lat="47.02782" lon="8.92231">
        <ele>1083</ele>
        <time>2021-08-03T08:59:48.263Z</time>
      </trkpt>
      <trkpt lat="47.02781" lon="8.9223">
        <ele>1083</ele>
        <time>2021-08-03T08:59:49.263Z</time>
      </trkpt>
      <trkpt lat="47.02782" lon="8.92229">
        <ele>1083</ele>
        <time>2021-08-03T08:59:50.262Z</time>
      </trkpt>
      <trkpt lat="47.02781" lon="8.92227">
        <ele>1083</ele>
        <time>2021-08-03T08:59:51.263Z</time>
      </trkpt>
      <trkpt lat="47.02781" lon="8.92226">
        <ele>1083</ele>
        <time>2021-08-03T08:59:52.263Z</time>
      </trkpt>
      <trkpt lat="47.02781" lon="8.92224">
        <ele>1083</ele>
        <time>2021-08-03T08:59:53.262Z</time>
      </trkpt>
      <trkpt lat="47.02781" lon="8.92224">
        <ele>1083</ele>
        <time>2021-08-03T08:59:54.262Z</time>
      </trkpt>
      <trkpt lat="47.02781" lon="8.92223">
        <ele>1083</ele>
        <time>2021-08-03T08:59:55.263Z</time>
      </trkpt>
      <trkpt lat="47.02781" lon="8.92222">
        <ele>1083</ele>
        <time>2021-08-03T08:59:56.262Z</time>
      </trkpt>
      <trkpt lat="47.02781" lon="8.92221">
        <ele>1083</ele>
        <time>2021-08-03T08:59:57.263Z</time>
      </trkpt>
      <trkpt lat="47.02781" lon="8.92221">
        <ele>1083</ele>
        <time>2021-08-03T08:59:58.263Z</time>
      </trkpt>
      <trkpt lat="47.02782" lon="8.92222">
        <ele>1083</ele>
        <time>2021-08-03T08:59:59.263Z</time>
      </trkpt>
      <trkpt lat="47.02782" lon="8.92222">
        <ele>1083</ele>
        <time>2021-08-03T09:00:00.262Z</time>
      </trkpt>
      <trkpt lat="47.02781" lon="8.92221">
        <ele>1083</ele>
        <time>2021-08-03T09:00:01.263Z</time>
      </trkpt>
      <trkpt lat="47.02781" lon="8.9222">
        <ele>1083</ele>
        <time>2021-08-03T09:00:02.263Z</time>
      </trkpt>
      <trkpt lat="47.02781" lon="8.92219">
        <ele>1082</ele>
        <time>2021-08-03T09:00:03.262Z</time>
      </trkpt>
      <trkpt lat="47.02781" lon="8.92217">
        <ele>1082</ele>
        <time>2021-08-03T09:00:04.262Z</time>
      </trkpt>
      <trkpt lat="47.0278" lon="8.92216">
        <ele>1081</ele>
        <time>2021-08-03T09:00:05.263Z</time>
      </trkpt>
      <trkpt lat="47.0278" lon="8.92215">
        <ele>1081</ele>
        <time>2021-08-03T09:00:06.263Z</time>
      </trkpt>
      <trkpt lat="47.0278" lon="8.92214">
        <ele>1081</ele>
        <time>2021-08-03T09:00:07.262Z</time>
      </trkpt>
      <trkpt lat="47.0278" lon="8.92213">
        <ele>1081</ele>
        <time>2021-08-03T09:00:08.262Z</time>
      </trkpt>
      <trkpt lat="47.0278" lon="8.92212">
        <ele>1081</ele>
        <time>2021-08-03T09:00:09.263Z</time>
      </trkpt>
      <trkpt lat="47.0278" lon="8.92211">
        <ele>1081</ele>
        <time>2021-08-03T09:00:10.262Z</time>
      </trkpt>
      <trkpt lat="47.02779" lon="8.9221">
        <ele>1081</ele>
        <time>2021-08-03T09:00:11.263Z</time>
      </trkpt>
      <trkpt lat="47.02779" lon="8.92208">
        <ele>1081</ele>
        <time>2021-08-03T09:00:12.262Z</time>
      </trkpt>
      <trkpt lat="47.02778" lon="8.92206">
        <ele>1081</ele>
        <time>2021-08-03T09:00:13.262Z</time>
      </trkpt>
      <trkpt lat="47.02777" lon="8.92205">
        <ele>1080</ele>
        <time>2021-08-03T09:00:14.263Z</time>
      </trkpt>
      <trkpt lat="47.02777" lon="8.92204">
        <ele>1080</ele>
        <time>2021-08-03T09:00:15.262Z</time>
      </trkpt>
      <trkpt lat="47.02777" lon="8.92203">
        <ele>1079</ele>
        <time>2021-08-03T09:00:16.262Z</time>
      </trkpt>
      <trkpt lat="47.02776" lon="8.92203">
        <ele>1079</ele>
        <time>2021-08-03T09:00:17.263Z</time>
      </trkpt>
      <trkpt lat="47.02776" lon="8.92203">
        <ele>1079</ele>
        <time>2021-08-03T09:00:18.263Z</time>
      </trkpt>
      <trkpt lat="47.02776" lon="8.92203">
        <ele>1079</ele>
        <time>2021-08-03T09:00:19.263Z</time>
      </trkpt>
      <trkpt lat="47.02776" lon="8.92203">
        <ele>1079</ele>
        <time>2021-08-03T09:00:20.262Z</time>
      </trkpt>
      <trkpt lat="47.02775" lon="8.92201">
        <ele>1080</ele>
        <time>2021-08-03T09:00:21.262Z</time>
      </trkpt>
      <trkpt lat="47.02775" lon="8.922">
        <ele>1080</ele>
        <time>2021-08-03T09:00:22.262Z</time>
      </trkpt>
      <trkpt lat="47.02775" lon="8.92198">
        <ele>1080</ele>
        <time>2021-08-03T09:00:23.263Z</time>
      </trkpt>
      <trkpt lat="47.02774" lon="8.92197">
        <ele>1080</ele>
        <time>2021-08-03T09:00:24.262Z</time>
      </trkpt>
      <trkpt lat="47.02774" lon="8.92197">
        <ele>1080</ele>
        <time>2021-08-03T09:00:25.262Z</time>
      </trkpt>
      <trkpt lat="47.02772" lon="8.92196">
        <ele>1080</ele>
        <time>2021-08-03T09:00:26.262Z</time>
      </trkpt>
      <trkpt lat="47.02771" lon="8.92196">
        <ele>1080</ele>
        <time>2021-08-03T09:00:27.262Z</time>
      </trkpt>
      <trkpt lat="47.0277" lon="8.92195">
        <ele>1080</ele>
        <time>2021-08-03T09:00:28.262Z</time>
      </trkpt>
      <trkpt lat="47.0277" lon="8.92194">
        <ele>1079</ele>
        <time>2021-08-03T09:00:29.263Z</time>
      </trkpt>
      <trkpt lat="47.02769" lon="8.92194">
        <ele>1079</ele>
        <time>2021-08-03T09:00:30.262Z</time>
      </trkpt>
      <trkpt lat="47.02768" lon="8.92193">
        <ele>1078</ele>
        <time>2021-08-03T09:00:31.263Z</time>
      </trkpt>
      <trkpt lat="47.02767" lon="8.92192">
        <ele>1078</ele>
        <time>2021-08-03T09:00:32.262Z</time>
      </trkpt>
      <trkpt lat="47.02766" lon="8.92191">
        <ele>1077</ele>
        <time>2021-08-03T09:00:33.262Z</time>
      </trkpt>
      <trkpt lat="47.02765" lon="8.9219">
        <ele>1077</ele>
        <time>2021-08-03T09:00:34.263Z</time>
      </trkpt>
      <trkpt lat="47.02764" lon="8.92189">
        <ele>1077</ele>
        <time>2021-08-03T09:00:35.263Z</time>
      </trkpt>
      <trkpt lat="47.02763" lon="8.92188">
        <ele>1076</ele>
        <time>2021-08-03T09:00:36.263Z</time>
      </trkpt>
      <trkpt lat="47.02762" lon="8.92188">
        <ele>1076</ele>
        <time>2021-08-03T09:00:37.262Z</time>
      </trkpt>
      <trkpt lat="47.02762" lon="8.92187">
        <ele>1076</ele>
        <time>2021-08-03T09:00:38.263Z</time>
      </trkpt>
      <trkpt lat="47.02761" lon="8.92185">
        <ele>1076</ele>
        <time>2021-08-03T09:00:39.263Z</time>
      </trkpt>
      <trkpt lat="47.02761" lon="8.92183">
        <ele>1075</ele>
        <time>2021-08-03T09:00:40.262Z</time>
      </trkpt>
      <trkpt lat="47.02761" lon="8.92182">
        <ele>1075</ele>
        <time>2021-08-03T09:00:41.263Z</time>
      </trkpt>
      <trkpt lat="47.0276" lon="8.92181">
        <ele>1076</ele>
        <time>2021-08-03T09:00:42.263Z</time>
      </trkpt>
      <trkpt lat="47.0276" lon="8.92179">
        <ele>1076</ele>
        <time>2021-08-03T09:00:43.262Z</time>
      </trkpt>
      <trkpt lat="47.0276" lon="8.92178">
        <ele>1076</ele>
        <time>2021-08-03T09:00:44.262Z</time>
      </trkpt>
      <trkpt lat="47.02759" lon="8.92176">
        <ele>1076</ele>
        <time>2021-08-03T09:00:45.263Z</time>
      </trkpt>
      <trkpt lat="47.02759" lon="8.92175">
        <ele>1076</ele>
        <time>2021-08-03T09:00:46.262Z</time>
      </trkpt>
      <trkpt lat="47.02759" lon="8.92174">
        <ele>1076</ele>
        <time>2021-08-03T09:00:47.262Z</time>
      </trkpt>
      <trkpt lat="47.02759" lon="8.92173">
        <ele>1076</ele>
        <time>2021-08-03T09:00:48.262Z</time>
      </trkpt>
      <trkpt lat="47.02759" lon="8.92173">
        <ele>1077</ele>
        <time>2021-08-03T09:00:49.263Z</time>
      </trkpt>
      <trkpt lat="47.02758" lon="8.92172">
        <ele>1077</ele>
        <time>2021-08-03T09:00:50.263Z</time>
      </trkpt>
      <trkpt lat="47.02758" lon="8.9217">
        <ele>1078</ele>
        <time>2021-08-03T09:00:51.262Z</time>
      </trkpt>
      <trkpt lat="47.02758" lon="8.92169">
        <ele>1078</ele>
        <time>2021-08-03T09:00:52.262Z</time>
      </trkpt>
      <trkpt lat="47.02758" lon="8.92167">
        <ele>1079</ele>
        <time>2021-08-03T09:00:53.262Z</time>
      </trkpt>
      <trkpt lat="47.02758" lon="8.92165">
        <ele>1079</ele>
        <time>2021-08-03T09:00:54.263Z</time>
      </trkpt>
      <trkpt lat="47.02758" lon="8.92164">
        <ele>1080</ele>
        <time>2021-08-03T09:00:55.262Z</time>
      </trkpt>
      <trkpt lat="47.02757" lon="8.92163">
        <ele>1081</ele>
        <time>2021-08-03T09:00:56.263Z</time>
      </trkpt>
      <trkpt lat="47.02757" lon="8.92162">
        <ele>1081</ele>
        <time>2021-08-03T09:00:57.263Z</time>
      </trkpt>
      <trkpt lat="47.02757" lon="8.92162">
        <ele>1082</ele>
        <time>2021-08-03T09:00:58.263Z</time>
      </trkpt>
      <trkpt lat="47.02756" lon="8.92161">
        <ele>1082</ele>
        <time>2021-08-03T09:00:59.263Z</time>
      </trkpt>
      <trkpt lat="47.02756" lon="8.92161">
        <ele>1083</ele>
        <time>2021-08-03T09:01:00.263Z</time>
      </trkpt>
      <trkpt lat="47.02756" lon="8.92161">
        <ele>1083</ele>
        <time>2021-08-03T09:01:01.263Z</time>
      </trkpt>
      <trkpt lat="47.02755" lon="8.9216">
        <ele>1084</ele>
        <time>2021-08-03T09:01:02.262Z</time>
      </trkpt>
      <trkpt lat="47.02754" lon="8.92159">
        <ele>1085</ele>
        <time>2021-08-03T09:01:03.263Z</time>
      </trkpt>
      <trkpt lat="47.02753" lon="8.92159">
        <ele>1085</ele>
        <time>2021-08-03T09:01:04.263Z</time>
      </trkpt>
      <trkpt lat="47.02752" lon="8.92157">
        <ele>1086</ele>
        <time>2021-08-03T09:01:05.262Z</time>
      </trkpt>
      <trkpt lat="47.02752" lon="8.92156">
        <ele>1087</ele>
        <time>2021-08-03T09:01:06.262Z</time>
      </trkpt>
      <trkpt lat="47.02752" lon="8.92154">
        <ele>1088</ele>
        <time>2021-08-03T09:01:07.263Z</time>
      </trkpt>
      <trkpt lat="47.02751" lon="8.92153">
        <ele>1089</ele>
        <time>2021-08-03T09:01:08.262Z</time>
      </trkpt>
      <trkpt lat="47.0275" lon="8.92152">
        <ele>1090</ele>
        <time>2021-08-03T09:01:09.263Z</time>
      </trkpt>
      <trkpt lat="47.02749" lon="8.92151">
        <ele>1090</ele>
        <time>2021-08-03T09:01:10.263Z</time>
      </trkpt>
      <trkpt lat="47.02748" lon="8.9215">
        <ele>1091</ele>
        <time>2021-08-03T09:01:11.263Z</time>
      </trkpt>
      <trkpt lat="47.02748" lon="8.92149">
        <ele>1091</ele>
        <time>2021-08-03T09:01:12.262Z</time>
      </trkpt>
      <trkpt lat="47.02748" lon="8.92148">
        <ele>1091</ele>
        <time>2021-08-03T09:01:13.263Z</time>
      </trkpt>
      <trkpt lat="47.02748" lon="8.92147">
        <ele>1091</ele>
        <time>2021-08-03T09:01:14.262Z</time>
      </trkpt>
      <trkpt lat="47.02747" lon="8.92147">
        <ele>1091</ele>
        <time>2021-08-03T09:01:15.263Z</time>
      </trkpt>
      <trkpt lat="47.02745" lon="8.92146">
        <ele>1092</ele>
        <time>2021-08-03T09:01:16.263Z</time>
      </trkpt>
      <trkpt lat="47.02744" lon="8.92146">
        <ele>1093</ele>
        <time>2021-08-03T09:01:17.263Z</time>
      </trkpt>
      <trkpt lat="47.02743" lon="8.92145">
        <ele>1093</ele>
        <time>2021-08-03T09:01:18.263Z</time>
      </trkpt>
      <trkpt lat="47.02742" lon="8.92145">
        <ele>1094</ele>
        <time>2021-08-03T09:01:19.263Z</time>
      </trkpt>
      <trkpt lat="47.0274" lon="8.92144">
        <ele>1094</ele>
        <time>2021-08-03T09:01:20.263Z</time>
      </trkpt>
      <trkpt lat="47.02739" lon="8.92143">
        <ele>1095</ele>
        <time>2021-08-03T09:01:21.263Z</time>
      </trkpt>
      <trkpt lat="47.02737" lon="8.92144">
        <ele>1095</ele>
        <time>2021-08-03T09:01:22.263Z</time>
      </trkpt>
      <trkpt lat="47.02736" lon="8.92143">
        <ele>1096</ele>
        <time>2021-08-03T09:01:23.262Z</time>
      </trkpt>
      <trkpt lat="47.02735" lon="8.92143">
        <ele>1096</ele>
        <time>2021-08-03T09:01:24.263Z</time>
      </trkpt>
      <trkpt lat="47.02734" lon="8.92142">
        <ele>1096</ele>
        <time>2021-08-03T09:01:25.262Z</time>
      </trkpt>
      <trkpt lat="47.02733" lon="8.9214">
        <ele>1096</ele>
        <time>2021-08-03T09:01:26.263Z</time>
      </trkpt>
      <trkpt lat="47.02732" lon="8.92139">
        <ele>1096</ele>
        <time>2021-08-03T09:01:27.263Z</time>
      </trkpt>
      <trkpt lat="47.02732" lon="8.92138">
        <ele>1096</ele>
        <time>2021-08-03T09:01:28.262Z</time>
      </trkpt>
      <trkpt lat="47.02731" lon="8.92137">
        <ele>1097</ele>
        <time>2021-08-03T09:01:29.262Z</time>
      </trkpt>
      <trkpt lat="47.02731" lon="8.92135">
        <ele>1097</ele>
        <time>2021-08-03T09:01:30.262Z</time>
      </trkpt>
      <trkpt lat="47.0273" lon="8.92133">
        <ele>1097</ele>
        <time>2021-08-03T09:01:31.263Z</time>
      </trkpt>
      <trkpt lat="47.02729" lon="8.92131">
        <ele>1097</ele>
        <time>2021-08-03T09:01:32.263Z</time>
      </trkpt>
      <trkpt lat="47.02728" lon="8.92129">
        <ele>1097</ele>
        <time>2021-08-03T09:01:33.263Z</time>
      </trkpt>
      <trkpt lat="47.02728" lon="8.92128">
        <ele>1098</ele>
        <time>2021-08-03T09:01:34.263Z</time>
      </trkpt>
      <trkpt lat="47.02728" lon="8.92126">
        <ele>1098</ele>
        <time>2021-08-03T09:01:35.263Z</time>
      </trkpt>
      <trkpt lat="47.02728" lon="8.92124">
        <ele>1098</ele>
        <time>2021-08-03T09:01:36.263Z</time>
      </trkpt>
      <trkpt lat="47.02728" lon="8.92124">
        <ele>1098</ele>
        <time>2021-08-03T09:01:37.263Z</time>
      </trkpt>
      <trkpt lat="47.02728" lon="8.92124">
        <ele>1098</ele>
        <time>2021-08-03T09:01:38.263Z</time>
      </trkpt>
      <trkpt lat="47.02727" lon="8.92124">
        <ele>1098</ele>
        <time>2021-08-03T09:01:39.263Z</time>
      </trkpt>
      <trkpt lat="47.02727" lon="8.92125">
        <ele>1098</ele>
        <time>2021-08-03T09:01:40.262Z</time>
      </trkpt>
      <trkpt lat="47.02727" lon="8.92124">
        <ele>1099</ele>
        <time>2021-08-03T09:01:41.263Z</time>
      </trkpt>
      <trkpt lat="47.02727" lon="8.92124">
        <ele>1099</ele>
        <time>2021-08-03T09:01:42.263Z</time>
      </trkpt>
      <trkpt lat="47.02728" lon="8.92124">
        <ele>1099</ele>
        <time>2021-08-03T09:01:43.263Z</time>
      </trkpt>
      <trkpt lat="47.02728" lon="8.92125">
        <ele>1099</ele>
        <time>2021-08-03T09:01:44.262Z</time>
      </trkpt>
      <trkpt lat="47.02726" lon="8.92124">
        <ele>1098</ele>
        <time>2021-08-03T09:01:45.262Z</time>
      </trkpt>
      <trkpt lat="47.02725" lon="8.92124">
        <ele>1098</ele>
        <time>2021-08-03T09:01:46.262Z</time>
      </trkpt>
      <trkpt lat="47.02724" lon="8.92124">
        <ele>1098</ele>
        <time>2021-08-03T09:01:47.262Z</time>
      </trkpt>
      <trkpt lat="47.02723" lon="8.92123">
        <ele>1098</ele>
        <time>2021-08-03T09:01:48.263Z</time>
      </trkpt>
      <trkpt lat="47.02723" lon="8.92123">
        <ele>1097</ele>
        <time>2021-08-03T09:01:49.263Z</time>
      </trkpt>
      <trkpt lat="47.02722" lon="8.92123">
        <ele>1097</ele>
        <time>2021-08-03T09:01:50.262Z</time>
      </trkpt>
      <trkpt lat="47.0272" lon="8.92124">
        <ele>1101</ele>
        <time>2021-08-03T09:01:51.262Z</time>
      </trkpt>
      <trkpt lat="47.0272" lon="8.92124">
        <ele>1102</ele>
        <time>2021-08-03T09:01:52.263Z</time>
      </trkpt>
      <trkpt lat="47.0272" lon="8.92123">
        <ele>1102</ele>
        <time>2021-08-03T09:01:53.262Z</time>
      </trkpt>
      <trkpt lat="47.0272" lon="8.92122">
        <ele>1102</ele>
        <time>2021-08-03T09:01:54.263Z</time>
      </trkpt>
      <trkpt lat="47.0272" lon="8.92121">
        <ele>1102</ele>
        <time>2021-08-03T09:01:55.263Z</time>
      </trkpt>
      <trkpt lat="47.0272" lon="8.9212">
        <ele>1102</ele>
        <time>2021-08-03T09:01:56.263Z</time>
      </trkpt>
      <trkpt lat="47.0272" lon="8.9212">
        <ele>1101</ele>
        <time>2021-08-03T09:01:57.263Z</time>
      </trkpt>
      <trkpt lat="47.0272" lon="8.9212">
        <ele>1101</ele>
        <time>2021-08-03T09:01:58.263Z</time>
      </trkpt>
      <trkpt lat="47.0272" lon="8.92118">
        <ele>1100</ele>
        <time>2021-08-03T09:01:59.263Z</time>
      </trkpt>
      <trkpt lat="47.02719" lon="8.92116">
        <ele>1100</ele>
        <time>2021-08-03T09:02:00.263Z</time>
      </trkpt>
      <trkpt lat="47.02719" lon="8.92114">
        <ele>1100</ele>
        <time>2021-08-03T09:02:01.262Z</time>
      </trkpt>
      <trkpt lat="47.02718" lon="8.92113">
        <ele>1100</ele>
        <time>2021-08-03T09:02:02.262Z</time>
      </trkpt>
      <trkpt lat="47.02717" lon="8.92111">
        <ele>1100</ele>
        <time>2021-08-03T09:02:03.262Z</time>
      </trkpt>
      <trkpt lat="47.02716" lon="8.92111">
        <ele>1100</ele>
        <time>2021-08-03T09:02:04.262Z</time>
      </trkpt>
      <trkpt lat="47.02715" lon="8.9211">
        <ele>1100</ele>
        <time>2021-08-03T09:02:05.263Z</time>
      </trkpt>
      <trkpt lat="47.02715" lon="8.92111">
        <ele>1099</ele>
        <time>2021-08-03T09:02:06.263Z</time>
      </trkpt>
      <trkpt lat="47.02714" lon="8.92111">
        <ele>1099</ele>
        <time>2021-08-03T09:02:07.262Z</time>
      </trkpt>
      <trkpt lat="47.02714" lon="8.92111">
        <ele>1099</ele>
        <time>2021-08-03T09:02:08.262Z</time>
      </trkpt>
      <trkpt lat="47.02713" lon="8.92111">
        <ele>1099</ele>
        <time>2021-08-03T09:02:09.262Z</time>
      </trkpt>
      <trkpt lat="47.02713" lon="8.92111">
        <ele>1099</ele>
        <time>2021-08-03T09:02:10.262Z</time>
      </trkpt>
      <trkpt lat="47.02713" lon="8.92111">
        <ele>1099</ele>
        <time>2021-08-03T09:02:11.263Z</time>
      </trkpt>
      <trkpt lat="47.02713" lon="8.9211">
        <ele>1099</ele>
        <time>2021-08-03T09:02:12.265Z</time>
      </trkpt>
      <trkpt lat="47.02714" lon="8.92109">
        <ele>1099</ele>
        <time>2021-08-03T09:02:13.265Z</time>
      </trkpt>
      <trkpt lat="47.02714" lon="8.92107">
        <ele>1099</ele>
        <time>2021-08-03T09:02:14.264Z</time>
      </trkpt>
      <trkpt lat="47.02714" lon="8.92106">
        <ele>1098</ele>
        <time>2021-08-03T09:02:15.265Z</time>
      </trkpt>
      <trkpt lat="47.02711" lon="8.92099">
        <ele>1097</ele>
        <time>2021-08-03T09:02:16.265Z</time>
      </trkpt>
      <trkpt lat="47.02711" lon="8.92098">
        <ele>1097</ele>
        <time>2021-08-03T09:02:17.264Z</time>
      </trkpt>
      <trkpt lat="47.0271" lon="8.92097">
        <ele>1097</ele>
        <time>2021-08-03T09:02:18.264Z</time>
      </trkpt>
      <trkpt lat="47.0271" lon="8.92097">
        <ele>1097</ele>
        <time>2021-08-03T09:02:19.265Z</time>
      </trkpt>
      <trkpt lat="47.02709" lon="8.92096">
        <ele>1096</ele>
        <time>2021-08-03T09:02:20.265Z</time>
      </trkpt>
      <trkpt lat="47.02708" lon="8.92095">
        <ele>1096</ele>
        <time>2021-08-03T09:02:21.266Z</time>
      </trkpt>
      <trkpt lat="47.02707" lon="8.92095">
        <ele>1096</ele>
        <time>2021-08-03T09:02:22.266Z</time>
      </trkpt>
      <trkpt lat="47.02706" lon="8.92095">
        <ele>1096</ele>
        <time>2021-08-03T09:02:23.265Z</time>
      </trkpt>
      <trkpt lat="47.02705" lon="8.92094">
        <ele>1096</ele>
        <time>2021-08-03T09:02:24.266Z</time>
      </trkpt>
      <trkpt lat="47.02705" lon="8.92094">
        <ele>1096</ele>
        <time>2021-08-03T09:02:25.266Z</time>
      </trkpt>
      <trkpt lat="47.02705" lon="8.92093">
        <ele>1096</ele>
        <time>2021-08-03T09:02:26.265Z</time>
      </trkpt>
      <trkpt lat="47.02705" lon="8.92092">
        <ele>1096</ele>
        <time>2021-08-03T09:02:27.266Z</time>
      </trkpt>
      <trkpt lat="47.02704" lon="8.92091">
        <ele>1096</ele>
        <time>2021-08-03T09:02:28.266Z</time>
      </trkpt>
      <trkpt lat="47.02704" lon="8.9209">
        <ele>1096</ele>
        <time>2021-08-03T09:02:29.266Z</time>
      </trkpt>
      <trkpt lat="47.02704" lon="8.9209">
        <ele>1096</ele>
        <time>2021-08-03T09:02:30.265Z</time>
      </trkpt>
      <trkpt lat="47.02703" lon="8.9209">
        <ele>1096</ele>
        <time>2021-08-03T09:02:31.266Z</time>
      </trkpt>
      <trkpt lat="47.02702" lon="8.92089">
        <ele>1096</ele>
        <time>2021-08-03T09:02:32.266Z</time>
      </trkpt>
      <trkpt lat="47.02701" lon="8.92088">
        <ele>1097</ele>
        <time>2021-08-03T09:02:33.266Z</time>
      </trkpt>
      <trkpt lat="47.02701" lon="8.92087">
        <ele>1097</ele>
        <time>2021-08-03T09:02:34.266Z</time>
      </trkpt>
      <trkpt lat="47.027" lon="8.92086">
        <ele>1098</ele>
        <time>2021-08-03T09:02:35.265Z</time>
      </trkpt>
      <trkpt lat="47.027" lon="8.92085">
        <ele>1098</ele>
        <time>2021-08-03T09:02:36.265Z</time>
      </trkpt>
      <trkpt lat="47.027" lon="8.92085">
        <ele>1098</ele>
        <time>2021-08-03T09:02:37.265Z</time>
      </trkpt>
      <trkpt lat="47.02699" lon="8.92085">
        <ele>1099</ele>
        <time>2021-08-03T09:02:38.266Z</time>
      </trkpt>
      <trkpt lat="47.02699" lon="8.92085">
        <ele>1099</ele>
        <time>2021-08-03T09:02:39.266Z</time>
      </trkpt>
      <trkpt lat="47.02699" lon="8.92084">
        <ele>1100</ele>
        <time>2021-08-03T09:02:40.265Z</time>
      </trkpt>
      <trkpt lat="47.02699" lon="8.92083">
        <ele>1100</ele>
        <time>2021-08-03T09:02:41.266Z</time>
      </trkpt>
      <trkpt lat="47.02698" lon="8.92081">
        <ele>1100</ele>
        <time>2021-08-03T09:02:42.266Z</time>
      </trkpt>
      <trkpt lat="47.02698" lon="8.92079">
        <ele>1101</ele>
        <time>2021-08-03T09:02:43.266Z</time>
      </trkpt>
      <trkpt lat="47.02699" lon="8.92079">
        <ele>1101</ele>
        <time>2021-08-03T09:02:44.266Z</time>
      </trkpt>
      <trkpt lat="47.02698" lon="8.92079">
        <ele>1101</ele>
        <time>2021-08-03T09:02:45.266Z</time>
      </trkpt>
      <trkpt lat="47.02697" lon="8.92078">
        <ele>1101</ele>
        <time>2021-08-03T09:02:46.266Z</time>
      </trkpt>
      <trkpt lat="47.02696" lon="8.92078">
        <ele>1101</ele>
        <time>2021-08-03T09:02:47.265Z</time>
      </trkpt>
      <trkpt lat="47.02695" lon="8.92077">
        <ele>1101</ele>
        <time>2021-08-03T09:02:48.266Z</time>
      </trkpt>
      <trkpt lat="47.02695" lon="8.92076">
        <ele>1101</ele>
        <time>2021-08-03T09:02:49.265Z</time>
      </trkpt>
      <trkpt lat="47.02695" lon="8.92075">
        <ele>1101</ele>
        <time>2021-08-03T09:02:50.265Z</time>
      </trkpt>
      <trkpt lat="47.02695" lon="8.92074">
        <ele>1102</ele>
        <time>2021-08-03T09:02:51.265Z</time>
      </trkpt>
      <trkpt lat="47.02694" lon="8.92073">
        <ele>1102</ele>
        <time>2021-08-03T09:02:52.266Z</time>
      </trkpt>
      <trkpt lat="47.02694" lon="8.92072">
        <ele>1102</ele>
        <time>2021-08-03T09:02:53.266Z</time>
      </trkpt>
      <trkpt lat="47.02693" lon="8.92072">
        <ele>1103</ele>
        <time>2021-08-03T09:02:54.265Z</time>
      </trkpt>
      <trkpt lat="47.02693" lon="8.92071">
        <ele>1103</ele>
        <time>2021-08-03T09:02:55.266Z</time>
      </trkpt>
      <trkpt lat="47.02692" lon="8.9207">
        <ele>1104</ele>
        <time>2021-08-03T09:02:56.265Z</time>
      </trkpt>
      <trkpt lat="47.02691" lon="8.92069">
        <ele>1104</ele>
        <time>2021-08-03T09:02:57.266Z</time>
      </trkpt>
      <trkpt lat="47.02691" lon="8.92069">
        <ele>1105</ele>
        <time>2021-08-03T09:02:58.266Z</time>
      </trkpt>
      <trkpt lat="47.02689" lon="8.92068">
        <ele>1105</ele>
        <time>2021-08-03T09:02:59.266Z</time>
      </trkpt>
      <trkpt lat="47.02688" lon="8.92068">
        <ele>1105</ele>
        <time>2021-08-03T09:03:00.265Z</time>
      </trkpt>
      <trkpt lat="47.02688" lon="8.92069">
        <ele>1105</ele>
        <time>2021-08-03T09:03:01.266Z</time>
      </trkpt>
      <trkpt lat="47.02687" lon="8.92068">
        <ele>1105</ele>
        <time>2021-08-03T09:03:02.265Z</time>
      </trkpt>
      <trkpt lat="47.02686" lon="8.92067">
        <ele>1105</ele>
        <time>2021-08-03T09:03:03.266Z</time>
      </trkpt>
      <trkpt lat="47.02686" lon="8.92066">
        <ele>1105</ele>
        <time>2021-08-03T09:03:04.265Z</time>
      </trkpt>
      <trkpt lat="47.02685" lon="8.92065">
        <ele>1106</ele>
        <time>2021-08-03T09:03:05.266Z</time>
      </trkpt>
      <trkpt lat="47.02684" lon="8.92065">
        <ele>1106</ele>
        <time>2021-08-03T09:03:06.265Z</time>
      </trkpt>
      <trkpt lat="47.02684" lon="8.92064">
        <ele>1107</ele>
        <time>2021-08-03T09:03:07.266Z</time>
      </trkpt>
      <trkpt lat="47.02684" lon="8.92063">
        <ele>1107</ele>
        <time>2021-08-03T09:03:08.266Z</time>
      </trkpt>
      <trkpt lat="47.02684" lon="8.92061">
        <ele>1107</ele>
        <time>2021-08-03T09:03:09.265Z</time>
      </trkpt>
      <trkpt lat="47.02683" lon="8.9206">
        <ele>1108</ele>
        <time>2021-08-03T09:03:10.266Z</time>
      </trkpt>
      <trkpt lat="47.02683" lon="8.9206">
        <ele>1108</ele>
        <time>2021-08-03T09:03:11.265Z</time>
      </trkpt>
      <trkpt lat="47.02682" lon="8.92059">
        <ele>1108</ele>
        <time>2021-08-03T09:03:12.266Z</time>
      </trkpt>
      <trkpt lat="47.02682" lon="8.92058">
        <ele>1108</ele>
        <time>2021-08-03T09:03:13.266Z</time>
      </trkpt>
      <trkpt lat="47.02682" lon="8.92058">
        <ele>1108</ele>
        <time>2021-08-03T09:03:14.265Z</time>
      </trkpt>
      <trkpt lat="47.02682" lon="8.92056">
        <ele>1108</ele>
        <time>2021-08-03T09:03:15.266Z</time>
      </trkpt>
      <trkpt lat="47.02683" lon="8.92055">
        <ele>1108</ele>
        <time>2021-08-03T09:03:16.266Z</time>
      </trkpt>
      <trkpt lat="47.02684" lon="8.92053">
        <ele>1108</ele>
        <time>2021-08-03T09:03:17.265Z</time>
      </trkpt>
      <trkpt lat="47.02684" lon="8.92052">
        <ele>1108</ele>
        <time>2021-08-03T09:03:18.266Z</time>
      </trkpt>
      <trkpt lat="47.02684" lon="8.92051">
        <ele>1108</ele>
        <time>2021-08-03T09:03:19.266Z</time>
      </trkpt>
      <trkpt lat="47.02685" lon="8.92051">
        <ele>1108</ele>
        <time>2021-08-03T09:03:20.266Z</time>
      </trkpt>
      <trkpt lat="47.02685" lon="8.92051">
        <ele>1108</ele>
        <time>2021-08-03T09:03:21.265Z</time>
      </trkpt>
      <trkpt lat="47.02684" lon="8.92051">
        <ele>1108</ele>
        <time>2021-08-03T09:03:22.266Z</time>
      </trkpt>
      <trkpt lat="47.02683" lon="8.9205">
        <ele>1109</ele>
        <time>2021-08-03T09:03:23.265Z</time>
      </trkpt>
      <trkpt lat="47.02683" lon="8.92049">
        <ele>1109</ele>
        <time>2021-08-03T09:03:24.265Z</time>
      </trkpt>
      <trkpt lat="47.02682" lon="8.92047">
        <ele>1108</ele>
        <time>2021-08-03T09:03:25.266Z</time>
      </trkpt>
      <trkpt lat="47.02681" lon="8.92046">
        <ele>1108</ele>
        <time>2021-08-03T09:03:26.266Z</time>
      </trkpt>
      <trkpt lat="47.02681" lon="8.92045">
        <ele>1108</ele>
        <time>2021-08-03T09:03:27.266Z</time>
      </trkpt>
      <trkpt lat="47.0268" lon="8.92044">
        <ele>1107</ele>
        <time>2021-08-03T09:03:28.265Z</time>
      </trkpt>
      <trkpt lat="47.0268" lon="8.92043">
        <ele>1107</ele>
        <time>2021-08-03T09:03:29.266Z</time>
      </trkpt>
      <trkpt lat="47.02679" lon="8.92043">
        <ele>1107</ele>
        <time>2021-08-03T09:03:30.265Z</time>
      </trkpt>
      <trkpt lat="47.02678" lon="8.92042">
        <ele>1107</ele>
        <time>2021-08-03T09:03:31.266Z</time>
      </trkpt>
      <trkpt lat="47.02678" lon="8.92042">
        <ele>1106</ele>
        <time>2021-08-03T09:03:32.266Z</time>
      </trkpt>
      <trkpt lat="47.02677" lon="8.92041">
        <ele>1106</ele>
        <time>2021-08-03T09:03:33.266Z</time>
      </trkpt>
      <trkpt lat="47.02676" lon="8.92041">
        <ele>1106</ele>
        <time>2021-08-03T09:03:34.266Z</time>
      </trkpt>
      <trkpt lat="47.02676" lon="8.9204">
        <ele>1106</ele>
        <time>2021-08-03T09:03:35.265Z</time>
      </trkpt>
      <trkpt lat="47.02675" lon="8.92038">
        <ele>1106</ele>
        <time>2021-08-03T09:03:36.265Z</time>
      </trkpt>
      <trkpt lat="47.02675" lon="8.92036">
        <ele>1106</ele>
        <time>2021-08-03T09:03:37.266Z</time>
      </trkpt>
      <trkpt lat="47.02674" lon="8.92034">
        <ele>1105</ele>
        <time>2021-08-03T09:03:38.266Z</time>
      </trkpt>
      <trkpt lat="47.02674" lon="8.92033">
        <ele>1105</ele>
        <time>2021-08-03T09:03:39.266Z</time>
      </trkpt>
      <trkpt lat="47.02674" lon="8.92032">
        <ele>1104</ele>
        <time>2021-08-03T09:03:40.266Z</time>
      </trkpt>
      <trkpt lat="47.02673" lon="8.92028">
        <ele>1101</ele>
        <time>2021-08-03T09:03:41.266Z</time>
      </trkpt>
      <trkpt lat="47.02673" lon="8.92028">
        <ele>1101</ele>
        <time>2021-08-03T09:03:42.266Z</time>
      </trkpt>
      <trkpt lat="47.02673" lon="8.92026">
        <ele>1100</ele>
        <time>2021-08-03T09:03:43.266Z</time>
      </trkpt>
      <trkpt lat="47.02673" lon="8.92025">
        <ele>1099</ele>
        <time>2021-08-03T09:03:44.266Z</time>
      </trkpt>
      <trkpt lat="47.02673" lon="8.92023">
        <ele>1099</ele>
        <time>2021-08-03T09:03:45.266Z</time>
      </trkpt>
      <trkpt lat="47.02672" lon="8.92021">
        <ele>1098</ele>
        <time>2021-08-03T09:03:46.266Z</time>
      </trkpt>
      <trkpt lat="47.02672" lon="8.92019">
        <ele>1098</ele>
        <time>2021-08-03T09:03:47.266Z</time>
      </trkpt>
      <trkpt lat="47.02671" lon="8.92018">
        <ele>1098</ele>
        <time>2021-08-03T09:03:48.266Z</time>
      </trkpt>
      <trkpt lat="47.02671" lon="8.92018">
        <ele>1097</ele>
        <time>2021-08-03T09:03:49.266Z</time>
      </trkpt>
      <trkpt lat="47.0267" lon="8.92018">
        <ele>1098</ele>
        <time>2021-08-03T09:03:50.266Z</time>
      </trkpt>
      <trkpt lat="47.0267" lon="8.92017">
        <ele>1098</ele>
        <time>2021-08-03T09:03:51.266Z</time>
      </trkpt>
      <trkpt lat="47.02671" lon="8.92017">
        <ele>1098</ele>
        <time>2021-08-03T09:03:52.266Z</time>
      </trkpt>
      <trkpt lat="47.02671" lon="8.92017">
        <ele>1098</ele>
        <time>2021-08-03T09:03:53.266Z</time>
      </trkpt>
      <trkpt lat="47.02671" lon="8.92016">
        <ele>1099</ele>
        <time>2021-08-03T09:03:54.266Z</time>
      </trkpt>
      <trkpt lat="47.02672" lon="8.92015">
        <ele>1100</ele>
        <time>2021-08-03T09:03:55.266Z</time>
      </trkpt>
      <trkpt lat="47.02671" lon="8.92014">
        <ele>1100</ele>
        <time>2021-08-03T09:03:56.267Z</time>
      </trkpt>
      <trkpt lat="47.0267" lon="8.92013">
        <ele>1100</ele>
        <time>2021-08-03T09:03:57.267Z</time>
      </trkpt>
      <trkpt lat="47.0267" lon="8.92012">
        <ele>1100</ele>
        <time>2021-08-03T09:03:58.267Z</time>
      </trkpt>
      <trkpt lat="47.0267" lon="8.92011">
        <ele>1100</ele>
        <time>2021-08-03T09:03:59.267Z</time>
      </trkpt>
      <trkpt lat="47.0267" lon="8.92011">
        <ele>1100</ele>
        <time>2021-08-03T09:04:00.266Z</time>
      </trkpt>
      <trkpt lat="47.02669" lon="8.92009">
        <ele>1100</ele>
        <time>2021-08-03T09:04:01.266Z</time>
      </trkpt>
      <trkpt lat="47.02669" lon="8.92007">
        <ele>1100</ele>
        <time>2021-08-03T09:04:02.266Z</time>
      </trkpt>
      <trkpt lat="47.02669" lon="8.92005">
        <ele>1100</ele>
        <time>2021-08-03T09:04:03.266Z</time>
      </trkpt>
      <trkpt lat="47.02669" lon="8.92004">
        <ele>1100</ele>
        <time>2021-08-03T09:04:04.266Z</time>
      </trkpt>
      <trkpt lat="47.02669" lon="8.92003">
        <ele>1101</ele>
        <time>2021-08-03T09:04:05.266Z</time>
      </trkpt>
      <trkpt lat="47.0267" lon="8.92002">
        <ele>1101</ele>
        <time>2021-08-03T09:04:06.266Z</time>
      </trkpt>
      <trkpt lat="47.0267" lon="8.92">
        <ele>1101</ele>
        <time>2021-08-03T09:04:07.267Z</time>
      </trkpt>
      <trkpt lat="47.02671" lon="8.91999">
        <ele>1101</ele>
        <time>2021-08-03T09:04:08.267Z</time>
      </trkpt>
      <trkpt lat="47.02671" lon="8.91998">
        <ele>1101</ele>
        <time>2021-08-03T09:04:09.266Z</time>
      </trkpt>
      <trkpt lat="47.02671" lon="8.91997">
        <ele>1101</ele>
        <time>2021-08-03T09:04:10.267Z</time>
      </trkpt>
      <trkpt lat="47.02671" lon="8.91997">
        <ele>1101</ele>
        <time>2021-08-03T09:04:11.267Z</time>
      </trkpt>
      <trkpt lat="47.0267" lon="8.91996">
        <ele>1101</ele>
        <time>2021-08-03T09:04:12.267Z</time>
      </trkpt>
      <trkpt lat="47.0267" lon="8.91994">
        <ele>1101</ele>
        <time>2021-08-03T09:04:13.266Z</time>
      </trkpt>
      <trkpt lat="47.0267" lon="8.91993">
        <ele>1101</ele>
        <time>2021-08-03T09:04:14.267Z</time>
      </trkpt>
      <trkpt lat="47.0267" lon="8.91992">
        <ele>1102</ele>
        <time>2021-08-03T09:04:15.266Z</time>
      </trkpt>
      <trkpt lat="47.0267" lon="8.91991">
        <ele>1102</ele>
        <time>2021-08-03T09:04:16.266Z</time>
      </trkpt>
      <trkpt lat="47.02669" lon="8.9199">
        <ele>1102</ele>
        <time>2021-08-03T09:04:17.267Z</time>
      </trkpt>
      <trkpt lat="47.02669" lon="8.91989">
        <ele>1103</ele>
        <time>2021-08-03T09:04:18.266Z</time>
      </trkpt>
      <trkpt lat="47.02669" lon="8.91988">
        <ele>1103</ele>
        <time>2021-08-03T09:04:19.267Z</time>
      </trkpt>
      <trkpt lat="47.0267" lon="8.91988">
        <ele>1104</ele>
        <time>2021-08-03T09:04:20.266Z</time>
      </trkpt>
      <trkpt lat="47.0267" lon="8.91987">
        <ele>1104</ele>
        <time>2021-08-03T09:04:21.267Z</time>
      </trkpt>
      <trkpt lat="47.02671" lon="8.91986">
        <ele>1105</ele>
        <time>2021-08-03T09:04:22.267Z</time>
      </trkpt>
      <trkpt lat="47.02671" lon="8.91985">
        <ele>1105</ele>
        <time>2021-08-03T09:04:23.267Z</time>
      </trkpt>
      <trkpt lat="47.02671" lon="8.91985">
        <ele>1106</ele>
        <time>2021-08-03T09:04:24.266Z</time>
      </trkpt>
      <trkpt lat="47.02669" lon="8.91983">
        <ele>1108</ele>
        <time>2021-08-03T09:04:25.268Z</time>
      </trkpt>
      <trkpt lat="47.02669" lon="8.91982">
        <ele>1109</ele>
        <time>2021-08-03T09:04:26.267Z</time>
      </trkpt>
      <trkpt lat="47.02669" lon="8.91982">
        <ele>1110</ele>
        <time>2021-08-03T09:04:27.268Z</time>
      </trkpt>
      <trkpt lat="47.02668" lon="8.91981">
        <ele>1110</ele>
        <time>2021-08-03T09:04:28.268Z</time>
      </trkpt>
      <trkpt lat="47.02666" lon="8.9198">
        <ele>1112</ele>
        <time>2021-08-03T09:04:29.269Z</time>
      </trkpt>
      <trkpt lat="47.02665" lon="8.91981">
        <ele>1112</ele>
        <time>2021-08-03T09:04:30.268Z</time>
      </trkpt>
      <trkpt lat="47.02665" lon="8.91979">
        <ele>1113</ele>
        <time>2021-08-03T09:04:31.269Z</time>
      </trkpt>
      <trkpt lat="47.02664" lon="8.91978">
        <ele>1113</ele>
        <time>2021-08-03T09:04:32.268Z</time>
      </trkpt>
      <trkpt lat="47.02664" lon="8.91975">
        <ele>1113</ele>
        <time>2021-08-03T09:04:33.268Z</time>
      </trkpt>
      <trkpt lat="47.02664" lon="8.91974">
        <ele>1113</ele>
        <time>2021-08-03T09:04:34.269Z</time>
      </trkpt>
      <trkpt lat="47.02665" lon="8.91973">
        <ele>1113</ele>
        <time>2021-08-03T09:04:35.269Z</time>
      </trkpt>
      <trkpt lat="47.02666" lon="8.91972">
        <ele>1113</ele>
        <time>2021-08-03T09:04:36.268Z</time>
      </trkpt>
      <trkpt lat="47.02666" lon="8.91972">
        <ele>1113</ele>
        <time>2021-08-03T09:04:37.269Z</time>
      </trkpt>
      <trkpt lat="47.02667" lon="8.91971">
        <ele>1113</ele>
        <time>2021-08-03T09:04:38.269Z</time>
      </trkpt>
      <trkpt lat="47.02667" lon="8.91967">
        <ele>1113</ele>
        <time>2021-08-03T09:04:39.269Z</time>
      </trkpt>
      <trkpt lat="47.02668" lon="8.91966">
        <ele>1113</ele>
        <time>2021-08-03T09:04:40.268Z</time>
      </trkpt>
      <trkpt lat="47.02668" lon="8.91965">
        <ele>1114</ele>
        <time>2021-08-03T09:04:41.268Z</time>
      </trkpt>
      <trkpt lat="47.02667" lon="8.91964">
        <ele>1114</ele>
        <time>2021-08-03T09:04:42.268Z</time>
      </trkpt>
      <trkpt lat="47.02667" lon="8.91963">
        <ele>1114</ele>
        <time>2021-08-03T09:04:43.269Z</time>
      </trkpt>
      <trkpt lat="47.02666" lon="8.91962">
        <ele>1115</ele>
        <time>2021-08-03T09:04:44.268Z</time>
      </trkpt>
      <trkpt lat="47.02665" lon="8.91961">
        <ele>1115</ele>
        <time>2021-08-03T09:04:45.268Z</time>
      </trkpt>
      <trkpt lat="47.02664" lon="8.91959">
        <ele>1115</ele>
        <time>2021-08-03T09:04:46.268Z</time>
      </trkpt>
      <trkpt lat="47.02663" lon="8.91957">
        <ele>1114</ele>
        <time>2021-08-03T09:04:47.268Z</time>
      </trkpt>
      <trkpt lat="47.02662" lon="8.91956">
        <ele>1114</ele>
        <time>2021-08-03T09:04:48.269Z</time>
      </trkpt>
      <trkpt lat="47.0266" lon="8.91954">
        <ele>1114</ele>
        <time>2021-08-03T09:04:49.268Z</time>
      </trkpt>
      <trkpt lat="47.02659" lon="8.91952">
        <ele>1113</ele>
        <time>2021-08-03T09:04:50.268Z</time>
      </trkpt>
      <trkpt lat="47.02658" lon="8.91951">
        <ele>1112</ele>
        <time>2021-08-03T09:04:51.268Z</time>
      </trkpt>
      <trkpt lat="47.02658" lon="8.9195">
        <ele>1111</ele>
        <time>2021-08-03T09:04:52.268Z</time>
      </trkpt>
      <trkpt lat="47.02658" lon="8.91948">
        <ele>1111</ele>
        <time>2021-08-03T09:04:53.268Z</time>
      </trkpt>
      <trkpt lat="47.02658" lon="8.91947">
        <ele>1110</ele>
        <time>2021-08-03T09:04:54.268Z</time>
      </trkpt>
      <trkpt lat="47.02657" lon="8.91946">
        <ele>1110</ele>
        <time>2021-08-03T09:04:55.268Z</time>
      </trkpt>
      <trkpt lat="47.02657" lon="8.91945">
        <ele>1109</ele>
        <time>2021-08-03T09:04:56.269Z</time>
      </trkpt>
      <trkpt lat="47.02656" lon="8.91943">
        <ele>1109</ele>
        <time>2021-08-03T09:04:57.268Z</time>
      </trkpt>
      <trkpt lat="47.02656" lon="8.91942">
        <ele>1108</ele>
        <time>2021-08-03T09:04:58.268Z</time>
      </trkpt>
      <trkpt lat="47.02657" lon="8.9194">
        <ele>1107</ele>
        <time>2021-08-03T09:04:59.268Z</time>
      </trkpt>
      <trkpt lat="47.02657" lon="8.91938">
        <ele>1106</ele>
        <time>2021-08-03T09:05:00.269Z</time>
      </trkpt>
      <trkpt lat="47.02657" lon="8.91936">
        <ele>1106</ele>
        <time>2021-08-03T09:05:01.269Z</time>
      </trkpt>
      <trkpt lat="47.02658" lon="8.91934">
        <ele>1106</ele>
        <time>2021-08-03T09:05:02.269Z</time>
      </trkpt>
      <trkpt lat="47.02658" lon="8.91933">
        <ele>1106</ele>
        <time>2021-08-03T09:05:03.268Z</time>
      </trkpt>
      <trkpt lat="47.02658" lon="8.9193">
        <ele>1105</ele>
        <time>2021-08-03T09:05:04.268Z</time>
      </trkpt>
      <trkpt lat="47.02658" lon="8.91929">
        <ele>1105</ele>
        <time>2021-08-03T09:05:05.268Z</time>
      </trkpt>
      <trkpt lat="47.02659" lon="8.91926">
        <ele>1105</ele>
        <time>2021-08-03T09:05:06.269Z</time>
      </trkpt>
      <trkpt lat="47.02659" lon="8.91924">
        <ele>1105</ele>
        <time>2021-08-03T09:05:07.268Z</time>
      </trkpt>
      <trkpt lat="47.02659" lon="8.91923">
        <ele>1104</ele>
        <time>2021-08-03T09:05:08.268Z</time>
      </trkpt>
      <trkpt lat="47.0266" lon="8.91922">
        <ele>1104</ele>
        <time>2021-08-03T09:05:09.268Z</time>
      </trkpt>
      <trkpt lat="47.0266" lon="8.9192">
        <ele>1104</ele>
        <time>2021-08-03T09:05:10.269Z</time>
      </trkpt>
      <trkpt lat="47.02663" lon="8.91912">
        <ele>1103</ele>
        <time>2021-08-03T09:05:11.270Z</time>
      </trkpt>
      <trkpt lat="47.02662" lon="8.91912">
        <ele>1104</ele>
        <time>2021-08-03T09:05:12.269Z</time>
      </trkpt>
      <trkpt lat="47.02662" lon="8.91911">
        <ele>1104</ele>
        <time>2021-08-03T09:05:13.269Z</time>
      </trkpt>
      <trkpt lat="47.02662" lon="8.91907">
        <ele>1105</ele>
        <time>2021-08-03T09:05:14.271Z</time>
      </trkpt>
      <trkpt lat="47.02662" lon="8.91906">
        <ele>1106</ele>
        <time>2021-08-03T09:05:15.270Z</time>
      </trkpt>
      <trkpt lat="47.02661" lon="8.91905">
        <ele>1107</ele>
        <time>2021-08-03T09:05:16.271Z</time>
      </trkpt>
      <trkpt lat="47.0266" lon="8.91904">
        <ele>1107</ele>
        <time>2021-08-03T09:05:17.271Z</time>
      </trkpt>
      <trkpt lat="47.0266" lon="8.91903">
        <ele>1108</ele>
        <time>2021-08-03T09:05:18.271Z</time>
      </trkpt>
      <trkpt lat="47.0266" lon="8.91902">
        <ele>1109</ele>
        <time>2021-08-03T09:05:19.271Z</time>
      </trkpt>
      <trkpt lat="47.02661" lon="8.91901">
        <ele>1109</ele>
        <time>2021-08-03T09:05:20.271Z</time>
      </trkpt>
      <trkpt lat="47.02661" lon="8.919">
        <ele>1109</ele>
        <time>2021-08-03T09:05:21.270Z</time>
      </trkpt>
      <trkpt lat="47.02661" lon="8.91899">
        <ele>1109</ele>
        <time>2021-08-03T09:05:22.271Z</time>
      </trkpt>
      <trkpt lat="47.02661" lon="8.91898">
        <ele>1109</ele>
        <time>2021-08-03T09:05:23.270Z</time>
      </trkpt>
      <trkpt lat="47.02661" lon="8.91898">
        <ele>1110</ele>
        <time>2021-08-03T09:05:24.271Z</time>
      </trkpt>
      <trkpt lat="47.02662" lon="8.91899">
        <ele>1110</ele>
        <time>2021-08-03T09:05:25.270Z</time>
      </trkpt>
      <trkpt lat="47.02662" lon="8.919">
        <ele>1110</ele>
        <time>2021-08-03T09:05:26.271Z</time>
      </trkpt>
      <trkpt lat="47.02663" lon="8.919">
        <ele>1114</ele>
        <time>2021-08-03T09:05:27.272Z</time>
      </trkpt>
      <trkpt lat="47.02663" lon="8.91899">
        <ele>1115</ele>
        <time>2021-08-03T09:05:28.272Z</time>
      </trkpt>
      <trkpt lat="47.02662" lon="8.91898">
        <ele>1116</ele>
        <time>2021-08-03T09:05:29.271Z</time>
      </trkpt>
      <trkpt lat="47.02656" lon="8.91898">
        <ele>1117</ele>
        <time>2021-08-03T09:05:30.273Z</time>
      </trkpt>
      <trkpt lat="47.02656" lon="8.91898">
        <ele>1117</ele>
        <time>2021-08-03T09:05:31.272Z</time>
      </trkpt>
      <trkpt lat="47.02655" lon="8.91898">
        <ele>1117</ele>
        <time>2021-08-03T09:05:32.272Z</time>
      </trkpt>
      <trkpt lat="47.02655" lon="8.91897">
        <ele>1117</ele>
        <time>2021-08-03T09:05:33.272Z</time>
      </trkpt>
      <trkpt lat="47.02655" lon="8.91896">
        <ele>1117</ele>
        <time>2021-08-03T09:05:34.272Z</time>
      </trkpt>
      <trkpt lat="47.02655" lon="8.91895">
        <ele>1116</ele>
        <time>2021-08-03T09:05:35.273Z</time>
      </trkpt>
      <trkpt lat="47.02654" lon="8.91893">
        <ele>1116</ele>
        <time>2021-08-03T09:05:36.273Z</time>
      </trkpt>
      <trkpt lat="47.02654" lon="8.91892">
        <ele>1115</ele>
        <time>2021-08-03T09:05:37.272Z</time>
      </trkpt>
      <trkpt lat="47.02653" lon="8.91891">
        <ele>1115</ele>
        <time>2021-08-03T09:05:38.272Z</time>
      </trkpt>
      <trkpt lat="47.02652" lon="8.91891">
        <ele>1114</ele>
        <time>2021-08-03T09:05:39.272Z</time>
      </trkpt>
      <trkpt lat="47.02653" lon="8.91891">
        <ele>1114</ele>
        <time>2021-08-03T09:05:40.273Z</time>
      </trkpt>
      <trkpt lat="47.02654" lon="8.9189">
        <ele>1114</ele>
        <time>2021-08-03T09:05:41.272Z</time>
      </trkpt>
      <trkpt lat="47.02654" lon="8.91889">
        <ele>1113</ele>
        <time>2021-08-03T09:05:42.272Z</time>
      </trkpt>
      <trkpt lat="47.02655" lon="8.91888">
        <ele>1113</ele>
        <time>2021-08-03T09:05:43.272Z</time>
      </trkpt>
      <trkpt lat="47.02654" lon="8.91887">
        <ele>1113</ele>
        <time>2021-08-03T09:05:44.272Z</time>
      </trkpt>
      <trkpt lat="47.02654" lon="8.91886">
        <ele>1113</ele>
        <time>2021-08-03T09:05:45.272Z</time>
      </trkpt>
      <trkpt lat="47.02653" lon="8.91886">
        <ele>1113</ele>
        <time>2021-08-03T09:05:46.273Z</time>
      </trkpt>
      <trkpt lat="47.02653" lon="8.91885">
        <ele>1113</ele>
        <time>2021-08-03T09:05:47.272Z</time>
      </trkpt>
      <trkpt lat="47.02653" lon="8.91885">
        <ele>1113</ele>
        <time>2021-08-03T09:05:48.273Z</time>
      </trkpt>
      <trkpt lat="47.02652" lon="8.91885">
        <ele>1113</ele>
        <time>2021-08-03T09:05:49.272Z</time>
      </trkpt>
      <trkpt lat="47.02652" lon="8.91884">
        <ele>1112</ele>
        <time>2021-08-03T09:05:50.273Z</time>
      </trkpt>
      <trkpt lat="47.02652" lon="8.91884">
        <ele>1111</ele>
        <time>2021-08-03T09:05:51.273Z</time>
      </trkpt>
      <trkpt lat="47.02652" lon="8.91883">
        <ele>1111</ele>
        <time>2021-08-03T09:05:52.273Z</time>
      </trkpt>
      <trkpt lat="47.02652" lon="8.91882">
        <ele>1111</ele>
        <time>2021-08-03T09:05:53.272Z</time>
      </trkpt>
      <trkpt lat="47.02652" lon="8.91881">
        <ele>1111</ele>
        <time>2021-08-03T09:05:54.272Z</time>
      </trkpt>
      <trkpt lat="47.02653" lon="8.9188">
        <ele>1112</ele>
        <time>2021-08-03T09:05:55.273Z</time>
      </trkpt>
      <trkpt lat="47.02652" lon="8.9188">
        <ele>1112</ele>
        <time>2021-08-03T09:05:56.273Z</time>
      </trkpt>
      <trkpt lat="47.02652" lon="8.91879">
        <ele>1112</ele>
        <time>2021-08-03T09:05:57.273Z</time>
      </trkpt>
      <trkpt lat="47.0265" lon="8.91878">
        <ele>1112</ele>
        <time>2021-08-03T09:05:58.272Z</time>
      </trkpt>
      <trkpt lat="47.02649" lon="8.91877">
        <ele>1112</ele>
        <time>2021-08-03T09:05:59.273Z</time>
      </trkpt>
      <trkpt lat="47.02648" lon="8.91877">
        <ele>1112</ele>
        <time>2021-08-03T09:06:00.272Z</time>
      </trkpt>
      <trkpt lat="47.02648" lon="8.91877">
        <ele>1105</ele>
        <time>2021-08-03T09:06:01.272Z</time>
      </trkpt>
      <trkpt lat="47.02648" lon="8.91876">
        <ele>1104</ele>
        <time>2021-08-03T09:06:02.272Z</time>
      </trkpt>
      <trkpt lat="47.02649" lon="8.91875">
        <ele>1104</ele>
        <time>2021-08-03T09:06:03.272Z</time>
      </trkpt>
      <trkpt lat="47.02649" lon="8.91874">
        <ele>1104</ele>
        <time>2021-08-03T09:06:04.273Z</time>
      </trkpt>
      <trkpt lat="47.02649" lon="8.91873">
        <ele>1104</ele>
        <time>2021-08-03T09:06:05.273Z</time>
      </trkpt>
      <trkpt lat="47.02649" lon="8.91872">
        <ele>1104</ele>
        <time>2021-08-03T09:06:06.273Z</time>
      </trkpt>
      <trkpt lat="47.02649" lon="8.91871">
        <ele>1104</ele>
        <time>2021-08-03T09:06:07.273Z</time>
      </trkpt>
      <trkpt lat="47.0265" lon="8.9187">
        <ele>1105</ele>
        <time>2021-08-03T09:06:08.273Z</time>
      </trkpt>
      <trkpt lat="47.0265" lon="8.91869">
        <ele>1105</ele>
        <time>2021-08-03T09:06:09.273Z</time>
      </trkpt>
      <trkpt lat="47.02651" lon="8.91868">
        <ele>1105</ele>
        <time>2021-08-03T09:06:10.273Z</time>
      </trkpt>
      <trkpt lat="47.02651" lon="8.91867">
        <ele>1105</ele>
        <time>2021-08-03T09:06:11.273Z</time>
      </trkpt>
      <trkpt lat="47.02651" lon="8.91866">
        <ele>1106</ele>
        <time>2021-08-03T09:06:12.273Z</time>
      </trkpt>
      <trkpt lat="47.02652" lon="8.91864">
        <ele>1106</ele>
        <time>2021-08-03T09:06:13.273Z</time>
      </trkpt>
      <trkpt lat="47.02652" lon="8.91863">
        <ele>1106</ele>
        <time>2021-08-03T09:06:14.273Z</time>
      </trkpt>
      <trkpt lat="47.02652" lon="8.91863">
        <ele>1107</ele>
        <time>2021-08-03T09:06:15.273Z</time>
      </trkpt>
      <trkpt lat="47.02653" lon="8.91863">
        <ele>1107</ele>
        <time>2021-08-03T09:06:16.273Z</time>
      </trkpt>
      <trkpt lat="47.02653" lon="8.91864">
        <ele>1108</ele>
        <time>2021-08-03T09:06:17.273Z</time>
      </trkpt>
      <trkpt lat="47.02654" lon="8.91864">
        <ele>1108</ele>
        <time>2021-08-03T09:06:18.273Z</time>
      </trkpt>
      <trkpt lat="47.02654" lon="8.91864">
        <ele>1109</ele>
        <time>2021-08-03T09:06:19.272Z</time>
      </trkpt>
      <trkpt lat="47.02655" lon="8.91863">
        <ele>1109</ele>
        <time>2021-08-03T09:06:20.273Z</time>
      </trkpt>
      <trkpt lat="47.02655" lon="8.91863">
        <ele>1109</ele>
        <time>2021-08-03T09:06:21.272Z</time>
      </trkpt>
      <trkpt lat="47.02655" lon="8.91862">
        <ele>1109</ele>
        <time>2021-08-03T09:06:22.273Z</time>
      </trkpt>
      <trkpt lat="47.02655" lon="8.91862">
        <ele>1109</ele>
        <time>2021-08-03T09:06:23.272Z</time>
      </trkpt>
      <trkpt lat="47.02656" lon="8.91861">
        <ele>1109</ele>
        <time>2021-08-03T09:06:24.273Z</time>
      </trkpt>
      <trkpt lat="47.02656" lon="8.9186">
        <ele>1109</ele>
        <time>2021-08-03T09:06:25.272Z</time>
      </trkpt>
      <trkpt lat="47.02657" lon="8.91859">
        <ele>1109</ele>
        <time>2021-08-03T09:06:26.273Z</time>
      </trkpt>
      <trkpt lat="47.02657" lon="8.91859">
        <ele>1109</ele>
        <time>2021-08-03T09:06:27.273Z</time>
      </trkpt>
      <trkpt lat="47.02658" lon="8.91858">
        <ele>1110</ele>
        <time>2021-08-03T09:06:28.273Z</time>
      </trkpt>
      <trkpt lat="47.02658" lon="8.91857">
        <ele>1110</ele>
        <time>2021-08-03T09:06:29.273Z</time>
      </trkpt>
      <trkpt lat="47.02658" lon="8.91856">
        <ele>1110</ele>
        <time>2021-08-03T09:06:30.272Z</time>
      </trkpt>
      <trkpt lat="47.02658" lon="8.91854">
        <ele>1110</ele>
        <time>2021-08-03T09:06:31.272Z</time>
      </trkpt>
      <trkpt lat="47.02658" lon="8.91853">
        <ele>1110</ele>
        <time>2021-08-03T09:06:32.273Z</time>
      </trkpt>
      <trkpt lat="47.02659" lon="8.91852">
        <ele>1110</ele>
        <time>2021-08-03T09:06:33.273Z</time>
      </trkpt>
      <trkpt lat="47.02659" lon="8.91851">
        <ele>1110</ele>
        <time>2021-08-03T09:06:34.273Z</time>
      </trkpt>
      <trkpt lat="47.0266" lon="8.9185">
        <ele>1110</ele>
        <time>2021-08-03T09:06:35.273Z</time>
      </trkpt>
      <trkpt lat="47.0266" lon="8.91849">
        <ele>1111</ele>
        <time>2021-08-03T09:06:36.273Z</time>
      </trkpt>
      <trkpt lat="47.02661" lon="8.91849">
        <ele>1111</ele>
        <time>2021-08-03T09:06:37.272Z</time>
      </trkpt>
      <trkpt lat="47.02661" lon="8.91848">
        <ele>1111</ele>
        <time>2021-08-03T09:06:38.273Z</time>
      </trkpt>
      <trkpt lat="47.02662" lon="8.91847">
        <ele>1111</ele>
        <time>2021-08-03T09:06:39.273Z</time>
      </trkpt>
      <trkpt lat="47.02663" lon="8.91847">
        <ele>1112</ele>
        <time>2021-08-03T09:06:40.272Z</time>
      </trkpt>
      <trkpt lat="47.02663" lon="8.91846">
        <ele>1112</ele>
        <time>2021-08-03T09:06:41.273Z</time>
      </trkpt>
      <trkpt lat="47.02665" lon="8.91845">
        <ele>1112</ele>
        <time>2021-08-03T09:06:42.272Z</time>
      </trkpt>
      <trkpt lat="47.02666" lon="8.91844">
        <ele>1112</ele>
        <time>2021-08-03T09:06:43.272Z</time>
      </trkpt>
      <trkpt lat="47.02666" lon="8.91844">
        <ele>1113</ele>
        <time>2021-08-03T09:06:44.273Z</time>
      </trkpt>
      <trkpt lat="47.02666" lon="8.91842">
        <ele>1114</ele>
        <time>2021-08-03T09:06:45.273Z</time>
      </trkpt>
      <trkpt lat="47.02666" lon="8.91842">
        <ele>1115</ele>
        <time>2021-08-03T09:06:46.273Z</time>
      </trkpt>
      <trkpt lat="47.02666" lon="8.91842">
        <ele>1116</ele>
        <time>2021-08-03T09:06:47.272Z</time>
      </trkpt>
      <trkpt lat="47.02667" lon="8.91842">
        <ele>1117</ele>
        <time>2021-08-03T09:06:48.273Z</time>
      </trkpt>
      <trkpt lat="47.02667" lon="8.91842">
        <ele>1118</ele>
        <time>2021-08-03T09:06:49.273Z</time>
      </trkpt>
      <trkpt lat="47.02668" lon="8.91842">
        <ele>1118</ele>
        <time>2021-08-03T09:06:50.273Z</time>
      </trkpt>
      <trkpt lat="47.02668" lon="8.91842">
        <ele>1119</ele>
        <time>2021-08-03T09:06:51.273Z</time>
      </trkpt>
      <trkpt lat="47.02668" lon="8.91841">
        <ele>1120</ele>
        <time>2021-08-03T09:06:52.272Z</time>
      </trkpt>
      <trkpt lat="47.02668" lon="8.91841">
        <ele>1121</ele>
        <time>2021-08-03T09:06:53.272Z</time>
      </trkpt>
      <trkpt lat="47.02669" lon="8.91841">
        <ele>1121</ele>
        <time>2021-08-03T09:06:54.273Z</time>
      </trkpt>
      <trkpt lat="47.02669" lon="8.91841">
        <ele>1121</ele>
        <time>2021-08-03T09:06:55.272Z</time>
      </trkpt>
      <trkpt lat="47.0267" lon="8.91841">
        <ele>1122</ele>
        <time>2021-08-03T09:06:56.273Z</time>
      </trkpt>
      <trkpt lat="47.02671" lon="8.91841">
        <ele>1121</ele>
        <time>2021-08-03T09:06:57.273Z</time>
      </trkpt>
      <trkpt lat="47.02672" lon="8.91841">
        <ele>1121</ele>
        <time>2021-08-03T09:06:58.272Z</time>
      </trkpt>
      <trkpt lat="47.02673" lon="8.91841">
        <ele>1121</ele>
        <time>2021-08-03T09:06:59.273Z</time>
      </trkpt>
      <trkpt lat="47.02673" lon="8.91841">
        <ele>1120</ele>
        <time>2021-08-03T09:07:00.273Z</time>
      </trkpt>
      <trkpt lat="47.02674" lon="8.9184">
        <ele>1120</ele>
        <time>2021-08-03T09:07:01.273Z</time>
      </trkpt>
      <trkpt lat="47.02674" lon="8.91839">
        <ele>1120</ele>
        <time>2021-08-03T09:07:02.273Z</time>
      </trkpt>
      <trkpt lat="47.02675" lon="8.91838">
        <ele>1120</ele>
        <time>2021-08-03T09:07:03.273Z</time>
      </trkpt>
      <trkpt lat="47.02675" lon="8.91837">
        <ele>1119</ele>
        <time>2021-08-03T09:07:04.272Z</time>
      </trkpt>
      <trkpt lat="47.02676" lon="8.91837">
        <ele>1119</ele>
        <time>2021-08-03T09:07:05.273Z</time>
      </trkpt>
      <trkpt lat="47.02676" lon="8.91837">
        <ele>1119</ele>
        <time>2021-08-03T09:07:06.272Z</time>
      </trkpt>
      <trkpt lat="47.02677" lon="8.91837">
        <ele>1119</ele>
        <time>2021-08-03T09:07:07.272Z</time>
      </trkpt>
      <trkpt lat="47.02678" lon="8.91837">
        <ele>1118</ele>
        <time>2021-08-03T09:07:08.273Z</time>
      </trkpt>
      <trkpt lat="47.02678" lon="8.91836">
        <ele>1118</ele>
        <time>2021-08-03T09:07:09.272Z</time>
      </trkpt>
      <trkpt lat="47.02679" lon="8.91834">
        <ele>1118</ele>
        <time>2021-08-03T09:07:10.272Z</time>
      </trkpt>
      <trkpt lat="47.02679" lon="8.91833">
        <ele>1118</ele>
        <time>2021-08-03T09:07:11.273Z</time>
      </trkpt>
      <trkpt lat="47.02679" lon="8.91832">
        <ele>1118</ele>
        <time>2021-08-03T09:07:12.273Z</time>
      </trkpt>
      <trkpt lat="47.0268" lon="8.91831">
        <ele>1118</ele>
        <time>2021-08-03T09:07:13.273Z</time>
      </trkpt>
      <trkpt lat="47.0268" lon="8.91829">
        <ele>1118</ele>
        <time>2021-08-03T09:07:14.273Z</time>
      </trkpt>
      <trkpt lat="47.02681" lon="8.91827">
        <ele>1118</ele>
        <time>2021-08-03T09:07:15.273Z</time>
      </trkpt>
      <trkpt lat="47.02681" lon="8.91826">
        <ele>1118</ele>
        <time>2021-08-03T09:07:16.272Z</time>
      </trkpt>
      <trkpt lat="47.02682" lon="8.91826">
        <ele>1118</ele>
        <time>2021-08-03T09:07:17.272Z</time>
      </trkpt>
      <trkpt lat="47.02682" lon="8.91827">
        <ele>1119</ele>
        <time>2021-08-03T09:07:18.273Z</time>
      </trkpt>
      <trkpt lat="47.02683" lon="8.91827">
        <ele>1119</ele>
        <time>2021-08-03T09:07:19.273Z</time>
      </trkpt>
      <trkpt lat="47.02683" lon="8.91827">
        <ele>1119</ele>
        <time>2021-08-03T09:07:20.272Z</time>
      </trkpt>
      <trkpt lat="47.02683" lon="8.91828">
        <ele>1119</ele>
        <time>2021-08-03T09:07:21.273Z</time>
      </trkpt>
      <trkpt lat="47.02683" lon="8.91828">
        <ele>1119</ele>
        <time>2021-08-03T09:07:22.272Z</time>
      </trkpt>
      <trkpt lat="47.02684" lon="8.91827">
        <ele>1120</ele>
        <time>2021-08-03T09:07:23.273Z</time>
      </trkpt>
      <trkpt lat="47.02684" lon="8.91827">
        <ele>1120</ele>
        <time>2021-08-03T09:07:24.273Z</time>
      </trkpt>
      <trkpt lat="47.02685" lon="8.91826">
        <ele>1120</ele>
        <time>2021-08-03T09:07:25.272Z</time>
      </trkpt>
      <trkpt lat="47.02685" lon="8.91827">
        <ele>1120</ele>
        <time>2021-08-03T09:07:26.273Z</time>
      </trkpt>
      <trkpt lat="47.02686" lon="8.91827">
        <ele>1121</ele>
        <time>2021-08-03T09:07:27.273Z</time>
      </trkpt>
      <trkpt lat="47.02686" lon="8.91828">
        <ele>1121</ele>
        <time>2021-08-03T09:07:28.272Z</time>
      </trkpt>
      <trkpt lat="47.02686" lon="8.91828">
        <ele>1122</ele>
        <time>2021-08-03T09:07:29.273Z</time>
      </trkpt>
      <trkpt lat="47.02687" lon="8.91828">
        <ele>1122</ele>
        <time>2021-08-03T09:07:30.273Z</time>
      </trkpt>
      <trkpt lat="47.02687" lon="8.91828">
        <ele>1123</ele>
        <time>2021-08-03T09:07:31.273Z</time>
      </trkpt>
      <trkpt lat="47.02688" lon="8.91828">
        <ele>1123</ele>
        <time>2021-08-03T09:07:32.272Z</time>
      </trkpt>
      <trkpt lat="47.02689" lon="8.91829">
        <ele>1123</ele>
        <time>2021-08-03T09:07:33.273Z</time>
      </trkpt>
      <trkpt lat="47.0269" lon="8.9183">
        <ele>1123</ele>
        <time>2021-08-03T09:07:34.273Z</time>
      </trkpt>
      <trkpt lat="47.0269" lon="8.9183">
        <ele>1124</ele>
        <time>2021-08-03T09:07:35.273Z</time>
      </trkpt>
      <trkpt lat="47.0269" lon="8.91831">
        <ele>1124</ele>
        <time>2021-08-03T09:07:36.273Z</time>
      </trkpt>
      <trkpt lat="47.0269" lon="8.91832">
        <ele>1124</ele>
        <time>2021-08-03T09:07:37.273Z</time>
      </trkpt>
      <trkpt lat="47.02691" lon="8.91833">
        <ele>1124</ele>
        <time>2021-08-03T09:07:38.273Z</time>
      </trkpt>
      <trkpt lat="47.02692" lon="8.91833">
        <ele>1125</ele>
        <time>2021-08-03T09:07:39.273Z</time>
      </trkpt>
      <trkpt lat="47.02692" lon="8.91834">
        <ele>1125</ele>
        <time>2021-08-03T09:07:40.273Z</time>
      </trkpt>
      <trkpt lat="47.02693" lon="8.91835">
        <ele>1125</ele>
        <time>2021-08-03T09:07:41.272Z</time>
      </trkpt>
      <trkpt lat="47.02693" lon="8.91836">
        <ele>1126</ele>
        <time>2021-08-03T09:07:42.273Z</time>
      </trkpt>
      <trkpt lat="47.02694" lon="8.91837">
        <ele>1126</ele>
        <time>2021-08-03T09:07:43.273Z</time>
      </trkpt>
      <trkpt lat="47.02694" lon="8.91837">
        <ele>1127</ele>
        <time>2021-08-03T09:07:44.273Z</time>
      </trkpt>
      <trkpt lat="47.02695" lon="8.91837">
        <ele>1127</ele>
        <time>2021-08-03T09:07:45.273Z</time>
      </trkpt>
      <trkpt lat="47.02696" lon="8.91837">
        <ele>1127</ele>
        <time>2021-08-03T09:07:46.273Z</time>
      </trkpt>
      <trkpt lat="47.02697" lon="8.91837">
        <ele>1128</ele>
        <time>2021-08-03T09:07:47.273Z</time>
      </trkpt>
      <trkpt lat="47.02698" lon="8.91838">
        <ele>1128</ele>
        <time>2021-08-03T09:07:48.272Z</time>
      </trkpt>
      <trkpt lat="47.02699" lon="8.91838">
        <ele>1129</ele>
        <time>2021-08-03T09:07:49.273Z</time>
      </trkpt>
      <trkpt lat="47.027" lon="8.91838">
        <ele>1129</ele>
        <time>2021-08-03T09:07:50.272Z</time>
      </trkpt>
      <trkpt lat="47.02701" lon="8.91839">
        <ele>1129</ele>
        <time>2021-08-03T09:07:51.273Z</time>
      </trkpt>
      <trkpt lat="47.02701" lon="8.91838">
        <ele>1129</ele>
        <time>2021-08-03T09:07:52.273Z</time>
      </trkpt>
      <trkpt lat="47.02703" lon="8.91838">
        <ele>1129</ele>
        <time>2021-08-03T09:07:53.273Z</time>
      </trkpt>
      <trkpt lat="47.02703" lon="8.91837">
        <ele>1129</ele>
        <time>2021-08-03T09:07:54.273Z</time>
      </trkpt>
      <trkpt lat="47.02704" lon="8.91837">
        <ele>1129</ele>
        <time>2021-08-03T09:07:55.272Z</time>
      </trkpt>
      <trkpt lat="47.02705" lon="8.91836">
        <ele>1129</ele>
        <time>2021-08-03T09:07:56.272Z</time>
      </trkpt>
      <trkpt lat="47.02706" lon="8.91835">
        <ele>1128</ele>
        <time>2021-08-03T09:07:57.272Z</time>
      </trkpt>
      <trkpt lat="47.02706" lon="8.91834">
        <ele>1128</ele>
        <time>2021-08-03T09:07:58.273Z</time>
      </trkpt>
      <trkpt lat="47.02706" lon="8.91833">
        <ele>1128</ele>
        <time>2021-08-03T09:07:59.273Z</time>
      </trkpt>
      <trkpt lat="47.02706" lon="8.91832">
        <ele>1128</ele>
        <time>2021-08-03T09:08:00.273Z</time>
      </trkpt>
      <trkpt lat="47.02706" lon="8.91831">
        <ele>1129</ele>
        <time>2021-08-03T09:08:01.273Z</time>
      </trkpt>
      <trkpt lat="47.02706" lon="8.91831">
        <ele>1129</ele>
        <time>2021-08-03T09:08:02.273Z</time>
      </trkpt>
      <trkpt lat="47.02706" lon="8.9183">
        <ele>1130</ele>
        <time>2021-08-03T09:08:03.272Z</time>
      </trkpt>
      <trkpt lat="47.02706" lon="8.91829">
        <ele>1130</ele>
        <time>2021-08-03T09:08:04.272Z</time>
      </trkpt>
      <trkpt lat="47.02706" lon="8.91828">
        <ele>1130</ele>
        <time>2021-08-03T09:08:05.272Z</time>
      </trkpt>
      <trkpt lat="47.02706" lon="8.91826">
        <ele>1130</ele>
        <time>2021-08-03T09:08:06.272Z</time>
      </trkpt>
      <trkpt lat="47.02706" lon="8.91825">
        <ele>1130</ele>
        <time>2021-08-03T09:08:07.272Z</time>
      </trkpt>
      <trkpt lat="47.02706" lon="8.91824">
        <ele>1130</ele>
        <time>2021-08-03T09:08:08.273Z</time>
      </trkpt>
      <trkpt lat="47.02707" lon="8.91822">
        <ele>1130</ele>
        <time>2021-08-03T09:08:09.272Z</time>
      </trkpt>
      <trkpt lat="47.02707" lon="8.91821">
        <ele>1130</ele>
        <time>2021-08-03T09:08:10.272Z</time>
      </trkpt>
      <trkpt lat="47.02708" lon="8.91819">
        <ele>1130</ele>
        <time>2021-08-03T09:08:11.272Z</time>
      </trkpt>
      <trkpt lat="47.02709" lon="8.91818">
        <ele>1130</ele>
        <time>2021-08-03T09:08:12.272Z</time>
      </trkpt>
      <trkpt lat="47.0271" lon="8.91817">
        <ele>1131</ele>
        <time>2021-08-03T09:08:13.272Z</time>
      </trkpt>
      <trkpt lat="47.0271" lon="8.91817">
        <ele>1131</ele>
        <time>2021-08-03T09:08:14.273Z</time>
      </trkpt>
      <trkpt lat="47.0271" lon="8.91816">
        <ele>1131</ele>
        <time>2021-08-03T09:08:15.273Z</time>
      </trkpt>
      <trkpt lat="47.0271" lon="8.91815">
        <ele>1131</ele>
        <time>2021-08-03T09:08:16.273Z</time>
      </trkpt>
      <trkpt lat="47.0271" lon="8.91814">
        <ele>1131</ele>
        <time>2021-08-03T09:08:17.273Z</time>
      </trkpt>
      <trkpt lat="47.02711" lon="8.91812">
        <ele>1131</ele>
        <time>2021-08-03T09:08:18.272Z</time>
      </trkpt>
      <trkpt lat="47.02711" lon="8.91811">
        <ele>1132</ele>
        <time>2021-08-03T09:08:19.273Z</time>
      </trkpt>
      <trkpt lat="47.02711" lon="8.91811">
        <ele>1132</ele>
        <time>2021-08-03T09:08:20.273Z</time>
      </trkpt>
      <trkpt lat="47.02712" lon="8.9181">
        <ele>1132</ele>
        <time>2021-08-03T09:08:21.273Z</time>
      </trkpt>
      <trkpt lat="47.02712" lon="8.91809">
        <ele>1133</ele>
        <time>2021-08-03T09:08:22.273Z</time>
      </trkpt>
      <trkpt lat="47.02713" lon="8.91808">
        <ele>1133</ele>
        <time>2021-08-03T09:08:23.273Z</time>
      </trkpt>
      <trkpt lat="47.02714" lon="8.91807">
        <ele>1133</ele>
        <time>2021-08-03T09:08:24.273Z</time>
      </trkpt>
      <trkpt lat="47.02715" lon="8.91807">
        <ele>1134</ele>
        <time>2021-08-03T09:08:25.273Z</time>
      </trkpt>
      <trkpt lat="47.02715" lon="8.91807">
        <ele>1134</ele>
        <time>2021-08-03T09:08:26.273Z</time>
      </trkpt>
      <trkpt lat="47.02716" lon="8.91807">
        <ele>1134</ele>
        <time>2021-08-03T09:08:27.272Z</time>
      </trkpt>
      <trkpt lat="47.02717" lon="8.91808">
        <ele>1134</ele>
        <time>2021-08-03T09:08:28.272Z</time>
      </trkpt>
      <trkpt lat="47.02718" lon="8.91808">
        <ele>1133</ele>
        <time>2021-08-03T09:08:29.273Z</time>
      </trkpt>
      <trkpt lat="47.02719" lon="8.91807">
        <ele>1133</ele>
        <time>2021-08-03T09:08:30.273Z</time>
      </trkpt>
      <trkpt lat="47.02719" lon="8.91807">
        <ele>1133</ele>
        <time>2021-08-03T09:08:31.272Z</time>
      </trkpt>
      <trkpt lat="47.0272" lon="8.91806">
        <ele>1133</ele>
        <time>2021-08-03T09:08:32.273Z</time>
      </trkpt>
      <trkpt lat="47.0272" lon="8.91805">
        <ele>1133</ele>
        <time>2021-08-03T09:08:33.273Z</time>
      </trkpt>
      <trkpt lat="47.02721" lon="8.91806">
        <ele>1132</ele>
        <time>2021-08-03T09:08:34.273Z</time>
      </trkpt>
      <trkpt lat="47.02721" lon="8.91806">
        <ele>1132</ele>
        <time>2021-08-03T09:08:35.273Z</time>
      </trkpt>
      <trkpt lat="47.02721" lon="8.91806">
        <ele>1132</ele>
        <time>2021-08-03T09:08:36.273Z</time>
      </trkpt>
      <trkpt lat="47.0272" lon="8.91806">
        <ele>1132</ele>
        <time>2021-08-03T09:08:37.273Z</time>
      </trkpt>
      <trkpt lat="47.02719" lon="8.91807">
        <ele>1132</ele>
        <time>2021-08-03T09:08:38.272Z</time>
      </trkpt>
      <trkpt lat="47.02719" lon="8.91806">
        <ele>1131</ele>
        <time>2021-08-03T09:08:39.273Z</time>
      </trkpt>
      <trkpt lat="47.02719" lon="8.91806">
        <ele>1131</ele>
        <time>2021-08-03T09:08:40.273Z</time>
      </trkpt>
      <trkpt lat="47.02719" lon="8.91805">
        <ele>1131</ele>
        <time>2021-08-03T09:08:41.272Z</time>
      </trkpt>
      <trkpt lat="47.02719" lon="8.91804">
        <ele>1130</ele>
        <time>2021-08-03T09:08:42.273Z</time>
      </trkpt>
      <trkpt lat="47.0272" lon="8.91805">
        <ele>1130</ele>
        <time>2021-08-03T09:08:43.274Z</time>
      </trkpt>
      <trkpt lat="47.0272" lon="8.91805">
        <ele>1129</ele>
        <time>2021-08-03T09:08:44.274Z</time>
      </trkpt>
      <trkpt lat="47.0272" lon="8.91806">
        <ele>1129</ele>
        <time>2021-08-03T09:08:45.273Z</time>
      </trkpt>
      <trkpt lat="47.0272" lon="8.91806">
        <ele>1128</ele>
        <time>2021-08-03T09:08:46.274Z</time>
      </trkpt>
      <trkpt lat="47.02722" lon="8.91806">
        <ele>1124</ele>
        <time>2021-08-03T09:08:47.275Z</time>
      </trkpt>
      <trkpt lat="47.02722" lon="8.91805">
        <ele>1124</ele>
        <time>2021-08-03T09:08:48.274Z</time>
      </trkpt>
      <trkpt lat="47.02722" lon="8.91805">
        <ele>1124</ele>
        <time>2021-08-03T09:08:49.274Z</time>
      </trkpt>
      <trkpt lat="47.02722" lon="8.91805">
        <ele>1124</ele>
        <time>2021-08-03T09:08:50.275Z</time>
      </trkpt>
      <trkpt lat="47.02722" lon="8.91804">
        <ele>1124</ele>
        <time>2021-08-03T09:08:51.275Z</time>
      </trkpt>
      <trkpt lat="47.02722" lon="8.91804">
        <ele>1124</ele>
        <time>2021-08-03T09:08:52.274Z</time>
      </trkpt>
      <trkpt lat="47.02724" lon="8.91806">
        <ele>1124</ele>
        <time>2021-08-03T09:08:53.274Z</time>
      </trkpt>
      <trkpt lat="47.02725" lon="8.91808">
        <ele>1124</ele>
        <time>2021-08-03T09:08:54.275Z</time>
      </trkpt>
      <trkpt lat="47.02726" lon="8.91809">
        <ele>1123</ele>
        <time>2021-08-03T09:08:55.274Z</time>
      </trkpt>
      <trkpt lat="47.02726" lon="8.91811">
        <ele>1123</ele>
        <time>2021-08-03T09:08:56.274Z</time>
      </trkpt>
      <trkpt lat="47.02726" lon="8.91812">
        <ele>1123</ele>
        <time>2021-08-03T09:08:57.275Z</time>
      </trkpt>
      <trkpt lat="47.02725" lon="8.91813">
        <ele>1122</ele>
        <time>2021-08-03T09:08:58.274Z</time>
      </trkpt>
      <trkpt lat="47.02725" lon="8.91813">
        <ele>1122</ele>
        <time>2021-08-03T09:08:59.274Z</time>
      </trkpt>
      <trkpt lat="47.02724" lon="8.91814">
        <ele>1122</ele>
        <time>2021-08-03T09:09:00.274Z</time>
      </trkpt>
      <trkpt lat="47.02725" lon="8.91814">
        <ele>1122</ele>
        <time>2021-08-03T09:09:01.274Z</time>
      </trkpt>
      <trkpt lat="47.02726" lon="8.91814">
        <ele>1122</ele>
        <time>2021-08-03T09:09:02.274Z</time>
      </trkpt>
      <trkpt lat="47.02727" lon="8.91814">
        <ele>1122</ele>
        <time>2021-08-03T09:09:03.274Z</time>
      </trkpt>
      <trkpt lat="47.02728" lon="8.91813">
        <ele>1123</ele>
        <time>2021-08-03T09:09:04.274Z</time>
      </trkpt>
      <trkpt lat="47.02728" lon="8.91811">
        <ele>1123</ele>
        <time>2021-08-03T09:09:05.274Z</time>
      </trkpt>
      <trkpt lat="47.02728" lon="8.91811">
        <ele>1124</ele>
        <time>2021-08-03T09:09:06.274Z</time>
      </trkpt>
      <trkpt lat="47.02728" lon="8.9181">
        <ele>1125</ele>
        <time>2021-08-03T09:09:07.275Z</time>
      </trkpt>
      <trkpt lat="47.02729" lon="8.91809">
        <ele>1125</ele>
        <time>2021-08-03T09:09:08.274Z</time>
      </trkpt>
      <trkpt lat="47.02729" lon="8.91809">
        <ele>1126</ele>
        <time>2021-08-03T09:09:09.274Z</time>
      </trkpt>
      <trkpt lat="47.02729" lon="8.91809">
        <ele>1127</ele>
        <time>2021-08-03T09:09:10.274Z</time>
      </trkpt>
      <trkpt lat="47.02729" lon="8.91808">
        <ele>1128</ele>
        <time>2021-08-03T09:09:11.274Z</time>
      </trkpt>
      <trkpt lat="47.0273" lon="8.91807">
        <ele>1128</ele>
        <time>2021-08-03T09:09:12.275Z</time>
      </trkpt>
      <trkpt lat="47.02731" lon="8.91806">
        <ele>1128</ele>
        <time>2021-08-03T09:09:13.274Z</time>
      </trkpt>
      <trkpt lat="47.02731" lon="8.91805">
        <ele>1129</ele>
        <time>2021-08-03T09:09:14.274Z</time>
      </trkpt>
      <trkpt lat="47.02732" lon="8.91804">
        <ele>1129</ele>
        <time>2021-08-03T09:09:15.274Z</time>
      </trkpt>
      <trkpt lat="47.02732" lon="8.91804">
        <ele>1129</ele>
        <time>2021-08-03T09:09:16.275Z</time>
      </trkpt>
      <trkpt lat="47.02732" lon="8.91804">
        <ele>1130</ele>
        <time>2021-08-03T09:09:17.274Z</time>
      </trkpt>
      <trkpt lat="47.02733" lon="8.91804">
        <ele>1130</ele>
        <time>2021-08-03T09:09:18.274Z</time>
      </trkpt>
      <trkpt lat="47.02733" lon="8.91805">
        <ele>1130</ele>
        <time>2021-08-03T09:09:19.274Z</time>
      </trkpt>
      <trkpt lat="47.02733" lon="8.91806">
        <ele>1130</ele>
        <time>2021-08-03T09:09:20.274Z</time>
      </trkpt>
      <trkpt lat="47.02734" lon="8.91807">
        <ele>1130</ele>
        <time>2021-08-03T09:09:21.274Z</time>
      </trkpt>
      <trkpt lat="47.02734" lon="8.91807">
        <ele>1130</ele>
        <time>2021-08-03T09:09:22.274Z</time>
      </trkpt>
      <trkpt lat="47.02735" lon="8.91806">
        <ele>1130</ele>
        <time>2021-08-03T09:09:23.274Z</time>
      </trkpt>
      <trkpt lat="47.02736" lon="8.91805">
        <ele>1130</ele>
        <time>2021-08-03T09:09:24.274Z</time>
      </trkpt>
      <trkpt lat="47.02736" lon="8.91805">
        <ele>1131</ele>
        <time>2021-08-03T09:09:25.274Z</time>
      </trkpt>
      <trkpt lat="47.02737" lon="8.91804">
        <ele>1131</ele>
        <time>2021-08-03T09:09:26.274Z</time>
      </trkpt>
      <trkpt lat="47.02738" lon="8.91803">
        <ele>1131</ele>
        <time>2021-08-03T09:09:27.274Z</time>
      </trkpt>
      <trkpt lat="47.02738" lon="8.91802">
        <ele>1132</ele>
        <time>2021-08-03T09:09:28.274Z</time>
      </trkpt>
      <trkpt lat="47.02739" lon="8.91802">
        <ele>1132</ele>
        <time>2021-08-03T09:09:29.274Z</time>
      </trkpt>
      <trkpt lat="47.0274" lon="8.91803">
        <ele>1132</ele>
        <time>2021-08-03T09:09:30.275Z</time>
      </trkpt>
      <trkpt lat="47.02741" lon="8.91803">
        <ele>1132</ele>
        <time>2021-08-03T09:09:31.275Z</time>
      </trkpt>
      <trkpt lat="47.02741" lon="8.91803">
        <ele>1132</ele>
        <time>2021-08-03T09:09:32.274Z</time>
      </trkpt>
      <trkpt lat="47.02741" lon="8.91803">
        <ele>1132</ele>
        <time>2021-08-03T09:09:33.274Z</time>
      </trkpt>
      <trkpt lat="47.02742" lon="8.91801">
        <ele>1133</ele>
        <time>2021-08-03T09:09:34.274Z</time>
      </trkpt>
      <trkpt lat="47.02742" lon="8.91801">
        <ele>1133</ele>
        <time>2021-08-03T09:09:35.274Z</time>
      </trkpt>
      <trkpt lat="47.02742" lon="8.918">
        <ele>1133</ele>
        <time>2021-08-03T09:09:36.275Z</time>
      </trkpt>
      <trkpt lat="47.02742" lon="8.91799">
        <ele>1134</ele>
        <time>2021-08-03T09:09:37.275Z</time>
      </trkpt>
      <trkpt lat="47.02742" lon="8.91797">
        <ele>1134</ele>
        <time>2021-08-03T09:09:38.274Z</time>
      </trkpt>
      <trkpt lat="47.02742" lon="8.91795">
        <ele>1134</ele>
        <time>2021-08-03T09:09:39.274Z</time>
      </trkpt>
      <trkpt lat="47.02741" lon="8.91794">
        <ele>1134</ele>
        <time>2021-08-03T09:09:40.275Z</time>
      </trkpt>
      <trkpt lat="47.02742" lon="8.91793">
        <ele>1135</ele>
        <time>2021-08-03T09:09:41.275Z</time>
      </trkpt>
      <trkpt lat="47.02742" lon="8.91792">
        <ele>1135</ele>
        <time>2021-08-03T09:09:42.274Z</time>
      </trkpt>
      <trkpt lat="47.02741" lon="8.91791">
        <ele>1135</ele>
        <time>2021-08-03T09:09:43.275Z</time>
      </trkpt>
      <trkpt lat="47.02741" lon="8.9179">
        <ele>1135</ele>
        <time>2021-08-03T09:09:44.275Z</time>
      </trkpt>
      <trkpt lat="47.02741" lon="8.91788">
        <ele>1135</ele>
        <time>2021-08-03T09:09:45.275Z</time>
      </trkpt>
      <trkpt lat="47.02741" lon="8.91786">
        <ele>1136</ele>
        <time>2021-08-03T09:09:46.275Z</time>
      </trkpt>
      <trkpt lat="47.02741" lon="8.91784">
        <ele>1136</ele>
        <time>2021-08-03T09:09:47.274Z</time>
      </trkpt>
      <trkpt lat="47.0274" lon="8.91782">
        <ele>1136</ele>
        <time>2021-08-03T09:09:48.274Z</time>
      </trkpt>
      <trkpt lat="47.0274" lon="8.91781">
        <ele>1137</ele>
        <time>2021-08-03T09:09:49.275Z</time>
      </trkpt>
      <trkpt lat="47.0274" lon="8.9178">
        <ele>1137</ele>
        <time>2021-08-03T09:09:50.275Z</time>
      </trkpt>
      <trkpt lat="47.02741" lon="8.91778">
        <ele>1137</ele>
        <time>2021-08-03T09:09:51.275Z</time>
      </trkpt>
      <trkpt lat="47.02742" lon="8.91776">
        <ele>1138</ele>
        <time>2021-08-03T09:09:52.274Z</time>
      </trkpt>
      <trkpt lat="47.02743" lon="8.91775">
        <ele>1139</ele>
        <time>2021-08-03T09:09:53.275Z</time>
      </trkpt>
      <trkpt lat="47.02744" lon="8.91774">
        <ele>1139</ele>
        <time>2021-08-03T09:09:54.275Z</time>
      </trkpt>
      <trkpt lat="47.02745" lon="8.91772">
        <ele>1140</ele>
        <time>2021-08-03T09:09:55.274Z</time>
      </trkpt>
      <trkpt lat="47.02747" lon="8.91771">
        <ele>1141</ele>
        <time>2021-08-03T09:09:56.274Z</time>
      </trkpt>
      <trkpt lat="47.02748" lon="8.9177">
        <ele>1141</ele>
        <time>2021-08-03T09:09:57.274Z</time>
      </trkpt>
      <trkpt lat="47.02748" lon="8.91768">
        <ele>1141</ele>
        <time>2021-08-03T09:09:58.274Z</time>
      </trkpt>
      <trkpt lat="47.02749" lon="8.91767">
        <ele>1142</ele>
        <time>2021-08-03T09:09:59.275Z</time>
      </trkpt>
      <trkpt lat="47.02749" lon="8.91767">
        <ele>1142</ele>
        <time>2021-08-03T09:10:00.275Z</time>
      </trkpt>
      <trkpt lat="47.02749" lon="8.91766">
        <ele>1142</ele>
        <time>2021-08-03T09:10:01.274Z</time>
      </trkpt>
      <trkpt lat="47.02749" lon="8.91765">
        <ele>1142</ele>
        <time>2021-08-03T09:10:02.275Z</time>
      </trkpt>
      <trkpt lat="47.02749" lon="8.91763">
        <ele>1143</ele>
        <time>2021-08-03T09:10:03.274Z</time>
      </trkpt>
      <trkpt lat="47.02749" lon="8.91762">
        <ele>1143</ele>
        <time>2021-08-03T09:10:04.274Z</time>
      </trkpt>
      <trkpt lat="47.0275" lon="8.91761">
        <ele>1143</ele>
        <time>2021-08-03T09:10:05.275Z</time>
      </trkpt>
      <trkpt lat="47.02751" lon="8.9176">
        <ele>1143</ele>
        <time>2021-08-03T09:10:06.274Z</time>
      </trkpt>
      <trkpt lat="47.02752" lon="8.9176">
        <ele>1144</ele>
        <time>2021-08-03T09:10:07.274Z</time>
      </trkpt>
      <trkpt lat="47.02753" lon="8.91763">
        <ele>1144</ele>
        <time>2021-08-03T09:10:08.274Z</time>
      </trkpt>
      <trkpt lat="47.02753" lon="8.91764">
        <ele>1145</ele>
        <time>2021-08-03T09:10:09.274Z</time>
      </trkpt>
      <trkpt lat="47.02753" lon="8.91765">
        <ele>1145</ele>
        <time>2021-08-03T09:10:10.275Z</time>
      </trkpt>
      <trkpt lat="47.02753" lon="8.91765">
        <ele>1146</ele>
        <time>2021-08-03T09:10:11.274Z</time>
      </trkpt>
      <trkpt lat="47.02753" lon="8.91766">
        <ele>1146</ele>
        <time>2021-08-03T09:10:12.274Z</time>
      </trkpt>
      <trkpt lat="47.02753" lon="8.91765">
        <ele>1146</ele>
        <time>2021-08-03T09:10:13.275Z</time>
      </trkpt>
      <trkpt lat="47.02754" lon="8.91763">
        <ele>1147</ele>
        <time>2021-08-03T09:10:14.274Z</time>
      </trkpt>
      <trkpt lat="47.02754" lon="8.91762">
        <ele>1147</ele>
        <time>2021-08-03T09:10:15.274Z</time>
      </trkpt>
      <trkpt lat="47.02754" lon="8.91761">
        <ele>1147</ele>
        <time>2021-08-03T09:10:16.275Z</time>
      </trkpt>
      <trkpt lat="47.02754" lon="8.9176">
        <ele>1147</ele>
        <time>2021-08-03T09:10:17.274Z</time>
      </trkpt>
      <trkpt lat="47.02753" lon="8.9176">
        <ele>1147</ele>
        <time>2021-08-03T09:10:18.275Z</time>
      </trkpt>
      <trkpt lat="47.02753" lon="8.9176">
        <ele>1147</ele>
        <time>2021-08-03T09:10:19.274Z</time>
      </trkpt>
      <trkpt lat="47.02752" lon="8.9176">
        <ele>1147</ele>
        <time>2021-08-03T09:10:20.275Z</time>
      </trkpt>
      <trkpt lat="47.02752" lon="8.9176">
        <ele>1146</ele>
        <time>2021-08-03T09:10:21.274Z</time>
      </trkpt>
      <trkpt lat="47.02752" lon="8.9176">
        <ele>1146</ele>
        <time>2021-08-03T09:10:22.274Z</time>
      </trkpt>
      <trkpt lat="47.02751" lon="8.9176">
        <ele>1146</ele>
        <time>2021-08-03T09:10:23.274Z</time>
      </trkpt>
      <trkpt lat="47.0275" lon="8.91761">
        <ele>1146</ele>
        <time>2021-08-03T09:10:24.275Z</time>
      </trkpt>
      <trkpt lat="47.02749" lon="8.91761">
        <ele>1145</ele>
        <time>2021-08-03T09:10:25.274Z</time>
      </trkpt>
      <trkpt lat="47.02749" lon="8.91762">
        <ele>1145</ele>
        <time>2021-08-03T09:10:26.275Z</time>
      </trkpt>
      <trkpt lat="47.02748" lon="8.91763">
        <ele>1144</ele>
        <time>2021-08-03T09:10:27.274Z</time>
      </trkpt>
      <trkpt lat="47.02749" lon="8.91764">
        <ele>1144</ele>
        <time>2021-08-03T09:10:28.274Z</time>
      </trkpt>
      <trkpt lat="47.0275" lon="8.91766">
        <ele>1143</ele>
        <time>2021-08-03T09:10:29.274Z</time>
      </trkpt>
      <trkpt lat="47.02751" lon="8.91767">
        <ele>1140</ele>
        <time>2021-08-03T09:10:30.276Z</time>
      </trkpt>
      <trkpt lat="47.0275" lon="8.91767">
        <ele>1140</ele>
        <time>2021-08-03T09:10:31.275Z</time>
      </trkpt>
      <trkpt lat="47.0275" lon="8.91767">
        <ele>1140</ele>
        <time>2021-08-03T09:10:32.276Z</time>
      </trkpt>
      <trkpt lat="47.0275" lon="8.91766">
        <ele>1139</ele>
        <time>2021-08-03T09:10:33.276Z</time>
      </trkpt>
      <trkpt lat="47.0275" lon="8.91766">
        <ele>1139</ele>
        <time>2021-08-03T09:10:34.275Z</time>
      </trkpt>
      <trkpt lat="47.0275" lon="8.91768">
        <ele>1138</ele>
        <time>2021-08-03T09:10:35.278Z</time>
      </trkpt>
      <trkpt lat="47.0275" lon="8.9177">
        <ele>1137</ele>
        <time>2021-08-03T09:10:36.278Z</time>
      </trkpt>
      <trkpt lat="47.0275" lon="8.91771">
        <ele>1136</ele>
        <time>2021-08-03T09:10:37.277Z</time>
      </trkpt>
      <trkpt lat="47.0275" lon="8.91771">
        <ele>1135</ele>
        <time>2021-08-03T09:10:38.277Z</time>
      </trkpt>
      <trkpt lat="47.02751" lon="8.91771">
        <ele>1136</ele>
        <time>2021-08-03T09:10:39.278Z</time>
      </trkpt>
      <trkpt lat="47.02752" lon="8.9177">
        <ele>1137</ele>
        <time>2021-08-03T09:10:40.278Z</time>
      </trkpt>
      <trkpt lat="47.02752" lon="8.9177">
        <ele>1137</ele>
        <time>2021-08-03T09:10:41.278Z</time>
      </trkpt>
      <trkpt lat="47.02753" lon="8.9177">
        <ele>1138</ele>
        <time>2021-08-03T09:10:42.278Z</time>
      </trkpt>
      <trkpt lat="47.02753" lon="8.91771">
        <ele>1138</ele>
        <time>2021-08-03T09:10:43.278Z</time>
      </trkpt>
      <trkpt lat="47.02753" lon="8.91771">
        <ele>1139</ele>
        <time>2021-08-03T09:10:44.277Z</time>
      </trkpt>
      <trkpt lat="47.02753" lon="8.91771">
        <ele>1139</ele>
        <time>2021-08-03T09:10:45.278Z</time>
      </trkpt>
      <trkpt lat="47.02752" lon="8.9177">
        <ele>1139</ele>
        <time>2021-08-03T09:10:46.280Z</time>
      </trkpt>
      <trkpt lat="47.02753" lon="8.91771">
        <ele>1139</ele>
        <time>2021-08-03T09:10:47.280Z</time>
      </trkpt>
      <trkpt lat="47.02753" lon="8.91771">
        <ele>1139</ele>
        <time>2021-08-03T09:10:48.280Z</time>
      </trkpt>
      <trkpt lat="47.02752" lon="8.91772">
        <ele>1139</ele>
        <time>2021-08-03T09:10:49.279Z</time>
      </trkpt>
      <trkpt lat="47.02752" lon="8.91772">
        <ele>1139</ele>
        <time>2021-08-03T09:10:50.280Z</time>
      </trkpt>
      <trkpt lat="47.02751" lon="8.91772">
        <ele>1140</ele>
        <time>2021-08-03T09:10:51.279Z</time>
      </trkpt>
      <trkpt lat="47.02751" lon="8.91772">
        <ele>1140</ele>
        <time>2021-08-03T09:10:52.280Z</time>
      </trkpt>
      <trkpt lat="47.0275" lon="8.91771">
        <ele>1139</ele>
        <time>2021-08-03T09:10:53.281Z</time>
      </trkpt>
      <trkpt lat="47.02749" lon="8.91771">
        <ele>1139</ele>
        <time>2021-08-03T09:10:54.281Z</time>
      </trkpt>
      <trkpt lat="47.02749" lon="8.9177">
        <ele>1139</ele>
        <time>2021-08-03T09:10:55.281Z</time>
      </trkpt>
      <trkpt lat="47.02748" lon="8.9177">
        <ele>1139</ele>
        <time>2021-08-03T09:10:56.280Z</time>
      </trkpt>
      <trkpt lat="47.02747" lon="8.9177">
        <ele>1139</ele>
        <time>2021-08-03T09:10:57.280Z</time>
      </trkpt>
      <trkpt lat="47.02746" lon="8.9177">
        <ele>1139</ele>
        <time>2021-08-03T09:10:58.281Z</time>
      </trkpt>
      <trkpt lat="47.02745" lon="8.91769">
        <ele>1138</ele>
        <time>2021-08-03T09:10:59.281Z</time>
      </trkpt>
      <trkpt lat="47.02745" lon="8.91769">
        <ele>1138</ele>
        <time>2021-08-03T09:11:00.280Z</time>
      </trkpt>
      <trkpt lat="47.02744" lon="8.91767">
        <ele>1139</ele>
        <time>2021-08-03T09:11:01.281Z</time>
      </trkpt>
      <trkpt lat="47.02743" lon="8.91766">
        <ele>1139</ele>
        <time>2021-08-03T09:11:02.280Z</time>
      </trkpt>
      <trkpt lat="47.02742" lon="8.91765">
        <ele>1140</ele>
        <time>2021-08-03T09:11:03.281Z</time>
      </trkpt>
      <trkpt lat="47.0274" lon="8.91765">
        <ele>1140</ele>
        <time>2021-08-03T09:11:04.281Z</time>
      </trkpt>
      <trkpt lat="47.0274" lon="8.91764">
        <ele>1140</ele>
        <time>2021-08-03T09:11:05.281Z</time>
      </trkpt>
      <trkpt lat="47.02739" lon="8.91763">
        <ele>1140</ele>
        <time>2021-08-03T09:11:06.280Z</time>
      </trkpt>
      <trkpt lat="47.02738" lon="8.91763">
        <ele>1140</ele>
        <time>2021-08-03T09:11:07.281Z</time>
      </trkpt>
      <trkpt lat="47.02738" lon="8.91762">
        <ele>1140</ele>
        <time>2021-08-03T09:11:08.281Z</time>
      </trkpt>
      <trkpt lat="47.02737" lon="8.91763">
        <ele>1139</ele>
        <time>2021-08-03T09:11:09.280Z</time>
      </trkpt>
      <trkpt lat="47.02737" lon="8.91763">
        <ele>1139</ele>
        <time>2021-08-03T09:11:10.280Z</time>
      </trkpt>
      <trkpt lat="47.02736" lon="8.91763">
        <ele>1137</ele>
        <time>2021-08-03T09:11:11.281Z</time>
      </trkpt>
      <trkpt lat="47.02735" lon="8.91763">
        <ele>1137</ele>
        <time>2021-08-03T09:11:12.281Z</time>
      </trkpt>
      <trkpt lat="47.02735" lon="8.91762">
        <ele>1136</ele>
        <time>2021-08-03T09:11:13.281Z</time>
      </trkpt>
      <trkpt lat="47.02734" lon="8.91761">
        <ele>1136</ele>
        <time>2021-08-03T09:11:14.281Z</time>
      </trkpt>
      <trkpt lat="47.02733" lon="8.9176">
        <ele>1137</ele>
        <time>2021-08-03T09:11:15.280Z</time>
      </trkpt>
      <trkpt lat="47.02731" lon="8.9176">
        <ele>1137</ele>
        <time>2021-08-03T09:11:16.281Z</time>
      </trkpt>
      <trkpt lat="47.02729" lon="8.9176">
        <ele>1137</ele>
        <time>2021-08-03T09:11:17.281Z</time>
      </trkpt>
      <trkpt lat="47.02727" lon="8.91759">
        <ele>1137</ele>
        <time>2021-08-03T09:11:18.281Z</time>
      </trkpt>
      <trkpt lat="47.02726" lon="8.91759">
        <ele>1137</ele>
        <time>2021-08-03T09:11:19.280Z</time>
      </trkpt>
      <trkpt lat="47.02726" lon="8.91759">
        <ele>1137</ele>
        <time>2021-08-03T09:11:20.281Z</time>
      </trkpt>
      <trkpt lat="47.02725" lon="8.9176">
        <ele>1136</ele>
        <time>2021-08-03T09:11:21.281Z</time>
      </trkpt>
      <trkpt lat="47.02725" lon="8.91759">
        <ele>1136</ele>
        <time>2021-08-03T09:11:22.281Z</time>
      </trkpt>
      <trkpt lat="47.02725" lon="8.91759">
        <ele>1136</ele>
        <time>2021-08-03T09:11:23.281Z</time>
      </trkpt>
      <trkpt lat="47.02724" lon="8.91759">
        <ele>1135</ele>
        <time>2021-08-03T09:11:24.280Z</time>
      </trkpt>
      <trkpt lat="47.02723" lon="8.91759">
        <ele>1135</ele>
        <time>2021-08-03T09:11:25.280Z</time>
      </trkpt>
      <trkpt lat="47.02722" lon="8.91759">
        <ele>1134</ele>
        <time>2021-08-03T09:11:26.280Z</time>
      </trkpt>
      <trkpt lat="47.02722" lon="8.91759">
        <ele>1134</ele>
        <time>2021-08-03T09:11:27.280Z</time>
      </trkpt>
      <trkpt lat="47.0272" lon="8.9176">
        <ele>1134</ele>
        <time>2021-08-03T09:11:28.281Z</time>
      </trkpt>
      <trkpt lat="47.0272" lon="8.91759">
        <ele>1133</ele>
        <time>2021-08-03T09:11:29.281Z</time>
      </trkpt>
      <trkpt lat="47.02719" lon="8.91758">
        <ele>1133</ele>
        <time>2021-08-03T09:11:30.281Z</time>
      </trkpt>
      <trkpt lat="47.02718" lon="8.91757">
        <ele>1132</ele>
        <time>2021-08-03T09:11:31.281Z</time>
      </trkpt>
      <trkpt lat="47.02718" lon="8.91757">
        <ele>1132</ele>
        <time>2021-08-03T09:11:32.281Z</time>
      </trkpt>
      <trkpt lat="47.02717" lon="8.91755">
        <ele>1132</ele>
        <time>2021-08-03T09:11:33.280Z</time>
      </trkpt>
      <trkpt lat="47.02717" lon="8.91754">
        <ele>1131</ele>
        <time>2021-08-03T09:11:34.280Z</time>
      </trkpt>
      <trkpt lat="47.02716" lon="8.91753">
        <ele>1131</ele>
        <time>2021-08-03T09:11:35.281Z</time>
      </trkpt>
      <trkpt lat="47.02716" lon="8.91751">
        <ele>1131</ele>
        <time>2021-08-03T09:11:36.281Z</time>
      </trkpt>
      <trkpt lat="47.02716" lon="8.91749">
        <ele>1130</ele>
        <time>2021-08-03T09:11:37.280Z</time>
      </trkpt>
      <trkpt lat="47.02716" lon="8.91747">
        <ele>1130</ele>
        <time>2021-08-03T09:11:38.281Z</time>
      </trkpt>
      <trkpt lat="47.02716" lon="8.91747">
        <ele>1130</ele>
        <time>2021-08-03T09:11:39.281Z</time>
      </trkpt>
      <trkpt lat="47.02715" lon="8.91746">
        <ele>1130</ele>
        <time>2021-08-03T09:11:40.280Z</time>
      </trkpt>
      <trkpt lat="47.02715" lon="8.91745">
        <ele>1130</ele>
        <time>2021-08-03T09:11:41.281Z</time>
      </trkpt>
      <trkpt lat="47.02714" lon="8.91745">
        <ele>1130</ele>
        <time>2021-08-03T09:11:42.281Z</time>
      </trkpt>
      <trkpt lat="47.02712" lon="8.91746">
        <ele>1130</ele>
        <time>2021-08-03T09:11:43.280Z</time>
      </trkpt>
      <trkpt lat="47.02712" lon="8.91744">
        <ele>1131</ele>
        <time>2021-08-03T09:11:44.280Z</time>
      </trkpt>
      <trkpt lat="47.0271" lon="8.91744">
        <ele>1132</ele>
        <time>2021-08-03T09:11:45.281Z</time>
      </trkpt>
      <trkpt lat="47.02709" lon="8.91742">
        <ele>1132</ele>
        <time>2021-08-03T09:11:46.281Z</time>
      </trkpt>
      <trkpt lat="47.02708" lon="8.91742">
        <ele>1133</ele>
        <time>2021-08-03T09:11:47.280Z</time>
      </trkpt>
      <trkpt lat="47.02707" lon="8.91742">
        <ele>1133</ele>
        <time>2021-08-03T09:11:48.281Z</time>
      </trkpt>
      <trkpt lat="47.02707" lon="8.91742">
        <ele>1134</ele>
        <time>2021-08-03T09:11:49.281Z</time>
      </trkpt>
      <trkpt lat="47.02707" lon="8.91742">
        <ele>1134</ele>
        <time>2021-08-03T09:11:50.281Z</time>
      </trkpt>
      <trkpt lat="47.02707" lon="8.91742">
        <ele>1135</ele>
        <time>2021-08-03T09:11:51.281Z</time>
      </trkpt>
      <trkpt lat="47.02707" lon="8.91743">
        <ele>1135</ele>
        <time>2021-08-03T09:11:52.281Z</time>
      </trkpt>
      <trkpt lat="47.02707" lon="8.91743">
        <ele>1136</ele>
        <time>2021-08-03T09:11:53.280Z</time>
      </trkpt>
      <trkpt lat="47.02708" lon="8.91743">
        <ele>1136</ele>
        <time>2021-08-03T09:11:54.281Z</time>
      </trkpt>
      <trkpt lat="47.02708" lon="8.91741">
        <ele>1137</ele>
        <time>2021-08-03T09:11:55.281Z</time>
      </trkpt>
      <trkpt lat="47.02708" lon="8.91741">
        <ele>1137</ele>
        <time>2021-08-03T09:11:56.282Z</time>
      </trkpt>
      <trkpt lat="47.02708" lon="8.91741">
        <ele>1136</ele>
        <time>2021-08-03T09:11:57.281Z</time>
      </trkpt>
      <trkpt lat="47.02708" lon="8.9174">
        <ele>1136</ele>
        <time>2021-08-03T09:11:58.281Z</time>
      </trkpt>
      <trkpt lat="47.02709" lon="8.9174">
        <ele>1135</ele>
        <time>2021-08-03T09:11:59.282Z</time>
      </trkpt>
      <trkpt lat="47.02709" lon="8.91742">
        <ele>1133</ele>
        <time>2021-08-03T09:12:00.282Z</time>
      </trkpt>
      <trkpt lat="47.02709" lon="8.91742">
        <ele>1133</ele>
        <time>2021-08-03T09:12:01.282Z</time>
      </trkpt>
      <trkpt lat="47.02709" lon="8.9174">
        <ele>1132</ele>
        <time>2021-08-03T09:12:02.281Z</time>
      </trkpt>
      <trkpt lat="47.02708" lon="8.91739">
        <ele>1132</ele>
        <time>2021-08-03T09:12:03.281Z</time>
      </trkpt>
      <trkpt lat="47.02708" lon="8.9174">
        <ele>1131</ele>
        <time>2021-08-03T09:12:04.281Z</time>
      </trkpt>
      <trkpt lat="47.02708" lon="8.9174">
        <ele>1131</ele>
        <time>2021-08-03T09:12:05.282Z</time>
      </trkpt>
      <trkpt lat="47.02708" lon="8.9174">
        <ele>1131</ele>
        <time>2021-08-03T09:12:06.282Z</time>
      </trkpt>
      <trkpt lat="47.02707" lon="8.9174">
        <ele>1132</ele>
        <time>2021-08-03T09:12:07.282Z</time>
      </trkpt>
      <trkpt lat="47.02706" lon="8.91745">
        <ele>1133</ele>
        <time>2021-08-03T09:12:08.282Z</time>
      </trkpt>
      <trkpt lat="47.02705" lon="8.91746">
        <ele>1133</ele>
        <time>2021-08-03T09:12:09.282Z</time>
      </trkpt>
      <trkpt lat="47.02705" lon="8.91746">
        <ele>1133</ele>
        <time>2021-08-03T09:12:10.282Z</time>
      </trkpt>
      <trkpt lat="47.02704" lon="8.91747">
        <ele>1133</ele>
        <time>2021-08-03T09:12:11.282Z</time>
      </trkpt>
      <trkpt lat="47.02704" lon="8.91748">
        <ele>1133</ele>
        <time>2021-08-03T09:12:12.282Z</time>
      </trkpt>
      <trkpt lat="47.02704" lon="8.91747">
        <ele>1132</ele>
        <time>2021-08-03T09:12:13.282Z</time>
      </trkpt>
      <trkpt lat="47.02704" lon="8.91747">
        <ele>1132</ele>
        <time>2021-08-03T09:12:14.282Z</time>
      </trkpt>
      <trkpt lat="47.02704" lon="8.91746">
        <ele>1132</ele>
        <time>2021-08-03T09:12:15.283Z</time>
      </trkpt>
      <trkpt lat="47.02705" lon="8.91745">
        <ele>1131</ele>
        <time>2021-08-03T09:12:16.282Z</time>
      </trkpt>
      <trkpt lat="47.02705" lon="8.91745">
        <ele>1131</ele>
        <time>2021-08-03T09:12:17.282Z</time>
      </trkpt>
      <trkpt lat="47.02704" lon="8.91745">
        <ele>1131</ele>
        <time>2021-08-03T09:12:18.282Z</time>
      </trkpt>
      <trkpt lat="47.02704" lon="8.91745">
        <ele>1131</ele>
        <time>2021-08-03T09:12:19.282Z</time>
      </trkpt>
      <trkpt lat="47.02703" lon="8.91746">
        <ele>1131</ele>
        <time>2021-08-03T09:12:20.282Z</time>
      </trkpt>
      <trkpt lat="47.02703" lon="8.91747">
        <ele>1131</ele>
        <time>2021-08-03T09:12:21.282Z</time>
      </trkpt>
      <trkpt lat="47.02702" lon="8.91746">
        <ele>1131</ele>
        <time>2021-08-03T09:12:22.282Z</time>
      </trkpt>
      <trkpt lat="47.02701" lon="8.91745">
        <ele>1131</ele>
        <time>2021-08-03T09:12:23.282Z</time>
      </trkpt>
      <trkpt lat="47.027" lon="8.91744">
        <ele>1131</ele>
        <time>2021-08-03T09:12:24.283Z</time>
      </trkpt>
      <trkpt lat="47.027" lon="8.91742">
        <ele>1130</ele>
        <time>2021-08-03T09:12:25.282Z</time>
      </trkpt>
      <trkpt lat="47.02699" lon="8.91741">
        <ele>1130</ele>
        <time>2021-08-03T09:12:26.282Z</time>
      </trkpt>
      <trkpt lat="47.02699" lon="8.9174">
        <ele>1130</ele>
        <time>2021-08-03T09:12:27.282Z</time>
      </trkpt>
      <trkpt lat="47.02699" lon="8.91739">
        <ele>1129</ele>
        <time>2021-08-03T09:12:28.283Z</time>
      </trkpt>
      <trkpt lat="47.02699" lon="8.91738">
        <ele>1129</ele>
        <time>2021-08-03T09:12:29.282Z</time>
      </trkpt>
      <trkpt lat="47.02699" lon="8.91737">
        <ele>1129</ele>
        <time>2021-08-03T09:12:30.282Z</time>
      </trkpt>
      <trkpt lat="47.02698" lon="8.91737">
        <ele>1130</ele>
        <time>2021-08-03T09:12:31.282Z</time>
      </trkpt>
      <trkpt lat="47.02698" lon="8.91736">
        <ele>1130</ele>
        <time>2021-08-03T09:12:32.282Z</time>
      </trkpt>
      <trkpt lat="47.02699" lon="8.91734">
        <ele>1129</ele>
        <time>2021-08-03T09:12:33.283Z</time>
      </trkpt>
      <trkpt lat="47.02698" lon="8.91733">
        <ele>1129</ele>
        <time>2021-08-03T09:12:34.282Z</time>
      </trkpt>
      <trkpt lat="47.02698" lon="8.91733">
        <ele>1128</ele>
        <time>2021-08-03T09:12:35.283Z</time>
      </trkpt>
      <trkpt lat="47.02698" lon="8.91732">
        <ele>1128</ele>
        <time>2021-08-03T09:12:36.282Z</time>
      </trkpt>
      <trkpt lat="47.02699" lon="8.91731">
        <ele>1128</ele>
        <time>2021-08-03T09:12:37.282Z</time>
      </trkpt>
      <trkpt lat="47.02699" lon="8.9173">
        <ele>1128</ele>
        <time>2021-08-03T09:12:38.282Z</time>
      </trkpt>
      <trkpt lat="47.02699" lon="8.9173">
        <ele>1128</ele>
        <time>2021-08-03T09:12:39.283Z</time>
      </trkpt>
      <trkpt lat="47.02699" lon="8.91734">
        <ele>1128</ele>
        <time>2021-08-03T09:12:40.283Z</time>
      </trkpt>
      <trkpt lat="47.02699" lon="8.91734">
        <ele>1127</ele>
        <time>2021-08-03T09:12:41.283Z</time>
      </trkpt>
      <trkpt lat="47.02695" lon="8.91736">
        <ele>1127</ele>
        <time>2021-08-03T09:12:42.283Z</time>
      </trkpt>
      <trkpt lat="47.02694" lon="8.91736">
        <ele>1127</ele>
        <time>2021-08-03T09:12:43.284Z</time>
      </trkpt>
      <trkpt lat="47.02694" lon="8.91735">
        <ele>1127</ele>
        <time>2021-08-03T09:12:44.283Z</time>
      </trkpt>
      <trkpt lat="47.02693" lon="8.91733">
        <ele>1127</ele>
        <time>2021-08-03T09:12:45.283Z</time>
      </trkpt>
      <trkpt lat="47.02692" lon="8.91733">
        <ele>1127</ele>
        <time>2021-08-03T09:12:46.283Z</time>
      </trkpt>
      <trkpt lat="47.02691" lon="8.91733">
        <ele>1127</ele>
        <time>2021-08-03T09:12:47.283Z</time>
      </trkpt>
      <trkpt lat="47.0269" lon="8.91734">
        <ele>1126</ele>
        <time>2021-08-03T09:12:48.284Z</time>
      </trkpt>
      <trkpt lat="47.02689" lon="8.91733">
        <ele>1126</ele>
        <time>2021-08-03T09:12:49.283Z</time>
      </trkpt>
      <trkpt lat="47.02688" lon="8.91732">
        <ele>1126</ele>
        <time>2021-08-03T09:12:50.283Z</time>
      </trkpt>
      <trkpt lat="47.02687" lon="8.91731">
        <ele>1126</ele>
        <time>2021-08-03T09:12:51.283Z</time>
      </trkpt>
      <trkpt lat="47.02686" lon="8.9173">
        <ele>1126</ele>
        <time>2021-08-03T09:12:52.283Z</time>
      </trkpt>
      <trkpt lat="47.02685" lon="8.91729">
        <ele>1126</ele>
        <time>2021-08-03T09:12:53.283Z</time>
      </trkpt>
      <trkpt lat="47.02684" lon="8.91728">
        <ele>1126</ele>
        <time>2021-08-03T09:12:54.283Z</time>
      </trkpt>
      <trkpt lat="47.02683" lon="8.91726">
        <ele>1125</ele>
        <time>2021-08-03T09:12:55.283Z</time>
      </trkpt>
      <trkpt lat="47.02683" lon="8.91725">
        <ele>1125</ele>
        <time>2021-08-03T09:12:56.283Z</time>
      </trkpt>
      <trkpt lat="47.02682" lon="8.91723">
        <ele>1126</ele>
        <time>2021-08-03T09:12:57.283Z</time>
      </trkpt>
      <trkpt lat="47.02682" lon="8.91722">
        <ele>1126</ele>
        <time>2021-08-03T09:12:58.283Z</time>
      </trkpt>
      <trkpt lat="47.02681" lon="8.91722">
        <ele>1126</ele>
        <time>2021-08-03T09:12:59.283Z</time>
      </trkpt>
      <trkpt lat="47.02682" lon="8.91721">
        <ele>1126</ele>
        <time>2021-08-03T09:13:00.283Z</time>
      </trkpt>
      <trkpt lat="47.02682" lon="8.91719">
        <ele>1126</ele>
        <time>2021-08-03T09:13:01.283Z</time>
      </trkpt>
      <trkpt lat="47.02681" lon="8.91719">
        <ele>1126</ele>
        <time>2021-08-03T09:13:02.283Z</time>
      </trkpt>
      <trkpt lat="47.02681" lon="8.91719">
        <ele>1126</ele>
        <time>2021-08-03T09:13:03.283Z</time>
      </trkpt>
      <trkpt lat="47.0268" lon="8.91718">
        <ele>1125</ele>
        <time>2021-08-03T09:13:04.283Z</time>
      </trkpt>
      <trkpt lat="47.0268" lon="8.91718">
        <ele>1125</ele>
        <time>2021-08-03T09:13:05.283Z</time>
      </trkpt>
      <trkpt lat="47.02679" lon="8.91718">
        <ele>1124</ele>
        <time>2021-08-03T09:13:06.283Z</time>
      </trkpt>
      <trkpt lat="47.02679" lon="8.91719">
        <ele>1124</ele>
        <time>2021-08-03T09:13:07.283Z</time>
      </trkpt>
      <trkpt lat="47.02679" lon="8.91719">
        <ele>1123</ele>
        <time>2021-08-03T09:13:08.283Z</time>
      </trkpt>
      <trkpt lat="47.02678" lon="8.9172">
        <ele>1123</ele>
        <time>2021-08-03T09:13:09.284Z</time>
      </trkpt>
      <trkpt lat="47.02678" lon="8.9172">
        <ele>1122</ele>
        <time>2021-08-03T09:13:10.284Z</time>
      </trkpt>
      <trkpt lat="47.02678" lon="8.9172">
        <ele>1122</ele>
        <time>2021-08-03T09:13:11.283Z</time>
      </trkpt>
      <trkpt lat="47.02678" lon="8.9172">
        <ele>1122</ele>
        <time>2021-08-03T09:13:12.284Z</time>
      </trkpt>
      <trkpt lat="47.02678" lon="8.91719">
        <ele>1121</ele>
        <time>2021-08-03T09:13:13.285Z</time>
      </trkpt>
      <trkpt lat="47.02677" lon="8.91718">
        <ele>1121</ele>
        <time>2021-08-03T09:13:14.285Z</time>
      </trkpt>
      <trkpt lat="47.02676" lon="8.91717">
        <ele>1120</ele>
        <time>2021-08-03T09:13:15.284Z</time>
      </trkpt>
      <trkpt lat="47.02675" lon="8.91717">
        <ele>1120</ele>
        <time>2021-08-03T09:13:16.285Z</time>
      </trkpt>
      <trkpt lat="47.02674" lon="8.91717">
        <ele>1120</ele>
        <time>2021-08-03T09:13:17.284Z</time>
      </trkpt>
      <trkpt lat="47.02674" lon="8.91717">
        <ele>1120</ele>
        <time>2021-08-03T09:13:18.284Z</time>
      </trkpt>
      <trkpt lat="47.02673" lon="8.91716">
        <ele>1120</ele>
        <time>2021-08-03T09:13:19.284Z</time>
      </trkpt>
      <trkpt lat="47.02673" lon="8.91716">
        <ele>1120</ele>
        <time>2021-08-03T09:13:20.284Z</time>
      </trkpt>
      <trkpt lat="47.02672" lon="8.91715">
        <ele>1120</ele>
        <time>2021-08-03T09:13:21.284Z</time>
      </trkpt>
      <trkpt lat="47.02671" lon="8.91714">
        <ele>1120</ele>
        <time>2021-08-03T09:13:22.284Z</time>
      </trkpt>
      <trkpt lat="47.0267" lon="8.91714">
        <ele>1120</ele>
        <time>2021-08-03T09:13:23.284Z</time>
      </trkpt>
      <trkpt lat="47.0267" lon="8.91714">
        <ele>1121</ele>
        <time>2021-08-03T09:13:24.284Z</time>
      </trkpt>
      <trkpt lat="47.02669" lon="8.91713">
        <ele>1121</ele>
        <time>2021-08-03T09:13:25.284Z</time>
      </trkpt>
      <trkpt lat="47.0267" lon="8.91711">
        <ele>1121</ele>
        <time>2021-08-03T09:13:26.284Z</time>
      </trkpt>
      <trkpt lat="47.0267" lon="8.9171">
        <ele>1121</ele>
        <time>2021-08-03T09:13:27.285Z</time>
      </trkpt>
      <trkpt lat="47.02669" lon="8.9171">
        <ele>1120</ele>
        <time>2021-08-03T09:13:28.284Z</time>
      </trkpt>
      <trkpt lat="47.02668" lon="8.91711">
        <ele>1120</ele>
        <time>2021-08-03T09:13:29.284Z</time>
      </trkpt>
      <trkpt lat="47.02667" lon="8.91713">
        <ele>1120</ele>
        <time>2021-08-03T09:13:30.285Z</time>
      </trkpt>
      <trkpt lat="47.02667" lon="8.91713">
        <ele>1120</ele>
        <time>2021-08-03T09:13:31.285Z</time>
      </trkpt>
      <trkpt lat="47.02665" lon="8.91713">
        <ele>1121</ele>
        <time>2021-08-03T09:13:32.284Z</time>
      </trkpt>
      <trkpt lat="47.02664" lon="8.91713">
        <ele>1121</ele>
        <time>2021-08-03T09:13:33.285Z</time>
      </trkpt>
      <trkpt lat="47.02663" lon="8.91714">
        <ele>1121</ele>
        <time>2021-08-03T09:13:34.285Z</time>
      </trkpt>
      <trkpt lat="47.02662" lon="8.91714">
        <ele>1122</ele>
        <time>2021-08-03T09:13:35.285Z</time>
      </trkpt>
      <trkpt lat="47.02662" lon="8.91715">
        <ele>1122</ele>
        <time>2021-08-03T09:13:36.285Z</time>
      </trkpt>
      <trkpt lat="47.02664" lon="8.91716">
        <ele>1122</ele>
        <time>2021-08-03T09:13:37.285Z</time>
      </trkpt>
      <trkpt lat="47.02664" lon="8.91717">
        <ele>1122</ele>
        <time>2021-08-03T09:13:38.285Z</time>
      </trkpt>
      <trkpt lat="47.02662" lon="8.91718">
        <ele>1123</ele>
        <time>2021-08-03T09:13:39.285Z</time>
      </trkpt>
      <trkpt lat="47.02662" lon="8.91718">
        <ele>1123</ele>
        <time>2021-08-03T09:13:40.284Z</time>
      </trkpt>
      <trkpt lat="47.02661" lon="8.91718">
        <ele>1123</ele>
        <time>2021-08-03T09:13:41.285Z</time>
      </trkpt>
      <trkpt lat="47.0266" lon="8.91717">
        <ele>1124</ele>
        <time>2021-08-03T09:13:42.284Z</time>
      </trkpt>
      <trkpt lat="47.0266" lon="8.91717">
        <ele>1124</ele>
        <time>2021-08-03T09:13:43.285Z</time>
      </trkpt>
      <trkpt lat="47.02659" lon="8.91716">
        <ele>1124</ele>
        <time>2021-08-03T09:13:44.285Z</time>
      </trkpt>
      <trkpt lat="47.02657" lon="8.91715">
        <ele>1124</ele>
        <time>2021-08-03T09:13:45.285Z</time>
      </trkpt>
      <trkpt lat="47.02657" lon="8.91715">
        <ele>1125</ele>
        <time>2021-08-03T09:13:46.285Z</time>
      </trkpt>
      <trkpt lat="47.02657" lon="8.91714">
        <ele>1125</ele>
        <time>2021-08-03T09:13:47.285Z</time>
      </trkpt>
      <trkpt lat="47.02657" lon="8.91714">
        <ele>1125</ele>
        <time>2021-08-03T09:13:48.285Z</time>
      </trkpt>
      <trkpt lat="47.02657" lon="8.91713">
        <ele>1125</ele>
        <time>2021-08-03T09:13:49.285Z</time>
      </trkpt>
      <trkpt lat="47.02657" lon="8.91712">
        <ele>1125</ele>
        <time>2021-08-03T09:13:50.284Z</time>
      </trkpt>
      <trkpt lat="47.02657" lon="8.91712">
        <ele>1126</ele>
        <time>2021-08-03T09:13:51.285Z</time>
      </trkpt>
      <trkpt lat="47.02656" lon="8.91712">
        <ele>1126</ele>
        <time>2021-08-03T09:13:52.285Z</time>
      </trkpt>
      <trkpt lat="47.02655" lon="8.91708">
        <ele>1126</ele>
        <time>2021-08-03T09:13:53.285Z</time>
      </trkpt>
      <trkpt lat="47.02654" lon="8.91706">
        <ele>1125</ele>
        <time>2021-08-03T09:13:54.285Z</time>
      </trkpt>
      <trkpt lat="47.02652" lon="8.91705">
        <ele>1125</ele>
        <time>2021-08-03T09:13:55.285Z</time>
      </trkpt>
      <trkpt lat="47.02651" lon="8.91704">
        <ele>1125</ele>
        <time>2021-08-03T09:13:56.284Z</time>
      </trkpt>
      <trkpt lat="47.02651" lon="8.91704">
        <ele>1125</ele>
        <time>2021-08-03T09:13:57.285Z</time>
      </trkpt>
      <trkpt lat="47.02651" lon="8.91703">
        <ele>1124</ele>
        <time>2021-08-03T09:13:58.284Z</time>
      </trkpt>
      <trkpt lat="47.0265" lon="8.91702">
        <ele>1124</ele>
        <time>2021-08-03T09:13:59.285Z</time>
      </trkpt>
      <trkpt lat="47.02648" lon="8.91702">
        <ele>1123</ele>
        <time>2021-08-03T09:14:00.284Z</time>
      </trkpt>
      <trkpt lat="47.02647" lon="8.91701">
        <ele>1123</ele>
        <time>2021-08-03T09:14:01.284Z</time>
      </trkpt>
      <trkpt lat="47.02647" lon="8.917">
        <ele>1123</ele>
        <time>2021-08-03T09:14:02.284Z</time>
      </trkpt>
      <trkpt lat="47.02646" lon="8.91699">
        <ele>1122</ele>
        <time>2021-08-03T09:14:03.284Z</time>
      </trkpt>
      <trkpt lat="47.02645" lon="8.91697">
        <ele>1122</ele>
        <time>2021-08-03T09:14:04.284Z</time>
      </trkpt>
      <trkpt lat="47.02645" lon="8.91695">
        <ele>1121</ele>
        <time>2021-08-03T09:14:05.284Z</time>
      </trkpt>
      <trkpt lat="47.02645" lon="8.91693">
        <ele>1121</ele>
        <time>2021-08-03T09:14:06.284Z</time>
      </trkpt>
      <trkpt lat="47.02644" lon="8.91692">
        <ele>1120</ele>
        <time>2021-08-03T09:14:07.284Z</time>
      </trkpt>
      <trkpt lat="47.02642" lon="8.91692">
        <ele>1120</ele>
        <time>2021-08-03T09:14:08.284Z</time>
      </trkpt>
      <trkpt lat="47.02641" lon="8.91692">
        <ele>1119</ele>
        <time>2021-08-03T09:14:09.284Z</time>
      </trkpt>
      <trkpt lat="47.0264" lon="8.91692">
        <ele>1119</ele>
        <time>2021-08-03T09:14:10.284Z</time>
      </trkpt>
      <trkpt lat="47.02639" lon="8.91693">
        <ele>1119</ele>
        <time>2021-08-03T09:14:11.284Z</time>
      </trkpt>
      <trkpt lat="47.02638" lon="8.91694">
        <ele>1119</ele>
        <time>2021-08-03T09:14:12.284Z</time>
      </trkpt>
      <trkpt lat="47.02639" lon="8.91694">
        <ele>1118</ele>
        <time>2021-08-03T09:14:13.284Z</time>
      </trkpt>
      <trkpt lat="47.0264" lon="8.91693">
        <ele>1118</ele>
        <time>2021-08-03T09:14:14.284Z</time>
      </trkpt>
      <trkpt lat="47.0264" lon="8.91691">
        <ele>1118</ele>
        <time>2021-08-03T09:14:15.284Z</time>
      </trkpt>
      <trkpt lat="47.02641" lon="8.91689">
        <ele>1118</ele>
        <time>2021-08-03T09:14:16.284Z</time>
      </trkpt>
      <trkpt lat="47.02641" lon="8.91688">
        <ele>1118</ele>
        <time>2021-08-03T09:14:17.284Z</time>
      </trkpt>
      <trkpt lat="47.02642" lon="8.91685">
        <ele>1117</ele>
        <time>2021-08-03T09:14:18.284Z</time>
      </trkpt>
      <trkpt lat="47.02642" lon="8.91683">
        <ele>1117</ele>
        <time>2021-08-03T09:14:19.284Z</time>
      </trkpt>
      <trkpt lat="47.02642" lon="8.91683">
        <ele>1117</ele>
        <time>2021-08-03T09:14:20.285Z</time>
      </trkpt>
      <trkpt lat="47.02643" lon="8.91683">
        <ele>1116</ele>
        <time>2021-08-03T09:14:21.284Z</time>
      </trkpt>
      <trkpt lat="47.02643" lon="8.91683">
        <ele>1116</ele>
        <time>2021-08-03T09:14:22.285Z</time>
      </trkpt>
      <trkpt lat="47.02643" lon="8.91683">
        <ele>1116</ele>
        <time>2021-08-03T09:14:23.285Z</time>
      </trkpt>
      <trkpt lat="47.02643" lon="8.91682">
        <ele>1115</ele>
        <time>2021-08-03T09:14:24.286Z</time>
      </trkpt>
      <trkpt lat="47.02643" lon="8.91681">
        <ele>1114</ele>
        <time>2021-08-03T09:14:25.286Z</time>
      </trkpt>
      <trkpt lat="47.02642" lon="8.91682">
        <ele>1114</ele>
        <time>2021-08-03T09:14:26.285Z</time>
      </trkpt>
      <trkpt lat="47.0264" lon="8.91682">
        <ele>1114</ele>
        <time>2021-08-03T09:14:27.286Z</time>
      </trkpt>
      <trkpt lat="47.02638" lon="8.91683">
        <ele>1113</ele>
        <time>2021-08-03T09:14:28.286Z</time>
      </trkpt>
      <trkpt lat="47.02637" lon="8.91684">
        <ele>1113</ele>
        <time>2021-08-03T09:14:29.286Z</time>
      </trkpt>
      <trkpt lat="47.02635" lon="8.91684">
        <ele>1113</ele>
        <time>2021-08-03T09:14:30.286Z</time>
      </trkpt>
      <trkpt lat="47.02634" lon="8.91683">
        <ele>1112</ele>
        <time>2021-08-03T09:14:31.285Z</time>
      </trkpt>
      <trkpt lat="47.02633" lon="8.91682">
        <ele>1112</ele>
        <time>2021-08-03T09:14:32.286Z</time>
      </trkpt>
      <trkpt lat="47.02633" lon="8.91681">
        <ele>1112</ele>
        <time>2021-08-03T09:14:33.286Z</time>
      </trkpt>
      <trkpt lat="47.02631" lon="8.91679">
        <ele>1112</ele>
        <time>2021-08-03T09:14:34.286Z</time>
      </trkpt>
      <trkpt lat="47.0263" lon="8.91678">
        <ele>1112</ele>
        <time>2021-08-03T09:14:35.285Z</time>
      </trkpt>
      <trkpt lat="47.02629" lon="8.91677">
        <ele>1112</ele>
        <time>2021-08-03T09:14:36.285Z</time>
      </trkpt>
      <trkpt lat="47.02629" lon="8.91677">
        <ele>1112</ele>
        <time>2021-08-03T09:14:37.285Z</time>
      </trkpt>
      <trkpt lat="47.02628" lon="8.91675">
        <ele>1112</ele>
        <time>2021-08-03T09:14:38.286Z</time>
      </trkpt>
      <trkpt lat="47.02628" lon="8.91674">
        <ele>1112</ele>
        <time>2021-08-03T09:14:39.286Z</time>
      </trkpt>
      <trkpt lat="47.02627" lon="8.91674">
        <ele>1112</ele>
        <time>2021-08-03T09:14:40.286Z</time>
      </trkpt>
      <trkpt lat="47.02626" lon="8.91675">
        <ele>1112</ele>
        <time>2021-08-03T09:14:41.286Z</time>
      </trkpt>
      <trkpt lat="47.02625" lon="8.91676">
        <ele>1112</ele>
        <time>2021-08-03T09:14:42.286Z</time>
      </trkpt>
      <trkpt lat="47.02624" lon="8.91676">
        <ele>1111</ele>
        <time>2021-08-03T09:14:43.286Z</time>
      </trkpt>
      <trkpt lat="47.02623" lon="8.91677">
        <ele>1111</ele>
        <time>2021-08-03T09:14:44.286Z</time>
      </trkpt>
      <trkpt lat="47.02623" lon="8.91678">
        <ele>1110</ele>
        <time>2021-08-03T09:14:45.286Z</time>
      </trkpt>
      <trkpt lat="47.02622" lon="8.91679">
        <ele>1110</ele>
        <time>2021-08-03T09:14:46.286Z</time>
      </trkpt>
      <trkpt lat="47.02622" lon="8.9168">
        <ele>1109</ele>
        <time>2021-08-03T09:14:47.285Z</time>
      </trkpt>
      <trkpt lat="47.02622" lon="8.91681">
        <ele>1109</ele>
        <time>2021-08-03T09:14:48.286Z</time>
      </trkpt>
      <trkpt lat="47.02622" lon="8.91681">
        <ele>1109</ele>
        <time>2021-08-03T09:14:49.285Z</time>
      </trkpt>
      <trkpt lat="47.02622" lon="8.91681">
        <ele>1108</ele>
        <time>2021-08-03T09:14:50.286Z</time>
      </trkpt>
      <trkpt lat="47.02622" lon="8.91681">
        <ele>1108</ele>
        <time>2021-08-03T09:14:51.287Z</time>
      </trkpt>
      <trkpt lat="47.02622" lon="8.9168">
        <ele>1108</ele>
        <time>2021-08-03T09:14:52.286Z</time>
      </trkpt>
      <trkpt lat="47.02621" lon="8.9168">
        <ele>1108</ele>
        <time>2021-08-03T09:14:53.286Z</time>
      </trkpt>
      <trkpt lat="47.02621" lon="8.9168">
        <ele>1108</ele>
        <time>2021-08-03T09:14:54.287Z</time>
      </trkpt>
      <trkpt lat="47.02621" lon="8.9168">
        <ele>1108</ele>
        <time>2021-08-03T09:14:55.287Z</time>
      </trkpt>
      <trkpt lat="47.02621" lon="8.9168">
        <ele>1108</ele>
        <time>2021-08-03T09:14:56.287Z</time>
      </trkpt>
      <trkpt lat="47.0262" lon="8.91678">
        <ele>1108</ele>
        <time>2021-08-03T09:14:57.287Z</time>
      </trkpt>
      <trkpt lat="47.02618" lon="8.91677">
        <ele>1107</ele>
        <time>2021-08-03T09:14:58.287Z</time>
      </trkpt>
      <trkpt lat="47.02618" lon="8.91677">
        <ele>1107</ele>
        <time>2021-08-03T09:14:59.287Z</time>
      </trkpt>
      <trkpt lat="47.02617" lon="8.91677">
        <ele>1107</ele>
        <time>2021-08-03T09:15:00.288Z</time>
      </trkpt>
      <trkpt lat="47.02617" lon="8.91677">
        <ele>1107</ele>
        <time>2021-08-03T09:15:01.288Z</time>
      </trkpt>
      <trkpt lat="47.02617" lon="8.91677">
        <ele>1108</ele>
        <time>2021-08-03T09:15:02.287Z</time>
      </trkpt>
      <trkpt lat="47.02617" lon="8.91677">
        <ele>1108</ele>
        <time>2021-08-03T09:15:03.288Z</time>
      </trkpt>
      <trkpt lat="47.02615" lon="8.91676">
        <ele>1108</ele>
        <time>2021-08-03T09:15:04.289Z</time>
      </trkpt>
      <trkpt lat="47.02612" lon="8.91674">
        <ele>1109</ele>
        <time>2021-08-03T09:15:05.288Z</time>
      </trkpt>
      <trkpt lat="47.02611" lon="8.91673">
        <ele>1109</ele>
        <time>2021-08-03T09:15:06.288Z</time>
      </trkpt>
      <trkpt lat="47.0261" lon="8.91672">
        <ele>1109</ele>
        <time>2021-08-03T09:15:07.288Z</time>
      </trkpt>
      <trkpt lat="47.02609" lon="8.91671">
        <ele>1109</ele>
        <time>2021-08-03T09:15:08.289Z</time>
      </trkpt>
      <trkpt lat="47.02609" lon="8.9167">
        <ele>1109</ele>
        <time>2021-08-03T09:15:09.288Z</time>
      </trkpt>
      <trkpt lat="47.02609" lon="8.9167">
        <ele>1109</ele>
        <time>2021-08-03T09:15:10.288Z</time>
      </trkpt>
      <trkpt lat="47.02608" lon="8.91668">
        <ele>1109</ele>
        <time>2021-08-03T09:15:11.289Z</time>
      </trkpt>
      <trkpt lat="47.02608" lon="8.91668">
        <ele>1109</ele>
        <time>2021-08-03T09:15:12.288Z</time>
      </trkpt>
      <trkpt lat="47.02608" lon="8.91667">
        <ele>1109</ele>
        <time>2021-08-03T09:15:13.289Z</time>
      </trkpt>
      <trkpt lat="47.02608" lon="8.91666">
        <ele>1109</ele>
        <time>2021-08-03T09:15:14.289Z</time>
      </trkpt>
      <trkpt lat="47.02607" lon="8.91665">
        <ele>1110</ele>
        <time>2021-08-03T09:15:15.288Z</time>
      </trkpt>
      <trkpt lat="47.02606" lon="8.91663">
        <ele>1110</ele>
        <time>2021-08-03T09:15:16.289Z</time>
      </trkpt>
      <trkpt lat="47.02606" lon="8.91662">
        <ele>1110</ele>
        <time>2021-08-03T09:15:17.289Z</time>
      </trkpt>
      <trkpt lat="47.02605" lon="8.91661">
        <ele>1111</ele>
        <time>2021-08-03T09:15:18.289Z</time>
      </trkpt>
      <trkpt lat="47.02607" lon="8.9166">
        <ele>1111</ele>
        <time>2021-08-03T09:15:19.289Z</time>
      </trkpt>
      <trkpt lat="47.02607" lon="8.91659">
        <ele>1111</ele>
        <time>2021-08-03T09:15:20.288Z</time>
      </trkpt>
      <trkpt lat="47.02607" lon="8.91659">
        <ele>1111</ele>
        <time>2021-08-03T09:15:21.288Z</time>
      </trkpt>
      <trkpt lat="47.02606" lon="8.91658">
        <ele>1111</ele>
        <time>2021-08-03T09:15:22.288Z</time>
      </trkpt>
      <trkpt lat="47.02605" lon="8.91658">
        <ele>1111</ele>
        <time>2021-08-03T09:15:23.288Z</time>
      </trkpt>
      <trkpt lat="47.02603" lon="8.91657">
        <ele>1111</ele>
        <time>2021-08-03T09:15:24.289Z</time>
      </trkpt>
      <trkpt lat="47.02602" lon="8.91657">
        <ele>1111</ele>
        <time>2021-08-03T09:15:25.289Z</time>
      </trkpt>
      <trkpt lat="47.02603" lon="8.91658">
        <ele>1111</ele>
        <time>2021-08-03T09:15:26.289Z</time>
      </trkpt>
      <trkpt lat="47.02605" lon="8.91659">
        <ele>1111</ele>
        <time>2021-08-03T09:15:27.289Z</time>
      </trkpt>
      <trkpt lat="47.02607" lon="8.91661">
        <ele>1111</ele>
        <time>2021-08-03T09:15:28.289Z</time>
      </trkpt>
      <trkpt lat="47.02608" lon="8.91661">
        <ele>1111</ele>
        <time>2021-08-03T09:15:29.289Z</time>
      </trkpt>
      <trkpt lat="47.02609" lon="8.9166">
        <ele>1111</ele>
        <time>2021-08-03T09:15:30.289Z</time>
      </trkpt>
      <trkpt lat="47.02611" lon="8.9166">
        <ele>1111</ele>
        <time>2021-08-03T09:15:31.289Z</time>
      </trkpt>
      <trkpt lat="47.02611" lon="8.91658">
        <ele>1111</ele>
        <time>2021-08-03T09:15:32.289Z</time>
      </trkpt>
      <trkpt lat="47.02611" lon="8.91658">
        <ele>1111</ele>
        <time>2021-08-03T09:15:33.289Z</time>
      </trkpt>
      <trkpt lat="47.0261" lon="8.91658">
        <ele>1112</ele>
        <time>2021-08-03T09:15:34.289Z</time>
      </trkpt>
      <trkpt lat="47.02609" lon="8.91658">
        <ele>1112</ele>
        <time>2021-08-03T09:15:35.288Z</time>
      </trkpt>
      <trkpt lat="47.02608" lon="8.91657">
        <ele>1112</ele>
        <time>2021-08-03T09:15:36.289Z</time>
      </trkpt>
      <trkpt lat="47.02607" lon="8.91656">
        <ele>1112</ele>
        <time>2021-08-03T09:15:37.289Z</time>
      </trkpt>
      <trkpt lat="47.02605" lon="8.91654">
        <ele>1112</ele>
        <time>2021-08-03T09:15:38.289Z</time>
      </trkpt>
      <trkpt lat="47.02603" lon="8.91653">
        <ele>1112</ele>
        <time>2021-08-03T09:15:39.288Z</time>
      </trkpt>
      <trkpt lat="47.02601" lon="8.91652">
        <ele>1112</ele>
        <time>2021-08-03T09:15:40.288Z</time>
      </trkpt>
      <trkpt lat="47.02599" lon="8.91652">
        <ele>1112</ele>
        <time>2021-08-03T09:15:41.288Z</time>
      </trkpt>
      <trkpt lat="47.02596" lon="8.91652">
        <ele>1111</ele>
        <time>2021-08-03T09:15:42.288Z</time>
      </trkpt>
      <trkpt lat="47.02594" lon="8.91652">
        <ele>1111</ele>
        <time>2021-08-03T09:15:43.289Z</time>
      </trkpt>
      <trkpt lat="47.02592" lon="8.9165">
        <ele>1111</ele>
        <time>2021-08-03T09:15:44.288Z</time>
      </trkpt>
      <trkpt lat="47.02591" lon="8.91647">
        <ele>1111</ele>
        <time>2021-08-03T09:15:45.288Z</time>
      </trkpt>
      <trkpt lat="47.0259" lon="8.91644">
        <ele>1111</ele>
        <time>2021-08-03T09:15:46.289Z</time>
      </trkpt>
      <trkpt lat="47.0259" lon="8.91641">
        <ele>1111</ele>
        <time>2021-08-03T09:15:47.289Z</time>
      </trkpt>
      <trkpt lat="47.0259" lon="8.91639">
        <ele>1111</ele>
        <time>2021-08-03T09:15:48.289Z</time>
      </trkpt>
      <trkpt lat="47.02591" lon="8.91638">
        <ele>1112</ele>
        <time>2021-08-03T09:15:49.289Z</time>
      </trkpt>
      <trkpt lat="47.02592" lon="8.91637">
        <ele>1112</ele>
        <time>2021-08-03T09:15:50.289Z</time>
      </trkpt>
      <trkpt lat="47.02591" lon="8.91636">
        <ele>1112</ele>
        <time>2021-08-03T09:15:51.289Z</time>
      </trkpt>
      <trkpt lat="47.02591" lon="8.91636">
        <ele>1111</ele>
        <time>2021-08-03T09:15:52.288Z</time>
      </trkpt>
      <trkpt lat="47.02591" lon="8.91637">
        <ele>1111</ele>
        <time>2021-08-03T09:15:53.289Z</time>
      </trkpt>
      <trkpt lat="47.02591" lon="8.91637">
        <ele>1111</ele>
        <time>2021-08-03T09:15:54.289Z</time>
      </trkpt>
      <trkpt lat="47.02591" lon="8.91636">
        <ele>1111</ele>
        <time>2021-08-03T09:15:55.289Z</time>
      </trkpt>
      <trkpt lat="47.02591" lon="8.91635">
        <ele>1111</ele>
        <time>2021-08-03T09:15:56.289Z</time>
      </trkpt>
      <trkpt lat="47.0259" lon="8.91633">
        <ele>1111</ele>
        <time>2021-08-03T09:15:57.288Z</time>
      </trkpt>
      <trkpt lat="47.02589" lon="8.91631">
        <ele>1112</ele>
        <time>2021-08-03T09:15:58.289Z</time>
      </trkpt>
      <trkpt lat="47.02588" lon="8.91631">
        <ele>1112</ele>
        <time>2021-08-03T09:15:59.288Z</time>
      </trkpt>
      <trkpt lat="47.02588" lon="8.91631">
        <ele>1112</ele>
        <time>2021-08-03T09:16:00.289Z</time>
      </trkpt>
      <trkpt lat="47.02588" lon="8.91631">
        <ele>1112</ele>
        <time>2021-08-03T09:16:01.288Z</time>
      </trkpt>
      <trkpt lat="47.02589" lon="8.91632">
        <ele>1113</ele>
        <time>2021-08-03T09:16:02.289Z</time>
      </trkpt>
      <trkpt lat="47.02588" lon="8.91631">
        <ele>1113</ele>
        <time>2021-08-03T09:16:03.289Z</time>
      </trkpt>
      <trkpt lat="47.02588" lon="8.9163">
        <ele>1113</ele>
        <time>2021-08-03T09:16:04.289Z</time>
      </trkpt>
      <trkpt lat="47.02586" lon="8.91629">
        <ele>1113</ele>
        <time>2021-08-03T09:16:05.288Z</time>
      </trkpt>
      <trkpt lat="47.02583" lon="8.91628">
        <ele>1113</ele>
        <time>2021-08-03T09:16:06.288Z</time>
      </trkpt>
      <trkpt lat="47.02581" lon="8.91628">
        <ele>1112</ele>
        <time>2021-08-03T09:16:07.289Z</time>
      </trkpt>
      <trkpt lat="47.0258" lon="8.91628">
        <ele>1112</ele>
        <time>2021-08-03T09:16:08.289Z</time>
      </trkpt>
      <trkpt lat="47.02579" lon="8.91628">
        <ele>1112</ele>
        <time>2021-08-03T09:16:09.289Z</time>
      </trkpt>
      <trkpt lat="47.0258" lon="8.91627">
        <ele>1112</ele>
        <time>2021-08-03T09:16:10.289Z</time>
      </trkpt>
      <trkpt lat="47.0258" lon="8.91627">
        <ele>1112</ele>
        <time>2021-08-03T09:16:11.289Z</time>
      </trkpt>
      <trkpt lat="47.0258" lon="8.91626">
        <ele>1112</ele>
        <time>2021-08-03T09:16:12.289Z</time>
      </trkpt>
      <trkpt lat="47.02579" lon="8.91625">
        <ele>1112</ele>
        <time>2021-08-03T09:16:13.289Z</time>
      </trkpt>
      <trkpt lat="47.0258" lon="8.91625">
        <ele>1112</ele>
        <time>2021-08-03T09:16:14.289Z</time>
      </trkpt>
      <trkpt lat="47.0258" lon="8.91624">
        <ele>1112</ele>
        <time>2021-08-03T09:16:15.288Z</time>
      </trkpt>
      <trkpt lat="47.02578" lon="8.91625">
        <ele>1112</ele>
        <time>2021-08-03T09:16:16.289Z</time>
      </trkpt>
      <trkpt lat="47.02575" lon="8.91626">
        <ele>1112</ele>
        <time>2021-08-03T09:16:17.289Z</time>
      </trkpt>
      <trkpt lat="47.02574" lon="8.91624">
        <ele>1112</ele>
        <time>2021-08-03T09:16:18.288Z</time>
      </trkpt>
      <trkpt lat="47.02574" lon="8.91623">
        <ele>1112</ele>
        <time>2021-08-03T09:16:19.289Z</time>
      </trkpt>
      <trkpt lat="47.02574" lon="8.91621">
        <ele>1112</ele>
        <time>2021-08-03T09:16:20.289Z</time>
      </trkpt>
      <trkpt lat="47.02573" lon="8.91619">
        <ele>1111</ele>
        <time>2021-08-03T09:16:21.288Z</time>
      </trkpt>
      <trkpt lat="47.02573" lon="8.91618">
        <ele>1111</ele>
        <time>2021-08-03T09:16:22.288Z</time>
      </trkpt>
      <trkpt lat="47.02574" lon="8.91616">
        <ele>1111</ele>
        <time>2021-08-03T09:16:23.289Z</time>
      </trkpt>
      <trkpt lat="47.02575" lon="8.91614">
        <ele>1111</ele>
        <time>2021-08-03T09:16:24.289Z</time>
      </trkpt>
      <trkpt lat="47.02574" lon="8.91614">
        <ele>1111</ele>
        <time>2021-08-03T09:16:25.289Z</time>
      </trkpt>
      <trkpt lat="47.02573" lon="8.91616">
        <ele>1112</ele>
        <time>2021-08-03T09:16:26.289Z</time>
      </trkpt>
      <trkpt lat="47.02573" lon="8.91615">
        <ele>1112</ele>
        <time>2021-08-03T09:16:27.288Z</time>
      </trkpt>
      <trkpt lat="47.02573" lon="8.91616">
        <ele>1112</ele>
        <time>2021-08-03T09:16:28.289Z</time>
      </trkpt>
      <trkpt lat="47.02572" lon="8.91615">
        <ele>1112</ele>
        <time>2021-08-03T09:16:29.289Z</time>
      </trkpt>
      <trkpt lat="47.02572" lon="8.91613">
        <ele>1112</ele>
        <time>2021-08-03T09:16:30.289Z</time>
      </trkpt>
      <trkpt lat="47.02572" lon="8.91613">
        <ele>1112</ele>
        <time>2021-08-03T09:16:31.289Z</time>
      </trkpt>
      <trkpt lat="47.02571" lon="8.91612">
        <ele>1112</ele>
        <time>2021-08-03T09:16:32.289Z</time>
      </trkpt>
      <trkpt lat="47.02571" lon="8.91612">
        <ele>1112</ele>
        <time>2021-08-03T09:16:33.289Z</time>
      </trkpt>
      <trkpt lat="47.0257" lon="8.91611">
        <ele>1112</ele>
        <time>2021-08-03T09:16:34.289Z</time>
      </trkpt>
      <trkpt lat="47.0257" lon="8.91611">
        <ele>1112</ele>
        <time>2021-08-03T09:16:35.288Z</time>
      </trkpt>
      <trkpt lat="47.02571" lon="8.91609">
        <ele>1112</ele>
        <time>2021-08-03T09:16:36.289Z</time>
      </trkpt>
      <trkpt lat="47.02571" lon="8.91607">
        <ele>1113</ele>
        <time>2021-08-03T09:16:37.288Z</time>
      </trkpt>
      <trkpt lat="47.02572" lon="8.91605">
        <ele>1113</ele>
        <time>2021-08-03T09:16:38.288Z</time>
      </trkpt>
      <trkpt lat="47.02571" lon="8.91603">
        <ele>1113</ele>
        <time>2021-08-03T09:16:39.288Z</time>
      </trkpt>
      <trkpt lat="47.0257" lon="8.91601">
        <ele>1113</ele>
        <time>2021-08-03T09:16:40.289Z</time>
      </trkpt>
      <trkpt lat="47.02568" lon="8.91599">
        <ele>1113</ele>
        <time>2021-08-03T09:16:41.289Z</time>
      </trkpt>
      <trkpt lat="47.02568" lon="8.91597">
        <ele>1113</ele>
        <time>2021-08-03T09:16:42.289Z</time>
      </trkpt>
      <trkpt lat="47.02567" lon="8.91597">
        <ele>1113</ele>
        <time>2021-08-03T09:16:43.289Z</time>
      </trkpt>
      <trkpt lat="47.02567" lon="8.91598">
        <ele>1113</ele>
        <time>2021-08-03T09:16:44.289Z</time>
      </trkpt>
      <trkpt lat="47.02566" lon="8.91599">
        <ele>1113</ele>
        <time>2021-08-03T09:16:45.289Z</time>
      </trkpt>
      <trkpt lat="47.02566" lon="8.91599">
        <ele>1113</ele>
        <time>2021-08-03T09:16:46.289Z</time>
      </trkpt>
      <trkpt lat="47.02567" lon="8.91599">
        <ele>1113</ele>
        <time>2021-08-03T09:16:47.288Z</time>
      </trkpt>
      <trkpt lat="47.02567" lon="8.91599">
        <ele>1112</ele>
        <time>2021-08-03T09:16:48.288Z</time>
      </trkpt>
      <trkpt lat="47.02567" lon="8.91599">
        <ele>1112</ele>
        <time>2021-08-03T09:16:49.289Z</time>
      </trkpt>
      <trkpt lat="47.02566" lon="8.91599">
        <ele>1112</ele>
        <time>2021-08-03T09:16:50.288Z</time>
      </trkpt>
      <trkpt lat="47.02566" lon="8.91598">
        <ele>1112</ele>
        <time>2021-08-03T09:16:51.289Z</time>
      </trkpt>
      <trkpt lat="47.02566" lon="8.91597">
        <ele>1111</ele>
        <time>2021-08-03T09:16:52.289Z</time>
      </trkpt>
      <trkpt lat="47.02565" lon="8.91596">
        <ele>1111</ele>
        <time>2021-08-03T09:16:53.289Z</time>
      </trkpt>
      <trkpt lat="47.02564" lon="8.91596">
        <ele>1111</ele>
        <time>2021-08-03T09:16:54.288Z</time>
      </trkpt>
      <trkpt lat="47.02564" lon="8.91596">
        <ele>1111</ele>
        <time>2021-08-03T09:16:55.289Z</time>
      </trkpt>
      <trkpt lat="47.02559" lon="8.91593">
        <ele>1113</ele>
        <time>2021-08-03T09:16:56.290Z</time>
      </trkpt>
      <trkpt lat="47.02559" lon="8.91593">
        <ele>1113</ele>
        <time>2021-08-03T09:16:57.289Z</time>
      </trkpt>
      <trkpt lat="47.02558" lon="8.91593">
        <ele>1113</ele>
        <time>2021-08-03T09:16:58.289Z</time>
      </trkpt>
      <trkpt lat="47.02558" lon="8.91591">
        <ele>1112</ele>
        <time>2021-08-03T09:16:59.290Z</time>
      </trkpt>
      <trkpt lat="47.02558" lon="8.9159">
        <ele>1112</ele>
        <time>2021-08-03T09:17:00.290Z</time>
      </trkpt>
      <trkpt lat="47.02559" lon="8.91589">
        <ele>1112</ele>
        <time>2021-08-03T09:17:01.290Z</time>
      </trkpt>
      <trkpt lat="47.0256" lon="8.91591">
        <ele>1118</ele>
        <time>2021-08-03T09:17:02.291Z</time>
      </trkpt>
      <trkpt lat="47.02559" lon="8.91589">
        <ele>1119</ele>
        <time>2021-08-03T09:17:03.291Z</time>
      </trkpt>
      <trkpt lat="47.02558" lon="8.91587">
        <ele>1120</ele>
        <time>2021-08-03T09:17:04.291Z</time>
      </trkpt>
      <trkpt lat="47.02557" lon="8.91586">
        <ele>1123</ele>
        <time>2021-08-03T09:17:05.291Z</time>
      </trkpt>
      <trkpt lat="47.02557" lon="8.91586">
        <ele>1123</ele>
        <time>2021-08-03T09:17:06.291Z</time>
      </trkpt>
      <trkpt lat="47.02558" lon="8.91586">
        <ele>1124</ele>
        <time>2021-08-03T09:17:07.291Z</time>
      </trkpt>
      <trkpt lat="47.02557" lon="8.91587">
        <ele>1125</ele>
        <time>2021-08-03T09:17:08.292Z</time>
      </trkpt>
      <trkpt lat="47.02557" lon="8.91587">
        <ele>1125</ele>
        <time>2021-08-03T09:17:09.292Z</time>
      </trkpt>
      <trkpt lat="47.02557" lon="8.91589">
        <ele>1126</ele>
        <time>2021-08-03T09:17:10.291Z</time>
      </trkpt>
      <trkpt lat="47.02558" lon="8.91588">
        <ele>1126</ele>
        <time>2021-08-03T09:17:11.291Z</time>
      </trkpt>
      <trkpt lat="47.02558" lon="8.91588">
        <ele>1127</ele>
        <time>2021-08-03T09:17:12.292Z</time>
      </trkpt>
      <trkpt lat="47.02558" lon="8.91589">
        <ele>1127</ele>
        <time>2021-08-03T09:17:13.292Z</time>
      </trkpt>
      <trkpt lat="47.02558" lon="8.91588">
        <ele>1127</ele>
        <time>2021-08-03T09:17:14.292Z</time>
      </trkpt>
      <trkpt lat="47.02558" lon="8.91588">
        <ele>1127</ele>
        <time>2021-08-03T09:17:15.292Z</time>
      </trkpt>
      <trkpt lat="47.02557" lon="8.91588">
        <ele>1126</ele>
        <time>2021-08-03T09:17:16.293Z</time>
      </trkpt>
      <trkpt lat="47.02557" lon="8.91588">
        <ele>1126</ele>
        <time>2021-08-03T09:17:17.292Z</time>
      </trkpt>
      <trkpt lat="47.02556" lon="8.91584">
        <ele>1123</ele>
        <time>2021-08-03T09:17:18.292Z</time>
      </trkpt>
      <trkpt lat="47.02556" lon="8.91584">
        <ele>1123</ele>
        <time>2021-08-03T09:17:19.292Z</time>
      </trkpt>
      <trkpt lat="47.02555" lon="8.91584">
        <ele>1123</ele>
        <time>2021-08-03T09:17:20.293Z</time>
      </trkpt>
      <trkpt lat="47.02555" lon="8.91585">
        <ele>1123</ele>
        <time>2021-08-03T09:17:21.293Z</time>
      </trkpt>
      <trkpt lat="47.02555" lon="8.91585">
        <ele>1123</ele>
        <time>2021-08-03T09:17:22.292Z</time>
      </trkpt>
      <trkpt lat="47.02555" lon="8.91586">
        <ele>1123</ele>
        <time>2021-08-03T09:17:23.292Z</time>
      </trkpt>
      <trkpt lat="47.02555" lon="8.9159">
        <ele>1123</ele>
        <time>2021-08-03T09:17:24.292Z</time>
      </trkpt>
      <trkpt lat="47.02556" lon="8.9159">
        <ele>1123</ele>
        <time>2021-08-03T09:17:25.292Z</time>
      </trkpt>
      <trkpt lat="47.02555" lon="8.91591">
        <ele>1123</ele>
        <time>2021-08-03T09:17:26.293Z</time>
      </trkpt>
      <trkpt lat="47.02555" lon="8.91591">
        <ele>1122</ele>
        <time>2021-08-03T09:17:27.292Z</time>
      </trkpt>
      <trkpt lat="47.02555" lon="8.91591">
        <ele>1122</ele>
        <time>2021-08-03T09:17:28.293Z</time>
      </trkpt>
      <trkpt lat="47.02555" lon="8.9159">
        <ele>1121</ele>
        <time>2021-08-03T09:17:29.293Z</time>
      </trkpt>
      <trkpt lat="47.02554" lon="8.9159">
        <ele>1121</ele>
        <time>2021-08-03T09:17:30.293Z</time>
      </trkpt>
      <trkpt lat="47.02558" lon="8.91588">
        <ele>1121</ele>
        <time>2021-08-03T09:17:31.293Z</time>
      </trkpt>
      <trkpt lat="47.02558" lon="8.91588">
        <ele>1121</ele>
        <time>2021-08-03T09:17:32.294Z</time>
      </trkpt>
      <trkpt lat="47.02558" lon="8.91588">
        <ele>1121</ele>
        <time>2021-08-03T09:17:33.293Z</time>
      </trkpt>
      <trkpt lat="47.02558" lon="8.91588">
        <ele>1121</ele>
        <time>2021-08-03T09:17:34.295Z</time>
      </trkpt>
      <trkpt lat="47.02557" lon="8.91587">
        <ele>1121</ele>
        <time>2021-08-03T09:17:35.294Z</time>
      </trkpt>
      <trkpt lat="47.02557" lon="8.91586">
        <ele>1121</ele>
        <time>2021-08-03T09:17:36.294Z</time>
      </trkpt>
      <trkpt lat="47.02556" lon="8.91586">
        <ele>1121</ele>
        <time>2021-08-03T09:17:37.296Z</time>
      </trkpt>
      <trkpt lat="47.02555" lon="8.91586">
        <ele>1121</ele>
        <time>2021-08-03T09:17:38.295Z</time>
      </trkpt>
      <trkpt lat="47.02554" lon="8.91586">
        <ele>1121</ele>
        <time>2021-08-03T09:17:39.295Z</time>
      </trkpt>
      <trkpt lat="47.02554" lon="8.91587">
        <ele>1121</ele>
        <time>2021-08-03T09:17:40.296Z</time>
      </trkpt>
      <trkpt lat="47.02553" lon="8.91587">
        <ele>1121</ele>
        <time>2021-08-03T09:17:41.295Z</time>
      </trkpt>
      <trkpt lat="47.02553" lon="8.91587">
        <ele>1121</ele>
        <time>2021-08-03T09:17:42.295Z</time>
      </trkpt>
      <trkpt lat="47.02553" lon="8.91586">
        <ele>1120</ele>
        <time>2021-08-03T09:17:43.295Z</time>
      </trkpt>
      <trkpt lat="47.02553" lon="8.91586">
        <ele>1120</ele>
        <time>2021-08-03T09:17:44.295Z</time>
      </trkpt>
      <trkpt lat="47.02553" lon="8.91585">
        <ele>1120</ele>
        <time>2021-08-03T09:17:45.295Z</time>
      </trkpt>
      <trkpt lat="47.02553" lon="8.91585">
        <ele>1121</ele>
        <time>2021-08-03T09:17:46.296Z</time>
      </trkpt>
      <trkpt lat="47.02553" lon="8.91583">
        <ele>1121</ele>
        <time>2021-08-03T09:17:47.296Z</time>
      </trkpt>
      <trkpt lat="47.02552" lon="8.91582">
        <ele>1121</ele>
        <time>2021-08-03T09:17:48.296Z</time>
      </trkpt>
      <trkpt lat="47.02552" lon="8.91582">
        <ele>1122</ele>
        <time>2021-08-03T09:17:49.296Z</time>
      </trkpt>
      <trkpt lat="47.02551" lon="8.91581">
        <ele>1122</ele>
        <time>2021-08-03T09:17:50.296Z</time>
      </trkpt>
      <trkpt lat="47.0255" lon="8.91581">
        <ele>1122</ele>
        <time>2021-08-03T09:17:51.296Z</time>
      </trkpt>
      <trkpt lat="47.02549" lon="8.9158">
        <ele>1123</ele>
        <time>2021-08-03T09:17:52.296Z</time>
      </trkpt>
      <trkpt lat="47.02549" lon="8.9158">
        <ele>1123</ele>
        <time>2021-08-03T09:17:53.296Z</time>
      </trkpt>
      <trkpt lat="47.02549" lon="8.91579">
        <ele>1123</ele>
        <time>2021-08-03T09:17:54.296Z</time>
      </trkpt>
      <trkpt lat="47.02549" lon="8.91579">
        <ele>1122</ele>
        <time>2021-08-03T09:17:55.295Z</time>
      </trkpt>
      <trkpt lat="47.02549" lon="8.91579">
        <ele>1121</ele>
        <time>2021-08-03T09:17:56.296Z</time>
      </trkpt>
      <trkpt lat="47.02548" lon="8.91579">
        <ele>1120</ele>
        <time>2021-08-03T09:17:57.296Z</time>
      </trkpt>
      <trkpt lat="47.02547" lon="8.91579">
        <ele>1120</ele>
        <time>2021-08-03T09:17:58.296Z</time>
      </trkpt>
      <trkpt lat="47.02546" lon="8.9158">
        <ele>1119</ele>
        <time>2021-08-03T09:17:59.295Z</time>
      </trkpt>
      <trkpt lat="47.02545" lon="8.9158">
        <ele>1118</ele>
        <time>2021-08-03T09:18:00.295Z</time>
      </trkpt>
      <trkpt lat="47.02544" lon="8.9158">
        <ele>1118</ele>
        <time>2021-08-03T09:18:01.296Z</time>
      </trkpt>
      <trkpt lat="47.02543" lon="8.91581">
        <ele>1118</ele>
        <time>2021-08-03T09:18:02.296Z</time>
      </trkpt>
      <trkpt lat="47.02541" lon="8.9158">
        <ele>1117</ele>
        <time>2021-08-03T09:18:03.296Z</time>
      </trkpt>
      <trkpt lat="47.0254" lon="8.91579">
        <ele>1117</ele>
        <time>2021-08-03T09:18:04.295Z</time>
      </trkpt>
      <trkpt lat="47.02539" lon="8.91577">
        <ele>1116</ele>
        <time>2021-08-03T09:18:05.296Z</time>
      </trkpt>
      <trkpt lat="47.02537" lon="8.91577">
        <ele>1116</ele>
        <time>2021-08-03T09:18:06.295Z</time>
      </trkpt>
      <trkpt lat="47.02536" lon="8.91577">
        <ele>1116</ele>
        <time>2021-08-03T09:18:07.296Z</time>
      </trkpt>
      <trkpt lat="47.02535" lon="8.91576">
        <ele>1116</ele>
        <time>2021-08-03T09:18:08.295Z</time>
      </trkpt>
      <trkpt lat="47.02534" lon="8.91575">
        <ele>1115</ele>
        <time>2021-08-03T09:18:09.296Z</time>
      </trkpt>
      <trkpt lat="47.02532" lon="8.91574">
        <ele>1115</ele>
        <time>2021-08-03T09:18:10.295Z</time>
      </trkpt>
      <trkpt lat="47.02531" lon="8.91574">
        <ele>1114</ele>
        <time>2021-08-03T09:18:11.295Z</time>
      </trkpt>
      <trkpt lat="47.02531" lon="8.91574">
        <ele>1114</ele>
        <time>2021-08-03T09:18:12.295Z</time>
      </trkpt>
      <trkpt lat="47.0253" lon="8.91573">
        <ele>1113</ele>
        <time>2021-08-03T09:18:13.296Z</time>
      </trkpt>
      <trkpt lat="47.02529" lon="8.91573">
        <ele>1113</ele>
        <time>2021-08-03T09:18:14.296Z</time>
      </trkpt>
      <trkpt lat="47.02528" lon="8.91573">
        <ele>1112</ele>
        <time>2021-08-03T09:18:15.296Z</time>
      </trkpt>
      <trkpt lat="47.02527" lon="8.91572">
        <ele>1112</ele>
        <time>2021-08-03T09:18:16.296Z</time>
      </trkpt>
      <trkpt lat="47.02527" lon="8.91571">
        <ele>1111</ele>
        <time>2021-08-03T09:18:17.296Z</time>
      </trkpt>
      <trkpt lat="47.02527" lon="8.91571">
        <ele>1111</ele>
        <time>2021-08-03T09:18:18.296Z</time>
      </trkpt>
      <trkpt lat="47.02526" lon="8.91571">
        <ele>1111</ele>
        <time>2021-08-03T09:18:19.296Z</time>
      </trkpt>
      <trkpt lat="47.02525" lon="8.91573">
        <ele>1111</ele>
        <time>2021-08-03T09:18:20.295Z</time>
      </trkpt>
      <trkpt lat="47.02524" lon="8.91574">
        <ele>1111</ele>
        <time>2021-08-03T09:18:21.296Z</time>
      </trkpt>
      <trkpt lat="47.02523" lon="8.91574">
        <ele>1112</ele>
        <time>2021-08-03T09:18:22.296Z</time>
      </trkpt>
      <trkpt lat="47.02522" lon="8.91574">
        <ele>1112</ele>
        <time>2021-08-03T09:18:23.295Z</time>
      </trkpt>
      <trkpt lat="47.02521" lon="8.91575">
        <ele>1112</ele>
        <time>2021-08-03T09:18:24.296Z</time>
      </trkpt>
      <trkpt lat="47.0252" lon="8.91576">
        <ele>1112</ele>
        <time>2021-08-03T09:18:25.296Z</time>
      </trkpt>
      <trkpt lat="47.02519" lon="8.91576">
        <ele>1111</ele>
        <time>2021-08-03T09:18:26.296Z</time>
      </trkpt>
      <trkpt lat="47.02518" lon="8.91576">
        <ele>1111</ele>
        <time>2021-08-03T09:18:27.296Z</time>
      </trkpt>
      <trkpt lat="47.02518" lon="8.91576">
        <ele>1111</ele>
        <time>2021-08-03T09:18:28.296Z</time>
      </trkpt>
      <trkpt lat="47.02517" lon="8.91576">
        <ele>1111</ele>
        <time>2021-08-03T09:18:29.296Z</time>
      </trkpt>
      <trkpt lat="47.02517" lon="8.91576">
        <ele>1111</ele>
        <time>2021-08-03T09:18:30.295Z</time>
      </trkpt>
      <trkpt lat="47.02517" lon="8.91576">
        <ele>1111</ele>
        <time>2021-08-03T09:18:31.296Z</time>
      </trkpt>
      <trkpt lat="47.02515" lon="8.91574">
        <ele>1111</ele>
        <time>2021-08-03T09:18:32.296Z</time>
      </trkpt>
      <trkpt lat="47.02515" lon="8.91573">
        <ele>1111</ele>
        <time>2021-08-03T09:18:33.297Z</time>
      </trkpt>
      <trkpt lat="47.02516" lon="8.91572">
        <ele>1111</ele>
        <time>2021-08-03T09:18:34.297Z</time>
      </trkpt>
      <trkpt lat="47.02516" lon="8.91572">
        <ele>1111</ele>
        <time>2021-08-03T09:18:35.296Z</time>
      </trkpt>
      <trkpt lat="47.02516" lon="8.91572">
        <ele>1111</ele>
        <time>2021-08-03T09:18:36.296Z</time>
      </trkpt>
      <trkpt lat="47.02516" lon="8.91573">
        <ele>1111</ele>
        <time>2021-08-03T09:18:37.296Z</time>
      </trkpt>
      <trkpt lat="47.02517" lon="8.91572">
        <ele>1112</ele>
        <time>2021-08-03T09:18:38.297Z</time>
      </trkpt>
      <trkpt lat="47.02516" lon="8.91572">
        <ele>1112</ele>
        <time>2021-08-03T09:18:39.297Z</time>
      </trkpt>
      <trkpt lat="47.02515" lon="8.91571">
        <ele>1112</ele>
        <time>2021-08-03T09:18:40.297Z</time>
      </trkpt>
      <trkpt lat="47.02515" lon="8.91571">
        <ele>1112</ele>
        <time>2021-08-03T09:18:41.297Z</time>
      </trkpt>
      <trkpt lat="47.02514" lon="8.91571">
        <ele>1112</ele>
        <time>2021-08-03T09:18:42.297Z</time>
      </trkpt>
      <trkpt lat="47.02514" lon="8.91571">
        <ele>1112</ele>
        <time>2021-08-03T09:18:43.298Z</time>
      </trkpt>
      <trkpt lat="47.02513" lon="8.91571">
        <ele>1112</ele>
        <time>2021-08-03T09:18:44.297Z</time>
      </trkpt>
      <trkpt lat="47.02513" lon="8.91572">
        <ele>1113</ele>
        <time>2021-08-03T09:18:45.297Z</time>
      </trkpt>
      <trkpt lat="47.02512" lon="8.91572">
        <ele>1113</ele>
        <time>2021-08-03T09:18:46.298Z</time>
      </trkpt>
      <trkpt lat="47.0251" lon="8.91572">
        <ele>1113</ele>
        <time>2021-08-03T09:18:47.298Z</time>
      </trkpt>
      <trkpt lat="47.02509" lon="8.91572">
        <ele>1113</ele>
        <time>2021-08-03T09:18:48.298Z</time>
      </trkpt>
      <trkpt lat="47.02504" lon="8.91571">
        <ele>1114</ele>
        <time>2021-08-03T09:18:49.299Z</time>
      </trkpt>
      <trkpt lat="47.02504" lon="8.9157">
        <ele>1115</ele>
        <time>2021-08-03T09:18:50.299Z</time>
      </trkpt>
      <trkpt lat="47.02504" lon="8.91568">
        <ele>1115</ele>
        <time>2021-08-03T09:18:51.299Z</time>
      </trkpt>
      <trkpt lat="47.02504" lon="8.91567">
        <ele>1115</ele>
        <time>2021-08-03T09:18:52.299Z</time>
      </trkpt>
      <trkpt lat="47.02503" lon="8.91567">
        <ele>1116</ele>
        <time>2021-08-03T09:18:53.299Z</time>
      </trkpt>
      <trkpt lat="47.02502" lon="8.91567">
        <ele>1116</ele>
        <time>2021-08-03T09:18:54.299Z</time>
      </trkpt>
      <trkpt lat="47.02502" lon="8.91566">
        <ele>1117</ele>
        <time>2021-08-03T09:18:55.299Z</time>
      </trkpt>
      <trkpt lat="47.02501" lon="8.91565">
        <ele>1117</ele>
        <time>2021-08-03T09:18:56.298Z</time>
      </trkpt>
      <trkpt lat="47.02501" lon="8.91565">
        <ele>1117</ele>
        <time>2021-08-03T09:18:57.299Z</time>
      </trkpt>
      <trkpt lat="47.02501" lon="8.91564">
        <ele>1117</ele>
        <time>2021-08-03T09:18:58.299Z</time>
      </trkpt>
      <trkpt lat="47.025" lon="8.91563">
        <ele>1117</ele>
        <time>2021-08-03T09:18:59.299Z</time>
      </trkpt>
      <trkpt lat="47.025" lon="8.91563">
        <ele>1117</ele>
        <time>2021-08-03T09:19:00.298Z</time>
      </trkpt>
      <trkpt lat="47.025" lon="8.91562">
        <ele>1117</ele>
        <time>2021-08-03T09:19:01.299Z</time>
      </trkpt>
      <trkpt lat="47.025" lon="8.91561">
        <ele>1117</ele>
        <time>2021-08-03T09:19:02.298Z</time>
      </trkpt>
      <trkpt lat="47.02499" lon="8.9156">
        <ele>1117</ele>
        <time>2021-08-03T09:19:03.298Z</time>
      </trkpt>
      <trkpt lat="47.02498" lon="8.9156">
        <ele>1116</ele>
        <time>2021-08-03T09:19:04.299Z</time>
      </trkpt>
      <trkpt lat="47.02498" lon="8.91558">
        <ele>1116</ele>
        <time>2021-08-03T09:19:05.299Z</time>
      </trkpt>
      <trkpt lat="47.02497" lon="8.91557">
        <ele>1115</ele>
        <time>2021-08-03T09:19:06.299Z</time>
      </trkpt>
      <trkpt lat="47.02497" lon="8.91556">
        <ele>1115</ele>
        <time>2021-08-03T09:19:07.299Z</time>
      </trkpt>
      <trkpt lat="47.02496" lon="8.91555">
        <ele>1114</ele>
        <time>2021-08-03T09:19:08.298Z</time>
      </trkpt>
      <trkpt lat="47.02495" lon="8.91555">
        <ele>1114</ele>
        <time>2021-08-03T09:19:09.299Z</time>
      </trkpt>
      <trkpt lat="47.02495" lon="8.91554">
        <ele>1114</ele>
        <time>2021-08-03T09:19:10.299Z</time>
      </trkpt>
      <trkpt lat="47.02495" lon="8.91553">
        <ele>1113</ele>
        <time>2021-08-03T09:19:11.299Z</time>
      </trkpt>
      <trkpt lat="47.02495" lon="8.91552">
        <ele>1113</ele>
        <time>2021-08-03T09:19:12.299Z</time>
      </trkpt>
      <trkpt lat="47.02494" lon="8.91551">
        <ele>1113</ele>
        <time>2021-08-03T09:19:13.299Z</time>
      </trkpt>
      <trkpt lat="47.02494" lon="8.9155">
        <ele>1113</ele>
        <time>2021-08-03T09:19:14.299Z</time>
      </trkpt>
      <trkpt lat="47.02494" lon="8.91549">
        <ele>1112</ele>
        <time>2021-08-03T09:19:15.299Z</time>
      </trkpt>
      <trkpt lat="47.02493" lon="8.91548">
        <ele>1112</ele>
        <time>2021-08-03T09:19:16.299Z</time>
      </trkpt>
      <trkpt lat="47.02492" lon="8.91548">
        <ele>1111</ele>
        <time>2021-08-03T09:19:17.299Z</time>
      </trkpt>
      <trkpt lat="47.02491" lon="8.91548">
        <ele>1110</ele>
        <time>2021-08-03T09:19:18.298Z</time>
      </trkpt>
      <trkpt lat="47.02491" lon="8.91548">
        <ele>1110</ele>
        <time>2021-08-03T09:19:19.299Z</time>
      </trkpt>
      <trkpt lat="47.0249" lon="8.91547">
        <ele>1109</ele>
        <time>2021-08-03T09:19:20.299Z</time>
      </trkpt>
      <trkpt lat="47.02489" lon="8.91546">
        <ele>1108</ele>
        <time>2021-08-03T09:19:21.299Z</time>
      </trkpt>
      <trkpt lat="47.02489" lon="8.91546">
        <ele>1108</ele>
        <time>2021-08-03T09:19:22.298Z</time>
      </trkpt>
      <trkpt lat="47.02489" lon="8.91545">
        <ele>1107</ele>
        <time>2021-08-03T09:19:23.298Z</time>
      </trkpt>
      <trkpt lat="47.02488" lon="8.91545">
        <ele>1107</ele>
        <time>2021-08-03T09:19:24.298Z</time>
      </trkpt>
      <trkpt lat="47.02488" lon="8.91544">
        <ele>1106</ele>
        <time>2021-08-03T09:19:25.298Z</time>
      </trkpt>
      <trkpt lat="47.02487" lon="8.91544">
        <ele>1106</ele>
        <time>2021-08-03T09:19:26.298Z</time>
      </trkpt>
      <trkpt lat="47.02487" lon="8.91544">
        <ele>1106</ele>
        <time>2021-08-03T09:19:27.298Z</time>
      </trkpt>
      <trkpt lat="47.02486" lon="8.91543">
        <ele>1105</ele>
        <time>2021-08-03T09:19:28.299Z</time>
      </trkpt>
      <trkpt lat="47.02485" lon="8.91542">
        <ele>1105</ele>
        <time>2021-08-03T09:19:29.298Z</time>
      </trkpt>
      <trkpt lat="47.02484" lon="8.91541">
        <ele>1105</ele>
        <time>2021-08-03T09:19:30.298Z</time>
      </trkpt>
      <trkpt lat="47.02483" lon="8.9154">
        <ele>1104</ele>
        <time>2021-08-03T09:19:31.298Z</time>
      </trkpt>
      <trkpt lat="47.02483" lon="8.9154">
        <ele>1104</ele>
        <time>2021-08-03T09:19:32.298Z</time>
      </trkpt>
      <trkpt lat="47.02483" lon="8.91539">
        <ele>1104</ele>
        <time>2021-08-03T09:19:33.298Z</time>
      </trkpt>
      <trkpt lat="47.02483" lon="8.91539">
        <ele>1104</ele>
        <time>2021-08-03T09:19:34.299Z</time>
      </trkpt>
      <trkpt lat="47.02482" lon="8.91539">
        <ele>1104</ele>
        <time>2021-08-03T09:19:35.299Z</time>
      </trkpt>
      <trkpt lat="47.02481" lon="8.91539">
        <ele>1104</ele>
        <time>2021-08-03T09:19:36.299Z</time>
      </trkpt>
      <trkpt lat="47.02481" lon="8.91539">
        <ele>1104</ele>
        <time>2021-08-03T09:19:37.298Z</time>
      </trkpt>
      <trkpt lat="47.02481" lon="8.91538">
        <ele>1104</ele>
        <time>2021-08-03T09:19:38.298Z</time>
      </trkpt>
      <trkpt lat="47.02481" lon="8.91537">
        <ele>1104</ele>
        <time>2021-08-03T09:19:39.298Z</time>
      </trkpt>
      <trkpt lat="47.02481" lon="8.91536">
        <ele>1104</ele>
        <time>2021-08-03T09:19:40.299Z</time>
      </trkpt>
      <trkpt lat="47.0248" lon="8.91534">
        <ele>1104</ele>
        <time>2021-08-03T09:19:41.298Z</time>
      </trkpt>
      <trkpt lat="47.0248" lon="8.91533">
        <ele>1103</ele>
        <time>2021-08-03T09:19:42.299Z</time>
      </trkpt>
      <trkpt lat="47.02479" lon="8.91532">
        <ele>1103</ele>
        <time>2021-08-03T09:19:43.299Z</time>
      </trkpt>
      <trkpt lat="47.02479" lon="8.91531">
        <ele>1103</ele>
        <time>2021-08-03T09:19:44.298Z</time>
      </trkpt>
      <trkpt lat="47.02478" lon="8.9153">
        <ele>1103</ele>
        <time>2021-08-03T09:19:45.299Z</time>
      </trkpt>
      <trkpt lat="47.02478" lon="8.91529">
        <ele>1103</ele>
        <time>2021-08-03T09:19:46.298Z</time>
      </trkpt>
      <trkpt lat="47.02478" lon="8.91527">
        <ele>1102</ele>
        <time>2021-08-03T09:19:47.298Z</time>
      </trkpt>
      <trkpt lat="47.02478" lon="8.91525">
        <ele>1102</ele>
        <time>2021-08-03T09:19:48.299Z</time>
      </trkpt>
      <trkpt lat="47.02478" lon="8.91524">
        <ele>1102</ele>
        <time>2021-08-03T09:19:49.299Z</time>
      </trkpt>
      <trkpt lat="47.02478" lon="8.91523">
        <ele>1102</ele>
        <time>2021-08-03T09:19:50.298Z</time>
      </trkpt>
      <trkpt lat="47.02478" lon="8.91522">
        <ele>1102</ele>
        <time>2021-08-03T09:19:51.298Z</time>
      </trkpt>
      <trkpt lat="47.02478" lon="8.91521">
        <ele>1102</ele>
        <time>2021-08-03T09:19:52.298Z</time>
      </trkpt>
      <trkpt lat="47.02477" lon="8.9152">
        <ele>1101</ele>
        <time>2021-08-03T09:19:53.298Z</time>
      </trkpt>
      <trkpt lat="47.02476" lon="8.91518">
        <ele>1101</ele>
        <time>2021-08-03T09:19:54.298Z</time>
      </trkpt>
      <trkpt lat="47.02475" lon="8.91518">
        <ele>1101</ele>
        <time>2021-08-03T09:19:55.299Z</time>
      </trkpt>
      <trkpt lat="47.02474" lon="8.91517">
        <ele>1100</ele>
        <time>2021-08-03T09:19:56.299Z</time>
      </trkpt>
      <trkpt lat="47.02474" lon="8.91516">
        <ele>1100</ele>
        <time>2021-08-03T09:19:57.299Z</time>
      </trkpt>
      <trkpt lat="47.02474" lon="8.91516">
        <ele>1099</ele>
        <time>2021-08-03T09:19:58.298Z</time>
      </trkpt>
      <trkpt lat="47.02473" lon="8.91515">
        <ele>1099</ele>
        <time>2021-08-03T09:19:59.298Z</time>
      </trkpt>
      <trkpt lat="47.02473" lon="8.91514">
        <ele>1098</ele>
        <time>2021-08-03T09:20:00.299Z</time>
      </trkpt>
      <trkpt lat="47.02473" lon="8.91514">
        <ele>1098</ele>
        <time>2021-08-03T09:20:01.299Z</time>
      </trkpt>
      <trkpt lat="47.02473" lon="8.91512">
        <ele>1098</ele>
        <time>2021-08-03T09:20:02.299Z</time>
      </trkpt>
      <trkpt lat="47.02472" lon="8.91511">
        <ele>1097</ele>
        <time>2021-08-03T09:20:03.298Z</time>
      </trkpt>
      <trkpt lat="47.02471" lon="8.9151">
        <ele>1097</ele>
        <time>2021-08-03T09:20:04.299Z</time>
      </trkpt>
      <trkpt lat="47.02471" lon="8.91509">
        <ele>1097</ele>
        <time>2021-08-03T09:20:05.298Z</time>
      </trkpt>
      <trkpt lat="47.02471" lon="8.91509">
        <ele>1097</ele>
        <time>2021-08-03T09:20:06.298Z</time>
      </trkpt>
      <trkpt lat="47.02471" lon="8.91508">
        <ele>1096</ele>
        <time>2021-08-03T09:20:07.299Z</time>
      </trkpt>
      <trkpt lat="47.0247" lon="8.91507">
        <ele>1096</ele>
        <time>2021-08-03T09:20:08.299Z</time>
      </trkpt>
      <trkpt lat="47.0247" lon="8.91506">
        <ele>1096</ele>
        <time>2021-08-03T09:20:09.298Z</time>
      </trkpt>
      <trkpt lat="47.02469" lon="8.91506">
        <ele>1096</ele>
        <time>2021-08-03T09:20:10.298Z</time>
      </trkpt>
      <trkpt lat="47.02468" lon="8.91507">
        <ele>1096</ele>
        <time>2021-08-03T09:20:11.298Z</time>
      </trkpt>
      <trkpt lat="47.02467" lon="8.91506">
        <ele>1095</ele>
        <time>2021-08-03T09:20:12.298Z</time>
      </trkpt>
      <trkpt lat="47.02467" lon="8.91505">
        <ele>1095</ele>
        <time>2021-08-03T09:20:13.298Z</time>
      </trkpt>
      <trkpt lat="47.02465" lon="8.91504">
        <ele>1095</ele>
        <time>2021-08-03T09:20:14.298Z</time>
      </trkpt>
      <trkpt lat="47.02464" lon="8.91504">
        <ele>1095</ele>
        <time>2021-08-03T09:20:15.298Z</time>
      </trkpt>
      <trkpt lat="47.02463" lon="8.91504">
        <ele>1095</ele>
        <time>2021-08-03T09:20:16.299Z</time>
      </trkpt>
      <trkpt lat="47.02462" lon="8.91504">
        <ele>1095</ele>
        <time>2021-08-03T09:20:17.298Z</time>
      </trkpt>
      <trkpt lat="47.02461" lon="8.91503">
        <ele>1096</ele>
        <time>2021-08-03T09:20:18.298Z</time>
      </trkpt>
      <trkpt lat="47.0246" lon="8.91503">
        <ele>1096</ele>
        <time>2021-08-03T09:20:19.299Z</time>
      </trkpt>
      <trkpt lat="47.0246" lon="8.91501">
        <ele>1096</ele>
        <time>2021-08-03T09:20:20.298Z</time>
      </trkpt>
      <trkpt lat="47.02459" lon="8.91499">
        <ele>1097</ele>
        <time>2021-08-03T09:20:21.298Z</time>
      </trkpt>
      <trkpt lat="47.02458" lon="8.91497">
        <ele>1097</ele>
        <time>2021-08-03T09:20:22.298Z</time>
      </trkpt>
      <trkpt lat="47.02456" lon="8.91496">
        <ele>1098</ele>
        <time>2021-08-03T09:20:23.299Z</time>
      </trkpt>
      <trkpt lat="47.02455" lon="8.91496">
        <ele>1098</ele>
        <time>2021-08-03T09:20:24.298Z</time>
      </trkpt>
      <trkpt lat="47.02455" lon="8.91495">
        <ele>1099</ele>
        <time>2021-08-03T09:20:25.298Z</time>
      </trkpt>
      <trkpt lat="47.02454" lon="8.91496">
        <ele>1099</ele>
        <time>2021-08-03T09:20:26.299Z</time>
      </trkpt>
      <trkpt lat="47.02453" lon="8.91496">
        <ele>1099</ele>
        <time>2021-08-03T09:20:27.299Z</time>
      </trkpt>
      <trkpt lat="47.02452" lon="8.91496">
        <ele>1099</ele>
        <time>2021-08-03T09:20:28.298Z</time>
      </trkpt>
      <trkpt lat="47.02451" lon="8.91495">
        <ele>1099</ele>
        <time>2021-08-03T09:20:29.299Z</time>
      </trkpt>
      <trkpt lat="47.0245" lon="8.91493">
        <ele>1100</ele>
        <time>2021-08-03T09:20:30.298Z</time>
      </trkpt>
      <trkpt lat="47.0245" lon="8.91492">
        <ele>1100</ele>
        <time>2021-08-03T09:20:31.298Z</time>
      </trkpt>
      <trkpt lat="47.0245" lon="8.9149">
        <ele>1100</ele>
        <time>2021-08-03T09:20:32.298Z</time>
      </trkpt>
      <trkpt lat="47.0245" lon="8.91489">
        <ele>1100</ele>
        <time>2021-08-03T09:20:33.299Z</time>
      </trkpt>
      <trkpt lat="47.0245" lon="8.91489">
        <ele>1100</ele>
        <time>2021-08-03T09:20:34.298Z</time>
      </trkpt>
      <trkpt lat="47.02449" lon="8.91489">
        <ele>1100</ele>
        <time>2021-08-03T09:20:35.299Z</time>
      </trkpt>
      <trkpt lat="47.02449" lon="8.91489">
        <ele>1101</ele>
        <time>2021-08-03T09:20:36.298Z</time>
      </trkpt>
      <trkpt lat="47.02448" lon="8.91489">
        <ele>1101</ele>
        <time>2021-08-03T09:20:37.298Z</time>
      </trkpt>
      <trkpt lat="47.02448" lon="8.91488">
        <ele>1101</ele>
        <time>2021-08-03T09:20:38.298Z</time>
      </trkpt>
      <trkpt lat="47.02448" lon="8.91487">
        <ele>1101</ele>
        <time>2021-08-03T09:20:39.298Z</time>
      </trkpt>
      <trkpt lat="47.02448" lon="8.91487">
        <ele>1101</ele>
        <time>2021-08-03T09:20:40.298Z</time>
      </trkpt>
      <trkpt lat="47.02448" lon="8.91486">
        <ele>1101</ele>
        <time>2021-08-03T09:20:41.298Z</time>
      </trkpt>
      <trkpt lat="47.02448" lon="8.91484">
        <ele>1101</ele>
        <time>2021-08-03T09:20:42.298Z</time>
      </trkpt>
      <trkpt lat="47.02448" lon="8.91483">
        <ele>1101</ele>
        <time>2021-08-03T09:20:43.298Z</time>
      </trkpt>
      <trkpt lat="47.02448" lon="8.91482">
        <ele>1101</ele>
        <time>2021-08-03T09:20:44.298Z</time>
      </trkpt>
      <trkpt lat="47.02447" lon="8.91481">
        <ele>1100</ele>
        <time>2021-08-03T09:20:45.298Z</time>
      </trkpt>
      <trkpt lat="47.02447" lon="8.91481">
        <ele>1100</ele>
        <time>2021-08-03T09:20:46.298Z</time>
      </trkpt>
      <trkpt lat="47.02447" lon="8.9148">
        <ele>1099</ele>
        <time>2021-08-03T09:20:47.299Z</time>
      </trkpt>
      <trkpt lat="47.02446" lon="8.91479">
        <ele>1099</ele>
        <time>2021-08-03T09:20:48.298Z</time>
      </trkpt>
      <trkpt lat="47.02445" lon="8.91478">
        <ele>1099</ele>
        <time>2021-08-03T09:20:49.299Z</time>
      </trkpt>
      <trkpt lat="47.02445" lon="8.91478">
        <ele>1098</ele>
        <time>2021-08-03T09:20:50.298Z</time>
      </trkpt>
      <trkpt lat="47.02444" lon="8.91476">
        <ele>1098</ele>
        <time>2021-08-03T09:20:51.298Z</time>
      </trkpt>
      <trkpt lat="47.02444" lon="8.91475">
        <ele>1098</ele>
        <time>2021-08-03T09:20:52.298Z</time>
      </trkpt>
      <trkpt lat="47.02443" lon="8.91474">
        <ele>1097</ele>
        <time>2021-08-03T09:20:53.299Z</time>
      </trkpt>
      <trkpt lat="47.02442" lon="8.91472">
        <ele>1097</ele>
        <time>2021-08-03T09:20:54.298Z</time>
      </trkpt>
      <trkpt lat="47.0244" lon="8.91471">
        <ele>1097</ele>
        <time>2021-08-03T09:20:55.298Z</time>
      </trkpt>
      <trkpt lat="47.02438" lon="8.91469">
        <ele>1097</ele>
        <time>2021-08-03T09:20:56.298Z</time>
      </trkpt>
      <trkpt lat="47.02437" lon="8.91469">
        <ele>1097</ele>
        <time>2021-08-03T09:20:57.299Z</time>
      </trkpt>
      <trkpt lat="47.02437" lon="8.91468">
        <ele>1096</ele>
        <time>2021-08-03T09:20:58.298Z</time>
      </trkpt>
      <trkpt lat="47.02437" lon="8.91467">
        <ele>1096</ele>
        <time>2021-08-03T09:20:59.298Z</time>
      </trkpt>
      <trkpt lat="47.02436" lon="8.91466">
        <ele>1096</ele>
        <time>2021-08-03T09:21:00.299Z</time>
      </trkpt>
      <trkpt lat="47.02436" lon="8.91465">
        <ele>1095</ele>
        <time>2021-08-03T09:21:01.298Z</time>
      </trkpt>
      <trkpt lat="47.02434" lon="8.91464">
        <ele>1095</ele>
        <time>2021-08-03T09:21:02.299Z</time>
      </trkpt>
      <trkpt lat="47.02433" lon="8.91462">
        <ele>1095</ele>
        <time>2021-08-03T09:21:03.298Z</time>
      </trkpt>
      <trkpt lat="47.02432" lon="8.91461">
        <ele>1095</ele>
        <time>2021-08-03T09:21:04.298Z</time>
      </trkpt>
      <trkpt lat="47.02431" lon="8.9146">
        <ele>1095</ele>
        <time>2021-08-03T09:21:05.298Z</time>
      </trkpt>
      <trkpt lat="47.02431" lon="8.91459">
        <ele>1095</ele>
        <time>2021-08-03T09:21:06.298Z</time>
      </trkpt>
      <trkpt lat="47.02429" lon="8.91458">
        <ele>1095</ele>
        <time>2021-08-03T09:21:07.298Z</time>
      </trkpt>
      <trkpt lat="47.02429" lon="8.91457">
        <ele>1095</ele>
        <time>2021-08-03T09:21:08.298Z</time>
      </trkpt>
      <trkpt lat="47.02429" lon="8.91456">
        <ele>1094</ele>
        <time>2021-08-03T09:21:09.298Z</time>
      </trkpt>
      <trkpt lat="47.02428" lon="8.91456">
        <ele>1094</ele>
        <time>2021-08-03T09:21:10.298Z</time>
      </trkpt>
      <trkpt lat="47.02427" lon="8.91456">
        <ele>1094</ele>
        <time>2021-08-03T09:21:11.299Z</time>
      </trkpt>
      <trkpt lat="47.02427" lon="8.91456">
        <ele>1094</ele>
        <time>2021-08-03T09:21:12.298Z</time>
      </trkpt>
      <trkpt lat="47.02426" lon="8.91455">
        <ele>1094</ele>
        <time>2021-08-03T09:21:13.298Z</time>
      </trkpt>
      <trkpt lat="47.02426" lon="8.91456">
        <ele>1094</ele>
        <time>2021-08-03T09:21:14.299Z</time>
      </trkpt>
      <trkpt lat="47.02426" lon="8.91456">
        <ele>1094</ele>
        <time>2021-08-03T09:21:15.298Z</time>
      </trkpt>
      <trkpt lat="47.02426" lon="8.91455">
        <ele>1094</ele>
        <time>2021-08-03T09:21:16.298Z</time>
      </trkpt>
      <trkpt lat="47.02426" lon="8.91454">
        <ele>1094</ele>
        <time>2021-08-03T09:21:17.298Z</time>
      </trkpt>
      <trkpt lat="47.02425" lon="8.91452">
        <ele>1093</ele>
        <time>2021-08-03T09:21:18.298Z</time>
      </trkpt>
      <trkpt lat="47.02424" lon="8.91451">
        <ele>1093</ele>
        <time>2021-08-03T09:21:19.299Z</time>
      </trkpt>
      <trkpt lat="47.02424" lon="8.91449">
        <ele>1093</ele>
        <time>2021-08-03T09:21:20.298Z</time>
      </trkpt>
      <trkpt lat="47.02423" lon="8.91448">
        <ele>1093</ele>
        <time>2021-08-03T09:21:21.298Z</time>
      </trkpt>
      <trkpt lat="47.02422" lon="8.91447">
        <ele>1093</ele>
        <time>2021-08-03T09:21:22.299Z</time>
      </trkpt>
      <trkpt lat="47.02421" lon="8.91446">
        <ele>1093</ele>
        <time>2021-08-03T09:21:23.298Z</time>
      </trkpt>
      <trkpt lat="47.0242" lon="8.91445">
        <ele>1093</ele>
        <time>2021-08-03T09:21:24.298Z</time>
      </trkpt>
      <trkpt lat="47.02419" lon="8.91444">
        <ele>1093</ele>
        <time>2021-08-03T09:21:25.299Z</time>
      </trkpt>
      <trkpt lat="47.02418" lon="8.91443">
        <ele>1093</ele>
        <time>2021-08-03T09:21:26.298Z</time>
      </trkpt>
      <trkpt lat="47.02417" lon="8.91442">
        <ele>1093</ele>
        <time>2021-08-03T09:21:27.298Z</time>
      </trkpt>
      <trkpt lat="47.02417" lon="8.91442">
        <ele>1094</ele>
        <time>2021-08-03T09:21:28.298Z</time>
      </trkpt>
      <trkpt lat="47.02417" lon="8.9144">
        <ele>1093</ele>
        <time>2021-08-03T09:21:29.298Z</time>
      </trkpt>
      <trkpt lat="47.02415" lon="8.9144">
        <ele>1093</ele>
        <time>2021-08-03T09:21:30.299Z</time>
      </trkpt>
      <trkpt lat="47.02413" lon="8.91438">
        <ele>1093</ele>
        <time>2021-08-03T09:21:31.298Z</time>
      </trkpt>
      <trkpt lat="47.02412" lon="8.91437">
        <ele>1094</ele>
        <time>2021-08-03T09:21:32.298Z</time>
      </trkpt>
      <trkpt lat="47.02411" lon="8.91437">
        <ele>1094</ele>
        <time>2021-08-03T09:21:33.298Z</time>
      </trkpt>
      <trkpt lat="47.0241" lon="8.91436">
        <ele>1095</ele>
        <time>2021-08-03T09:21:34.298Z</time>
      </trkpt>
      <trkpt lat="47.02408" lon="8.91434">
        <ele>1095</ele>
        <time>2021-08-03T09:21:35.299Z</time>
      </trkpt>
      <trkpt lat="47.02407" lon="8.91432">
        <ele>1096</ele>
        <time>2021-08-03T09:21:36.298Z</time>
      </trkpt>
      <trkpt lat="47.02406" lon="8.91431">
        <ele>1097</ele>
        <time>2021-08-03T09:21:37.299Z</time>
      </trkpt>
      <trkpt lat="47.02405" lon="8.9143">
        <ele>1098</ele>
        <time>2021-08-03T09:21:38.298Z</time>
      </trkpt>
      <trkpt lat="47.02404" lon="8.91429">
        <ele>1098</ele>
        <time>2021-08-03T09:21:39.299Z</time>
      </trkpt>
      <trkpt lat="47.02403" lon="8.91428">
        <ele>1099</ele>
        <time>2021-08-03T09:21:40.298Z</time>
      </trkpt>
      <trkpt lat="47.02402" lon="8.91427">
        <ele>1099</ele>
        <time>2021-08-03T09:21:41.298Z</time>
      </trkpt>
      <trkpt lat="47.02401" lon="8.91425">
        <ele>1099</ele>
        <time>2021-08-03T09:21:42.298Z</time>
      </trkpt>
      <trkpt lat="47.024" lon="8.91424">
        <ele>1099</ele>
        <time>2021-08-03T09:21:43.298Z</time>
      </trkpt>
      <trkpt lat="47.02399" lon="8.91424">
        <ele>1099</ele>
        <time>2021-08-03T09:21:44.299Z</time>
      </trkpt>
      <trkpt lat="47.02397" lon="8.91423">
        <ele>1098</ele>
        <time>2021-08-03T09:21:45.298Z</time>
      </trkpt>
      <trkpt lat="47.02396" lon="8.91422">
        <ele>1098</ele>
        <time>2021-08-03T09:21:46.299Z</time>
      </trkpt>
      <trkpt lat="47.02396" lon="8.91422">
        <ele>1098</ele>
        <time>2021-08-03T09:21:47.298Z</time>
      </trkpt>
      <trkpt lat="47.02395" lon="8.91422">
        <ele>1098</ele>
        <time>2021-08-03T09:21:48.298Z</time>
      </trkpt>
      <trkpt lat="47.02394" lon="8.91421">
        <ele>1098</ele>
        <time>2021-08-03T09:21:49.298Z</time>
      </trkpt>
      <trkpt lat="47.02393" lon="8.9142">
        <ele>1098</ele>
        <time>2021-08-03T09:21:50.298Z</time>
      </trkpt>
      <trkpt lat="47.02392" lon="8.91419">
        <ele>1097</ele>
        <time>2021-08-03T09:21:51.298Z</time>
      </trkpt>
      <trkpt lat="47.0239" lon="8.91417">
        <ele>1097</ele>
        <time>2021-08-03T09:21:52.298Z</time>
      </trkpt>
      <trkpt lat="47.02389" lon="8.91416">
        <ele>1097</ele>
        <time>2021-08-03T09:21:53.298Z</time>
      </trkpt>
      <trkpt lat="47.02388" lon="8.91415">
        <ele>1097</ele>
        <time>2021-08-03T09:21:54.298Z</time>
      </trkpt>
      <trkpt lat="47.02388" lon="8.91414">
        <ele>1097</ele>
        <time>2021-08-03T09:21:55.299Z</time>
      </trkpt>
      <trkpt lat="47.02387" lon="8.91413">
        <ele>1096</ele>
        <time>2021-08-03T09:21:56.298Z</time>
      </trkpt>
      <trkpt lat="47.02387" lon="8.91413">
        <ele>1096</ele>
        <time>2021-08-03T09:21:57.299Z</time>
      </trkpt>
      <trkpt lat="47.02387" lon="8.91412">
        <ele>1096</ele>
        <time>2021-08-03T09:21:58.298Z</time>
      </trkpt>
      <trkpt lat="47.02385" lon="8.91411">
        <ele>1096</ele>
        <time>2021-08-03T09:21:59.299Z</time>
      </trkpt>
      <trkpt lat="47.02384" lon="8.91411">
        <ele>1095</ele>
        <time>2021-08-03T09:22:00.298Z</time>
      </trkpt>
      <trkpt lat="47.02383" lon="8.9141">
        <ele>1095</ele>
        <time>2021-08-03T09:22:01.298Z</time>
      </trkpt>
      <trkpt lat="47.02383" lon="8.9141">
        <ele>1095</ele>
        <time>2021-08-03T09:22:02.298Z</time>
      </trkpt>
      <trkpt lat="47.02382" lon="8.9141">
        <ele>1094</ele>
        <time>2021-08-03T09:22:03.298Z</time>
      </trkpt>
      <trkpt lat="47.02381" lon="8.9141">
        <ele>1093</ele>
        <time>2021-08-03T09:22:04.298Z</time>
      </trkpt>
      <trkpt lat="47.0238" lon="8.91409">
        <ele>1093</ele>
        <time>2021-08-03T09:22:05.298Z</time>
      </trkpt>
      <trkpt lat="47.0238" lon="8.91408">
        <ele>1092</ele>
        <time>2021-08-03T09:22:06.298Z</time>
      </trkpt>
      <trkpt lat="47.02379" lon="8.91407">
        <ele>1092</ele>
        <time>2021-08-03T09:22:07.298Z</time>
      </trkpt>
      <trkpt lat="47.02378" lon="8.91407">
        <ele>1092</ele>
        <time>2021-08-03T09:22:08.299Z</time>
      </trkpt>
      <trkpt lat="47.02377" lon="8.91406">
        <ele>1092</ele>
        <time>2021-08-03T09:22:09.299Z</time>
      </trkpt>
      <trkpt lat="47.02376" lon="8.91405">
        <ele>1092</ele>
        <time>2021-08-03T09:22:10.298Z</time>
      </trkpt>
      <trkpt lat="47.02375" lon="8.91405">
        <ele>1091</ele>
        <time>2021-08-03T09:22:11.298Z</time>
      </trkpt>
      <trkpt lat="47.02374" lon="8.91403">
        <ele>1091</ele>
        <time>2021-08-03T09:22:12.298Z</time>
      </trkpt>
      <trkpt lat="47.02372" lon="8.91402">
        <ele>1091</ele>
        <time>2021-08-03T09:22:13.299Z</time>
      </trkpt>
      <trkpt lat="47.02371" lon="8.914">
        <ele>1091</ele>
        <time>2021-08-03T09:22:14.298Z</time>
      </trkpt>
      <trkpt lat="47.0237" lon="8.91398">
        <ele>1091</ele>
        <time>2021-08-03T09:22:15.298Z</time>
      </trkpt>
      <trkpt lat="47.02369" lon="8.91398">
        <ele>1091</ele>
        <time>2021-08-03T09:22:16.298Z</time>
      </trkpt>
      <trkpt lat="47.02368" lon="8.91397">
        <ele>1091</ele>
        <time>2021-08-03T09:22:17.299Z</time>
      </trkpt>
      <trkpt lat="47.02367" lon="8.91395">
        <ele>1091</ele>
        <time>2021-08-03T09:22:18.298Z</time>
      </trkpt>
      <trkpt lat="47.02366" lon="8.91394">
        <ele>1092</ele>
        <time>2021-08-03T09:22:19.298Z</time>
      </trkpt>
      <trkpt lat="47.02365" lon="8.91393">
        <ele>1092</ele>
        <time>2021-08-03T09:22:20.298Z</time>
      </trkpt>
      <trkpt lat="47.02364" lon="8.91393">
        <ele>1092</ele>
        <time>2021-08-03T09:22:21.299Z</time>
      </trkpt>
      <trkpt lat="47.02363" lon="8.91392">
        <ele>1093</ele>
        <time>2021-08-03T09:22:22.298Z</time>
      </trkpt>
      <trkpt lat="47.02362" lon="8.91391">
        <ele>1093</ele>
        <time>2021-08-03T09:22:23.298Z</time>
      </trkpt>
      <trkpt lat="47.02361" lon="8.9139">
        <ele>1093</ele>
        <time>2021-08-03T09:22:24.299Z</time>
      </trkpt>
      <trkpt lat="47.0236" lon="8.91389">
        <ele>1093</ele>
        <time>2021-08-03T09:22:25.298Z</time>
      </trkpt>
      <trkpt lat="47.02359" lon="8.91389">
        <ele>1093</ele>
        <time>2021-08-03T09:22:26.298Z</time>
      </trkpt>
      <trkpt lat="47.02358" lon="8.91388">
        <ele>1093</ele>
        <time>2021-08-03T09:22:27.298Z</time>
      </trkpt>
      <trkpt lat="47.02358" lon="8.91387">
        <ele>1094</ele>
        <time>2021-08-03T09:22:28.298Z</time>
      </trkpt>
      <trkpt lat="47.02358" lon="8.91386">
        <ele>1094</ele>
        <time>2021-08-03T09:22:29.298Z</time>
      </trkpt>
      <trkpt lat="47.02357" lon="8.91385">
        <ele>1094</ele>
        <time>2021-08-03T09:22:30.298Z</time>
      </trkpt>
      <trkpt lat="47.02356" lon="8.91385">
        <ele>1094</ele>
        <time>2021-08-03T09:22:31.298Z</time>
      </trkpt>
      <trkpt lat="47.02355" lon="8.91384">
        <ele>1095</ele>
        <time>2021-08-03T09:22:32.299Z</time>
      </trkpt>
      <trkpt lat="47.02354" lon="8.91384">
        <ele>1095</ele>
        <time>2021-08-03T09:22:33.299Z</time>
      </trkpt>
      <trkpt lat="47.02353" lon="8.91383">
        <ele>1095</ele>
        <time>2021-08-03T09:22:34.298Z</time>
      </trkpt>
      <trkpt lat="47.02353" lon="8.91382">
        <ele>1096</ele>
        <time>2021-08-03T09:22:35.298Z</time>
      </trkpt>
      <trkpt lat="47.02352" lon="8.91381">
        <ele>1096</ele>
        <time>2021-08-03T09:22:36.298Z</time>
      </trkpt>
      <trkpt lat="47.02351" lon="8.91379">
        <ele>1096</ele>
        <time>2021-08-03T09:22:37.298Z</time>
      </trkpt>
      <trkpt lat="47.0235" lon="8.91377">
        <ele>1097</ele>
        <time>2021-08-03T09:22:38.299Z</time>
      </trkpt>
      <trkpt lat="47.02349" lon="8.91376">
        <ele>1097</ele>
        <time>2021-08-03T09:22:39.299Z</time>
      </trkpt>
      <trkpt lat="47.02349" lon="8.91375">
        <ele>1098</ele>
        <time>2021-08-03T09:22:40.298Z</time>
      </trkpt>
      <trkpt lat="47.02348" lon="8.91374">
        <ele>1098</ele>
        <time>2021-08-03T09:22:41.298Z</time>
      </trkpt>
      <trkpt lat="47.02347" lon="8.91372">
        <ele>1098</ele>
        <time>2021-08-03T09:22:42.298Z</time>
      </trkpt>
      <trkpt lat="47.02346" lon="8.91371">
        <ele>1099</ele>
        <time>2021-08-03T09:22:43.298Z</time>
      </trkpt>
      <trkpt lat="47.02345" lon="8.9137">
        <ele>1099</ele>
        <time>2021-08-03T09:22:44.299Z</time>
      </trkpt>
      <trkpt lat="47.02344" lon="8.91368">
        <ele>1100</ele>
        <time>2021-08-03T09:22:45.298Z</time>
      </trkpt>
      <trkpt lat="47.02343" lon="8.91367">
        <ele>1101</ele>
        <time>2021-08-03T09:22:46.298Z</time>
      </trkpt>
      <trkpt lat="47.02342" lon="8.91366">
        <ele>1102</ele>
        <time>2021-08-03T09:22:47.299Z</time>
      </trkpt>
      <trkpt lat="47.02341" lon="8.91364">
        <ele>1103</ele>
        <time>2021-08-03T09:22:48.298Z</time>
      </trkpt>
      <trkpt lat="47.0234" lon="8.91364">
        <ele>1104</ele>
        <time>2021-08-03T09:22:49.298Z</time>
      </trkpt>
      <trkpt lat="47.02339" lon="8.91363">
        <ele>1104</ele>
        <time>2021-08-03T09:22:50.298Z</time>
      </trkpt>
      <trkpt lat="47.02337" lon="8.91362">
        <ele>1105</ele>
        <time>2021-08-03T09:22:51.298Z</time>
      </trkpt>
      <trkpt lat="47.02336" lon="8.9136">
        <ele>1105</ele>
        <time>2021-08-03T09:22:52.298Z</time>
      </trkpt>
      <trkpt lat="47.02336" lon="8.91359">
        <ele>1106</ele>
        <time>2021-08-03T09:22:53.298Z</time>
      </trkpt>
      <trkpt lat="47.02335" lon="8.91358">
        <ele>1106</ele>
        <time>2021-08-03T09:22:54.298Z</time>
      </trkpt>
      <trkpt lat="47.02334" lon="8.91357">
        <ele>1106</ele>
        <time>2021-08-03T09:22:55.299Z</time>
      </trkpt>
      <trkpt lat="47.02333" lon="8.91356">
        <ele>1106</ele>
        <time>2021-08-03T09:22:56.298Z</time>
      </trkpt>
      <trkpt lat="47.02332" lon="8.91355">
        <ele>1106</ele>
        <time>2021-08-03T09:22:57.298Z</time>
      </trkpt>
      <trkpt lat="47.02332" lon="8.91354">
        <ele>1106</ele>
        <time>2021-08-03T09:22:58.299Z</time>
      </trkpt>
      <trkpt lat="47.02331" lon="8.91353">
        <ele>1106</ele>
        <time>2021-08-03T09:22:59.298Z</time>
      </trkpt>
      <trkpt lat="47.02331" lon="8.91351">
        <ele>1105</ele>
        <time>2021-08-03T09:23:00.298Z</time>
      </trkpt>
      <trkpt lat="47.02331" lon="8.9135">
        <ele>1105</ele>
        <time>2021-08-03T09:23:01.299Z</time>
      </trkpt>
      <trkpt lat="47.0233" lon="8.91349">
        <ele>1105</ele>
        <time>2021-08-03T09:23:02.298Z</time>
      </trkpt>
      <trkpt lat="47.02329" lon="8.91347">
        <ele>1105</ele>
        <time>2021-08-03T09:23:03.298Z</time>
      </trkpt>
      <trkpt lat="47.02328" lon="8.91346">
        <ele>1105</ele>
        <time>2021-08-03T09:23:04.299Z</time>
      </trkpt>
      <trkpt lat="47.02328" lon="8.91345">
        <ele>1105</ele>
        <time>2021-08-03T09:23:05.299Z</time>
      </trkpt>
      <trkpt lat="47.02327" lon="8.91343">
        <ele>1104</ele>
        <time>2021-08-03T09:23:06.299Z</time>
      </trkpt>
      <trkpt lat="47.02327" lon="8.91342">
        <ele>1104</ele>
        <time>2021-08-03T09:23:07.298Z</time>
      </trkpt>
      <trkpt lat="47.02327" lon="8.91341">
        <ele>1103</ele>
        <time>2021-08-03T09:23:08.298Z</time>
      </trkpt>
      <trkpt lat="47.02326" lon="8.91339">
        <ele>1103</ele>
        <time>2021-08-03T09:23:09.298Z</time>
      </trkpt>
      <trkpt lat="47.02327" lon="8.91337">
        <ele>1103</ele>
        <time>2021-08-03T09:23:10.298Z</time>
      </trkpt>
      <trkpt lat="47.02326" lon="8.91335">
        <ele>1103</ele>
        <time>2021-08-03T09:23:11.298Z</time>
      </trkpt>
      <trkpt lat="47.02326" lon="8.91334">
        <ele>1103</ele>
        <time>2021-08-03T09:23:12.298Z</time>
      </trkpt>
      <trkpt lat="47.02325" lon="8.91332">
        <ele>1103</ele>
        <time>2021-08-03T09:23:13.299Z</time>
      </trkpt>
      <trkpt lat="47.02324" lon="8.9133">
        <ele>1103</ele>
        <time>2021-08-03T09:23:14.298Z</time>
      </trkpt>
      <trkpt lat="47.02323" lon="8.91329">
        <ele>1104</ele>
        <time>2021-08-03T09:23:15.299Z</time>
      </trkpt>
      <trkpt lat="47.02323" lon="8.91329">
        <ele>1104</ele>
        <time>2021-08-03T09:23:16.298Z</time>
      </trkpt>
      <trkpt lat="47.02321" lon="8.91327">
        <ele>1104</ele>
        <time>2021-08-03T09:23:17.298Z</time>
      </trkpt>
      <trkpt lat="47.0232" lon="8.91326">
        <ele>1105</ele>
        <time>2021-08-03T09:23:18.298Z</time>
      </trkpt>
      <trkpt lat="47.02319" lon="8.91325">
        <ele>1105</ele>
        <time>2021-08-03T09:23:19.298Z</time>
      </trkpt>
      <trkpt lat="47.02319" lon="8.91323">
        <ele>1105</ele>
        <time>2021-08-03T09:23:20.299Z</time>
      </trkpt>
      <trkpt lat="47.02318" lon="8.91321">
        <ele>1105</ele>
        <time>2021-08-03T09:23:21.299Z</time>
      </trkpt>
      <trkpt lat="47.02318" lon="8.9132">
        <ele>1106</ele>
        <time>2021-08-03T09:23:22.299Z</time>
      </trkpt>
      <trkpt lat="47.02317" lon="8.91319">
        <ele>1106</ele>
        <time>2021-08-03T09:23:23.299Z</time>
      </trkpt>
      <trkpt lat="47.02316" lon="8.91317">
        <ele>1107</ele>
        <time>2021-08-03T09:23:24.299Z</time>
      </trkpt>
      <trkpt lat="47.02316" lon="8.91316">
        <ele>1107</ele>
        <time>2021-08-03T09:23:25.298Z</time>
      </trkpt>
      <trkpt lat="47.02315" lon="8.91315">
        <ele>1107</ele>
        <time>2021-08-03T09:23:26.299Z</time>
      </trkpt>
      <trkpt lat="47.02315" lon="8.91313">
        <ele>1107</ele>
        <time>2021-08-03T09:23:27.298Z</time>
      </trkpt>
      <trkpt lat="47.02315" lon="8.91313">
        <ele>1107</ele>
        <time>2021-08-03T09:23:28.299Z</time>
      </trkpt>
      <trkpt lat="47.02315" lon="8.91311">
        <ele>1106</ele>
        <time>2021-08-03T09:23:29.298Z</time>
      </trkpt>
      <trkpt lat="47.02316" lon="8.9131">
        <ele>1106</ele>
        <time>2021-08-03T09:23:30.298Z</time>
      </trkpt>
      <trkpt lat="47.02315" lon="8.91309">
        <ele>1105</ele>
        <time>2021-08-03T09:23:31.299Z</time>
      </trkpt>
      <trkpt lat="47.02315" lon="8.91307">
        <ele>1105</ele>
        <time>2021-08-03T09:23:32.298Z</time>
      </trkpt>
      <trkpt lat="47.02314" lon="8.91304">
        <ele>1105</ele>
        <time>2021-08-03T09:23:33.299Z</time>
      </trkpt>
      <trkpt lat="47.02313" lon="8.91303">
        <ele>1105</ele>
        <time>2021-08-03T09:23:34.298Z</time>
      </trkpt>
      <trkpt lat="47.02313" lon="8.91302">
        <ele>1104</ele>
        <time>2021-08-03T09:23:35.298Z</time>
      </trkpt>
      <trkpt lat="47.02312" lon="8.913">
        <ele>1104</ele>
        <time>2021-08-03T09:23:36.298Z</time>
      </trkpt>
      <trkpt lat="47.02312" lon="8.91299">
        <ele>1103</ele>
        <time>2021-08-03T09:23:37.298Z</time>
      </trkpt>
      <trkpt lat="47.02312" lon="8.91298">
        <ele>1103</ele>
        <time>2021-08-03T09:23:38.298Z</time>
      </trkpt>
      <trkpt lat="47.02312" lon="8.91296">
        <ele>1102</ele>
        <time>2021-08-03T09:23:39.298Z</time>
      </trkpt>
      <trkpt lat="47.02311" lon="8.91295">
        <ele>1101</ele>
        <time>2021-08-03T09:23:40.299Z</time>
      </trkpt>
      <trkpt lat="47.02311" lon="8.91293">
        <ele>1101</ele>
        <time>2021-08-03T09:23:41.298Z</time>
      </trkpt>
      <trkpt lat="47.02311" lon="8.91292">
        <ele>1100</ele>
        <time>2021-08-03T09:23:42.298Z</time>
      </trkpt>
      <trkpt lat="47.0231" lon="8.91291">
        <ele>1100</ele>
        <time>2021-08-03T09:23:43.298Z</time>
      </trkpt>
      <trkpt lat="47.0231" lon="8.9129">
        <ele>1099</ele>
        <time>2021-08-03T09:23:44.298Z</time>
      </trkpt>
      <trkpt lat="47.02309" lon="8.91288">
        <ele>1100</ele>
        <time>2021-08-03T09:23:45.298Z</time>
      </trkpt>
      <trkpt lat="47.02308" lon="8.91287">
        <ele>1100</ele>
        <time>2021-08-03T09:23:46.298Z</time>
      </trkpt>
      <trkpt lat="47.02307" lon="8.91286">
        <ele>1100</ele>
        <time>2021-08-03T09:23:47.298Z</time>
      </trkpt>
      <trkpt lat="47.02306" lon="8.91284">
        <ele>1100</ele>
        <time>2021-08-03T09:23:48.298Z</time>
      </trkpt>
      <trkpt lat="47.02306" lon="8.91283">
        <ele>1100</ele>
        <time>2021-08-03T09:23:49.299Z</time>
      </trkpt>
      <trkpt lat="47.02306" lon="8.91281">
        <ele>1100</ele>
        <time>2021-08-03T09:23:50.299Z</time>
      </trkpt>
      <trkpt lat="47.02306" lon="8.9128">
        <ele>1100</ele>
        <time>2021-08-03T09:23:51.298Z</time>
      </trkpt>
      <trkpt lat="47.02306" lon="8.91278">
        <ele>1099</ele>
        <time>2021-08-03T09:23:52.298Z</time>
      </trkpt>
      <trkpt lat="47.02305" lon="8.91277">
        <ele>1099</ele>
        <time>2021-08-03T09:23:53.298Z</time>
      </trkpt>
      <trkpt lat="47.02305" lon="8.91275">
        <ele>1100</ele>
        <time>2021-08-03T09:23:54.299Z</time>
      </trkpt>
      <trkpt lat="47.02305" lon="8.91274">
        <ele>1100</ele>
        <time>2021-08-03T09:23:55.298Z</time>
      </trkpt>
      <trkpt lat="47.02304" lon="8.91272">
        <ele>1101</ele>
        <time>2021-08-03T09:23:56.299Z</time>
      </trkpt>
      <trkpt lat="47.02303" lon="8.91271">
        <ele>1101</ele>
        <time>2021-08-03T09:23:57.298Z</time>
      </trkpt>
      <trkpt lat="47.02302" lon="8.9127">
        <ele>1101</ele>
        <time>2021-08-03T09:23:58.298Z</time>
      </trkpt>
      <trkpt lat="47.02302" lon="8.91269">
        <ele>1102</ele>
        <time>2021-08-03T09:23:59.299Z</time>
      </trkpt>
      <trkpt lat="47.02301" lon="8.91267">
        <ele>1102</ele>
        <time>2021-08-03T09:24:00.298Z</time>
      </trkpt>
      <trkpt lat="47.02301" lon="8.91265">
        <ele>1103</ele>
        <time>2021-08-03T09:24:01.299Z</time>
      </trkpt>
      <trkpt lat="47.023" lon="8.91263">
        <ele>1103</ele>
        <time>2021-08-03T09:24:02.299Z</time>
      </trkpt>
      <trkpt lat="47.023" lon="8.91261">
        <ele>1104</ele>
        <time>2021-08-03T09:24:03.299Z</time>
      </trkpt>
      <trkpt lat="47.023" lon="8.91259">
        <ele>1104</ele>
        <time>2021-08-03T09:24:04.298Z</time>
      </trkpt>
      <trkpt lat="47.023" lon="8.91257">
        <ele>1105</ele>
        <time>2021-08-03T09:24:05.299Z</time>
      </trkpt>
      <trkpt lat="47.023" lon="8.91256">
        <ele>1105</ele>
        <time>2021-08-03T09:24:06.299Z</time>
      </trkpt>
      <trkpt lat="47.02299" lon="8.91253">
        <ele>1105</ele>
        <time>2021-08-03T09:24:07.299Z</time>
      </trkpt>
      <trkpt lat="47.02299" lon="8.91252">
        <ele>1105</ele>
        <time>2021-08-03T09:24:08.298Z</time>
      </trkpt>
      <trkpt lat="47.02298" lon="8.9125">
        <ele>1104</ele>
        <time>2021-08-03T09:24:09.298Z</time>
      </trkpt>
      <trkpt lat="47.02297" lon="8.91249">
        <ele>1104</ele>
        <time>2021-08-03T09:24:10.298Z</time>
      </trkpt>
      <trkpt lat="47.02296" lon="8.91247">
        <ele>1103</ele>
        <time>2021-08-03T09:24:11.298Z</time>
      </trkpt>
      <trkpt lat="47.02294" lon="8.91245">
        <ele>1103</ele>
        <time>2021-08-03T09:24:12.298Z</time>
      </trkpt>
      <trkpt lat="47.02294" lon="8.91243">
        <ele>1102</ele>
        <time>2021-08-03T09:24:13.298Z</time>
      </trkpt>
      <trkpt lat="47.02294" lon="8.91241">
        <ele>1102</ele>
        <time>2021-08-03T09:24:14.298Z</time>
      </trkpt>
      <trkpt lat="47.02294" lon="8.91239">
        <ele>1102</ele>
        <time>2021-08-03T09:24:15.299Z</time>
      </trkpt>
      <trkpt lat="47.02294" lon="8.91237">
        <ele>1102</ele>
        <time>2021-08-03T09:24:16.298Z</time>
      </trkpt>
      <trkpt lat="47.02294" lon="8.91237">
        <ele>1102</ele>
        <time>2021-08-03T09:24:17.299Z</time>
      </trkpt>
      <trkpt lat="47.02294" lon="8.91235">
        <ele>1103</ele>
        <time>2021-08-03T09:24:18.298Z</time>
      </trkpt>
      <trkpt lat="47.02294" lon="8.91233">
        <ele>1103</ele>
        <time>2021-08-03T09:24:19.298Z</time>
      </trkpt>
      <trkpt lat="47.02294" lon="8.91232">
        <ele>1104</ele>
        <time>2021-08-03T09:24:20.298Z</time>
      </trkpt>
      <trkpt lat="47.02294" lon="8.9123">
        <ele>1105</ele>
        <time>2021-08-03T09:24:21.298Z</time>
      </trkpt>
      <trkpt lat="47.02294" lon="8.91227">
        <ele>1105</ele>
        <time>2021-08-03T09:24:22.298Z</time>
      </trkpt>
      <trkpt lat="47.02295" lon="8.91225">
        <ele>1106</ele>
        <time>2021-08-03T09:24:23.298Z</time>
      </trkpt>
      <trkpt lat="47.02295" lon="8.91223">
        <ele>1106</ele>
        <time>2021-08-03T09:24:24.298Z</time>
      </trkpt>
      <trkpt lat="47.02296" lon="8.91222">
        <ele>1107</ele>
        <time>2021-08-03T09:24:25.298Z</time>
      </trkpt>
      <trkpt lat="47.02296" lon="8.9122">
        <ele>1107</ele>
        <time>2021-08-03T09:24:26.298Z</time>
      </trkpt>
      <trkpt lat="47.02295" lon="8.91218">
        <ele>1107</ele>
        <time>2021-08-03T09:24:27.299Z</time>
      </trkpt>
      <trkpt lat="47.02293" lon="8.91215">
        <ele>1107</ele>
        <time>2021-08-03T09:24:28.299Z</time>
      </trkpt>
      <trkpt lat="47.02292" lon="8.91213">
        <ele>1107</ele>
        <time>2021-08-03T09:24:29.298Z</time>
      </trkpt>
      <trkpt lat="47.02292" lon="8.91211">
        <ele>1107</ele>
        <time>2021-08-03T09:24:30.298Z</time>
      </trkpt>
      <trkpt lat="47.02291" lon="8.9121">
        <ele>1107</ele>
        <time>2021-08-03T09:24:31.299Z</time>
      </trkpt>
      <trkpt lat="47.0229" lon="8.91208">
        <ele>1108</ele>
        <time>2021-08-03T09:24:32.299Z</time>
      </trkpt>
      <trkpt lat="47.02289" lon="8.91207">
        <ele>1108</ele>
        <time>2021-08-03T09:24:33.298Z</time>
      </trkpt>
      <trkpt lat="47.02289" lon="8.91205">
        <ele>1108</ele>
        <time>2021-08-03T09:24:34.298Z</time>
      </trkpt>
      <trkpt lat="47.02289" lon="8.91203">
        <ele>1108</ele>
        <time>2021-08-03T09:24:35.299Z</time>
      </trkpt>
      <trkpt lat="47.02289" lon="8.91201">
        <ele>1107</ele>
        <time>2021-08-03T09:24:36.298Z</time>
      </trkpt>
      <trkpt lat="47.02289" lon="8.91199">
        <ele>1108</ele>
        <time>2021-08-03T09:24:37.298Z</time>
      </trkpt>
      <trkpt lat="47.02288" lon="8.91197">
        <ele>1108</ele>
        <time>2021-08-03T09:24:38.299Z</time>
      </trkpt>
      <trkpt lat="47.02288" lon="8.91195">
        <ele>1108</ele>
        <time>2021-08-03T09:24:39.298Z</time>
      </trkpt>
      <trkpt lat="47.02288" lon="8.91193">
        <ele>1108</ele>
        <time>2021-08-03T09:24:40.299Z</time>
      </trkpt>
      <trkpt lat="47.02287" lon="8.9119">
        <ele>1107</ele>
        <time>2021-08-03T09:24:41.298Z</time>
      </trkpt>
      <trkpt lat="47.02286" lon="8.91187">
        <ele>1107</ele>
        <time>2021-08-03T09:24:42.298Z</time>
      </trkpt>
      <trkpt lat="47.02284" lon="8.91185">
        <ele>1107</ele>
        <time>2021-08-03T09:24:43.299Z</time>
      </trkpt>
      <trkpt lat="47.02283" lon="8.91182">
        <ele>1107</ele>
        <time>2021-08-03T09:24:44.298Z</time>
      </trkpt>
      <trkpt lat="47.02283" lon="8.9118">
        <ele>1107</ele>
        <time>2021-08-03T09:24:45.299Z</time>
      </trkpt>
      <trkpt lat="47.02283" lon="8.91179">
        <ele>1108</ele>
        <time>2021-08-03T09:24:46.298Z</time>
      </trkpt>
      <trkpt lat="47.02283" lon="8.91177">
        <ele>1108</ele>
        <time>2021-08-03T09:24:47.298Z</time>
      </trkpt>
      <trkpt lat="47.02284" lon="8.91176">
        <ele>1108</ele>
        <time>2021-08-03T09:24:48.298Z</time>
      </trkpt>
      <trkpt lat="47.02284" lon="8.91175">
        <ele>1109</ele>
        <time>2021-08-03T09:24:49.298Z</time>
      </trkpt>
      <trkpt lat="47.02284" lon="8.91173">
        <ele>1109</ele>
        <time>2021-08-03T09:24:50.298Z</time>
      </trkpt>
      <trkpt lat="47.02284" lon="8.91172">
        <ele>1109</ele>
        <time>2021-08-03T09:24:51.299Z</time>
      </trkpt>
      <trkpt lat="47.02284" lon="8.91172">
        <ele>1109</ele>
        <time>2021-08-03T09:24:52.298Z</time>
      </trkpt>
      <trkpt lat="47.02284" lon="8.91171">
        <ele>1109</ele>
        <time>2021-08-03T09:24:53.298Z</time>
      </trkpt>
      <trkpt lat="47.02284" lon="8.91171">
        <ele>1109</ele>
        <time>2021-08-03T09:24:54.298Z</time>
      </trkpt>
      <trkpt lat="47.02284" lon="8.9117">
        <ele>1109</ele>
        <time>2021-08-03T09:24:55.298Z</time>
      </trkpt>
      <trkpt lat="47.02284" lon="8.9117">
        <ele>1109</ele>
        <time>2021-08-03T09:24:56.299Z</time>
      </trkpt>
      <trkpt lat="47.02284" lon="8.91169">
        <ele>1110</ele>
        <time>2021-08-03T09:24:57.298Z</time>
      </trkpt>
      <trkpt lat="47.02284" lon="8.91168">
        <ele>1110</ele>
        <time>2021-08-03T09:24:58.298Z</time>
      </trkpt>
      <trkpt lat="47.0228" lon="8.91167">
        <ele>1111</ele>
        <time>2021-08-03T09:24:59.298Z</time>
      </trkpt>
      <trkpt lat="47.02278" lon="8.91167">
        <ele>1111</ele>
        <time>2021-08-03T09:25:00.298Z</time>
      </trkpt>
      <trkpt lat="47.02277" lon="8.91167">
        <ele>1112</ele>
        <time>2021-08-03T09:25:01.298Z</time>
      </trkpt>
      <trkpt lat="47.02279" lon="8.91158">
        <ele>1099</ele>
        <time>2021-08-03T09:25:02.298Z</time>
      </trkpt>
      <trkpt lat="47.02267" lon="8.91158">
        <ele>1090</ele>
        <time>2021-08-03T09:25:03.300Z</time>
      </trkpt>
      <trkpt lat="47.02267" lon="8.91158">
        <ele>1090</ele>
        <time>2021-08-03T09:25:04.299Z</time>
      </trkpt>
      <trkpt lat="47.0227" lon="8.91159">
        <ele>1094</ele>
        <time>2021-08-03T09:25:05.301Z</time>
      </trkpt>
      <trkpt lat="47.02269" lon="8.9116">
        <ele>1094</ele>
        <time>2021-08-03T09:25:06.301Z</time>
      </trkpt>
      <trkpt lat="47.02269" lon="8.9116">
        <ele>1093</ele>
        <time>2021-08-03T09:25:07.301Z</time>
      </trkpt>
      <trkpt lat="47.02269" lon="8.9116">
        <ele>1093</ele>
        <time>2021-08-03T09:25:08.301Z</time>
      </trkpt>
      <trkpt lat="47.02269" lon="8.9116">
        <ele>1092</ele>
        <time>2021-08-03T09:25:09.301Z</time>
      </trkpt>
      <trkpt lat="47.02269" lon="8.91161">
        <ele>1092</ele>
        <time>2021-08-03T09:25:10.300Z</time>
      </trkpt>
      <trkpt lat="47.0227" lon="8.91161">
        <ele>1091</ele>
        <time>2021-08-03T09:25:11.300Z</time>
      </trkpt>
      <trkpt lat="47.02271" lon="8.91163">
        <ele>1088</ele>
        <time>2021-08-03T09:25:12.301Z</time>
      </trkpt>
      <trkpt lat="47.02271" lon="8.91164">
        <ele>1088</ele>
        <time>2021-08-03T09:25:13.301Z</time>
      </trkpt>
      <trkpt lat="47.02271" lon="8.91164">
        <ele>1087</ele>
        <time>2021-08-03T09:25:14.301Z</time>
      </trkpt>
      <trkpt lat="47.02271" lon="8.91165">
        <ele>1087</ele>
        <time>2021-08-03T09:25:15.301Z</time>
      </trkpt>
      <trkpt lat="47.02271" lon="8.91167">
        <ele>1087</ele>
        <time>2021-08-03T09:25:16.300Z</time>
      </trkpt>
      <trkpt lat="47.02272" lon="8.91168">
        <ele>1086</ele>
        <time>2021-08-03T09:25:17.301Z</time>
      </trkpt>
      <trkpt lat="47.02272" lon="8.91169">
        <ele>1086</ele>
        <time>2021-08-03T09:25:18.301Z</time>
      </trkpt>
      <trkpt lat="47.02271" lon="8.91169">
        <ele>1087</ele>
        <time>2021-08-03T09:25:19.301Z</time>
      </trkpt>
      <trkpt lat="47.02273" lon="8.91165">
        <ele>1093</ele>
        <time>2021-08-03T09:25:20.301Z</time>
      </trkpt>
      <trkpt lat="47.02273" lon="8.91165">
        <ele>1093</ele>
        <time>2021-08-03T09:25:21.301Z</time>
      </trkpt>
      <trkpt lat="47.02273" lon="8.91165">
        <ele>1094</ele>
        <time>2021-08-03T09:25:22.301Z</time>
      </trkpt>
      <trkpt lat="47.02273" lon="8.91164">
        <ele>1095</ele>
        <time>2021-08-03T09:25:23.302Z</time>
      </trkpt>
      <trkpt lat="47.02273" lon="8.91163">
        <ele>1095</ele>
        <time>2021-08-03T09:25:24.302Z</time>
      </trkpt>
      <trkpt lat="47.02272" lon="8.91162">
        <ele>1095</ele>
        <time>2021-08-03T09:25:25.303Z</time>
      </trkpt>
      <trkpt lat="47.02272" lon="8.9116">
        <ele>1096</ele>
        <time>2021-08-03T09:25:26.302Z</time>
      </trkpt>
      <trkpt lat="47.02272" lon="8.91158">
        <ele>1096</ele>
        <time>2021-08-03T09:25:27.302Z</time>
      </trkpt>
      <trkpt lat="47.02272" lon="8.91156">
        <ele>1096</ele>
        <time>2021-08-03T09:25:28.303Z</time>
      </trkpt>
      <trkpt lat="47.02273" lon="8.91155">
        <ele>1096</ele>
        <time>2021-08-03T09:25:29.302Z</time>
      </trkpt>
      <trkpt lat="47.02273" lon="8.91153">
        <ele>1096</ele>
        <time>2021-08-03T09:25:30.302Z</time>
      </trkpt>
      <trkpt lat="47.02273" lon="8.91152">
        <ele>1096</ele>
        <time>2021-08-03T09:25:31.302Z</time>
      </trkpt>
      <trkpt lat="47.02274" lon="8.9115">
        <ele>1096</ele>
        <time>2021-08-03T09:25:32.303Z</time>
      </trkpt>
      <trkpt lat="47.02274" lon="8.91149">
        <ele>1096</ele>
        <time>2021-08-03T09:25:33.302Z</time>
      </trkpt>
      <trkpt lat="47.02274" lon="8.91147">
        <ele>1095</ele>
        <time>2021-08-03T09:25:34.302Z</time>
      </trkpt>
      <trkpt lat="47.02273" lon="8.91145">
        <ele>1095</ele>
        <time>2021-08-03T09:25:35.302Z</time>
      </trkpt>
      <trkpt lat="47.02274" lon="8.91144">
        <ele>1095</ele>
        <time>2021-08-03T09:25:36.302Z</time>
      </trkpt>
      <trkpt lat="47.02275" lon="8.91143">
        <ele>1095</ele>
        <time>2021-08-03T09:25:37.303Z</time>
      </trkpt>
      <trkpt lat="47.02275" lon="8.91142">
        <ele>1095</ele>
        <time>2021-08-03T09:25:38.302Z</time>
      </trkpt>
      <trkpt lat="47.02276" lon="8.9114">
        <ele>1095</ele>
        <time>2021-08-03T09:25:39.302Z</time>
      </trkpt>
      <trkpt lat="47.02277" lon="8.91138">
        <ele>1095</ele>
        <time>2021-08-03T09:25:40.302Z</time>
      </trkpt>
      <trkpt lat="47.02276" lon="8.91136">
        <ele>1094</ele>
        <time>2021-08-03T09:25:41.303Z</time>
      </trkpt>
      <trkpt lat="47.02276" lon="8.91133">
        <ele>1094</ele>
        <time>2021-08-03T09:25:42.302Z</time>
      </trkpt>
      <trkpt lat="47.02276" lon="8.91131">
        <ele>1094</ele>
        <time>2021-08-03T09:25:43.302Z</time>
      </trkpt>
      <trkpt lat="47.02277" lon="8.91129">
        <ele>1093</ele>
        <time>2021-08-03T09:25:44.302Z</time>
      </trkpt>
      <trkpt lat="47.02278" lon="8.91127">
        <ele>1093</ele>
        <time>2021-08-03T09:25:45.302Z</time>
      </trkpt>
      <trkpt lat="47.02278" lon="8.91126">
        <ele>1093</ele>
        <time>2021-08-03T09:25:46.302Z</time>
      </trkpt>
      <trkpt lat="47.02278" lon="8.91126">
        <ele>1093</ele>
        <time>2021-08-03T09:25:47.302Z</time>
      </trkpt>
      <trkpt lat="47.02279" lon="8.91124">
        <ele>1094</ele>
        <time>2021-08-03T09:25:48.302Z</time>
      </trkpt>
      <trkpt lat="47.02279" lon="8.91123">
        <ele>1094</ele>
        <time>2021-08-03T09:25:49.302Z</time>
      </trkpt>
      <trkpt lat="47.0228" lon="8.91122">
        <ele>1094</ele>
        <time>2021-08-03T09:25:50.302Z</time>
      </trkpt>
      <trkpt lat="47.02281" lon="8.91121">
        <ele>1094</ele>
        <time>2021-08-03T09:25:51.302Z</time>
      </trkpt>
      <trkpt lat="47.02282" lon="8.91119">
        <ele>1094</ele>
        <time>2021-08-03T09:25:52.302Z</time>
      </trkpt>
      <trkpt lat="47.02283" lon="8.91118">
        <ele>1094</ele>
        <time>2021-08-03T09:25:53.302Z</time>
      </trkpt>
      <trkpt lat="47.02283" lon="8.91116">
        <ele>1094</ele>
        <time>2021-08-03T09:25:54.302Z</time>
      </trkpt>
      <trkpt lat="47.02284" lon="8.91115">
        <ele>1093</ele>
        <time>2021-08-03T09:25:55.302Z</time>
      </trkpt>
      <trkpt lat="47.02284" lon="8.91114">
        <ele>1093</ele>
        <time>2021-08-03T09:25:56.302Z</time>
      </trkpt>
      <trkpt lat="47.02284" lon="8.91113">
        <ele>1092</ele>
        <time>2021-08-03T09:25:57.302Z</time>
      </trkpt>
      <trkpt lat="47.02283" lon="8.91112">
        <ele>1092</ele>
        <time>2021-08-03T09:25:58.302Z</time>
      </trkpt>
      <trkpt lat="47.02283" lon="8.91111">
        <ele>1093</ele>
        <time>2021-08-03T09:25:59.302Z</time>
      </trkpt>
      <trkpt lat="47.02283" lon="8.91111">
        <ele>1093</ele>
        <time>2021-08-03T09:26:00.302Z</time>
      </trkpt>
      <trkpt lat="47.02281" lon="8.9111">
        <ele>1093</ele>
        <time>2021-08-03T09:26:01.302Z</time>
      </trkpt>
      <trkpt lat="47.02281" lon="8.9111">
        <ele>1094</ele>
        <time>2021-08-03T09:26:02.302Z</time>
      </trkpt>
      <trkpt lat="47.02282" lon="8.91108">
        <ele>1096</ele>
        <time>2021-08-03T09:26:03.303Z</time>
      </trkpt>
      <trkpt lat="47.02282" lon="8.91108">
        <ele>1096</ele>
        <time>2021-08-03T09:26:04.303Z</time>
      </trkpt>
      <trkpt lat="47.02282" lon="8.91108">
        <ele>1096</ele>
        <time>2021-08-03T09:26:05.302Z</time>
      </trkpt>
      <trkpt lat="47.02281" lon="8.9111">
        <ele>1099</ele>
        <time>2021-08-03T09:26:06.302Z</time>
      </trkpt>
      <trkpt lat="47.02281" lon="8.9111">
        <ele>1100</ele>
        <time>2021-08-03T09:26:07.302Z</time>
      </trkpt>
      <trkpt lat="47.02281" lon="8.9111">
        <ele>1100</ele>
        <time>2021-08-03T09:26:08.302Z</time>
      </trkpt>
      <trkpt lat="47.02283" lon="8.91109">
        <ele>1101</ele>
        <time>2021-08-03T09:26:09.303Z</time>
      </trkpt>
      <trkpt lat="47.02284" lon="8.91108">
        <ele>1101</ele>
        <time>2021-08-03T09:26:10.302Z</time>
      </trkpt>
      <trkpt lat="47.02285" lon="8.91108">
        <ele>1101</ele>
        <time>2021-08-03T09:26:11.303Z</time>
      </trkpt>
      <trkpt lat="47.02285" lon="8.91107">
        <ele>1102</ele>
        <time>2021-08-03T09:26:12.302Z</time>
      </trkpt>
      <trkpt lat="47.02286" lon="8.91107">
        <ele>1103</ele>
        <time>2021-08-03T09:26:13.302Z</time>
      </trkpt>
      <trkpt lat="47.02287" lon="8.91106">
        <ele>1104</ele>
        <time>2021-08-03T09:26:14.302Z</time>
      </trkpt>
      <trkpt lat="47.02287" lon="8.91106">
        <ele>1105</ele>
        <time>2021-08-03T09:26:15.302Z</time>
      </trkpt>
      <trkpt lat="47.02288" lon="8.91105">
        <ele>1106</ele>
        <time>2021-08-03T09:26:16.302Z</time>
      </trkpt>
      <trkpt lat="47.02289" lon="8.91104">
        <ele>1106</ele>
        <time>2021-08-03T09:26:17.302Z</time>
      </trkpt>
      <trkpt lat="47.02289" lon="8.91103">
        <ele>1107</ele>
        <time>2021-08-03T09:26:18.302Z</time>
      </trkpt>
      <trkpt lat="47.0229" lon="8.91103">
        <ele>1107</ele>
        <time>2021-08-03T09:26:19.302Z</time>
      </trkpt>
      <trkpt lat="47.0229" lon="8.91103">
        <ele>1108</ele>
        <time>2021-08-03T09:26:20.303Z</time>
      </trkpt>
      <trkpt lat="47.02291" lon="8.91103">
        <ele>1108</ele>
        <time>2021-08-03T09:26:21.303Z</time>
      </trkpt>
      <trkpt lat="47.02292" lon="8.91103">
        <ele>1109</ele>
        <time>2021-08-03T09:26:22.303Z</time>
      </trkpt>
      <trkpt lat="47.02292" lon="8.91104">
        <ele>1110</ele>
        <time>2021-08-03T09:26:23.302Z</time>
      </trkpt>
      <trkpt lat="47.02292" lon="8.91104">
        <ele>1111</ele>
        <time>2021-08-03T09:26:24.302Z</time>
      </trkpt>
      <trkpt lat="47.02289" lon="8.911">
        <ele>1116</ele>
        <time>2021-08-03T09:26:25.303Z</time>
      </trkpt>
      <trkpt lat="47.02289" lon="8.91099">
        <ele>1116</ele>
        <time>2021-08-03T09:26:26.302Z</time>
      </trkpt>
      <trkpt lat="47.02289" lon="8.91099">
        <ele>1116</ele>
        <time>2021-08-03T09:26:27.302Z</time>
      </trkpt>
      <trkpt lat="47.02289" lon="8.911">
        <ele>1116</ele>
        <time>2021-08-03T09:26:28.303Z</time>
      </trkpt>
      <trkpt lat="47.02288" lon="8.911">
        <ele>1117</ele>
        <time>2021-08-03T09:26:29.303Z</time>
      </trkpt>
      <trkpt lat="47.02286" lon="8.911">
        <ele>1117</ele>
        <time>2021-08-03T09:26:30.304Z</time>
      </trkpt>
      <trkpt lat="47.02286" lon="8.911">
        <ele>1117</ele>
        <time>2021-08-03T09:26:31.303Z</time>
      </trkpt>
      <trkpt lat="47.02287" lon="8.91102">
        <ele>1117</ele>
        <time>2021-08-03T09:26:32.303Z</time>
      </trkpt>
      <trkpt lat="47.02285" lon="8.91102">
        <ele>1118</ele>
        <time>2021-08-03T09:26:33.303Z</time>
      </trkpt>
      <trkpt lat="47.02285" lon="8.91102">
        <ele>1118</ele>
        <time>2021-08-03T09:26:34.303Z</time>
      </trkpt>
      <trkpt lat="47.02285" lon="8.91102">
        <ele>1118</ele>
        <time>2021-08-03T09:26:35.303Z</time>
      </trkpt>
      <trkpt lat="47.02286" lon="8.91102">
        <ele>1118</ele>
        <time>2021-08-03T09:26:36.304Z</time>
      </trkpt>
      <trkpt lat="47.02286" lon="8.91102">
        <ele>1117</ele>
        <time>2021-08-03T09:26:37.304Z</time>
      </trkpt>
      <trkpt lat="47.02287" lon="8.91103">
        <ele>1116</ele>
        <time>2021-08-03T09:26:38.304Z</time>
      </trkpt>
      <trkpt lat="47.02287" lon="8.91104">
        <ele>1116</ele>
        <time>2021-08-03T09:26:39.304Z</time>
      </trkpt>
      <trkpt lat="47.02288" lon="8.91103">
        <ele>1116</ele>
        <time>2021-08-03T09:26:40.303Z</time>
      </trkpt>
      <trkpt lat="47.02288" lon="8.91103">
        <ele>1115</ele>
        <time>2021-08-03T09:26:41.304Z</time>
      </trkpt>
      <trkpt lat="47.02288" lon="8.91104">
        <ele>1114</ele>
        <time>2021-08-03T09:26:42.304Z</time>
      </trkpt>
      <trkpt lat="47.02288" lon="8.91104">
        <ele>1114</ele>
        <time>2021-08-03T09:26:43.303Z</time>
      </trkpt>
      <trkpt lat="47.02289" lon="8.91104">
        <ele>1113</ele>
        <time>2021-08-03T09:26:44.304Z</time>
      </trkpt>
      <trkpt lat="47.0229" lon="8.91104">
        <ele>1113</ele>
        <time>2021-08-03T09:26:45.304Z</time>
      </trkpt>
      <trkpt lat="47.02291" lon="8.91103">
        <ele>1112</ele>
        <time>2021-08-03T09:26:46.304Z</time>
      </trkpt>
      <trkpt lat="47.0229" lon="8.91104">
        <ele>1112</ele>
        <time>2021-08-03T09:26:47.305Z</time>
      </trkpt>
      <trkpt lat="47.02289" lon="8.91104">
        <ele>1112</ele>
        <time>2021-08-03T09:26:48.305Z</time>
      </trkpt>
      <trkpt lat="47.02288" lon="8.91104">
        <ele>1112</ele>
        <time>2021-08-03T09:26:49.304Z</time>
      </trkpt>
      <trkpt lat="47.02288" lon="8.91104">
        <ele>1112</ele>
        <time>2021-08-03T09:26:50.305Z</time>
      </trkpt>
      <trkpt lat="47.02287" lon="8.91104">
        <ele>1112</ele>
        <time>2021-08-03T09:26:51.305Z</time>
      </trkpt>
      <trkpt lat="47.02287" lon="8.91104">
        <ele>1112</ele>
        <time>2021-08-03T09:26:52.304Z</time>
      </trkpt>
      <trkpt lat="47.02287" lon="8.91105">
        <ele>1112</ele>
        <time>2021-08-03T09:26:53.305Z</time>
      </trkpt>
      <trkpt lat="47.02287" lon="8.91105">
        <ele>1112</ele>
        <time>2021-08-03T09:26:54.305Z</time>
      </trkpt>
      <trkpt lat="47.02287" lon="8.91105">
        <ele>1112</ele>
        <time>2021-08-03T09:26:55.304Z</time>
      </trkpt>
      <trkpt lat="47.02288" lon="8.91105">
        <ele>1112</ele>
        <time>2021-08-03T09:26:56.305Z</time>
      </trkpt>
      <trkpt lat="47.02289" lon="8.91105">
        <ele>1112</ele>
        <time>2021-08-03T09:26:57.305Z</time>
      </trkpt>
      <trkpt lat="47.02289" lon="8.91105">
        <ele>1112</ele>
        <time>2021-08-03T09:26:58.305Z</time>
      </trkpt>
      <trkpt lat="47.0229" lon="8.91103">
        <ele>1112</ele>
        <time>2021-08-03T09:26:59.305Z</time>
      </trkpt>
      <trkpt lat="47.02289" lon="8.91103">
        <ele>1112</ele>
        <time>2021-08-03T09:27:00.305Z</time>
      </trkpt>
      <trkpt lat="47.02289" lon="8.91104">
        <ele>1112</ele>
        <time>2021-08-03T09:27:01.304Z</time>
      </trkpt>
      <trkpt lat="47.02289" lon="8.91103">
        <ele>1112</ele>
        <time>2021-08-03T09:27:02.304Z</time>
      </trkpt>
      <trkpt lat="47.0229" lon="8.91103">
        <ele>1111</ele>
        <time>2021-08-03T09:27:03.304Z</time>
      </trkpt>
      <trkpt lat="47.0229" lon="8.91102">
        <ele>1111</ele>
        <time>2021-08-03T09:27:04.304Z</time>
      </trkpt>
      <trkpt lat="47.0229" lon="8.91102">
        <ele>1111</ele>
        <time>2021-08-03T09:27:05.305Z</time>
      </trkpt>
      <trkpt lat="47.02287" lon="8.91107">
        <ele>1110</ele>
        <time>2021-08-03T09:27:06.305Z</time>
      </trkpt>
      <trkpt lat="47.02287" lon="8.91107">
        <ele>1110</ele>
        <time>2021-08-03T09:27:07.305Z</time>
      </trkpt>
      <trkpt lat="47.02286" lon="8.91108">
        <ele>1110</ele>
        <time>2021-08-03T09:27:08.304Z</time>
      </trkpt>
      <trkpt lat="47.02287" lon="8.91109">
        <ele>1099</ele>
        <time>2021-08-03T09:27:09.305Z</time>
      </trkpt>
      <trkpt lat="47.02289" lon="8.91109">
        <ele>1096</ele>
        <time>2021-08-03T09:27:10.306Z</time>
      </trkpt>
      <trkpt lat="47.0229" lon="8.91108">
        <ele>1096</ele>
        <time>2021-08-03T09:27:11.305Z</time>
      </trkpt>
      <trkpt lat="47.0229" lon="8.91108">
        <ele>1096</ele>
        <time>2021-08-03T09:27:12.306Z</time>
      </trkpt>
      <trkpt lat="47.0229" lon="8.91108">
        <ele>1096</ele>
        <time>2021-08-03T09:27:13.306Z</time>
      </trkpt>
      <trkpt lat="47.02291" lon="8.91106">
        <ele>1097</ele>
        <time>2021-08-03T09:27:14.306Z</time>
      </trkpt>
      <trkpt lat="47.02291" lon="8.91106">
        <ele>1097</ele>
        <time>2021-08-03T09:27:15.306Z</time>
      </trkpt>
      <trkpt lat="47.02291" lon="8.91107">
        <ele>1097</ele>
        <time>2021-08-03T09:27:16.307Z</time>
      </trkpt>
      <trkpt lat="47.02291" lon="8.91109">
        <ele>1100</ele>
        <time>2021-08-03T09:27:17.309Z</time>
      </trkpt>
      <trkpt lat="47.02291" lon="8.9111">
        <ele>1101</ele>
        <time>2021-08-03T09:27:18.309Z</time>
      </trkpt>
      <trkpt lat="47.0229" lon="8.9111">
        <ele>1102</ele>
        <time>2021-08-03T09:27:19.308Z</time>
      </trkpt>
      <trkpt lat="47.0229" lon="8.9111">
        <ele>1103</ele>
        <time>2021-08-03T09:27:20.308Z</time>
      </trkpt>
      <trkpt lat="47.02288" lon="8.9111">
        <ele>1104</ele>
        <time>2021-08-03T09:27:21.308Z</time>
      </trkpt>
      <trkpt lat="47.02288" lon="8.91111">
        <ele>1104</ele>
        <time>2021-08-03T09:27:22.308Z</time>
      </trkpt>
      <trkpt lat="47.02287" lon="8.91112">
        <ele>1100</ele>
        <time>2021-08-03T09:27:23.308Z</time>
      </trkpt>
      <trkpt lat="47.02289" lon="8.91108">
        <ele>1105</ele>
        <time>2021-08-03T09:27:24.309Z</time>
      </trkpt>
      <trkpt lat="47.02288" lon="8.91108">
        <ele>1105</ele>
        <time>2021-08-03T09:27:25.309Z</time>
      </trkpt>
      <trkpt lat="47.02288" lon="8.91108">
        <ele>1105</ele>
        <time>2021-08-03T09:27:26.308Z</time>
      </trkpt>
      <trkpt lat="47.02288" lon="8.91107">
        <ele>1104</ele>
        <time>2021-08-03T09:27:27.309Z</time>
      </trkpt>
      <trkpt lat="47.02288" lon="8.91107">
        <ele>1104</ele>
        <time>2021-08-03T09:27:28.309Z</time>
      </trkpt>
      <trkpt lat="47.0229" lon="8.91099">
        <ele>1100</ele>
        <time>2021-08-03T09:27:29.308Z</time>
      </trkpt>
      <trkpt lat="47.02289" lon="8.91099">
        <ele>1100</ele>
        <time>2021-08-03T09:27:30.309Z</time>
      </trkpt>
      <trkpt lat="47.02284" lon="8.91097">
        <ele>1104</ele>
        <time>2021-08-03T09:27:31.310Z</time>
      </trkpt>
      <trkpt lat="47.02284" lon="8.91097">
        <ele>1104</ele>
        <time>2021-08-03T09:27:32.309Z</time>
      </trkpt>
      <trkpt lat="47.02284" lon="8.91097">
        <ele>1103</ele>
        <time>2021-08-03T09:27:33.309Z</time>
      </trkpt>
      <trkpt lat="47.02283" lon="8.91097">
        <ele>1103</ele>
        <time>2021-08-03T09:27:34.309Z</time>
      </trkpt>
      <trkpt lat="47.02279" lon="8.91095">
        <ele>1113</ele>
        <time>2021-08-03T09:27:35.310Z</time>
      </trkpt>
      <trkpt lat="47.02279" lon="8.91094">
        <ele>1114</ele>
        <time>2021-08-03T09:27:36.310Z</time>
      </trkpt>
      <trkpt lat="47.02279" lon="8.91095">
        <ele>1114</ele>
        <time>2021-08-03T09:27:37.309Z</time>
      </trkpt>
      <trkpt lat="47.02279" lon="8.91096">
        <ele>1115</ele>
        <time>2021-08-03T09:27:38.310Z</time>
      </trkpt>
      <trkpt lat="47.02279" lon="8.91095">
        <ele>1110</ele>
        <time>2021-08-03T09:27:39.310Z</time>
      </trkpt>
      <trkpt lat="47.02279" lon="8.91096">
        <ele>1110</ele>
        <time>2021-08-03T09:27:40.309Z</time>
      </trkpt>
      <trkpt lat="47.02279" lon="8.91095">
        <ele>1109</ele>
        <time>2021-08-03T09:27:41.310Z</time>
      </trkpt>
      <trkpt lat="47.02279" lon="8.91095">
        <ele>1107</ele>
        <time>2021-08-03T09:27:42.309Z</time>
      </trkpt>
      <trkpt lat="47.02279" lon="8.91096">
        <ele>1107</ele>
        <time>2021-08-03T09:27:43.309Z</time>
      </trkpt>
      <trkpt lat="47.02279" lon="8.91096">
        <ele>1107</ele>
        <time>2021-08-03T09:27:44.309Z</time>
      </trkpt>
      <trkpt lat="47.02279" lon="8.91095">
        <ele>1107</ele>
        <time>2021-08-03T09:27:45.310Z</time>
      </trkpt>
      <trkpt lat="47.02279" lon="8.91094">
        <ele>1107</ele>
        <time>2021-08-03T09:27:46.309Z</time>
      </trkpt>
      <trkpt lat="47.02279" lon="8.91094">
        <ele>1107</ele>
        <time>2021-08-03T09:27:47.309Z</time>
      </trkpt>
      <trkpt lat="47.02279" lon="8.91094">
        <ele>1107</ele>
        <time>2021-08-03T09:27:48.309Z</time>
      </trkpt>
      <trkpt lat="47.0228" lon="8.91094">
        <ele>1107</ele>
        <time>2021-08-03T09:27:49.309Z</time>
      </trkpt>
      <trkpt lat="47.0228" lon="8.91094">
        <ele>1106</ele>
        <time>2021-08-03T09:27:50.309Z</time>
      </trkpt>
      <trkpt lat="47.02281" lon="8.91096">
        <ele>1105</ele>
        <time>2021-08-03T09:27:51.310Z</time>
      </trkpt>
      <trkpt lat="47.02282" lon="8.91098">
        <ele>1104</ele>
        <time>2021-08-03T09:27:52.309Z</time>
      </trkpt>
      <trkpt lat="47.02282" lon="8.911">
        <ele>1104</ele>
        <time>2021-08-03T09:27:53.310Z</time>
      </trkpt>
      <trkpt lat="47.02283" lon="8.91101">
        <ele>1103</ele>
        <time>2021-08-03T09:27:54.310Z</time>
      </trkpt>
      <trkpt lat="47.02283" lon="8.91103">
        <ele>1103</ele>
        <time>2021-08-03T09:27:55.309Z</time>
      </trkpt>
      <trkpt lat="47.02283" lon="8.91104">
        <ele>1102</ele>
        <time>2021-08-03T09:27:56.310Z</time>
      </trkpt>
      <trkpt lat="47.02283" lon="8.91103">
        <ele>1101</ele>
        <time>2021-08-03T09:27:57.310Z</time>
      </trkpt>
      <trkpt lat="47.02284" lon="8.91104">
        <ele>1101</ele>
        <time>2021-08-03T09:27:58.309Z</time>
      </trkpt>
      <trkpt lat="47.02284" lon="8.91104">
        <ele>1100</ele>
        <time>2021-08-03T09:27:59.310Z</time>
      </trkpt>
      <trkpt lat="47.02285" lon="8.91104">
        <ele>1099</ele>
        <time>2021-08-03T09:28:00.309Z</time>
      </trkpt>
      <trkpt lat="47.02285" lon="8.91104">
        <ele>1098</ele>
        <time>2021-08-03T09:28:01.311Z</time>
      </trkpt>
      <trkpt lat="47.02285" lon="8.91104">
        <ele>1098</ele>
        <time>2021-08-03T09:28:02.312Z</time>
      </trkpt>
      <trkpt lat="47.02285" lon="8.91104">
        <ele>1098</ele>
        <time>2021-08-03T09:28:03.312Z</time>
      </trkpt>
      <trkpt lat="47.02286" lon="8.91104">
        <ele>1098</ele>
        <time>2021-08-03T09:28:04.312Z</time>
      </trkpt>
      <trkpt lat="47.02286" lon="8.91104">
        <ele>1098</ele>
        <time>2021-08-03T09:28:05.312Z</time>
      </trkpt>
      <trkpt lat="47.02286" lon="8.91097">
        <ele>1101</ele>
        <time>2021-08-03T09:28:06.312Z</time>
      </trkpt>
      <trkpt lat="47.02286" lon="8.91097">
        <ele>1101</ele>
        <time>2021-08-03T09:28:07.312Z</time>
      </trkpt>
      <trkpt lat="47.02286" lon="8.91097">
        <ele>1102</ele>
        <time>2021-08-03T09:28:08.312Z</time>
      </trkpt>
      <trkpt lat="47.02286" lon="8.91096">
        <ele>1102</ele>
        <time>2021-08-03T09:28:09.312Z</time>
      </trkpt>
      <trkpt lat="47.02286" lon="8.91095">
        <ele>1106</ele>
        <time>2021-08-03T09:28:10.312Z</time>
      </trkpt>
      <trkpt lat="47.02286" lon="8.91097">
        <ele>1102</ele>
        <time>2021-08-03T09:28:11.313Z</time>
      </trkpt>
      <trkpt lat="47.02286" lon="8.91098">
        <ele>1101</ele>
        <time>2021-08-03T09:28:12.312Z</time>
      </trkpt>
      <trkpt lat="47.02285" lon="8.91099">
        <ele>1099</ele>
        <time>2021-08-03T09:28:13.312Z</time>
      </trkpt>
      <trkpt lat="47.02287" lon="8.91103">
        <ele>1101</ele>
        <time>2021-08-03T09:28:14.313Z</time>
      </trkpt>
      <trkpt lat="47.02287" lon="8.91106">
        <ele>1102</ele>
        <time>2021-08-03T09:28:15.313Z</time>
      </trkpt>
      <trkpt lat="47.02286" lon="8.91109">
        <ele>1103</ele>
        <time>2021-08-03T09:28:16.313Z</time>
      </trkpt>
      <trkpt lat="47.02289" lon="8.91102">
        <ele>1100</ele>
        <time>2021-08-03T09:28:17.315Z</time>
      </trkpt>
      <trkpt lat="47.02289" lon="8.91103">
        <ele>1100</ele>
        <time>2021-08-03T09:28:18.316Z</time>
      </trkpt>
      <trkpt lat="47.02284" lon="8.911">
        <ele>1097</ele>
        <time>2021-08-03T09:28:19.316Z</time>
      </trkpt>
      <trkpt lat="47.02284" lon="8.911">
        <ele>1097</ele>
        <time>2021-08-03T09:28:20.316Z</time>
      </trkpt>
      <trkpt lat="47.02285" lon="8.91099">
        <ele>1098</ele>
        <time>2021-08-03T09:28:21.315Z</time>
      </trkpt>
      <trkpt lat="47.02285" lon="8.91098">
        <ele>1098</ele>
        <time>2021-08-03T09:28:22.315Z</time>
      </trkpt>
      <trkpt lat="47.02284" lon="8.91098">
        <ele>1099</ele>
        <time>2021-08-03T09:28:23.315Z</time>
      </trkpt>
      <trkpt lat="47.02287" lon="8.91098">
        <ele>1098</ele>
        <time>2021-08-03T09:28:24.315Z</time>
      </trkpt>
      <trkpt lat="47.0229" lon="8.91096">
        <ele>1106</ele>
        <time>2021-08-03T09:28:25.316Z</time>
      </trkpt>
      <trkpt lat="47.02291" lon="8.91095">
        <ele>1107</ele>
        <time>2021-08-03T09:28:26.316Z</time>
      </trkpt>
      <trkpt lat="47.02292" lon="8.91095">
        <ele>1107</ele>
        <time>2021-08-03T09:28:27.315Z</time>
      </trkpt>
      <trkpt lat="47.02293" lon="8.91095">
        <ele>1108</ele>
        <time>2021-08-03T09:28:28.316Z</time>
      </trkpt>
      <trkpt lat="47.02294" lon="8.91094">
        <ele>1108</ele>
        <time>2021-08-03T09:28:29.315Z</time>
      </trkpt>
      <trkpt lat="47.02295" lon="8.91093">
        <ele>1108</ele>
        <time>2021-08-03T09:28:30.315Z</time>
      </trkpt>
      <trkpt lat="47.02295" lon="8.91092">
        <ele>1109</ele>
        <time>2021-08-03T09:28:31.315Z</time>
      </trkpt>
      <trkpt lat="47.02296" lon="8.91091">
        <ele>1109</ele>
        <time>2021-08-03T09:28:32.315Z</time>
      </trkpt>
      <trkpt lat="47.02296" lon="8.9109">
        <ele>1109</ele>
        <time>2021-08-03T09:28:33.316Z</time>
      </trkpt>
      <trkpt lat="47.02296" lon="8.91089">
        <ele>1110</ele>
        <time>2021-08-03T09:28:34.315Z</time>
      </trkpt>
      <trkpt lat="47.02297" lon="8.91088">
        <ele>1110</ele>
        <time>2021-08-03T09:28:35.316Z</time>
      </trkpt>
      <trkpt lat="47.02297" lon="8.91087">
        <ele>1110</ele>
        <time>2021-08-03T09:28:36.316Z</time>
      </trkpt>
      <trkpt lat="47.02297" lon="8.91085">
        <ele>1110</ele>
        <time>2021-08-03T09:28:37.316Z</time>
      </trkpt>
      <trkpt lat="47.02297" lon="8.91084">
        <ele>1110</ele>
        <time>2021-08-03T09:28:38.315Z</time>
      </trkpt>
      <trkpt lat="47.02297" lon="8.91083">
        <ele>1110</ele>
        <time>2021-08-03T09:28:39.315Z</time>
      </trkpt>
      <trkpt lat="47.02298" lon="8.91082">
        <ele>1111</ele>
        <time>2021-08-03T09:28:40.316Z</time>
      </trkpt>
      <trkpt lat="47.02299" lon="8.91081">
        <ele>1111</ele>
        <time>2021-08-03T09:28:41.316Z</time>
      </trkpt>
      <trkpt lat="47.023" lon="8.9108">
        <ele>1111</ele>
        <time>2021-08-03T09:28:42.315Z</time>
      </trkpt>
      <trkpt lat="47.02301" lon="8.91079">
        <ele>1112</ele>
        <time>2021-08-03T09:28:43.315Z</time>
      </trkpt>
      <trkpt lat="47.02302" lon="8.91079">
        <ele>1112</ele>
        <time>2021-08-03T09:28:44.316Z</time>
      </trkpt>
      <trkpt lat="47.02302" lon="8.91078">
        <ele>1112</ele>
        <time>2021-08-03T09:28:45.316Z</time>
      </trkpt>
      <trkpt lat="47.02302" lon="8.91078">
        <ele>1112</ele>
        <time>2021-08-03T09:28:46.316Z</time>
      </trkpt>
      <trkpt lat="47.02302" lon="8.91077">
        <ele>1112</ele>
        <time>2021-08-03T09:28:47.315Z</time>
      </trkpt>
      <trkpt lat="47.02302" lon="8.91077">
        <ele>1112</ele>
        <time>2021-08-03T09:28:48.316Z</time>
      </trkpt>
      <trkpt lat="47.02303" lon="8.91077">
        <ele>1112</ele>
        <time>2021-08-03T09:28:49.315Z</time>
      </trkpt>
      <trkpt lat="47.02303" lon="8.91077">
        <ele>1112</ele>
        <time>2021-08-03T09:28:50.316Z</time>
      </trkpt>
      <trkpt lat="47.02304" lon="8.91076">
        <ele>1112</ele>
        <time>2021-08-03T09:28:51.316Z</time>
      </trkpt>
      <trkpt lat="47.02304" lon="8.91076">
        <ele>1113</ele>
        <time>2021-08-03T09:28:52.316Z</time>
      </trkpt>
      <trkpt lat="47.02305" lon="8.91076">
        <ele>1113</ele>
        <time>2021-08-03T09:28:53.316Z</time>
      </trkpt>
      <trkpt lat="47.02307" lon="8.91075">
        <ele>1114</ele>
        <time>2021-08-03T09:28:54.315Z</time>
      </trkpt>
      <trkpt lat="47.02309" lon="8.91076">
        <ele>1114</ele>
        <time>2021-08-03T09:28:55.315Z</time>
      </trkpt>
      <trkpt lat="47.0231" lon="8.91076">
        <ele>1115</ele>
        <time>2021-08-03T09:28:56.316Z</time>
      </trkpt>
      <trkpt lat="47.0231" lon="8.91075">
        <ele>1116</ele>
        <time>2021-08-03T09:28:57.315Z</time>
      </trkpt>
      <trkpt lat="47.02311" lon="8.91074">
        <ele>1117</ele>
        <time>2021-08-03T09:28:58.315Z</time>
      </trkpt>
      <trkpt lat="47.02312" lon="8.91073">
        <ele>1118</ele>
        <time>2021-08-03T09:28:59.315Z</time>
      </trkpt>
      <trkpt lat="47.02313" lon="8.91071">
        <ele>1118</ele>
        <time>2021-08-03T09:29:00.316Z</time>
      </trkpt>
      <trkpt lat="47.02313" lon="8.9107">
        <ele>1119</ele>
        <time>2021-08-03T09:29:01.316Z</time>
      </trkpt>
      <trkpt lat="47.02313" lon="8.91069">
        <ele>1119</ele>
        <time>2021-08-03T09:29:02.316Z</time>
      </trkpt>
      <trkpt lat="47.02314" lon="8.91068">
        <ele>1119</ele>
        <time>2021-08-03T09:29:03.315Z</time>
      </trkpt>
      <trkpt lat="47.02315" lon="8.91066">
        <ele>1119</ele>
        <time>2021-08-03T09:29:04.315Z</time>
      </trkpt>
      <trkpt lat="47.02316" lon="8.91065">
        <ele>1119</ele>
        <time>2021-08-03T09:29:05.315Z</time>
      </trkpt>
      <trkpt lat="47.02316" lon="8.91064">
        <ele>1119</ele>
        <time>2021-08-03T09:29:06.316Z</time>
      </trkpt>
      <trkpt lat="47.02317" lon="8.91063">
        <ele>1119</ele>
        <time>2021-08-03T09:29:07.316Z</time>
      </trkpt>
      <trkpt lat="47.02318" lon="8.91062">
        <ele>1118</ele>
        <time>2021-08-03T09:29:08.316Z</time>
      </trkpt>
      <trkpt lat="47.02318" lon="8.91061">
        <ele>1118</ele>
        <time>2021-08-03T09:29:09.315Z</time>
      </trkpt>
      <trkpt lat="47.02318" lon="8.91061">
        <ele>1118</ele>
        <time>2021-08-03T09:29:10.316Z</time>
      </trkpt>
      <trkpt lat="47.02319" lon="8.9106">
        <ele>1119</ele>
        <time>2021-08-03T09:29:11.315Z</time>
      </trkpt>
      <trkpt lat="47.0232" lon="8.9106">
        <ele>1119</ele>
        <time>2021-08-03T09:29:12.315Z</time>
      </trkpt>
      <trkpt lat="47.02321" lon="8.91059">
        <ele>1119</ele>
        <time>2021-08-03T09:29:13.315Z</time>
      </trkpt>
      <trkpt lat="47.02323" lon="8.91059">
        <ele>1119</ele>
        <time>2021-08-03T09:29:14.316Z</time>
      </trkpt>
      <trkpt lat="47.02324" lon="8.91059">
        <ele>1119</ele>
        <time>2021-08-03T09:29:15.315Z</time>
      </trkpt>
      <trkpt lat="47.02325" lon="8.91058">
        <ele>1120</ele>
        <time>2021-08-03T09:29:16.315Z</time>
      </trkpt>
      <trkpt lat="47.02326" lon="8.91056">
        <ele>1120</ele>
        <time>2021-08-03T09:29:17.315Z</time>
      </trkpt>
      <trkpt lat="47.02326" lon="8.91055">
        <ele>1120</ele>
        <time>2021-08-03T09:29:18.316Z</time>
      </trkpt>
      <trkpt lat="47.02326" lon="8.91055">
        <ele>1120</ele>
        <time>2021-08-03T09:29:19.316Z</time>
      </trkpt>
      <trkpt lat="47.02327" lon="8.91053">
        <ele>1119</ele>
        <time>2021-08-03T09:29:20.316Z</time>
      </trkpt>
      <trkpt lat="47.02327" lon="8.91052">
        <ele>1119</ele>
        <time>2021-08-03T09:29:21.316Z</time>
      </trkpt>
      <trkpt lat="47.02327" lon="8.91051">
        <ele>1119</ele>
        <time>2021-08-03T09:29:22.316Z</time>
      </trkpt>
      <trkpt lat="47.02327" lon="8.91051">
        <ele>1118</ele>
        <time>2021-08-03T09:29:23.316Z</time>
      </trkpt>
      <trkpt lat="47.02328" lon="8.9105">
        <ele>1117</ele>
        <time>2021-08-03T09:29:24.315Z</time>
      </trkpt>
      <trkpt lat="47.02328" lon="8.91048">
        <ele>1117</ele>
        <time>2021-08-03T09:29:25.316Z</time>
      </trkpt>
      <trkpt lat="47.02328" lon="8.91047">
        <ele>1117</ele>
        <time>2021-08-03T09:29:26.316Z</time>
      </trkpt>
      <trkpt lat="47.02328" lon="8.91045">
        <ele>1116</ele>
        <time>2021-08-03T09:29:27.316Z</time>
      </trkpt>
      <trkpt lat="47.02327" lon="8.91044">
        <ele>1116</ele>
        <time>2021-08-03T09:29:28.315Z</time>
      </trkpt>
      <trkpt lat="47.02328" lon="8.91043">
        <ele>1115</ele>
        <time>2021-08-03T09:29:29.316Z</time>
      </trkpt>
      <trkpt lat="47.02328" lon="8.91043">
        <ele>1115</ele>
        <time>2021-08-03T09:29:30.315Z</time>
      </trkpt>
      <trkpt lat="47.02328" lon="8.91043">
        <ele>1114</ele>
        <time>2021-08-03T09:29:31.316Z</time>
      </trkpt>
      <trkpt lat="47.02328" lon="8.91042">
        <ele>1114</ele>
        <time>2021-08-03T09:29:32.316Z</time>
      </trkpt>
      <trkpt lat="47.02327" lon="8.91041">
        <ele>1113</ele>
        <time>2021-08-03T09:29:33.315Z</time>
      </trkpt>
      <trkpt lat="47.0233" lon="8.91042">
        <ele>1108</ele>
        <time>2021-08-03T09:29:34.315Z</time>
      </trkpt>
      <trkpt lat="47.02331" lon="8.91041">
        <ele>1107</ele>
        <time>2021-08-03T09:29:35.315Z</time>
      </trkpt>
      <trkpt lat="47.02332" lon="8.91043">
        <ele>1105</ele>
        <time>2021-08-03T09:29:36.315Z</time>
      </trkpt>
      <trkpt lat="47.02333" lon="8.91042">
        <ele>1105</ele>
        <time>2021-08-03T09:29:37.316Z</time>
      </trkpt>
      <trkpt lat="47.02334" lon="8.91042">
        <ele>1105</ele>
        <time>2021-08-03T09:29:38.315Z</time>
      </trkpt>
      <trkpt lat="47.02334" lon="8.9104">
        <ele>1105</ele>
        <time>2021-08-03T09:29:39.316Z</time>
      </trkpt>
      <trkpt lat="47.02335" lon="8.91039">
        <ele>1105</ele>
        <time>2021-08-03T09:29:40.316Z</time>
      </trkpt>
      <trkpt lat="47.02335" lon="8.91039">
        <ele>1105</ele>
        <time>2021-08-03T09:29:41.315Z</time>
      </trkpt>
      <trkpt lat="47.02335" lon="8.91038">
        <ele>1105</ele>
        <time>2021-08-03T09:29:42.316Z</time>
      </trkpt>
      <trkpt lat="47.02336" lon="8.91037">
        <ele>1105</ele>
        <time>2021-08-03T09:29:43.315Z</time>
      </trkpt>
      <trkpt lat="47.02337" lon="8.91037">
        <ele>1105</ele>
        <time>2021-08-03T09:29:44.315Z</time>
      </trkpt>
      <trkpt lat="47.02338" lon="8.91035">
        <ele>1105</ele>
        <time>2021-08-03T09:29:45.316Z</time>
      </trkpt>
      <trkpt lat="47.02338" lon="8.91034">
        <ele>1104</ele>
        <time>2021-08-03T09:29:46.315Z</time>
      </trkpt>
      <trkpt lat="47.02339" lon="8.91033">
        <ele>1104</ele>
        <time>2021-08-03T09:29:47.316Z</time>
      </trkpt>
      <trkpt lat="47.0234" lon="8.91032">
        <ele>1104</ele>
        <time>2021-08-03T09:29:48.316Z</time>
      </trkpt>
      <trkpt lat="47.0234" lon="8.91032">
        <ele>1104</ele>
        <time>2021-08-03T09:29:49.315Z</time>
      </trkpt>
      <trkpt lat="47.02341" lon="8.9103">
        <ele>1104</ele>
        <time>2021-08-03T09:29:50.316Z</time>
      </trkpt>
      <trkpt lat="47.02341" lon="8.91029">
        <ele>1104</ele>
        <time>2021-08-03T09:29:51.316Z</time>
      </trkpt>
      <trkpt lat="47.02342" lon="8.91028">
        <ele>1103</ele>
        <time>2021-08-03T09:29:52.316Z</time>
      </trkpt>
      <trkpt lat="47.02343" lon="8.91026">
        <ele>1103</ele>
        <time>2021-08-03T09:29:53.315Z</time>
      </trkpt>
      <trkpt lat="47.02343" lon="8.91025">
        <ele>1102</ele>
        <time>2021-08-03T09:29:54.316Z</time>
      </trkpt>
      <trkpt lat="47.02344" lon="8.91024">
        <ele>1102</ele>
        <time>2021-08-03T09:29:55.316Z</time>
      </trkpt>
      <trkpt lat="47.02344" lon="8.91023">
        <ele>1101</ele>
        <time>2021-08-03T09:29:56.316Z</time>
      </trkpt>
      <trkpt lat="47.02345" lon="8.91022">
        <ele>1100</ele>
        <time>2021-08-03T09:29:57.316Z</time>
      </trkpt>
      <trkpt lat="47.02345" lon="8.91021">
        <ele>1100</ele>
        <time>2021-08-03T09:29:58.316Z</time>
      </trkpt>
      <trkpt lat="47.02346" lon="8.9102">
        <ele>1099</ele>
        <time>2021-08-03T09:29:59.315Z</time>
      </trkpt>
      <trkpt lat="47.02347" lon="8.91019">
        <ele>1099</ele>
        <time>2021-08-03T09:30:00.316Z</time>
      </trkpt>
      <trkpt lat="47.02347" lon="8.91018">
        <ele>1099</ele>
        <time>2021-08-03T09:30:01.315Z</time>
      </trkpt>
      <trkpt lat="47.02348" lon="8.91017">
        <ele>1099</ele>
        <time>2021-08-03T09:30:02.316Z</time>
      </trkpt>
      <trkpt lat="47.02348" lon="8.91016">
        <ele>1100</ele>
        <time>2021-08-03T09:30:03.316Z</time>
      </trkpt>
      <trkpt lat="47.02349" lon="8.91016">
        <ele>1100</ele>
        <time>2021-08-03T09:30:04.316Z</time>
      </trkpt>
      <trkpt lat="47.02349" lon="8.91015">
        <ele>1100</ele>
        <time>2021-08-03T09:30:05.315Z</time>
      </trkpt>
      <trkpt lat="47.02349" lon="8.91014">
        <ele>1100</ele>
        <time>2021-08-03T09:30:06.316Z</time>
      </trkpt>
      <trkpt lat="47.02348" lon="8.91012">
        <ele>1100</ele>
        <time>2021-08-03T09:30:07.316Z</time>
      </trkpt>
      <trkpt lat="47.02348" lon="8.91011">
        <ele>1100</ele>
        <time>2021-08-03T09:30:08.316Z</time>
      </trkpt>
      <trkpt lat="47.02349" lon="8.91011">
        <ele>1100</ele>
        <time>2021-08-03T09:30:09.315Z</time>
      </trkpt>
      <trkpt lat="47.02349" lon="8.9101">
        <ele>1100</ele>
        <time>2021-08-03T09:30:10.315Z</time>
      </trkpt>
      <trkpt lat="47.02349" lon="8.91009">
        <ele>1100</ele>
        <time>2021-08-03T09:30:11.316Z</time>
      </trkpt>
      <trkpt lat="47.0235" lon="8.91009">
        <ele>1101</ele>
        <time>2021-08-03T09:30:12.315Z</time>
      </trkpt>
      <trkpt lat="47.0235" lon="8.91009">
        <ele>1101</ele>
        <time>2021-08-03T09:30:13.315Z</time>
      </trkpt>
      <trkpt lat="47.02351" lon="8.91008">
        <ele>1102</ele>
        <time>2021-08-03T09:30:14.316Z</time>
      </trkpt>
      <trkpt lat="47.02352" lon="8.91008">
        <ele>1103</ele>
        <time>2021-08-03T09:30:15.315Z</time>
      </trkpt>
      <trkpt lat="47.02352" lon="8.91007">
        <ele>1104</ele>
        <time>2021-08-03T09:30:16.315Z</time>
      </trkpt>
      <trkpt lat="47.02352" lon="8.91007">
        <ele>1105</ele>
        <time>2021-08-03T09:30:17.315Z</time>
      </trkpt>
      <trkpt lat="47.02353" lon="8.91005">
        <ele>1106</ele>
        <time>2021-08-03T09:30:18.316Z</time>
      </trkpt>
      <trkpt lat="47.02353" lon="8.91005">
        <ele>1107</ele>
        <time>2021-08-03T09:30:19.315Z</time>
      </trkpt>
      <trkpt lat="47.02353" lon="8.91004">
        <ele>1107</ele>
        <time>2021-08-03T09:30:20.316Z</time>
      </trkpt>
      <trkpt lat="47.02355" lon="8.91003">
        <ele>1107</ele>
        <time>2021-08-03T09:30:21.316Z</time>
      </trkpt>
      <trkpt lat="47.02355" lon="8.91001">
        <ele>1108</ele>
        <time>2021-08-03T09:30:22.316Z</time>
      </trkpt>
      <trkpt lat="47.02356" lon="8.91">
        <ele>1108</ele>
        <time>2021-08-03T09:30:23.316Z</time>
      </trkpt>
      <trkpt lat="47.02356" lon="8.90998">
        <ele>1108</ele>
        <time>2021-08-03T09:30:24.315Z</time>
      </trkpt>
      <trkpt lat="47.02357" lon="8.90997">
        <ele>1109</ele>
        <time>2021-08-03T09:30:25.316Z</time>
      </trkpt>
      <trkpt lat="47.02357" lon="8.90996">
        <ele>1109</ele>
        <time>2021-08-03T09:30:26.316Z</time>
      </trkpt>
      <trkpt lat="47.02358" lon="8.90995">
        <ele>1110</ele>
        <time>2021-08-03T09:30:27.316Z</time>
      </trkpt>
      <trkpt lat="47.02358" lon="8.90994">
        <ele>1110</ele>
        <time>2021-08-03T09:30:28.316Z</time>
      </trkpt>
      <trkpt lat="47.02358" lon="8.90992">
        <ele>1109</ele>
        <time>2021-08-03T09:30:29.315Z</time>
      </trkpt>
      <trkpt lat="47.02359" lon="8.90991">
        <ele>1109</ele>
        <time>2021-08-03T09:30:30.316Z</time>
      </trkpt>
      <trkpt lat="47.02359" lon="8.90989">
        <ele>1109</ele>
        <time>2021-08-03T09:30:31.315Z</time>
      </trkpt>
      <trkpt lat="47.02359" lon="8.90988">
        <ele>1109</ele>
        <time>2021-08-03T09:30:32.316Z</time>
      </trkpt>
      <trkpt lat="47.0236" lon="8.90987">
        <ele>1109</ele>
        <time>2021-08-03T09:30:33.315Z</time>
      </trkpt>
      <trkpt lat="47.02359" lon="8.90985">
        <ele>1108</ele>
        <time>2021-08-03T09:30:34.315Z</time>
      </trkpt>
      <trkpt lat="47.02359" lon="8.90984">
        <ele>1108</ele>
        <time>2021-08-03T09:30:35.315Z</time>
      </trkpt>
      <trkpt lat="47.02359" lon="8.90983">
        <ele>1108</ele>
        <time>2021-08-03T09:30:36.315Z</time>
      </trkpt>
      <trkpt lat="47.02359" lon="8.90982">
        <ele>1109</ele>
        <time>2021-08-03T09:30:37.316Z</time>
      </trkpt>
      <trkpt lat="47.0236" lon="8.90982">
        <ele>1109</ele>
        <time>2021-08-03T09:30:38.315Z</time>
      </trkpt>
      <trkpt lat="47.02359" lon="8.90981">
        <ele>1109</ele>
        <time>2021-08-03T09:30:39.315Z</time>
      </trkpt>
      <trkpt lat="47.02359" lon="8.90981">
        <ele>1109</ele>
        <time>2021-08-03T09:30:40.316Z</time>
      </trkpt>
      <trkpt lat="47.02359" lon="8.9098">
        <ele>1110</ele>
        <time>2021-08-03T09:30:41.316Z</time>
      </trkpt>
      <trkpt lat="47.0236" lon="8.90979">
        <ele>1110</ele>
        <time>2021-08-03T09:30:42.316Z</time>
      </trkpt>
      <trkpt lat="47.0236" lon="8.90978">
        <ele>1110</ele>
        <time>2021-08-03T09:30:43.316Z</time>
      </trkpt>
      <trkpt lat="47.0236" lon="8.90977">
        <ele>1111</ele>
        <time>2021-08-03T09:30:44.316Z</time>
      </trkpt>
      <trkpt lat="47.0236" lon="8.90976">
        <ele>1111</ele>
        <time>2021-08-03T09:30:45.315Z</time>
      </trkpt>
      <trkpt lat="47.02361" lon="8.90975">
        <ele>1111</ele>
        <time>2021-08-03T09:30:46.315Z</time>
      </trkpt>
      <trkpt lat="47.02361" lon="8.90973">
        <ele>1112</ele>
        <time>2021-08-03T09:30:47.315Z</time>
      </trkpt>
      <trkpt lat="47.02362" lon="8.90972">
        <ele>1111</ele>
        <time>2021-08-03T09:30:48.316Z</time>
      </trkpt>
      <trkpt lat="47.02362" lon="8.9097">
        <ele>1111</ele>
        <time>2021-08-03T09:30:49.316Z</time>
      </trkpt>
      <trkpt lat="47.02362" lon="8.90969">
        <ele>1111</ele>
        <time>2021-08-03T09:30:50.316Z</time>
      </trkpt>
      <trkpt lat="47.02363" lon="8.90967">
        <ele>1110</ele>
        <time>2021-08-03T09:30:51.316Z</time>
      </trkpt>
      <trkpt lat="47.02363" lon="8.90965">
        <ele>1110</ele>
        <time>2021-08-03T09:30:52.316Z</time>
      </trkpt>
      <trkpt lat="47.02363" lon="8.90963">
        <ele>1109</ele>
        <time>2021-08-03T09:30:53.316Z</time>
      </trkpt>
      <trkpt lat="47.02362" lon="8.90961">
        <ele>1109</ele>
        <time>2021-08-03T09:30:54.316Z</time>
      </trkpt>
      <trkpt lat="47.02362" lon="8.9096">
        <ele>1109</ele>
        <time>2021-08-03T09:30:55.315Z</time>
      </trkpt>
      <trkpt lat="47.02362" lon="8.90958">
        <ele>1108</ele>
        <time>2021-08-03T09:30:56.316Z</time>
      </trkpt>
      <trkpt lat="47.02362" lon="8.90956">
        <ele>1107</ele>
        <time>2021-08-03T09:30:57.315Z</time>
      </trkpt>
      <trkpt lat="47.02362" lon="8.90955">
        <ele>1106</ele>
        <time>2021-08-03T09:30:58.316Z</time>
      </trkpt>
      <trkpt lat="47.02362" lon="8.90953">
        <ele>1106</ele>
        <time>2021-08-03T09:30:59.316Z</time>
      </trkpt>
      <trkpt lat="47.02362" lon="8.90952">
        <ele>1106</ele>
        <time>2021-08-03T09:31:00.316Z</time>
      </trkpt>
      <trkpt lat="47.02362" lon="8.9095">
        <ele>1106</ele>
        <time>2021-08-03T09:31:01.316Z</time>
      </trkpt>
      <trkpt lat="47.02362" lon="8.90949">
        <ele>1106</ele>
        <time>2021-08-03T09:31:02.316Z</time>
      </trkpt>
      <trkpt lat="47.02362" lon="8.90947">
        <ele>1106</ele>
        <time>2021-08-03T09:31:03.315Z</time>
      </trkpt>
      <trkpt lat="47.02362" lon="8.90946">
        <ele>1106</ele>
        <time>2021-08-03T09:31:04.316Z</time>
      </trkpt>
      <trkpt lat="47.02362" lon="8.90945">
        <ele>1106</ele>
        <time>2021-08-03T09:31:05.316Z</time>
      </trkpt>
      <trkpt lat="47.02362" lon="8.90943">
        <ele>1106</ele>
        <time>2021-08-03T09:31:06.316Z</time>
      </trkpt>
      <trkpt lat="47.02362" lon="8.90941">
        <ele>1107</ele>
        <time>2021-08-03T09:31:07.315Z</time>
      </trkpt>
      <trkpt lat="47.02362" lon="8.9094">
        <ele>1107</ele>
        <time>2021-08-03T09:31:08.315Z</time>
      </trkpt>
      <trkpt lat="47.02362" lon="8.90939">
        <ele>1107</ele>
        <time>2021-08-03T09:31:09.316Z</time>
      </trkpt>
      <trkpt lat="47.02362" lon="8.90937">
        <ele>1107</ele>
        <time>2021-08-03T09:31:10.315Z</time>
      </trkpt>
      <trkpt lat="47.02363" lon="8.90934">
        <ele>1107</ele>
        <time>2021-08-03T09:31:11.316Z</time>
      </trkpt>
      <trkpt lat="47.02363" lon="8.90933">
        <ele>1107</ele>
        <time>2021-08-03T09:31:12.316Z</time>
      </trkpt>
      <trkpt lat="47.02363" lon="8.90931">
        <ele>1108</ele>
        <time>2021-08-03T09:31:13.315Z</time>
      </trkpt>
      <trkpt lat="47.02363" lon="8.9093">
        <ele>1108</ele>
        <time>2021-08-03T09:31:14.315Z</time>
      </trkpt>
      <trkpt lat="47.02363" lon="8.90929">
        <ele>1108</ele>
        <time>2021-08-03T09:31:15.316Z</time>
      </trkpt>
      <trkpt lat="47.02363" lon="8.90927">
        <ele>1107</ele>
        <time>2021-08-03T09:31:16.315Z</time>
      </trkpt>
      <trkpt lat="47.02363" lon="8.90925">
        <ele>1107</ele>
        <time>2021-08-03T09:31:17.316Z</time>
      </trkpt>
      <trkpt lat="47.02363" lon="8.90923">
        <ele>1106</ele>
        <time>2021-08-03T09:31:18.316Z</time>
      </trkpt>
      <trkpt lat="47.02363" lon="8.90921">
        <ele>1106</ele>
        <time>2021-08-03T09:31:19.316Z</time>
      </trkpt>
      <trkpt lat="47.02363" lon="8.9092">
        <ele>1106</ele>
        <time>2021-08-03T09:31:20.316Z</time>
      </trkpt>
      <trkpt lat="47.02363" lon="8.90919">
        <ele>1106</ele>
        <time>2021-08-03T09:31:21.316Z</time>
      </trkpt>
      <trkpt lat="47.02363" lon="8.90917">
        <ele>1105</ele>
        <time>2021-08-03T09:31:22.316Z</time>
      </trkpt>
      <trkpt lat="47.02363" lon="8.90916">
        <ele>1106</ele>
        <time>2021-08-03T09:31:23.316Z</time>
      </trkpt>
      <trkpt lat="47.02363" lon="8.90914">
        <ele>1106</ele>
        <time>2021-08-03T09:31:24.316Z</time>
      </trkpt>
      <trkpt lat="47.02363" lon="8.90913">
        <ele>1106</ele>
        <time>2021-08-03T09:31:25.316Z</time>
      </trkpt>
      <trkpt lat="47.02363" lon="8.90911">
        <ele>1106</ele>
        <time>2021-08-03T09:31:26.316Z</time>
      </trkpt>
      <trkpt lat="47.02363" lon="8.90909">
        <ele>1106</ele>
        <time>2021-08-03T09:31:27.315Z</time>
      </trkpt>
      <trkpt lat="47.02363" lon="8.90907">
        <ele>1106</ele>
        <time>2021-08-03T09:31:28.315Z</time>
      </trkpt>
      <trkpt lat="47.02364" lon="8.90905">
        <ele>1106</ele>
        <time>2021-08-03T09:31:29.316Z</time>
      </trkpt>
      <trkpt lat="47.02364" lon="8.90903">
        <ele>1106</ele>
        <time>2021-08-03T09:31:30.316Z</time>
      </trkpt>
      <trkpt lat="47.02362" lon="8.90902">
        <ele>1106</ele>
        <time>2021-08-03T09:31:31.316Z</time>
      </trkpt>
      <trkpt lat="47.02362" lon="8.909">
        <ele>1106</ele>
        <time>2021-08-03T09:31:32.316Z</time>
      </trkpt>
      <trkpt lat="47.02362" lon="8.90898">
        <ele>1106</ele>
        <time>2021-08-03T09:31:33.316Z</time>
      </trkpt>
      <trkpt lat="47.02362" lon="8.90897">
        <ele>1106</ele>
        <time>2021-08-03T09:31:34.316Z</time>
      </trkpt>
      <trkpt lat="47.02361" lon="8.90895">
        <ele>1107</ele>
        <time>2021-08-03T09:31:35.315Z</time>
      </trkpt>
      <trkpt lat="47.02361" lon="8.90894">
        <ele>1107</ele>
        <time>2021-08-03T09:31:36.315Z</time>
      </trkpt>
      <trkpt lat="47.02361" lon="8.90892">
        <ele>1107</ele>
        <time>2021-08-03T09:31:37.316Z</time>
      </trkpt>
      <trkpt lat="47.02361" lon="8.9089">
        <ele>1107</ele>
        <time>2021-08-03T09:31:38.316Z</time>
      </trkpt>
      <trkpt lat="47.02361" lon="8.90888">
        <ele>1108</ele>
        <time>2021-08-03T09:31:39.316Z</time>
      </trkpt>
      <trkpt lat="47.02361" lon="8.90886">
        <ele>1108</ele>
        <time>2021-08-03T09:31:40.316Z</time>
      </trkpt>
      <trkpt lat="47.02361" lon="8.90884">
        <ele>1109</ele>
        <time>2021-08-03T09:31:41.315Z</time>
      </trkpt>
      <trkpt lat="47.02361" lon="8.90883">
        <ele>1109</ele>
        <time>2021-08-03T09:31:42.316Z</time>
      </trkpt>
      <trkpt lat="47.02361" lon="8.90881">
        <ele>1109</ele>
        <time>2021-08-03T09:31:43.316Z</time>
      </trkpt>
      <trkpt lat="47.02361" lon="8.9088">
        <ele>1109</ele>
        <time>2021-08-03T09:31:44.315Z</time>
      </trkpt>
      <trkpt lat="47.02361" lon="8.90879">
        <ele>1109</ele>
        <time>2021-08-03T09:31:45.316Z</time>
      </trkpt>
      <trkpt lat="47.02361" lon="8.90877">
        <ele>1109</ele>
        <time>2021-08-03T09:31:46.315Z</time>
      </trkpt>
      <trkpt lat="47.02361" lon="8.90876">
        <ele>1109</ele>
        <time>2021-08-03T09:31:47.315Z</time>
      </trkpt>
      <trkpt lat="47.0236" lon="8.90874">
        <ele>1109</ele>
        <time>2021-08-03T09:31:48.315Z</time>
      </trkpt>
      <trkpt lat="47.0236" lon="8.90873">
        <ele>1109</ele>
        <time>2021-08-03T09:31:49.316Z</time>
      </trkpt>
      <trkpt lat="47.0236" lon="8.90871">
        <ele>1109</ele>
        <time>2021-08-03T09:31:50.315Z</time>
      </trkpt>
      <trkpt lat="47.02359" lon="8.90869">
        <ele>1110</ele>
        <time>2021-08-03T09:31:51.316Z</time>
      </trkpt>
      <trkpt lat="47.02359" lon="8.90867">
        <ele>1111</ele>
        <time>2021-08-03T09:31:52.316Z</time>
      </trkpt>
      <trkpt lat="47.02359" lon="8.90866">
        <ele>1111</ele>
        <time>2021-08-03T09:31:53.316Z</time>
      </trkpt>
      <trkpt lat="47.02359" lon="8.90864">
        <ele>1112</ele>
        <time>2021-08-03T09:31:54.316Z</time>
      </trkpt>
      <trkpt lat="47.02358" lon="8.90863">
        <ele>1112</ele>
        <time>2021-08-03T09:31:55.315Z</time>
      </trkpt>
      <trkpt lat="47.02359" lon="8.90862">
        <ele>1112</ele>
        <time>2021-08-03T09:31:56.316Z</time>
      </trkpt>
      <trkpt lat="47.02359" lon="8.9086">
        <ele>1112</ele>
        <time>2021-08-03T09:31:57.316Z</time>
      </trkpt>
      <trkpt lat="47.0236" lon="8.90859">
        <ele>1112</ele>
        <time>2021-08-03T09:31:58.315Z</time>
      </trkpt>
      <trkpt lat="47.0236" lon="8.90857">
        <ele>1111</ele>
        <time>2021-08-03T09:31:59.316Z</time>
      </trkpt>
      <trkpt lat="47.0236" lon="8.90856">
        <ele>1111</ele>
        <time>2021-08-03T09:32:00.315Z</time>
      </trkpt>
      <trkpt lat="47.0236" lon="8.90855">
        <ele>1111</ele>
        <time>2021-08-03T09:32:01.316Z</time>
      </trkpt>
      <trkpt lat="47.0236" lon="8.90854">
        <ele>1111</ele>
        <time>2021-08-03T09:32:02.316Z</time>
      </trkpt>
      <trkpt lat="47.0236" lon="8.90854">
        <ele>1111</ele>
        <time>2021-08-03T09:32:03.316Z</time>
      </trkpt>
      <trkpt lat="47.02359" lon="8.90853">
        <ele>1111</ele>
        <time>2021-08-03T09:32:04.316Z</time>
      </trkpt>
      <trkpt lat="47.02359" lon="8.90853">
        <ele>1111</ele>
        <time>2021-08-03T09:32:05.315Z</time>
      </trkpt>
      <trkpt lat="47.02358" lon="8.90853">
        <ele>1110</ele>
        <time>2021-08-03T09:32:06.315Z</time>
      </trkpt>
      <trkpt lat="47.02359" lon="8.90852">
        <ele>1110</ele>
        <time>2021-08-03T09:32:07.315Z</time>
      </trkpt>
      <trkpt lat="47.02359" lon="8.90851">
        <ele>1110</ele>
        <time>2021-08-03T09:32:08.316Z</time>
      </trkpt>
      <trkpt lat="47.02359" lon="8.90849">
        <ele>1110</ele>
        <time>2021-08-03T09:32:09.316Z</time>
      </trkpt>
      <trkpt lat="47.02359" lon="8.90848">
        <ele>1111</ele>
        <time>2021-08-03T09:32:10.315Z</time>
      </trkpt>
      <trkpt lat="47.02359" lon="8.90847">
        <ele>1111</ele>
        <time>2021-08-03T09:32:11.316Z</time>
      </trkpt>
      <trkpt lat="47.02359" lon="8.90845">
        <ele>1111</ele>
        <time>2021-08-03T09:32:12.316Z</time>
      </trkpt>
      <trkpt lat="47.02359" lon="8.90844">
        <ele>1112</ele>
        <time>2021-08-03T09:32:13.315Z</time>
      </trkpt>
      <trkpt lat="47.02359" lon="8.90843">
        <ele>1113</ele>
        <time>2021-08-03T09:32:14.316Z</time>
      </trkpt>
      <trkpt lat="47.02358" lon="8.90842">
        <ele>1113</ele>
        <time>2021-08-03T09:32:15.316Z</time>
      </trkpt>
      <trkpt lat="47.02358" lon="8.90841">
        <ele>1114</ele>
        <time>2021-08-03T09:32:16.316Z</time>
      </trkpt>
      <trkpt lat="47.02358" lon="8.9084">
        <ele>1114</ele>
        <time>2021-08-03T09:32:17.315Z</time>
      </trkpt>
      <trkpt lat="47.02358" lon="8.90838">
        <ele>1114</ele>
        <time>2021-08-03T09:32:18.315Z</time>
      </trkpt>
      <trkpt lat="47.02358" lon="8.90836">
        <ele>1115</ele>
        <time>2021-08-03T09:32:19.315Z</time>
      </trkpt>
      <trkpt lat="47.02358" lon="8.90835">
        <ele>1115</ele>
        <time>2021-08-03T09:32:20.316Z</time>
      </trkpt>
      <trkpt lat="47.02358" lon="8.90833">
        <ele>1114</ele>
        <time>2021-08-03T09:32:21.315Z</time>
      </trkpt>
      <trkpt lat="47.02358" lon="8.90832">
        <ele>1114</ele>
        <time>2021-08-03T09:32:22.316Z</time>
      </trkpt>
      <trkpt lat="47.02357" lon="8.90831">
        <ele>1114</ele>
        <time>2021-08-03T09:32:23.316Z</time>
      </trkpt>
      <trkpt lat="47.02357" lon="8.9083">
        <ele>1114</ele>
        <time>2021-08-03T09:32:24.315Z</time>
      </trkpt>
      <trkpt lat="47.02357" lon="8.90829">
        <ele>1114</ele>
        <time>2021-08-03T09:32:25.315Z</time>
      </trkpt>
      <trkpt lat="47.02356" lon="8.90827">
        <ele>1114</ele>
        <time>2021-08-03T09:32:26.315Z</time>
      </trkpt>
      <trkpt lat="47.02356" lon="8.90826">
        <ele>1114</ele>
        <time>2021-08-03T09:32:27.315Z</time>
      </trkpt>
      <trkpt lat="47.02356" lon="8.90826">
        <ele>1113</ele>
        <time>2021-08-03T09:32:28.316Z</time>
      </trkpt>
      <trkpt lat="47.02356" lon="8.90824">
        <ele>1113</ele>
        <time>2021-08-03T09:32:29.316Z</time>
      </trkpt>
      <trkpt lat="47.02355" lon="8.90823">
        <ele>1112</ele>
        <time>2021-08-03T09:32:30.315Z</time>
      </trkpt>
      <trkpt lat="47.02355" lon="8.90822">
        <ele>1111</ele>
        <time>2021-08-03T09:32:31.315Z</time>
      </trkpt>
      <trkpt lat="47.02354" lon="8.9082">
        <ele>1111</ele>
        <time>2021-08-03T09:32:32.315Z</time>
      </trkpt>
      <trkpt lat="47.02354" lon="8.90819">
        <ele>1111</ele>
        <time>2021-08-03T09:32:33.315Z</time>
      </trkpt>
      <trkpt lat="47.02353" lon="8.90817">
        <ele>1111</ele>
        <time>2021-08-03T09:32:34.315Z</time>
      </trkpt>
      <trkpt lat="47.02352" lon="8.90814">
        <ele>1112</ele>
        <time>2021-08-03T09:32:35.316Z</time>
      </trkpt>
      <trkpt lat="47.02351" lon="8.90812">
        <ele>1112</ele>
        <time>2021-08-03T09:32:36.315Z</time>
      </trkpt>
      <trkpt lat="47.02351" lon="8.90811">
        <ele>1113</ele>
        <time>2021-08-03T09:32:37.315Z</time>
      </trkpt>
      <trkpt lat="47.0235" lon="8.9081">
        <ele>1114</ele>
        <time>2021-08-03T09:32:38.315Z</time>
      </trkpt>
      <trkpt lat="47.0235" lon="8.90809">
        <ele>1115</ele>
        <time>2021-08-03T09:32:39.316Z</time>
      </trkpt>
      <trkpt lat="47.0235" lon="8.90807">
        <ele>1116</ele>
        <time>2021-08-03T09:32:40.316Z</time>
      </trkpt>
      <trkpt lat="47.02349" lon="8.90806">
        <ele>1116</ele>
        <time>2021-08-03T09:32:41.316Z</time>
      </trkpt>
      <trkpt lat="47.02349" lon="8.90804">
        <ele>1116</ele>
        <time>2021-08-03T09:32:42.315Z</time>
      </trkpt>
      <trkpt lat="47.02348" lon="8.90803">
        <ele>1116</ele>
        <time>2021-08-03T09:32:43.315Z</time>
      </trkpt>
      <trkpt lat="47.02348" lon="8.90801">
        <ele>1116</ele>
        <time>2021-08-03T09:32:44.316Z</time>
      </trkpt>
      <trkpt lat="47.02348" lon="8.908">
        <ele>1115</ele>
        <time>2021-08-03T09:32:45.315Z</time>
      </trkpt>
      <trkpt lat="47.02347" lon="8.90799">
        <ele>1114</ele>
        <time>2021-08-03T09:32:46.315Z</time>
      </trkpt>
      <trkpt lat="47.02347" lon="8.90797">
        <ele>1114</ele>
        <time>2021-08-03T09:32:47.315Z</time>
      </trkpt>
      <trkpt lat="47.02347" lon="8.90796">
        <ele>1114</ele>
        <time>2021-08-03T09:32:48.315Z</time>
      </trkpt>
      <trkpt lat="47.02346" lon="8.90795">
        <ele>1114</ele>
        <time>2021-08-03T09:32:49.316Z</time>
      </trkpt>
      <trkpt lat="47.02345" lon="8.90794">
        <ele>1114</ele>
        <time>2021-08-03T09:32:50.316Z</time>
      </trkpt>
      <trkpt lat="47.02345" lon="8.90792">
        <ele>1114</ele>
        <time>2021-08-03T09:32:51.315Z</time>
      </trkpt>
      <trkpt lat="47.02345" lon="8.9079">
        <ele>1114</ele>
        <time>2021-08-03T09:32:52.315Z</time>
      </trkpt>
      <trkpt lat="47.02344" lon="8.90788">
        <ele>1115</ele>
        <time>2021-08-03T09:32:53.315Z</time>
      </trkpt>
      <trkpt lat="47.02344" lon="8.90786">
        <ele>1115</ele>
        <time>2021-08-03T09:32:54.316Z</time>
      </trkpt>
      <trkpt lat="47.02343" lon="8.90785">
        <ele>1115</ele>
        <time>2021-08-03T09:32:55.315Z</time>
      </trkpt>
      <trkpt lat="47.02343" lon="8.90783">
        <ele>1116</ele>
        <time>2021-08-03T09:32:56.316Z</time>
      </trkpt>
      <trkpt lat="47.02342" lon="8.90782">
        <ele>1116</ele>
        <time>2021-08-03T09:32:57.316Z</time>
      </trkpt>
      <trkpt lat="47.02342" lon="8.9078">
        <ele>1116</ele>
        <time>2021-08-03T09:32:58.316Z</time>
      </trkpt>
      <trkpt lat="47.02341" lon="8.90779">
        <ele>1116</ele>
        <time>2021-08-03T09:32:59.315Z</time>
      </trkpt>
      <trkpt lat="47.0234" lon="8.90778">
        <ele>1117</ele>
        <time>2021-08-03T09:33:00.316Z</time>
      </trkpt>
      <trkpt lat="47.0234" lon="8.90776">
        <ele>1117</ele>
        <time>2021-08-03T09:33:01.316Z</time>
      </trkpt>
      <trkpt lat="47.02339" lon="8.90775">
        <ele>1118</ele>
        <time>2021-08-03T09:33:02.316Z</time>
      </trkpt>
      <trkpt lat="47.02338" lon="8.90774">
        <ele>1118</ele>
        <time>2021-08-03T09:33:03.315Z</time>
      </trkpt>
      <trkpt lat="47.02337" lon="8.90773">
        <ele>1119</ele>
        <time>2021-08-03T09:33:04.316Z</time>
      </trkpt>
      <trkpt lat="47.02337" lon="8.90772">
        <ele>1119</ele>
        <time>2021-08-03T09:33:05.316Z</time>
      </trkpt>
      <trkpt lat="47.02336" lon="8.9077">
        <ele>1120</ele>
        <time>2021-08-03T09:33:06.316Z</time>
      </trkpt>
      <trkpt lat="47.02335" lon="8.90769">
        <ele>1120</ele>
        <time>2021-08-03T09:33:07.316Z</time>
      </trkpt>
      <trkpt lat="47.02333" lon="8.90767">
        <ele>1121</ele>
        <time>2021-08-03T09:33:08.316Z</time>
      </trkpt>
      <trkpt lat="47.02332" lon="8.90766">
        <ele>1121</ele>
        <time>2021-08-03T09:33:09.315Z</time>
      </trkpt>
      <trkpt lat="47.02332" lon="8.90766">
        <ele>1121</ele>
        <time>2021-08-03T09:33:10.316Z</time>
      </trkpt>
      <trkpt lat="47.02331" lon="8.90765">
        <ele>1122</ele>
        <time>2021-08-03T09:33:11.316Z</time>
      </trkpt>
      <trkpt lat="47.0233" lon="8.90764">
        <ele>1122</ele>
        <time>2021-08-03T09:33:12.315Z</time>
      </trkpt>
      <trkpt lat="47.02329" lon="8.90763">
        <ele>1123</ele>
        <time>2021-08-03T09:33:13.316Z</time>
      </trkpt>
      <trkpt lat="47.02329" lon="8.90762">
        <ele>1122</ele>
        <time>2021-08-03T09:33:14.316Z</time>
      </trkpt>
      <trkpt lat="47.02329" lon="8.90761">
        <ele>1122</ele>
        <time>2021-08-03T09:33:15.316Z</time>
      </trkpt>
      <trkpt lat="47.02328" lon="8.9076">
        <ele>1122</ele>
        <time>2021-08-03T09:33:16.315Z</time>
      </trkpt>
      <trkpt lat="47.02327" lon="8.90759">
        <ele>1123</ele>
        <time>2021-08-03T09:33:17.315Z</time>
      </trkpt>
      <trkpt lat="47.02326" lon="8.90758">
        <ele>1123</ele>
        <time>2021-08-03T09:33:18.315Z</time>
      </trkpt>
      <trkpt lat="47.02324" lon="8.90756">
        <ele>1122</ele>
        <time>2021-08-03T09:33:19.316Z</time>
      </trkpt>
      <trkpt lat="47.02324" lon="8.90755">
        <ele>1121</ele>
        <time>2021-08-03T09:33:20.316Z</time>
      </trkpt>
      <trkpt lat="47.02323" lon="8.90754">
        <ele>1120</ele>
        <time>2021-08-03T09:33:21.315Z</time>
      </trkpt>
      <trkpt lat="47.02323" lon="8.90754">
        <ele>1119</ele>
        <time>2021-08-03T09:33:22.315Z</time>
      </trkpt>
      <trkpt lat="47.02322" lon="8.90753">
        <ele>1119</ele>
        <time>2021-08-03T09:33:23.316Z</time>
      </trkpt>
      <trkpt lat="47.02322" lon="8.90751">
        <ele>1119</ele>
        <time>2021-08-03T09:33:24.316Z</time>
      </trkpt>
      <trkpt lat="47.02322" lon="8.9075">
        <ele>1119</ele>
        <time>2021-08-03T09:33:25.315Z</time>
      </trkpt>
      <trkpt lat="47.02321" lon="8.90748">
        <ele>1119</ele>
        <time>2021-08-03T09:33:26.316Z</time>
      </trkpt>
      <trkpt lat="47.0232" lon="8.90747">
        <ele>1119</ele>
        <time>2021-08-03T09:33:27.315Z</time>
      </trkpt>
      <trkpt lat="47.02319" lon="8.90746">
        <ele>1119</ele>
        <time>2021-08-03T09:33:28.315Z</time>
      </trkpt>
      <trkpt lat="47.02317" lon="8.90744">
        <ele>1119</ele>
        <time>2021-08-03T09:33:29.316Z</time>
      </trkpt>
      <trkpt lat="47.02316" lon="8.90741">
        <ele>1120</ele>
        <time>2021-08-03T09:33:30.316Z</time>
      </trkpt>
      <trkpt lat="47.02316" lon="8.90739">
        <ele>1120</ele>
        <time>2021-08-03T09:33:31.316Z</time>
      </trkpt>
      <trkpt lat="47.02315" lon="8.90737">
        <ele>1120</ele>
        <time>2021-08-03T09:33:32.316Z</time>
      </trkpt>
      <trkpt lat="47.02314" lon="8.90735">
        <ele>1120</ele>
        <time>2021-08-03T09:33:33.316Z</time>
      </trkpt>
      <trkpt lat="47.02313" lon="8.90734">
        <ele>1121</ele>
        <time>2021-08-03T09:33:34.316Z</time>
      </trkpt>
      <trkpt lat="47.02313" lon="8.90733">
        <ele>1121</ele>
        <time>2021-08-03T09:33:35.316Z</time>
      </trkpt>
      <trkpt lat="47.02312" lon="8.90731">
        <ele>1122</ele>
        <time>2021-08-03T09:33:36.316Z</time>
      </trkpt>
      <trkpt lat="47.02311" lon="8.9073">
        <ele>1122</ele>
        <time>2021-08-03T09:33:37.316Z</time>
      </trkpt>
      <trkpt lat="47.0231" lon="8.90729">
        <ele>1122</ele>
        <time>2021-08-03T09:33:38.316Z</time>
      </trkpt>
      <trkpt lat="47.02309" lon="8.90728">
        <ele>1122</ele>
        <time>2021-08-03T09:33:39.315Z</time>
      </trkpt>
      <trkpt lat="47.02309" lon="8.90727">
        <ele>1121</ele>
        <time>2021-08-03T09:33:40.316Z</time>
      </trkpt>
      <trkpt lat="47.02308" lon="8.90726">
        <ele>1121</ele>
        <time>2021-08-03T09:33:41.316Z</time>
      </trkpt>
      <trkpt lat="47.02308" lon="8.90725">
        <ele>1120</ele>
        <time>2021-08-03T09:33:42.316Z</time>
      </trkpt>
      <trkpt lat="47.02307" lon="8.90724">
        <ele>1120</ele>
        <time>2021-08-03T09:33:43.315Z</time>
      </trkpt>
      <trkpt lat="47.02306" lon="8.90723">
        <ele>1120</ele>
        <time>2021-08-03T09:33:44.315Z</time>
      </trkpt>
      <trkpt lat="47.02306" lon="8.90721">
        <ele>1121</ele>
        <time>2021-08-03T09:33:45.315Z</time>
      </trkpt>
      <trkpt lat="47.02305" lon="8.9072">
        <ele>1121</ele>
        <time>2021-08-03T09:33:46.315Z</time>
      </trkpt>
      <trkpt lat="47.02304" lon="8.90719">
        <ele>1122</ele>
        <time>2021-08-03T09:33:47.316Z</time>
      </trkpt>
      <trkpt lat="47.02303" lon="8.90718">
        <ele>1122</ele>
        <time>2021-08-03T09:33:48.316Z</time>
      </trkpt>
      <trkpt lat="47.02302" lon="8.90717">
        <ele>1122</ele>
        <time>2021-08-03T09:33:49.316Z</time>
      </trkpt>
      <trkpt lat="47.02301" lon="8.90717">
        <ele>1122</ele>
        <time>2021-08-03T09:33:50.316Z</time>
      </trkpt>
      <trkpt lat="47.02301" lon="8.90716">
        <ele>1122</ele>
        <time>2021-08-03T09:33:51.316Z</time>
      </trkpt>
      <trkpt lat="47.023" lon="8.90715">
        <ele>1123</ele>
        <time>2021-08-03T09:33:52.315Z</time>
      </trkpt>
      <trkpt lat="47.02299" lon="8.90715">
        <ele>1123</ele>
        <time>2021-08-03T09:33:53.316Z</time>
      </trkpt>
      <trkpt lat="47.02299" lon="8.90714">
        <ele>1124</ele>
        <time>2021-08-03T09:33:54.316Z</time>
      </trkpt>
      <trkpt lat="47.02299" lon="8.90713">
        <ele>1125</ele>
        <time>2021-08-03T09:33:55.315Z</time>
      </trkpt>
      <trkpt lat="47.02298" lon="8.90713">
        <ele>1125</ele>
        <time>2021-08-03T09:33:56.316Z</time>
      </trkpt>
      <trkpt lat="47.02297" lon="8.90711">
        <ele>1125</ele>
        <time>2021-08-03T09:33:57.315Z</time>
      </trkpt>
      <trkpt lat="47.02296" lon="8.90711">
        <ele>1126</ele>
        <time>2021-08-03T09:33:58.315Z</time>
      </trkpt>
      <trkpt lat="47.02296" lon="8.90712">
        <ele>1126</ele>
        <time>2021-08-03T09:33:59.315Z</time>
      </trkpt>
      <trkpt lat="47.02295" lon="8.90713">
        <ele>1126</ele>
        <time>2021-08-03T09:34:00.316Z</time>
      </trkpt>
      <trkpt lat="47.0229" lon="8.90721">
        <ele>1121</ele>
        <time>2021-08-03T09:34:01.317Z</time>
      </trkpt>
      <trkpt lat="47.0229" lon="8.90718">
        <ele>1121</ele>
        <time>2021-08-03T09:34:02.317Z</time>
      </trkpt>
      <trkpt lat="47.0229" lon="8.90716">
        <ele>1121</ele>
        <time>2021-08-03T09:34:03.318Z</time>
      </trkpt>
      <trkpt lat="47.0229" lon="8.90714">
        <ele>1120</ele>
        <time>2021-08-03T09:34:04.317Z</time>
      </trkpt>
      <trkpt lat="47.02289" lon="8.90713">
        <ele>1120</ele>
        <time>2021-08-03T09:34:05.318Z</time>
      </trkpt>
      <trkpt lat="47.02289" lon="8.90711">
        <ele>1120</ele>
        <time>2021-08-03T09:34:06.317Z</time>
      </trkpt>
      <trkpt lat="47.02288" lon="8.9071">
        <ele>1120</ele>
        <time>2021-08-03T09:34:07.317Z</time>
      </trkpt>
      <trkpt lat="47.02288" lon="8.90709">
        <ele>1120</ele>
        <time>2021-08-03T09:34:08.317Z</time>
      </trkpt>
      <trkpt lat="47.02288" lon="8.90707">
        <ele>1119</ele>
        <time>2021-08-03T09:34:09.318Z</time>
      </trkpt>
      <trkpt lat="47.02288" lon="8.90706">
        <ele>1119</ele>
        <time>2021-08-03T09:34:10.317Z</time>
      </trkpt>
      <trkpt lat="47.02287" lon="8.90705">
        <ele>1118</ele>
        <time>2021-08-03T09:34:11.318Z</time>
      </trkpt>
      <trkpt lat="47.02287" lon="8.90704">
        <ele>1118</ele>
        <time>2021-08-03T09:34:12.318Z</time>
      </trkpt>
      <trkpt lat="47.02286" lon="8.90702">
        <ele>1118</ele>
        <time>2021-08-03T09:34:13.318Z</time>
      </trkpt>
      <trkpt lat="47.02286" lon="8.90701">
        <ele>1118</ele>
        <time>2021-08-03T09:34:14.317Z</time>
      </trkpt>
      <trkpt lat="47.02285" lon="8.90699">
        <ele>1118</ele>
        <time>2021-08-03T09:34:15.317Z</time>
      </trkpt>
      <trkpt lat="47.02284" lon="8.90697">
        <ele>1118</ele>
        <time>2021-08-03T09:34:16.318Z</time>
      </trkpt>
      <trkpt lat="47.02284" lon="8.90694">
        <ele>1117</ele>
        <time>2021-08-03T09:34:17.318Z</time>
      </trkpt>
      <trkpt lat="47.02284" lon="8.90692">
        <ele>1117</ele>
        <time>2021-08-03T09:34:18.318Z</time>
      </trkpt>
      <trkpt lat="47.02284" lon="8.9069">
        <ele>1116</ele>
        <time>2021-08-03T09:34:19.317Z</time>
      </trkpt>
      <trkpt lat="47.02285" lon="8.90687">
        <ele>1116</ele>
        <time>2021-08-03T09:34:20.317Z</time>
      </trkpt>
      <trkpt lat="47.02285" lon="8.90685">
        <ele>1116</ele>
        <time>2021-08-03T09:34:21.318Z</time>
      </trkpt>
      <trkpt lat="47.02284" lon="8.90683">
        <ele>1117</ele>
        <time>2021-08-03T09:34:22.318Z</time>
      </trkpt>
      <trkpt lat="47.02284" lon="8.90682">
        <ele>1117</ele>
        <time>2021-08-03T09:34:23.317Z</time>
      </trkpt>
      <trkpt lat="47.02284" lon="8.9068">
        <ele>1118</ele>
        <time>2021-08-03T09:34:24.318Z</time>
      </trkpt>
      <trkpt lat="47.02284" lon="8.90678">
        <ele>1118</ele>
        <time>2021-08-03T09:34:25.317Z</time>
      </trkpt>
      <trkpt lat="47.02283" lon="8.90676">
        <ele>1119</ele>
        <time>2021-08-03T09:34:26.317Z</time>
      </trkpt>
      <trkpt lat="47.02283" lon="8.90674">
        <ele>1119</ele>
        <time>2021-08-03T09:34:27.318Z</time>
      </trkpt>
      <trkpt lat="47.02283" lon="8.90672">
        <ele>1120</ele>
        <time>2021-08-03T09:34:28.318Z</time>
      </trkpt>
      <trkpt lat="47.02283" lon="8.90669">
        <ele>1120</ele>
        <time>2021-08-03T09:34:29.318Z</time>
      </trkpt>
      <trkpt lat="47.02283" lon="8.90665">
        <ele>1121</ele>
        <time>2021-08-03T09:34:30.318Z</time>
      </trkpt>
      <trkpt lat="47.02283" lon="8.90663">
        <ele>1122</ele>
        <time>2021-08-03T09:34:31.318Z</time>
      </trkpt>
      <trkpt lat="47.02283" lon="8.90661">
        <ele>1122</ele>
        <time>2021-08-03T09:34:32.318Z</time>
      </trkpt>
      <trkpt lat="47.02283" lon="8.9066">
        <ele>1123</ele>
        <time>2021-08-03T09:34:33.317Z</time>
      </trkpt>
      <trkpt lat="47.02284" lon="8.90657">
        <ele>1123</ele>
        <time>2021-08-03T09:34:34.317Z</time>
      </trkpt>
      <trkpt lat="47.02285" lon="8.90655">
        <ele>1123</ele>
        <time>2021-08-03T09:34:35.317Z</time>
      </trkpt>
      <trkpt lat="47.02285" lon="8.90653">
        <ele>1123</ele>
        <time>2021-08-03T09:34:36.318Z</time>
      </trkpt>
      <trkpt lat="47.02285" lon="8.90652">
        <ele>1123</ele>
        <time>2021-08-03T09:34:37.318Z</time>
      </trkpt>
      <trkpt lat="47.02285" lon="8.9065">
        <ele>1123</ele>
        <time>2021-08-03T09:34:38.318Z</time>
      </trkpt>
      <trkpt lat="47.02285" lon="8.90649">
        <ele>1122</ele>
        <time>2021-08-03T09:34:39.317Z</time>
      </trkpt>
      <trkpt lat="47.02286" lon="8.90648">
        <ele>1122</ele>
        <time>2021-08-03T09:34:40.317Z</time>
      </trkpt>
      <trkpt lat="47.02286" lon="8.90646">
        <ele>1121</ele>
        <time>2021-08-03T09:34:41.318Z</time>
      </trkpt>
      <trkpt lat="47.02286" lon="8.90645">
        <ele>1121</ele>
        <time>2021-08-03T09:34:42.318Z</time>
      </trkpt>
      <trkpt lat="47.02286" lon="8.90644">
        <ele>1121</ele>
        <time>2021-08-03T09:34:43.317Z</time>
      </trkpt>
      <trkpt lat="47.02286" lon="8.90642">
        <ele>1120</ele>
        <time>2021-08-03T09:34:44.318Z</time>
      </trkpt>
      <trkpt lat="47.02287" lon="8.90641">
        <ele>1120</ele>
        <time>2021-08-03T09:34:45.317Z</time>
      </trkpt>
      <trkpt lat="47.02287" lon="8.90639">
        <ele>1119</ele>
        <time>2021-08-03T09:34:46.317Z</time>
      </trkpt>
      <trkpt lat="47.02288" lon="8.90637">
        <ele>1119</ele>
        <time>2021-08-03T09:34:47.318Z</time>
      </trkpt>
      <trkpt lat="47.02288" lon="8.90635">
        <ele>1119</ele>
        <time>2021-08-03T09:34:48.317Z</time>
      </trkpt>
      <trkpt lat="47.02289" lon="8.90633">
        <ele>1118</ele>
        <time>2021-08-03T09:34:49.317Z</time>
      </trkpt>
      <trkpt lat="47.02289" lon="8.90632">
        <ele>1117</ele>
        <time>2021-08-03T09:34:50.317Z</time>
      </trkpt>
      <trkpt lat="47.0229" lon="8.90631">
        <ele>1117</ele>
        <time>2021-08-03T09:34:51.317Z</time>
      </trkpt>
      <trkpt lat="47.0229" lon="8.90629">
        <ele>1117</ele>
        <time>2021-08-03T09:34:52.317Z</time>
      </trkpt>
      <trkpt lat="47.0229" lon="8.90627">
        <ele>1117</ele>
        <time>2021-08-03T09:34:53.317Z</time>
      </trkpt>
      <trkpt lat="47.0229" lon="8.90626">
        <ele>1117</ele>
        <time>2021-08-03T09:34:54.317Z</time>
      </trkpt>
      <trkpt lat="47.02292" lon="8.90624">
        <ele>1117</ele>
        <time>2021-08-03T09:34:55.317Z</time>
      </trkpt>
      <trkpt lat="47.02292" lon="8.90622">
        <ele>1117</ele>
        <time>2021-08-03T09:34:56.317Z</time>
      </trkpt>
      <trkpt lat="47.02292" lon="8.90621">
        <ele>1117</ele>
        <time>2021-08-03T09:34:57.317Z</time>
      </trkpt>
      <trkpt lat="47.02291" lon="8.9062">
        <ele>1118</ele>
        <time>2021-08-03T09:34:58.317Z</time>
      </trkpt>
      <trkpt lat="47.02291" lon="8.90618">
        <ele>1118</ele>
        <time>2021-08-03T09:34:59.317Z</time>
      </trkpt>
      <trkpt lat="47.02292" lon="8.90617">
        <ele>1117</ele>
        <time>2021-08-03T09:35:00.317Z</time>
      </trkpt>
      <trkpt lat="47.02292" lon="8.90616">
        <ele>1117</ele>
        <time>2021-08-03T09:35:01.317Z</time>
      </trkpt>
      <trkpt lat="47.02293" lon="8.90614">
        <ele>1117</ele>
        <time>2021-08-03T09:35:02.317Z</time>
      </trkpt>
      <trkpt lat="47.02293" lon="8.90612">
        <ele>1118</ele>
        <time>2021-08-03T09:35:03.317Z</time>
      </trkpt>
      <trkpt lat="47.02294" lon="8.9061">
        <ele>1118</ele>
        <time>2021-08-03T09:35:04.317Z</time>
      </trkpt>
      <trkpt lat="47.02294" lon="8.90608">
        <ele>1119</ele>
        <time>2021-08-03T09:35:05.317Z</time>
      </trkpt>
      <trkpt lat="47.02295" lon="8.90607">
        <ele>1119</ele>
        <time>2021-08-03T09:35:06.317Z</time>
      </trkpt>
      <trkpt lat="47.02295" lon="8.90605">
        <ele>1119</ele>
        <time>2021-08-03T09:35:07.317Z</time>
      </trkpt>
      <trkpt lat="47.02296" lon="8.90604">
        <ele>1119</ele>
        <time>2021-08-03T09:35:08.318Z</time>
      </trkpt>
      <trkpt lat="47.02296" lon="8.90602">
        <ele>1119</ele>
        <time>2021-08-03T09:35:09.317Z</time>
      </trkpt>
      <trkpt lat="47.02297" lon="8.90601">
        <ele>1118</ele>
        <time>2021-08-03T09:35:10.318Z</time>
      </trkpt>
      <trkpt lat="47.02297" lon="8.90599">
        <ele>1118</ele>
        <time>2021-08-03T09:35:11.317Z</time>
      </trkpt>
      <trkpt lat="47.02298" lon="8.90597">
        <ele>1118</ele>
        <time>2021-08-03T09:35:12.318Z</time>
      </trkpt>
      <trkpt lat="47.02298" lon="8.90596">
        <ele>1118</ele>
        <time>2021-08-03T09:35:13.318Z</time>
      </trkpt>
      <trkpt lat="47.02298" lon="8.90594">
        <ele>1119</ele>
        <time>2021-08-03T09:35:14.318Z</time>
      </trkpt>
      <trkpt lat="47.02298" lon="8.90593">
        <ele>1119</ele>
        <time>2021-08-03T09:35:15.318Z</time>
      </trkpt>
      <trkpt lat="47.02297" lon="8.90592">
        <ele>1119</ele>
        <time>2021-08-03T09:35:16.317Z</time>
      </trkpt>
      <trkpt lat="47.02297" lon="8.90591">
        <ele>1119</ele>
        <time>2021-08-03T09:35:17.317Z</time>
      </trkpt>
      <trkpt lat="47.02297" lon="8.90589">
        <ele>1119</ele>
        <time>2021-08-03T09:35:18.318Z</time>
      </trkpt>
      <trkpt lat="47.02297" lon="8.90587">
        <ele>1119</ele>
        <time>2021-08-03T09:35:19.318Z</time>
      </trkpt>
      <trkpt lat="47.02297" lon="8.90585">
        <ele>1119</ele>
        <time>2021-08-03T09:35:20.317Z</time>
      </trkpt>
      <trkpt lat="47.02297" lon="8.90584">
        <ele>1118</ele>
        <time>2021-08-03T09:35:21.317Z</time>
      </trkpt>
      <trkpt lat="47.02297" lon="8.90582">
        <ele>1119</ele>
        <time>2021-08-03T09:35:22.318Z</time>
      </trkpt>
      <trkpt lat="47.02298" lon="8.9058">
        <ele>1119</ele>
        <time>2021-08-03T09:35:23.317Z</time>
      </trkpt>
      <trkpt lat="47.02298" lon="8.90579">
        <ele>1119</ele>
        <time>2021-08-03T09:35:24.318Z</time>
      </trkpt>
      <trkpt lat="47.02298" lon="8.90578">
        <ele>1118</ele>
        <time>2021-08-03T09:35:25.318Z</time>
      </trkpt>
      <trkpt lat="47.02298" lon="8.90576">
        <ele>1118</ele>
        <time>2021-08-03T09:35:26.318Z</time>
      </trkpt>
      <trkpt lat="47.02298" lon="8.90574">
        <ele>1118</ele>
        <time>2021-08-03T09:35:27.317Z</time>
      </trkpt>
      <trkpt lat="47.02298" lon="8.90572">
        <ele>1117</ele>
        <time>2021-08-03T09:35:28.318Z</time>
      </trkpt>
      <trkpt lat="47.02298" lon="8.90571">
        <ele>1117</ele>
        <time>2021-08-03T09:35:29.317Z</time>
      </trkpt>
      <trkpt lat="47.02298" lon="8.90568">
        <ele>1117</ele>
        <time>2021-08-03T09:35:30.318Z</time>
      </trkpt>
      <trkpt lat="47.02298" lon="8.90566">
        <ele>1117</ele>
        <time>2021-08-03T09:35:31.318Z</time>
      </trkpt>
      <trkpt lat="47.02298" lon="8.90565">
        <ele>1118</ele>
        <time>2021-08-03T09:35:32.317Z</time>
      </trkpt>
      <trkpt lat="47.02298" lon="8.90563">
        <ele>1118</ele>
        <time>2021-08-03T09:35:33.318Z</time>
      </trkpt>
      <trkpt lat="47.02298" lon="8.90561">
        <ele>1119</ele>
        <time>2021-08-03T09:35:34.318Z</time>
      </trkpt>
      <trkpt lat="47.02298" lon="8.9056">
        <ele>1119</ele>
        <time>2021-08-03T09:35:35.318Z</time>
      </trkpt>
      <trkpt lat="47.02298" lon="8.90558">
        <ele>1119</ele>
        <time>2021-08-03T09:35:36.318Z</time>
      </trkpt>
      <trkpt lat="47.02298" lon="8.90557">
        <ele>1119</ele>
        <time>2021-08-03T09:35:37.318Z</time>
      </trkpt>
      <trkpt lat="47.02298" lon="8.90555">
        <ele>1119</ele>
        <time>2021-08-03T09:35:38.318Z</time>
      </trkpt>
      <trkpt lat="47.02298" lon="8.90554">
        <ele>1119</ele>
        <time>2021-08-03T09:35:39.318Z</time>
      </trkpt>
      <trkpt lat="47.02298" lon="8.90552">
        <ele>1119</ele>
        <time>2021-08-03T09:35:40.317Z</time>
      </trkpt>
      <trkpt lat="47.02298" lon="8.9055">
        <ele>1119</ele>
        <time>2021-08-03T09:35:41.318Z</time>
      </trkpt>
      <trkpt lat="47.02298" lon="8.90549">
        <ele>1120</ele>
        <time>2021-08-03T09:35:42.318Z</time>
      </trkpt>
      <trkpt lat="47.02298" lon="8.90547">
        <ele>1120</ele>
        <time>2021-08-03T09:35:43.317Z</time>
      </trkpt>
      <trkpt lat="47.02298" lon="8.90545">
        <ele>1121</ele>
        <time>2021-08-03T09:35:44.318Z</time>
      </trkpt>
      <trkpt lat="47.02298" lon="8.90543">
        <ele>1121</ele>
        <time>2021-08-03T09:35:45.318Z</time>
      </trkpt>
      <trkpt lat="47.02298" lon="8.90541">
        <ele>1122</ele>
        <time>2021-08-03T09:35:46.318Z</time>
      </trkpt>
      <trkpt lat="47.02297" lon="8.90539">
        <ele>1122</ele>
        <time>2021-08-03T09:35:47.318Z</time>
      </trkpt>
      <trkpt lat="47.02297" lon="8.90537">
        <ele>1122</ele>
        <time>2021-08-03T09:35:48.318Z</time>
      </trkpt>
      <trkpt lat="47.02297" lon="8.90536">
        <ele>1122</ele>
        <time>2021-08-03T09:35:49.318Z</time>
      </trkpt>
      <trkpt lat="47.02297" lon="8.90535">
        <ele>1122</ele>
        <time>2021-08-03T09:35:50.318Z</time>
      </trkpt>
      <trkpt lat="47.02297" lon="8.90533">
        <ele>1122</ele>
        <time>2021-08-03T09:35:51.317Z</time>
      </trkpt>
      <trkpt lat="47.02297" lon="8.90531">
        <ele>1122</ele>
        <time>2021-08-03T09:35:52.317Z</time>
      </trkpt>
      <trkpt lat="47.02296" lon="8.9053">
        <ele>1122</ele>
        <time>2021-08-03T09:35:53.318Z</time>
      </trkpt>
      <trkpt lat="47.02296" lon="8.90528">
        <ele>1122</ele>
        <time>2021-08-03T09:35:54.318Z</time>
      </trkpt>
      <trkpt lat="47.02296" lon="8.90526">
        <ele>1122</ele>
        <time>2021-08-03T09:35:55.318Z</time>
      </trkpt>
      <trkpt lat="47.02295" lon="8.90525">
        <ele>1122</ele>
        <time>2021-08-03T09:35:56.317Z</time>
      </trkpt>
      <trkpt lat="47.02295" lon="8.90523">
        <ele>1123</ele>
        <time>2021-08-03T09:35:57.317Z</time>
      </trkpt>
      <trkpt lat="47.02294" lon="8.90522">
        <ele>1123</ele>
        <time>2021-08-03T09:35:58.318Z</time>
      </trkpt>
      <trkpt lat="47.02294" lon="8.9052">
        <ele>1123</ele>
        <time>2021-08-03T09:35:59.318Z</time>
      </trkpt>
      <trkpt lat="47.02294" lon="8.90518">
        <ele>1124</ele>
        <time>2021-08-03T09:36:00.317Z</time>
      </trkpt>
      <trkpt lat="47.02293" lon="8.90516">
        <ele>1124</ele>
        <time>2021-08-03T09:36:01.318Z</time>
      </trkpt>
      <trkpt lat="47.02293" lon="8.90514">
        <ele>1124</ele>
        <time>2021-08-03T09:36:02.317Z</time>
      </trkpt>
      <trkpt lat="47.02293" lon="8.90513">
        <ele>1124</ele>
        <time>2021-08-03T09:36:03.317Z</time>
      </trkpt>
      <trkpt lat="47.02293" lon="8.90511">
        <ele>1124</ele>
        <time>2021-08-03T09:36:04.318Z</time>
      </trkpt>
      <trkpt lat="47.02293" lon="8.9051">
        <ele>1124</ele>
        <time>2021-08-03T09:36:05.318Z</time>
      </trkpt>
      <trkpt lat="47.02293" lon="8.90508">
        <ele>1124</ele>
        <time>2021-08-03T09:36:06.317Z</time>
      </trkpt>
      <trkpt lat="47.02292" lon="8.90506">
        <ele>1123</ele>
        <time>2021-08-03T09:36:07.318Z</time>
      </trkpt>
      <trkpt lat="47.02292" lon="8.90505">
        <ele>1123</ele>
        <time>2021-08-03T09:36:08.318Z</time>
      </trkpt>
      <trkpt lat="47.02291" lon="8.90503">
        <ele>1122</ele>
        <time>2021-08-03T09:36:09.318Z</time>
      </trkpt>
      <trkpt lat="47.02291" lon="8.90502">
        <ele>1122</ele>
        <time>2021-08-03T09:36:10.317Z</time>
      </trkpt>
      <trkpt lat="47.02291" lon="8.905">
        <ele>1122</ele>
        <time>2021-08-03T09:36:11.317Z</time>
      </trkpt>
      <trkpt lat="47.02291" lon="8.90499">
        <ele>1122</ele>
        <time>2021-08-03T09:36:12.317Z</time>
      </trkpt>
      <trkpt lat="47.0229" lon="8.90498">
        <ele>1122</ele>
        <time>2021-08-03T09:36:13.318Z</time>
      </trkpt>
      <trkpt lat="47.0229" lon="8.90496">
        <ele>1122</ele>
        <time>2021-08-03T09:36:14.318Z</time>
      </trkpt>
      <trkpt lat="47.02289" lon="8.90494">
        <ele>1122</ele>
        <time>2021-08-03T09:36:15.318Z</time>
      </trkpt>
      <trkpt lat="47.02289" lon="8.90492">
        <ele>1122</ele>
        <time>2021-08-03T09:36:16.318Z</time>
      </trkpt>
      <trkpt lat="47.02289" lon="8.90491">
        <ele>1123</ele>
        <time>2021-08-03T09:36:17.318Z</time>
      </trkpt>
      <trkpt lat="47.02289" lon="8.90489">
        <ele>1122</ele>
        <time>2021-08-03T09:36:18.318Z</time>
      </trkpt>
      <trkpt lat="47.02289" lon="8.90488">
        <ele>1122</ele>
        <time>2021-08-03T09:36:19.318Z</time>
      </trkpt>
      <trkpt lat="47.02289" lon="8.90486">
        <ele>1123</ele>
        <time>2021-08-03T09:36:20.318Z</time>
      </trkpt>
      <trkpt lat="47.02288" lon="8.90485">
        <ele>1123</ele>
        <time>2021-08-03T09:36:21.318Z</time>
      </trkpt>
      <trkpt lat="47.02288" lon="8.90483">
        <ele>1123</ele>
        <time>2021-08-03T09:36:22.318Z</time>
      </trkpt>
      <trkpt lat="47.02288" lon="8.90482">
        <ele>1122</ele>
        <time>2021-08-03T09:36:23.318Z</time>
      </trkpt>
      <trkpt lat="47.02288" lon="8.9048">
        <ele>1122</ele>
        <time>2021-08-03T09:36:24.318Z</time>
      </trkpt>
      <trkpt lat="47.02288" lon="8.90478">
        <ele>1122</ele>
        <time>2021-08-03T09:36:25.317Z</time>
      </trkpt>
      <trkpt lat="47.02288" lon="8.90477">
        <ele>1122</ele>
        <time>2021-08-03T09:36:26.318Z</time>
      </trkpt>
      <trkpt lat="47.02287" lon="8.90475">
        <ele>1122</ele>
        <time>2021-08-03T09:36:27.318Z</time>
      </trkpt>
      <trkpt lat="47.02286" lon="8.90474">
        <ele>1121</ele>
        <time>2021-08-03T09:36:28.318Z</time>
      </trkpt>
      <trkpt lat="47.02286" lon="8.90473">
        <ele>1121</ele>
        <time>2021-08-03T09:36:29.318Z</time>
      </trkpt>
      <trkpt lat="47.02285" lon="8.90471">
        <ele>1121</ele>
        <time>2021-08-03T09:36:30.318Z</time>
      </trkpt>
      <trkpt lat="47.02284" lon="8.9047">
        <ele>1121</ele>
        <time>2021-08-03T09:36:31.318Z</time>
      </trkpt>
      <trkpt lat="47.02284" lon="8.90468">
        <ele>1122</ele>
        <time>2021-08-03T09:36:32.318Z</time>
      </trkpt>
      <trkpt lat="47.02284" lon="8.90467">
        <ele>1122</ele>
        <time>2021-08-03T09:36:33.318Z</time>
      </trkpt>
      <trkpt lat="47.02283" lon="8.90466">
        <ele>1122</ele>
        <time>2021-08-03T09:36:34.317Z</time>
      </trkpt>
      <trkpt lat="47.02282" lon="8.90464">
        <ele>1123</ele>
        <time>2021-08-03T09:36:35.318Z</time>
      </trkpt>
      <trkpt lat="47.02282" lon="8.90463">
        <ele>1123</ele>
        <time>2021-08-03T09:36:36.318Z</time>
      </trkpt>
      <trkpt lat="47.02281" lon="8.90462">
        <ele>1124</ele>
        <time>2021-08-03T09:36:37.318Z</time>
      </trkpt>
      <trkpt lat="47.0228" lon="8.90461">
        <ele>1123</ele>
        <time>2021-08-03T09:36:38.317Z</time>
      </trkpt>
      <trkpt lat="47.02279" lon="8.90459">
        <ele>1123</ele>
        <time>2021-08-03T09:36:39.317Z</time>
      </trkpt>
      <trkpt lat="47.02279" lon="8.90458">
        <ele>1123</ele>
        <time>2021-08-03T09:36:40.318Z</time>
      </trkpt>
      <trkpt lat="47.02278" lon="8.90457">
        <ele>1123</ele>
        <time>2021-08-03T09:36:41.317Z</time>
      </trkpt>
      <trkpt lat="47.02277" lon="8.90456">
        <ele>1124</ele>
        <time>2021-08-03T09:36:42.317Z</time>
      </trkpt>
      <trkpt lat="47.02277" lon="8.90454">
        <ele>1124</ele>
        <time>2021-08-03T09:36:43.318Z</time>
      </trkpt>
      <trkpt lat="47.02276" lon="8.90452">
        <ele>1125</ele>
        <time>2021-08-03T09:36:44.318Z</time>
      </trkpt>
      <trkpt lat="47.02275" lon="8.90451">
        <ele>1126</ele>
        <time>2021-08-03T09:36:45.318Z</time>
      </trkpt>
      <trkpt lat="47.02274" lon="8.90449">
        <ele>1127</ele>
        <time>2021-08-03T09:36:46.318Z</time>
      </trkpt>
      <trkpt lat="47.02273" lon="8.90447">
        <ele>1128</ele>
        <time>2021-08-03T09:36:47.318Z</time>
      </trkpt>
      <trkpt lat="47.02273" lon="8.90446">
        <ele>1129</ele>
        <time>2021-08-03T09:36:48.318Z</time>
      </trkpt>
      <trkpt lat="47.02272" lon="8.90444">
        <ele>1130</ele>
        <time>2021-08-03T09:36:49.318Z</time>
      </trkpt>
      <trkpt lat="47.02272" lon="8.90443">
        <ele>1130</ele>
        <time>2021-08-03T09:36:50.318Z</time>
      </trkpt>
      <trkpt lat="47.02272" lon="8.90441">
        <ele>1131</ele>
        <time>2021-08-03T09:36:51.318Z</time>
      </trkpt>
      <trkpt lat="47.02272" lon="8.90438">
        <ele>1131</ele>
        <time>2021-08-03T09:36:52.317Z</time>
      </trkpt>
      <trkpt lat="47.02272" lon="8.90436">
        <ele>1131</ele>
        <time>2021-08-03T09:36:53.317Z</time>
      </trkpt>
      <trkpt lat="47.02271" lon="8.90434">
        <ele>1131</ele>
        <time>2021-08-03T09:36:54.318Z</time>
      </trkpt>
      <trkpt lat="47.0227" lon="8.90433">
        <ele>1131</ele>
        <time>2021-08-03T09:36:55.317Z</time>
      </trkpt>
      <trkpt lat="47.0227" lon="8.90432">
        <ele>1131</ele>
        <time>2021-08-03T09:36:56.317Z</time>
      </trkpt>
      <trkpt lat="47.02269" lon="8.9043">
        <ele>1132</ele>
        <time>2021-08-03T09:36:57.317Z</time>
      </trkpt>
      <trkpt lat="47.02269" lon="8.90429">
        <ele>1132</ele>
        <time>2021-08-03T09:36:58.317Z</time>
      </trkpt>
      <trkpt lat="47.02268" lon="8.90427">
        <ele>1133</ele>
        <time>2021-08-03T09:36:59.317Z</time>
      </trkpt>
      <trkpt lat="47.02267" lon="8.90426">
        <ele>1133</ele>
        <time>2021-08-03T09:37:00.317Z</time>
      </trkpt>
      <trkpt lat="47.02267" lon="8.90425">
        <ele>1133</ele>
        <time>2021-08-03T09:37:01.318Z</time>
      </trkpt>
      <trkpt lat="47.02266" lon="8.90425">
        <ele>1133</ele>
        <time>2021-08-03T09:37:02.318Z</time>
      </trkpt>
      <trkpt lat="47.02266" lon="8.90424">
        <ele>1133</ele>
        <time>2021-08-03T09:37:03.317Z</time>
      </trkpt>
      <trkpt lat="47.02265" lon="8.90423">
        <ele>1133</ele>
        <time>2021-08-03T09:37:04.318Z</time>
      </trkpt>
      <trkpt lat="47.02265" lon="8.90423">
        <ele>1134</ele>
        <time>2021-08-03T09:37:05.318Z</time>
      </trkpt>
      <trkpt lat="47.02265" lon="8.90422">
        <ele>1134</ele>
        <time>2021-08-03T09:37:06.318Z</time>
      </trkpt>
      <trkpt lat="47.02264" lon="8.90421">
        <ele>1134</ele>
        <time>2021-08-03T09:37:07.317Z</time>
      </trkpt>
      <trkpt lat="47.02263" lon="8.9042">
        <ele>1134</ele>
        <time>2021-08-03T09:37:08.318Z</time>
      </trkpt>
      <trkpt lat="47.02263" lon="8.90419">
        <ele>1134</ele>
        <time>2021-08-03T09:37:09.318Z</time>
      </trkpt>
      <trkpt lat="47.02263" lon="8.90418">
        <ele>1134</ele>
        <time>2021-08-03T09:37:10.318Z</time>
      </trkpt>
      <trkpt lat="47.02263" lon="8.90417">
        <ele>1133</ele>
        <time>2021-08-03T09:37:11.317Z</time>
      </trkpt>
      <trkpt lat="47.02263" lon="8.90416">
        <ele>1133</ele>
        <time>2021-08-03T09:37:12.318Z</time>
      </trkpt>
      <trkpt lat="47.02262" lon="8.90416">
        <ele>1133</ele>
        <time>2021-08-03T09:37:13.318Z</time>
      </trkpt>
      <trkpt lat="47.02262" lon="8.90415">
        <ele>1133</ele>
        <time>2021-08-03T09:37:14.318Z</time>
      </trkpt>
      <trkpt lat="47.02261" lon="8.90414">
        <ele>1133</ele>
        <time>2021-08-03T09:37:15.317Z</time>
      </trkpt>
      <trkpt lat="47.02261" lon="8.90412">
        <ele>1133</ele>
        <time>2021-08-03T09:37:16.318Z</time>
      </trkpt>
      <trkpt lat="47.0226" lon="8.90411">
        <ele>1133</ele>
        <time>2021-08-03T09:37:17.318Z</time>
      </trkpt>
      <trkpt lat="47.0226" lon="8.9041">
        <ele>1133</ele>
        <time>2021-08-03T09:37:18.317Z</time>
      </trkpt>
      <trkpt lat="47.0226" lon="8.90407">
        <ele>1133</ele>
        <time>2021-08-03T09:37:19.317Z</time>
      </trkpt>
      <trkpt lat="47.02259" lon="8.90406">
        <ele>1133</ele>
        <time>2021-08-03T09:37:20.317Z</time>
      </trkpt>
      <trkpt lat="47.02259" lon="8.90405">
        <ele>1133</ele>
        <time>2021-08-03T09:37:21.317Z</time>
      </trkpt>
      <trkpt lat="47.02258" lon="8.90404">
        <ele>1133</ele>
        <time>2021-08-03T09:37:22.318Z</time>
      </trkpt>
      <trkpt lat="47.02257" lon="8.90403">
        <ele>1133</ele>
        <time>2021-08-03T09:37:23.317Z</time>
      </trkpt>
      <trkpt lat="47.02257" lon="8.90402">
        <ele>1133</ele>
        <time>2021-08-03T09:37:24.318Z</time>
      </trkpt>
      <trkpt lat="47.02256" lon="8.90401">
        <ele>1133</ele>
        <time>2021-08-03T09:37:25.317Z</time>
      </trkpt>
      <trkpt lat="47.02256" lon="8.904">
        <ele>1133</ele>
        <time>2021-08-03T09:37:26.318Z</time>
      </trkpt>
      <trkpt lat="47.02256" lon="8.90398">
        <ele>1132</ele>
        <time>2021-08-03T09:37:27.318Z</time>
      </trkpt>
      <trkpt lat="47.02255" lon="8.90397">
        <ele>1132</ele>
        <time>2021-08-03T09:37:28.318Z</time>
      </trkpt>
      <trkpt lat="47.02255" lon="8.90395">
        <ele>1131</ele>
        <time>2021-08-03T09:37:29.318Z</time>
      </trkpt>
      <trkpt lat="47.02255" lon="8.90394">
        <ele>1131</ele>
        <time>2021-08-03T09:37:30.318Z</time>
      </trkpt>
      <trkpt lat="47.02254" lon="8.90392">
        <ele>1131</ele>
        <time>2021-08-03T09:37:31.317Z</time>
      </trkpt>
      <trkpt lat="47.02254" lon="8.90391">
        <ele>1131</ele>
        <time>2021-08-03T09:37:32.318Z</time>
      </trkpt>
      <trkpt lat="47.02254" lon="8.90389">
        <ele>1131</ele>
        <time>2021-08-03T09:37:33.318Z</time>
      </trkpt>
      <trkpt lat="47.02254" lon="8.90388">
        <ele>1130</ele>
        <time>2021-08-03T09:37:34.317Z</time>
      </trkpt>
      <trkpt lat="47.02254" lon="8.90387">
        <ele>1130</ele>
        <time>2021-08-03T09:37:35.317Z</time>
      </trkpt>
      <trkpt lat="47.02253" lon="8.90385">
        <ele>1130</ele>
        <time>2021-08-03T09:37:36.318Z</time>
      </trkpt>
      <trkpt lat="47.02253" lon="8.90384">
        <ele>1130</ele>
        <time>2021-08-03T09:37:37.317Z</time>
      </trkpt>
      <trkpt lat="47.02252" lon="8.90383">
        <ele>1131</ele>
        <time>2021-08-03T09:37:38.317Z</time>
      </trkpt>
      <trkpt lat="47.02251" lon="8.90379">
        <ele>1130</ele>
        <time>2021-08-03T09:37:39.317Z</time>
      </trkpt>
      <trkpt lat="47.02249" lon="8.90378">
        <ele>1131</ele>
        <time>2021-08-03T09:37:40.318Z</time>
      </trkpt>
      <trkpt lat="47.02248" lon="8.90377">
        <ele>1131</ele>
        <time>2021-08-03T09:37:41.318Z</time>
      </trkpt>
      <trkpt lat="47.02248" lon="8.90375">
        <ele>1131</ele>
        <time>2021-08-03T09:37:42.317Z</time>
      </trkpt>
      <trkpt lat="47.02248" lon="8.90373">
        <ele>1131</ele>
        <time>2021-08-03T09:37:43.317Z</time>
      </trkpt>
      <trkpt lat="47.02248" lon="8.90371">
        <ele>1131</ele>
        <time>2021-08-03T09:37:44.318Z</time>
      </trkpt>
      <trkpt lat="47.02247" lon="8.90369">
        <ele>1131</ele>
        <time>2021-08-03T09:37:45.317Z</time>
      </trkpt>
      <trkpt lat="47.02247" lon="8.90368">
        <ele>1131</ele>
        <time>2021-08-03T09:37:46.318Z</time>
      </trkpt>
      <trkpt lat="47.02246" lon="8.90366">
        <ele>1132</ele>
        <time>2021-08-03T09:37:47.318Z</time>
      </trkpt>
      <trkpt lat="47.02245" lon="8.90365">
        <ele>1132</ele>
        <time>2021-08-03T09:37:48.318Z</time>
      </trkpt>
      <trkpt lat="47.02244" lon="8.90364">
        <ele>1133</ele>
        <time>2021-08-03T09:37:49.318Z</time>
      </trkpt>
      <trkpt lat="47.02244" lon="8.90363">
        <ele>1133</ele>
        <time>2021-08-03T09:37:50.318Z</time>
      </trkpt>
      <trkpt lat="47.02243" lon="8.90363">
        <ele>1133</ele>
        <time>2021-08-03T09:37:51.318Z</time>
      </trkpt>
      <trkpt lat="47.02243" lon="8.90362">
        <ele>1133</ele>
        <time>2021-08-03T09:37:52.318Z</time>
      </trkpt>
      <trkpt lat="47.02242" lon="8.9036">
        <ele>1133</ele>
        <time>2021-08-03T09:37:53.318Z</time>
      </trkpt>
      <trkpt lat="47.02242" lon="8.90359">
        <ele>1134</ele>
        <time>2021-08-03T09:37:54.317Z</time>
      </trkpt>
      <trkpt lat="47.02241" lon="8.90357">
        <ele>1134</ele>
        <time>2021-08-03T09:37:55.318Z</time>
      </trkpt>
      <trkpt lat="47.02241" lon="8.90356">
        <ele>1134</ele>
        <time>2021-08-03T09:37:56.318Z</time>
      </trkpt>
      <trkpt lat="47.0224" lon="8.90355">
        <ele>1134</ele>
        <time>2021-08-03T09:37:57.318Z</time>
      </trkpt>
      <trkpt lat="47.02239" lon="8.90353">
        <ele>1134</ele>
        <time>2021-08-03T09:37:58.318Z</time>
      </trkpt>
      <trkpt lat="47.02239" lon="8.90352">
        <ele>1134</ele>
        <time>2021-08-03T09:37:59.318Z</time>
      </trkpt>
      <trkpt lat="47.02238" lon="8.90351">
        <ele>1133</ele>
        <time>2021-08-03T09:38:00.318Z</time>
      </trkpt>
      <trkpt lat="47.02238" lon="8.9035">
        <ele>1133</ele>
        <time>2021-08-03T09:38:01.317Z</time>
      </trkpt>
      <trkpt lat="47.02237" lon="8.90348">
        <ele>1132</ele>
        <time>2021-08-03T09:38:02.317Z</time>
      </trkpt>
      <trkpt lat="47.02236" lon="8.90346">
        <ele>1132</ele>
        <time>2021-08-03T09:38:03.317Z</time>
      </trkpt>
      <trkpt lat="47.02235" lon="8.90344">
        <ele>1132</ele>
        <time>2021-08-03T09:38:04.318Z</time>
      </trkpt>
      <trkpt lat="47.02235" lon="8.90342">
        <ele>1133</ele>
        <time>2021-08-03T09:38:05.318Z</time>
      </trkpt>
      <trkpt lat="47.02234" lon="8.9034">
        <ele>1133</ele>
        <time>2021-08-03T09:38:06.318Z</time>
      </trkpt>
      <trkpt lat="47.02234" lon="8.90339">
        <ele>1134</ele>
        <time>2021-08-03T09:38:07.318Z</time>
      </trkpt>
      <trkpt lat="47.02233" lon="8.90337">
        <ele>1134</ele>
        <time>2021-08-03T09:38:08.318Z</time>
      </trkpt>
      <trkpt lat="47.02233" lon="8.90336">
        <ele>1133</ele>
        <time>2021-08-03T09:38:09.318Z</time>
      </trkpt>
      <trkpt lat="47.02233" lon="8.90335">
        <ele>1132</ele>
        <time>2021-08-03T09:38:10.318Z</time>
      </trkpt>
      <trkpt lat="47.02233" lon="8.90334">
        <ele>1131</ele>
        <time>2021-08-03T09:38:11.317Z</time>
      </trkpt>
      <trkpt lat="47.02233" lon="8.90332">
        <ele>1130</ele>
        <time>2021-08-03T09:38:12.318Z</time>
      </trkpt>
      <trkpt lat="47.02234" lon="8.9033">
        <ele>1130</ele>
        <time>2021-08-03T09:38:13.318Z</time>
      </trkpt>
      <trkpt lat="47.02234" lon="8.90328">
        <ele>1130</ele>
        <time>2021-08-03T09:38:14.318Z</time>
      </trkpt>
      <trkpt lat="47.02234" lon="8.90327">
        <ele>1130</ele>
        <time>2021-08-03T09:38:15.318Z</time>
      </trkpt>
      <trkpt lat="47.02234" lon="8.90325">
        <ele>1130</ele>
        <time>2021-08-03T09:38:16.318Z</time>
      </trkpt>
      <trkpt lat="47.02234" lon="8.90324">
        <ele>1130</ele>
        <time>2021-08-03T09:38:17.318Z</time>
      </trkpt>
      <trkpt lat="47.02233" lon="8.90323">
        <ele>1130</ele>
        <time>2021-08-03T09:38:18.318Z</time>
      </trkpt>
      <trkpt lat="47.02233" lon="8.90321">
        <ele>1130</ele>
        <time>2021-08-03T09:38:19.318Z</time>
      </trkpt>
      <trkpt lat="47.02233" lon="8.9032">
        <ele>1130</ele>
        <time>2021-08-03T09:38:20.317Z</time>
      </trkpt>
      <trkpt lat="47.02233" lon="8.90318">
        <ele>1130</ele>
        <time>2021-08-03T09:38:21.317Z</time>
      </trkpt>
      <trkpt lat="47.02232" lon="8.90317">
        <ele>1130</ele>
        <time>2021-08-03T09:38:22.317Z</time>
      </trkpt>
      <trkpt lat="47.02231" lon="8.90318">
        <ele>1131</ele>
        <time>2021-08-03T09:38:23.318Z</time>
      </trkpt>
      <trkpt lat="47.02231" lon="8.90317">
        <ele>1131</ele>
        <time>2021-08-03T09:38:24.318Z</time>
      </trkpt>
      <trkpt lat="47.02231" lon="8.90315">
        <ele>1131</ele>
        <time>2021-08-03T09:38:25.318Z</time>
      </trkpt>
      <trkpt lat="47.02231" lon="8.90314">
        <ele>1131</ele>
        <time>2021-08-03T09:38:26.317Z</time>
      </trkpt>
      <trkpt lat="47.02231" lon="8.90312">
        <ele>1131</ele>
        <time>2021-08-03T09:38:27.318Z</time>
      </trkpt>
      <trkpt lat="47.02231" lon="8.9031">
        <ele>1130</ele>
        <time>2021-08-03T09:38:28.318Z</time>
      </trkpt>
      <trkpt lat="47.02231" lon="8.9031">
        <ele>1130</ele>
        <time>2021-08-03T09:38:29.318Z</time>
      </trkpt>
      <trkpt lat="47.02231" lon="8.9031">
        <ele>1129</ele>
        <time>2021-08-03T09:38:30.317Z</time>
      </trkpt>
      <trkpt lat="47.02231" lon="8.90309">
        <ele>1129</ele>
        <time>2021-08-03T09:38:31.318Z</time>
      </trkpt>
      <trkpt lat="47.02231" lon="8.90309">
        <ele>1128</ele>
        <time>2021-08-03T09:38:32.318Z</time>
      </trkpt>
      <trkpt lat="47.02229" lon="8.90306">
        <ele>1128</ele>
        <time>2021-08-03T09:38:33.317Z</time>
      </trkpt>
      <trkpt lat="47.02229" lon="8.90304">
        <ele>1128</ele>
        <time>2021-08-03T09:38:34.317Z</time>
      </trkpt>
      <trkpt lat="47.02229" lon="8.90303">
        <ele>1127</ele>
        <time>2021-08-03T09:38:35.317Z</time>
      </trkpt>
      <trkpt lat="47.02229" lon="8.90301">
        <ele>1127</ele>
        <time>2021-08-03T09:38:36.318Z</time>
      </trkpt>
      <trkpt lat="47.02229" lon="8.90299">
        <ele>1127</ele>
        <time>2021-08-03T09:38:37.317Z</time>
      </trkpt>
      <trkpt lat="47.02229" lon="8.90298">
        <ele>1126</ele>
        <time>2021-08-03T09:38:38.317Z</time>
      </trkpt>
      <trkpt lat="47.02229" lon="8.90296">
        <ele>1126</ele>
        <time>2021-08-03T09:38:39.317Z</time>
      </trkpt>
      <trkpt lat="47.02229" lon="8.90294">
        <ele>1126</ele>
        <time>2021-08-03T09:38:40.317Z</time>
      </trkpt>
      <trkpt lat="47.02229" lon="8.90293">
        <ele>1126</ele>
        <time>2021-08-03T09:38:41.317Z</time>
      </trkpt>
      <trkpt lat="47.02229" lon="8.90291">
        <ele>1125</ele>
        <time>2021-08-03T09:38:42.317Z</time>
      </trkpt>
      <trkpt lat="47.02228" lon="8.9029">
        <ele>1125</ele>
        <time>2021-08-03T09:38:43.318Z</time>
      </trkpt>
      <trkpt lat="47.02227" lon="8.90289">
        <ele>1125</ele>
        <time>2021-08-03T09:38:44.317Z</time>
      </trkpt>
      <trkpt lat="47.02227" lon="8.90287">
        <ele>1125</ele>
        <time>2021-08-03T09:38:45.318Z</time>
      </trkpt>
      <trkpt lat="47.02227" lon="8.90285">
        <ele>1125</ele>
        <time>2021-08-03T09:38:46.317Z</time>
      </trkpt>
      <trkpt lat="47.02227" lon="8.90283">
        <ele>1126</ele>
        <time>2021-08-03T09:38:47.317Z</time>
      </trkpt>
      <trkpt lat="47.02227" lon="8.90281">
        <ele>1126</ele>
        <time>2021-08-03T09:38:48.317Z</time>
      </trkpt>
      <trkpt lat="47.02226" lon="8.9028">
        <ele>1127</ele>
        <time>2021-08-03T09:38:49.317Z</time>
      </trkpt>
      <trkpt lat="47.02226" lon="8.90278">
        <ele>1127</ele>
        <time>2021-08-03T09:38:50.317Z</time>
      </trkpt>
      <trkpt lat="47.02226" lon="8.90277">
        <ele>1127</ele>
        <time>2021-08-03T09:38:51.318Z</time>
      </trkpt>
      <trkpt lat="47.02226" lon="8.90275">
        <ele>1127</ele>
        <time>2021-08-03T09:38:52.318Z</time>
      </trkpt>
      <trkpt lat="47.02226" lon="8.90273">
        <ele>1127</ele>
        <time>2021-08-03T09:38:53.317Z</time>
      </trkpt>
      <trkpt lat="47.02226" lon="8.90271">
        <ele>1127</ele>
        <time>2021-08-03T09:38:54.318Z</time>
      </trkpt>
      <trkpt lat="47.02226" lon="8.90269">
        <ele>1127</ele>
        <time>2021-08-03T09:38:55.318Z</time>
      </trkpt>
      <trkpt lat="47.02226" lon="8.90267">
        <ele>1126</ele>
        <time>2021-08-03T09:38:56.317Z</time>
      </trkpt>
      <trkpt lat="47.02226" lon="8.90265">
        <ele>1126</ele>
        <time>2021-08-03T09:38:57.318Z</time>
      </trkpt>
      <trkpt lat="47.02226" lon="8.90263">
        <ele>1126</ele>
        <time>2021-08-03T09:38:58.317Z</time>
      </trkpt>
      <trkpt lat="47.02226" lon="8.90261">
        <ele>1126</ele>
        <time>2021-08-03T09:38:59.317Z</time>
      </trkpt>
      <trkpt lat="47.02226" lon="8.9026">
        <ele>1126</ele>
        <time>2021-08-03T09:39:00.317Z</time>
      </trkpt>
      <trkpt lat="47.02226" lon="8.90258">
        <ele>1126</ele>
        <time>2021-08-03T09:39:01.317Z</time>
      </trkpt>
      <trkpt lat="47.02227" lon="8.90257">
        <ele>1126</ele>
        <time>2021-08-03T09:39:02.317Z</time>
      </trkpt>
      <trkpt lat="47.02226" lon="8.90255">
        <ele>1126</ele>
        <time>2021-08-03T09:39:03.317Z</time>
      </trkpt>
      <trkpt lat="47.02226" lon="8.90253">
        <ele>1126</ele>
        <time>2021-08-03T09:39:04.317Z</time>
      </trkpt>
      <trkpt lat="47.02226" lon="8.90251">
        <ele>1126</ele>
        <time>2021-08-03T09:39:05.317Z</time>
      </trkpt>
      <trkpt lat="47.02226" lon="8.9025">
        <ele>1126</ele>
        <time>2021-08-03T09:39:06.317Z</time>
      </trkpt>
      <trkpt lat="47.02225" lon="8.90248">
        <ele>1126</ele>
        <time>2021-08-03T09:39:07.317Z</time>
      </trkpt>
      <trkpt lat="47.02225" lon="8.90246">
        <ele>1126</ele>
        <time>2021-08-03T09:39:08.318Z</time>
      </trkpt>
      <trkpt lat="47.02225" lon="8.90244">
        <ele>1126</ele>
        <time>2021-08-03T09:39:09.318Z</time>
      </trkpt>
      <trkpt lat="47.02224" lon="8.90242">
        <ele>1126</ele>
        <time>2021-08-03T09:39:10.318Z</time>
      </trkpt>
      <trkpt lat="47.02224" lon="8.9024">
        <ele>1126</ele>
        <time>2021-08-03T09:39:11.317Z</time>
      </trkpt>
      <trkpt lat="47.02224" lon="8.90239">
        <ele>1126</ele>
        <time>2021-08-03T09:39:12.317Z</time>
      </trkpt>
      <trkpt lat="47.02223" lon="8.90237">
        <ele>1126</ele>
        <time>2021-08-03T09:39:13.317Z</time>
      </trkpt>
      <trkpt lat="47.02223" lon="8.90236">
        <ele>1126</ele>
        <time>2021-08-03T09:39:14.317Z</time>
      </trkpt>
      <trkpt lat="47.02223" lon="8.90234">
        <ele>1126</ele>
        <time>2021-08-03T09:39:15.317Z</time>
      </trkpt>
      <trkpt lat="47.02223" lon="8.90232">
        <ele>1126</ele>
        <time>2021-08-03T09:39:16.318Z</time>
      </trkpt>
      <trkpt lat="47.02222" lon="8.90231">
        <ele>1125</ele>
        <time>2021-08-03T09:39:17.318Z</time>
      </trkpt>
      <trkpt lat="47.02222" lon="8.90229">
        <ele>1125</ele>
        <time>2021-08-03T09:39:18.318Z</time>
      </trkpt>
      <trkpt lat="47.02222" lon="8.90227">
        <ele>1125</ele>
        <time>2021-08-03T09:39:19.317Z</time>
      </trkpt>
      <trkpt lat="47.02222" lon="8.90225">
        <ele>1126</ele>
        <time>2021-08-03T09:39:20.317Z</time>
      </trkpt>
      <trkpt lat="47.02222" lon="8.90224">
        <ele>1126</ele>
        <time>2021-08-03T09:39:21.318Z</time>
      </trkpt>
      <trkpt lat="47.02221" lon="8.90222">
        <ele>1126</ele>
        <time>2021-08-03T09:39:22.317Z</time>
      </trkpt>
      <trkpt lat="47.02221" lon="8.9022">
        <ele>1126</ele>
        <time>2021-08-03T09:39:23.317Z</time>
      </trkpt>
      <trkpt lat="47.02221" lon="8.90219">
        <ele>1126</ele>
        <time>2021-08-03T09:39:24.317Z</time>
      </trkpt>
      <trkpt lat="47.02221" lon="8.90217">
        <ele>1126</ele>
        <time>2021-08-03T09:39:25.317Z</time>
      </trkpt>
      <trkpt lat="47.02221" lon="8.90216">
        <ele>1126</ele>
        <time>2021-08-03T09:39:26.317Z</time>
      </trkpt>
      <trkpt lat="47.02221" lon="8.90214">
        <ele>1125</ele>
        <time>2021-08-03T09:39:27.317Z</time>
      </trkpt>
      <trkpt lat="47.02221" lon="8.90212">
        <ele>1126</ele>
        <time>2021-08-03T09:39:28.317Z</time>
      </trkpt>
      <trkpt lat="47.0222" lon="8.9021">
        <ele>1126</ele>
        <time>2021-08-03T09:39:29.318Z</time>
      </trkpt>
      <trkpt lat="47.0222" lon="8.90209">
        <ele>1126</ele>
        <time>2021-08-03T09:39:30.317Z</time>
      </trkpt>
      <trkpt lat="47.0222" lon="8.90208">
        <ele>1125</ele>
        <time>2021-08-03T09:39:31.317Z</time>
      </trkpt>
      <trkpt lat="47.0222" lon="8.90206">
        <ele>1125</ele>
        <time>2021-08-03T09:39:32.318Z</time>
      </trkpt>
      <trkpt lat="47.0222" lon="8.90204">
        <ele>1124</ele>
        <time>2021-08-03T09:39:33.317Z</time>
      </trkpt>
      <trkpt lat="47.0222" lon="8.90202">
        <ele>1124</ele>
        <time>2021-08-03T09:39:34.317Z</time>
      </trkpt>
      <trkpt lat="47.02219" lon="8.90201">
        <ele>1124</ele>
        <time>2021-08-03T09:39:35.317Z</time>
      </trkpt>
      <trkpt lat="47.02218" lon="8.90199">
        <ele>1124</ele>
        <time>2021-08-03T09:39:36.317Z</time>
      </trkpt>
      <trkpt lat="47.02217" lon="8.90198">
        <ele>1124</ele>
        <time>2021-08-03T09:39:37.317Z</time>
      </trkpt>
      <trkpt lat="47.02216" lon="8.90196">
        <ele>1124</ele>
        <time>2021-08-03T09:39:38.317Z</time>
      </trkpt>
      <trkpt lat="47.02216" lon="8.90195">
        <ele>1125</ele>
        <time>2021-08-03T09:39:39.318Z</time>
      </trkpt>
      <trkpt lat="47.02215" lon="8.90192">
        <ele>1125</ele>
        <time>2021-08-03T09:39:40.317Z</time>
      </trkpt>
      <trkpt lat="47.02214" lon="8.90191">
        <ele>1125</ele>
        <time>2021-08-03T09:39:41.317Z</time>
      </trkpt>
      <trkpt lat="47.02213" lon="8.9019">
        <ele>1126</ele>
        <time>2021-08-03T09:39:42.317Z</time>
      </trkpt>
      <trkpt lat="47.02212" lon="8.90188">
        <ele>1126</ele>
        <time>2021-08-03T09:39:43.317Z</time>
      </trkpt>
      <trkpt lat="47.02211" lon="8.90186">
        <ele>1127</ele>
        <time>2021-08-03T09:39:44.318Z</time>
      </trkpt>
      <trkpt lat="47.0221" lon="8.90184">
        <ele>1128</ele>
        <time>2021-08-03T09:39:45.317Z</time>
      </trkpt>
      <trkpt lat="47.02209" lon="8.90182">
        <ele>1128</ele>
        <time>2021-08-03T09:39:46.318Z</time>
      </trkpt>
      <trkpt lat="47.02209" lon="8.90181">
        <ele>1129</ele>
        <time>2021-08-03T09:39:47.317Z</time>
      </trkpt>
      <trkpt lat="47.02209" lon="8.9018">
        <ele>1128</ele>
        <time>2021-08-03T09:39:48.317Z</time>
      </trkpt>
      <trkpt lat="47.02208" lon="8.90178">
        <ele>1128</ele>
        <time>2021-08-03T09:39:49.317Z</time>
      </trkpt>
      <trkpt lat="47.02207" lon="8.90177">
        <ele>1128</ele>
        <time>2021-08-03T09:39:50.318Z</time>
      </trkpt>
      <trkpt lat="47.02206" lon="8.90176">
        <ele>1128</ele>
        <time>2021-08-03T09:39:51.317Z</time>
      </trkpt>
      <trkpt lat="47.02205" lon="8.90175">
        <ele>1129</ele>
        <time>2021-08-03T09:39:52.317Z</time>
      </trkpt>
      <trkpt lat="47.02204" lon="8.90173">
        <ele>1129</ele>
        <time>2021-08-03T09:39:53.318Z</time>
      </trkpt>
      <trkpt lat="47.02203" lon="8.90172">
        <ele>1129</ele>
        <time>2021-08-03T09:39:54.317Z</time>
      </trkpt>
      <trkpt lat="47.02202" lon="8.9017">
        <ele>1129</ele>
        <time>2021-08-03T09:39:55.317Z</time>
      </trkpt>
      <trkpt lat="47.02201" lon="8.90169">
        <ele>1129</ele>
        <time>2021-08-03T09:39:56.317Z</time>
      </trkpt>
      <trkpt lat="47.02199" lon="8.90168">
        <ele>1129</ele>
        <time>2021-08-03T09:39:57.318Z</time>
      </trkpt>
      <trkpt lat="47.02198" lon="8.90166">
        <ele>1129</ele>
        <time>2021-08-03T09:39:58.318Z</time>
      </trkpt>
      <trkpt lat="47.02197" lon="8.90164">
        <ele>1129</ele>
        <time>2021-08-03T09:39:59.318Z</time>
      </trkpt>
      <trkpt lat="47.02196" lon="8.90163">
        <ele>1129</ele>
        <time>2021-08-03T09:40:00.317Z</time>
      </trkpt>
      <trkpt lat="47.02195" lon="8.90162">
        <ele>1129</ele>
        <time>2021-08-03T09:40:01.317Z</time>
      </trkpt>
      <trkpt lat="47.02194" lon="8.9016">
        <ele>1130</ele>
        <time>2021-08-03T09:40:02.318Z</time>
      </trkpt>
      <trkpt lat="47.02193" lon="8.90159">
        <ele>1130</ele>
        <time>2021-08-03T09:40:03.317Z</time>
      </trkpt>
      <trkpt lat="47.02192" lon="8.90158">
        <ele>1131</ele>
        <time>2021-08-03T09:40:04.317Z</time>
      </trkpt>
      <trkpt lat="47.0219" lon="8.90157">
        <ele>1132</ele>
        <time>2021-08-03T09:40:05.318Z</time>
      </trkpt>
      <trkpt lat="47.02189" lon="8.90156">
        <ele>1133</ele>
        <time>2021-08-03T09:40:06.318Z</time>
      </trkpt>
      <trkpt lat="47.02188" lon="8.90155">
        <ele>1133</ele>
        <time>2021-08-03T09:40:07.317Z</time>
      </trkpt>
      <trkpt lat="47.02188" lon="8.90154">
        <ele>1134</ele>
        <time>2021-08-03T09:40:08.317Z</time>
      </trkpt>
      <trkpt lat="47.02187" lon="8.90153">
        <ele>1135</ele>
        <time>2021-08-03T09:40:09.317Z</time>
      </trkpt>
      <trkpt lat="47.02186" lon="8.90152">
        <ele>1136</ele>
        <time>2021-08-03T09:40:10.318Z</time>
      </trkpt>
      <trkpt lat="47.02184" lon="8.90151">
        <ele>1138</ele>
        <time>2021-08-03T09:40:11.318Z</time>
      </trkpt>
      <trkpt lat="47.02183" lon="8.9015">
        <ele>1139</ele>
        <time>2021-08-03T09:40:12.317Z</time>
      </trkpt>
      <trkpt lat="47.02182" lon="8.90149">
        <ele>1140</ele>
        <time>2021-08-03T09:40:13.317Z</time>
      </trkpt>
      <trkpt lat="47.02181" lon="8.90148">
        <ele>1140</ele>
        <time>2021-08-03T09:40:14.317Z</time>
      </trkpt>
      <trkpt lat="47.0218" lon="8.90147">
        <ele>1140</ele>
        <time>2021-08-03T09:40:15.318Z</time>
      </trkpt>
      <trkpt lat="47.02179" lon="8.90147">
        <ele>1140</ele>
        <time>2021-08-03T09:40:16.317Z</time>
      </trkpt>
      <trkpt lat="47.02178" lon="8.90146">
        <ele>1140</ele>
        <time>2021-08-03T09:40:17.318Z</time>
      </trkpt>
      <trkpt lat="47.02177" lon="8.90145">
        <ele>1140</ele>
        <time>2021-08-03T09:40:18.318Z</time>
      </trkpt>
      <trkpt lat="47.02175" lon="8.90144">
        <ele>1140</ele>
        <time>2021-08-03T09:40:19.318Z</time>
      </trkpt>
      <trkpt lat="47.02173" lon="8.90143">
        <ele>1140</ele>
        <time>2021-08-03T09:40:20.318Z</time>
      </trkpt>
      <trkpt lat="47.02172" lon="8.90142">
        <ele>1140</ele>
        <time>2021-08-03T09:40:21.317Z</time>
      </trkpt>
      <trkpt lat="47.0217" lon="8.90141">
        <ele>1140</ele>
        <time>2021-08-03T09:40:22.317Z</time>
      </trkpt>
      <trkpt lat="47.02169" lon="8.9014">
        <ele>1140</ele>
        <time>2021-08-03T09:40:23.318Z</time>
      </trkpt>
      <trkpt lat="47.02168" lon="8.90139">
        <ele>1141</ele>
        <time>2021-08-03T09:40:24.317Z</time>
      </trkpt>
      <trkpt lat="47.02166" lon="8.90138">
        <ele>1141</ele>
        <time>2021-08-03T09:40:25.317Z</time>
      </trkpt>
      <trkpt lat="47.02165" lon="8.90138">
        <ele>1141</ele>
        <time>2021-08-03T09:40:26.317Z</time>
      </trkpt>
      <trkpt lat="47.02164" lon="8.90137">
        <ele>1141</ele>
        <time>2021-08-03T09:40:27.317Z</time>
      </trkpt>
      <trkpt lat="47.02163" lon="8.90137">
        <ele>1140</ele>
        <time>2021-08-03T09:40:28.317Z</time>
      </trkpt>
      <trkpt lat="47.02162" lon="8.90136">
        <ele>1140</ele>
        <time>2021-08-03T09:40:29.318Z</time>
      </trkpt>
      <trkpt lat="47.02161" lon="8.90135">
        <ele>1139</ele>
        <time>2021-08-03T09:40:30.317Z</time>
      </trkpt>
      <trkpt lat="47.0216" lon="8.90134">
        <ele>1139</ele>
        <time>2021-08-03T09:40:31.317Z</time>
      </trkpt>
      <trkpt lat="47.02158" lon="8.90133">
        <ele>1140</ele>
        <time>2021-08-03T09:40:32.317Z</time>
      </trkpt>
      <trkpt lat="47.02156" lon="8.90132">
        <ele>1140</ele>
        <time>2021-08-03T09:40:33.317Z</time>
      </trkpt>
      <trkpt lat="47.02155" lon="8.90131">
        <ele>1141</ele>
        <time>2021-08-03T09:40:34.317Z</time>
      </trkpt>
      <trkpt lat="47.02153" lon="8.9013">
        <ele>1142</ele>
        <time>2021-08-03T09:40:35.317Z</time>
      </trkpt>
      <trkpt lat="47.02151" lon="8.90129">
        <ele>1142</ele>
        <time>2021-08-03T09:40:36.318Z</time>
      </trkpt>
      <trkpt lat="47.02149" lon="8.90128">
        <ele>1143</ele>
        <time>2021-08-03T09:40:37.317Z</time>
      </trkpt>
      <trkpt lat="47.02148" lon="8.90127">
        <ele>1142</ele>
        <time>2021-08-03T09:40:38.317Z</time>
      </trkpt>
      <trkpt lat="47.02147" lon="8.90127">
        <ele>1142</ele>
        <time>2021-08-03T09:40:39.317Z</time>
      </trkpt>
      <trkpt lat="47.02146" lon="8.90127">
        <ele>1141</ele>
        <time>2021-08-03T09:40:40.317Z</time>
      </trkpt>
      <trkpt lat="47.02145" lon="8.90126">
        <ele>1140</ele>
        <time>2021-08-03T09:40:41.317Z</time>
      </trkpt>
      <trkpt lat="47.02143" lon="8.90126">
        <ele>1140</ele>
        <time>2021-08-03T09:40:42.317Z</time>
      </trkpt>
      <trkpt lat="47.02143" lon="8.90125">
        <ele>1140</ele>
        <time>2021-08-03T09:40:43.317Z</time>
      </trkpt>
      <trkpt lat="47.02142" lon="8.90124">
        <ele>1139</ele>
        <time>2021-08-03T09:40:44.317Z</time>
      </trkpt>
      <trkpt lat="47.02141" lon="8.90124">
        <ele>1139</ele>
        <time>2021-08-03T09:40:45.317Z</time>
      </trkpt>
      <trkpt lat="47.0214" lon="8.90123">
        <ele>1140</ele>
        <time>2021-08-03T09:40:46.318Z</time>
      </trkpt>
      <trkpt lat="47.02139" lon="8.90123">
        <ele>1140</ele>
        <time>2021-08-03T09:40:47.317Z</time>
      </trkpt>
      <trkpt lat="47.02138" lon="8.90122">
        <ele>1140</ele>
        <time>2021-08-03T09:40:48.317Z</time>
      </trkpt>
      <trkpt lat="47.02137" lon="8.90121">
        <ele>1140</ele>
        <time>2021-08-03T09:40:49.317Z</time>
      </trkpt>
      <trkpt lat="47.02136" lon="8.90121">
        <ele>1140</ele>
        <time>2021-08-03T09:40:50.318Z</time>
      </trkpt>
      <trkpt lat="47.02134" lon="8.9012">
        <ele>1140</ele>
        <time>2021-08-03T09:40:51.318Z</time>
      </trkpt>
      <trkpt lat="47.02133" lon="8.9012">
        <ele>1141</ele>
        <time>2021-08-03T09:40:52.317Z</time>
      </trkpt>
      <trkpt lat="47.02132" lon="8.9012">
        <ele>1141</ele>
        <time>2021-08-03T09:40:53.317Z</time>
      </trkpt>
      <trkpt lat="47.02131" lon="8.90119">
        <ele>1141</ele>
        <time>2021-08-03T09:40:54.317Z</time>
      </trkpt>
      <trkpt lat="47.02129" lon="8.90118">
        <ele>1142</ele>
        <time>2021-08-03T09:40:55.317Z</time>
      </trkpt>
      <trkpt lat="47.02129" lon="8.90118">
        <ele>1142</ele>
        <time>2021-08-03T09:40:56.317Z</time>
      </trkpt>
      <trkpt lat="47.02127" lon="8.90118">
        <ele>1142</ele>
        <time>2021-08-03T09:40:57.317Z</time>
      </trkpt>
      <trkpt lat="47.02126" lon="8.90117">
        <ele>1142</ele>
        <time>2021-08-03T09:40:58.317Z</time>
      </trkpt>
      <trkpt lat="47.02126" lon="8.90117">
        <ele>1142</ele>
        <time>2021-08-03T09:40:59.318Z</time>
      </trkpt>
      <trkpt lat="47.02125" lon="8.90117">
        <ele>1142</ele>
        <time>2021-08-03T09:41:00.317Z</time>
      </trkpt>
      <trkpt lat="47.02124" lon="8.90117">
        <ele>1142</ele>
        <time>2021-08-03T09:41:01.317Z</time>
      </trkpt>
      <trkpt lat="47.02123" lon="8.90118">
        <ele>1141</ele>
        <time>2021-08-03T09:41:02.317Z</time>
      </trkpt>
      <trkpt lat="47.02122" lon="8.90118">
        <ele>1141</ele>
        <time>2021-08-03T09:41:03.317Z</time>
      </trkpt>
      <trkpt lat="47.02121" lon="8.90118">
        <ele>1141</ele>
        <time>2021-08-03T09:41:04.317Z</time>
      </trkpt>
      <trkpt lat="47.02119" lon="8.90117">
        <ele>1140</ele>
        <time>2021-08-03T09:41:05.317Z</time>
      </trkpt>
      <trkpt lat="47.02118" lon="8.90117">
        <ele>1140</ele>
        <time>2021-08-03T09:41:06.317Z</time>
      </trkpt>
      <trkpt lat="47.02117" lon="8.90117">
        <ele>1141</ele>
        <time>2021-08-03T09:41:07.317Z</time>
      </trkpt>
      <trkpt lat="47.02116" lon="8.90116">
        <ele>1141</ele>
        <time>2021-08-03T09:41:08.317Z</time>
      </trkpt>
      <trkpt lat="47.02115" lon="8.90115">
        <ele>1141</ele>
        <time>2021-08-03T09:41:09.317Z</time>
      </trkpt>
      <trkpt lat="47.02114" lon="8.90114">
        <ele>1142</ele>
        <time>2021-08-03T09:41:10.317Z</time>
      </trkpt>
      <trkpt lat="47.02113" lon="8.90113">
        <ele>1143</ele>
        <time>2021-08-03T09:41:11.317Z</time>
      </trkpt>
      <trkpt lat="47.02112" lon="8.90112">
        <ele>1144</ele>
        <time>2021-08-03T09:41:12.317Z</time>
      </trkpt>
      <trkpt lat="47.02111" lon="8.90112">
        <ele>1144</ele>
        <time>2021-08-03T09:41:13.317Z</time>
      </trkpt>
      <trkpt lat="47.02109" lon="8.90111">
        <ele>1145</ele>
        <time>2021-08-03T09:41:14.317Z</time>
      </trkpt>
      <trkpt lat="47.02108" lon="8.9011">
        <ele>1145</ele>
        <time>2021-08-03T09:41:15.317Z</time>
      </trkpt>
      <trkpt lat="47.02107" lon="8.9011">
        <ele>1146</ele>
        <time>2021-08-03T09:41:16.317Z</time>
      </trkpt>
      <trkpt lat="47.02106" lon="8.9011">
        <ele>1146</ele>
        <time>2021-08-03T09:41:17.317Z</time>
      </trkpt>
      <trkpt lat="47.02105" lon="8.90109">
        <ele>1146</ele>
        <time>2021-08-03T09:41:18.317Z</time>
      </trkpt>
      <trkpt lat="47.02104" lon="8.90108">
        <ele>1146</ele>
        <time>2021-08-03T09:41:19.317Z</time>
      </trkpt>
      <trkpt lat="47.02103" lon="8.90107">
        <ele>1146</ele>
        <time>2021-08-03T09:41:20.317Z</time>
      </trkpt>
      <trkpt lat="47.02102" lon="8.90106">
        <ele>1146</ele>
        <time>2021-08-03T09:41:21.317Z</time>
      </trkpt>
      <trkpt lat="47.02101" lon="8.90106">
        <ele>1146</ele>
        <time>2021-08-03T09:41:22.317Z</time>
      </trkpt>
      <trkpt lat="47.02101" lon="8.90106">
        <ele>1146</ele>
        <time>2021-08-03T09:41:23.317Z</time>
      </trkpt>
      <trkpt lat="47.02102" lon="8.90107">
        <ele>1146</ele>
        <time>2021-08-03T09:41:24.318Z</time>
      </trkpt>
      <trkpt lat="47.02101" lon="8.90105">
        <ele>1146</ele>
        <time>2021-08-03T09:41:25.318Z</time>
      </trkpt>
      <trkpt lat="47.02101" lon="8.90106">
        <ele>1144</ele>
        <time>2021-08-03T09:41:26.320Z</time>
      </trkpt>
      <trkpt lat="47.02102" lon="8.90107">
        <ele>1140</ele>
        <time>2021-08-03T09:41:27.319Z</time>
      </trkpt>
      <trkpt lat="47.02102" lon="8.90108">
        <ele>1139</ele>
        <time>2021-08-03T09:41:28.319Z</time>
      </trkpt>
      <trkpt lat="47.02102" lon="8.90109">
        <ele>1139</ele>
        <time>2021-08-03T09:41:29.319Z</time>
      </trkpt>
      <trkpt lat="47.02102" lon="8.9011">
        <ele>1138</ele>
        <time>2021-08-03T09:41:30.320Z</time>
      </trkpt>
      <trkpt lat="47.02102" lon="8.90111">
        <ele>1137</ele>
        <time>2021-08-03T09:41:31.320Z</time>
      </trkpt>
      <trkpt lat="47.02101" lon="8.90112">
        <ele>1137</ele>
        <time>2021-08-03T09:41:32.320Z</time>
      </trkpt>
      <trkpt lat="47.02101" lon="8.90113">
        <ele>1137</ele>
        <time>2021-08-03T09:41:33.320Z</time>
      </trkpt>
      <trkpt lat="47.02101" lon="8.90114">
        <ele>1137</ele>
        <time>2021-08-03T09:41:34.319Z</time>
      </trkpt>
      <trkpt lat="47.021" lon="8.90115">
        <ele>1136</ele>
        <time>2021-08-03T09:41:35.319Z</time>
      </trkpt>
      <trkpt lat="47.02101" lon="8.90116">
        <ele>1136</ele>
        <time>2021-08-03T09:41:36.319Z</time>
      </trkpt>
      <trkpt lat="47.02101" lon="8.90117">
        <ele>1136</ele>
        <time>2021-08-03T09:41:37.319Z</time>
      </trkpt>
      <trkpt lat="47.02101" lon="8.90118">
        <ele>1136</ele>
        <time>2021-08-03T09:41:38.319Z</time>
      </trkpt>
      <trkpt lat="47.02101" lon="8.90119">
        <ele>1136</ele>
        <time>2021-08-03T09:41:39.319Z</time>
      </trkpt>
      <trkpt lat="47.02101" lon="8.90119">
        <ele>1136</ele>
        <time>2021-08-03T09:41:40.320Z</time>
      </trkpt>
      <trkpt lat="47.02101" lon="8.9012">
        <ele>1137</ele>
        <time>2021-08-03T09:41:41.319Z</time>
      </trkpt>
      <trkpt lat="47.021" lon="8.9012">
        <ele>1137</ele>
        <time>2021-08-03T09:41:42.320Z</time>
      </trkpt>
      <trkpt lat="47.021" lon="8.90119">
        <ele>1137</ele>
        <time>2021-08-03T09:41:43.320Z</time>
      </trkpt>
      <trkpt lat="47.021" lon="8.90118">
        <ele>1137</ele>
        <time>2021-08-03T09:41:44.320Z</time>
      </trkpt>
      <trkpt lat="47.02101" lon="8.90117">
        <ele>1137</ele>
        <time>2021-08-03T09:41:45.320Z</time>
      </trkpt>
      <trkpt lat="47.02101" lon="8.90116">
        <ele>1136</ele>
        <time>2021-08-03T09:41:46.320Z</time>
      </trkpt>
      <trkpt lat="47.02101" lon="8.90116">
        <ele>1136</ele>
        <time>2021-08-03T09:41:47.319Z</time>
      </trkpt>
      <trkpt lat="47.021" lon="8.90111">
        <ele>1133</ele>
        <time>2021-08-03T09:41:48.321Z</time>
      </trkpt>
      <trkpt lat="47.02099" lon="8.90111">
        <ele>1133</ele>
        <time>2021-08-03T09:41:49.320Z</time>
      </trkpt>
      <trkpt lat="47.02098" lon="8.90111">
        <ele>1134</ele>
        <time>2021-08-03T09:41:50.320Z</time>
      </trkpt>
      <trkpt lat="47.02097" lon="8.90111">
        <ele>1134</ele>
        <time>2021-08-03T09:41:51.320Z</time>
      </trkpt>
      <trkpt lat="47.02096" lon="8.90111">
        <ele>1135</ele>
        <time>2021-08-03T09:41:52.321Z</time>
      </trkpt>
      <trkpt lat="47.02094" lon="8.90111">
        <ele>1135</ele>
        <time>2021-08-03T09:41:53.320Z</time>
      </trkpt>
      <trkpt lat="47.02092" lon="8.9011">
        <ele>1136</ele>
        <time>2021-08-03T09:41:54.320Z</time>
      </trkpt>
      <trkpt lat="47.02091" lon="8.90109">
        <ele>1136</ele>
        <time>2021-08-03T09:41:55.320Z</time>
      </trkpt>
      <trkpt lat="47.0209" lon="8.90108">
        <ele>1137</ele>
        <time>2021-08-03T09:41:56.320Z</time>
      </trkpt>
      <trkpt lat="47.02089" lon="8.90107">
        <ele>1138</ele>
        <time>2021-08-03T09:41:57.320Z</time>
      </trkpt>
      <trkpt lat="47.02088" lon="8.90107">
        <ele>1138</ele>
        <time>2021-08-03T09:41:58.320Z</time>
      </trkpt>
      <trkpt lat="47.02086" lon="8.90107">
        <ele>1139</ele>
        <time>2021-08-03T09:41:59.320Z</time>
      </trkpt>
      <trkpt lat="47.02084" lon="8.90106">
        <ele>1139</ele>
        <time>2021-08-03T09:42:00.320Z</time>
      </trkpt>
      <trkpt lat="47.02083" lon="8.90106">
        <ele>1140</ele>
        <time>2021-08-03T09:42:01.320Z</time>
      </trkpt>
      <trkpt lat="47.02082" lon="8.90105">
        <ele>1141</ele>
        <time>2021-08-03T09:42:02.321Z</time>
      </trkpt>
      <trkpt lat="47.02081" lon="8.90105">
        <ele>1141</ele>
        <time>2021-08-03T09:42:03.320Z</time>
      </trkpt>
      <trkpt lat="47.0208" lon="8.90106">
        <ele>1142</ele>
        <time>2021-08-03T09:42:04.321Z</time>
      </trkpt>
      <trkpt lat="47.02079" lon="8.90106">
        <ele>1144</ele>
        <time>2021-08-03T09:42:05.320Z</time>
      </trkpt>
      <trkpt lat="47.02078" lon="8.90106">
        <ele>1144</ele>
        <time>2021-08-03T09:42:06.320Z</time>
      </trkpt>
      <trkpt lat="47.02077" lon="8.90106">
        <ele>1144</ele>
        <time>2021-08-03T09:42:07.321Z</time>
      </trkpt>
      <trkpt lat="47.02076" lon="8.90107">
        <ele>1144</ele>
        <time>2021-08-03T09:42:08.320Z</time>
      </trkpt>
      <trkpt lat="47.02075" lon="8.90107">
        <ele>1145</ele>
        <time>2021-08-03T09:42:09.320Z</time>
      </trkpt>
      <trkpt lat="47.02074" lon="8.90107">
        <ele>1144</ele>
        <time>2021-08-03T09:42:10.320Z</time>
      </trkpt>
      <trkpt lat="47.02073" lon="8.90107">
        <ele>1144</ele>
        <time>2021-08-03T09:42:11.320Z</time>
      </trkpt>
      <trkpt lat="47.02072" lon="8.90108">
        <ele>1144</ele>
        <time>2021-08-03T09:42:12.320Z</time>
      </trkpt>
      <trkpt lat="47.02071" lon="8.90108">
        <ele>1144</ele>
        <time>2021-08-03T09:42:13.320Z</time>
      </trkpt>
      <trkpt lat="47.0207" lon="8.90108">
        <ele>1143</ele>
        <time>2021-08-03T09:42:14.321Z</time>
      </trkpt>
      <trkpt lat="47.02069" lon="8.90108">
        <ele>1143</ele>
        <time>2021-08-03T09:42:15.321Z</time>
      </trkpt>
      <trkpt lat="47.02068" lon="8.90108">
        <ele>1143</ele>
        <time>2021-08-03T09:42:16.321Z</time>
      </trkpt>
      <trkpt lat="47.02066" lon="8.90109">
        <ele>1143</ele>
        <time>2021-08-03T09:42:17.320Z</time>
      </trkpt>
      <trkpt lat="47.02065" lon="8.9011">
        <ele>1143</ele>
        <time>2021-08-03T09:42:18.321Z</time>
      </trkpt>
      <trkpt lat="47.02065" lon="8.90111">
        <ele>1143</ele>
        <time>2021-08-03T09:42:19.321Z</time>
      </trkpt>
      <trkpt lat="47.02064" lon="8.90111">
        <ele>1142</ele>
        <time>2021-08-03T09:42:20.320Z</time>
      </trkpt>
      <trkpt lat="47.02064" lon="8.90112">
        <ele>1142</ele>
        <time>2021-08-03T09:42:21.321Z</time>
      </trkpt>
      <trkpt lat="47.02063" lon="8.90112">
        <ele>1141</ele>
        <time>2021-08-03T09:42:22.320Z</time>
      </trkpt>
      <trkpt lat="47.02062" lon="8.90112">
        <ele>1140</ele>
        <time>2021-08-03T09:42:23.321Z</time>
      </trkpt>
      <trkpt lat="47.02061" lon="8.90112">
        <ele>1140</ele>
        <time>2021-08-03T09:42:24.320Z</time>
      </trkpt>
      <trkpt lat="47.0206" lon="8.90111">
        <ele>1139</ele>
        <time>2021-08-03T09:42:25.320Z</time>
      </trkpt>
      <trkpt lat="47.02058" lon="8.90111">
        <ele>1139</ele>
        <time>2021-08-03T09:42:26.320Z</time>
      </trkpt>
      <trkpt lat="47.02057" lon="8.90112">
        <ele>1139</ele>
        <time>2021-08-03T09:42:27.320Z</time>
      </trkpt>
      <trkpt lat="47.02056" lon="8.90112">
        <ele>1138</ele>
        <time>2021-08-03T09:42:28.321Z</time>
      </trkpt>
      <trkpt lat="47.02055" lon="8.90113">
        <ele>1138</ele>
        <time>2021-08-03T09:42:29.320Z</time>
      </trkpt>
      <trkpt lat="47.02055" lon="8.90113">
        <ele>1137</ele>
        <time>2021-08-03T09:42:30.321Z</time>
      </trkpt>
      <trkpt lat="47.02054" lon="8.90113">
        <ele>1137</ele>
        <time>2021-08-03T09:42:31.320Z</time>
      </trkpt>
      <trkpt lat="47.02053" lon="8.90113">
        <ele>1136</ele>
        <time>2021-08-03T09:42:32.321Z</time>
      </trkpt>
      <trkpt lat="47.02052" lon="8.90113">
        <ele>1136</ele>
        <time>2021-08-03T09:42:33.321Z</time>
      </trkpt>
      <trkpt lat="47.02051" lon="8.90113">
        <ele>1135</ele>
        <time>2021-08-03T09:42:34.320Z</time>
      </trkpt>
      <trkpt lat="47.0205" lon="8.90113">
        <ele>1135</ele>
        <time>2021-08-03T09:42:35.320Z</time>
      </trkpt>
      <trkpt lat="47.0205" lon="8.90113">
        <ele>1135</ele>
        <time>2021-08-03T09:42:36.320Z</time>
      </trkpt>
      <trkpt lat="47.0205" lon="8.90113">
        <ele>1135</ele>
        <time>2021-08-03T09:42:37.321Z</time>
      </trkpt>
      <trkpt lat="47.02049" lon="8.90114">
        <ele>1134</ele>
        <time>2021-08-03T09:42:38.321Z</time>
      </trkpt>
      <trkpt lat="47.02049" lon="8.90113">
        <ele>1134</ele>
        <time>2021-08-03T09:42:39.320Z</time>
      </trkpt>
      <trkpt lat="47.02049" lon="8.90112">
        <ele>1134</ele>
        <time>2021-08-03T09:42:40.320Z</time>
      </trkpt>
      <trkpt lat="47.02048" lon="8.90112">
        <ele>1134</ele>
        <time>2021-08-03T09:42:41.321Z</time>
      </trkpt>
      <trkpt lat="47.02047" lon="8.90111">
        <ele>1134</ele>
        <time>2021-08-03T09:42:42.320Z</time>
      </trkpt>
      <trkpt lat="47.02047" lon="8.9011">
        <ele>1134</ele>
        <time>2021-08-03T09:42:43.320Z</time>
      </trkpt>
      <trkpt lat="47.02046" lon="8.9011">
        <ele>1135</ele>
        <time>2021-08-03T09:42:44.321Z</time>
      </trkpt>
      <trkpt lat="47.02046" lon="8.90109">
        <ele>1135</ele>
        <time>2021-08-03T09:42:45.320Z</time>
      </trkpt>
      <trkpt lat="47.02046" lon="8.90108">
        <ele>1135</ele>
        <time>2021-08-03T09:42:46.321Z</time>
      </trkpt>
      <trkpt lat="47.02045" lon="8.90107">
        <ele>1136</ele>
        <time>2021-08-03T09:42:47.320Z</time>
      </trkpt>
      <trkpt lat="47.02045" lon="8.90107">
        <ele>1136</ele>
        <time>2021-08-03T09:42:48.320Z</time>
      </trkpt>
      <trkpt lat="47.02044" lon="8.90107">
        <ele>1136</ele>
        <time>2021-08-03T09:42:49.321Z</time>
      </trkpt>
      <trkpt lat="47.02044" lon="8.90107">
        <ele>1136</ele>
        <time>2021-08-03T09:42:50.320Z</time>
      </trkpt>
      <trkpt lat="47.02043" lon="8.90112">
        <ele>1136</ele>
        <time>2021-08-03T09:42:51.320Z</time>
      </trkpt>
      <trkpt lat="47.02042" lon="8.90113">
        <ele>1137</ele>
        <time>2021-08-03T09:42:52.320Z</time>
      </trkpt>
      <trkpt lat="47.02042" lon="8.90113">
        <ele>1137</ele>
        <time>2021-08-03T09:42:53.321Z</time>
      </trkpt>
      <trkpt lat="47.02042" lon="8.90114">
        <ele>1137</ele>
        <time>2021-08-03T09:42:54.320Z</time>
      </trkpt>
      <trkpt lat="47.02041" lon="8.90115">
        <ele>1137</ele>
        <time>2021-08-03T09:42:55.321Z</time>
      </trkpt>
      <trkpt lat="47.02041" lon="8.90115">
        <ele>1137</ele>
        <time>2021-08-03T09:42:56.321Z</time>
      </trkpt>
      <trkpt lat="47.02041" lon="8.90115">
        <ele>1137</ele>
        <time>2021-08-03T09:42:57.321Z</time>
      </trkpt>
      <trkpt lat="47.02041" lon="8.90117">
        <ele>1137</ele>
        <time>2021-08-03T09:42:58.322Z</time>
      </trkpt>
      <trkpt lat="47.02041" lon="8.90116">
        <ele>1137</ele>
        <time>2021-08-03T09:42:59.321Z</time>
      </trkpt>
      <trkpt lat="47.02041" lon="8.90115">
        <ele>1137</ele>
        <time>2021-08-03T09:43:00.321Z</time>
      </trkpt>
      <trkpt lat="47.02041" lon="8.90114">
        <ele>1137</ele>
        <time>2021-08-03T09:43:01.322Z</time>
      </trkpt>
      <trkpt lat="47.0204" lon="8.90113">
        <ele>1138</ele>
        <time>2021-08-03T09:43:02.321Z</time>
      </trkpt>
      <trkpt lat="47.0204" lon="8.90112">
        <ele>1138</ele>
        <time>2021-08-03T09:43:03.321Z</time>
      </trkpt>
      <trkpt lat="47.02039" lon="8.90111">
        <ele>1138</ele>
        <time>2021-08-03T09:43:04.322Z</time>
      </trkpt>
      <trkpt lat="47.0204" lon="8.9011">
        <ele>1139</ele>
        <time>2021-08-03T09:43:05.322Z</time>
      </trkpt>
      <trkpt lat="47.0204" lon="8.9011">
        <ele>1139</ele>
        <time>2021-08-03T09:43:06.322Z</time>
      </trkpt>
      <trkpt lat="47.0204" lon="8.90109">
        <ele>1139</ele>
        <time>2021-08-03T09:43:07.321Z</time>
      </trkpt>
      <trkpt lat="47.02039" lon="8.90108">
        <ele>1139</ele>
        <time>2021-08-03T09:43:08.321Z</time>
      </trkpt>
      <trkpt lat="47.02039" lon="8.90108">
        <ele>1139</ele>
        <time>2021-08-03T09:43:09.322Z</time>
      </trkpt>
      <trkpt lat="47.02039" lon="8.90108">
        <ele>1139</ele>
        <time>2021-08-03T09:43:10.322Z</time>
      </trkpt>
      <trkpt lat="47.0204" lon="8.90107">
        <ele>1140</ele>
        <time>2021-08-03T09:43:11.321Z</time>
      </trkpt>
      <trkpt lat="47.02041" lon="8.90105">
        <ele>1140</ele>
        <time>2021-08-03T09:43:12.322Z</time>
      </trkpt>
      <trkpt lat="47.02042" lon="8.90104">
        <ele>1140</ele>
        <time>2021-08-03T09:43:13.322Z</time>
      </trkpt>
      <trkpt lat="47.02042" lon="8.90102">
        <ele>1140</ele>
        <time>2021-08-03T09:43:14.322Z</time>
      </trkpt>
      <trkpt lat="47.02042" lon="8.901">
        <ele>1139</ele>
        <time>2021-08-03T09:43:15.321Z</time>
      </trkpt>
      <trkpt lat="47.02041" lon="8.90098">
        <ele>1139</ele>
        <time>2021-08-03T09:43:16.321Z</time>
      </trkpt>
      <trkpt lat="47.02041" lon="8.90097">
        <ele>1139</ele>
        <time>2021-08-03T09:43:17.321Z</time>
      </trkpt>
      <trkpt lat="47.02041" lon="8.90095">
        <ele>1138</ele>
        <time>2021-08-03T09:43:18.321Z</time>
      </trkpt>
      <trkpt lat="47.0204" lon="8.90094">
        <ele>1138</ele>
        <time>2021-08-03T09:43:19.321Z</time>
      </trkpt>
      <trkpt lat="47.02039" lon="8.90094">
        <ele>1138</ele>
        <time>2021-08-03T09:43:20.321Z</time>
      </trkpt>
      <trkpt lat="47.02039" lon="8.90094">
        <ele>1138</ele>
        <time>2021-08-03T09:43:21.321Z</time>
      </trkpt>
      <trkpt lat="47.02039" lon="8.90091">
        <ele>1138</ele>
        <time>2021-08-03T09:43:22.321Z</time>
      </trkpt>
      <trkpt lat="47.02039" lon="8.90089">
        <ele>1138</ele>
        <time>2021-08-03T09:43:23.321Z</time>
      </trkpt>
      <trkpt lat="47.02039" lon="8.90088">
        <ele>1138</ele>
        <time>2021-08-03T09:43:24.322Z</time>
      </trkpt>
      <trkpt lat="47.02039" lon="8.90087">
        <ele>1138</ele>
        <time>2021-08-03T09:43:25.322Z</time>
      </trkpt>
      <trkpt lat="47.02038" lon="8.90087">
        <ele>1138</ele>
        <time>2021-08-03T09:43:26.322Z</time>
      </trkpt>
      <trkpt lat="47.02038" lon="8.90086">
        <ele>1138</ele>
        <time>2021-08-03T09:43:27.321Z</time>
      </trkpt>
      <trkpt lat="47.02037" lon="8.90086">
        <ele>1138</ele>
        <time>2021-08-03T09:43:28.321Z</time>
      </trkpt>
      <trkpt lat="47.02037" lon="8.90086">
        <ele>1139</ele>
        <time>2021-08-03T09:43:29.321Z</time>
      </trkpt>
      <trkpt lat="47.02036" lon="8.90085">
        <ele>1140</ele>
        <time>2021-08-03T09:43:30.322Z</time>
      </trkpt>
      <trkpt lat="47.02036" lon="8.90083">
        <ele>1140</ele>
        <time>2021-08-03T09:43:31.321Z</time>
      </trkpt>
      <trkpt lat="47.02037" lon="8.90082">
        <ele>1141</ele>
        <time>2021-08-03T09:43:32.321Z</time>
      </trkpt>
      <trkpt lat="47.02037" lon="8.90081">
        <ele>1142</ele>
        <time>2021-08-03T09:43:33.321Z</time>
      </trkpt>
      <trkpt lat="47.02038" lon="8.9008">
        <ele>1142</ele>
        <time>2021-08-03T09:43:34.321Z</time>
      </trkpt>
      <trkpt lat="47.0204" lon="8.90079">
        <ele>1143</ele>
        <time>2021-08-03T09:43:35.322Z</time>
      </trkpt>
      <trkpt lat="47.02041" lon="8.90079">
        <ele>1143</ele>
        <time>2021-08-03T09:43:36.322Z</time>
      </trkpt>
      <trkpt lat="47.02041" lon="8.90078">
        <ele>1143</ele>
        <time>2021-08-03T09:43:37.321Z</time>
      </trkpt>
      <trkpt lat="47.02041" lon="8.90077">
        <ele>1144</ele>
        <time>2021-08-03T09:43:38.322Z</time>
      </trkpt>
      <trkpt lat="47.02041" lon="8.90077">
        <ele>1144</ele>
        <time>2021-08-03T09:43:39.321Z</time>
      </trkpt>
      <trkpt lat="47.0204" lon="8.90076">
        <ele>1145</ele>
        <time>2021-08-03T09:43:40.322Z</time>
      </trkpt>
      <trkpt lat="47.02039" lon="8.90074">
        <ele>1146</ele>
        <time>2021-08-03T09:43:41.322Z</time>
      </trkpt>
      <trkpt lat="47.02039" lon="8.90072">
        <ele>1146</ele>
        <time>2021-08-03T09:43:42.322Z</time>
      </trkpt>
      <trkpt lat="47.02039" lon="8.90071">
        <ele>1147</ele>
        <time>2021-08-03T09:43:43.321Z</time>
      </trkpt>
      <trkpt lat="47.0204" lon="8.90069">
        <ele>1147</ele>
        <time>2021-08-03T09:43:44.321Z</time>
      </trkpt>
      <trkpt lat="47.0204" lon="8.90068">
        <ele>1148</ele>
        <time>2021-08-03T09:43:45.321Z</time>
      </trkpt>
      <trkpt lat="47.0204" lon="8.90067">
        <ele>1148</ele>
        <time>2021-08-03T09:43:46.321Z</time>
      </trkpt>
      <trkpt lat="47.0204" lon="8.90065">
        <ele>1149</ele>
        <time>2021-08-03T09:43:47.321Z</time>
      </trkpt>
      <trkpt lat="47.02039" lon="8.90065">
        <ele>1149</ele>
        <time>2021-08-03T09:43:48.321Z</time>
      </trkpt>
      <trkpt lat="47.02039" lon="8.90064">
        <ele>1148</ele>
        <time>2021-08-03T09:43:49.321Z</time>
      </trkpt>
      <trkpt lat="47.02039" lon="8.90062">
        <ele>1148</ele>
        <time>2021-08-03T09:43:50.322Z</time>
      </trkpt>
      <trkpt lat="47.02039" lon="8.90061">
        <ele>1148</ele>
        <time>2021-08-03T09:43:51.321Z</time>
      </trkpt>
      <trkpt lat="47.0204" lon="8.9006">
        <ele>1148</ele>
        <time>2021-08-03T09:43:52.321Z</time>
      </trkpt>
      <trkpt lat="47.02041" lon="8.90059">
        <ele>1148</ele>
        <time>2021-08-03T09:43:53.322Z</time>
      </trkpt>
      <trkpt lat="47.02041" lon="8.90057">
        <ele>1148</ele>
        <time>2021-08-03T09:43:54.321Z</time>
      </trkpt>
      <trkpt lat="47.02042" lon="8.90055">
        <ele>1148</ele>
        <time>2021-08-03T09:43:55.321Z</time>
      </trkpt>
      <trkpt lat="47.02044" lon="8.90054">
        <ele>1148</ele>
        <time>2021-08-03T09:43:56.322Z</time>
      </trkpt>
      <trkpt lat="47.02046" lon="8.90053">
        <ele>1148</ele>
        <time>2021-08-03T09:43:57.322Z</time>
      </trkpt>
      <trkpt lat="47.02047" lon="8.90052">
        <ele>1148</ele>
        <time>2021-08-03T09:43:58.322Z</time>
      </trkpt>
      <trkpt lat="47.02046" lon="8.90052">
        <ele>1149</ele>
        <time>2021-08-03T09:43:59.322Z</time>
      </trkpt>
      <trkpt lat="47.02044" lon="8.90052">
        <ele>1149</ele>
        <time>2021-08-03T09:44:00.321Z</time>
      </trkpt>
      <trkpt lat="47.02043" lon="8.90052">
        <ele>1149</ele>
        <time>2021-08-03T09:44:01.322Z</time>
      </trkpt>
      <trkpt lat="47.02043" lon="8.90051">
        <ele>1149</ele>
        <time>2021-08-03T09:44:02.322Z</time>
      </trkpt>
      <trkpt lat="47.02043" lon="8.9005">
        <ele>1150</ele>
        <time>2021-08-03T09:44:03.322Z</time>
      </trkpt>
      <trkpt lat="47.02043" lon="8.90049">
        <ele>1150</ele>
        <time>2021-08-03T09:44:04.322Z</time>
      </trkpt>
      <trkpt lat="47.02043" lon="8.90048">
        <ele>1150</ele>
        <time>2021-08-03T09:44:05.322Z</time>
      </trkpt>
      <trkpt lat="47.02042" lon="8.90048">
        <ele>1150</ele>
        <time>2021-08-03T09:44:06.322Z</time>
      </trkpt>
      <trkpt lat="47.02042" lon="8.90047">
        <ele>1150</ele>
        <time>2021-08-03T09:44:07.322Z</time>
      </trkpt>
      <trkpt lat="47.02042" lon="8.90046">
        <ele>1150</ele>
        <time>2021-08-03T09:44:08.321Z</time>
      </trkpt>
      <trkpt lat="47.02041" lon="8.90046">
        <ele>1151</ele>
        <time>2021-08-03T09:44:09.322Z</time>
      </trkpt>
      <trkpt lat="47.0204" lon="8.90046">
        <ele>1151</ele>
        <time>2021-08-03T09:44:10.322Z</time>
      </trkpt>
      <trkpt lat="47.02039" lon="8.90045">
        <ele>1151</ele>
        <time>2021-08-03T09:44:11.322Z</time>
      </trkpt>
      <trkpt lat="47.02038" lon="8.90045">
        <ele>1151</ele>
        <time>2021-08-03T09:44:12.322Z</time>
      </trkpt>
      <trkpt lat="47.02037" lon="8.90045">
        <ele>1151</ele>
        <time>2021-08-03T09:44:13.321Z</time>
      </trkpt>
      <trkpt lat="47.02037" lon="8.90044">
        <ele>1151</ele>
        <time>2021-08-03T09:44:14.322Z</time>
      </trkpt>
      <trkpt lat="47.02036" lon="8.90044">
        <ele>1151</ele>
        <time>2021-08-03T09:44:15.321Z</time>
      </trkpt>
      <trkpt lat="47.02036" lon="8.90043">
        <ele>1151</ele>
        <time>2021-08-03T09:44:16.322Z</time>
      </trkpt>
      <trkpt lat="47.02035" lon="8.90043">
        <ele>1151</ele>
        <time>2021-08-03T09:44:17.322Z</time>
      </trkpt>
      <trkpt lat="47.02034" lon="8.90043">
        <ele>1151</ele>
        <time>2021-08-03T09:44:18.321Z</time>
      </trkpt>
      <trkpt lat="47.02034" lon="8.90042">
        <ele>1151</ele>
        <time>2021-08-03T09:44:19.321Z</time>
      </trkpt>
      <trkpt lat="47.02033" lon="8.90041">
        <ele>1151</ele>
        <time>2021-08-03T09:44:20.322Z</time>
      </trkpt>
      <trkpt lat="47.02032" lon="8.90041">
        <ele>1151</ele>
        <time>2021-08-03T09:44:21.322Z</time>
      </trkpt>
      <trkpt lat="47.02032" lon="8.90039">
        <ele>1151</ele>
        <time>2021-08-03T09:44:22.322Z</time>
      </trkpt>
      <trkpt lat="47.02032" lon="8.90038">
        <ele>1151</ele>
        <time>2021-08-03T09:44:23.322Z</time>
      </trkpt>
      <trkpt lat="47.02032" lon="8.90036">
        <ele>1151</ele>
        <time>2021-08-03T09:44:24.322Z</time>
      </trkpt>
      <trkpt lat="47.02032" lon="8.90035">
        <ele>1151</ele>
        <time>2021-08-03T09:44:25.321Z</time>
      </trkpt>
      <trkpt lat="47.02032" lon="8.90033">
        <ele>1150</ele>
        <time>2021-08-03T09:44:26.322Z</time>
      </trkpt>
      <trkpt lat="47.02032" lon="8.90032">
        <ele>1150</ele>
        <time>2021-08-03T09:44:27.321Z</time>
      </trkpt>
      <trkpt lat="47.02032" lon="8.9003">
        <ele>1150</ele>
        <time>2021-08-03T09:44:28.322Z</time>
      </trkpt>
      <trkpt lat="47.02032" lon="8.90029">
        <ele>1150</ele>
        <time>2021-08-03T09:44:29.322Z</time>
      </trkpt>
      <trkpt lat="47.02031" lon="8.90028">
        <ele>1150</ele>
        <time>2021-08-03T09:44:30.321Z</time>
      </trkpt>
      <trkpt lat="47.02031" lon="8.90025">
        <ele>1151</ele>
        <time>2021-08-03T09:44:31.322Z</time>
      </trkpt>
      <trkpt lat="47.02031" lon="8.90024">
        <ele>1151</ele>
        <time>2021-08-03T09:44:32.321Z</time>
      </trkpt>
      <trkpt lat="47.02031" lon="8.90023">
        <ele>1151</ele>
        <time>2021-08-03T09:44:33.322Z</time>
      </trkpt>
      <trkpt lat="47.0203" lon="8.90021">
        <ele>1152</ele>
        <time>2021-08-03T09:44:34.322Z</time>
      </trkpt>
      <trkpt lat="47.0203" lon="8.9002">
        <ele>1152</ele>
        <time>2021-08-03T09:44:35.322Z</time>
      </trkpt>
      <trkpt lat="47.02029" lon="8.90019">
        <ele>1153</ele>
        <time>2021-08-03T09:44:36.321Z</time>
      </trkpt>
      <trkpt lat="47.02029" lon="8.90019">
        <ele>1154</ele>
        <time>2021-08-03T09:44:37.322Z</time>
      </trkpt>
      <trkpt lat="47.02029" lon="8.90019">
        <ele>1155</ele>
        <time>2021-08-03T09:44:38.322Z</time>
      </trkpt>
      <trkpt lat="47.0203" lon="8.90019">
        <ele>1155</ele>
        <time>2021-08-03T09:44:39.322Z</time>
      </trkpt>
      <trkpt lat="47.0203" lon="8.90018">
        <ele>1156</ele>
        <time>2021-08-03T09:44:40.322Z</time>
      </trkpt>
      <trkpt lat="47.02031" lon="8.90017">
        <ele>1156</ele>
        <time>2021-08-03T09:44:41.321Z</time>
      </trkpt>
      <trkpt lat="47.02032" lon="8.90016">
        <ele>1157</ele>
        <time>2021-08-03T09:44:42.321Z</time>
      </trkpt>
      <trkpt lat="47.02032" lon="8.90016">
        <ele>1158</ele>
        <time>2021-08-03T09:44:43.321Z</time>
      </trkpt>
      <trkpt lat="47.02031" lon="8.90015">
        <ele>1159</ele>
        <time>2021-08-03T09:44:44.322Z</time>
      </trkpt>
      <trkpt lat="47.02031" lon="8.90016">
        <ele>1160</ele>
        <time>2021-08-03T09:44:45.322Z</time>
      </trkpt>
      <trkpt lat="47.02032" lon="8.90015">
        <ele>1161</ele>
        <time>2021-08-03T09:44:46.322Z</time>
      </trkpt>
      <trkpt lat="47.02032" lon="8.90015">
        <ele>1161</ele>
        <time>2021-08-03T09:44:47.322Z</time>
      </trkpt>
      <trkpt lat="47.02033" lon="8.90015">
        <ele>1162</ele>
        <time>2021-08-03T09:44:48.322Z</time>
      </trkpt>
      <trkpt lat="47.02033" lon="8.90014">
        <ele>1163</ele>
        <time>2021-08-03T09:44:49.322Z</time>
      </trkpt>
      <trkpt lat="47.02033" lon="8.90014">
        <ele>1163</ele>
        <time>2021-08-03T09:44:50.322Z</time>
      </trkpt>
      <trkpt lat="47.02033" lon="8.90013">
        <ele>1163</ele>
        <time>2021-08-03T09:44:51.322Z</time>
      </trkpt>
      <trkpt lat="47.02033" lon="8.90012">
        <ele>1163</ele>
        <time>2021-08-03T09:44:52.321Z</time>
      </trkpt>
      <trkpt lat="47.02033" lon="8.90011">
        <ele>1163</ele>
        <time>2021-08-03T09:44:53.321Z</time>
      </trkpt>
      <trkpt lat="47.02033" lon="8.9001">
        <ele>1164</ele>
        <time>2021-08-03T09:44:54.322Z</time>
      </trkpt>
      <trkpt lat="47.02034" lon="8.9001">
        <ele>1164</ele>
        <time>2021-08-03T09:44:55.321Z</time>
      </trkpt>
      <trkpt lat="47.02034" lon="8.90009">
        <ele>1165</ele>
        <time>2021-08-03T09:44:56.322Z</time>
      </trkpt>
      <trkpt lat="47.02034" lon="8.90008">
        <ele>1165</ele>
        <time>2021-08-03T09:44:57.321Z</time>
      </trkpt>
      <trkpt lat="47.02033" lon="8.90007">
        <ele>1166</ele>
        <time>2021-08-03T09:44:58.321Z</time>
      </trkpt>
      <trkpt lat="47.02032" lon="8.90007">
        <ele>1166</ele>
        <time>2021-08-03T09:44:59.322Z</time>
      </trkpt>
      <trkpt lat="47.02031" lon="8.90006">
        <ele>1166</ele>
        <time>2021-08-03T09:45:00.321Z</time>
      </trkpt>
      <trkpt lat="47.0203" lon="8.90004">
        <ele>1167</ele>
        <time>2021-08-03T09:45:01.321Z</time>
      </trkpt>
      <trkpt lat="47.02029" lon="8.90004">
        <ele>1168</ele>
        <time>2021-08-03T09:45:02.321Z</time>
      </trkpt>
      <trkpt lat="47.02029" lon="8.90004">
        <ele>1168</ele>
        <time>2021-08-03T09:45:03.322Z</time>
      </trkpt>
      <trkpt lat="47.02029" lon="8.90005">
        <ele>1169</ele>
        <time>2021-08-03T09:45:04.322Z</time>
      </trkpt>
      <trkpt lat="47.02027" lon="8.90008">
        <ele>1169</ele>
        <time>2021-08-03T09:45:05.322Z</time>
      </trkpt>
      <trkpt lat="47.02026" lon="8.90007">
        <ele>1169</ele>
        <time>2021-08-03T09:45:06.322Z</time>
      </trkpt>
      <trkpt lat="47.02026" lon="8.90008">
        <ele>1169</ele>
        <time>2021-08-03T09:45:07.322Z</time>
      </trkpt>
      <trkpt lat="47.02025" lon="8.90009">
        <ele>1169</ele>
        <time>2021-08-03T09:45:08.321Z</time>
      </trkpt>
      <trkpt lat="47.02024" lon="8.9001">
        <ele>1173</ele>
        <time>2021-08-03T09:45:09.321Z</time>
      </trkpt>
      <trkpt lat="47.02024" lon="8.90009">
        <ele>1175</ele>
        <time>2021-08-03T09:45:10.322Z</time>
      </trkpt>
      <trkpt lat="47.02024" lon="8.90009">
        <ele>1176</ele>
        <time>2021-08-03T09:45:11.322Z</time>
      </trkpt>
      <trkpt lat="47.02024" lon="8.90008">
        <ele>1178</ele>
        <time>2021-08-03T09:45:12.322Z</time>
      </trkpt>
      <trkpt lat="47.02024" lon="8.90007">
        <ele>1179</ele>
        <time>2021-08-03T09:45:13.321Z</time>
      </trkpt>
      <trkpt lat="47.02024" lon="8.90007">
        <ele>1180</ele>
        <time>2021-08-03T09:45:14.322Z</time>
      </trkpt>
      <trkpt lat="47.02024" lon="8.90006">
        <ele>1181</ele>
        <time>2021-08-03T09:45:15.322Z</time>
      </trkpt>
      <trkpt lat="47.02024" lon="8.90005">
        <ele>1182</ele>
        <time>2021-08-03T09:45:16.322Z</time>
      </trkpt>
      <trkpt lat="47.02023" lon="8.90004">
        <ele>1182</ele>
        <time>2021-08-03T09:45:17.321Z</time>
      </trkpt>
      <trkpt lat="47.02023" lon="8.90003">
        <ele>1183</ele>
        <time>2021-08-03T09:45:18.322Z</time>
      </trkpt>
      <trkpt lat="47.02023" lon="8.90003">
        <ele>1183</ele>
        <time>2021-08-03T09:45:19.322Z</time>
      </trkpt>
      <trkpt lat="47.02023" lon="8.90002">
        <ele>1184</ele>
        <time>2021-08-03T09:45:20.322Z</time>
      </trkpt>
      <trkpt lat="47.02024" lon="8.90002">
        <ele>1184</ele>
        <time>2021-08-03T09:45:21.321Z</time>
      </trkpt>
      <trkpt lat="47.02024" lon="8.90001">
        <ele>1184</ele>
        <time>2021-08-03T09:45:22.322Z</time>
      </trkpt>
      <trkpt lat="47.02024" lon="8.9">
        <ele>1183</ele>
        <time>2021-08-03T09:45:23.322Z</time>
      </trkpt>
      <trkpt lat="47.02024" lon="8.89998">
        <ele>1183</ele>
        <time>2021-08-03T09:45:24.322Z</time>
      </trkpt>
      <trkpt lat="47.02023" lon="8.89997">
        <ele>1182</ele>
        <time>2021-08-03T09:45:25.322Z</time>
      </trkpt>
      <trkpt lat="47.02023" lon="8.89996">
        <ele>1182</ele>
        <time>2021-08-03T09:45:26.322Z</time>
      </trkpt>
      <trkpt lat="47.02022" lon="8.89995">
        <ele>1181</ele>
        <time>2021-08-03T09:45:27.323Z</time>
      </trkpt>
      <trkpt lat="47.02022" lon="8.89995">
        <ele>1181</ele>
        <time>2021-08-03T09:45:28.323Z</time>
      </trkpt>
      <trkpt lat="47.02021" lon="8.89994">
        <ele>1180</ele>
        <time>2021-08-03T09:45:29.323Z</time>
      </trkpt>
      <trkpt lat="47.02021" lon="8.89993">
        <ele>1180</ele>
        <time>2021-08-03T09:45:30.323Z</time>
      </trkpt>
      <trkpt lat="47.0202" lon="8.89993">
        <ele>1179</ele>
        <time>2021-08-03T09:45:31.322Z</time>
      </trkpt>
      <trkpt lat="47.02019" lon="8.89994">
        <ele>1179</ele>
        <time>2021-08-03T09:45:32.322Z</time>
      </trkpt>
      <trkpt lat="47.0202" lon="8.89993">
        <ele>1179</ele>
        <time>2021-08-03T09:45:33.323Z</time>
      </trkpt>
      <trkpt lat="47.02019" lon="8.89993">
        <ele>1178</ele>
        <time>2021-08-03T09:45:34.323Z</time>
      </trkpt>
      <trkpt lat="47.02019" lon="8.89992">
        <ele>1178</ele>
        <time>2021-08-03T09:45:35.323Z</time>
      </trkpt>
      <trkpt lat="47.02019" lon="8.89991">
        <ele>1177</ele>
        <time>2021-08-03T09:45:36.322Z</time>
      </trkpt>
      <trkpt lat="47.02019" lon="8.8999">
        <ele>1177</ele>
        <time>2021-08-03T09:45:37.323Z</time>
      </trkpt>
      <trkpt lat="47.02019" lon="8.89989">
        <ele>1177</ele>
        <time>2021-08-03T09:45:38.323Z</time>
      </trkpt>
      <trkpt lat="47.02019" lon="8.89988">
        <ele>1177</ele>
        <time>2021-08-03T09:45:39.323Z</time>
      </trkpt>
      <trkpt lat="47.02019" lon="8.89987">
        <ele>1176</ele>
        <time>2021-08-03T09:45:40.323Z</time>
      </trkpt>
      <trkpt lat="47.02019" lon="8.89986">
        <ele>1176</ele>
        <time>2021-08-03T09:45:41.322Z</time>
      </trkpt>
      <trkpt lat="47.02019" lon="8.89985">
        <ele>1176</ele>
        <time>2021-08-03T09:45:42.323Z</time>
      </trkpt>
      <trkpt lat="47.02018" lon="8.89985">
        <ele>1176</ele>
        <time>2021-08-03T09:45:43.323Z</time>
      </trkpt>
      <trkpt lat="47.02018" lon="8.89985">
        <ele>1175</ele>
        <time>2021-08-03T09:45:44.323Z</time>
      </trkpt>
      <trkpt lat="47.02018" lon="8.89985">
        <ele>1174</ele>
        <time>2021-08-03T09:45:45.323Z</time>
      </trkpt>
      <trkpt lat="47.02017" lon="8.89984">
        <ele>1174</ele>
        <time>2021-08-03T09:45:46.323Z</time>
      </trkpt>
      <trkpt lat="47.02017" lon="8.89983">
        <ele>1173</ele>
        <time>2021-08-03T09:45:47.323Z</time>
      </trkpt>
      <trkpt lat="47.02016" lon="8.89982">
        <ele>1172</ele>
        <time>2021-08-03T09:45:48.323Z</time>
      </trkpt>
      <trkpt lat="47.02016" lon="8.89981">
        <ele>1171</ele>
        <time>2021-08-03T09:45:49.323Z</time>
      </trkpt>
      <trkpt lat="47.02016" lon="8.89981">
        <ele>1171</ele>
        <time>2021-08-03T09:45:50.323Z</time>
      </trkpt>
      <trkpt lat="47.02015" lon="8.8998">
        <ele>1170</ele>
        <time>2021-08-03T09:45:51.323Z</time>
      </trkpt>
      <trkpt lat="47.02015" lon="8.89978">
        <ele>1170</ele>
        <time>2021-08-03T09:45:52.323Z</time>
      </trkpt>
      <trkpt lat="47.02015" lon="8.89977">
        <ele>1170</ele>
        <time>2021-08-03T09:45:53.323Z</time>
      </trkpt>
      <trkpt lat="47.02014" lon="8.89976">
        <ele>1169</ele>
        <time>2021-08-03T09:45:54.323Z</time>
      </trkpt>
      <trkpt lat="47.02014" lon="8.89975">
        <ele>1169</ele>
        <time>2021-08-03T09:45:55.323Z</time>
      </trkpt>
      <trkpt lat="47.02014" lon="8.89973">
        <ele>1169</ele>
        <time>2021-08-03T09:45:56.323Z</time>
      </trkpt>
      <trkpt lat="47.02014" lon="8.89972">
        <ele>1169</ele>
        <time>2021-08-03T09:45:57.323Z</time>
      </trkpt>
      <trkpt lat="47.02014" lon="8.8997">
        <ele>1169</ele>
        <time>2021-08-03T09:45:58.323Z</time>
      </trkpt>
      <trkpt lat="47.02014" lon="8.89968">
        <ele>1169</ele>
        <time>2021-08-03T09:45:59.323Z</time>
      </trkpt>
      <trkpt lat="47.02015" lon="8.89967">
        <ele>1169</ele>
        <time>2021-08-03T09:46:00.323Z</time>
      </trkpt>
      <trkpt lat="47.02015" lon="8.89966">
        <ele>1169</ele>
        <time>2021-08-03T09:46:01.323Z</time>
      </trkpt>
      <trkpt lat="47.02014" lon="8.89966">
        <ele>1169</ele>
        <time>2021-08-03T09:46:02.323Z</time>
      </trkpt>
      <trkpt lat="47.02014" lon="8.89964">
        <ele>1169</ele>
        <time>2021-08-03T09:46:03.323Z</time>
      </trkpt>
      <trkpt lat="47.02013" lon="8.89963">
        <ele>1169</ele>
        <time>2021-08-03T09:46:04.323Z</time>
      </trkpt>
      <trkpt lat="47.02012" lon="8.89963">
        <ele>1169</ele>
        <time>2021-08-03T09:46:05.323Z</time>
      </trkpt>
      <trkpt lat="47.02012" lon="8.89962">
        <ele>1169</ele>
        <time>2021-08-03T09:46:06.322Z</time>
      </trkpt>
      <trkpt lat="47.02012" lon="8.8996">
        <ele>1168</ele>
        <time>2021-08-03T09:46:07.322Z</time>
      </trkpt>
      <trkpt lat="47.02012" lon="8.89959">
        <ele>1168</ele>
        <time>2021-08-03T09:46:08.323Z</time>
      </trkpt>
      <trkpt lat="47.02012" lon="8.89958">
        <ele>1168</ele>
        <time>2021-08-03T09:46:09.322Z</time>
      </trkpt>
      <trkpt lat="47.02012" lon="8.89957">
        <ele>1168</ele>
        <time>2021-08-03T09:46:10.323Z</time>
      </trkpt>
      <trkpt lat="47.02012" lon="8.89956">
        <ele>1168</ele>
        <time>2021-08-03T09:46:11.322Z</time>
      </trkpt>
      <trkpt lat="47.02012" lon="8.89955">
        <ele>1168</ele>
        <time>2021-08-03T09:46:12.323Z</time>
      </trkpt>
      <trkpt lat="47.02011" lon="8.89954">
        <ele>1168</ele>
        <time>2021-08-03T09:46:13.322Z</time>
      </trkpt>
      <trkpt lat="47.02011" lon="8.89952">
        <ele>1168</ele>
        <time>2021-08-03T09:46:14.323Z</time>
      </trkpt>
      <trkpt lat="47.0201" lon="8.89951">
        <ele>1168</ele>
        <time>2021-08-03T09:46:15.322Z</time>
      </trkpt>
      <trkpt lat="47.0201" lon="8.89949">
        <ele>1167</ele>
        <time>2021-08-03T09:46:16.322Z</time>
      </trkpt>
      <trkpt lat="47.0201" lon="8.89948">
        <ele>1166</ele>
        <time>2021-08-03T09:46:17.323Z</time>
      </trkpt>
      <trkpt lat="47.0201" lon="8.89946">
        <ele>1166</ele>
        <time>2021-08-03T09:46:18.323Z</time>
      </trkpt>
      <trkpt lat="47.0201" lon="8.89944">
        <ele>1165</ele>
        <time>2021-08-03T09:46:19.322Z</time>
      </trkpt>
      <trkpt lat="47.02011" lon="8.89943">
        <ele>1165</ele>
        <time>2021-08-03T09:46:20.322Z</time>
      </trkpt>
      <trkpt lat="47.02012" lon="8.89941">
        <ele>1165</ele>
        <time>2021-08-03T09:46:21.323Z</time>
      </trkpt>
      <trkpt lat="47.02012" lon="8.8994">
        <ele>1165</ele>
        <time>2021-08-03T09:46:22.323Z</time>
      </trkpt>
      <trkpt lat="47.02012" lon="8.89938">
        <ele>1166</ele>
        <time>2021-08-03T09:46:23.323Z</time>
      </trkpt>
      <trkpt lat="47.02012" lon="8.89937">
        <ele>1166</ele>
        <time>2021-08-03T09:46:24.323Z</time>
      </trkpt>
      <trkpt lat="47.02012" lon="8.89935">
        <ele>1167</ele>
        <time>2021-08-03T09:46:25.322Z</time>
      </trkpt>
      <trkpt lat="47.02012" lon="8.89934">
        <ele>1168</ele>
        <time>2021-08-03T09:46:26.322Z</time>
      </trkpt>
      <trkpt lat="47.02012" lon="8.89934">
        <ele>1168</ele>
        <time>2021-08-03T09:46:27.323Z</time>
      </trkpt>
      <trkpt lat="47.02012" lon="8.89933">
        <ele>1169</ele>
        <time>2021-08-03T09:46:28.323Z</time>
      </trkpt>
      <trkpt lat="47.02013" lon="8.89933">
        <ele>1170</ele>
        <time>2021-08-03T09:46:29.322Z</time>
      </trkpt>
      <trkpt lat="47.02013" lon="8.89932">
        <ele>1170</ele>
        <time>2021-08-03T09:46:30.323Z</time>
      </trkpt>
      <trkpt lat="47.02014" lon="8.89931">
        <ele>1171</ele>
        <time>2021-08-03T09:46:31.322Z</time>
      </trkpt>
      <trkpt lat="47.02014" lon="8.89931">
        <ele>1172</ele>
        <time>2021-08-03T09:46:32.322Z</time>
      </trkpt>
      <trkpt lat="47.02013" lon="8.89931">
        <ele>1173</ele>
        <time>2021-08-03T09:46:33.323Z</time>
      </trkpt>
      <trkpt lat="47.02014" lon="8.8993">
        <ele>1174</ele>
        <time>2021-08-03T09:46:34.322Z</time>
      </trkpt>
      <trkpt lat="47.02014" lon="8.89929">
        <ele>1174</ele>
        <time>2021-08-03T09:46:35.323Z</time>
      </trkpt>
      <trkpt lat="47.02013" lon="8.89926">
        <ele>1175</ele>
        <time>2021-08-03T09:46:36.323Z</time>
      </trkpt>
      <trkpt lat="47.02013" lon="8.89924">
        <ele>1175</ele>
        <time>2021-08-03T09:46:37.323Z</time>
      </trkpt>
      <trkpt lat="47.02013" lon="8.89923">
        <ele>1174</ele>
        <time>2021-08-03T09:46:38.323Z</time>
      </trkpt>
      <trkpt lat="47.02013" lon="8.89922">
        <ele>1173</ele>
        <time>2021-08-03T09:46:39.323Z</time>
      </trkpt>
      <trkpt lat="47.02013" lon="8.89921">
        <ele>1173</ele>
        <time>2021-08-03T09:46:40.323Z</time>
      </trkpt>
      <trkpt lat="47.02013" lon="8.89919">
        <ele>1172</ele>
        <time>2021-08-03T09:46:41.323Z</time>
      </trkpt>
      <trkpt lat="47.02012" lon="8.89918">
        <ele>1172</ele>
        <time>2021-08-03T09:46:42.322Z</time>
      </trkpt>
      <trkpt lat="47.02012" lon="8.89916">
        <ele>1171</ele>
        <time>2021-08-03T09:46:43.322Z</time>
      </trkpt>
      <trkpt lat="47.02012" lon="8.89914">
        <ele>1170</ele>
        <time>2021-08-03T09:46:44.322Z</time>
      </trkpt>
      <trkpt lat="47.02012" lon="8.89913">
        <ele>1169</ele>
        <time>2021-08-03T09:46:45.323Z</time>
      </trkpt>
      <trkpt lat="47.02012" lon="8.8991">
        <ele>1168</ele>
        <time>2021-08-03T09:46:46.323Z</time>
      </trkpt>
      <trkpt lat="47.02011" lon="8.89908">
        <ele>1167</ele>
        <time>2021-08-03T09:46:47.323Z</time>
      </trkpt>
      <trkpt lat="47.0201" lon="8.89907">
        <ele>1167</ele>
        <time>2021-08-03T09:46:48.323Z</time>
      </trkpt>
      <trkpt lat="47.0201" lon="8.89904">
        <ele>1167</ele>
        <time>2021-08-03T09:46:49.323Z</time>
      </trkpt>
      <trkpt lat="47.02009" lon="8.89902">
        <ele>1167</ele>
        <time>2021-08-03T09:46:50.323Z</time>
      </trkpt>
      <trkpt lat="47.02008" lon="8.899">
        <ele>1167</ele>
        <time>2021-08-03T09:46:51.323Z</time>
      </trkpt>
      <trkpt lat="47.02008" lon="8.89898">
        <ele>1167</ele>
        <time>2021-08-03T09:46:52.322Z</time>
      </trkpt>
      <trkpt lat="47.02008" lon="8.89896">
        <ele>1167</ele>
        <time>2021-08-03T09:46:53.322Z</time>
      </trkpt>
      <trkpt lat="47.02008" lon="8.89893">
        <ele>1168</ele>
        <time>2021-08-03T09:46:54.322Z</time>
      </trkpt>
      <trkpt lat="47.02009" lon="8.89891">
        <ele>1168</ele>
        <time>2021-08-03T09:46:55.323Z</time>
      </trkpt>
      <trkpt lat="47.02009" lon="8.89889">
        <ele>1168</ele>
        <time>2021-08-03T09:46:56.323Z</time>
      </trkpt>
      <trkpt lat="47.02009" lon="8.89888">
        <ele>1169</ele>
        <time>2021-08-03T09:46:57.322Z</time>
      </trkpt>
      <trkpt lat="47.02009" lon="8.89887">
        <ele>1169</ele>
        <time>2021-08-03T09:46:58.323Z</time>
      </trkpt>
      <trkpt lat="47.02009" lon="8.89884">
        <ele>1169</ele>
        <time>2021-08-03T09:46:59.323Z</time>
      </trkpt>
      <trkpt lat="47.02009" lon="8.89882">
        <ele>1169</ele>
        <time>2021-08-03T09:47:00.323Z</time>
      </trkpt>
      <trkpt lat="47.02009" lon="8.8988">
        <ele>1170</ele>
        <time>2021-08-03T09:47:01.323Z</time>
      </trkpt>
      <trkpt lat="47.02009" lon="8.89878">
        <ele>1170</ele>
        <time>2021-08-03T09:47:02.322Z</time>
      </trkpt>
      <trkpt lat="47.02008" lon="8.89877">
        <ele>1170</ele>
        <time>2021-08-03T09:47:03.323Z</time>
      </trkpt>
      <trkpt lat="47.02008" lon="8.89875">
        <ele>1170</ele>
        <time>2021-08-03T09:47:04.323Z</time>
      </trkpt>
      <trkpt lat="47.02008" lon="8.89874">
        <ele>1170</ele>
        <time>2021-08-03T09:47:05.322Z</time>
      </trkpt>
      <trkpt lat="47.02009" lon="8.89873">
        <ele>1169</ele>
        <time>2021-08-03T09:47:06.323Z</time>
      </trkpt>
      <trkpt lat="47.02009" lon="8.89872">
        <ele>1168</ele>
        <time>2021-08-03T09:47:07.323Z</time>
      </trkpt>
      <trkpt lat="47.02008" lon="8.89872">
        <ele>1167</ele>
        <time>2021-08-03T09:47:08.322Z</time>
      </trkpt>
      <trkpt lat="47.02006" lon="8.89871">
        <ele>1162</ele>
        <time>2021-08-03T09:47:09.322Z</time>
      </trkpt>
      <trkpt lat="47.02006" lon="8.89871">
        <ele>1162</ele>
        <time>2021-08-03T09:47:10.323Z</time>
      </trkpt>
      <trkpt lat="47.02006" lon="8.89872">
        <ele>1161</ele>
        <time>2021-08-03T09:47:11.322Z</time>
      </trkpt>
      <trkpt lat="47.02004" lon="8.89875">
        <ele>1160</ele>
        <time>2021-08-03T09:47:12.322Z</time>
      </trkpt>
      <trkpt lat="47.02004" lon="8.89874">
        <ele>1160</ele>
        <time>2021-08-03T09:47:13.323Z</time>
      </trkpt>
      <trkpt lat="47.02003" lon="8.89874">
        <ele>1159</ele>
        <time>2021-08-03T09:47:14.322Z</time>
      </trkpt>
      <trkpt lat="47.02003" lon="8.89873">
        <ele>1159</ele>
        <time>2021-08-03T09:47:15.323Z</time>
      </trkpt>
      <trkpt lat="47.02004" lon="8.89871">
        <ele>1158</ele>
        <time>2021-08-03T09:47:19.323Z</time>
      </trkpt>
      <trkpt lat="47.02003" lon="8.89871">
        <ele>1158</ele>
        <time>2021-08-03T09:47:20.323Z</time>
      </trkpt>
      <trkpt lat="47.02004" lon="8.89872">
        <ele>1157</ele>
        <time>2021-08-03T09:47:21.322Z</time>
      </trkpt>
      <trkpt lat="47.02003" lon="8.89873">
        <ele>1157</ele>
        <time>2021-08-03T09:47:22.323Z</time>
      </trkpt>
      <trkpt lat="47.02003" lon="8.89873">
        <ele>1157</ele>
        <time>2021-08-03T09:47:23.323Z</time>
      </trkpt>
      <trkpt lat="47.02003" lon="8.89875">
        <ele>1157</ele>
        <time>2021-08-03T09:47:24.324Z</time>
      </trkpt>
      <trkpt lat="47.02003" lon="8.89876">
        <ele>1157</ele>
        <time>2021-08-03T09:47:25.324Z</time>
      </trkpt>
      <trkpt lat="47.02002" lon="8.89877">
        <ele>1158</ele>
        <time>2021-08-03T09:47:26.323Z</time>
      </trkpt>
      <trkpt lat="47.02002" lon="8.89878">
        <ele>1158</ele>
        <time>2021-08-03T09:47:27.324Z</time>
      </trkpt>
      <trkpt lat="47.02003" lon="8.89877">
        <ele>1158</ele>
        <time>2021-08-03T09:47:28.323Z</time>
      </trkpt>
      <trkpt lat="47.02003" lon="8.89875">
        <ele>1158</ele>
        <time>2021-08-03T09:47:29.324Z</time>
      </trkpt>
      <trkpt lat="47.02004" lon="8.89874">
        <ele>1158</ele>
        <time>2021-08-03T09:47:30.324Z</time>
      </trkpt>
      <trkpt lat="47.02004" lon="8.89874">
        <ele>1159</ele>
        <time>2021-08-03T09:47:31.323Z</time>
      </trkpt>
      <trkpt lat="47.02003" lon="8.89872">
        <ele>1158</ele>
        <time>2021-08-03T09:47:32.323Z</time>
      </trkpt>
      <trkpt lat="47.02003" lon="8.89871">
        <ele>1158</ele>
        <time>2021-08-03T09:47:33.324Z</time>
      </trkpt>
      <trkpt lat="47.02007" lon="8.89864">
        <ele>1162</ele>
        <time>2021-08-03T09:47:34.325Z</time>
      </trkpt>
      <trkpt lat="47.02008" lon="8.89863">
        <ele>1163</ele>
        <time>2021-08-03T09:47:35.326Z</time>
      </trkpt>
      <trkpt lat="47.02005" lon="8.89859">
        <ele>1168</ele>
        <time>2021-08-03T09:47:36.326Z</time>
      </trkpt>
      <trkpt lat="47.02005" lon="8.89858">
        <ele>1168</ele>
        <time>2021-08-03T09:47:37.326Z</time>
      </trkpt>
      <trkpt lat="47.02005" lon="8.89857">
        <ele>1169</ele>
        <time>2021-08-03T09:47:38.325Z</time>
      </trkpt>
      <trkpt lat="47.02002" lon="8.89847">
        <ele>1176</ele>
        <time>2021-08-03T09:47:39.326Z</time>
      </trkpt>
      <trkpt lat="47.02002" lon="8.89846">
        <ele>1177</ele>
        <time>2021-08-03T09:47:40.327Z</time>
      </trkpt>
      <trkpt lat="47.02003" lon="8.89847">
        <ele>1177</ele>
        <time>2021-08-03T09:47:41.326Z</time>
      </trkpt>
      <trkpt lat="47.02004" lon="8.89847">
        <ele>1176</ele>
        <time>2021-08-03T09:47:42.326Z</time>
      </trkpt>
      <trkpt lat="47.02005" lon="8.89848">
        <ele>1176</ele>
        <time>2021-08-03T09:47:43.327Z</time>
      </trkpt>
      <trkpt lat="47.02005" lon="8.89848">
        <ele>1175</ele>
        <time>2021-08-03T09:47:44.326Z</time>
      </trkpt>
      <trkpt lat="47.02005" lon="8.89848">
        <ele>1175</ele>
        <time>2021-08-03T09:47:45.326Z</time>
      </trkpt>
      <trkpt lat="47.02005" lon="8.89847">
        <ele>1174</ele>
        <time>2021-08-03T09:47:46.326Z</time>
      </trkpt>
      <trkpt lat="47.02005" lon="8.89847">
        <ele>1174</ele>
        <time>2021-08-03T09:47:47.326Z</time>
      </trkpt>
      <trkpt lat="47.02005" lon="8.89846">
        <ele>1174</ele>
        <time>2021-08-03T09:47:48.326Z</time>
      </trkpt>
      <trkpt lat="47.02005" lon="8.89845">
        <ele>1173</ele>
        <time>2021-08-03T09:47:49.327Z</time>
      </trkpt>
      <trkpt lat="47.02006" lon="8.89844">
        <ele>1173</ele>
        <time>2021-08-03T09:47:50.326Z</time>
      </trkpt>
      <trkpt lat="47.02007" lon="8.89843">
        <ele>1173</ele>
        <time>2021-08-03T09:47:51.326Z</time>
      </trkpt>
      <trkpt lat="47.02007" lon="8.89843">
        <ele>1173</ele>
        <time>2021-08-03T09:47:52.326Z</time>
      </trkpt>
      <trkpt lat="47.02007" lon="8.89843">
        <ele>1173</ele>
        <time>2021-08-03T09:47:53.326Z</time>
      </trkpt>
      <trkpt lat="47.02007" lon="8.89843">
        <ele>1173</ele>
        <time>2021-08-03T09:47:54.326Z</time>
      </trkpt>
      <trkpt lat="47.02007" lon="8.89843">
        <ele>1173</ele>
        <time>2021-08-03T09:47:55.327Z</time>
      </trkpt>
      <trkpt lat="47.02006" lon="8.89843">
        <ele>1173</ele>
        <time>2021-08-03T09:47:56.326Z</time>
      </trkpt>
      <trkpt lat="47.02006" lon="8.89844">
        <ele>1173</ele>
        <time>2021-08-03T09:47:57.327Z</time>
      </trkpt>
      <trkpt lat="47.02006" lon="8.89844">
        <ele>1173</ele>
        <time>2021-08-03T09:47:58.326Z</time>
      </trkpt>
      <trkpt lat="47.02005" lon="8.89843">
        <ele>1173</ele>
        <time>2021-08-03T09:47:59.327Z</time>
      </trkpt>
      <trkpt lat="47.02005" lon="8.89842">
        <ele>1173</ele>
        <time>2021-08-03T09:48:00.327Z</time>
      </trkpt>
      <trkpt lat="47.02005" lon="8.8984">
        <ele>1172</ele>
        <time>2021-08-03T09:48:01.327Z</time>
      </trkpt>
      <trkpt lat="47.02005" lon="8.8984">
        <ele>1172</ele>
        <time>2021-08-03T09:48:02.326Z</time>
      </trkpt>
      <trkpt lat="47.02005" lon="8.89839">
        <ele>1172</ele>
        <time>2021-08-03T09:48:03.326Z</time>
      </trkpt>
      <trkpt lat="47.02004" lon="8.89839">
        <ele>1171</ele>
        <time>2021-08-03T09:48:04.327Z</time>
      </trkpt>
      <trkpt lat="47.02004" lon="8.89838">
        <ele>1171</ele>
        <time>2021-08-03T09:48:05.327Z</time>
      </trkpt>
      <trkpt lat="47.02004" lon="8.89838">
        <ele>1171</ele>
        <time>2021-08-03T09:48:06.327Z</time>
      </trkpt>
      <trkpt lat="47.02003" lon="8.89838">
        <ele>1171</ele>
        <time>2021-08-03T09:48:07.326Z</time>
      </trkpt>
      <trkpt lat="47.02002" lon="8.89838">
        <ele>1172</ele>
        <time>2021-08-03T09:48:08.327Z</time>
      </trkpt>
      <trkpt lat="47.02002" lon="8.89838">
        <ele>1172</ele>
        <time>2021-08-03T09:48:09.326Z</time>
      </trkpt>
      <trkpt lat="47.02002" lon="8.89837">
        <ele>1172</ele>
        <time>2021-08-03T09:48:10.327Z</time>
      </trkpt>
      <trkpt lat="47.02002" lon="8.89837">
        <ele>1172</ele>
        <time>2021-08-03T09:48:11.327Z</time>
      </trkpt>
      <trkpt lat="47.02002" lon="8.89837">
        <ele>1173</ele>
        <time>2021-08-03T09:48:12.326Z</time>
      </trkpt>
      <trkpt lat="47.02002" lon="8.89836">
        <ele>1173</ele>
        <time>2021-08-03T09:48:13.326Z</time>
      </trkpt>
      <trkpt lat="47.02002" lon="8.89836">
        <ele>1173</ele>
        <time>2021-08-03T09:48:14.326Z</time>
      </trkpt>
      <trkpt lat="47.02001" lon="8.89835">
        <ele>1173</ele>
        <time>2021-08-03T09:48:15.326Z</time>
      </trkpt>
      <trkpt lat="47.02001" lon="8.89835">
        <ele>1174</ele>
        <time>2021-08-03T09:48:16.327Z</time>
      </trkpt>
      <trkpt lat="47.02001" lon="8.89835">
        <ele>1174</ele>
        <time>2021-08-03T09:48:17.326Z</time>
      </trkpt>
      <trkpt lat="47.02" lon="8.89834">
        <ele>1174</ele>
        <time>2021-08-03T09:48:18.327Z</time>
      </trkpt>
      <trkpt lat="47.02001" lon="8.89833">
        <ele>1174</ele>
        <time>2021-08-03T09:48:19.326Z</time>
      </trkpt>
      <trkpt lat="47.02001" lon="8.89832">
        <ele>1174</ele>
        <time>2021-08-03T09:48:20.327Z</time>
      </trkpt>
      <trkpt lat="47.02002" lon="8.89831">
        <ele>1175</ele>
        <time>2021-08-03T09:48:21.326Z</time>
      </trkpt>
      <trkpt lat="47.02002" lon="8.8983">
        <ele>1175</ele>
        <time>2021-08-03T09:48:22.327Z</time>
      </trkpt>
      <trkpt lat="47.02003" lon="8.89828">
        <ele>1175</ele>
        <time>2021-08-03T09:48:23.326Z</time>
      </trkpt>
      <trkpt lat="47.02003" lon="8.89826">
        <ele>1176</ele>
        <time>2021-08-03T09:48:24.327Z</time>
      </trkpt>
      <trkpt lat="47.02003" lon="8.89824">
        <ele>1176</ele>
        <time>2021-08-03T09:48:25.327Z</time>
      </trkpt>
      <trkpt lat="47.02003" lon="8.89823">
        <ele>1177</ele>
        <time>2021-08-03T09:48:26.327Z</time>
      </trkpt>
      <trkpt lat="47.02003" lon="8.89822">
        <ele>1178</ele>
        <time>2021-08-03T09:48:27.327Z</time>
      </trkpt>
      <trkpt lat="47.02003" lon="8.89822">
        <ele>1179</ele>
        <time>2021-08-03T09:48:28.326Z</time>
      </trkpt>
      <trkpt lat="47.02003" lon="8.8982">
        <ele>1179</ele>
        <time>2021-08-03T09:48:29.326Z</time>
      </trkpt>
      <trkpt lat="47.02002" lon="8.89818">
        <ele>1179</ele>
        <time>2021-08-03T09:48:30.327Z</time>
      </trkpt>
      <trkpt lat="47.02002" lon="8.89816">
        <ele>1180</ele>
        <time>2021-08-03T09:48:31.327Z</time>
      </trkpt>
      <trkpt lat="47.02002" lon="8.89814">
        <ele>1180</ele>
        <time>2021-08-03T09:48:32.327Z</time>
      </trkpt>
      <trkpt lat="47.02002" lon="8.89813">
        <ele>1179</ele>
        <time>2021-08-03T09:48:33.327Z</time>
      </trkpt>
      <trkpt lat="47.02003" lon="8.89811">
        <ele>1179</ele>
        <time>2021-08-03T09:48:34.327Z</time>
      </trkpt>
      <trkpt lat="47.02002" lon="8.8981">
        <ele>1178</ele>
        <time>2021-08-03T09:48:35.327Z</time>
      </trkpt>
      <trkpt lat="47.02003" lon="8.89808">
        <ele>1178</ele>
        <time>2021-08-03T09:48:36.327Z</time>
      </trkpt>
      <trkpt lat="47.02003" lon="8.89807">
        <ele>1178</ele>
        <time>2021-08-03T09:48:37.327Z</time>
      </trkpt>
      <trkpt lat="47.02003" lon="8.89806">
        <ele>1178</ele>
        <time>2021-08-03T09:48:38.327Z</time>
      </trkpt>
      <trkpt lat="47.02003" lon="8.89805">
        <ele>1178</ele>
        <time>2021-08-03T09:48:39.327Z</time>
      </trkpt>
      <trkpt lat="47.01998" lon="8.89796">
        <ele>1183</ele>
        <time>2021-08-03T09:48:40.327Z</time>
      </trkpt>
      <trkpt lat="47.01998" lon="8.89794">
        <ele>1183</ele>
        <time>2021-08-03T09:48:41.326Z</time>
      </trkpt>
      <trkpt lat="47.01999" lon="8.89792">
        <ele>1183</ele>
        <time>2021-08-03T09:48:42.326Z</time>
      </trkpt>
      <trkpt lat="47.01999" lon="8.89791">
        <ele>1183</ele>
        <time>2021-08-03T09:48:43.327Z</time>
      </trkpt>
      <trkpt lat="47.01999" lon="8.8979">
        <ele>1183</ele>
        <time>2021-08-03T09:48:44.327Z</time>
      </trkpt>
      <trkpt lat="47.01999" lon="8.89789">
        <ele>1183</ele>
        <time>2021-08-03T09:48:45.326Z</time>
      </trkpt>
      <trkpt lat="47.01999" lon="8.89788">
        <ele>1182</ele>
        <time>2021-08-03T09:48:46.326Z</time>
      </trkpt>
      <trkpt lat="47.01999" lon="8.89787">
        <ele>1182</ele>
        <time>2021-08-03T09:48:47.327Z</time>
      </trkpt>
      <trkpt lat="47.01999" lon="8.89786">
        <ele>1182</ele>
        <time>2021-08-03T09:48:48.327Z</time>
      </trkpt>
      <trkpt lat="47.01999" lon="8.89785">
        <ele>1181</ele>
        <time>2021-08-03T09:48:49.326Z</time>
      </trkpt>
      <trkpt lat="47.01998" lon="8.89783">
        <ele>1181</ele>
        <time>2021-08-03T09:48:50.327Z</time>
      </trkpt>
      <trkpt lat="47.01999" lon="8.89782">
        <ele>1180</ele>
        <time>2021-08-03T09:48:51.326Z</time>
      </trkpt>
      <trkpt lat="47.01999" lon="8.89781">
        <ele>1180</ele>
        <time>2021-08-03T09:48:52.327Z</time>
      </trkpt>
      <trkpt lat="47.01999" lon="8.8978">
        <ele>1179</ele>
        <time>2021-08-03T09:48:53.327Z</time>
      </trkpt>
      <trkpt lat="47.01999" lon="8.89779">
        <ele>1179</ele>
        <time>2021-08-03T09:48:54.327Z</time>
      </trkpt>
      <trkpt lat="47.01999" lon="8.89778">
        <ele>1179</ele>
        <time>2021-08-03T09:48:55.326Z</time>
      </trkpt>
      <trkpt lat="47.01999" lon="8.89777">
        <ele>1178</ele>
        <time>2021-08-03T09:48:56.326Z</time>
      </trkpt>
      <trkpt lat="47.01999" lon="8.89776">
        <ele>1178</ele>
        <time>2021-08-03T09:48:57.327Z</time>
      </trkpt>
      <trkpt lat="47.01999" lon="8.89774">
        <ele>1178</ele>
        <time>2021-08-03T09:48:58.326Z</time>
      </trkpt>
      <trkpt lat="47.01999" lon="8.89773">
        <ele>1178</ele>
        <time>2021-08-03T09:48:59.326Z</time>
      </trkpt>
      <trkpt lat="47.01999" lon="8.89771">
        <ele>1177</ele>
        <time>2021-08-03T09:49:00.327Z</time>
      </trkpt>
      <trkpt lat="47.01999" lon="8.8977">
        <ele>1177</ele>
        <time>2021-08-03T09:49:01.326Z</time>
      </trkpt>
      <trkpt lat="47.02" lon="8.89769">
        <ele>1177</ele>
        <time>2021-08-03T09:49:02.327Z</time>
      </trkpt>
      <trkpt lat="47.02" lon="8.89767">
        <ele>1178</ele>
        <time>2021-08-03T09:49:03.326Z</time>
      </trkpt>
      <trkpt lat="47.02" lon="8.89766">
        <ele>1178</ele>
        <time>2021-08-03T09:49:04.326Z</time>
      </trkpt>
      <trkpt lat="47.02001" lon="8.89764">
        <ele>1178</ele>
        <time>2021-08-03T09:49:05.326Z</time>
      </trkpt>
      <trkpt lat="47.02001" lon="8.89762">
        <ele>1178</ele>
        <time>2021-08-03T09:49:06.326Z</time>
      </trkpt>
      <trkpt lat="47.02001" lon="8.89761">
        <ele>1178</ele>
        <time>2021-08-03T09:49:07.327Z</time>
      </trkpt>
      <trkpt lat="47.02002" lon="8.8976">
        <ele>1178</ele>
        <time>2021-08-03T09:49:08.326Z</time>
      </trkpt>
      <trkpt lat="47.02002" lon="8.89759">
        <ele>1178</ele>
        <time>2021-08-03T09:49:09.326Z</time>
      </trkpt>
      <trkpt lat="47.02002" lon="8.89757">
        <ele>1178</ele>
        <time>2021-08-03T09:49:10.326Z</time>
      </trkpt>
      <trkpt lat="47.02002" lon="8.89756">
        <ele>1178</ele>
        <time>2021-08-03T09:49:11.326Z</time>
      </trkpt>
      <trkpt lat="47.02002" lon="8.89755">
        <ele>1177</ele>
        <time>2021-08-03T09:49:12.326Z</time>
      </trkpt>
      <trkpt lat="47.02001" lon="8.89754">
        <ele>1177</ele>
        <time>2021-08-03T09:49:13.326Z</time>
      </trkpt>
      <trkpt lat="47.02" lon="8.89753">
        <ele>1177</ele>
        <time>2021-08-03T09:49:14.326Z</time>
      </trkpt>
      <trkpt lat="47.02" lon="8.89752">
        <ele>1177</ele>
        <time>2021-08-03T09:49:15.326Z</time>
      </trkpt>
      <trkpt lat="47.01999" lon="8.89751">
        <ele>1176</ele>
        <time>2021-08-03T09:49:16.326Z</time>
      </trkpt>
      <trkpt lat="47.01999" lon="8.89749">
        <ele>1176</ele>
        <time>2021-08-03T09:49:17.326Z</time>
      </trkpt>
      <trkpt lat="47.01999" lon="8.89746">
        <ele>1176</ele>
        <time>2021-08-03T09:49:18.326Z</time>
      </trkpt>
      <trkpt lat="47.02" lon="8.89744">
        <ele>1176</ele>
        <time>2021-08-03T09:49:19.327Z</time>
      </trkpt>
      <trkpt lat="47.02" lon="8.89743">
        <ele>1177</ele>
        <time>2021-08-03T09:49:20.326Z</time>
      </trkpt>
      <trkpt lat="47.02" lon="8.89742">
        <ele>1177</ele>
        <time>2021-08-03T09:49:21.326Z</time>
      </trkpt>
      <trkpt lat="47.02" lon="8.89741">
        <ele>1177</ele>
        <time>2021-08-03T09:49:22.326Z</time>
      </trkpt>
      <trkpt lat="47.02001" lon="8.8974">
        <ele>1177</ele>
        <time>2021-08-03T09:49:23.326Z</time>
      </trkpt>
      <trkpt lat="47.02001" lon="8.89739">
        <ele>1177</ele>
        <time>2021-08-03T09:49:24.326Z</time>
      </trkpt>
      <trkpt lat="47.02001" lon="8.89738">
        <ele>1177</ele>
        <time>2021-08-03T09:49:25.326Z</time>
      </trkpt>
      <trkpt lat="47.02" lon="8.89736">
        <ele>1178</ele>
        <time>2021-08-03T09:49:26.327Z</time>
      </trkpt>
      <trkpt lat="47.02" lon="8.89735">
        <ele>1179</ele>
        <time>2021-08-03T09:49:27.327Z</time>
      </trkpt>
      <trkpt lat="47.01999" lon="8.89734">
        <ele>1180</ele>
        <time>2021-08-03T09:49:28.327Z</time>
      </trkpt>
      <trkpt lat="47.01999" lon="8.89733">
        <ele>1181</ele>
        <time>2021-08-03T09:49:29.327Z</time>
      </trkpt>
      <trkpt lat="47.01999" lon="8.89732">
        <ele>1182</ele>
        <time>2021-08-03T09:49:30.327Z</time>
      </trkpt>
      <trkpt lat="47.01998" lon="8.89732">
        <ele>1183</ele>
        <time>2021-08-03T09:49:31.326Z</time>
      </trkpt>
      <trkpt lat="47.01998" lon="8.89731">
        <ele>1184</ele>
        <time>2021-08-03T09:49:32.326Z</time>
      </trkpt>
      <trkpt lat="47.01998" lon="8.8973">
        <ele>1185</ele>
        <time>2021-08-03T09:49:33.326Z</time>
      </trkpt>
      <trkpt lat="47.01998" lon="8.8973">
        <ele>1186</ele>
        <time>2021-08-03T09:49:34.327Z</time>
      </trkpt>
      <trkpt lat="47.01997" lon="8.89729">
        <ele>1186</ele>
        <time>2021-08-03T09:49:35.327Z</time>
      </trkpt>
      <trkpt lat="47.01997" lon="8.89728">
        <ele>1186</ele>
        <time>2021-08-03T09:49:36.326Z</time>
      </trkpt>
      <trkpt lat="47.01997" lon="8.89727">
        <ele>1185</ele>
        <time>2021-08-03T09:49:37.326Z</time>
      </trkpt>
      <trkpt lat="47.01997" lon="8.89727">
        <ele>1185</ele>
        <time>2021-08-03T09:49:38.326Z</time>
      </trkpt>
      <trkpt lat="47.01997" lon="8.89726">
        <ele>1185</ele>
        <time>2021-08-03T09:49:39.326Z</time>
      </trkpt>
      <trkpt lat="47.01997" lon="8.89725">
        <ele>1185</ele>
        <time>2021-08-03T09:49:40.327Z</time>
      </trkpt>
      <trkpt lat="47.01998" lon="8.89724">
        <ele>1186</ele>
        <time>2021-08-03T09:49:41.327Z</time>
      </trkpt>
      <trkpt lat="47.01998" lon="8.89723">
        <ele>1185</ele>
        <time>2021-08-03T09:49:42.326Z</time>
      </trkpt>
      <trkpt lat="47.01998" lon="8.89721">
        <ele>1185</ele>
        <time>2021-08-03T09:49:43.327Z</time>
      </trkpt>
      <trkpt lat="47.01998" lon="8.8972">
        <ele>1185</ele>
        <time>2021-08-03T09:49:44.327Z</time>
      </trkpt>
      <trkpt lat="47.01998" lon="8.8972">
        <ele>1185</ele>
        <time>2021-08-03T09:49:45.327Z</time>
      </trkpt>
      <trkpt lat="47.01997" lon="8.89718">
        <ele>1185</ele>
        <time>2021-08-03T09:49:46.327Z</time>
      </trkpt>
      <trkpt lat="47.01997" lon="8.89717">
        <ele>1185</ele>
        <time>2021-08-03T09:49:47.326Z</time>
      </trkpt>
      <trkpt lat="47.01997" lon="8.89716">
        <ele>1184</ele>
        <time>2021-08-03T09:49:48.327Z</time>
      </trkpt>
      <trkpt lat="47.01997" lon="8.89715">
        <ele>1184</ele>
        <time>2021-08-03T09:49:49.327Z</time>
      </trkpt>
      <trkpt lat="47.01997" lon="8.89714">
        <ele>1184</ele>
        <time>2021-08-03T09:49:50.327Z</time>
      </trkpt>
      <trkpt lat="47.01997" lon="8.89713">
        <ele>1184</ele>
        <time>2021-08-03T09:49:51.327Z</time>
      </trkpt>
      <trkpt lat="47.01997" lon="8.89712">
        <ele>1183</ele>
        <time>2021-08-03T09:49:52.327Z</time>
      </trkpt>
      <trkpt lat="47.01997" lon="8.89711">
        <ele>1183</ele>
        <time>2021-08-03T09:49:53.327Z</time>
      </trkpt>
      <trkpt lat="47.01997" lon="8.89711">
        <ele>1183</ele>
        <time>2021-08-03T09:49:54.327Z</time>
      </trkpt>
      <trkpt lat="47.01997" lon="8.89709">
        <ele>1182</ele>
        <time>2021-08-03T09:49:55.327Z</time>
      </trkpt>
      <trkpt lat="47.01997" lon="8.89707">
        <ele>1182</ele>
        <time>2021-08-03T09:49:56.326Z</time>
      </trkpt>
      <trkpt lat="47.01997" lon="8.89706">
        <ele>1182</ele>
        <time>2021-08-03T09:49:57.327Z</time>
      </trkpt>
      <trkpt lat="47.01996" lon="8.89705">
        <ele>1182</ele>
        <time>2021-08-03T09:49:58.327Z</time>
      </trkpt>
      <trkpt lat="47.01996" lon="8.89705">
        <ele>1182</ele>
        <time>2021-08-03T09:49:59.327Z</time>
      </trkpt>
      <trkpt lat="47.01996" lon="8.89704">
        <ele>1182</ele>
        <time>2021-08-03T09:50:00.327Z</time>
      </trkpt>
      <trkpt lat="47.01995" lon="8.89703">
        <ele>1183</ele>
        <time>2021-08-03T09:50:01.327Z</time>
      </trkpt>
      <trkpt lat="47.01995" lon="8.89702">
        <ele>1183</ele>
        <time>2021-08-03T09:50:02.327Z</time>
      </trkpt>
      <trkpt lat="47.01995" lon="8.897">
        <ele>1184</ele>
        <time>2021-08-03T09:50:03.326Z</time>
      </trkpt>
      <trkpt lat="47.01994" lon="8.89699">
        <ele>1184</ele>
        <time>2021-08-03T09:50:04.327Z</time>
      </trkpt>
      <trkpt lat="47.01994" lon="8.89698">
        <ele>1184</ele>
        <time>2021-08-03T09:50:05.327Z</time>
      </trkpt>
      <trkpt lat="47.01993" lon="8.89697">
        <ele>1184</ele>
        <time>2021-08-03T09:50:06.327Z</time>
      </trkpt>
      <trkpt lat="47.01992" lon="8.89697">
        <ele>1184</ele>
        <time>2021-08-03T09:50:07.327Z</time>
      </trkpt>
      <trkpt lat="47.01992" lon="8.89696">
        <ele>1184</ele>
        <time>2021-08-03T09:50:08.327Z</time>
      </trkpt>
      <trkpt lat="47.01992" lon="8.89695">
        <ele>1184</ele>
        <time>2021-08-03T09:50:09.327Z</time>
      </trkpt>
      <trkpt lat="47.01992" lon="8.89695">
        <ele>1185</ele>
        <time>2021-08-03T09:50:10.327Z</time>
      </trkpt>
      <trkpt lat="47.01992" lon="8.89694">
        <ele>1185</ele>
        <time>2021-08-03T09:50:11.326Z</time>
      </trkpt>
      <trkpt lat="47.01993" lon="8.89692">
        <ele>1185</ele>
        <time>2021-08-03T09:50:12.327Z</time>
      </trkpt>
      <trkpt lat="47.01993" lon="8.89691">
        <ele>1185</ele>
        <time>2021-08-03T09:50:13.327Z</time>
      </trkpt>
      <trkpt lat="47.01993" lon="8.89691">
        <ele>1184</ele>
        <time>2021-08-03T09:50:14.327Z</time>
      </trkpt>
      <trkpt lat="47.01994" lon="8.8969">
        <ele>1184</ele>
        <time>2021-08-03T09:50:15.327Z</time>
      </trkpt>
      <trkpt lat="47.01993" lon="8.89689">
        <ele>1184</ele>
        <time>2021-08-03T09:50:16.327Z</time>
      </trkpt>
      <trkpt lat="47.01993" lon="8.89688">
        <ele>1183</ele>
        <time>2021-08-03T09:50:17.327Z</time>
      </trkpt>
      <trkpt lat="47.01992" lon="8.89688">
        <ele>1183</ele>
        <time>2021-08-03T09:50:18.327Z</time>
      </trkpt>
      <trkpt lat="47.01993" lon="8.89687">
        <ele>1183</ele>
        <time>2021-08-03T09:50:19.327Z</time>
      </trkpt>
      <trkpt lat="47.01993" lon="8.89686">
        <ele>1183</ele>
        <time>2021-08-03T09:50:20.327Z</time>
      </trkpt>
      <trkpt lat="47.01994" lon="8.89685">
        <ele>1182</ele>
        <time>2021-08-03T09:50:21.326Z</time>
      </trkpt>
      <trkpt lat="47.01995" lon="8.89683">
        <ele>1181</ele>
        <time>2021-08-03T09:50:22.326Z</time>
      </trkpt>
      <trkpt lat="47.01995" lon="8.89681">
        <ele>1180</ele>
        <time>2021-08-03T09:50:23.327Z</time>
      </trkpt>
      <trkpt lat="47.01996" lon="8.8968">
        <ele>1180</ele>
        <time>2021-08-03T09:50:24.327Z</time>
      </trkpt>
      <trkpt lat="47.01995" lon="8.89679">
        <ele>1179</ele>
        <time>2021-08-03T09:50:25.327Z</time>
      </trkpt>
      <trkpt lat="47.01995" lon="8.89678">
        <ele>1178</ele>
        <time>2021-08-03T09:50:26.326Z</time>
      </trkpt>
      <trkpt lat="47.01995" lon="8.89677">
        <ele>1177</ele>
        <time>2021-08-03T09:50:27.327Z</time>
      </trkpt>
      <trkpt lat="47.01996" lon="8.89674">
        <ele>1177</ele>
        <time>2021-08-03T09:50:28.327Z</time>
      </trkpt>
      <trkpt lat="47.01997" lon="8.89671">
        <ele>1176</ele>
        <time>2021-08-03T09:50:29.327Z</time>
      </trkpt>
      <trkpt lat="47.01998" lon="8.8967">
        <ele>1175</ele>
        <time>2021-08-03T09:50:30.326Z</time>
      </trkpt>
      <trkpt lat="47.01998" lon="8.89668">
        <ele>1175</ele>
        <time>2021-08-03T09:50:31.326Z</time>
      </trkpt>
      <trkpt lat="47.01998" lon="8.89667">
        <ele>1175</ele>
        <time>2021-08-03T09:50:32.327Z</time>
      </trkpt>
      <trkpt lat="47.01998" lon="8.89666">
        <ele>1175</ele>
        <time>2021-08-03T09:50:33.327Z</time>
      </trkpt>
      <trkpt lat="47.01998" lon="8.89665">
        <ele>1175</ele>
        <time>2021-08-03T09:50:34.327Z</time>
      </trkpt>
      <trkpt lat="47.01998" lon="8.89664">
        <ele>1175</ele>
        <time>2021-08-03T09:50:35.326Z</time>
      </trkpt>
      <trkpt lat="47.01998" lon="8.89663">
        <ele>1175</ele>
        <time>2021-08-03T09:50:36.326Z</time>
      </trkpt>
      <trkpt lat="47.01998" lon="8.89662">
        <ele>1175</ele>
        <time>2021-08-03T09:50:37.326Z</time>
      </trkpt>
      <trkpt lat="47.01998" lon="8.89661">
        <ele>1176</ele>
        <time>2021-08-03T09:50:38.326Z</time>
      </trkpt>
      <trkpt lat="47.01998" lon="8.8966">
        <ele>1176</ele>
        <time>2021-08-03T09:50:39.326Z</time>
      </trkpt>
      <trkpt lat="47.01997" lon="8.89659">
        <ele>1177</ele>
        <time>2021-08-03T09:50:40.326Z</time>
      </trkpt>
      <trkpt lat="47.01997" lon="8.89658">
        <ele>1178</ele>
        <time>2021-08-03T09:50:41.327Z</time>
      </trkpt>
      <trkpt lat="47.01996" lon="8.89658">
        <ele>1179</ele>
        <time>2021-08-03T09:50:42.327Z</time>
      </trkpt>
      <trkpt lat="47.01995" lon="8.89656">
        <ele>1180</ele>
        <time>2021-08-03T09:50:43.326Z</time>
      </trkpt>
      <trkpt lat="47.01994" lon="8.89656">
        <ele>1181</ele>
        <time>2021-08-03T09:50:44.326Z</time>
      </trkpt>
      <trkpt lat="47.01994" lon="8.89655">
        <ele>1182</ele>
        <time>2021-08-03T09:50:45.327Z</time>
      </trkpt>
      <trkpt lat="47.01994" lon="8.89655">
        <ele>1182</ele>
        <time>2021-08-03T09:50:46.327Z</time>
      </trkpt>
      <trkpt lat="47.01994" lon="8.89654">
        <ele>1182</ele>
        <time>2021-08-03T09:50:47.327Z</time>
      </trkpt>
      <trkpt lat="47.01993" lon="8.89653">
        <ele>1182</ele>
        <time>2021-08-03T09:50:48.327Z</time>
      </trkpt>
      <trkpt lat="47.01992" lon="8.89653">
        <ele>1182</ele>
        <time>2021-08-03T09:50:49.327Z</time>
      </trkpt>
      <trkpt lat="47.01991" lon="8.89652">
        <ele>1182</ele>
        <time>2021-08-03T09:50:50.327Z</time>
      </trkpt>
      <trkpt lat="47.01991" lon="8.8965">
        <ele>1183</ele>
        <time>2021-08-03T09:50:51.326Z</time>
      </trkpt>
      <trkpt lat="47.01992" lon="8.89649">
        <ele>1183</ele>
        <time>2021-08-03T09:50:52.327Z</time>
      </trkpt>
      <trkpt lat="47.01993" lon="8.89647">
        <ele>1183</ele>
        <time>2021-08-03T09:50:53.327Z</time>
      </trkpt>
      <trkpt lat="47.01993" lon="8.89646">
        <ele>1183</ele>
        <time>2021-08-03T09:50:54.327Z</time>
      </trkpt>
      <trkpt lat="47.01994" lon="8.89645">
        <ele>1183</ele>
        <time>2021-08-03T09:50:55.326Z</time>
      </trkpt>
      <trkpt lat="47.01994" lon="8.89644">
        <ele>1183</ele>
        <time>2021-08-03T09:50:56.326Z</time>
      </trkpt>
      <trkpt lat="47.01993" lon="8.89643">
        <ele>1184</ele>
        <time>2021-08-03T09:50:57.326Z</time>
      </trkpt>
      <trkpt lat="47.01993" lon="8.89642">
        <ele>1184</ele>
        <time>2021-08-03T09:50:58.326Z</time>
      </trkpt>
      <trkpt lat="47.01993" lon="8.89641">
        <ele>1185</ele>
        <time>2021-08-03T09:50:59.326Z</time>
      </trkpt>
      <trkpt lat="47.01993" lon="8.8964">
        <ele>1186</ele>
        <time>2021-08-03T09:51:00.327Z</time>
      </trkpt>
      <trkpt lat="47.01992" lon="8.89639">
        <ele>1186</ele>
        <time>2021-08-03T09:51:01.326Z</time>
      </trkpt>
      <trkpt lat="47.01992" lon="8.89638">
        <ele>1186</ele>
        <time>2021-08-03T09:51:02.327Z</time>
      </trkpt>
      <trkpt lat="47.01992" lon="8.89637">
        <ele>1186</ele>
        <time>2021-08-03T09:51:03.326Z</time>
      </trkpt>
      <trkpt lat="47.01992" lon="8.89636">
        <ele>1186</ele>
        <time>2021-08-03T09:51:04.327Z</time>
      </trkpt>
      <trkpt lat="47.01992" lon="8.89635">
        <ele>1187</ele>
        <time>2021-08-03T09:51:05.326Z</time>
      </trkpt>
      <trkpt lat="47.01992" lon="8.89634">
        <ele>1187</ele>
        <time>2021-08-03T09:51:06.327Z</time>
      </trkpt>
      <trkpt lat="47.01992" lon="8.89633">
        <ele>1188</ele>
        <time>2021-08-03T09:51:07.327Z</time>
      </trkpt>
      <trkpt lat="47.01992" lon="8.89631">
        <ele>1188</ele>
        <time>2021-08-03T09:51:08.326Z</time>
      </trkpt>
      <trkpt lat="47.01991" lon="8.8963">
        <ele>1188</ele>
        <time>2021-08-03T09:51:09.327Z</time>
      </trkpt>
      <trkpt lat="47.01991" lon="8.89628">
        <ele>1189</ele>
        <time>2021-08-03T09:51:10.327Z</time>
      </trkpt>
      <trkpt lat="47.01991" lon="8.89628">
        <ele>1189</ele>
        <time>2021-08-03T09:51:11.327Z</time>
      </trkpt>
      <trkpt lat="47.01991" lon="8.89626">
        <ele>1190</ele>
        <time>2021-08-03T09:51:12.327Z</time>
      </trkpt>
      <trkpt lat="47.0199" lon="8.89625">
        <ele>1190</ele>
        <time>2021-08-03T09:51:13.327Z</time>
      </trkpt>
      <trkpt lat="47.0199" lon="8.89624">
        <ele>1191</ele>
        <time>2021-08-03T09:51:14.326Z</time>
      </trkpt>
      <trkpt lat="47.01991" lon="8.89621">
        <ele>1191</ele>
        <time>2021-08-03T09:51:15.327Z</time>
      </trkpt>
      <trkpt lat="47.01991" lon="8.89619">
        <ele>1192</ele>
        <time>2021-08-03T09:51:16.327Z</time>
      </trkpt>
      <trkpt lat="47.01991" lon="8.89618">
        <ele>1192</ele>
        <time>2021-08-03T09:51:17.327Z</time>
      </trkpt>
      <trkpt lat="47.01991" lon="8.89617">
        <ele>1193</ele>
        <time>2021-08-03T09:51:18.326Z</time>
      </trkpt>
      <trkpt lat="47.0199" lon="8.89615">
        <ele>1193</ele>
        <time>2021-08-03T09:51:19.326Z</time>
      </trkpt>
      <trkpt lat="47.0199" lon="8.89614">
        <ele>1194</ele>
        <time>2021-08-03T09:51:20.327Z</time>
      </trkpt>
      <trkpt lat="47.0199" lon="8.89613">
        <ele>1195</ele>
        <time>2021-08-03T09:51:21.326Z</time>
      </trkpt>
      <trkpt lat="47.01989" lon="8.89612">
        <ele>1195</ele>
        <time>2021-08-03T09:51:22.326Z</time>
      </trkpt>
      <trkpt lat="47.01989" lon="8.89611">
        <ele>1196</ele>
        <time>2021-08-03T09:51:23.327Z</time>
      </trkpt>
      <trkpt lat="47.01988" lon="8.89609">
        <ele>1197</ele>
        <time>2021-08-03T09:51:24.327Z</time>
      </trkpt>
      <trkpt lat="47.01988" lon="8.89607">
        <ele>1197</ele>
        <time>2021-08-03T09:51:25.326Z</time>
      </trkpt>
      <trkpt lat="47.01987" lon="8.89607">
        <ele>1198</ele>
        <time>2021-08-03T09:51:26.326Z</time>
      </trkpt>
      <trkpt lat="47.01987" lon="8.89605">
        <ele>1199</ele>
        <time>2021-08-03T09:51:27.327Z</time>
      </trkpt>
      <trkpt lat="47.01987" lon="8.89603">
        <ele>1199</ele>
        <time>2021-08-03T09:51:28.327Z</time>
      </trkpt>
      <trkpt lat="47.01987" lon="8.89602">
        <ele>1200</ele>
        <time>2021-08-03T09:51:29.327Z</time>
      </trkpt>
      <trkpt lat="47.01986" lon="8.89601">
        <ele>1200</ele>
        <time>2021-08-03T09:51:30.327Z</time>
      </trkpt>
      <trkpt lat="47.01986" lon="8.896">
        <ele>1201</ele>
        <time>2021-08-03T09:51:31.326Z</time>
      </trkpt>
      <trkpt lat="47.01985" lon="8.89598">
        <ele>1201</ele>
        <time>2021-08-03T09:51:32.327Z</time>
      </trkpt>
      <trkpt lat="47.01984" lon="8.89598">
        <ele>1200</ele>
        <time>2021-08-03T09:51:33.327Z</time>
      </trkpt>
      <trkpt lat="47.01984" lon="8.89598">
        <ele>1200</ele>
        <time>2021-08-03T09:51:34.327Z</time>
      </trkpt>
      <trkpt lat="47.01985" lon="8.89597">
        <ele>1200</ele>
        <time>2021-08-03T09:51:35.326Z</time>
      </trkpt>
      <trkpt lat="47.01985" lon="8.89597">
        <ele>1199</ele>
        <time>2021-08-03T09:51:36.327Z</time>
      </trkpt>
      <trkpt lat="47.01985" lon="8.89596">
        <ele>1199</ele>
        <time>2021-08-03T09:51:37.327Z</time>
      </trkpt>
      <trkpt lat="47.01985" lon="8.89594">
        <ele>1199</ele>
        <time>2021-08-03T09:51:38.327Z</time>
      </trkpt>
      <trkpt lat="47.01985" lon="8.89593">
        <ele>1198</ele>
        <time>2021-08-03T09:51:39.327Z</time>
      </trkpt>
      <trkpt lat="47.01985" lon="8.89592">
        <ele>1198</ele>
        <time>2021-08-03T09:51:40.326Z</time>
      </trkpt>
      <trkpt lat="47.01985" lon="8.89592">
        <ele>1197</ele>
        <time>2021-08-03T09:51:41.326Z</time>
      </trkpt>
      <trkpt lat="47.01984" lon="8.89591">
        <ele>1197</ele>
        <time>2021-08-03T09:51:42.326Z</time>
      </trkpt>
      <trkpt lat="47.01984" lon="8.8959">
        <ele>1196</ele>
        <time>2021-08-03T09:51:43.326Z</time>
      </trkpt>
      <trkpt lat="47.01983" lon="8.89589">
        <ele>1195</ele>
        <time>2021-08-03T09:51:44.327Z</time>
      </trkpt>
      <trkpt lat="47.01983" lon="8.89588">
        <ele>1195</ele>
        <time>2021-08-03T09:51:45.327Z</time>
      </trkpt>
      <trkpt lat="47.01982" lon="8.89587">
        <ele>1195</ele>
        <time>2021-08-03T09:51:46.327Z</time>
      </trkpt>
      <trkpt lat="47.01982" lon="8.89586">
        <ele>1195</ele>
        <time>2021-08-03T09:51:47.327Z</time>
      </trkpt>
      <trkpt lat="47.01982" lon="8.89585">
        <ele>1195</ele>
        <time>2021-08-03T09:51:48.327Z</time>
      </trkpt>
      <trkpt lat="47.01981" lon="8.89583">
        <ele>1195</ele>
        <time>2021-08-03T09:51:49.326Z</time>
      </trkpt>
      <trkpt lat="47.01981" lon="8.89581">
        <ele>1195</ele>
        <time>2021-08-03T09:51:50.327Z</time>
      </trkpt>
      <trkpt lat="47.01981" lon="8.89581">
        <ele>1195</ele>
        <time>2021-08-03T09:51:51.327Z</time>
      </trkpt>
      <trkpt lat="47.0198" lon="8.8958">
        <ele>1195</ele>
        <time>2021-08-03T09:51:52.327Z</time>
      </trkpt>
      <trkpt lat="47.0198" lon="8.89579">
        <ele>1195</ele>
        <time>2021-08-03T09:51:53.327Z</time>
      </trkpt>
      <trkpt lat="47.0198" lon="8.89579">
        <ele>1195</ele>
        <time>2021-08-03T09:51:54.327Z</time>
      </trkpt>
      <trkpt lat="47.01979" lon="8.89579">
        <ele>1195</ele>
        <time>2021-08-03T09:51:55.327Z</time>
      </trkpt>
      <trkpt lat="47.01979" lon="8.89579">
        <ele>1196</ele>
        <time>2021-08-03T09:51:56.326Z</time>
      </trkpt>
      <trkpt lat="47.01979" lon="8.8958">
        <ele>1196</ele>
        <time>2021-08-03T09:51:57.327Z</time>
      </trkpt>
      <trkpt lat="47.01977" lon="8.89582">
        <ele>1197</ele>
        <time>2021-08-03T09:51:58.326Z</time>
      </trkpt>
      <trkpt lat="47.01976" lon="8.89584">
        <ele>1197</ele>
        <time>2021-08-03T09:51:59.326Z</time>
      </trkpt>
      <trkpt lat="47.01975" lon="8.89586">
        <ele>1197</ele>
        <time>2021-08-03T09:52:00.326Z</time>
      </trkpt>
      <trkpt lat="47.01974" lon="8.8959">
        <ele>1198</ele>
        <time>2021-08-03T09:52:01.328Z</time>
      </trkpt>
      <trkpt lat="47.01973" lon="8.89591">
        <ele>1200</ele>
        <time>2021-08-03T09:52:02.327Z</time>
      </trkpt>
      <trkpt lat="47.01975" lon="8.89591">
        <ele>1201</ele>
        <time>2021-08-03T09:52:03.328Z</time>
      </trkpt>
      <trkpt lat="47.01975" lon="8.89591">
        <ele>1202</ele>
        <time>2021-08-03T09:52:04.327Z</time>
      </trkpt>
      <trkpt lat="47.01975" lon="8.89592">
        <ele>1202</ele>
        <time>2021-08-03T09:52:05.328Z</time>
      </trkpt>
      <trkpt lat="47.01975" lon="8.89592">
        <ele>1202</ele>
        <time>2021-08-03T09:52:06.328Z</time>
      </trkpt>
      <trkpt lat="47.01975" lon="8.89591">
        <ele>1203</ele>
        <time>2021-08-03T09:52:07.327Z</time>
      </trkpt>
      <trkpt lat="47.01975" lon="8.8959">
        <ele>1203</ele>
        <time>2021-08-03T09:52:08.327Z</time>
      </trkpt>
      <trkpt lat="47.01975" lon="8.8959">
        <ele>1204</ele>
        <time>2021-08-03T09:52:09.328Z</time>
      </trkpt>
      <trkpt lat="47.01975" lon="8.89591">
        <ele>1204</ele>
        <time>2021-08-03T09:52:10.328Z</time>
      </trkpt>
      <trkpt lat="47.01975" lon="8.89592">
        <ele>1204</ele>
        <time>2021-08-03T09:52:11.327Z</time>
      </trkpt>
      <trkpt lat="47.01976" lon="8.89591">
        <ele>1205</ele>
        <time>2021-08-03T09:52:12.328Z</time>
      </trkpt>
      <trkpt lat="47.01976" lon="8.89591">
        <ele>1205</ele>
        <time>2021-08-03T09:52:13.328Z</time>
      </trkpt>
      <trkpt lat="47.01976" lon="8.8959">
        <ele>1206</ele>
        <time>2021-08-03T09:52:14.328Z</time>
      </trkpt>
      <trkpt lat="47.01976" lon="8.89588">
        <ele>1206</ele>
        <time>2021-08-03T09:52:15.328Z</time>
      </trkpt>
      <trkpt lat="47.01976" lon="8.89586">
        <ele>1206</ele>
        <time>2021-08-03T09:52:16.327Z</time>
      </trkpt>
      <trkpt lat="47.01976" lon="8.89585">
        <ele>1207</ele>
        <time>2021-08-03T09:52:17.327Z</time>
      </trkpt>
      <trkpt lat="47.01976" lon="8.89585">
        <ele>1207</ele>
        <time>2021-08-03T09:52:18.328Z</time>
      </trkpt>
      <trkpt lat="47.01976" lon="8.89584">
        <ele>1208</ele>
        <time>2021-08-03T09:52:19.328Z</time>
      </trkpt>
      <trkpt lat="47.01976" lon="8.89582">
        <ele>1208</ele>
        <time>2021-08-03T09:52:20.328Z</time>
      </trkpt>
      <trkpt lat="47.01975" lon="8.89581">
        <ele>1208</ele>
        <time>2021-08-03T09:52:21.327Z</time>
      </trkpt>
      <trkpt lat="47.01974" lon="8.8958">
        <ele>1208</ele>
        <time>2021-08-03T09:52:22.327Z</time>
      </trkpt>
      <trkpt lat="47.01973" lon="8.8958">
        <ele>1208</ele>
        <time>2021-08-03T09:52:23.328Z</time>
      </trkpt>
      <trkpt lat="47.01973" lon="8.89578">
        <ele>1208</ele>
        <time>2021-08-03T09:52:24.327Z</time>
      </trkpt>
      <trkpt lat="47.01972" lon="8.89577">
        <ele>1208</ele>
        <time>2021-08-03T09:52:25.328Z</time>
      </trkpt>
      <trkpt lat="47.01972" lon="8.89576">
        <ele>1209</ele>
        <time>2021-08-03T09:52:26.328Z</time>
      </trkpt>
      <trkpt lat="47.01973" lon="8.89577">
        <ele>1209</ele>
        <time>2021-08-03T09:52:27.328Z</time>
      </trkpt>
      <trkpt lat="47.01973" lon="8.89577">
        <ele>1210</ele>
        <time>2021-08-03T09:52:28.328Z</time>
      </trkpt>
      <trkpt lat="47.01973" lon="8.89578">
        <ele>1210</ele>
        <time>2021-08-03T09:52:29.328Z</time>
      </trkpt>
      <trkpt lat="47.01973" lon="8.89578">
        <ele>1211</ele>
        <time>2021-08-03T09:52:30.328Z</time>
      </trkpt>
      <trkpt lat="47.01974" lon="8.89579">
        <ele>1212</ele>
        <time>2021-08-03T09:52:31.328Z</time>
      </trkpt>
      <trkpt lat="47.01973" lon="8.8958">
        <ele>1213</ele>
        <time>2021-08-03T09:52:32.328Z</time>
      </trkpt>
      <trkpt lat="47.01973" lon="8.8958">
        <ele>1214</ele>
        <time>2021-08-03T09:52:33.327Z</time>
      </trkpt>
      <trkpt lat="47.01973" lon="8.89581">
        <ele>1214</ele>
        <time>2021-08-03T09:52:34.328Z</time>
      </trkpt>
      <trkpt lat="47.01972" lon="8.89581">
        <ele>1215</ele>
        <time>2021-08-03T09:52:35.327Z</time>
      </trkpt>
      <trkpt lat="47.01972" lon="8.89581">
        <ele>1216</ele>
        <time>2021-08-03T09:52:36.327Z</time>
      </trkpt>
      <trkpt lat="47.01972" lon="8.89581">
        <ele>1216</ele>
        <time>2021-08-03T09:52:37.328Z</time>
      </trkpt>
      <trkpt lat="47.01971" lon="8.89581">
        <ele>1217</ele>
        <time>2021-08-03T09:52:38.327Z</time>
      </trkpt>
      <trkpt lat="47.01971" lon="8.89581">
        <ele>1218</ele>
        <time>2021-08-03T09:52:39.328Z</time>
      </trkpt>
      <trkpt lat="47.0197" lon="8.89582">
        <ele>1219</ele>
        <time>2021-08-03T09:52:40.328Z</time>
      </trkpt>
      <trkpt lat="47.0197" lon="8.89583">
        <ele>1219</ele>
        <time>2021-08-03T09:52:41.328Z</time>
      </trkpt>
      <trkpt lat="47.0197" lon="8.89584">
        <ele>1220</ele>
        <time>2021-08-03T09:52:42.328Z</time>
      </trkpt>
      <trkpt lat="47.01971" lon="8.89584">
        <ele>1220</ele>
        <time>2021-08-03T09:52:43.328Z</time>
      </trkpt>
      <trkpt lat="47.01971" lon="8.89584">
        <ele>1220</ele>
        <time>2021-08-03T09:52:44.328Z</time>
      </trkpt>
      <trkpt lat="47.01971" lon="8.89584">
        <ele>1220</ele>
        <time>2021-08-03T09:52:45.328Z</time>
      </trkpt>
      <trkpt lat="47.01971" lon="8.89584">
        <ele>1220</ele>
        <time>2021-08-03T09:52:46.328Z</time>
      </trkpt>
      <trkpt lat="47.01972" lon="8.89583">
        <ele>1220</ele>
        <time>2021-08-03T09:52:47.327Z</time>
      </trkpt>
      <trkpt lat="47.01972" lon="8.89582">
        <ele>1220</ele>
        <time>2021-08-03T09:52:48.328Z</time>
      </trkpt>
      <trkpt lat="47.01972" lon="8.89582">
        <ele>1220</ele>
        <time>2021-08-03T09:52:49.327Z</time>
      </trkpt>
      <trkpt lat="47.01971" lon="8.89582">
        <ele>1220</ele>
        <time>2021-08-03T09:52:50.327Z</time>
      </trkpt>
      <trkpt lat="47.01971" lon="8.89582">
        <ele>1220</ele>
        <time>2021-08-03T09:52:51.327Z</time>
      </trkpt>
      <trkpt lat="47.01971" lon="8.89581">
        <ele>1220</ele>
        <time>2021-08-03T09:52:52.328Z</time>
      </trkpt>
      <trkpt lat="47.0197" lon="8.8958">
        <ele>1220</ele>
        <time>2021-08-03T09:52:53.327Z</time>
      </trkpt>
      <trkpt lat="47.0197" lon="8.8958">
        <ele>1220</ele>
        <time>2021-08-03T09:52:54.328Z</time>
      </trkpt>
      <trkpt lat="47.0197" lon="8.8958">
        <ele>1219</ele>
        <time>2021-08-03T09:52:55.327Z</time>
      </trkpt>
      <trkpt lat="47.01969" lon="8.89581">
        <ele>1219</ele>
        <time>2021-08-03T09:52:56.328Z</time>
      </trkpt>
      <trkpt lat="47.01968" lon="8.89581">
        <ele>1219</ele>
        <time>2021-08-03T09:52:57.327Z</time>
      </trkpt>
      <trkpt lat="47.01968" lon="8.89581">
        <ele>1219</ele>
        <time>2021-08-03T09:52:58.327Z</time>
      </trkpt>
      <trkpt lat="47.01967" lon="8.8958">
        <ele>1220</ele>
        <time>2021-08-03T09:52:59.328Z</time>
      </trkpt>
      <trkpt lat="47.01967" lon="8.8958">
        <ele>1220</ele>
        <time>2021-08-03T09:53:00.327Z</time>
      </trkpt>
      <trkpt lat="47.01967" lon="8.89579">
        <ele>1219</ele>
        <time>2021-08-03T09:53:01.327Z</time>
      </trkpt>
      <trkpt lat="47.01967" lon="8.89579">
        <ele>1219</ele>
        <time>2021-08-03T09:53:02.327Z</time>
      </trkpt>
      <trkpt lat="47.01967" lon="8.89578">
        <ele>1219</ele>
        <time>2021-08-03T09:53:03.328Z</time>
      </trkpt>
      <trkpt lat="47.01967" lon="8.89578">
        <ele>1218</ele>
        <time>2021-08-03T09:53:04.328Z</time>
      </trkpt>
      <trkpt lat="47.01967" lon="8.89577">
        <ele>1216</ele>
        <time>2021-08-03T09:53:05.328Z</time>
      </trkpt>
      <trkpt lat="47.01967" lon="8.89577">
        <ele>1216</ele>
        <time>2021-08-03T09:53:06.328Z</time>
      </trkpt>
      <trkpt lat="47.01968" lon="8.89578">
        <ele>1215</ele>
        <time>2021-08-03T09:53:07.328Z</time>
      </trkpt>
      <trkpt lat="47.01969" lon="8.89579">
        <ele>1215</ele>
        <time>2021-08-03T09:53:08.328Z</time>
      </trkpt>
      <trkpt lat="47.0197" lon="8.89578">
        <ele>1214</ele>
        <time>2021-08-03T09:53:09.328Z</time>
      </trkpt>
      <trkpt lat="47.0197" lon="8.89579">
        <ele>1214</ele>
        <time>2021-08-03T09:53:10.328Z</time>
      </trkpt>
      <trkpt lat="47.0197" lon="8.8958">
        <ele>1214</ele>
        <time>2021-08-03T09:53:11.327Z</time>
      </trkpt>
      <trkpt lat="47.0197" lon="8.89581">
        <ele>1213</ele>
        <time>2021-08-03T09:53:12.327Z</time>
      </trkpt>
      <trkpt lat="47.0197" lon="8.89582">
        <ele>1213</ele>
        <time>2021-08-03T09:53:13.328Z</time>
      </trkpt>
      <trkpt lat="47.0197" lon="8.89583">
        <ele>1212</ele>
        <time>2021-08-03T09:53:14.328Z</time>
      </trkpt>
      <trkpt lat="47.01971" lon="8.89583">
        <ele>1212</ele>
        <time>2021-08-03T09:53:15.327Z</time>
      </trkpt>
      <trkpt lat="47.01971" lon="8.89583">
        <ele>1211</ele>
        <time>2021-08-03T09:53:16.328Z</time>
      </trkpt>
      <trkpt lat="47.01971" lon="8.89582">
        <ele>1210</ele>
        <time>2021-08-03T09:53:17.328Z</time>
      </trkpt>
      <trkpt lat="47.0197" lon="8.89583">
        <ele>1209</ele>
        <time>2021-08-03T09:53:18.327Z</time>
      </trkpt>
      <trkpt lat="47.0197" lon="8.89583">
        <ele>1208</ele>
        <time>2021-08-03T09:53:19.327Z</time>
      </trkpt>
      <trkpt lat="47.0197" lon="8.89582">
        <ele>1208</ele>
        <time>2021-08-03T09:53:20.328Z</time>
      </trkpt>
      <trkpt lat="47.01971" lon="8.89582">
        <ele>1207</ele>
        <time>2021-08-03T09:53:21.327Z</time>
      </trkpt>
      <trkpt lat="47.01972" lon="8.89582">
        <ele>1206</ele>
        <time>2021-08-03T09:53:22.327Z</time>
      </trkpt>
      <trkpt lat="47.01975" lon="8.89579">
        <ele>1204</ele>
        <time>2021-08-03T09:53:23.329Z</time>
      </trkpt>
      <trkpt lat="47.01976" lon="8.89579">
        <ele>1205</ele>
        <time>2021-08-03T09:53:24.328Z</time>
      </trkpt>
      <trkpt lat="47.01977" lon="8.89579">
        <ele>1205</ele>
        <time>2021-08-03T09:53:25.329Z</time>
      </trkpt>
      <trkpt lat="47.01976" lon="8.89579">
        <ele>1206</ele>
        <time>2021-08-03T09:53:26.329Z</time>
      </trkpt>
      <trkpt lat="47.01976" lon="8.89578">
        <ele>1206</ele>
        <time>2021-08-03T09:53:27.329Z</time>
      </trkpt>
      <trkpt lat="47.01975" lon="8.89578">
        <ele>1206</ele>
        <time>2021-08-03T09:53:28.328Z</time>
      </trkpt>
      <trkpt lat="47.01974" lon="8.89578">
        <ele>1207</ele>
        <time>2021-08-03T09:53:29.329Z</time>
      </trkpt>
      <trkpt lat="47.01974" lon="8.89579">
        <ele>1206</ele>
        <time>2021-08-03T09:53:30.330Z</time>
      </trkpt>
      <trkpt lat="47.01975" lon="8.89576">
        <ele>1203</ele>
        <time>2021-08-03T09:53:31.330Z</time>
      </trkpt>
      <trkpt lat="47.01976" lon="8.89575">
        <ele>1202</ele>
        <time>2021-08-03T09:53:32.330Z</time>
      </trkpt>
      <trkpt lat="47.01976" lon="8.89574">
        <ele>1202</ele>
        <time>2021-08-03T09:53:33.330Z</time>
      </trkpt>
      <trkpt lat="47.01977" lon="8.89573">
        <ele>1202</ele>
        <time>2021-08-03T09:53:34.329Z</time>
      </trkpt>
      <trkpt lat="47.01977" lon="8.89572">
        <ele>1202</ele>
        <time>2021-08-03T09:53:35.330Z</time>
      </trkpt>
      <trkpt lat="47.01977" lon="8.89571">
        <ele>1202</ele>
        <time>2021-08-03T09:53:36.329Z</time>
      </trkpt>
      <trkpt lat="47.01976" lon="8.8957">
        <ele>1202</ele>
        <time>2021-08-03T09:53:37.330Z</time>
      </trkpt>
      <trkpt lat="47.01976" lon="8.89569">
        <ele>1202</ele>
        <time>2021-08-03T09:53:38.330Z</time>
      </trkpt>
      <trkpt lat="47.01977" lon="8.89568">
        <ele>1202</ele>
        <time>2021-08-03T09:53:39.329Z</time>
      </trkpt>
      <trkpt lat="47.01976" lon="8.89568">
        <ele>1202</ele>
        <time>2021-08-03T09:53:40.329Z</time>
      </trkpt>
      <trkpt lat="47.01976" lon="8.89568">
        <ele>1203</ele>
        <time>2021-08-03T09:53:41.330Z</time>
      </trkpt>
      <trkpt lat="47.01977" lon="8.89566">
        <ele>1203</ele>
        <time>2021-08-03T09:53:42.331Z</time>
      </trkpt>
      <trkpt lat="47.01977" lon="8.89565">
        <ele>1204</ele>
        <time>2021-08-03T09:53:43.331Z</time>
      </trkpt>
      <trkpt lat="47.01977" lon="8.89564">
        <ele>1204</ele>
        <time>2021-08-03T09:53:44.330Z</time>
      </trkpt>
      <trkpt lat="47.01976" lon="8.89562">
        <ele>1204</ele>
        <time>2021-08-03T09:53:45.330Z</time>
      </trkpt>
      <trkpt lat="47.01976" lon="8.89561">
        <ele>1204</ele>
        <time>2021-08-03T09:53:46.331Z</time>
      </trkpt>
      <trkpt lat="47.01977" lon="8.89559">
        <ele>1204</ele>
        <time>2021-08-03T09:53:47.330Z</time>
      </trkpt>
      <trkpt lat="47.01977" lon="8.89558">
        <ele>1205</ele>
        <time>2021-08-03T09:53:48.331Z</time>
      </trkpt>
      <trkpt lat="47.01976" lon="8.89556">
        <ele>1205</ele>
        <time>2021-08-03T09:53:49.330Z</time>
      </trkpt>
      <trkpt lat="47.01976" lon="8.89555">
        <ele>1205</ele>
        <time>2021-08-03T09:53:50.331Z</time>
      </trkpt>
      <trkpt lat="47.01975" lon="8.89553">
        <ele>1206</ele>
        <time>2021-08-03T09:53:51.331Z</time>
      </trkpt>
      <trkpt lat="47.01975" lon="8.89552">
        <ele>1206</ele>
        <time>2021-08-03T09:53:52.331Z</time>
      </trkpt>
      <trkpt lat="47.01974" lon="8.8955">
        <ele>1207</ele>
        <time>2021-08-03T09:53:53.330Z</time>
      </trkpt>
      <trkpt lat="47.01975" lon="8.89549">
        <ele>1207</ele>
        <time>2021-08-03T09:53:54.330Z</time>
      </trkpt>
      <trkpt lat="47.01974" lon="8.89548">
        <ele>1207</ele>
        <time>2021-08-03T09:53:55.331Z</time>
      </trkpt>
      <trkpt lat="47.01974" lon="8.89547">
        <ele>1207</ele>
        <time>2021-08-03T09:53:56.331Z</time>
      </trkpt>
      <trkpt lat="47.01974" lon="8.89547">
        <ele>1207</ele>
        <time>2021-08-03T09:53:57.330Z</time>
      </trkpt>
      <trkpt lat="47.01969" lon="8.8954">
        <ele>1206</ele>
        <time>2021-08-03T09:53:58.331Z</time>
      </trkpt>
      <trkpt lat="47.0197" lon="8.8954">
        <ele>1205</ele>
        <time>2021-08-03T09:53:59.330Z</time>
      </trkpt>
      <trkpt lat="47.01969" lon="8.8954">
        <ele>1205</ele>
        <time>2021-08-03T09:54:00.330Z</time>
      </trkpt>
      <trkpt lat="47.01968" lon="8.89539">
        <ele>1205</ele>
        <time>2021-08-03T09:54:01.333Z</time>
      </trkpt>
      <trkpt lat="47.01967" lon="8.89538">
        <ele>1206</ele>
        <time>2021-08-03T09:54:02.333Z</time>
      </trkpt>
      <trkpt lat="47.01967" lon="8.89538">
        <ele>1206</ele>
        <time>2021-08-03T09:54:03.333Z</time>
      </trkpt>
      <trkpt lat="47.01967" lon="8.89538">
        <ele>1206</ele>
        <time>2021-08-03T09:54:04.333Z</time>
      </trkpt>
      <trkpt lat="47.01966" lon="8.89539">
        <ele>1207</ele>
        <time>2021-08-03T09:54:05.334Z</time>
      </trkpt>
      <trkpt lat="47.01966" lon="8.89538">
        <ele>1207</ele>
        <time>2021-08-03T09:54:06.335Z</time>
      </trkpt>
      <trkpt lat="47.01966" lon="8.89538">
        <ele>1206</ele>
        <time>2021-08-03T09:54:07.335Z</time>
      </trkpt>
      <trkpt lat="47.01967" lon="8.89537">
        <ele>1206</ele>
        <time>2021-08-03T09:54:08.336Z</time>
      </trkpt>
      <trkpt lat="47.01967" lon="8.89536">
        <ele>1206</ele>
        <time>2021-08-03T09:54:09.336Z</time>
      </trkpt>
      <trkpt lat="47.01966" lon="8.89536">
        <ele>1206</ele>
        <time>2021-08-03T09:54:10.335Z</time>
      </trkpt>
      <trkpt lat="47.01966" lon="8.89535">
        <ele>1207</ele>
        <time>2021-08-03T09:54:11.336Z</time>
      </trkpt>
      <trkpt lat="47.01967" lon="8.89534">
        <ele>1207</ele>
        <time>2021-08-03T09:54:12.336Z</time>
      </trkpt>
      <trkpt lat="47.01967" lon="8.89532">
        <ele>1208</ele>
        <time>2021-08-03T09:54:13.336Z</time>
      </trkpt>
      <trkpt lat="47.01967" lon="8.89531">
        <ele>1208</ele>
        <time>2021-08-03T09:54:14.335Z</time>
      </trkpt>
      <trkpt lat="47.01967" lon="8.8953">
        <ele>1208</ele>
        <time>2021-08-03T09:54:15.335Z</time>
      </trkpt>
      <trkpt lat="47.01966" lon="8.89529">
        <ele>1209</ele>
        <time>2021-08-03T09:54:16.336Z</time>
      </trkpt>
      <trkpt lat="47.01966" lon="8.89528">
        <ele>1209</ele>
        <time>2021-08-03T09:54:17.335Z</time>
      </trkpt>
      <trkpt lat="47.01965" lon="8.89527">
        <ele>1210</ele>
        <time>2021-08-03T09:54:18.335Z</time>
      </trkpt>
      <trkpt lat="47.01965" lon="8.89527">
        <ele>1210</ele>
        <time>2021-08-03T09:54:19.335Z</time>
      </trkpt>
      <trkpt lat="47.01965" lon="8.89525">
        <ele>1211</ele>
        <time>2021-08-03T09:54:20.335Z</time>
      </trkpt>
      <trkpt lat="47.01964" lon="8.89524">
        <ele>1211</ele>
        <time>2021-08-03T09:54:21.335Z</time>
      </trkpt>
      <trkpt lat="47.01964" lon="8.89523">
        <ele>1211</ele>
        <time>2021-08-03T09:54:22.335Z</time>
      </trkpt>
      <trkpt lat="47.01964" lon="8.89522">
        <ele>1211</ele>
        <time>2021-08-03T09:54:23.335Z</time>
      </trkpt>
      <trkpt lat="47.01964" lon="8.89521">
        <ele>1211</ele>
        <time>2021-08-03T09:54:24.335Z</time>
      </trkpt>
      <trkpt lat="47.01964" lon="8.8952">
        <ele>1210</ele>
        <time>2021-08-03T09:54:25.336Z</time>
      </trkpt>
      <trkpt lat="47.01964" lon="8.89519">
        <ele>1210</ele>
        <time>2021-08-03T09:54:26.335Z</time>
      </trkpt>
      <trkpt lat="47.01964" lon="8.89517">
        <ele>1210</ele>
        <time>2021-08-03T09:54:27.336Z</time>
      </trkpt>
      <trkpt lat="47.01964" lon="8.89516">
        <ele>1210</ele>
        <time>2021-08-03T09:54:28.335Z</time>
      </trkpt>
      <trkpt lat="47.01963" lon="8.89515">
        <ele>1209</ele>
        <time>2021-08-03T09:54:29.335Z</time>
      </trkpt>
      <trkpt lat="47.01963" lon="8.89513">
        <ele>1209</ele>
        <time>2021-08-03T09:54:30.336Z</time>
      </trkpt>
      <trkpt lat="47.01962" lon="8.89512">
        <ele>1209</ele>
        <time>2021-08-03T09:54:31.335Z</time>
      </trkpt>
      <trkpt lat="47.01963" lon="8.89512">
        <ele>1208</ele>
        <time>2021-08-03T09:54:32.336Z</time>
      </trkpt>
      <trkpt lat="47.01963" lon="8.89511">
        <ele>1208</ele>
        <time>2021-08-03T09:54:33.335Z</time>
      </trkpt>
      <trkpt lat="47.01963" lon="8.8951">
        <ele>1208</ele>
        <time>2021-08-03T09:54:34.335Z</time>
      </trkpt>
      <trkpt lat="47.01963" lon="8.89509">
        <ele>1207</ele>
        <time>2021-08-03T09:54:35.335Z</time>
      </trkpt>
      <trkpt lat="47.01963" lon="8.89507">
        <ele>1207</ele>
        <time>2021-08-03T09:54:36.335Z</time>
      </trkpt>
      <trkpt lat="47.01963" lon="8.89506">
        <ele>1207</ele>
        <time>2021-08-03T09:54:37.336Z</time>
      </trkpt>
      <trkpt lat="47.01963" lon="8.89504">
        <ele>1206</ele>
        <time>2021-08-03T09:54:38.336Z</time>
      </trkpt>
      <trkpt lat="47.01963" lon="8.89503">
        <ele>1206</ele>
        <time>2021-08-03T09:54:39.336Z</time>
      </trkpt>
      <trkpt lat="47.01963" lon="8.89502">
        <ele>1205</ele>
        <time>2021-08-03T09:54:40.336Z</time>
      </trkpt>
      <trkpt lat="47.01963" lon="8.895">
        <ele>1205</ele>
        <time>2021-08-03T09:54:41.335Z</time>
      </trkpt>
      <trkpt lat="47.01963" lon="8.89498">
        <ele>1205</ele>
        <time>2021-08-03T09:54:42.335Z</time>
      </trkpt>
      <trkpt lat="47.01963" lon="8.89496">
        <ele>1205</ele>
        <time>2021-08-03T09:54:43.336Z</time>
      </trkpt>
      <trkpt lat="47.01963" lon="8.89495">
        <ele>1205</ele>
        <time>2021-08-03T09:54:44.336Z</time>
      </trkpt>
      <trkpt lat="47.01962" lon="8.89493">
        <ele>1205</ele>
        <time>2021-08-03T09:54:45.335Z</time>
      </trkpt>
      <trkpt lat="47.01961" lon="8.89491">
        <ele>1205</ele>
        <time>2021-08-03T09:54:46.336Z</time>
      </trkpt>
      <trkpt lat="47.01961" lon="8.8949">
        <ele>1205</ele>
        <time>2021-08-03T09:54:47.336Z</time>
      </trkpt>
      <trkpt lat="47.01961" lon="8.8949">
        <ele>1204</ele>
        <time>2021-08-03T09:54:48.336Z</time>
      </trkpt>
      <trkpt lat="47.0196" lon="8.89489">
        <ele>1204</ele>
        <time>2021-08-03T09:54:49.335Z</time>
      </trkpt>
      <trkpt lat="47.0196" lon="8.89488">
        <ele>1203</ele>
        <time>2021-08-03T09:54:50.335Z</time>
      </trkpt>
      <trkpt lat="47.0196" lon="8.89486">
        <ele>1203</ele>
        <time>2021-08-03T09:54:51.336Z</time>
      </trkpt>
      <trkpt lat="47.0196" lon="8.89485">
        <ele>1202</ele>
        <time>2021-08-03T09:54:52.335Z</time>
      </trkpt>
      <trkpt lat="47.0196" lon="8.89484">
        <ele>1202</ele>
        <time>2021-08-03T09:54:53.336Z</time>
      </trkpt>
      <trkpt lat="47.01959" lon="8.89482">
        <ele>1202</ele>
        <time>2021-08-03T09:54:54.335Z</time>
      </trkpt>
      <trkpt lat="47.01959" lon="8.89482">
        <ele>1201</ele>
        <time>2021-08-03T09:54:55.336Z</time>
      </trkpt>
      <trkpt lat="47.01959" lon="8.8948">
        <ele>1201</ele>
        <time>2021-08-03T09:54:56.336Z</time>
      </trkpt>
      <trkpt lat="47.01959" lon="8.89478">
        <ele>1201</ele>
        <time>2021-08-03T09:54:57.336Z</time>
      </trkpt>
      <trkpt lat="47.01959" lon="8.89477">
        <ele>1201</ele>
        <time>2021-08-03T09:54:58.336Z</time>
      </trkpt>
      <trkpt lat="47.01959" lon="8.89476">
        <ele>1201</ele>
        <time>2021-08-03T09:54:59.336Z</time>
      </trkpt>
      <trkpt lat="47.01958" lon="8.89475">
        <ele>1201</ele>
        <time>2021-08-03T09:55:00.336Z</time>
      </trkpt>
      <trkpt lat="47.01959" lon="8.89473">
        <ele>1201</ele>
        <time>2021-08-03T09:55:01.336Z</time>
      </trkpt>
      <trkpt lat="47.01959" lon="8.89472">
        <ele>1201</ele>
        <time>2021-08-03T09:55:02.335Z</time>
      </trkpt>
      <trkpt lat="47.01959" lon="8.8947">
        <ele>1201</ele>
        <time>2021-08-03T09:55:03.335Z</time>
      </trkpt>
      <trkpt lat="47.01959" lon="8.89468">
        <ele>1201</ele>
        <time>2021-08-03T09:55:04.335Z</time>
      </trkpt>
      <trkpt lat="47.01959" lon="8.89467">
        <ele>1201</ele>
        <time>2021-08-03T09:55:05.335Z</time>
      </trkpt>
      <trkpt lat="47.01959" lon="8.89465">
        <ele>1201</ele>
        <time>2021-08-03T09:55:06.336Z</time>
      </trkpt>
      <trkpt lat="47.01959" lon="8.89463">
        <ele>1201</ele>
        <time>2021-08-03T09:55:07.336Z</time>
      </trkpt>
      <trkpt lat="47.0196" lon="8.89461">
        <ele>1201</ele>
        <time>2021-08-03T09:55:08.335Z</time>
      </trkpt>
      <trkpt lat="47.0196" lon="8.8946">
        <ele>1201</ele>
        <time>2021-08-03T09:55:09.335Z</time>
      </trkpt>
      <trkpt lat="47.0196" lon="8.89458">
        <ele>1201</ele>
        <time>2021-08-03T09:55:10.336Z</time>
      </trkpt>
      <trkpt lat="47.01959" lon="8.89457">
        <ele>1201</ele>
        <time>2021-08-03T09:55:11.336Z</time>
      </trkpt>
      <trkpt lat="47.01958" lon="8.89457">
        <ele>1201</ele>
        <time>2021-08-03T09:55:12.336Z</time>
      </trkpt>
      <trkpt lat="47.01958" lon="8.89456">
        <ele>1201</ele>
        <time>2021-08-03T09:55:13.335Z</time>
      </trkpt>
      <trkpt lat="47.01959" lon="8.89457">
        <ele>1201</ele>
        <time>2021-08-03T09:55:14.336Z</time>
      </trkpt>
      <trkpt lat="47.01959" lon="8.89456">
        <ele>1202</ele>
        <time>2021-08-03T09:55:15.336Z</time>
      </trkpt>
      <trkpt lat="47.01961" lon="8.89454">
        <ele>1202</ele>
        <time>2021-08-03T09:55:16.337Z</time>
      </trkpt>
      <trkpt lat="47.01961" lon="8.89454">
        <ele>1201</ele>
        <time>2021-08-03T09:55:17.336Z</time>
      </trkpt>
      <trkpt lat="47.0196" lon="8.89455">
        <ele>1201</ele>
        <time>2021-08-03T09:55:18.337Z</time>
      </trkpt>
      <trkpt lat="47.0196" lon="8.89456">
        <ele>1201</ele>
        <time>2021-08-03T09:55:19.336Z</time>
      </trkpt>
      <trkpt lat="47.01961" lon="8.89455">
        <ele>1203</ele>
        <time>2021-08-03T09:55:20.339Z</time>
      </trkpt>
      <trkpt lat="47.01961" lon="8.89455">
        <ele>1203</ele>
        <time>2021-08-03T09:55:21.338Z</time>
      </trkpt>
      <trkpt lat="47.01961" lon="8.89454">
        <ele>1203</ele>
        <time>2021-08-03T09:55:22.338Z</time>
      </trkpt>
      <trkpt lat="47.01961" lon="8.89453">
        <ele>1204</ele>
        <time>2021-08-03T09:55:23.339Z</time>
      </trkpt>
      <trkpt lat="47.01961" lon="8.89452">
        <ele>1204</ele>
        <time>2021-08-03T09:55:24.338Z</time>
      </trkpt>
      <trkpt lat="47.01961" lon="8.8945">
        <ele>1203</ele>
        <time>2021-08-03T09:55:25.338Z</time>
      </trkpt>
      <trkpt lat="47.01961" lon="8.89449">
        <ele>1203</ele>
        <time>2021-08-03T09:55:26.339Z</time>
      </trkpt>
      <trkpt lat="47.01962" lon="8.89448">
        <ele>1203</ele>
        <time>2021-08-03T09:55:27.339Z</time>
      </trkpt>
      <trkpt lat="47.01961" lon="8.89448">
        <ele>1203</ele>
        <time>2021-08-03T09:55:28.338Z</time>
      </trkpt>
      <trkpt lat="47.0196" lon="8.89447">
        <ele>1203</ele>
        <time>2021-08-03T09:55:29.338Z</time>
      </trkpt>
      <trkpt lat="47.0196" lon="8.89446">
        <ele>1204</ele>
        <time>2021-08-03T09:55:30.338Z</time>
      </trkpt>
      <trkpt lat="47.01961" lon="8.89444">
        <ele>1204</ele>
        <time>2021-08-03T09:55:31.338Z</time>
      </trkpt>
      <trkpt lat="47.01961" lon="8.89443">
        <ele>1204</ele>
        <time>2021-08-03T09:55:32.339Z</time>
      </trkpt>
      <trkpt lat="47.0196" lon="8.89442">
        <ele>1204</ele>
        <time>2021-08-03T09:55:33.339Z</time>
      </trkpt>
      <trkpt lat="47.0196" lon="8.89441">
        <ele>1204</ele>
        <time>2021-08-03T09:55:34.338Z</time>
      </trkpt>
      <trkpt lat="47.01959" lon="8.8944">
        <ele>1205</ele>
        <time>2021-08-03T09:55:35.339Z</time>
      </trkpt>
      <trkpt lat="47.01959" lon="8.89439">
        <ele>1205</ele>
        <time>2021-08-03T09:55:36.339Z</time>
      </trkpt>
      <trkpt lat="47.01959" lon="8.89437">
        <ele>1205</ele>
        <time>2021-08-03T09:55:37.338Z</time>
      </trkpt>
      <trkpt lat="47.01959" lon="8.89436">
        <ele>1205</ele>
        <time>2021-08-03T09:55:38.338Z</time>
      </trkpt>
      <trkpt lat="47.01959" lon="8.89435">
        <ele>1204</ele>
        <time>2021-08-03T09:55:39.339Z</time>
      </trkpt>
      <trkpt lat="47.01959" lon="8.89434">
        <ele>1204</ele>
        <time>2021-08-03T09:55:40.339Z</time>
      </trkpt>
      <trkpt lat="47.01958" lon="8.89433">
        <ele>1204</ele>
        <time>2021-08-03T09:55:41.338Z</time>
      </trkpt>
      <trkpt lat="47.01958" lon="8.89432">
        <ele>1204</ele>
        <time>2021-08-03T09:55:42.339Z</time>
      </trkpt>
      <trkpt lat="47.01958" lon="8.8943">
        <ele>1205</ele>
        <time>2021-08-03T09:55:43.338Z</time>
      </trkpt>
      <trkpt lat="47.01958" lon="8.89428">
        <ele>1205</ele>
        <time>2021-08-03T09:55:44.339Z</time>
      </trkpt>
      <trkpt lat="47.0196" lon="8.89428">
        <ele>1205</ele>
        <time>2021-08-03T09:55:45.339Z</time>
      </trkpt>
      <trkpt lat="47.0196" lon="8.89427">
        <ele>1205</ele>
        <time>2021-08-03T09:55:46.339Z</time>
      </trkpt>
      <trkpt lat="47.0196" lon="8.89425">
        <ele>1205</ele>
        <time>2021-08-03T09:55:47.339Z</time>
      </trkpt>
      <trkpt lat="47.01959" lon="8.89424">
        <ele>1205</ele>
        <time>2021-08-03T09:55:48.339Z</time>
      </trkpt>
      <trkpt lat="47.01959" lon="8.89423">
        <ele>1206</ele>
        <time>2021-08-03T09:55:49.338Z</time>
      </trkpt>
      <trkpt lat="47.01958" lon="8.89422">
        <ele>1206</ele>
        <time>2021-08-03T09:55:50.339Z</time>
      </trkpt>
      <trkpt lat="47.01958" lon="8.89421">
        <ele>1206</ele>
        <time>2021-08-03T09:55:51.339Z</time>
      </trkpt>
      <trkpt lat="47.01959" lon="8.8942">
        <ele>1206</ele>
        <time>2021-08-03T09:55:52.339Z</time>
      </trkpt>
      <trkpt lat="47.01959" lon="8.89419">
        <ele>1207</ele>
        <time>2021-08-03T09:55:53.339Z</time>
      </trkpt>
      <trkpt lat="47.01959" lon="8.89418">
        <ele>1207</ele>
        <time>2021-08-03T09:55:54.338Z</time>
      </trkpt>
      <trkpt lat="47.0196" lon="8.89417">
        <ele>1207</ele>
        <time>2021-08-03T09:55:55.339Z</time>
      </trkpt>
      <trkpt lat="47.0196" lon="8.89415">
        <ele>1207</ele>
        <time>2021-08-03T09:55:56.338Z</time>
      </trkpt>
      <trkpt lat="47.0196" lon="8.89414">
        <ele>1207</ele>
        <time>2021-08-03T09:55:57.339Z</time>
      </trkpt>
      <trkpt lat="47.0196" lon="8.89413">
        <ele>1206</ele>
        <time>2021-08-03T09:55:58.338Z</time>
      </trkpt>
      <trkpt lat="47.0196" lon="8.89411">
        <ele>1206</ele>
        <time>2021-08-03T09:55:59.339Z</time>
      </trkpt>
      <trkpt lat="47.0196" lon="8.8941">
        <ele>1207</ele>
        <time>2021-08-03T09:56:00.339Z</time>
      </trkpt>
      <trkpt lat="47.01959" lon="8.89408">
        <ele>1207</ele>
        <time>2021-08-03T09:56:01.338Z</time>
      </trkpt>
      <trkpt lat="47.01959" lon="8.89407">
        <ele>1207</ele>
        <time>2021-08-03T09:56:02.339Z</time>
      </trkpt>
      <trkpt lat="47.0196" lon="8.89405">
        <ele>1207</ele>
        <time>2021-08-03T09:56:03.338Z</time>
      </trkpt>
      <trkpt lat="47.0196" lon="8.89404">
        <ele>1208</ele>
        <time>2021-08-03T09:56:04.339Z</time>
      </trkpt>
      <trkpt lat="47.01959" lon="8.89404">
        <ele>1208</ele>
        <time>2021-08-03T09:56:05.338Z</time>
      </trkpt>
      <trkpt lat="47.01959" lon="8.89402">
        <ele>1208</ele>
        <time>2021-08-03T09:56:06.339Z</time>
      </trkpt>
      <trkpt lat="47.0196" lon="8.89401">
        <ele>1208</ele>
        <time>2021-08-03T09:56:07.339Z</time>
      </trkpt>
      <trkpt lat="47.01959" lon="8.89401">
        <ele>1209</ele>
        <time>2021-08-03T09:56:08.339Z</time>
      </trkpt>
      <trkpt lat="47.0196" lon="8.89402">
        <ele>1209</ele>
        <time>2021-08-03T09:56:09.339Z</time>
      </trkpt>
      <trkpt lat="47.0196" lon="8.89402">
        <ele>1210</ele>
        <time>2021-08-03T09:56:10.339Z</time>
      </trkpt>
      <trkpt lat="47.01961" lon="8.89402">
        <ele>1210</ele>
        <time>2021-08-03T09:56:11.339Z</time>
      </trkpt>
      <trkpt lat="47.01961" lon="8.89401">
        <ele>1211</ele>
        <time>2021-08-03T09:56:12.340Z</time>
      </trkpt>
      <trkpt lat="47.0196" lon="8.89401">
        <ele>1212</ele>
        <time>2021-08-03T09:56:13.339Z</time>
      </trkpt>
      <trkpt lat="47.01957" lon="8.89394">
        <ele>1218</ele>
        <time>2021-08-03T09:56:14.340Z</time>
      </trkpt>
      <trkpt lat="47.01957" lon="8.89393">
        <ele>1218</ele>
        <time>2021-08-03T09:56:15.339Z</time>
      </trkpt>
      <trkpt lat="47.01958" lon="8.89392">
        <ele>1217</ele>
        <time>2021-08-03T09:56:16.339Z</time>
      </trkpt>
      <trkpt lat="47.01958" lon="8.8939">
        <ele>1216</ele>
        <time>2021-08-03T09:56:17.340Z</time>
      </trkpt>
      <trkpt lat="47.01958" lon="8.89389">
        <ele>1215</ele>
        <time>2021-08-03T09:56:18.339Z</time>
      </trkpt>
      <trkpt lat="47.01957" lon="8.89388">
        <ele>1215</ele>
        <time>2021-08-03T09:56:19.339Z</time>
      </trkpt>
      <trkpt lat="47.01957" lon="8.89387">
        <ele>1214</ele>
        <time>2021-08-03T09:56:20.339Z</time>
      </trkpt>
      <trkpt lat="47.01957" lon="8.89386">
        <ele>1214</ele>
        <time>2021-08-03T09:56:21.340Z</time>
      </trkpt>
      <trkpt lat="47.01956" lon="8.89385">
        <ele>1213</ele>
        <time>2021-08-03T09:56:22.339Z</time>
      </trkpt>
      <trkpt lat="47.01956" lon="8.89384">
        <ele>1213</ele>
        <time>2021-08-03T09:56:23.339Z</time>
      </trkpt>
      <trkpt lat="47.01956" lon="8.89383">
        <ele>1213</ele>
        <time>2021-08-03T09:56:24.339Z</time>
      </trkpt>
      <trkpt lat="47.01955" lon="8.89382">
        <ele>1212</ele>
        <time>2021-08-03T09:56:25.339Z</time>
      </trkpt>
      <trkpt lat="47.01955" lon="8.89382">
        <ele>1212</ele>
        <time>2021-08-03T09:56:26.340Z</time>
      </trkpt>
      <trkpt lat="47.01955" lon="8.89381">
        <ele>1211</ele>
        <time>2021-08-03T09:56:27.339Z</time>
      </trkpt>
      <trkpt lat="47.01955" lon="8.8938">
        <ele>1210</ele>
        <time>2021-08-03T09:56:28.339Z</time>
      </trkpt>
      <trkpt lat="47.01954" lon="8.89379">
        <ele>1210</ele>
        <time>2021-08-03T09:56:29.339Z</time>
      </trkpt>
      <trkpt lat="47.01954" lon="8.89378">
        <ele>1209</ele>
        <time>2021-08-03T09:56:30.339Z</time>
      </trkpt>
      <trkpt lat="47.01953" lon="8.89376">
        <ele>1209</ele>
        <time>2021-08-03T09:56:31.339Z</time>
      </trkpt>
      <trkpt lat="47.01952" lon="8.89375">
        <ele>1209</ele>
        <time>2021-08-03T09:56:32.339Z</time>
      </trkpt>
      <trkpt lat="47.01951" lon="8.89373">
        <ele>1209</ele>
        <time>2021-08-03T09:56:33.339Z</time>
      </trkpt>
      <trkpt lat="47.01951" lon="8.89372">
        <ele>1209</ele>
        <time>2021-08-03T09:56:34.339Z</time>
      </trkpt>
      <trkpt lat="47.0195" lon="8.8937">
        <ele>1209</ele>
        <time>2021-08-03T09:56:35.339Z</time>
      </trkpt>
      <trkpt lat="47.0195" lon="8.89369">
        <ele>1209</ele>
        <time>2021-08-03T09:56:36.339Z</time>
      </trkpt>
      <trkpt lat="47.01949" lon="8.89368">
        <ele>1209</ele>
        <time>2021-08-03T09:56:37.339Z</time>
      </trkpt>
      <trkpt lat="47.01949" lon="8.89367">
        <ele>1209</ele>
        <time>2021-08-03T09:56:38.339Z</time>
      </trkpt>
      <trkpt lat="47.01949" lon="8.89366">
        <ele>1209</ele>
        <time>2021-08-03T09:56:39.339Z</time>
      </trkpt>
      <trkpt lat="47.01949" lon="8.89366">
        <ele>1208</ele>
        <time>2021-08-03T09:56:40.339Z</time>
      </trkpt>
      <trkpt lat="47.01949" lon="8.89365">
        <ele>1207</ele>
        <time>2021-08-03T09:56:41.339Z</time>
      </trkpt>
      <trkpt lat="47.01949" lon="8.89363">
        <ele>1207</ele>
        <time>2021-08-03T09:56:42.339Z</time>
      </trkpt>
      <trkpt lat="47.01949" lon="8.89363">
        <ele>1206</ele>
        <time>2021-08-03T09:56:43.340Z</time>
      </trkpt>
      <trkpt lat="47.01949" lon="8.89362">
        <ele>1205</ele>
        <time>2021-08-03T09:56:44.340Z</time>
      </trkpt>
      <trkpt lat="47.01948" lon="8.8936">
        <ele>1205</ele>
        <time>2021-08-03T09:56:45.339Z</time>
      </trkpt>
      <trkpt lat="47.01948" lon="8.89359">
        <ele>1205</ele>
        <time>2021-08-03T09:56:46.339Z</time>
      </trkpt>
      <trkpt lat="47.01948" lon="8.89358">
        <ele>1204</ele>
        <time>2021-08-03T09:56:47.340Z</time>
      </trkpt>
      <trkpt lat="47.01947" lon="8.89357">
        <ele>1203</ele>
        <time>2021-08-03T09:56:48.339Z</time>
      </trkpt>
      <trkpt lat="47.01947" lon="8.89356">
        <ele>1202</ele>
        <time>2021-08-03T09:56:49.339Z</time>
      </trkpt>
      <trkpt lat="47.01946" lon="8.89354">
        <ele>1202</ele>
        <time>2021-08-03T09:56:50.339Z</time>
      </trkpt>
      <trkpt lat="47.01946" lon="8.89353">
        <ele>1202</ele>
        <time>2021-08-03T09:56:51.340Z</time>
      </trkpt>
      <trkpt lat="47.01945" lon="8.89352">
        <ele>1202</ele>
        <time>2021-08-03T09:56:52.339Z</time>
      </trkpt>
      <trkpt lat="47.01945" lon="8.89351">
        <ele>1202</ele>
        <time>2021-08-03T09:56:53.339Z</time>
      </trkpt>
      <trkpt lat="47.01945" lon="8.8935">
        <ele>1203</ele>
        <time>2021-08-03T09:56:54.339Z</time>
      </trkpt>
      <trkpt lat="47.01945" lon="8.89349">
        <ele>1203</ele>
        <time>2021-08-03T09:56:55.339Z</time>
      </trkpt>
      <trkpt lat="47.01944" lon="8.89347">
        <ele>1204</ele>
        <time>2021-08-03T09:56:56.339Z</time>
      </trkpt>
      <trkpt lat="47.01943" lon="8.89346">
        <ele>1204</ele>
        <time>2021-08-03T09:56:57.339Z</time>
      </trkpt>
      <trkpt lat="47.01943" lon="8.89345">
        <ele>1204</ele>
        <time>2021-08-03T09:56:58.339Z</time>
      </trkpt>
      <trkpt lat="47.01942" lon="8.89344">
        <ele>1204</ele>
        <time>2021-08-03T09:56:59.339Z</time>
      </trkpt>
      <trkpt lat="47.01942" lon="8.89343">
        <ele>1203</ele>
        <time>2021-08-03T09:57:00.340Z</time>
      </trkpt>
      <trkpt lat="47.01942" lon="8.89342">
        <ele>1202</ele>
        <time>2021-08-03T09:57:01.339Z</time>
      </trkpt>
      <trkpt lat="47.01942" lon="8.8934">
        <ele>1202</ele>
        <time>2021-08-03T09:57:02.339Z</time>
      </trkpt>
      <trkpt lat="47.01941" lon="8.89339">
        <ele>1201</ele>
        <time>2021-08-03T09:57:03.339Z</time>
      </trkpt>
      <trkpt lat="47.01941" lon="8.89338">
        <ele>1201</ele>
        <time>2021-08-03T09:57:04.339Z</time>
      </trkpt>
      <trkpt lat="47.0194" lon="8.89336">
        <ele>1201</ele>
        <time>2021-08-03T09:57:05.339Z</time>
      </trkpt>
      <trkpt lat="47.01939" lon="8.89336">
        <ele>1201</ele>
        <time>2021-08-03T09:57:06.339Z</time>
      </trkpt>
      <trkpt lat="47.01939" lon="8.89334">
        <ele>1201</ele>
        <time>2021-08-03T09:57:07.339Z</time>
      </trkpt>
      <trkpt lat="47.01939" lon="8.89333">
        <ele>1201</ele>
        <time>2021-08-03T09:57:08.339Z</time>
      </trkpt>
      <trkpt lat="47.01939" lon="8.89332">
        <ele>1201</ele>
        <time>2021-08-03T09:57:09.339Z</time>
      </trkpt>
      <trkpt lat="47.01938" lon="8.89331">
        <ele>1201</ele>
        <time>2021-08-03T09:57:10.339Z</time>
      </trkpt>
      <trkpt lat="47.01938" lon="8.8933">
        <ele>1201</ele>
        <time>2021-08-03T09:57:11.339Z</time>
      </trkpt>
      <trkpt lat="47.01938" lon="8.89328">
        <ele>1201</ele>
        <time>2021-08-03T09:57:12.340Z</time>
      </trkpt>
      <trkpt lat="47.01938" lon="8.89327">
        <ele>1201</ele>
        <time>2021-08-03T09:57:13.339Z</time>
      </trkpt>
      <trkpt lat="47.01938" lon="8.89325">
        <ele>1201</ele>
        <time>2021-08-03T09:57:14.339Z</time>
      </trkpt>
      <trkpt lat="47.01937" lon="8.89324">
        <ele>1201</ele>
        <time>2021-08-03T09:57:15.339Z</time>
      </trkpt>
      <trkpt lat="47.01936" lon="8.89323">
        <ele>1201</ele>
        <time>2021-08-03T09:57:16.339Z</time>
      </trkpt>
      <trkpt lat="47.01936" lon="8.89323">
        <ele>1201</ele>
        <time>2021-08-03T09:57:17.340Z</time>
      </trkpt>
      <trkpt lat="47.01935" lon="8.89322">
        <ele>1201</ele>
        <time>2021-08-03T09:57:18.339Z</time>
      </trkpt>
      <trkpt lat="47.01935" lon="8.89321">
        <ele>1201</ele>
        <time>2021-08-03T09:57:19.339Z</time>
      </trkpt>
      <trkpt lat="47.01935" lon="8.8932">
        <ele>1201</ele>
        <time>2021-08-03T09:57:20.339Z</time>
      </trkpt>
      <trkpt lat="47.01934" lon="8.89319">
        <ele>1201</ele>
        <time>2021-08-03T09:57:21.339Z</time>
      </trkpt>
      <trkpt lat="47.01934" lon="8.89318">
        <ele>1201</ele>
        <time>2021-08-03T09:57:22.339Z</time>
      </trkpt>
      <trkpt lat="47.01934" lon="8.89317">
        <ele>1200</ele>
        <time>2021-08-03T09:57:23.340Z</time>
      </trkpt>
      <trkpt lat="47.01934" lon="8.89315">
        <ele>1200</ele>
        <time>2021-08-03T09:57:24.339Z</time>
      </trkpt>
      <trkpt lat="47.01934" lon="8.89314">
        <ele>1200</ele>
        <time>2021-08-03T09:57:25.339Z</time>
      </trkpt>
      <trkpt lat="47.01933" lon="8.89313">
        <ele>1200</ele>
        <time>2021-08-03T09:57:26.339Z</time>
      </trkpt>
      <trkpt lat="47.01932" lon="8.89312">
        <ele>1200</ele>
        <time>2021-08-03T09:57:27.340Z</time>
      </trkpt>
      <trkpt lat="47.01932" lon="8.89311">
        <ele>1200</ele>
        <time>2021-08-03T09:57:28.339Z</time>
      </trkpt>
      <trkpt lat="47.01932" lon="8.8931">
        <ele>1201</ele>
        <time>2021-08-03T09:57:29.339Z</time>
      </trkpt>
      <trkpt lat="47.01932" lon="8.89308">
        <ele>1201</ele>
        <time>2021-08-03T09:57:30.339Z</time>
      </trkpt>
      <trkpt lat="47.01931" lon="8.89306">
        <ele>1202</ele>
        <time>2021-08-03T09:57:31.339Z</time>
      </trkpt>
      <trkpt lat="47.01931" lon="8.89304">
        <ele>1203</ele>
        <time>2021-08-03T09:57:32.339Z</time>
      </trkpt>
      <trkpt lat="47.01932" lon="8.89302">
        <ele>1203</ele>
        <time>2021-08-03T09:57:33.339Z</time>
      </trkpt>
      <trkpt lat="47.01931" lon="8.893">
        <ele>1203</ele>
        <time>2021-08-03T09:57:34.339Z</time>
      </trkpt>
      <trkpt lat="47.01931" lon="8.89299">
        <ele>1203</ele>
        <time>2021-08-03T09:57:35.339Z</time>
      </trkpt>
      <trkpt lat="47.01931" lon="8.89298">
        <ele>1203</ele>
        <time>2021-08-03T09:57:36.339Z</time>
      </trkpt>
      <trkpt lat="47.0193" lon="8.89297">
        <ele>1204</ele>
        <time>2021-08-03T09:57:37.340Z</time>
      </trkpt>
      <trkpt lat="47.0193" lon="8.89296">
        <ele>1205</ele>
        <time>2021-08-03T09:57:38.340Z</time>
      </trkpt>
      <trkpt lat="47.01929" lon="8.89295">
        <ele>1205</ele>
        <time>2021-08-03T09:57:39.339Z</time>
      </trkpt>
      <trkpt lat="47.01928" lon="8.89294">
        <ele>1206</ele>
        <time>2021-08-03T09:57:40.339Z</time>
      </trkpt>
      <trkpt lat="47.01927" lon="8.89293">
        <ele>1206</ele>
        <time>2021-08-03T09:57:41.339Z</time>
      </trkpt>
      <trkpt lat="47.01926" lon="8.89292">
        <ele>1207</ele>
        <time>2021-08-03T09:57:42.339Z</time>
      </trkpt>
      <trkpt lat="47.01926" lon="8.8929">
        <ele>1207</ele>
        <time>2021-08-03T09:57:43.339Z</time>
      </trkpt>
      <trkpt lat="47.01926" lon="8.89289">
        <ele>1208</ele>
        <time>2021-08-03T09:57:44.339Z</time>
      </trkpt>
      <trkpt lat="47.01925" lon="8.89288">
        <ele>1209</ele>
        <time>2021-08-03T09:57:45.339Z</time>
      </trkpt>
      <trkpt lat="47.01925" lon="8.89287">
        <ele>1209</ele>
        <time>2021-08-03T09:57:46.339Z</time>
      </trkpt>
      <trkpt lat="47.01925" lon="8.89286">
        <ele>1209</ele>
        <time>2021-08-03T09:57:47.340Z</time>
      </trkpt>
      <trkpt lat="47.01925" lon="8.89285">
        <ele>1210</ele>
        <time>2021-08-03T09:57:48.339Z</time>
      </trkpt>
      <trkpt lat="47.01925" lon="8.89284">
        <ele>1210</ele>
        <time>2021-08-03T09:57:49.339Z</time>
      </trkpt>
      <trkpt lat="47.01924" lon="8.89283">
        <ele>1211</ele>
        <time>2021-08-03T09:57:50.340Z</time>
      </trkpt>
      <trkpt lat="47.01924" lon="8.89282">
        <ele>1211</ele>
        <time>2021-08-03T09:57:51.339Z</time>
      </trkpt>
      <trkpt lat="47.01924" lon="8.89281">
        <ele>1211</ele>
        <time>2021-08-03T09:57:52.339Z</time>
      </trkpt>
      <trkpt lat="47.01923" lon="8.89279">
        <ele>1211</ele>
        <time>2021-08-03T09:57:53.339Z</time>
      </trkpt>
      <trkpt lat="47.01923" lon="8.89278">
        <ele>1211</ele>
        <time>2021-08-03T09:57:54.340Z</time>
      </trkpt>
      <trkpt lat="47.01923" lon="8.89277">
        <ele>1211</ele>
        <time>2021-08-03T09:57:55.340Z</time>
      </trkpt>
      <trkpt lat="47.01922" lon="8.89277">
        <ele>1211</ele>
        <time>2021-08-03T09:57:56.339Z</time>
      </trkpt>
      <trkpt lat="47.01922" lon="8.89276">
        <ele>1211</ele>
        <time>2021-08-03T09:57:57.340Z</time>
      </trkpt>
      <trkpt lat="47.01922" lon="8.89276">
        <ele>1211</ele>
        <time>2021-08-03T09:57:58.339Z</time>
      </trkpt>
      <trkpt lat="47.01922" lon="8.89275">
        <ele>1210</ele>
        <time>2021-08-03T09:57:59.340Z</time>
      </trkpt>
      <trkpt lat="47.01922" lon="8.89275">
        <ele>1210</ele>
        <time>2021-08-03T09:58:00.340Z</time>
      </trkpt>
      <trkpt lat="47.01922" lon="8.89274">
        <ele>1210</ele>
        <time>2021-08-03T09:58:01.339Z</time>
      </trkpt>
      <trkpt lat="47.01922" lon="8.89273">
        <ele>1210</ele>
        <time>2021-08-03T09:58:02.340Z</time>
      </trkpt>
      <trkpt lat="47.01922" lon="8.89272">
        <ele>1209</ele>
        <time>2021-08-03T09:58:03.339Z</time>
      </trkpt>
      <trkpt lat="47.01922" lon="8.89271">
        <ele>1209</ele>
        <time>2021-08-03T09:58:04.339Z</time>
      </trkpt>
      <trkpt lat="47.01922" lon="8.8927">
        <ele>1210</ele>
        <time>2021-08-03T09:58:05.339Z</time>
      </trkpt>
      <trkpt lat="47.01922" lon="8.89269">
        <ele>1210</ele>
        <time>2021-08-03T09:58:06.339Z</time>
      </trkpt>
      <trkpt lat="47.01922" lon="8.89268">
        <ele>1210</ele>
        <time>2021-08-03T09:58:07.339Z</time>
      </trkpt>
      <trkpt lat="47.01922" lon="8.89265">
        <ele>1210</ele>
        <time>2021-08-03T09:58:08.339Z</time>
      </trkpt>
      <trkpt lat="47.01922" lon="8.89263">
        <ele>1210</ele>
        <time>2021-08-03T09:58:09.340Z</time>
      </trkpt>
      <trkpt lat="47.01922" lon="8.89263">
        <ele>1210</ele>
        <time>2021-08-03T09:58:10.339Z</time>
      </trkpt>
      <trkpt lat="47.01922" lon="8.89262">
        <ele>1210</ele>
        <time>2021-08-03T09:58:11.340Z</time>
      </trkpt>
      <trkpt lat="47.01921" lon="8.89261">
        <ele>1210</ele>
        <time>2021-08-03T09:58:12.339Z</time>
      </trkpt>
      <trkpt lat="47.01922" lon="8.89261">
        <ele>1209</ele>
        <time>2021-08-03T09:58:13.339Z</time>
      </trkpt>
      <trkpt lat="47.01922" lon="8.89261">
        <ele>1209</ele>
        <time>2021-08-03T09:58:14.339Z</time>
      </trkpt>
      <trkpt lat="47.01923" lon="8.8926">
        <ele>1209</ele>
        <time>2021-08-03T09:58:15.339Z</time>
      </trkpt>
      <trkpt lat="47.01923" lon="8.89259">
        <ele>1209</ele>
        <time>2021-08-03T09:58:16.340Z</time>
      </trkpt>
      <trkpt lat="47.01923" lon="8.89258">
        <ele>1209</ele>
        <time>2021-08-03T09:58:17.340Z</time>
      </trkpt>
      <trkpt lat="47.01923" lon="8.89257">
        <ele>1210</ele>
        <time>2021-08-03T09:58:18.339Z</time>
      </trkpt>
      <trkpt lat="47.01923" lon="8.89256">
        <ele>1210</ele>
        <time>2021-08-03T09:58:19.339Z</time>
      </trkpt>
      <trkpt lat="47.01923" lon="8.89255">
        <ele>1210</ele>
        <time>2021-08-03T09:58:20.340Z</time>
      </trkpt>
      <trkpt lat="47.01922" lon="8.89254">
        <ele>1210</ele>
        <time>2021-08-03T09:58:21.339Z</time>
      </trkpt>
      <trkpt lat="47.01922" lon="8.89254">
        <ele>1209</ele>
        <time>2021-08-03T09:58:22.339Z</time>
      </trkpt>
      <trkpt lat="47.01923" lon="8.89253">
        <ele>1209</ele>
        <time>2021-08-03T09:58:23.339Z</time>
      </trkpt>
      <trkpt lat="47.01923" lon="8.89253">
        <ele>1209</ele>
        <time>2021-08-03T09:58:24.340Z</time>
      </trkpt>
      <trkpt lat="47.01924" lon="8.89252">
        <ele>1209</ele>
        <time>2021-08-03T09:58:25.339Z</time>
      </trkpt>
      <trkpt lat="47.01923" lon="8.89251">
        <ele>1209</ele>
        <time>2021-08-03T09:58:26.340Z</time>
      </trkpt>
      <trkpt lat="47.01924" lon="8.8925">
        <ele>1209</ele>
        <time>2021-08-03T09:58:27.339Z</time>
      </trkpt>
      <trkpt lat="47.01923" lon="8.89249">
        <ele>1210</ele>
        <time>2021-08-03T09:58:28.339Z</time>
      </trkpt>
      <trkpt lat="47.01923" lon="8.89248">
        <ele>1210</ele>
        <time>2021-08-03T09:58:29.339Z</time>
      </trkpt>
      <trkpt lat="47.01924" lon="8.89247">
        <ele>1210</ele>
        <time>2021-08-03T09:58:30.340Z</time>
      </trkpt>
      <trkpt lat="47.01924" lon="8.89246">
        <ele>1210</ele>
        <time>2021-08-03T09:58:31.339Z</time>
      </trkpt>
      <trkpt lat="47.01924" lon="8.89245">
        <ele>1210</ele>
        <time>2021-08-03T09:58:32.339Z</time>
      </trkpt>
      <trkpt lat="47.01924" lon="8.89244">
        <ele>1210</ele>
        <time>2021-08-03T09:58:33.339Z</time>
      </trkpt>
      <trkpt lat="47.01925" lon="8.89243">
        <ele>1210</ele>
        <time>2021-08-03T09:58:34.340Z</time>
      </trkpt>
      <trkpt lat="47.01925" lon="8.89242">
        <ele>1210</ele>
        <time>2021-08-03T09:58:35.339Z</time>
      </trkpt>
      <trkpt lat="47.01925" lon="8.89242">
        <ele>1210</ele>
        <time>2021-08-03T09:58:36.339Z</time>
      </trkpt>
      <trkpt lat="47.01925" lon="8.89241">
        <ele>1210</ele>
        <time>2021-08-03T09:58:37.339Z</time>
      </trkpt>
      <trkpt lat="47.01924" lon="8.89241">
        <ele>1210</ele>
        <time>2021-08-03T09:58:38.339Z</time>
      </trkpt>
      <trkpt lat="47.01924" lon="8.8924">
        <ele>1210</ele>
        <time>2021-08-03T09:58:39.340Z</time>
      </trkpt>
      <trkpt lat="47.01923" lon="8.8924">
        <ele>1210</ele>
        <time>2021-08-03T09:58:40.339Z</time>
      </trkpt>
      <trkpt lat="47.01923" lon="8.89239">
        <ele>1211</ele>
        <time>2021-08-03T09:58:41.339Z</time>
      </trkpt>
      <trkpt lat="47.01923" lon="8.89238">
        <ele>1211</ele>
        <time>2021-08-03T09:58:42.340Z</time>
      </trkpt>
      <trkpt lat="47.01924" lon="8.89237">
        <ele>1211</ele>
        <time>2021-08-03T09:58:43.339Z</time>
      </trkpt>
      <trkpt lat="47.01924" lon="8.89235">
        <ele>1212</ele>
        <time>2021-08-03T09:58:44.339Z</time>
      </trkpt>
      <trkpt lat="47.01924" lon="8.89234">
        <ele>1213</ele>
        <time>2021-08-03T09:58:45.339Z</time>
      </trkpt>
      <trkpt lat="47.01924" lon="8.89233">
        <ele>1213</ele>
        <time>2021-08-03T09:58:46.339Z</time>
      </trkpt>
      <trkpt lat="47.01923" lon="8.89232">
        <ele>1214</ele>
        <time>2021-08-03T09:58:47.339Z</time>
      </trkpt>
      <trkpt lat="47.01923" lon="8.8923">
        <ele>1214</ele>
        <time>2021-08-03T09:58:48.339Z</time>
      </trkpt>
      <trkpt lat="47.01923" lon="8.89228">
        <ele>1215</ele>
        <time>2021-08-03T09:58:49.339Z</time>
      </trkpt>
      <trkpt lat="47.01922" lon="8.89227">
        <ele>1215</ele>
        <time>2021-08-03T09:58:50.339Z</time>
      </trkpt>
      <trkpt lat="47.01923" lon="8.89225">
        <ele>1216</ele>
        <time>2021-08-03T09:58:51.340Z</time>
      </trkpt>
      <trkpt lat="47.01923" lon="8.89223">
        <ele>1217</ele>
        <time>2021-08-03T09:58:52.339Z</time>
      </trkpt>
      <trkpt lat="47.01923" lon="8.89221">
        <ele>1217</ele>
        <time>2021-08-03T09:58:53.339Z</time>
      </trkpt>
      <trkpt lat="47.01922" lon="8.8922">
        <ele>1218</ele>
        <time>2021-08-03T09:58:54.339Z</time>
      </trkpt>
      <trkpt lat="47.01922" lon="8.89218">
        <ele>1218</ele>
        <time>2021-08-03T09:58:55.339Z</time>
      </trkpt>
      <trkpt lat="47.01923" lon="8.89217">
        <ele>1219</ele>
        <time>2021-08-03T09:58:56.339Z</time>
      </trkpt>
      <trkpt lat="47.01923" lon="8.89216">
        <ele>1219</ele>
        <time>2021-08-03T09:58:57.339Z</time>
      </trkpt>
      <trkpt lat="47.01924" lon="8.89215">
        <ele>1220</ele>
        <time>2021-08-03T09:58:58.339Z</time>
      </trkpt>
      <trkpt lat="47.01925" lon="8.89213">
        <ele>1220</ele>
        <time>2021-08-03T09:58:59.339Z</time>
      </trkpt>
      <trkpt lat="47.01925" lon="8.8921">
        <ele>1221</ele>
        <time>2021-08-03T09:59:00.339Z</time>
      </trkpt>
      <trkpt lat="47.01926" lon="8.89208">
        <ele>1221</ele>
        <time>2021-08-03T09:59:01.339Z</time>
      </trkpt>
      <trkpt lat="47.01926" lon="8.89206">
        <ele>1222</ele>
        <time>2021-08-03T09:59:02.339Z</time>
      </trkpt>
      <trkpt lat="47.01926" lon="8.89204">
        <ele>1223</ele>
        <time>2021-08-03T09:59:03.339Z</time>
      </trkpt>
      <trkpt lat="47.01926" lon="8.89202">
        <ele>1223</ele>
        <time>2021-08-03T09:59:04.340Z</time>
      </trkpt>
      <trkpt lat="47.01926" lon="8.89201">
        <ele>1224</ele>
        <time>2021-08-03T09:59:05.340Z</time>
      </trkpt>
      <trkpt lat="47.01926" lon="8.892">
        <ele>1224</ele>
        <time>2021-08-03T09:59:06.339Z</time>
      </trkpt>
      <trkpt lat="47.01925" lon="8.89199">
        <ele>1224</ele>
        <time>2021-08-03T09:59:07.339Z</time>
      </trkpt>
      <trkpt lat="47.01925" lon="8.89198">
        <ele>1225</ele>
        <time>2021-08-03T09:59:08.340Z</time>
      </trkpt>
      <trkpt lat="47.01925" lon="8.89197">
        <ele>1225</ele>
        <time>2021-08-03T09:59:09.339Z</time>
      </trkpt>
      <trkpt lat="47.01925" lon="8.89196">
        <ele>1225</ele>
        <time>2021-08-03T09:59:10.339Z</time>
      </trkpt>
      <trkpt lat="47.01926" lon="8.89196">
        <ele>1225</ele>
        <time>2021-08-03T09:59:11.339Z</time>
      </trkpt>
      <trkpt lat="47.01927" lon="8.89196">
        <ele>1225</ele>
        <time>2021-08-03T09:59:12.339Z</time>
      </trkpt>
      <trkpt lat="47.01928" lon="8.89195">
        <ele>1224</ele>
        <time>2021-08-03T09:59:13.339Z</time>
      </trkpt>
      <trkpt lat="47.01928" lon="8.89194">
        <ele>1224</ele>
        <time>2021-08-03T09:59:14.339Z</time>
      </trkpt>
      <trkpt lat="47.01929" lon="8.89193">
        <ele>1223</ele>
        <time>2021-08-03T09:59:15.339Z</time>
      </trkpt>
      <trkpt lat="47.01929" lon="8.89192">
        <ele>1222</ele>
        <time>2021-08-03T09:59:16.339Z</time>
      </trkpt>
      <trkpt lat="47.01929" lon="8.89191">
        <ele>1222</ele>
        <time>2021-08-03T09:59:17.339Z</time>
      </trkpt>
      <trkpt lat="47.01929" lon="8.8919">
        <ele>1221</ele>
        <time>2021-08-03T09:59:18.339Z</time>
      </trkpt>
      <trkpt lat="47.01929" lon="8.89189">
        <ele>1221</ele>
        <time>2021-08-03T09:59:19.339Z</time>
      </trkpt>
      <trkpt lat="47.01929" lon="8.89188">
        <ele>1220</ele>
        <time>2021-08-03T09:59:20.340Z</time>
      </trkpt>
      <trkpt lat="47.01929" lon="8.89187">
        <ele>1220</ele>
        <time>2021-08-03T09:59:21.339Z</time>
      </trkpt>
      <trkpt lat="47.01929" lon="8.89186">
        <ele>1220</ele>
        <time>2021-08-03T09:59:22.339Z</time>
      </trkpt>
      <trkpt lat="47.0193" lon="8.89185">
        <ele>1220</ele>
        <time>2021-08-03T09:59:23.339Z</time>
      </trkpt>
      <trkpt lat="47.0193" lon="8.89184">
        <ele>1219</ele>
        <time>2021-08-03T09:59:24.340Z</time>
      </trkpt>
      <trkpt lat="47.0193" lon="8.89183">
        <ele>1219</ele>
        <time>2021-08-03T09:59:25.339Z</time>
      </trkpt>
      <trkpt lat="47.0193" lon="8.89182">
        <ele>1218</ele>
        <time>2021-08-03T09:59:26.339Z</time>
      </trkpt>
      <trkpt lat="47.01931" lon="8.89181">
        <ele>1218</ele>
        <time>2021-08-03T09:59:27.340Z</time>
      </trkpt>
      <trkpt lat="47.01931" lon="8.89179">
        <ele>1218</ele>
        <time>2021-08-03T09:59:28.339Z</time>
      </trkpt>
      <trkpt lat="47.01932" lon="8.89178">
        <ele>1218</ele>
        <time>2021-08-03T09:59:29.339Z</time>
      </trkpt>
      <trkpt lat="47.01933" lon="8.89177">
        <ele>1218</ele>
        <time>2021-08-03T09:59:30.339Z</time>
      </trkpt>
      <trkpt lat="47.01933" lon="8.89175">
        <ele>1218</ele>
        <time>2021-08-03T09:59:31.340Z</time>
      </trkpt>
      <trkpt lat="47.01933" lon="8.89174">
        <ele>1218</ele>
        <time>2021-08-03T09:59:32.340Z</time>
      </trkpt>
      <trkpt lat="47.01934" lon="8.89172">
        <ele>1218</ele>
        <time>2021-08-03T09:59:33.339Z</time>
      </trkpt>
      <trkpt lat="47.01934" lon="8.89171">
        <ele>1217</ele>
        <time>2021-08-03T09:59:34.339Z</time>
      </trkpt>
      <trkpt lat="47.01933" lon="8.8917">
        <ele>1216</ele>
        <time>2021-08-03T09:59:35.339Z</time>
      </trkpt>
      <trkpt lat="47.01933" lon="8.89168">
        <ele>1216</ele>
        <time>2021-08-03T09:59:36.339Z</time>
      </trkpt>
      <trkpt lat="47.01932" lon="8.89167">
        <ele>1215</ele>
        <time>2021-08-03T09:59:37.339Z</time>
      </trkpt>
      <trkpt lat="47.01931" lon="8.89165">
        <ele>1216</ele>
        <time>2021-08-03T09:59:38.340Z</time>
      </trkpt>
      <trkpt lat="47.01931" lon="8.89164">
        <ele>1216</ele>
        <time>2021-08-03T09:59:39.339Z</time>
      </trkpt>
      <trkpt lat="47.01931" lon="8.89162">
        <ele>1216</ele>
        <time>2021-08-03T09:59:40.339Z</time>
      </trkpt>
      <trkpt lat="47.01931" lon="8.89161">
        <ele>1216</ele>
        <time>2021-08-03T09:59:41.339Z</time>
      </trkpt>
      <trkpt lat="47.01932" lon="8.8916">
        <ele>1216</ele>
        <time>2021-08-03T09:59:42.339Z</time>
      </trkpt>
      <trkpt lat="47.01932" lon="8.89159">
        <ele>1216</ele>
        <time>2021-08-03T09:59:43.339Z</time>
      </trkpt>
      <trkpt lat="47.01931" lon="8.89158">
        <ele>1216</ele>
        <time>2021-08-03T09:59:44.339Z</time>
      </trkpt>
      <trkpt lat="47.01931" lon="8.89157">
        <ele>1216</ele>
        <time>2021-08-03T09:59:45.339Z</time>
      </trkpt>
      <trkpt lat="47.0193" lon="8.89156">
        <ele>1216</ele>
        <time>2021-08-03T09:59:46.339Z</time>
      </trkpt>
      <trkpt lat="47.01929" lon="8.89155">
        <ele>1217</ele>
        <time>2021-08-03T09:59:47.339Z</time>
      </trkpt>
      <trkpt lat="47.01929" lon="8.89154">
        <ele>1217</ele>
        <time>2021-08-03T09:59:48.339Z</time>
      </trkpt>
      <trkpt lat="47.01929" lon="8.89153">
        <ele>1218</ele>
        <time>2021-08-03T09:59:49.339Z</time>
      </trkpt>
      <trkpt lat="47.01929" lon="8.89152">
        <ele>1218</ele>
        <time>2021-08-03T09:59:50.339Z</time>
      </trkpt>
      <trkpt lat="47.01928" lon="8.8915">
        <ele>1218</ele>
        <time>2021-08-03T09:59:51.339Z</time>
      </trkpt>
      <trkpt lat="47.01928" lon="8.89149">
        <ele>1218</ele>
        <time>2021-08-03T09:59:52.339Z</time>
      </trkpt>
      <trkpt lat="47.01928" lon="8.89147">
        <ele>1218</ele>
        <time>2021-08-03T09:59:53.339Z</time>
      </trkpt>
      <trkpt lat="47.01928" lon="8.89146">
        <ele>1218</ele>
        <time>2021-08-03T09:59:54.339Z</time>
      </trkpt>
      <trkpt lat="47.01928" lon="8.89145">
        <ele>1218</ele>
        <time>2021-08-03T09:59:55.339Z</time>
      </trkpt>
      <trkpt lat="47.01927" lon="8.89144">
        <ele>1218</ele>
        <time>2021-08-03T09:59:56.340Z</time>
      </trkpt>
      <trkpt lat="47.01927" lon="8.89143">
        <ele>1218</ele>
        <time>2021-08-03T09:59:57.339Z</time>
      </trkpt>
      <trkpt lat="47.01926" lon="8.89142">
        <ele>1218</ele>
        <time>2021-08-03T09:59:58.339Z</time>
      </trkpt>
      <trkpt lat="47.01926" lon="8.89141">
        <ele>1217</ele>
        <time>2021-08-03T09:59:59.340Z</time>
      </trkpt>
      <trkpt lat="47.01926" lon="8.8914">
        <ele>1217</ele>
        <time>2021-08-03T10:00:00.339Z</time>
      </trkpt>
      <trkpt lat="47.01926" lon="8.89139">
        <ele>1217</ele>
        <time>2021-08-03T10:00:01.339Z</time>
      </trkpt>
      <trkpt lat="47.01925" lon="8.89138">
        <ele>1217</ele>
        <time>2021-08-03T10:00:02.339Z</time>
      </trkpt>
      <trkpt lat="47.01925" lon="8.89136">
        <ele>1217</ele>
        <time>2021-08-03T10:00:03.339Z</time>
      </trkpt>
      <trkpt lat="47.01925" lon="8.89135">
        <ele>1217</ele>
        <time>2021-08-03T10:00:04.340Z</time>
      </trkpt>
      <trkpt lat="47.01925" lon="8.89134">
        <ele>1216</ele>
        <time>2021-08-03T10:00:05.339Z</time>
      </trkpt>
      <trkpt lat="47.01925" lon="8.89133">
        <ele>1216</ele>
        <time>2021-08-03T10:00:06.339Z</time>
      </trkpt>
      <trkpt lat="47.01924" lon="8.89132">
        <ele>1216</ele>
        <time>2021-08-03T10:00:07.340Z</time>
      </trkpt>
      <trkpt lat="47.01923" lon="8.89131">
        <ele>1216</ele>
        <time>2021-08-03T10:00:08.339Z</time>
      </trkpt>
      <trkpt lat="47.01923" lon="8.89129">
        <ele>1216</ele>
        <time>2021-08-03T10:00:09.339Z</time>
      </trkpt>
      <trkpt lat="47.01923" lon="8.89128">
        <ele>1216</ele>
        <time>2021-08-03T10:00:10.339Z</time>
      </trkpt>
      <trkpt lat="47.01923" lon="8.89127">
        <ele>1216</ele>
        <time>2021-08-03T10:00:11.340Z</time>
      </trkpt>
      <trkpt lat="47.01923" lon="8.89126">
        <ele>1216</ele>
        <time>2021-08-03T10:00:12.340Z</time>
      </trkpt>
      <trkpt lat="47.01923" lon="8.89125">
        <ele>1217</ele>
        <time>2021-08-03T10:00:13.339Z</time>
      </trkpt>
      <trkpt lat="47.01923" lon="8.89123">
        <ele>1217</ele>
        <time>2021-08-03T10:00:14.339Z</time>
      </trkpt>
      <trkpt lat="47.01923" lon="8.89123">
        <ele>1218</ele>
        <time>2021-08-03T10:00:15.340Z</time>
      </trkpt>
      <trkpt lat="47.01923" lon="8.89122">
        <ele>1218</ele>
        <time>2021-08-03T10:00:16.339Z</time>
      </trkpt>
      <trkpt lat="47.01923" lon="8.8912">
        <ele>1219</ele>
        <time>2021-08-03T10:00:17.339Z</time>
      </trkpt>
      <trkpt lat="47.01922" lon="8.89118">
        <ele>1220</ele>
        <time>2021-08-03T10:00:18.339Z</time>
      </trkpt>
      <trkpt lat="47.01921" lon="8.89117">
        <ele>1221</ele>
        <time>2021-08-03T10:00:19.339Z</time>
      </trkpt>
      <trkpt lat="47.0192" lon="8.89115">
        <ele>1221</ele>
        <time>2021-08-03T10:00:20.339Z</time>
      </trkpt>
      <trkpt lat="47.0192" lon="8.89114">
        <ele>1222</ele>
        <time>2021-08-03T10:00:21.339Z</time>
      </trkpt>
      <trkpt lat="47.0192" lon="8.89113">
        <ele>1223</ele>
        <time>2021-08-03T10:00:22.339Z</time>
      </trkpt>
      <trkpt lat="47.01921" lon="8.89112">
        <ele>1223</ele>
        <time>2021-08-03T10:00:23.340Z</time>
      </trkpt>
      <trkpt lat="47.01922" lon="8.89112">
        <ele>1223</ele>
        <time>2021-08-03T10:00:24.339Z</time>
      </trkpt>
      <trkpt lat="47.01922" lon="8.89111">
        <ele>1223</ele>
        <time>2021-08-03T10:00:25.340Z</time>
      </trkpt>
      <trkpt lat="47.01922" lon="8.89111">
        <ele>1223</ele>
        <time>2021-08-03T10:00:26.340Z</time>
      </trkpt>
      <trkpt lat="47.01921" lon="8.8911">
        <ele>1222</ele>
        <time>2021-08-03T10:00:27.340Z</time>
      </trkpt>
      <trkpt lat="47.01921" lon="8.89109">
        <ele>1223</ele>
        <time>2021-08-03T10:00:28.339Z</time>
      </trkpt>
      <trkpt lat="47.01921" lon="8.89108">
        <ele>1223</ele>
        <time>2021-08-03T10:00:29.339Z</time>
      </trkpt>
      <trkpt lat="47.01921" lon="8.89107">
        <ele>1223</ele>
        <time>2021-08-03T10:00:30.339Z</time>
      </trkpt>
      <trkpt lat="47.01921" lon="8.89106">
        <ele>1223</ele>
        <time>2021-08-03T10:00:31.339Z</time>
      </trkpt>
      <trkpt lat="47.01921" lon="8.89105">
        <ele>1223</ele>
        <time>2021-08-03T10:00:32.339Z</time>
      </trkpt>
      <trkpt lat="47.0192" lon="8.89104">
        <ele>1223</ele>
        <time>2021-08-03T10:00:33.339Z</time>
      </trkpt>
      <trkpt lat="47.0192" lon="8.89104">
        <ele>1223</ele>
        <time>2021-08-03T10:00:34.339Z</time>
      </trkpt>
      <trkpt lat="47.0192" lon="8.89103">
        <ele>1223</ele>
        <time>2021-08-03T10:00:35.339Z</time>
      </trkpt>
      <trkpt lat="47.0192" lon="8.89102">
        <ele>1224</ele>
        <time>2021-08-03T10:00:36.340Z</time>
      </trkpt>
      <trkpt lat="47.01919" lon="8.89101">
        <ele>1224</ele>
        <time>2021-08-03T10:00:37.339Z</time>
      </trkpt>
      <trkpt lat="47.01919" lon="8.891">
        <ele>1225</ele>
        <time>2021-08-03T10:00:38.340Z</time>
      </trkpt>
      <trkpt lat="47.01918" lon="8.89099">
        <ele>1226</ele>
        <time>2021-08-03T10:00:39.340Z</time>
      </trkpt>
      <trkpt lat="47.01918" lon="8.89099">
        <ele>1227</ele>
        <time>2021-08-03T10:00:40.339Z</time>
      </trkpt>
      <trkpt lat="47.01918" lon="8.89098">
        <ele>1227</ele>
        <time>2021-08-03T10:00:41.339Z</time>
      </trkpt>
      <trkpt lat="47.01918" lon="8.89096">
        <ele>1228</ele>
        <time>2021-08-03T10:00:42.339Z</time>
      </trkpt>
      <trkpt lat="47.01917" lon="8.89095">
        <ele>1228</ele>
        <time>2021-08-03T10:00:43.339Z</time>
      </trkpt>
      <trkpt lat="47.01917" lon="8.89094">
        <ele>1229</ele>
        <time>2021-08-03T10:00:44.340Z</time>
      </trkpt>
      <trkpt lat="47.01917" lon="8.89093">
        <ele>1229</ele>
        <time>2021-08-03T10:00:45.339Z</time>
      </trkpt>
      <trkpt lat="47.01916" lon="8.89092">
        <ele>1229</ele>
        <time>2021-08-03T10:00:46.339Z</time>
      </trkpt>
      <trkpt lat="47.01915" lon="8.89092">
        <ele>1230</ele>
        <time>2021-08-03T10:00:47.339Z</time>
      </trkpt>
      <trkpt lat="47.01914" lon="8.89091">
        <ele>1231</ele>
        <time>2021-08-03T10:00:48.340Z</time>
      </trkpt>
      <trkpt lat="47.01913" lon="8.89089">
        <ele>1232</ele>
        <time>2021-08-03T10:00:49.339Z</time>
      </trkpt>
      <trkpt lat="47.01912" lon="8.89087">
        <ele>1232</ele>
        <time>2021-08-03T10:00:50.339Z</time>
      </trkpt>
      <trkpt lat="47.01912" lon="8.89085">
        <ele>1233</ele>
        <time>2021-08-03T10:00:51.340Z</time>
      </trkpt>
      <trkpt lat="47.01912" lon="8.89084">
        <ele>1234</ele>
        <time>2021-08-03T10:00:52.339Z</time>
      </trkpt>
      <trkpt lat="47.01912" lon="8.89083">
        <ele>1234</ele>
        <time>2021-08-03T10:00:53.339Z</time>
      </trkpt>
      <trkpt lat="47.01912" lon="8.89082">
        <ele>1234</ele>
        <time>2021-08-03T10:00:54.340Z</time>
      </trkpt>
      <trkpt lat="47.01911" lon="8.89082">
        <ele>1234</ele>
        <time>2021-08-03T10:00:55.339Z</time>
      </trkpt>
      <trkpt lat="47.01911" lon="8.89082">
        <ele>1234</ele>
        <time>2021-08-03T10:00:56.339Z</time>
      </trkpt>
      <trkpt lat="47.0191" lon="8.89082">
        <ele>1234</ele>
        <time>2021-08-03T10:00:57.339Z</time>
      </trkpt>
      <trkpt lat="47.0191" lon="8.8908">
        <ele>1234</ele>
        <time>2021-08-03T10:00:58.339Z</time>
      </trkpt>
      <trkpt lat="47.01909" lon="8.89079">
        <ele>1234</ele>
        <time>2021-08-03T10:00:59.339Z</time>
      </trkpt>
      <trkpt lat="47.01909" lon="8.89077">
        <ele>1234</ele>
        <time>2021-08-03T10:01:00.339Z</time>
      </trkpt>
      <trkpt lat="47.01909" lon="8.89076">
        <ele>1234</ele>
        <time>2021-08-03T10:01:01.339Z</time>
      </trkpt>
      <trkpt lat="47.01908" lon="8.89074">
        <ele>1234</ele>
        <time>2021-08-03T10:01:02.339Z</time>
      </trkpt>
      <trkpt lat="47.01909" lon="8.89074">
        <ele>1233</ele>
        <time>2021-08-03T10:01:03.339Z</time>
      </trkpt>
      <trkpt lat="47.01909" lon="8.89074">
        <ele>1233</ele>
        <time>2021-08-03T10:01:04.339Z</time>
      </trkpt>
      <trkpt lat="47.01909" lon="8.89073">
        <ele>1233</ele>
        <time>2021-08-03T10:01:05.340Z</time>
      </trkpt>
      <trkpt lat="47.0191" lon="8.89073">
        <ele>1233</ele>
        <time>2021-08-03T10:01:06.339Z</time>
      </trkpt>
      <trkpt lat="47.0191" lon="8.89072">
        <ele>1233</ele>
        <time>2021-08-03T10:01:07.340Z</time>
      </trkpt>
      <trkpt lat="47.0191" lon="8.89071">
        <ele>1233</ele>
        <time>2021-08-03T10:01:08.340Z</time>
      </trkpt>
      <trkpt lat="47.0191" lon="8.8907">
        <ele>1233</ele>
        <time>2021-08-03T10:01:09.339Z</time>
      </trkpt>
      <trkpt lat="47.0191" lon="8.89069">
        <ele>1234</ele>
        <time>2021-08-03T10:01:10.339Z</time>
      </trkpt>
      <trkpt lat="47.01911" lon="8.89068">
        <ele>1234</ele>
        <time>2021-08-03T10:01:11.339Z</time>
      </trkpt>
      <trkpt lat="47.01911" lon="8.89067">
        <ele>1234</ele>
        <time>2021-08-03T10:01:12.339Z</time>
      </trkpt>
      <trkpt lat="47.01911" lon="8.89066">
        <ele>1234</ele>
        <time>2021-08-03T10:01:13.339Z</time>
      </trkpt>
      <trkpt lat="47.01911" lon="8.89066">
        <ele>1234</ele>
        <time>2021-08-03T10:01:14.340Z</time>
      </trkpt>
      <trkpt lat="47.0191" lon="8.89065">
        <ele>1234</ele>
        <time>2021-08-03T10:01:15.340Z</time>
      </trkpt>
      <trkpt lat="47.0191" lon="8.89065">
        <ele>1234</ele>
        <time>2021-08-03T10:01:16.339Z</time>
      </trkpt>
      <trkpt lat="47.0191" lon="8.89064">
        <ele>1234</ele>
        <time>2021-08-03T10:01:17.339Z</time>
      </trkpt>
      <trkpt lat="47.01911" lon="8.89062">
        <ele>1234</ele>
        <time>2021-08-03T10:01:18.339Z</time>
      </trkpt>
      <trkpt lat="47.01911" lon="8.89061">
        <ele>1234</ele>
        <time>2021-08-03T10:01:19.340Z</time>
      </trkpt>
      <trkpt lat="47.01912" lon="8.8906">
        <ele>1235</ele>
        <time>2021-08-03T10:01:20.340Z</time>
      </trkpt>
      <trkpt lat="47.01912" lon="8.89059">
        <ele>1235</ele>
        <time>2021-08-03T10:01:21.339Z</time>
      </trkpt>
      <trkpt lat="47.01912" lon="8.89058">
        <ele>1236</ele>
        <time>2021-08-03T10:01:22.339Z</time>
      </trkpt>
      <trkpt lat="47.01912" lon="8.89057">
        <ele>1236</ele>
        <time>2021-08-03T10:01:23.339Z</time>
      </trkpt>
      <trkpt lat="47.01912" lon="8.89056">
        <ele>1237</ele>
        <time>2021-08-03T10:01:24.339Z</time>
      </trkpt>
      <trkpt lat="47.01913" lon="8.89056">
        <ele>1237</ele>
        <time>2021-08-03T10:01:25.339Z</time>
      </trkpt>
      <trkpt lat="47.01913" lon="8.89056">
        <ele>1238</ele>
        <time>2021-08-03T10:01:26.339Z</time>
      </trkpt>
      <trkpt lat="47.01914" lon="8.89055">
        <ele>1238</ele>
        <time>2021-08-03T10:01:27.339Z</time>
      </trkpt>
      <trkpt lat="47.01915" lon="8.89052">
        <ele>1240</ele>
        <time>2021-08-03T10:01:28.339Z</time>
      </trkpt>
      <trkpt lat="47.01915" lon="8.89051">
        <ele>1241</ele>
        <time>2021-08-03T10:01:29.339Z</time>
      </trkpt>
      <trkpt lat="47.01915" lon="8.8905">
        <ele>1242</ele>
        <time>2021-08-03T10:01:30.340Z</time>
      </trkpt>
      <trkpt lat="47.01916" lon="8.89049">
        <ele>1243</ele>
        <time>2021-08-03T10:01:31.339Z</time>
      </trkpt>
      <trkpt lat="47.01916" lon="8.89048">
        <ele>1244</ele>
        <time>2021-08-03T10:01:32.339Z</time>
      </trkpt>
      <trkpt lat="47.01916" lon="8.89047">
        <ele>1245</ele>
        <time>2021-08-03T10:01:33.339Z</time>
      </trkpt>
      <trkpt lat="47.01917" lon="8.89046">
        <ele>1246</ele>
        <time>2021-08-03T10:01:34.339Z</time>
      </trkpt>
      <trkpt lat="47.01917" lon="8.89044">
        <ele>1247</ele>
        <time>2021-08-03T10:01:35.339Z</time>
      </trkpt>
      <trkpt lat="47.01917" lon="8.89043">
        <ele>1248</ele>
        <time>2021-08-03T10:01:36.340Z</time>
      </trkpt>
      <trkpt lat="47.01918" lon="8.89042">
        <ele>1249</ele>
        <time>2021-08-03T10:01:37.339Z</time>
      </trkpt>
      <trkpt lat="47.01918" lon="8.89041">
        <ele>1249</ele>
        <time>2021-08-03T10:01:38.339Z</time>
      </trkpt>
      <trkpt lat="47.01918" lon="8.8904">
        <ele>1250</ele>
        <time>2021-08-03T10:01:39.339Z</time>
      </trkpt>
      <trkpt lat="47.01918" lon="8.89039">
        <ele>1250</ele>
        <time>2021-08-03T10:01:40.339Z</time>
      </trkpt>
      <trkpt lat="47.01918" lon="8.89037">
        <ele>1250</ele>
        <time>2021-08-03T10:01:41.339Z</time>
      </trkpt>
      <trkpt lat="47.01918" lon="8.89036">
        <ele>1251</ele>
        <time>2021-08-03T10:01:42.339Z</time>
      </trkpt>
      <trkpt lat="47.01918" lon="8.89036">
        <ele>1251</ele>
        <time>2021-08-03T10:01:43.340Z</time>
      </trkpt>
      <trkpt lat="47.01917" lon="8.89035">
        <ele>1251</ele>
        <time>2021-08-03T10:01:44.339Z</time>
      </trkpt>
      <trkpt lat="47.01917" lon="8.89034">
        <ele>1252</ele>
        <time>2021-08-03T10:01:45.339Z</time>
      </trkpt>
      <trkpt lat="47.01916" lon="8.89032">
        <ele>1252</ele>
        <time>2021-08-03T10:01:46.339Z</time>
      </trkpt>
      <trkpt lat="47.01916" lon="8.89032">
        <ele>1253</ele>
        <time>2021-08-03T10:01:47.340Z</time>
      </trkpt>
      <trkpt lat="47.01916" lon="8.89031">
        <ele>1253</ele>
        <time>2021-08-03T10:01:48.339Z</time>
      </trkpt>
      <trkpt lat="47.01917" lon="8.8903">
        <ele>1254</ele>
        <time>2021-08-03T10:01:49.339Z</time>
      </trkpt>
      <trkpt lat="47.01917" lon="8.89029">
        <ele>1254</ele>
        <time>2021-08-03T10:01:50.339Z</time>
      </trkpt>
      <trkpt lat="47.01919" lon="8.89027">
        <ele>1255</ele>
        <time>2021-08-03T10:01:51.339Z</time>
      </trkpt>
      <trkpt lat="47.01919" lon="8.89026">
        <ele>1255</ele>
        <time>2021-08-03T10:01:52.339Z</time>
      </trkpt>
      <trkpt lat="47.0192" lon="8.89024">
        <ele>1255</ele>
        <time>2021-08-03T10:01:53.339Z</time>
      </trkpt>
      <trkpt lat="47.01921" lon="8.89023">
        <ele>1255</ele>
        <time>2021-08-03T10:01:54.339Z</time>
      </trkpt>
      <trkpt lat="47.01921" lon="8.89022">
        <ele>1255</ele>
        <time>2021-08-03T10:01:55.339Z</time>
      </trkpt>
      <trkpt lat="47.01921" lon="8.89021">
        <ele>1255</ele>
        <time>2021-08-03T10:01:56.339Z</time>
      </trkpt>
      <trkpt lat="47.01921" lon="8.8902">
        <ele>1254</ele>
        <time>2021-08-03T10:01:57.340Z</time>
      </trkpt>
      <trkpt lat="47.01921" lon="8.89019">
        <ele>1254</ele>
        <time>2021-08-03T10:01:58.339Z</time>
      </trkpt>
      <trkpt lat="47.01921" lon="8.89018">
        <ele>1254</ele>
        <time>2021-08-03T10:01:59.339Z</time>
      </trkpt>
      <trkpt lat="47.01921" lon="8.89017">
        <ele>1253</ele>
        <time>2021-08-03T10:02:00.339Z</time>
      </trkpt>
      <trkpt lat="47.01921" lon="8.89016">
        <ele>1253</ele>
        <time>2021-08-03T10:02:01.340Z</time>
      </trkpt>
      <trkpt lat="47.01921" lon="8.89016">
        <ele>1252</ele>
        <time>2021-08-03T10:02:02.340Z</time>
      </trkpt>
      <trkpt lat="47.0192" lon="8.89015">
        <ele>1252</ele>
        <time>2021-08-03T10:02:03.339Z</time>
      </trkpt>
      <trkpt lat="47.0192" lon="8.89014">
        <ele>1251</ele>
        <time>2021-08-03T10:02:04.339Z</time>
      </trkpt>
      <trkpt lat="47.0192" lon="8.89014">
        <ele>1251</ele>
        <time>2021-08-03T10:02:05.339Z</time>
      </trkpt>
      <trkpt lat="47.0192" lon="8.89013">
        <ele>1251</ele>
        <time>2021-08-03T10:02:06.339Z</time>
      </trkpt>
      <trkpt lat="47.0192" lon="8.89012">
        <ele>1251</ele>
        <time>2021-08-03T10:02:07.339Z</time>
      </trkpt>
      <trkpt lat="47.0192" lon="8.89011">
        <ele>1250</ele>
        <time>2021-08-03T10:02:08.340Z</time>
      </trkpt>
      <trkpt lat="47.0192" lon="8.89011">
        <ele>1250</ele>
        <time>2021-08-03T10:02:09.339Z</time>
      </trkpt>
      <trkpt lat="47.01921" lon="8.8901">
        <ele>1250</ele>
        <time>2021-08-03T10:02:10.339Z</time>
      </trkpt>
      <trkpt lat="47.01922" lon="8.89009">
        <ele>1250</ele>
        <time>2021-08-03T10:02:11.339Z</time>
      </trkpt>
      <trkpt lat="47.01923" lon="8.89009">
        <ele>1250</ele>
        <time>2021-08-03T10:02:12.340Z</time>
      </trkpt>
      <trkpt lat="47.01923" lon="8.89008">
        <ele>1250</ele>
        <time>2021-08-03T10:02:13.339Z</time>
      </trkpt>
      <trkpt lat="47.01923" lon="8.89007">
        <ele>1250</ele>
        <time>2021-08-03T10:02:14.340Z</time>
      </trkpt>
      <trkpt lat="47.01923" lon="8.89007">
        <ele>1250</ele>
        <time>2021-08-03T10:02:15.339Z</time>
      </trkpt>
      <trkpt lat="47.01924" lon="8.89006">
        <ele>1250</ele>
        <time>2021-08-03T10:02:16.339Z</time>
      </trkpt>
      <trkpt lat="47.01924" lon="8.89006">
        <ele>1251</ele>
        <time>2021-08-03T10:02:17.339Z</time>
      </trkpt>
      <trkpt lat="47.01924" lon="8.89005">
        <ele>1251</ele>
        <time>2021-08-03T10:02:18.340Z</time>
      </trkpt>
      <trkpt lat="47.01924" lon="8.89005">
        <ele>1251</ele>
        <time>2021-08-03T10:02:19.339Z</time>
      </trkpt>
      <trkpt lat="47.01924" lon="8.89005">
        <ele>1251</ele>
        <time>2021-08-03T10:02:20.340Z</time>
      </trkpt>
      <trkpt lat="47.01924" lon="8.89004">
        <ele>1251</ele>
        <time>2021-08-03T10:02:21.339Z</time>
      </trkpt>
      <trkpt lat="47.01924" lon="8.89003">
        <ele>1251</ele>
        <time>2021-08-03T10:02:22.339Z</time>
      </trkpt>
      <trkpt lat="47.01925" lon="8.89001">
        <ele>1251</ele>
        <time>2021-08-03T10:02:23.339Z</time>
      </trkpt>
      <trkpt lat="47.01926" lon="8.88999">
        <ele>1250</ele>
        <time>2021-08-03T10:02:24.339Z</time>
      </trkpt>
      <trkpt lat="47.01925" lon="8.88997">
        <ele>1250</ele>
        <time>2021-08-03T10:02:25.339Z</time>
      </trkpt>
      <trkpt lat="47.01925" lon="8.88996">
        <ele>1250</ele>
        <time>2021-08-03T10:02:26.339Z</time>
      </trkpt>
      <trkpt lat="47.01924" lon="8.88995">
        <ele>1250</ele>
        <time>2021-08-03T10:02:27.340Z</time>
      </trkpt>
      <trkpt lat="47.01924" lon="8.88994">
        <ele>1249</ele>
        <time>2021-08-03T10:02:28.339Z</time>
      </trkpt>
      <trkpt lat="47.01924" lon="8.88993">
        <ele>1248</ele>
        <time>2021-08-03T10:02:29.339Z</time>
      </trkpt>
      <trkpt lat="47.01923" lon="8.88993">
        <ele>1247</ele>
        <time>2021-08-03T10:02:30.339Z</time>
      </trkpt>
      <trkpt lat="47.01923" lon="8.88992">
        <ele>1247</ele>
        <time>2021-08-03T10:02:31.340Z</time>
      </trkpt>
      <trkpt lat="47.01922" lon="8.88991">
        <ele>1246</ele>
        <time>2021-08-03T10:02:32.339Z</time>
      </trkpt>
      <trkpt lat="47.01922" lon="8.8899">
        <ele>1246</ele>
        <time>2021-08-03T10:02:33.339Z</time>
      </trkpt>
      <trkpt lat="47.01922" lon="8.8899">
        <ele>1246</ele>
        <time>2021-08-03T10:02:34.339Z</time>
      </trkpt>
      <trkpt lat="47.01922" lon="8.88989">
        <ele>1246</ele>
        <time>2021-08-03T10:02:35.340Z</time>
      </trkpt>
      <trkpt lat="47.01922" lon="8.88989">
        <ele>1247</ele>
        <time>2021-08-03T10:02:36.340Z</time>
      </trkpt>
      <trkpt lat="47.01922" lon="8.88989">
        <ele>1247</ele>
        <time>2021-08-03T10:02:37.339Z</time>
      </trkpt>
      <trkpt lat="47.01923" lon="8.88986">
        <ele>1250</ele>
        <time>2021-08-03T10:02:38.341Z</time>
      </trkpt>
      <trkpt lat="47.01923" lon="8.88986">
        <ele>1250</ele>
        <time>2021-08-03T10:02:39.340Z</time>
      </trkpt>
      <trkpt lat="47.01922" lon="8.88986">
        <ele>1250</ele>
        <time>2021-08-03T10:02:40.340Z</time>
      </trkpt>
      <trkpt lat="47.01922" lon="8.88986">
        <ele>1250</ele>
        <time>2021-08-03T10:02:41.341Z</time>
      </trkpt>
      <trkpt lat="47.01921" lon="8.88985">
        <ele>1251</ele>
        <time>2021-08-03T10:02:42.341Z</time>
      </trkpt>
      <trkpt lat="47.01921" lon="8.88986">
        <ele>1251</ele>
        <time>2021-08-03T10:02:43.341Z</time>
      </trkpt>
      <trkpt lat="47.01921" lon="8.88986">
        <ele>1251</ele>
        <time>2021-08-03T10:02:44.341Z</time>
      </trkpt>
      <trkpt lat="47.01921" lon="8.88986">
        <ele>1252</ele>
        <time>2021-08-03T10:02:45.340Z</time>
      </trkpt>
      <trkpt lat="47.01921" lon="8.88986">
        <ele>1252</ele>
        <time>2021-08-03T10:02:46.340Z</time>
      </trkpt>
      <trkpt lat="47.01917" lon="8.88988">
        <ele>1252</ele>
        <time>2021-08-03T10:02:47.341Z</time>
      </trkpt>
      <trkpt lat="47.01918" lon="8.88987">
        <ele>1253</ele>
        <time>2021-08-03T10:02:48.341Z</time>
      </trkpt>
      <trkpt lat="47.01918" lon="8.88987">
        <ele>1253</ele>
        <time>2021-08-03T10:02:49.340Z</time>
      </trkpt>
      <trkpt lat="47.01919" lon="8.88985">
        <ele>1254</ele>
        <time>2021-08-03T10:02:50.341Z</time>
      </trkpt>
      <trkpt lat="47.0192" lon="8.88983">
        <ele>1255</ele>
        <time>2021-08-03T10:02:51.341Z</time>
      </trkpt>
      <trkpt lat="47.01921" lon="8.88982">
        <ele>1256</ele>
        <time>2021-08-03T10:02:52.341Z</time>
      </trkpt>
      <trkpt lat="47.01922" lon="8.8898">
        <ele>1257</ele>
        <time>2021-08-03T10:02:53.341Z</time>
      </trkpt>
      <trkpt lat="47.01922" lon="8.8898">
        <ele>1257</ele>
        <time>2021-08-03T10:02:54.340Z</time>
      </trkpt>
      <trkpt lat="47.01922" lon="8.88979">
        <ele>1258</ele>
        <time>2021-08-03T10:02:55.341Z</time>
      </trkpt>
      <trkpt lat="47.01922" lon="8.88979">
        <ele>1258</ele>
        <time>2021-08-03T10:02:56.341Z</time>
      </trkpt>
      <trkpt lat="47.01922" lon="8.88978">
        <ele>1259</ele>
        <time>2021-08-03T10:02:57.341Z</time>
      </trkpt>
      <trkpt lat="47.01922" lon="8.88978">
        <ele>1259</ele>
        <time>2021-08-03T10:02:58.340Z</time>
      </trkpt>
      <trkpt lat="47.01922" lon="8.88977">
        <ele>1260</ele>
        <time>2021-08-03T10:02:59.340Z</time>
      </trkpt>
      <trkpt lat="47.01922" lon="8.88975">
        <ele>1260</ele>
        <time>2021-08-03T10:03:00.342Z</time>
      </trkpt>
      <trkpt lat="47.01922" lon="8.88974">
        <ele>1260</ele>
        <time>2021-08-03T10:03:01.342Z</time>
      </trkpt>
      <trkpt lat="47.01922" lon="8.88974">
        <ele>1261</ele>
        <time>2021-08-03T10:03:02.341Z</time>
      </trkpt>
      <trkpt lat="47.01923" lon="8.88972">
        <ele>1261</ele>
        <time>2021-08-03T10:03:03.341Z</time>
      </trkpt>
      <trkpt lat="47.01924" lon="8.88971">
        <ele>1261</ele>
        <time>2021-08-03T10:03:04.342Z</time>
      </trkpt>
      <trkpt lat="47.01925" lon="8.88969">
        <ele>1261</ele>
        <time>2021-08-03T10:03:05.341Z</time>
      </trkpt>
      <trkpt lat="47.01925" lon="8.88966">
        <ele>1262</ele>
        <time>2021-08-03T10:03:06.342Z</time>
      </trkpt>
      <trkpt lat="47.01925" lon="8.88964">
        <ele>1262</ele>
        <time>2021-08-03T10:03:07.342Z</time>
      </trkpt>
      <trkpt lat="47.01926" lon="8.88962">
        <ele>1262</ele>
        <time>2021-08-03T10:03:08.341Z</time>
      </trkpt>
      <trkpt lat="47.01926" lon="8.88961">
        <ele>1262</ele>
        <time>2021-08-03T10:03:09.342Z</time>
      </trkpt>
      <trkpt lat="47.01925" lon="8.8896">
        <ele>1262</ele>
        <time>2021-08-03T10:03:10.341Z</time>
      </trkpt>
      <trkpt lat="47.01925" lon="8.88958">
        <ele>1262</ele>
        <time>2021-08-03T10:03:11.341Z</time>
      </trkpt>
      <trkpt lat="47.01924" lon="8.88956">
        <ele>1262</ele>
        <time>2021-08-03T10:03:12.341Z</time>
      </trkpt>
      <trkpt lat="47.01924" lon="8.88954">
        <ele>1261</ele>
        <time>2021-08-03T10:03:13.341Z</time>
      </trkpt>
      <trkpt lat="47.01924" lon="8.88952">
        <ele>1261</ele>
        <time>2021-08-03T10:03:14.342Z</time>
      </trkpt>
      <trkpt lat="47.01924" lon="8.88949">
        <ele>1261</ele>
        <time>2021-08-03T10:03:15.341Z</time>
      </trkpt>
      <trkpt lat="47.01925" lon="8.88947">
        <ele>1260</ele>
        <time>2021-08-03T10:03:16.342Z</time>
      </trkpt>
      <trkpt lat="47.01925" lon="8.88946">
        <ele>1260</ele>
        <time>2021-08-03T10:03:17.342Z</time>
      </trkpt>
      <trkpt lat="47.01925" lon="8.88945">
        <ele>1260</ele>
        <time>2021-08-03T10:03:18.342Z</time>
      </trkpt>
      <trkpt lat="47.01925" lon="8.88943">
        <ele>1260</ele>
        <time>2021-08-03T10:03:19.342Z</time>
      </trkpt>
      <trkpt lat="47.01925" lon="8.88942">
        <ele>1260</ele>
        <time>2021-08-03T10:03:20.342Z</time>
      </trkpt>
      <trkpt lat="47.01925" lon="8.88941">
        <ele>1260</ele>
        <time>2021-08-03T10:03:21.342Z</time>
      </trkpt>
      <trkpt lat="47.01925" lon="8.88939">
        <ele>1260</ele>
        <time>2021-08-03T10:03:22.342Z</time>
      </trkpt>
      <trkpt lat="47.01926" lon="8.88937">
        <ele>1259</ele>
        <time>2021-08-03T10:03:23.342Z</time>
      </trkpt>
      <trkpt lat="47.01927" lon="8.88935">
        <ele>1259</ele>
        <time>2021-08-03T10:03:24.342Z</time>
      </trkpt>
      <trkpt lat="47.01928" lon="8.88933">
        <ele>1259</ele>
        <time>2021-08-03T10:03:25.342Z</time>
      </trkpt>
      <trkpt lat="47.0193" lon="8.88931">
        <ele>1259</ele>
        <time>2021-08-03T10:03:26.342Z</time>
      </trkpt>
      <trkpt lat="47.0193" lon="8.88929">
        <ele>1259</ele>
        <time>2021-08-03T10:03:27.342Z</time>
      </trkpt>
      <trkpt lat="47.01931" lon="8.88928">
        <ele>1259</ele>
        <time>2021-08-03T10:03:28.341Z</time>
      </trkpt>
      <trkpt lat="47.01931" lon="8.88926">
        <ele>1259</ele>
        <time>2021-08-03T10:03:29.342Z</time>
      </trkpt>
      <trkpt lat="47.01931" lon="8.88925">
        <ele>1259</ele>
        <time>2021-08-03T10:03:30.342Z</time>
      </trkpt>
      <trkpt lat="47.01931" lon="8.88923">
        <ele>1258</ele>
        <time>2021-08-03T10:03:31.342Z</time>
      </trkpt>
      <trkpt lat="47.01931" lon="8.88922">
        <ele>1258</ele>
        <time>2021-08-03T10:03:32.342Z</time>
      </trkpt>
      <trkpt lat="47.01932" lon="8.88921">
        <ele>1257</ele>
        <time>2021-08-03T10:03:33.342Z</time>
      </trkpt>
      <trkpt lat="47.01932" lon="8.8892">
        <ele>1257</ele>
        <time>2021-08-03T10:03:34.342Z</time>
      </trkpt>
      <trkpt lat="47.01933" lon="8.88919">
        <ele>1256</ele>
        <time>2021-08-03T10:03:35.342Z</time>
      </trkpt>
      <trkpt lat="47.01934" lon="8.88918">
        <ele>1256</ele>
        <time>2021-08-03T10:03:36.342Z</time>
      </trkpt>
      <trkpt lat="47.01935" lon="8.88917">
        <ele>1256</ele>
        <time>2021-08-03T10:03:37.341Z</time>
      </trkpt>
      <trkpt lat="47.01936" lon="8.88915">
        <ele>1256</ele>
        <time>2021-08-03T10:03:38.341Z</time>
      </trkpt>
      <trkpt lat="47.01937" lon="8.88913">
        <ele>1255</ele>
        <time>2021-08-03T10:03:39.341Z</time>
      </trkpt>
      <trkpt lat="47.01937" lon="8.88912">
        <ele>1255</ele>
        <time>2021-08-03T10:03:40.341Z</time>
      </trkpt>
      <trkpt lat="47.01937" lon="8.8891">
        <ele>1254</ele>
        <time>2021-08-03T10:03:41.341Z</time>
      </trkpt>
      <trkpt lat="47.01937" lon="8.88909">
        <ele>1253</ele>
        <time>2021-08-03T10:03:42.341Z</time>
      </trkpt>
      <trkpt lat="47.01937" lon="8.88907">
        <ele>1253</ele>
        <time>2021-08-03T10:03:43.341Z</time>
      </trkpt>
      <trkpt lat="47.01938" lon="8.88906">
        <ele>1252</ele>
        <time>2021-08-03T10:03:44.341Z</time>
      </trkpt>
      <trkpt lat="47.01939" lon="8.88905">
        <ele>1252</ele>
        <time>2021-08-03T10:03:45.341Z</time>
      </trkpt>
      <trkpt lat="47.0194" lon="8.88904">
        <ele>1252</ele>
        <time>2021-08-03T10:03:46.341Z</time>
      </trkpt>
      <trkpt lat="47.0194" lon="8.88902">
        <ele>1252</ele>
        <time>2021-08-03T10:03:47.342Z</time>
      </trkpt>
      <trkpt lat="47.0194" lon="8.889">
        <ele>1252</ele>
        <time>2021-08-03T10:03:48.341Z</time>
      </trkpt>
      <trkpt lat="47.01941" lon="8.88898">
        <ele>1251</ele>
        <time>2021-08-03T10:03:49.341Z</time>
      </trkpt>
      <trkpt lat="47.01941" lon="8.88897">
        <ele>1251</ele>
        <time>2021-08-03T10:03:50.341Z</time>
      </trkpt>
      <trkpt lat="47.01941" lon="8.88896">
        <ele>1251</ele>
        <time>2021-08-03T10:03:51.341Z</time>
      </trkpt>
      <trkpt lat="47.0194" lon="8.88895">
        <ele>1251</ele>
        <time>2021-08-03T10:03:52.341Z</time>
      </trkpt>
      <trkpt lat="47.0194" lon="8.88893">
        <ele>1251</ele>
        <time>2021-08-03T10:03:53.341Z</time>
      </trkpt>
      <trkpt lat="47.0194" lon="8.88892">
        <ele>1251</ele>
        <time>2021-08-03T10:03:54.341Z</time>
      </trkpt>
      <trkpt lat="47.0194" lon="8.88891">
        <ele>1251</ele>
        <time>2021-08-03T10:03:55.341Z</time>
      </trkpt>
      <trkpt lat="47.0194" lon="8.88889">
        <ele>1251</ele>
        <time>2021-08-03T10:03:56.341Z</time>
      </trkpt>
      <trkpt lat="47.01939" lon="8.88888">
        <ele>1251</ele>
        <time>2021-08-03T10:03:57.341Z</time>
      </trkpt>
      <trkpt lat="47.01939" lon="8.88887">
        <ele>1251</ele>
        <time>2021-08-03T10:03:58.342Z</time>
      </trkpt>
      <trkpt lat="47.0194" lon="8.88886">
        <ele>1251</ele>
        <time>2021-08-03T10:03:59.342Z</time>
      </trkpt>
      <trkpt lat="47.01941" lon="8.88884">
        <ele>1251</ele>
        <time>2021-08-03T10:04:00.342Z</time>
      </trkpt>
      <trkpt lat="47.01941" lon="8.88882">
        <ele>1251</ele>
        <time>2021-08-03T10:04:01.342Z</time>
      </trkpt>
      <trkpt lat="47.01942" lon="8.88881">
        <ele>1251</ele>
        <time>2021-08-03T10:04:02.341Z</time>
      </trkpt>
      <trkpt lat="47.01942" lon="8.88879">
        <ele>1251</ele>
        <time>2021-08-03T10:04:03.342Z</time>
      </trkpt>
      <trkpt lat="47.01943" lon="8.88877">
        <ele>1251</ele>
        <time>2021-08-03T10:04:04.341Z</time>
      </trkpt>
      <trkpt lat="47.01944" lon="8.88876">
        <ele>1251</ele>
        <time>2021-08-03T10:04:05.341Z</time>
      </trkpt>
      <trkpt lat="47.01945" lon="8.88874">
        <ele>1252</ele>
        <time>2021-08-03T10:04:06.342Z</time>
      </trkpt>
      <trkpt lat="47.01945" lon="8.88873">
        <ele>1252</ele>
        <time>2021-08-03T10:04:07.342Z</time>
      </trkpt>
      <trkpt lat="47.01946" lon="8.88872">
        <ele>1252</ele>
        <time>2021-08-03T10:04:08.342Z</time>
      </trkpt>
      <trkpt lat="47.01946" lon="8.88871">
        <ele>1252</ele>
        <time>2021-08-03T10:04:09.342Z</time>
      </trkpt>
      <trkpt lat="47.01947" lon="8.8887">
        <ele>1252</ele>
        <time>2021-08-03T10:04:10.341Z</time>
      </trkpt>
      <trkpt lat="47.01946" lon="8.88869">
        <ele>1252</ele>
        <time>2021-08-03T10:04:11.341Z</time>
      </trkpt>
      <trkpt lat="47.01946" lon="8.88867">
        <ele>1252</ele>
        <time>2021-08-03T10:04:12.341Z</time>
      </trkpt>
      <trkpt lat="47.01946" lon="8.88866">
        <ele>1252</ele>
        <time>2021-08-03T10:04:13.342Z</time>
      </trkpt>
      <trkpt lat="47.01946" lon="8.88866">
        <ele>1253</ele>
        <time>2021-08-03T10:04:14.342Z</time>
      </trkpt>
      <trkpt lat="47.01947" lon="8.88865">
        <ele>1254</ele>
        <time>2021-08-03T10:04:15.341Z</time>
      </trkpt>
      <trkpt lat="47.01947" lon="8.88864">
        <ele>1254</ele>
        <time>2021-08-03T10:04:16.342Z</time>
      </trkpt>
      <trkpt lat="47.01948" lon="8.88863">
        <ele>1255</ele>
        <time>2021-08-03T10:04:17.341Z</time>
      </trkpt>
      <trkpt lat="47.01949" lon="8.88861">
        <ele>1255</ele>
        <time>2021-08-03T10:04:18.342Z</time>
      </trkpt>
      <trkpt lat="47.01949" lon="8.8886">
        <ele>1256</ele>
        <time>2021-08-03T10:04:19.342Z</time>
      </trkpt>
      <trkpt lat="47.01949" lon="8.88859">
        <ele>1256</ele>
        <time>2021-08-03T10:04:20.342Z</time>
      </trkpt>
      <trkpt lat="47.01949" lon="8.88858">
        <ele>1256</ele>
        <time>2021-08-03T10:04:21.342Z</time>
      </trkpt>
      <trkpt lat="47.01949" lon="8.88857">
        <ele>1257</ele>
        <time>2021-08-03T10:04:22.341Z</time>
      </trkpt>
      <trkpt lat="47.01949" lon="8.88857">
        <ele>1257</ele>
        <time>2021-08-03T10:04:23.342Z</time>
      </trkpt>
      <trkpt lat="47.01949" lon="8.88856">
        <ele>1257</ele>
        <time>2021-08-03T10:04:24.342Z</time>
      </trkpt>
      <trkpt lat="47.01949" lon="8.88856">
        <ele>1258</ele>
        <time>2021-08-03T10:04:25.341Z</time>
      </trkpt>
      <trkpt lat="47.01949" lon="8.88855">
        <ele>1258</ele>
        <time>2021-08-03T10:04:26.342Z</time>
      </trkpt>
      <trkpt lat="47.0195" lon="8.88854">
        <ele>1258</ele>
        <time>2021-08-03T10:04:27.342Z</time>
      </trkpt>
      <trkpt lat="47.0195" lon="8.88853">
        <ele>1258</ele>
        <time>2021-08-03T10:04:28.342Z</time>
      </trkpt>
      <trkpt lat="47.01951" lon="8.88852">
        <ele>1258</ele>
        <time>2021-08-03T10:04:29.342Z</time>
      </trkpt>
      <trkpt lat="47.01951" lon="8.8885">
        <ele>1258</ele>
        <time>2021-08-03T10:04:30.341Z</time>
      </trkpt>
      <trkpt lat="47.01952" lon="8.88848">
        <ele>1258</ele>
        <time>2021-08-03T10:04:31.341Z</time>
      </trkpt>
      <trkpt lat="47.01952" lon="8.88847">
        <ele>1258</ele>
        <time>2021-08-03T10:04:32.342Z</time>
      </trkpt>
      <trkpt lat="47.01952" lon="8.88846">
        <ele>1258</ele>
        <time>2021-08-03T10:04:33.341Z</time>
      </trkpt>
      <trkpt lat="47.01952" lon="8.88846">
        <ele>1258</ele>
        <time>2021-08-03T10:04:34.342Z</time>
      </trkpt>
      <trkpt lat="47.01952" lon="8.88845">
        <ele>1258</ele>
        <time>2021-08-03T10:04:35.341Z</time>
      </trkpt>
      <trkpt lat="47.01953" lon="8.88844">
        <ele>1258</ele>
        <time>2021-08-03T10:04:36.341Z</time>
      </trkpt>
      <trkpt lat="47.01953" lon="8.88843">
        <ele>1258</ele>
        <time>2021-08-03T10:04:37.342Z</time>
      </trkpt>
      <trkpt lat="47.01954" lon="8.88842">
        <ele>1258</ele>
        <time>2021-08-03T10:04:38.341Z</time>
      </trkpt>
      <trkpt lat="47.01954" lon="8.88841">
        <ele>1258</ele>
        <time>2021-08-03T10:04:39.341Z</time>
      </trkpt>
      <trkpt lat="47.01953" lon="8.88841">
        <ele>1258</ele>
        <time>2021-08-03T10:04:40.342Z</time>
      </trkpt>
      <trkpt lat="47.01953" lon="8.8884">
        <ele>1258</ele>
        <time>2021-08-03T10:04:41.341Z</time>
      </trkpt>
      <trkpt lat="47.01953" lon="8.88839">
        <ele>1258</ele>
        <time>2021-08-03T10:04:42.341Z</time>
      </trkpt>
      <trkpt lat="47.01954" lon="8.88838">
        <ele>1258</ele>
        <time>2021-08-03T10:04:43.342Z</time>
      </trkpt>
      <trkpt lat="47.01954" lon="8.88837">
        <ele>1257</ele>
        <time>2021-08-03T10:04:44.342Z</time>
      </trkpt>
      <trkpt lat="47.01954" lon="8.88837">
        <ele>1257</ele>
        <time>2021-08-03T10:04:45.342Z</time>
      </trkpt>
      <trkpt lat="47.01955" lon="8.88836">
        <ele>1257</ele>
        <time>2021-08-03T10:04:46.342Z</time>
      </trkpt>
      <trkpt lat="47.01955" lon="8.88835">
        <ele>1257</ele>
        <time>2021-08-03T10:04:47.341Z</time>
      </trkpt>
      <trkpt lat="47.01956" lon="8.88833">
        <ele>1257</ele>
        <time>2021-08-03T10:04:48.342Z</time>
      </trkpt>
      <trkpt lat="47.01956" lon="8.88832">
        <ele>1257</ele>
        <time>2021-08-03T10:04:49.342Z</time>
      </trkpt>
      <trkpt lat="47.01956" lon="8.88832">
        <ele>1257</ele>
        <time>2021-08-03T10:04:50.342Z</time>
      </trkpt>
      <trkpt lat="47.01956" lon="8.88831">
        <ele>1257</ele>
        <time>2021-08-03T10:04:51.342Z</time>
      </trkpt>
      <trkpt lat="47.01956" lon="8.8883">
        <ele>1257</ele>
        <time>2021-08-03T10:04:52.341Z</time>
      </trkpt>
      <trkpt lat="47.01957" lon="8.8883">
        <ele>1258</ele>
        <time>2021-08-03T10:04:53.342Z</time>
      </trkpt>
      <trkpt lat="47.01957" lon="8.88828">
        <ele>1258</ele>
        <time>2021-08-03T10:04:54.342Z</time>
      </trkpt>
      <trkpt lat="47.01958" lon="8.88827">
        <ele>1258</ele>
        <time>2021-08-03T10:04:55.341Z</time>
      </trkpt>
      <trkpt lat="47.01958" lon="8.88826">
        <ele>1259</ele>
        <time>2021-08-03T10:04:56.342Z</time>
      </trkpt>
      <trkpt lat="47.01958" lon="8.88825">
        <ele>1259</ele>
        <time>2021-08-03T10:04:57.342Z</time>
      </trkpt>
      <trkpt lat="47.01959" lon="8.88823">
        <ele>1259</ele>
        <time>2021-08-03T10:04:58.342Z</time>
      </trkpt>
      <trkpt lat="47.01959" lon="8.88823">
        <ele>1259</ele>
        <time>2021-08-03T10:04:59.342Z</time>
      </trkpt>
      <trkpt lat="47.01959" lon="8.88822">
        <ele>1259</ele>
        <time>2021-08-03T10:05:00.341Z</time>
      </trkpt>
      <trkpt lat="47.0196" lon="8.88821">
        <ele>1259</ele>
        <time>2021-08-03T10:05:01.342Z</time>
      </trkpt>
      <trkpt lat="47.0196" lon="8.88821">
        <ele>1259</ele>
        <time>2021-08-03T10:05:02.341Z</time>
      </trkpt>
      <trkpt lat="47.01959" lon="8.8882">
        <ele>1259</ele>
        <time>2021-08-03T10:05:03.343Z</time>
      </trkpt>
      <trkpt lat="47.01958" lon="8.8882">
        <ele>1259</ele>
        <time>2021-08-03T10:05:04.343Z</time>
      </trkpt>
      <trkpt lat="47.01958" lon="8.8882">
        <ele>1259</ele>
        <time>2021-08-03T10:05:05.343Z</time>
      </trkpt>
      <trkpt lat="47.01958" lon="8.8882">
        <ele>1259</ele>
        <time>2021-08-03T10:05:06.343Z</time>
      </trkpt>
      <trkpt lat="47.01958" lon="8.8882">
        <ele>1257</ele>
        <time>2021-08-03T10:05:07.344Z</time>
      </trkpt>
      <trkpt lat="47.01958" lon="8.8882">
        <ele>1258</ele>
        <time>2021-08-03T10:05:08.344Z</time>
      </trkpt>
      <trkpt lat="47.01958" lon="8.8882">
        <ele>1260</ele>
        <time>2021-08-03T10:05:09.343Z</time>
      </trkpt>
      <trkpt lat="47.01957" lon="8.8882">
        <ele>1260</ele>
        <time>2021-08-03T10:05:10.343Z</time>
      </trkpt>
      <trkpt lat="47.01957" lon="8.88823">
        <ele>1256</ele>
        <time>2021-08-03T10:05:11.343Z</time>
      </trkpt>
      <trkpt lat="47.01957" lon="8.88822">
        <ele>1255</ele>
        <time>2021-08-03T10:05:12.344Z</time>
      </trkpt>
      <trkpt lat="47.01957" lon="8.88821">
        <ele>1255</ele>
        <time>2021-08-03T10:05:13.343Z</time>
      </trkpt>
      <trkpt lat="47.01957" lon="8.88821">
        <ele>1255</ele>
        <time>2021-08-03T10:05:14.344Z</time>
      </trkpt>
      <trkpt lat="47.01958" lon="8.8882">
        <ele>1255</ele>
        <time>2021-08-03T10:05:15.343Z</time>
      </trkpt>
      <trkpt lat="47.01959" lon="8.88819">
        <ele>1255</ele>
        <time>2021-08-03T10:05:16.344Z</time>
      </trkpt>
      <trkpt lat="47.01959" lon="8.88817">
        <ele>1255</ele>
        <time>2021-08-03T10:05:17.343Z</time>
      </trkpt>
      <trkpt lat="47.01959" lon="8.88816">
        <ele>1255</ele>
        <time>2021-08-03T10:05:18.343Z</time>
      </trkpt>
      <trkpt lat="47.01959" lon="8.88815">
        <ele>1255</ele>
        <time>2021-08-03T10:05:19.343Z</time>
      </trkpt>
      <trkpt lat="47.01959" lon="8.88815">
        <ele>1255</ele>
        <time>2021-08-03T10:05:20.343Z</time>
      </trkpt>
      <trkpt lat="47.0196" lon="8.88814">
        <ele>1255</ele>
        <time>2021-08-03T10:05:21.343Z</time>
      </trkpt>
      <trkpt lat="47.01961" lon="8.88813">
        <ele>1256</ele>
        <time>2021-08-03T10:05:22.344Z</time>
      </trkpt>
      <trkpt lat="47.01962" lon="8.88812">
        <ele>1256</ele>
        <time>2021-08-03T10:05:23.343Z</time>
      </trkpt>
      <trkpt lat="47.01962" lon="8.88811">
        <ele>1256</ele>
        <time>2021-08-03T10:05:24.343Z</time>
      </trkpt>
      <trkpt lat="47.01963" lon="8.8881">
        <ele>1257</ele>
        <time>2021-08-03T10:05:25.343Z</time>
      </trkpt>
      <trkpt lat="47.01963" lon="8.88809">
        <ele>1258</ele>
        <time>2021-08-03T10:05:26.343Z</time>
      </trkpt>
      <trkpt lat="47.01963" lon="8.88808">
        <ele>1258</ele>
        <time>2021-08-03T10:05:27.344Z</time>
      </trkpt>
      <trkpt lat="47.01963" lon="8.88808">
        <ele>1259</ele>
        <time>2021-08-03T10:05:28.344Z</time>
      </trkpt>
      <trkpt lat="47.01964" lon="8.88807">
        <ele>1261</ele>
        <time>2021-08-03T10:05:29.343Z</time>
      </trkpt>
      <trkpt lat="47.01964" lon="8.88806">
        <ele>1262</ele>
        <time>2021-08-03T10:05:30.343Z</time>
      </trkpt>
      <trkpt lat="47.01964" lon="8.88805">
        <ele>1264</ele>
        <time>2021-08-03T10:05:31.344Z</time>
      </trkpt>
      <trkpt lat="47.01965" lon="8.88804">
        <ele>1265</ele>
        <time>2021-08-03T10:05:32.343Z</time>
      </trkpt>
      <trkpt lat="47.01966" lon="8.88804">
        <ele>1266</ele>
        <time>2021-08-03T10:05:33.344Z</time>
      </trkpt>
      <trkpt lat="47.01966" lon="8.88804">
        <ele>1267</ele>
        <time>2021-08-03T10:05:34.344Z</time>
      </trkpt>
      <trkpt lat="47.01967" lon="8.88803">
        <ele>1268</ele>
        <time>2021-08-03T10:05:35.344Z</time>
      </trkpt>
      <trkpt lat="47.01967" lon="8.88803">
        <ele>1270</ele>
        <time>2021-08-03T10:05:36.344Z</time>
      </trkpt>
      <trkpt lat="47.01968" lon="8.88804">
        <ele>1271</ele>
        <time>2021-08-03T10:05:37.343Z</time>
      </trkpt>
      <trkpt lat="47.01968" lon="8.88803">
        <ele>1272</ele>
        <time>2021-08-03T10:05:38.344Z</time>
      </trkpt>
      <trkpt lat="47.01969" lon="8.88802">
        <ele>1273</ele>
        <time>2021-08-03T10:05:39.344Z</time>
      </trkpt>
      <trkpt lat="47.01969" lon="8.88801">
        <ele>1274</ele>
        <time>2021-08-03T10:05:40.343Z</time>
      </trkpt>
      <trkpt lat="47.01969" lon="8.888">
        <ele>1274</ele>
        <time>2021-08-03T10:05:41.343Z</time>
      </trkpt>
      <trkpt lat="47.01969" lon="8.88799">
        <ele>1274</ele>
        <time>2021-08-03T10:05:42.344Z</time>
      </trkpt>
      <trkpt lat="47.0197" lon="8.88799">
        <ele>1274</ele>
        <time>2021-08-03T10:05:43.344Z</time>
      </trkpt>
      <trkpt lat="47.01971" lon="8.88799">
        <ele>1273</ele>
        <time>2021-08-03T10:05:44.344Z</time>
      </trkpt>
      <trkpt lat="47.01972" lon="8.88799">
        <ele>1273</ele>
        <time>2021-08-03T10:05:45.344Z</time>
      </trkpt>
      <trkpt lat="47.01972" lon="8.88798">
        <ele>1273</ele>
        <time>2021-08-03T10:05:46.344Z</time>
      </trkpt>
      <trkpt lat="47.01973" lon="8.88797">
        <ele>1272</ele>
        <time>2021-08-03T10:05:47.345Z</time>
      </trkpt>
      <trkpt lat="47.01973" lon="8.88797">
        <ele>1272</ele>
        <time>2021-08-03T10:05:48.345Z</time>
      </trkpt>
      <trkpt lat="47.01974" lon="8.88797">
        <ele>1271</ele>
        <time>2021-08-03T10:05:49.345Z</time>
      </trkpt>
      <trkpt lat="47.01974" lon="8.88796">
        <ele>1271</ele>
        <time>2021-08-03T10:05:50.344Z</time>
      </trkpt>
      <trkpt lat="47.01975" lon="8.88796">
        <ele>1270</ele>
        <time>2021-08-03T10:05:51.345Z</time>
      </trkpt>
      <trkpt lat="47.01975" lon="8.88795">
        <ele>1270</ele>
        <time>2021-08-03T10:05:52.344Z</time>
      </trkpt>
      <trkpt lat="47.01976" lon="8.88794">
        <ele>1270</ele>
        <time>2021-08-03T10:05:53.345Z</time>
      </trkpt>
      <trkpt lat="47.01977" lon="8.88793">
        <ele>1270</ele>
        <time>2021-08-03T10:05:54.344Z</time>
      </trkpt>
      <trkpt lat="47.01977" lon="8.88792">
        <ele>1270</ele>
        <time>2021-08-03T10:05:55.345Z</time>
      </trkpt>
      <trkpt lat="47.01977" lon="8.88791">
        <ele>1270</ele>
        <time>2021-08-03T10:05:56.344Z</time>
      </trkpt>
      <trkpt lat="47.01978" lon="8.8879">
        <ele>1270</ele>
        <time>2021-08-03T10:05:57.345Z</time>
      </trkpt>
      <trkpt lat="47.01978" lon="8.88789">
        <ele>1270</ele>
        <time>2021-08-03T10:05:58.344Z</time>
      </trkpt>
      <trkpt lat="47.01979" lon="8.88788">
        <ele>1270</ele>
        <time>2021-08-03T10:05:59.344Z</time>
      </trkpt>
      <trkpt lat="47.01979" lon="8.88786">
        <ele>1270</ele>
        <time>2021-08-03T10:06:00.344Z</time>
      </trkpt>
      <trkpt lat="47.0198" lon="8.88785">
        <ele>1271</ele>
        <time>2021-08-03T10:06:01.345Z</time>
      </trkpt>
      <trkpt lat="47.01981" lon="8.88783">
        <ele>1271</ele>
        <time>2021-08-03T10:06:02.344Z</time>
      </trkpt>
      <trkpt lat="47.01982" lon="8.88781">
        <ele>1271</ele>
        <time>2021-08-03T10:06:03.345Z</time>
      </trkpt>
      <trkpt lat="47.01983" lon="8.8878">
        <ele>1272</ele>
        <time>2021-08-03T10:06:04.345Z</time>
      </trkpt>
      <trkpt lat="47.01984" lon="8.8878">
        <ele>1272</ele>
        <time>2021-08-03T10:06:05.345Z</time>
      </trkpt>
      <trkpt lat="47.01985" lon="8.8878">
        <ele>1272</ele>
        <time>2021-08-03T10:06:06.344Z</time>
      </trkpt>
      <trkpt lat="47.01986" lon="8.88779">
        <ele>1273</ele>
        <time>2021-08-03T10:06:07.345Z</time>
      </trkpt>
      <trkpt lat="47.01987" lon="8.88778">
        <ele>1273</ele>
        <time>2021-08-03T10:06:08.345Z</time>
      </trkpt>
      <trkpt lat="47.01988" lon="8.88778">
        <ele>1274</ele>
        <time>2021-08-03T10:06:09.344Z</time>
      </trkpt>
      <trkpt lat="47.01989" lon="8.88777">
        <ele>1275</ele>
        <time>2021-08-03T10:06:10.345Z</time>
      </trkpt>
      <trkpt lat="47.01989" lon="8.88777">
        <ele>1275</ele>
        <time>2021-08-03T10:06:11.344Z</time>
      </trkpt>
      <trkpt lat="47.01989" lon="8.88776">
        <ele>1276</ele>
        <time>2021-08-03T10:06:12.344Z</time>
      </trkpt>
      <trkpt lat="47.01989" lon="8.88775">
        <ele>1276</ele>
        <time>2021-08-03T10:06:13.344Z</time>
      </trkpt>
      <trkpt lat="47.0199" lon="8.88774">
        <ele>1276</ele>
        <time>2021-08-03T10:06:14.344Z</time>
      </trkpt>
      <trkpt lat="47.01991" lon="8.88773">
        <ele>1276</ele>
        <time>2021-08-03T10:06:15.345Z</time>
      </trkpt>
      <trkpt lat="47.01991" lon="8.88772">
        <ele>1276</ele>
        <time>2021-08-03T10:06:16.345Z</time>
      </trkpt>
      <trkpt lat="47.01992" lon="8.88771">
        <ele>1276</ele>
        <time>2021-08-03T10:06:17.345Z</time>
      </trkpt>
      <trkpt lat="47.01993" lon="8.88771">
        <ele>1277</ele>
        <time>2021-08-03T10:06:18.344Z</time>
      </trkpt>
      <trkpt lat="47.01994" lon="8.88771">
        <ele>1277</ele>
        <time>2021-08-03T10:06:19.344Z</time>
      </trkpt>
      <trkpt lat="47.01994" lon="8.8877">
        <ele>1278</ele>
        <time>2021-08-03T10:06:20.344Z</time>
      </trkpt>
      <trkpt lat="47.01994" lon="8.88769">
        <ele>1278</ele>
        <time>2021-08-03T10:06:21.344Z</time>
      </trkpt>
      <trkpt lat="47.01994" lon="8.88767">
        <ele>1278</ele>
        <time>2021-08-03T10:06:22.344Z</time>
      </trkpt>
      <trkpt lat="47.01994" lon="8.88765">
        <ele>1278</ele>
        <time>2021-08-03T10:06:23.344Z</time>
      </trkpt>
      <trkpt lat="47.01993" lon="8.88764">
        <ele>1278</ele>
        <time>2021-08-03T10:06:24.344Z</time>
      </trkpt>
      <trkpt lat="47.01994" lon="8.88763">
        <ele>1278</ele>
        <time>2021-08-03T10:06:25.345Z</time>
      </trkpt>
      <trkpt lat="47.01994" lon="8.88762">
        <ele>1278</ele>
        <time>2021-08-03T10:06:26.344Z</time>
      </trkpt>
      <trkpt lat="47.01993" lon="8.88761">
        <ele>1278</ele>
        <time>2021-08-03T10:06:27.344Z</time>
      </trkpt>
      <trkpt lat="47.01993" lon="8.8876">
        <ele>1277</ele>
        <time>2021-08-03T10:06:28.344Z</time>
      </trkpt>
      <trkpt lat="47.01993" lon="8.88759">
        <ele>1277</ele>
        <time>2021-08-03T10:06:29.344Z</time>
      </trkpt>
      <trkpt lat="47.01992" lon="8.88759">
        <ele>1277</ele>
        <time>2021-08-03T10:06:30.344Z</time>
      </trkpt>
      <trkpt lat="47.01993" lon="8.88758">
        <ele>1277</ele>
        <time>2021-08-03T10:06:31.344Z</time>
      </trkpt>
      <trkpt lat="47.01994" lon="8.88757">
        <ele>1276</ele>
        <time>2021-08-03T10:06:32.344Z</time>
      </trkpt>
      <trkpt lat="47.01994" lon="8.88756">
        <ele>1276</ele>
        <time>2021-08-03T10:06:33.344Z</time>
      </trkpt>
      <trkpt lat="47.01994" lon="8.88755">
        <ele>1276</ele>
        <time>2021-08-03T10:06:34.345Z</time>
      </trkpt>
      <trkpt lat="47.01994" lon="8.88754">
        <ele>1276</ele>
        <time>2021-08-03T10:06:35.344Z</time>
      </trkpt>
      <trkpt lat="47.01994" lon="8.88753">
        <ele>1276</ele>
        <time>2021-08-03T10:06:36.344Z</time>
      </trkpt>
      <trkpt lat="47.01994" lon="8.88753">
        <ele>1276</ele>
        <time>2021-08-03T10:06:37.344Z</time>
      </trkpt>
      <trkpt lat="47.01994" lon="8.88752">
        <ele>1277</ele>
        <time>2021-08-03T10:06:38.345Z</time>
      </trkpt>
      <trkpt lat="47.01994" lon="8.88751">
        <ele>1277</ele>
        <time>2021-08-03T10:06:39.344Z</time>
      </trkpt>
      <trkpt lat="47.01994" lon="8.8875">
        <ele>1277</ele>
        <time>2021-08-03T10:06:40.345Z</time>
      </trkpt>
      <trkpt lat="47.01994" lon="8.88749">
        <ele>1277</ele>
        <time>2021-08-03T10:06:41.344Z</time>
      </trkpt>
      <trkpt lat="47.01994" lon="8.88747">
        <ele>1277</ele>
        <time>2021-08-03T10:06:42.345Z</time>
      </trkpt>
      <trkpt lat="47.01994" lon="8.88747">
        <ele>1277</ele>
        <time>2021-08-03T10:06:43.344Z</time>
      </trkpt>
      <trkpt lat="47.01994" lon="8.88746">
        <ele>1277</ele>
        <time>2021-08-03T10:06:44.345Z</time>
      </trkpt>
      <trkpt lat="47.01993" lon="8.88745">
        <ele>1277</ele>
        <time>2021-08-03T10:06:45.345Z</time>
      </trkpt>
      <trkpt lat="47.01992" lon="8.88743">
        <ele>1278</ele>
        <time>2021-08-03T10:06:46.344Z</time>
      </trkpt>
      <trkpt lat="47.01992" lon="8.88742">
        <ele>1278</ele>
        <time>2021-08-03T10:06:47.344Z</time>
      </trkpt>
      <trkpt lat="47.01992" lon="8.88741">
        <ele>1278</ele>
        <time>2021-08-03T10:06:48.345Z</time>
      </trkpt>
      <trkpt lat="47.01992" lon="8.88741">
        <ele>1278</ele>
        <time>2021-08-03T10:06:49.345Z</time>
      </trkpt>
      <trkpt lat="47.01992" lon="8.8874">
        <ele>1277</ele>
        <time>2021-08-03T10:06:50.344Z</time>
      </trkpt>
      <trkpt lat="47.01992" lon="8.88739">
        <ele>1277</ele>
        <time>2021-08-03T10:06:51.344Z</time>
      </trkpt>
      <trkpt lat="47.01992" lon="8.88739">
        <ele>1277</ele>
        <time>2021-08-03T10:06:52.345Z</time>
      </trkpt>
      <trkpt lat="47.01991" lon="8.88738">
        <ele>1277</ele>
        <time>2021-08-03T10:06:53.344Z</time>
      </trkpt>
      <trkpt lat="47.01991" lon="8.88738">
        <ele>1276</ele>
        <time>2021-08-03T10:06:54.344Z</time>
      </trkpt>
      <trkpt lat="47.01991" lon="8.88737">
        <ele>1277</ele>
        <time>2021-08-03T10:06:55.345Z</time>
      </trkpt>
      <trkpt lat="47.0199" lon="8.88737">
        <ele>1277</ele>
        <time>2021-08-03T10:06:56.344Z</time>
      </trkpt>
      <trkpt lat="47.0199" lon="8.88736">
        <ele>1277</ele>
        <time>2021-08-03T10:06:57.345Z</time>
      </trkpt>
      <trkpt lat="47.01991" lon="8.88735">
        <ele>1277</ele>
        <time>2021-08-03T10:06:58.344Z</time>
      </trkpt>
      <trkpt lat="47.01991" lon="8.88734">
        <ele>1277</ele>
        <time>2021-08-03T10:06:59.344Z</time>
      </trkpt>
      <trkpt lat="47.01991" lon="8.88733">
        <ele>1277</ele>
        <time>2021-08-03T10:07:00.344Z</time>
      </trkpt>
      <trkpt lat="47.01991" lon="8.88732">
        <ele>1277</ele>
        <time>2021-08-03T10:07:01.345Z</time>
      </trkpt>
      <trkpt lat="47.01991" lon="8.88732">
        <ele>1276</ele>
        <time>2021-08-03T10:07:02.345Z</time>
      </trkpt>
      <trkpt lat="47.01991" lon="8.88732">
        <ele>1276</ele>
        <time>2021-08-03T10:07:03.344Z</time>
      </trkpt>
      <trkpt lat="47.01992" lon="8.88732">
        <ele>1275</ele>
        <time>2021-08-03T10:07:04.344Z</time>
      </trkpt>
      <trkpt lat="47.01992" lon="8.88731">
        <ele>1275</ele>
        <time>2021-08-03T10:07:05.345Z</time>
      </trkpt>
      <trkpt lat="47.01993" lon="8.88731">
        <ele>1275</ele>
        <time>2021-08-03T10:07:06.344Z</time>
      </trkpt>
      <trkpt lat="47.01993" lon="8.8873">
        <ele>1275</ele>
        <time>2021-08-03T10:07:07.345Z</time>
      </trkpt>
      <trkpt lat="47.01993" lon="8.8873">
        <ele>1276</ele>
        <time>2021-08-03T10:07:08.345Z</time>
      </trkpt>
      <trkpt lat="47.01993" lon="8.88729">
        <ele>1276</ele>
        <time>2021-08-03T10:07:09.345Z</time>
      </trkpt>
      <trkpt lat="47.01994" lon="8.88728">
        <ele>1276</ele>
        <time>2021-08-03T10:07:10.344Z</time>
      </trkpt>
      <trkpt lat="47.01994" lon="8.88727">
        <ele>1276</ele>
        <time>2021-08-03T10:07:11.344Z</time>
      </trkpt>
      <trkpt lat="47.01994" lon="8.88726">
        <ele>1276</ele>
        <time>2021-08-03T10:07:12.344Z</time>
      </trkpt>
      <trkpt lat="47.01994" lon="8.88725">
        <ele>1276</ele>
        <time>2021-08-03T10:07:13.345Z</time>
      </trkpt>
      <trkpt lat="47.01994" lon="8.88724">
        <ele>1276</ele>
        <time>2021-08-03T10:07:14.345Z</time>
      </trkpt>
      <trkpt lat="47.01995" lon="8.88722">
        <ele>1276</ele>
        <time>2021-08-03T10:07:15.344Z</time>
      </trkpt>
      <trkpt lat="47.01994" lon="8.88721">
        <ele>1276</ele>
        <time>2021-08-03T10:07:16.345Z</time>
      </trkpt>
      <trkpt lat="47.01995" lon="8.88721">
        <ele>1276</ele>
        <time>2021-08-03T10:07:17.345Z</time>
      </trkpt>
      <trkpt lat="47.01995" lon="8.88719">
        <ele>1276</ele>
        <time>2021-08-03T10:07:18.344Z</time>
      </trkpt>
      <trkpt lat="47.01996" lon="8.88718">
        <ele>1276</ele>
        <time>2021-08-03T10:07:19.344Z</time>
      </trkpt>
      <trkpt lat="47.01996" lon="8.88716">
        <ele>1276</ele>
        <time>2021-08-03T10:07:20.345Z</time>
      </trkpt>
      <trkpt lat="47.01996" lon="8.88714">
        <ele>1277</ele>
        <time>2021-08-03T10:07:21.344Z</time>
      </trkpt>
      <trkpt lat="47.01996" lon="8.88712">
        <ele>1277</ele>
        <time>2021-08-03T10:07:22.345Z</time>
      </trkpt>
      <trkpt lat="47.01996" lon="8.8871">
        <ele>1277</ele>
        <time>2021-08-03T10:07:23.344Z</time>
      </trkpt>
      <trkpt lat="47.01997" lon="8.8871">
        <ele>1277</ele>
        <time>2021-08-03T10:07:24.344Z</time>
      </trkpt>
      <trkpt lat="47.01996" lon="8.88709">
        <ele>1277</ele>
        <time>2021-08-03T10:07:25.344Z</time>
      </trkpt>
      <trkpt lat="47.01999" lon="8.88705">
        <ele>1298</ele>
        <time>2021-08-03T10:07:26.347Z</time>
      </trkpt>
      <trkpt lat="47.01999" lon="8.88705">
        <ele>1299</ele>
        <time>2021-08-03T10:07:27.346Z</time>
      </trkpt>
      <trkpt lat="47.01999" lon="8.88705">
        <ele>1299</ele>
        <time>2021-08-03T10:07:28.347Z</time>
      </trkpt>
      <trkpt lat="47.01999" lon="8.88705">
        <ele>1300</ele>
        <time>2021-08-03T10:07:29.346Z</time>
      </trkpt>
      <trkpt lat="47.01999" lon="8.88705">
        <ele>1300</ele>
        <time>2021-08-03T10:07:30.347Z</time>
      </trkpt>
      <trkpt lat="47.01999" lon="8.88705">
        <ele>1301</ele>
        <time>2021-08-03T10:07:31.347Z</time>
      </trkpt>
      <trkpt lat="47.01999" lon="8.88705">
        <ele>1301</ele>
        <time>2021-08-03T10:07:32.347Z</time>
      </trkpt>
      <trkpt lat="47.01998" lon="8.88705">
        <ele>1302</ele>
        <time>2021-08-03T10:07:33.346Z</time>
      </trkpt>
      <trkpt lat="47.01995" lon="8.88706">
        <ele>1295</ele>
        <time>2021-08-03T10:07:34.348Z</time>
      </trkpt>
      <trkpt lat="47.01995" lon="8.88706">
        <ele>1294</ele>
        <time>2021-08-03T10:07:35.347Z</time>
      </trkpt>
      <trkpt lat="47.01995" lon="8.88706">
        <ele>1293</ele>
        <time>2021-08-03T10:07:36.348Z</time>
      </trkpt>
      <trkpt lat="47.01996" lon="8.88705">
        <ele>1290</ele>
        <time>2021-08-03T10:07:37.349Z</time>
      </trkpt>
      <trkpt lat="47.01992" lon="8.88702">
        <ele>1294</ele>
        <time>2021-08-03T10:07:38.349Z</time>
      </trkpt>
      <trkpt lat="47.01991" lon="8.88701">
        <ele>1294</ele>
        <time>2021-08-03T10:07:39.349Z</time>
      </trkpt>
      <trkpt lat="47.01991" lon="8.88701">
        <ele>1295</ele>
        <time>2021-08-03T10:07:40.348Z</time>
      </trkpt>
      <trkpt lat="47.01992" lon="8.88701">
        <ele>1295</ele>
        <time>2021-08-03T10:07:41.348Z</time>
      </trkpt>
      <trkpt lat="47.01992" lon="8.887">
        <ele>1295</ele>
        <time>2021-08-03T10:07:42.349Z</time>
      </trkpt>
      <trkpt lat="47.01992" lon="8.887">
        <ele>1295</ele>
        <time>2021-08-03T10:07:43.349Z</time>
      </trkpt>
      <trkpt lat="47.01992" lon="8.88699">
        <ele>1294</ele>
        <time>2021-08-03T10:07:44.348Z</time>
      </trkpt>
      <trkpt lat="47.01992" lon="8.88699">
        <ele>1294</ele>
        <time>2021-08-03T10:07:45.349Z</time>
      </trkpt>
      <trkpt lat="47.01992" lon="8.88699">
        <ele>1294</ele>
        <time>2021-08-03T10:07:46.349Z</time>
      </trkpt>
      <trkpt lat="47.01992" lon="8.88698">
        <ele>1294</ele>
        <time>2021-08-03T10:07:47.349Z</time>
      </trkpt>
      <trkpt lat="47.01992" lon="8.88698">
        <ele>1295</ele>
        <time>2021-08-03T10:07:48.348Z</time>
      </trkpt>
      <trkpt lat="47.01993" lon="8.88698">
        <ele>1295</ele>
        <time>2021-08-03T10:07:49.348Z</time>
      </trkpt>
      <trkpt lat="47.01993" lon="8.88697">
        <ele>1295</ele>
        <time>2021-08-03T10:07:50.348Z</time>
      </trkpt>
      <trkpt lat="47.01994" lon="8.88696">
        <ele>1296</ele>
        <time>2021-08-03T10:07:51.349Z</time>
      </trkpt>
      <trkpt lat="47.01995" lon="8.88696">
        <ele>1296</ele>
        <time>2021-08-03T10:07:52.348Z</time>
      </trkpt>
      <trkpt lat="47.01995" lon="8.88696">
        <ele>1296</ele>
        <time>2021-08-03T10:07:53.349Z</time>
      </trkpt>
      <trkpt lat="47.01995" lon="8.88696">
        <ele>1296</ele>
        <time>2021-08-03T10:07:54.349Z</time>
      </trkpt>
      <trkpt lat="47.01996" lon="8.88697">
        <ele>1296</ele>
        <time>2021-08-03T10:07:55.349Z</time>
      </trkpt>
      <trkpt lat="47.01996" lon="8.88698">
        <ele>1297</ele>
        <time>2021-08-03T10:07:56.349Z</time>
      </trkpt>
      <trkpt lat="47.01997" lon="8.88699">
        <ele>1297</ele>
        <time>2021-08-03T10:07:57.349Z</time>
      </trkpt>
      <trkpt lat="47.01998" lon="8.88698">
        <ele>1297</ele>
        <time>2021-08-03T10:07:58.349Z</time>
      </trkpt>
      <trkpt lat="47.02" lon="8.88697">
        <ele>1298</ele>
        <time>2021-08-03T10:07:59.348Z</time>
      </trkpt>
      <trkpt lat="47.02" lon="8.88695">
        <ele>1298</ele>
        <time>2021-08-03T10:08:00.348Z</time>
      </trkpt>
      <trkpt lat="47.02001" lon="8.88694">
        <ele>1298</ele>
        <time>2021-08-03T10:08:01.348Z</time>
      </trkpt>
      <trkpt lat="47.02001" lon="8.88692">
        <ele>1298</ele>
        <time>2021-08-03T10:08:02.349Z</time>
      </trkpt>
      <trkpt lat="47.02002" lon="8.8869">
        <ele>1298</ele>
        <time>2021-08-03T10:08:03.349Z</time>
      </trkpt>
      <trkpt lat="47.02003" lon="8.88689">
        <ele>1297</ele>
        <time>2021-08-03T10:08:04.349Z</time>
      </trkpt>
      <trkpt lat="47.02003" lon="8.88688">
        <ele>1297</ele>
        <time>2021-08-03T10:08:05.348Z</time>
      </trkpt>
      <trkpt lat="47.02004" lon="8.88687">
        <ele>1297</ele>
        <time>2021-08-03T10:08:06.349Z</time>
      </trkpt>
      <trkpt lat="47.02004" lon="8.88686">
        <ele>1297</ele>
        <time>2021-08-03T10:08:07.348Z</time>
      </trkpt>
      <trkpt lat="47.02005" lon="8.88686">
        <ele>1297</ele>
        <time>2021-08-03T10:08:08.349Z</time>
      </trkpt>
      <trkpt lat="47.02005" lon="8.88685">
        <ele>1297</ele>
        <time>2021-08-03T10:08:09.348Z</time>
      </trkpt>
      <trkpt lat="47.02005" lon="8.88684">
        <ele>1297</ele>
        <time>2021-08-03T10:08:10.349Z</time>
      </trkpt>
      <trkpt lat="47.02006" lon="8.88683">
        <ele>1297</ele>
        <time>2021-08-03T10:08:11.349Z</time>
      </trkpt>
      <trkpt lat="47.02006" lon="8.88682">
        <ele>1296</ele>
        <time>2021-08-03T10:08:12.348Z</time>
      </trkpt>
      <trkpt lat="47.02006" lon="8.88681">
        <ele>1296</ele>
        <time>2021-08-03T10:08:13.349Z</time>
      </trkpt>
      <trkpt lat="47.02006" lon="8.8868">
        <ele>1295</ele>
        <time>2021-08-03T10:08:14.349Z</time>
      </trkpt>
      <trkpt lat="47.02007" lon="8.88679">
        <ele>1294</ele>
        <time>2021-08-03T10:08:15.349Z</time>
      </trkpt>
      <trkpt lat="47.02008" lon="8.88678">
        <ele>1294</ele>
        <time>2021-08-03T10:08:16.348Z</time>
      </trkpt>
      <trkpt lat="47.02008" lon="8.88677">
        <ele>1293</ele>
        <time>2021-08-03T10:08:17.349Z</time>
      </trkpt>
      <trkpt lat="47.0201" lon="8.88676">
        <ele>1292</ele>
        <time>2021-08-03T10:08:18.349Z</time>
      </trkpt>
      <trkpt lat="47.02011" lon="8.88675">
        <ele>1292</ele>
        <time>2021-08-03T10:08:19.349Z</time>
      </trkpt>
      <trkpt lat="47.02013" lon="8.88674">
        <ele>1292</ele>
        <time>2021-08-03T10:08:20.349Z</time>
      </trkpt>
      <trkpt lat="47.02014" lon="8.88673">
        <ele>1292</ele>
        <time>2021-08-03T10:08:21.349Z</time>
      </trkpt>
      <trkpt lat="47.02016" lon="8.88673">
        <ele>1292</ele>
        <time>2021-08-03T10:08:22.348Z</time>
      </trkpt>
      <trkpt lat="47.02016" lon="8.88673">
        <ele>1292</ele>
        <time>2021-08-03T10:08:23.349Z</time>
      </trkpt>
      <trkpt lat="47.02017" lon="8.88673">
        <ele>1292</ele>
        <time>2021-08-03T10:08:24.349Z</time>
      </trkpt>
      <trkpt lat="47.02019" lon="8.88673">
        <ele>1292</ele>
        <time>2021-08-03T10:08:25.349Z</time>
      </trkpt>
      <trkpt lat="47.02019" lon="8.88673">
        <ele>1292</ele>
        <time>2021-08-03T10:08:26.349Z</time>
      </trkpt>
      <trkpt lat="47.0202" lon="8.88671">
        <ele>1293</ele>
        <time>2021-08-03T10:08:27.348Z</time>
      </trkpt>
      <trkpt lat="47.02021" lon="8.8867">
        <ele>1293</ele>
        <time>2021-08-03T10:08:28.348Z</time>
      </trkpt>
      <trkpt lat="47.02022" lon="8.88668">
        <ele>1293</ele>
        <time>2021-08-03T10:08:29.348Z</time>
      </trkpt>
      <trkpt lat="47.02022" lon="8.88667">
        <ele>1293</ele>
        <time>2021-08-03T10:08:30.348Z</time>
      </trkpt>
      <trkpt lat="47.02022" lon="8.88666">
        <ele>1292</ele>
        <time>2021-08-03T10:08:31.349Z</time>
      </trkpt>
      <trkpt lat="47.02023" lon="8.88664">
        <ele>1292</ele>
        <time>2021-08-03T10:08:32.349Z</time>
      </trkpt>
      <trkpt lat="47.02024" lon="8.88663">
        <ele>1292</ele>
        <time>2021-08-03T10:08:33.348Z</time>
      </trkpt>
      <trkpt lat="47.02025" lon="8.88662">
        <ele>1291</ele>
        <time>2021-08-03T10:08:34.349Z</time>
      </trkpt>
      <trkpt lat="47.02026" lon="8.88661">
        <ele>1291</ele>
        <time>2021-08-03T10:08:35.349Z</time>
      </trkpt>
      <trkpt lat="47.02027" lon="8.88659">
        <ele>1291</ele>
        <time>2021-08-03T10:08:36.349Z</time>
      </trkpt>
      <trkpt lat="47.02027" lon="8.88658">
        <ele>1290</ele>
        <time>2021-08-03T10:08:37.349Z</time>
      </trkpt>
      <trkpt lat="47.02028" lon="8.88657">
        <ele>1290</ele>
        <time>2021-08-03T10:08:38.349Z</time>
      </trkpt>
      <trkpt lat="47.02028" lon="8.88656">
        <ele>1289</ele>
        <time>2021-08-03T10:08:39.349Z</time>
      </trkpt>
      <trkpt lat="47.02029" lon="8.88655">
        <ele>1289</ele>
        <time>2021-08-03T10:08:40.348Z</time>
      </trkpt>
      <trkpt lat="47.02029" lon="8.88654">
        <ele>1289</ele>
        <time>2021-08-03T10:08:41.349Z</time>
      </trkpt>
      <trkpt lat="47.02031" lon="8.88652">
        <ele>1289</ele>
        <time>2021-08-03T10:08:42.349Z</time>
      </trkpt>
      <trkpt lat="47.02032" lon="8.8865">
        <ele>1289</ele>
        <time>2021-08-03T10:08:43.349Z</time>
      </trkpt>
      <trkpt lat="47.02032" lon="8.8865">
        <ele>1289</ele>
        <time>2021-08-03T10:08:44.348Z</time>
      </trkpt>
      <trkpt lat="47.02033" lon="8.88649">
        <ele>1289</ele>
        <time>2021-08-03T10:08:45.349Z</time>
      </trkpt>
      <trkpt lat="47.02034" lon="8.88649">
        <ele>1290</ele>
        <time>2021-08-03T10:08:46.349Z</time>
      </trkpt>
      <trkpt lat="47.02034" lon="8.88649">
        <ele>1290</ele>
        <time>2021-08-03T10:08:47.349Z</time>
      </trkpt>
      <trkpt lat="47.02034" lon="8.88648">
        <ele>1290</ele>
        <time>2021-08-03T10:08:48.348Z</time>
      </trkpt>
      <trkpt lat="47.02035" lon="8.88647">
        <ele>1290</ele>
        <time>2021-08-03T10:08:49.348Z</time>
      </trkpt>
      <trkpt lat="47.02036" lon="8.88645">
        <ele>1290</ele>
        <time>2021-08-03T10:08:50.348Z</time>
      </trkpt>
      <trkpt lat="47.02037" lon="8.88645">
        <ele>1290</ele>
        <time>2021-08-03T10:08:51.348Z</time>
      </trkpt>
      <trkpt lat="47.02037" lon="8.88645">
        <ele>1290</ele>
        <time>2021-08-03T10:08:52.348Z</time>
      </trkpt>
      <trkpt lat="47.02037" lon="8.88646">
        <ele>1291</ele>
        <time>2021-08-03T10:08:53.349Z</time>
      </trkpt>
      <trkpt lat="47.02038" lon="8.88647">
        <ele>1291</ele>
        <time>2021-08-03T10:08:54.348Z</time>
      </trkpt>
      <trkpt lat="47.02038" lon="8.88647">
        <ele>1291</ele>
        <time>2021-08-03T10:08:55.349Z</time>
      </trkpt>
      <trkpt lat="47.02039" lon="8.88646">
        <ele>1291</ele>
        <time>2021-08-03T10:08:56.349Z</time>
      </trkpt>
      <trkpt lat="47.0204" lon="8.88645">
        <ele>1291</ele>
        <time>2021-08-03T10:08:57.349Z</time>
      </trkpt>
      <trkpt lat="47.02041" lon="8.88645">
        <ele>1292</ele>
        <time>2021-08-03T10:08:58.349Z</time>
      </trkpt>
      <trkpt lat="47.02042" lon="8.88644">
        <ele>1292</ele>
        <time>2021-08-03T10:08:59.349Z</time>
      </trkpt>
      <trkpt lat="47.02042" lon="8.88643">
        <ele>1292</ele>
        <time>2021-08-03T10:09:00.349Z</time>
      </trkpt>
      <trkpt lat="47.02043" lon="8.88641">
        <ele>1291</ele>
        <time>2021-08-03T10:09:01.349Z</time>
      </trkpt>
      <trkpt lat="47.02043" lon="8.88641">
        <ele>1291</ele>
        <time>2021-08-03T10:09:02.348Z</time>
      </trkpt>
      <trkpt lat="47.02044" lon="8.8864">
        <ele>1292</ele>
        <time>2021-08-03T10:09:03.349Z</time>
      </trkpt>
      <trkpt lat="47.02045" lon="8.88639">
        <ele>1292</ele>
        <time>2021-08-03T10:09:04.349Z</time>
      </trkpt>
      <trkpt lat="47.02045" lon="8.88638">
        <ele>1292</ele>
        <time>2021-08-03T10:09:05.348Z</time>
      </trkpt>
      <trkpt lat="47.02046" lon="8.88637">
        <ele>1292</ele>
        <time>2021-08-03T10:09:06.349Z</time>
      </trkpt>
      <trkpt lat="47.02046" lon="8.88636">
        <ele>1293</ele>
        <time>2021-08-03T10:09:07.349Z</time>
      </trkpt>
      <trkpt lat="47.02047" lon="8.88634">
        <ele>1293</ele>
        <time>2021-08-03T10:09:08.349Z</time>
      </trkpt>
      <trkpt lat="47.02047" lon="8.88633">
        <ele>1293</ele>
        <time>2021-08-03T10:09:09.349Z</time>
      </trkpt>
      <trkpt lat="47.02047" lon="8.88632">
        <ele>1294</ele>
        <time>2021-08-03T10:09:10.349Z</time>
      </trkpt>
      <trkpt lat="47.02048" lon="8.88632">
        <ele>1294</ele>
        <time>2021-08-03T10:09:11.349Z</time>
      </trkpt>
      <trkpt lat="47.02048" lon="8.8863">
        <ele>1294</ele>
        <time>2021-08-03T10:09:12.349Z</time>
      </trkpt>
      <trkpt lat="47.02048" lon="8.88628">
        <ele>1293</ele>
        <time>2021-08-03T10:09:13.348Z</time>
      </trkpt>
      <trkpt lat="47.02048" lon="8.88626">
        <ele>1292</ele>
        <time>2021-08-03T10:09:14.348Z</time>
      </trkpt>
      <trkpt lat="47.02048" lon="8.88625">
        <ele>1291</ele>
        <time>2021-08-03T10:09:15.348Z</time>
      </trkpt>
      <trkpt lat="47.02048" lon="8.88625">
        <ele>1291</ele>
        <time>2021-08-03T10:09:16.348Z</time>
      </trkpt>
      <trkpt lat="47.02047" lon="8.88624">
        <ele>1290</ele>
        <time>2021-08-03T10:09:17.348Z</time>
      </trkpt>
      <trkpt lat="47.02048" lon="8.88623">
        <ele>1289</ele>
        <time>2021-08-03T10:09:18.348Z</time>
      </trkpt>
      <trkpt lat="47.02048" lon="8.88622">
        <ele>1289</ele>
        <time>2021-08-03T10:09:19.348Z</time>
      </trkpt>
      <trkpt lat="47.02049" lon="8.88621">
        <ele>1290</ele>
        <time>2021-08-03T10:09:20.348Z</time>
      </trkpt>
      <trkpt lat="47.02049" lon="8.88621">
        <ele>1290</ele>
        <time>2021-08-03T10:09:21.348Z</time>
      </trkpt>
      <trkpt lat="47.0205" lon="8.8862">
        <ele>1291</ele>
        <time>2021-08-03T10:09:22.349Z</time>
      </trkpt>
      <trkpt lat="47.0205" lon="8.88619">
        <ele>1291</ele>
        <time>2021-08-03T10:09:23.348Z</time>
      </trkpt>
      <trkpt lat="47.0205" lon="8.88619">
        <ele>1291</ele>
        <time>2021-08-03T10:09:24.348Z</time>
      </trkpt>
      <trkpt lat="47.0205" lon="8.88618">
        <ele>1291</ele>
        <time>2021-08-03T10:09:25.349Z</time>
      </trkpt>
      <trkpt lat="47.02051" lon="8.88617">
        <ele>1290</ele>
        <time>2021-08-03T10:09:26.348Z</time>
      </trkpt>
      <trkpt lat="47.02051" lon="8.88616">
        <ele>1290</ele>
        <time>2021-08-03T10:09:27.349Z</time>
      </trkpt>
      <trkpt lat="47.02051" lon="8.88616">
        <ele>1290</ele>
        <time>2021-08-03T10:09:28.349Z</time>
      </trkpt>
      <trkpt lat="47.02051" lon="8.88614">
        <ele>1290</ele>
        <time>2021-08-03T10:09:29.349Z</time>
      </trkpt>
      <trkpt lat="47.02051" lon="8.88613">
        <ele>1289</ele>
        <time>2021-08-03T10:09:30.348Z</time>
      </trkpt>
      <trkpt lat="47.0205" lon="8.88612">
        <ele>1289</ele>
        <time>2021-08-03T10:09:31.348Z</time>
      </trkpt>
      <trkpt lat="47.0205" lon="8.88611">
        <ele>1289</ele>
        <time>2021-08-03T10:09:32.349Z</time>
      </trkpt>
      <trkpt lat="47.0205" lon="8.88608">
        <ele>1289</ele>
        <time>2021-08-03T10:09:33.349Z</time>
      </trkpt>
      <trkpt lat="47.02051" lon="8.88606">
        <ele>1289</ele>
        <time>2021-08-03T10:09:34.349Z</time>
      </trkpt>
      <trkpt lat="47.0205" lon="8.88605">
        <ele>1289</ele>
        <time>2021-08-03T10:09:35.349Z</time>
      </trkpt>
      <trkpt lat="47.0205" lon="8.88603">
        <ele>1289</ele>
        <time>2021-08-03T10:09:36.348Z</time>
      </trkpt>
      <trkpt lat="47.02049" lon="8.88602">
        <ele>1289</ele>
        <time>2021-08-03T10:09:37.348Z</time>
      </trkpt>
      <trkpt lat="47.0205" lon="8.886">
        <ele>1289</ele>
        <time>2021-08-03T10:09:38.349Z</time>
      </trkpt>
      <trkpt lat="47.0205" lon="8.88598">
        <ele>1289</ele>
        <time>2021-08-03T10:09:39.349Z</time>
      </trkpt>
      <trkpt lat="47.02049" lon="8.88597">
        <ele>1289</ele>
        <time>2021-08-03T10:09:40.348Z</time>
      </trkpt>
      <trkpt lat="47.02049" lon="8.88596">
        <ele>1289</ele>
        <time>2021-08-03T10:09:41.349Z</time>
      </trkpt>
      <trkpt lat="47.02048" lon="8.88595">
        <ele>1288</ele>
        <time>2021-08-03T10:09:42.349Z</time>
      </trkpt>
      <trkpt lat="47.02048" lon="8.88594">
        <ele>1288</ele>
        <time>2021-08-03T10:09:43.349Z</time>
      </trkpt>
      <trkpt lat="47.02048" lon="8.88593">
        <ele>1288</ele>
        <time>2021-08-03T10:09:44.349Z</time>
      </trkpt>
      <trkpt lat="47.02048" lon="8.88592">
        <ele>1287</ele>
        <time>2021-08-03T10:09:45.349Z</time>
      </trkpt>
      <trkpt lat="47.02048" lon="8.88591">
        <ele>1287</ele>
        <time>2021-08-03T10:09:46.349Z</time>
      </trkpt>
      <trkpt lat="47.02048" lon="8.8859">
        <ele>1287</ele>
        <time>2021-08-03T10:09:47.348Z</time>
      </trkpt>
      <trkpt lat="47.02048" lon="8.8859">
        <ele>1287</ele>
        <time>2021-08-03T10:09:48.349Z</time>
      </trkpt>
      <trkpt lat="47.02047" lon="8.8859">
        <ele>1287</ele>
        <time>2021-08-03T10:09:49.348Z</time>
      </trkpt>
      <trkpt lat="47.02046" lon="8.88589">
        <ele>1287</ele>
        <time>2021-08-03T10:09:50.349Z</time>
      </trkpt>
      <trkpt lat="47.02045" lon="8.88589">
        <ele>1288</ele>
        <time>2021-08-03T10:09:51.349Z</time>
      </trkpt>
      <trkpt lat="47.02044" lon="8.88587">
        <ele>1289</ele>
        <time>2021-08-03T10:09:52.349Z</time>
      </trkpt>
      <trkpt lat="47.02044" lon="8.88587">
        <ele>1289</ele>
        <time>2021-08-03T10:09:53.349Z</time>
      </trkpt>
      <trkpt lat="47.02044" lon="8.88586">
        <ele>1289</ele>
        <time>2021-08-03T10:09:54.349Z</time>
      </trkpt>
      <trkpt lat="47.02044" lon="8.88585">
        <ele>1289</ele>
        <time>2021-08-03T10:09:55.349Z</time>
      </trkpt>
      <trkpt lat="47.02044" lon="8.88584">
        <ele>1289</ele>
        <time>2021-08-03T10:09:56.350Z</time>
      </trkpt>
      <trkpt lat="47.02044" lon="8.88583">
        <ele>1290</ele>
        <time>2021-08-03T10:09:57.349Z</time>
      </trkpt>
      <trkpt lat="47.02044" lon="8.88582">
        <ele>1290</ele>
        <time>2021-08-03T10:09:58.349Z</time>
      </trkpt>
      <trkpt lat="47.02043" lon="8.88582">
        <ele>1290</ele>
        <time>2021-08-03T10:09:59.349Z</time>
      </trkpt>
      <trkpt lat="47.02043" lon="8.88581">
        <ele>1290</ele>
        <time>2021-08-03T10:10:00.349Z</time>
      </trkpt>
      <trkpt lat="47.02043" lon="8.8858">
        <ele>1290</ele>
        <time>2021-08-03T10:10:01.349Z</time>
      </trkpt>
      <trkpt lat="47.02042" lon="8.88579">
        <ele>1290</ele>
        <time>2021-08-03T10:10:02.350Z</time>
      </trkpt>
      <trkpt lat="47.02042" lon="8.88578">
        <ele>1291</ele>
        <time>2021-08-03T10:10:03.350Z</time>
      </trkpt>
      <trkpt lat="47.02041" lon="8.88578">
        <ele>1291</ele>
        <time>2021-08-03T10:10:04.349Z</time>
      </trkpt>
      <trkpt lat="47.02041" lon="8.88577">
        <ele>1291</ele>
        <time>2021-08-03T10:10:05.349Z</time>
      </trkpt>
      <trkpt lat="47.02041" lon="8.88576">
        <ele>1292</ele>
        <time>2021-08-03T10:10:06.349Z</time>
      </trkpt>
      <trkpt lat="47.0204" lon="8.88575">
        <ele>1292</ele>
        <time>2021-08-03T10:10:07.349Z</time>
      </trkpt>
      <trkpt lat="47.0204" lon="8.88573">
        <ele>1292</ele>
        <time>2021-08-03T10:10:08.349Z</time>
      </trkpt>
      <trkpt lat="47.02041" lon="8.88572">
        <ele>1292</ele>
        <time>2021-08-03T10:10:09.350Z</time>
      </trkpt>
      <trkpt lat="47.0204" lon="8.88571">
        <ele>1293</ele>
        <time>2021-08-03T10:10:10.349Z</time>
      </trkpt>
      <trkpt lat="47.0204" lon="8.8857">
        <ele>1293</ele>
        <time>2021-08-03T10:10:11.350Z</time>
      </trkpt>
      <trkpt lat="47.02039" lon="8.88569">
        <ele>1293</ele>
        <time>2021-08-03T10:10:12.349Z</time>
      </trkpt>
      <trkpt lat="47.02039" lon="8.88567">
        <ele>1293</ele>
        <time>2021-08-03T10:10:13.350Z</time>
      </trkpt>
      <trkpt lat="47.0204" lon="8.88565">
        <ele>1293</ele>
        <time>2021-08-03T10:10:14.350Z</time>
      </trkpt>
      <trkpt lat="47.0204" lon="8.88564">
        <ele>1293</ele>
        <time>2021-08-03T10:10:15.350Z</time>
      </trkpt>
      <trkpt lat="47.0204" lon="8.88564">
        <ele>1293</ele>
        <time>2021-08-03T10:10:16.350Z</time>
      </trkpt>
      <trkpt lat="47.02041" lon="8.88563">
        <ele>1293</ele>
        <time>2021-08-03T10:10:17.350Z</time>
      </trkpt>
      <trkpt lat="47.02039" lon="8.88563">
        <ele>1293</ele>
        <time>2021-08-03T10:10:18.350Z</time>
      </trkpt>
      <trkpt lat="47.02038" lon="8.88562">
        <ele>1294</ele>
        <time>2021-08-03T10:10:19.350Z</time>
      </trkpt>
      <trkpt lat="47.02036" lon="8.88561">
        <ele>1295</ele>
        <time>2021-08-03T10:10:20.350Z</time>
      </trkpt>
      <trkpt lat="47.02034" lon="8.88561">
        <ele>1295</ele>
        <time>2021-08-03T10:10:21.350Z</time>
      </trkpt>
      <trkpt lat="47.02034" lon="8.88561">
        <ele>1295</ele>
        <time>2021-08-03T10:10:22.349Z</time>
      </trkpt>
      <trkpt lat="47.02033" lon="8.88561">
        <ele>1295</ele>
        <time>2021-08-03T10:10:23.349Z</time>
      </trkpt>
      <trkpt lat="47.02032" lon="8.88562">
        <ele>1296</ele>
        <time>2021-08-03T10:10:24.350Z</time>
      </trkpt>
      <trkpt lat="47.02031" lon="8.88563">
        <ele>1296</ele>
        <time>2021-08-03T10:10:25.350Z</time>
      </trkpt>
      <trkpt lat="47.0203" lon="8.88564">
        <ele>1296</ele>
        <time>2021-08-03T10:10:26.349Z</time>
      </trkpt>
      <trkpt lat="47.0203" lon="8.88564">
        <ele>1296</ele>
        <time>2021-08-03T10:10:27.350Z</time>
      </trkpt>
      <trkpt lat="47.02029" lon="8.88565">
        <ele>1297</ele>
        <time>2021-08-03T10:10:28.350Z</time>
      </trkpt>
      <trkpt lat="47.02028" lon="8.88566">
        <ele>1297</ele>
        <time>2021-08-03T10:10:29.349Z</time>
      </trkpt>
      <trkpt lat="47.02028" lon="8.88566">
        <ele>1297</ele>
        <time>2021-08-03T10:10:30.349Z</time>
      </trkpt>
      <trkpt lat="47.02027" lon="8.88567">
        <ele>1297</ele>
        <time>2021-08-03T10:10:31.349Z</time>
      </trkpt>
      <trkpt lat="47.02026" lon="8.88568">
        <ele>1298</ele>
        <time>2021-08-03T10:10:32.350Z</time>
      </trkpt>
      <trkpt lat="47.02025" lon="8.88569">
        <ele>1297</ele>
        <time>2021-08-03T10:10:33.350Z</time>
      </trkpt>
      <trkpt lat="47.02024" lon="8.8857">
        <ele>1297</ele>
        <time>2021-08-03T10:10:34.349Z</time>
      </trkpt>
      <trkpt lat="47.02022" lon="8.88568">
        <ele>1297</ele>
        <time>2021-08-03T10:10:35.349Z</time>
      </trkpt>
      <trkpt lat="47.02022" lon="8.88568">
        <ele>1297</ele>
        <time>2021-08-03T10:10:36.350Z</time>
      </trkpt>
      <trkpt lat="47.02022" lon="8.88569">
        <ele>1297</ele>
        <time>2021-08-03T10:10:37.350Z</time>
      </trkpt>
      <trkpt lat="47.02022" lon="8.88569">
        <ele>1297</ele>
        <time>2021-08-03T10:10:38.349Z</time>
      </trkpt>
      <trkpt lat="47.02021" lon="8.88569">
        <ele>1297</ele>
        <time>2021-08-03T10:10:39.350Z</time>
      </trkpt>
      <trkpt lat="47.0202" lon="8.8857">
        <ele>1297</ele>
        <time>2021-08-03T10:10:40.349Z</time>
      </trkpt>
      <trkpt lat="47.02019" lon="8.88571">
        <ele>1297</ele>
        <time>2021-08-03T10:10:41.350Z</time>
      </trkpt>
      <trkpt lat="47.02018" lon="8.88571">
        <ele>1297</ele>
        <time>2021-08-03T10:10:42.350Z</time>
      </trkpt>
      <trkpt lat="47.02017" lon="8.88571">
        <ele>1297</ele>
        <time>2021-08-03T10:10:43.349Z</time>
      </trkpt>
      <trkpt lat="47.02015" lon="8.88571">
        <ele>1297</ele>
        <time>2021-08-03T10:10:44.350Z</time>
      </trkpt>
      <trkpt lat="47.02015" lon="8.88571">
        <ele>1298</ele>
        <time>2021-08-03T10:10:45.349Z</time>
      </trkpt>
      <trkpt lat="47.02015" lon="8.88571">
        <ele>1298</ele>
        <time>2021-08-03T10:10:46.349Z</time>
      </trkpt>
      <trkpt lat="47.02014" lon="8.88571">
        <ele>1299</ele>
        <time>2021-08-03T10:10:47.349Z</time>
      </trkpt>
      <trkpt lat="47.02013" lon="8.88571">
        <ele>1299</ele>
        <time>2021-08-03T10:10:48.350Z</time>
      </trkpt>
      <trkpt lat="47.02012" lon="8.88571">
        <ele>1300</ele>
        <time>2021-08-03T10:10:49.350Z</time>
      </trkpt>
      <trkpt lat="47.02012" lon="8.88571">
        <ele>1300</ele>
        <time>2021-08-03T10:10:50.349Z</time>
      </trkpt>
      <trkpt lat="47.02013" lon="8.88571">
        <ele>1300</ele>
        <time>2021-08-03T10:10:51.349Z</time>
      </trkpt>
      <trkpt lat="47.02014" lon="8.88571">
        <ele>1300</ele>
        <time>2021-08-03T10:10:52.350Z</time>
      </trkpt>
      <trkpt lat="47.02014" lon="8.88571">
        <ele>1300</ele>
        <time>2021-08-03T10:10:53.349Z</time>
      </trkpt>
      <trkpt lat="47.02014" lon="8.88571">
        <ele>1300</ele>
        <time>2021-08-03T10:10:54.350Z</time>
      </trkpt>
      <trkpt lat="47.02013" lon="8.88571">
        <ele>1300</ele>
        <time>2021-08-03T10:10:55.350Z</time>
      </trkpt>
      <trkpt lat="47.02012" lon="8.8857">
        <ele>1300</ele>
        <time>2021-08-03T10:10:56.350Z</time>
      </trkpt>
      <trkpt lat="47.02012" lon="8.88571">
        <ele>1300</ele>
        <time>2021-08-03T10:10:57.349Z</time>
      </trkpt>
      <trkpt lat="47.02011" lon="8.88571">
        <ele>1300</ele>
        <time>2021-08-03T10:10:58.350Z</time>
      </trkpt>
      <trkpt lat="47.0201" lon="8.88572">
        <ele>1300</ele>
        <time>2021-08-03T10:10:59.350Z</time>
      </trkpt>
      <trkpt lat="47.02009" lon="8.88572">
        <ele>1300</ele>
        <time>2021-08-03T10:11:00.350Z</time>
      </trkpt>
      <trkpt lat="47.02008" lon="8.88572">
        <ele>1301</ele>
        <time>2021-08-03T10:11:01.350Z</time>
      </trkpt>
      <trkpt lat="47.02008" lon="8.88572">
        <ele>1301</ele>
        <time>2021-08-03T10:11:02.350Z</time>
      </trkpt>
      <trkpt lat="47.02007" lon="8.88572">
        <ele>1302</ele>
        <time>2021-08-03T10:11:03.350Z</time>
      </trkpt>
      <trkpt lat="47.02007" lon="8.88573">
        <ele>1302</ele>
        <time>2021-08-03T10:11:04.349Z</time>
      </trkpt>
      <trkpt lat="47.02007" lon="8.88574">
        <ele>1303</ele>
        <time>2021-08-03T10:11:05.349Z</time>
      </trkpt>
      <trkpt lat="47.02007" lon="8.88575">
        <ele>1303</ele>
        <time>2021-08-03T10:11:06.350Z</time>
      </trkpt>
      <trkpt lat="47.02007" lon="8.88575">
        <ele>1304</ele>
        <time>2021-08-03T10:11:07.350Z</time>
      </trkpt>
      <trkpt lat="47.02007" lon="8.88576">
        <ele>1304</ele>
        <time>2021-08-03T10:11:08.350Z</time>
      </trkpt>
      <trkpt lat="47.02006" lon="8.88576">
        <ele>1305</ele>
        <time>2021-08-03T10:11:09.350Z</time>
      </trkpt>
      <trkpt lat="47.02006" lon="8.88577">
        <ele>1306</ele>
        <time>2021-08-03T10:11:10.349Z</time>
      </trkpt>
      <trkpt lat="47.02005" lon="8.88578">
        <ele>1307</ele>
        <time>2021-08-03T10:11:11.350Z</time>
      </trkpt>
      <trkpt lat="47.02005" lon="8.88579">
        <ele>1307</ele>
        <time>2021-08-03T10:11:12.350Z</time>
      </trkpt>
      <trkpt lat="47.02004" lon="8.8858">
        <ele>1307</ele>
        <time>2021-08-03T10:11:13.349Z</time>
      </trkpt>
      <trkpt lat="47.02003" lon="8.88581">
        <ele>1307</ele>
        <time>2021-08-03T10:11:14.349Z</time>
      </trkpt>
      <trkpt lat="47.02002" lon="8.88582">
        <ele>1307</ele>
        <time>2021-08-03T10:11:15.349Z</time>
      </trkpt>
      <trkpt lat="47.02003" lon="8.88583">
        <ele>1308</ele>
        <time>2021-08-03T10:11:16.350Z</time>
      </trkpt>
      <trkpt lat="47.02002" lon="8.88584">
        <ele>1308</ele>
        <time>2021-08-03T10:11:17.350Z</time>
      </trkpt>
      <trkpt lat="47.02001" lon="8.88584">
        <ele>1309</ele>
        <time>2021-08-03T10:11:18.349Z</time>
      </trkpt>
      <trkpt lat="47.02001" lon="8.88584">
        <ele>1309</ele>
        <time>2021-08-03T10:11:19.349Z</time>
      </trkpt>
      <trkpt lat="47.02" lon="8.88584">
        <ele>1309</ele>
        <time>2021-08-03T10:11:20.349Z</time>
      </trkpt>
      <trkpt lat="47.01999" lon="8.88584">
        <ele>1310</ele>
        <time>2021-08-03T10:11:21.349Z</time>
      </trkpt>
      <trkpt lat="47.01999" lon="8.88584">
        <ele>1311</ele>
        <time>2021-08-03T10:11:22.349Z</time>
      </trkpt>
      <trkpt lat="47.02" lon="8.88582">
        <ele>1311</ele>
        <time>2021-08-03T10:11:23.351Z</time>
      </trkpt>
      <trkpt lat="47.02" lon="8.88582">
        <ele>1312</ele>
        <time>2021-08-03T10:11:24.351Z</time>
      </trkpt>
      <trkpt lat="47.02" lon="8.88582">
        <ele>1312</ele>
        <time>2021-08-03T10:11:25.350Z</time>
      </trkpt>
      <trkpt lat="47.01999" lon="8.88581">
        <ele>1312</ele>
        <time>2021-08-03T10:11:26.351Z</time>
      </trkpt>
      <trkpt lat="47.01995" lon="8.88577">
        <ele>1307</ele>
        <time>2021-08-03T10:11:27.350Z</time>
      </trkpt>
      <trkpt lat="47.01996" lon="8.88577">
        <ele>1307</ele>
        <time>2021-08-03T10:11:28.351Z</time>
      </trkpt>
      <trkpt lat="47.01996" lon="8.88577">
        <ele>1307</ele>
        <time>2021-08-03T10:11:29.351Z</time>
      </trkpt>
      <trkpt lat="47.01997" lon="8.88577">
        <ele>1307</ele>
        <time>2021-08-03T10:11:30.350Z</time>
      </trkpt>
      <trkpt lat="47.02002" lon="8.88582">
        <ele>1315</ele>
        <time>2021-08-03T10:11:31.352Z</time>
      </trkpt>
      <trkpt lat="47.02002" lon="8.88582">
        <ele>1316</ele>
        <time>2021-08-03T10:11:32.351Z</time>
      </trkpt>
      <trkpt lat="47.02002" lon="8.88582">
        <ele>1317</ele>
        <time>2021-08-03T10:11:33.351Z</time>
      </trkpt>
      <trkpt lat="47.01996" lon="8.88572">
        <ele>1317</ele>
        <time>2021-08-03T10:11:34.353Z</time>
      </trkpt>
      <trkpt lat="47.01996" lon="8.88571">
        <ele>1317</ele>
        <time>2021-08-03T10:11:35.353Z</time>
      </trkpt>
      <trkpt lat="47.01995" lon="8.88573">
        <ele>1316</ele>
        <time>2021-08-03T10:11:36.354Z</time>
      </trkpt>
      <trkpt lat="47.01995" lon="8.88573">
        <ele>1316</ele>
        <time>2021-08-03T10:11:37.354Z</time>
      </trkpt>
      <trkpt lat="47.01997" lon="8.88575">
        <ele>1319</ele>
        <time>2021-08-03T10:11:38.353Z</time>
      </trkpt>
      <trkpt lat="47.01997" lon="8.88575">
        <ele>1319</ele>
        <time>2021-08-03T10:11:39.354Z</time>
      </trkpt>
      <trkpt lat="47.01997" lon="8.88574">
        <ele>1319</ele>
        <time>2021-08-03T10:11:40.353Z</time>
      </trkpt>
      <trkpt lat="47.01997" lon="8.88573">
        <ele>1319</ele>
        <time>2021-08-03T10:11:41.354Z</time>
      </trkpt>
      <trkpt lat="47.01998" lon="8.88573">
        <ele>1320</ele>
        <time>2021-08-03T10:11:42.354Z</time>
      </trkpt>
      <trkpt lat="47.01998" lon="8.88573">
        <ele>1320</ele>
        <time>2021-08-03T10:11:43.353Z</time>
      </trkpt>
      <trkpt lat="47.01997" lon="8.88572">
        <ele>1321</ele>
        <time>2021-08-03T10:11:44.354Z</time>
      </trkpt>
      <trkpt lat="47.01996" lon="8.88571">
        <ele>1321</ele>
        <time>2021-08-03T10:11:45.354Z</time>
      </trkpt>
      <trkpt lat="47.01995" lon="8.8857">
        <ele>1321</ele>
        <time>2021-08-03T10:11:46.353Z</time>
      </trkpt>
      <trkpt lat="47.01993" lon="8.8857">
        <ele>1321</ele>
        <time>2021-08-03T10:11:47.354Z</time>
      </trkpt>
      <trkpt lat="47.01992" lon="8.8857">
        <ele>1321</ele>
        <time>2021-08-03T10:11:48.353Z</time>
      </trkpt>
      <trkpt lat="47.01991" lon="8.88569">
        <ele>1322</ele>
        <time>2021-08-03T10:11:49.354Z</time>
      </trkpt>
      <trkpt lat="47.0199" lon="8.88569">
        <ele>1322</ele>
        <time>2021-08-03T10:11:50.353Z</time>
      </trkpt>
      <trkpt lat="47.0199" lon="8.88569">
        <ele>1322</ele>
        <time>2021-08-03T10:11:51.354Z</time>
      </trkpt>
      <trkpt lat="47.01989" lon="8.88568">
        <ele>1322</ele>
        <time>2021-08-03T10:11:52.353Z</time>
      </trkpt>
      <trkpt lat="47.01988" lon="8.88568">
        <ele>1323</ele>
        <time>2021-08-03T10:11:53.354Z</time>
      </trkpt>
      <trkpt lat="47.01986" lon="8.88567">
        <ele>1323</ele>
        <time>2021-08-03T10:11:54.354Z</time>
      </trkpt>
      <trkpt lat="47.01985" lon="8.88567">
        <ele>1323</ele>
        <time>2021-08-03T10:11:55.354Z</time>
      </trkpt>
      <trkpt lat="47.01984" lon="8.88567">
        <ele>1323</ele>
        <time>2021-08-03T10:11:56.354Z</time>
      </trkpt>
      <trkpt lat="47.01984" lon="8.88567">
        <ele>1323</ele>
        <time>2021-08-03T10:11:57.353Z</time>
      </trkpt>
      <trkpt lat="47.01982" lon="8.88567">
        <ele>1323</ele>
        <time>2021-08-03T10:11:58.354Z</time>
      </trkpt>
      <trkpt lat="47.01981" lon="8.88568">
        <ele>1324</ele>
        <time>2021-08-03T10:11:59.354Z</time>
      </trkpt>
      <trkpt lat="47.01979" lon="8.88568">
        <ele>1324</ele>
        <time>2021-08-03T10:12:00.354Z</time>
      </trkpt>
      <trkpt lat="47.01979" lon="8.88567">
        <ele>1324</ele>
        <time>2021-08-03T10:12:01.353Z</time>
      </trkpt>
      <trkpt lat="47.01979" lon="8.88567">
        <ele>1325</ele>
        <time>2021-08-03T10:12:02.354Z</time>
      </trkpt>
      <trkpt lat="47.01978" lon="8.88566">
        <ele>1325</ele>
        <time>2021-08-03T10:12:03.353Z</time>
      </trkpt>
      <trkpt lat="47.01977" lon="8.88566">
        <ele>1326</ele>
        <time>2021-08-03T10:12:04.354Z</time>
      </trkpt>
      <trkpt lat="47.01976" lon="8.88567">
        <ele>1326</ele>
        <time>2021-08-03T10:12:05.354Z</time>
      </trkpt>
      <trkpt lat="47.01976" lon="8.88568">
        <ele>1327</ele>
        <time>2021-08-03T10:12:06.353Z</time>
      </trkpt>
      <trkpt lat="47.01975" lon="8.88568">
        <ele>1327</ele>
        <time>2021-08-03T10:12:07.354Z</time>
      </trkpt>
      <trkpt lat="47.01974" lon="8.88568">
        <ele>1328</ele>
        <time>2021-08-03T10:12:08.354Z</time>
      </trkpt>
      <trkpt lat="47.01973" lon="8.88569">
        <ele>1328</ele>
        <time>2021-08-03T10:12:09.354Z</time>
      </trkpt>
      <trkpt lat="47.01973" lon="8.8857">
        <ele>1329</ele>
        <time>2021-08-03T10:12:10.354Z</time>
      </trkpt>
      <trkpt lat="47.01972" lon="8.88571">
        <ele>1330</ele>
        <time>2021-08-03T10:12:11.354Z</time>
      </trkpt>
      <trkpt lat="47.01972" lon="8.88572">
        <ele>1330</ele>
        <time>2021-08-03T10:12:12.353Z</time>
      </trkpt>
      <trkpt lat="47.01972" lon="8.88573">
        <ele>1331</ele>
        <time>2021-08-03T10:12:13.354Z</time>
      </trkpt>
      <trkpt lat="47.01972" lon="8.88574">
        <ele>1332</ele>
        <time>2021-08-03T10:12:14.354Z</time>
      </trkpt>
      <trkpt lat="47.01971" lon="8.88575">
        <ele>1332</ele>
        <time>2021-08-03T10:12:15.353Z</time>
      </trkpt>
      <trkpt lat="47.01969" lon="8.88575">
        <ele>1333</ele>
        <time>2021-08-03T10:12:16.353Z</time>
      </trkpt>
      <trkpt lat="47.01968" lon="8.88576">
        <ele>1333</ele>
        <time>2021-08-03T10:12:17.354Z</time>
      </trkpt>
      <trkpt lat="47.01967" lon="8.88577">
        <ele>1333</ele>
        <time>2021-08-03T10:12:18.354Z</time>
      </trkpt>
      <trkpt lat="47.01966" lon="8.88578">
        <ele>1332</ele>
        <time>2021-08-03T10:12:19.354Z</time>
      </trkpt>
      <trkpt lat="47.01966" lon="8.88576">
        <ele>1332</ele>
        <time>2021-08-03T10:12:20.353Z</time>
      </trkpt>
      <trkpt lat="47.01966" lon="8.88574">
        <ele>1332</ele>
        <time>2021-08-03T10:12:21.354Z</time>
      </trkpt>
      <trkpt lat="47.01961" lon="8.88573">
        <ele>1333</ele>
        <time>2021-08-03T10:12:22.355Z</time>
      </trkpt>
      <trkpt lat="47.0196" lon="8.88574">
        <ele>1333</ele>
        <time>2021-08-03T10:12:23.356Z</time>
      </trkpt>
      <trkpt lat="47.01959" lon="8.88575">
        <ele>1334</ele>
        <time>2021-08-03T10:12:24.355Z</time>
      </trkpt>
      <trkpt lat="47.01958" lon="8.88576">
        <ele>1334</ele>
        <time>2021-08-03T10:12:25.356Z</time>
      </trkpt>
      <trkpt lat="47.01954" lon="8.88577">
        <ele>1336</ele>
        <time>2021-08-03T10:12:26.355Z</time>
      </trkpt>
      <trkpt lat="47.01954" lon="8.88576">
        <ele>1336</ele>
        <time>2021-08-03T10:12:27.356Z</time>
      </trkpt>
      <trkpt lat="47.01952" lon="8.88576">
        <ele>1335</ele>
        <time>2021-08-03T10:12:28.356Z</time>
      </trkpt>
      <trkpt lat="47.01951" lon="8.88577">
        <ele>1334</ele>
        <time>2021-08-03T10:12:29.355Z</time>
      </trkpt>
      <trkpt lat="47.01951" lon="8.88577">
        <ele>1334</ele>
        <time>2021-08-03T10:12:30.355Z</time>
      </trkpt>
      <trkpt lat="47.01951" lon="8.88577">
        <ele>1334</ele>
        <time>2021-08-03T10:12:31.356Z</time>
      </trkpt>
      <trkpt lat="47.0195" lon="8.88577">
        <ele>1335</ele>
        <time>2021-08-03T10:12:32.356Z</time>
      </trkpt>
      <trkpt lat="47.01949" lon="8.88577">
        <ele>1335</ele>
        <time>2021-08-03T10:12:33.356Z</time>
      </trkpt>
      <trkpt lat="47.01948" lon="8.88576">
        <ele>1335</ele>
        <time>2021-08-03T10:12:34.355Z</time>
      </trkpt>
      <trkpt lat="47.01948" lon="8.88576">
        <ele>1335</ele>
        <time>2021-08-03T10:12:35.356Z</time>
      </trkpt>
      <trkpt lat="47.01947" lon="8.88576">
        <ele>1335</ele>
        <time>2021-08-03T10:12:36.356Z</time>
      </trkpt>
      <trkpt lat="47.01945" lon="8.88576">
        <ele>1335</ele>
        <time>2021-08-03T10:12:37.356Z</time>
      </trkpt>
      <trkpt lat="47.01943" lon="8.88576">
        <ele>1335</ele>
        <time>2021-08-03T10:12:38.356Z</time>
      </trkpt>
      <trkpt lat="47.01941" lon="8.88575">
        <ele>1335</ele>
        <time>2021-08-03T10:12:39.355Z</time>
      </trkpt>
      <trkpt lat="47.01939" lon="8.88575">
        <ele>1335</ele>
        <time>2021-08-03T10:12:40.356Z</time>
      </trkpt>
      <trkpt lat="47.01938" lon="8.88575">
        <ele>1335</ele>
        <time>2021-08-03T10:12:41.355Z</time>
      </trkpt>
      <trkpt lat="47.01938" lon="8.88574">
        <ele>1335</ele>
        <time>2021-08-03T10:12:42.356Z</time>
      </trkpt>
      <trkpt lat="47.01938" lon="8.88574">
        <ele>1334</ele>
        <time>2021-08-03T10:12:43.355Z</time>
      </trkpt>
      <trkpt lat="47.01938" lon="8.88573">
        <ele>1334</ele>
        <time>2021-08-03T10:12:44.356Z</time>
      </trkpt>
      <trkpt lat="47.01937" lon="8.88573">
        <ele>1334</ele>
        <time>2021-08-03T10:12:45.355Z</time>
      </trkpt>
      <trkpt lat="47.01937" lon="8.88574">
        <ele>1333</ele>
        <time>2021-08-03T10:12:46.355Z</time>
      </trkpt>
      <trkpt lat="47.01937" lon="8.88574">
        <ele>1333</ele>
        <time>2021-08-03T10:12:47.356Z</time>
      </trkpt>
      <trkpt lat="47.01936" lon="8.88573">
        <ele>1332</ele>
        <time>2021-08-03T10:12:48.355Z</time>
      </trkpt>
      <trkpt lat="47.01936" lon="8.88574">
        <ele>1330</ele>
        <time>2021-08-03T10:12:49.355Z</time>
      </trkpt>
      <trkpt lat="47.01936" lon="8.88574">
        <ele>1330</ele>
        <time>2021-08-03T10:12:50.356Z</time>
      </trkpt>
      <trkpt lat="47.01935" lon="8.88573">
        <ele>1329</ele>
        <time>2021-08-03T10:12:51.356Z</time>
      </trkpt>
      <trkpt lat="47.01935" lon="8.88572">
        <ele>1328</ele>
        <time>2021-08-03T10:12:52.356Z</time>
      </trkpt>
      <trkpt lat="47.01935" lon="8.88571">
        <ele>1327</ele>
        <time>2021-08-03T10:12:53.356Z</time>
      </trkpt>
      <trkpt lat="47.01935" lon="8.88571">
        <ele>1326</ele>
        <time>2021-08-03T10:12:54.356Z</time>
      </trkpt>
      <trkpt lat="47.01936" lon="8.88571">
        <ele>1326</ele>
        <time>2021-08-03T10:12:55.355Z</time>
      </trkpt>
      <trkpt lat="47.01935" lon="8.88571">
        <ele>1325</ele>
        <time>2021-08-03T10:12:56.356Z</time>
      </trkpt>
      <trkpt lat="47.01935" lon="8.88572">
        <ele>1324</ele>
        <time>2021-08-03T10:12:57.355Z</time>
      </trkpt>
      <trkpt lat="47.01935" lon="8.88572">
        <ele>1324</ele>
        <time>2021-08-03T10:12:58.356Z</time>
      </trkpt>
      <trkpt lat="47.01936" lon="8.88572">
        <ele>1322</ele>
        <time>2021-08-03T10:12:59.356Z</time>
      </trkpt>
      <trkpt lat="47.01936" lon="8.88572">
        <ele>1322</ele>
        <time>2021-08-03T10:13:00.357Z</time>
      </trkpt>
      <trkpt lat="47.01936" lon="8.88571">
        <ele>1321</ele>
        <time>2021-08-03T10:13:01.357Z</time>
      </trkpt>
      <trkpt lat="47.01935" lon="8.88571">
        <ele>1321</ele>
        <time>2021-08-03T10:13:02.357Z</time>
      </trkpt>
      <trkpt lat="47.01934" lon="8.8857">
        <ele>1320</ele>
        <time>2021-08-03T10:13:03.357Z</time>
      </trkpt>
      <trkpt lat="47.01932" lon="8.8857">
        <ele>1320</ele>
        <time>2021-08-03T10:13:04.357Z</time>
      </trkpt>
      <trkpt lat="47.01932" lon="8.8857">
        <ele>1320</ele>
        <time>2021-08-03T10:13:05.357Z</time>
      </trkpt>
      <trkpt lat="47.01931" lon="8.8857">
        <ele>1320</ele>
        <time>2021-08-03T10:13:06.356Z</time>
      </trkpt>
      <trkpt lat="47.0193" lon="8.8857">
        <ele>1320</ele>
        <time>2021-08-03T10:13:07.357Z</time>
      </trkpt>
      <trkpt lat="47.0193" lon="8.8857">
        <ele>1321</ele>
        <time>2021-08-03T10:13:08.357Z</time>
      </trkpt>
      <trkpt lat="47.0193" lon="8.88569">
        <ele>1321</ele>
        <time>2021-08-03T10:13:09.357Z</time>
      </trkpt>
      <trkpt lat="47.01928" lon="8.88568">
        <ele>1322</ele>
        <time>2021-08-03T10:13:10.357Z</time>
      </trkpt>
      <trkpt lat="47.01927" lon="8.88567">
        <ele>1322</ele>
        <time>2021-08-03T10:13:11.357Z</time>
      </trkpt>
      <trkpt lat="47.01927" lon="8.88567">
        <ele>1323</ele>
        <time>2021-08-03T10:13:12.357Z</time>
      </trkpt>
      <trkpt lat="47.01927" lon="8.88566">
        <ele>1323</ele>
        <time>2021-08-03T10:13:13.356Z</time>
      </trkpt>
      <trkpt lat="47.01927" lon="8.88566">
        <ele>1323</ele>
        <time>2021-08-03T10:13:14.356Z</time>
      </trkpt>
      <trkpt lat="47.01928" lon="8.88568">
        <ele>1324</ele>
        <time>2021-08-03T10:13:15.357Z</time>
      </trkpt>
      <trkpt lat="47.01928" lon="8.88568">
        <ele>1324</ele>
        <time>2021-08-03T10:13:16.357Z</time>
      </trkpt>
      <trkpt lat="47.01929" lon="8.88566">
        <ele>1324</ele>
        <time>2021-08-03T10:13:17.357Z</time>
      </trkpt>
      <trkpt lat="47.01929" lon="8.88565">
        <ele>1325</ele>
        <time>2021-08-03T10:13:18.357Z</time>
      </trkpt>
      <trkpt lat="47.01928" lon="8.88564">
        <ele>1325</ele>
        <time>2021-08-03T10:13:19.357Z</time>
      </trkpt>
      <trkpt lat="47.01928" lon="8.88563">
        <ele>1325</ele>
        <time>2021-08-03T10:13:20.357Z</time>
      </trkpt>
      <trkpt lat="47.01927" lon="8.88563">
        <ele>1326</ele>
        <time>2021-08-03T10:13:21.357Z</time>
      </trkpt>
      <trkpt lat="47.01927" lon="8.88563">
        <ele>1326</ele>
        <time>2021-08-03T10:13:22.357Z</time>
      </trkpt>
      <trkpt lat="47.01926" lon="8.88563">
        <ele>1326</ele>
        <time>2021-08-03T10:13:23.356Z</time>
      </trkpt>
      <trkpt lat="47.01925" lon="8.88564">
        <ele>1327</ele>
        <time>2021-08-03T10:13:24.357Z</time>
      </trkpt>
      <trkpt lat="47.01925" lon="8.88565">
        <ele>1327</ele>
        <time>2021-08-03T10:13:25.357Z</time>
      </trkpt>
      <trkpt lat="47.01924" lon="8.88566">
        <ele>1327</ele>
        <time>2021-08-03T10:13:26.356Z</time>
      </trkpt>
      <trkpt lat="47.01924" lon="8.88567">
        <ele>1328</ele>
        <time>2021-08-03T10:13:27.357Z</time>
      </trkpt>
      <trkpt lat="47.01925" lon="8.88568">
        <ele>1328</ele>
        <time>2021-08-03T10:13:28.356Z</time>
      </trkpt>
      <trkpt lat="47.01926" lon="8.88569">
        <ele>1328</ele>
        <time>2021-08-03T10:13:29.357Z</time>
      </trkpt>
      <trkpt lat="47.01926" lon="8.8857">
        <ele>1328</ele>
        <time>2021-08-03T10:13:30.357Z</time>
      </trkpt>
      <trkpt lat="47.01927" lon="8.88571">
        <ele>1329</ele>
        <time>2021-08-03T10:13:31.357Z</time>
      </trkpt>
      <trkpt lat="47.01928" lon="8.88572">
        <ele>1329</ele>
        <time>2021-08-03T10:13:32.356Z</time>
      </trkpt>
      <trkpt lat="47.01929" lon="8.88574">
        <ele>1330</ele>
        <time>2021-08-03T10:13:33.357Z</time>
      </trkpt>
      <trkpt lat="47.01929" lon="8.88575">
        <ele>1330</ele>
        <time>2021-08-03T10:13:34.356Z</time>
      </trkpt>
      <trkpt lat="47.01929" lon="8.88576">
        <ele>1331</ele>
        <time>2021-08-03T10:13:35.357Z</time>
      </trkpt>
      <trkpt lat="47.01928" lon="8.88577">
        <ele>1331</ele>
        <time>2021-08-03T10:13:36.357Z</time>
      </trkpt>
      <trkpt lat="47.01928" lon="8.88579">
        <ele>1331</ele>
        <time>2021-08-03T10:13:37.357Z</time>
      </trkpt>
      <trkpt lat="47.01927" lon="8.8858">
        <ele>1332</ele>
        <time>2021-08-03T10:13:38.357Z</time>
      </trkpt>
      <trkpt lat="47.01926" lon="8.88582">
        <ele>1332</ele>
        <time>2021-08-03T10:13:39.357Z</time>
      </trkpt>
      <trkpt lat="47.01926" lon="8.88588">
        <ele>1332</ele>
        <time>2021-08-03T10:13:40.357Z</time>
      </trkpt>
      <trkpt lat="47.01932" lon="8.88599">
        <ele>1336</ele>
        <time>2021-08-03T10:13:41.359Z</time>
      </trkpt>
      <trkpt lat="47.01932" lon="8.886">
        <ele>1336</ele>
        <time>2021-08-03T10:13:42.358Z</time>
      </trkpt>
      <trkpt lat="47.01932" lon="8.88601">
        <ele>1336</ele>
        <time>2021-08-03T10:13:43.358Z</time>
      </trkpt>
      <trkpt lat="47.01932" lon="8.88599">
        <ele>1337</ele>
        <time>2021-08-03T10:13:44.359Z</time>
      </trkpt>
      <trkpt lat="47.01932" lon="8.88596">
        <ele>1337</ele>
        <time>2021-08-03T10:13:45.359Z</time>
      </trkpt>
      <trkpt lat="47.01931" lon="8.88595">
        <ele>1337</ele>
        <time>2021-08-03T10:13:46.359Z</time>
      </trkpt>
      <trkpt lat="47.01931" lon="8.88594">
        <ele>1337</ele>
        <time>2021-08-03T10:13:47.359Z</time>
      </trkpt>
      <trkpt lat="47.01931" lon="8.88593">
        <ele>1336</ele>
        <time>2021-08-03T10:13:48.359Z</time>
      </trkpt>
      <trkpt lat="47.0193" lon="8.88592">
        <ele>1336</ele>
        <time>2021-08-03T10:13:49.358Z</time>
      </trkpt>
      <trkpt lat="47.01929" lon="8.88592">
        <ele>1335</ele>
        <time>2021-08-03T10:13:50.359Z</time>
      </trkpt>
      <trkpt lat="47.01929" lon="8.88591">
        <ele>1335</ele>
        <time>2021-08-03T10:13:51.359Z</time>
      </trkpt>
      <trkpt lat="47.01928" lon="8.88592">
        <ele>1334</ele>
        <time>2021-08-03T10:13:52.358Z</time>
      </trkpt>
      <trkpt lat="47.01928" lon="8.88592">
        <ele>1333</ele>
        <time>2021-08-03T10:13:53.359Z</time>
      </trkpt>
      <trkpt lat="47.01927" lon="8.88592">
        <ele>1333</ele>
        <time>2021-08-03T10:13:54.359Z</time>
      </trkpt>
      <trkpt lat="47.01927" lon="8.88592">
        <ele>1333</ele>
        <time>2021-08-03T10:13:55.359Z</time>
      </trkpt>
      <trkpt lat="47.01926" lon="8.88591">
        <ele>1332</ele>
        <time>2021-08-03T10:13:56.359Z</time>
      </trkpt>
      <trkpt lat="47.01926" lon="8.88589">
        <ele>1332</ele>
        <time>2021-08-03T10:13:57.359Z</time>
      </trkpt>
      <trkpt lat="47.01925" lon="8.88588">
        <ele>1331</ele>
        <time>2021-08-03T10:13:58.359Z</time>
      </trkpt>
      <trkpt lat="47.01925" lon="8.88586">
        <ele>1331</ele>
        <time>2021-08-03T10:13:59.358Z</time>
      </trkpt>
      <trkpt lat="47.01924" lon="8.88585">
        <ele>1330</ele>
        <time>2021-08-03T10:14:00.359Z</time>
      </trkpt>
      <trkpt lat="47.01923" lon="8.88583">
        <ele>1329</ele>
        <time>2021-08-03T10:14:01.358Z</time>
      </trkpt>
      <trkpt lat="47.01923" lon="8.88582">
        <ele>1329</ele>
        <time>2021-08-03T10:14:02.358Z</time>
      </trkpt>
      <trkpt lat="47.01922" lon="8.8858">
        <ele>1329</ele>
        <time>2021-08-03T10:14:03.358Z</time>
      </trkpt>
      <trkpt lat="47.01921" lon="8.88578">
        <ele>1328</ele>
        <time>2021-08-03T10:14:04.358Z</time>
      </trkpt>
      <trkpt lat="47.01919" lon="8.88575">
        <ele>1328</ele>
        <time>2021-08-03T10:14:05.359Z</time>
      </trkpt>
      <trkpt lat="47.01919" lon="8.88573">
        <ele>1328</ele>
        <time>2021-08-03T10:14:06.358Z</time>
      </trkpt>
      <trkpt lat="47.0192" lon="8.88571">
        <ele>1328</ele>
        <time>2021-08-03T10:14:07.359Z</time>
      </trkpt>
      <trkpt lat="47.0192" lon="8.8857">
        <ele>1327</ele>
        <time>2021-08-03T10:14:08.358Z</time>
      </trkpt>
      <trkpt lat="47.0192" lon="8.88569">
        <ele>1327</ele>
        <time>2021-08-03T10:14:09.358Z</time>
      </trkpt>
      <trkpt lat="47.01919" lon="8.88569">
        <ele>1327</ele>
        <time>2021-08-03T10:14:10.358Z</time>
      </trkpt>
      <trkpt lat="47.01919" lon="8.88568">
        <ele>1327</ele>
        <time>2021-08-03T10:14:11.358Z</time>
      </trkpt>
      <trkpt lat="47.01919" lon="8.88566">
        <ele>1327</ele>
        <time>2021-08-03T10:14:12.359Z</time>
      </trkpt>
      <trkpt lat="47.01919" lon="8.88565">
        <ele>1327</ele>
        <time>2021-08-03T10:14:13.359Z</time>
      </trkpt>
      <trkpt lat="47.01919" lon="8.88563">
        <ele>1327</ele>
        <time>2021-08-03T10:14:14.359Z</time>
      </trkpt>
      <trkpt lat="47.01919" lon="8.88562">
        <ele>1327</ele>
        <time>2021-08-03T10:14:15.359Z</time>
      </trkpt>
      <trkpt lat="47.01918" lon="8.88561">
        <ele>1326</ele>
        <time>2021-08-03T10:14:16.359Z</time>
      </trkpt>
      <trkpt lat="47.01918" lon="8.8856">
        <ele>1326</ele>
        <time>2021-08-03T10:14:17.358Z</time>
      </trkpt>
      <trkpt lat="47.01917" lon="8.88558">
        <ele>1325</ele>
        <time>2021-08-03T10:14:18.359Z</time>
      </trkpt>
      <trkpt lat="47.01917" lon="8.88557">
        <ele>1325</ele>
        <time>2021-08-03T10:14:19.359Z</time>
      </trkpt>
      <trkpt lat="47.01916" lon="8.88555">
        <ele>1325</ele>
        <time>2021-08-03T10:14:20.359Z</time>
      </trkpt>
      <trkpt lat="47.01915" lon="8.88554">
        <ele>1325</ele>
        <time>2021-08-03T10:14:21.358Z</time>
      </trkpt>
      <trkpt lat="47.01913" lon="8.88553">
        <ele>1325</ele>
        <time>2021-08-03T10:14:22.358Z</time>
      </trkpt>
      <trkpt lat="47.01912" lon="8.88553">
        <ele>1325</ele>
        <time>2021-08-03T10:14:23.358Z</time>
      </trkpt>
      <trkpt lat="47.01912" lon="8.88552">
        <ele>1325</ele>
        <time>2021-08-03T10:14:24.359Z</time>
      </trkpt>
      <trkpt lat="47.01911" lon="8.88551">
        <ele>1326</ele>
        <time>2021-08-03T10:14:25.359Z</time>
      </trkpt>
      <trkpt lat="47.01911" lon="8.88551">
        <ele>1326</ele>
        <time>2021-08-03T10:14:26.359Z</time>
      </trkpt>
      <trkpt lat="47.01911" lon="8.8855">
        <ele>1327</ele>
        <time>2021-08-03T10:14:27.359Z</time>
      </trkpt>
      <trkpt lat="47.01909" lon="8.88551">
        <ele>1327</ele>
        <time>2021-08-03T10:14:28.359Z</time>
      </trkpt>
      <trkpt lat="47.01909" lon="8.88551">
        <ele>1327</ele>
        <time>2021-08-03T10:14:29.359Z</time>
      </trkpt>
      <trkpt lat="47.01908" lon="8.8855">
        <ele>1327</ele>
        <time>2021-08-03T10:14:30.358Z</time>
      </trkpt>
      <trkpt lat="47.01908" lon="8.88549">
        <ele>1326</ele>
        <time>2021-08-03T10:14:31.358Z</time>
      </trkpt>
      <trkpt lat="47.01908" lon="8.88549">
        <ele>1326</ele>
        <time>2021-08-03T10:14:32.358Z</time>
      </trkpt>
      <trkpt lat="47.01907" lon="8.88548">
        <ele>1326</ele>
        <time>2021-08-03T10:14:33.359Z</time>
      </trkpt>
      <trkpt lat="47.01907" lon="8.88547">
        <ele>1326</ele>
        <time>2021-08-03T10:14:34.359Z</time>
      </trkpt>
      <trkpt lat="47.01906" lon="8.88546">
        <ele>1326</ele>
        <time>2021-08-03T10:14:35.359Z</time>
      </trkpt>
      <trkpt lat="47.01906" lon="8.88545">
        <ele>1326</ele>
        <time>2021-08-03T10:14:36.359Z</time>
      </trkpt>
      <trkpt lat="47.01905" lon="8.88544">
        <ele>1325</ele>
        <time>2021-08-03T10:14:37.359Z</time>
      </trkpt>
      <trkpt lat="47.01905" lon="8.88543">
        <ele>1325</ele>
        <time>2021-08-03T10:14:38.359Z</time>
      </trkpt>
      <trkpt lat="47.01905" lon="8.88543">
        <ele>1325</ele>
        <time>2021-08-03T10:14:39.359Z</time>
      </trkpt>
      <trkpt lat="47.01904" lon="8.88542">
        <ele>1325</ele>
        <time>2021-08-03T10:14:40.359Z</time>
      </trkpt>
      <trkpt lat="47.01904" lon="8.88542">
        <ele>1325</ele>
        <time>2021-08-03T10:14:41.359Z</time>
      </trkpt>
      <trkpt lat="47.01903" lon="8.88541">
        <ele>1325</ele>
        <time>2021-08-03T10:14:42.359Z</time>
      </trkpt>
      <trkpt lat="47.01902" lon="8.8854">
        <ele>1325</ele>
        <time>2021-08-03T10:14:43.359Z</time>
      </trkpt>
      <trkpt lat="47.01902" lon="8.8854">
        <ele>1325</ele>
        <time>2021-08-03T10:14:44.359Z</time>
      </trkpt>
      <trkpt lat="47.01901" lon="8.88539">
        <ele>1325</ele>
        <time>2021-08-03T10:14:45.359Z</time>
      </trkpt>
      <trkpt lat="47.019" lon="8.88539">
        <ele>1325</ele>
        <time>2021-08-03T10:14:46.358Z</time>
      </trkpt>
      <trkpt lat="47.019" lon="8.88539">
        <ele>1325</ele>
        <time>2021-08-03T10:14:47.359Z</time>
      </trkpt>
      <trkpt lat="47.01899" lon="8.88538">
        <ele>1325</ele>
        <time>2021-08-03T10:14:48.358Z</time>
      </trkpt>
      <trkpt lat="47.01898" lon="8.88538">
        <ele>1325</ele>
        <time>2021-08-03T10:14:49.358Z</time>
      </trkpt>
      <trkpt lat="47.01896" lon="8.88537">
        <ele>1325</ele>
        <time>2021-08-03T10:14:50.359Z</time>
      </trkpt>
      <trkpt lat="47.01896" lon="8.88537">
        <ele>1325</ele>
        <time>2021-08-03T10:14:51.358Z</time>
      </trkpt>
      <trkpt lat="47.01895" lon="8.88537">
        <ele>1325</ele>
        <time>2021-08-03T10:14:52.359Z</time>
      </trkpt>
      <trkpt lat="47.01894" lon="8.88536">
        <ele>1325</ele>
        <time>2021-08-03T10:14:53.359Z</time>
      </trkpt>
      <trkpt lat="47.01893" lon="8.88536">
        <ele>1325</ele>
        <time>2021-08-03T10:14:54.358Z</time>
      </trkpt>
      <trkpt lat="47.01892" lon="8.88536">
        <ele>1325</ele>
        <time>2021-08-03T10:14:55.358Z</time>
      </trkpt>
      <trkpt lat="47.01891" lon="8.88536">
        <ele>1325</ele>
        <time>2021-08-03T10:14:56.358Z</time>
      </trkpt>
      <trkpt lat="47.01891" lon="8.88535">
        <ele>1325</ele>
        <time>2021-08-03T10:14:57.358Z</time>
      </trkpt>
      <trkpt lat="47.01891" lon="8.88534">
        <ele>1326</ele>
        <time>2021-08-03T10:14:58.358Z</time>
      </trkpt>
      <trkpt lat="47.01891" lon="8.88534">
        <ele>1326</ele>
        <time>2021-08-03T10:14:59.358Z</time>
      </trkpt>
      <trkpt lat="47.0189" lon="8.88533">
        <ele>1326</ele>
        <time>2021-08-03T10:15:00.358Z</time>
      </trkpt>
      <trkpt lat="47.0189" lon="8.88532">
        <ele>1326</ele>
        <time>2021-08-03T10:15:01.358Z</time>
      </trkpt>
      <trkpt lat="47.01889" lon="8.88532">
        <ele>1326</ele>
        <time>2021-08-03T10:15:02.358Z</time>
      </trkpt>
      <trkpt lat="47.01889" lon="8.88532">
        <ele>1326</ele>
        <time>2021-08-03T10:15:03.358Z</time>
      </trkpt>
      <trkpt lat="47.01888" lon="8.88531">
        <ele>1327</ele>
        <time>2021-08-03T10:15:04.358Z</time>
      </trkpt>
      <trkpt lat="47.01888" lon="8.88532">
        <ele>1327</ele>
        <time>2021-08-03T10:15:05.358Z</time>
      </trkpt>
      <trkpt lat="47.01888" lon="8.88532">
        <ele>1327</ele>
        <time>2021-08-03T10:15:06.358Z</time>
      </trkpt>
      <trkpt lat="47.01888" lon="8.88531">
        <ele>1327</ele>
        <time>2021-08-03T10:15:07.358Z</time>
      </trkpt>
      <trkpt lat="47.01889" lon="8.88532">
        <ele>1328</ele>
        <time>2021-08-03T10:15:08.359Z</time>
      </trkpt>
      <trkpt lat="47.01885" lon="8.88528">
        <ele>1329</ele>
        <time>2021-08-03T10:15:09.358Z</time>
      </trkpt>
      <trkpt lat="47.01884" lon="8.88528">
        <ele>1328</ele>
        <time>2021-08-03T10:15:10.358Z</time>
      </trkpt>
      <trkpt lat="47.01884" lon="8.88528">
        <ele>1328</ele>
        <time>2021-08-03T10:15:11.358Z</time>
      </trkpt>
      <trkpt lat="47.01883" lon="8.88527">
        <ele>1328</ele>
        <time>2021-08-03T10:15:12.359Z</time>
      </trkpt>
      <trkpt lat="47.01883" lon="8.88528">
        <ele>1328</ele>
        <time>2021-08-03T10:15:13.358Z</time>
      </trkpt>
      <trkpt lat="47.01882" lon="8.88528">
        <ele>1328</ele>
        <time>2021-08-03T10:15:14.358Z</time>
      </trkpt>
      <trkpt lat="47.01882" lon="8.88527">
        <ele>1328</ele>
        <time>2021-08-03T10:15:15.359Z</time>
      </trkpt>
      <trkpt lat="47.01882" lon="8.88527">
        <ele>1329</ele>
        <time>2021-08-03T10:15:16.359Z</time>
      </trkpt>
      <trkpt lat="47.01881" lon="8.88527">
        <ele>1329</ele>
        <time>2021-08-03T10:15:17.359Z</time>
      </trkpt>
      <trkpt lat="47.01881" lon="8.88527">
        <ele>1329</ele>
        <time>2021-08-03T10:15:18.358Z</time>
      </trkpt>
      <trkpt lat="47.0188" lon="8.88526">
        <ele>1329</ele>
        <time>2021-08-03T10:15:19.359Z</time>
      </trkpt>
      <trkpt lat="47.01879" lon="8.88525">
        <ele>1329</ele>
        <time>2021-08-03T10:15:20.358Z</time>
      </trkpt>
      <trkpt lat="47.01879" lon="8.88525">
        <ele>1330</ele>
        <time>2021-08-03T10:15:21.359Z</time>
      </trkpt>
      <trkpt lat="47.01878" lon="8.88523">
        <ele>1330</ele>
        <time>2021-08-03T10:15:22.359Z</time>
      </trkpt>
      <trkpt lat="47.01877" lon="8.88523">
        <ele>1331</ele>
        <time>2021-08-03T10:15:23.359Z</time>
      </trkpt>
      <trkpt lat="47.01877" lon="8.88523">
        <ele>1332</ele>
        <time>2021-08-03T10:15:24.359Z</time>
      </trkpt>
      <trkpt lat="47.01876" lon="8.88522">
        <ele>1333</ele>
        <time>2021-08-03T10:15:25.358Z</time>
      </trkpt>
      <trkpt lat="47.01875" lon="8.88522">
        <ele>1334</ele>
        <time>2021-08-03T10:15:26.358Z</time>
      </trkpt>
      <trkpt lat="47.01875" lon="8.88522">
        <ele>1334</ele>
        <time>2021-08-03T10:15:27.359Z</time>
      </trkpt>
      <trkpt lat="47.01874" lon="8.88521">
        <ele>1335</ele>
        <time>2021-08-03T10:15:28.359Z</time>
      </trkpt>
      <trkpt lat="47.01873" lon="8.88521">
        <ele>1336</ele>
        <time>2021-08-03T10:15:29.359Z</time>
      </trkpt>
      <trkpt lat="47.01873" lon="8.88521">
        <ele>1336</ele>
        <time>2021-08-03T10:15:30.358Z</time>
      </trkpt>
      <trkpt lat="47.01872" lon="8.88521">
        <ele>1337</ele>
        <time>2021-08-03T10:15:31.359Z</time>
      </trkpt>
      <trkpt lat="47.01871" lon="8.88521">
        <ele>1337</ele>
        <time>2021-08-03T10:15:32.358Z</time>
      </trkpt>
      <trkpt lat="47.01871" lon="8.8852">
        <ele>1337</ele>
        <time>2021-08-03T10:15:33.358Z</time>
      </trkpt>
      <trkpt lat="47.0187" lon="8.88519">
        <ele>1337</ele>
        <time>2021-08-03T10:15:34.359Z</time>
      </trkpt>
      <trkpt lat="47.01869" lon="8.8852">
        <ele>1338</ele>
        <time>2021-08-03T10:15:35.359Z</time>
      </trkpt>
      <trkpt lat="47.01868" lon="8.8852">
        <ele>1338</ele>
        <time>2021-08-03T10:15:36.359Z</time>
      </trkpt>
      <trkpt lat="47.01868" lon="8.88519">
        <ele>1338</ele>
        <time>2021-08-03T10:15:37.359Z</time>
      </trkpt>
      <trkpt lat="47.01867" lon="8.88519">
        <ele>1338</ele>
        <time>2021-08-03T10:15:38.359Z</time>
      </trkpt>
      <trkpt lat="47.01865" lon="8.88519">
        <ele>1338</ele>
        <time>2021-08-03T10:15:39.235Z</time>
      </trkpt>
      <trkpt lat="47.01865" lon="8.88519">
        <ele>1338</ele>
        <time>2021-08-03T10:15:40.235Z</time>
      </trkpt>
      <trkpt lat="47.01864" lon="8.88518">
        <ele>1338</ele>
        <time>2021-08-03T10:15:41.359Z</time>
      </trkpt>
      <trkpt lat="47.01862" lon="8.88517">
        <ele>1337</ele>
        <time>2021-08-03T10:15:42.359Z</time>
      </trkpt>
      <trkpt lat="47.01861" lon="8.88517">
        <ele>1337</ele>
        <time>2021-08-03T10:15:43.235Z</time>
      </trkpt>
      <trkpt lat="47.01861" lon="8.88516">
        <ele>1337</ele>
        <time>2021-08-03T10:15:44.360Z</time>
      </trkpt>
      <trkpt lat="47.0186" lon="8.88515">
        <ele>1337</ele>
        <time>2021-08-03T10:15:45.360Z</time>
      </trkpt>
      <trkpt lat="47.01859" lon="8.88516">
        <ele>1337</ele>
        <time>2021-08-03T10:15:46.359Z</time>
      </trkpt>
      <trkpt lat="47.01856" lon="8.88515">
        <ele>1336</ele>
        <time>2021-08-03T10:15:47.236Z</time>
      </trkpt>
      <trkpt lat="47.01855" lon="8.88515">
        <ele>1336</ele>
        <time>2021-08-03T10:15:48.236Z</time>
      </trkpt>
      <trkpt lat="47.01854" lon="8.88514">
        <ele>1336</ele>
        <time>2021-08-03T10:15:49.236Z</time>
      </trkpt>
      <trkpt lat="47.01854" lon="8.88514">
        <ele>1336</ele>
        <time>2021-08-03T10:15:50.236Z</time>
      </trkpt>
      <trkpt lat="47.01853" lon="8.88514">
        <ele>1336</ele>
        <time>2021-08-03T10:15:51.235Z</time>
      </trkpt>
      <trkpt lat="47.01852" lon="8.88514">
        <ele>1336</ele>
        <time>2021-08-03T10:15:52.236Z</time>
      </trkpt>
      <trkpt lat="47.01852" lon="8.88514">
        <ele>1336</ele>
        <time>2021-08-03T10:15:53.236Z</time>
      </trkpt>
      <trkpt lat="47.01851" lon="8.88513">
        <ele>1335</ele>
        <time>2021-08-03T10:15:54.236Z</time>
      </trkpt>
      <trkpt lat="47.0185" lon="8.88513">
        <ele>1335</ele>
        <time>2021-08-03T10:15:55.236Z</time>
      </trkpt>
      <trkpt lat="47.0185" lon="8.88513">
        <ele>1335</ele>
        <time>2021-08-03T10:15:56.236Z</time>
      </trkpt>
      <trkpt lat="47.01849" lon="8.88512">
        <ele>1335</ele>
        <time>2021-08-03T10:15:57.236Z</time>
      </trkpt>
      <trkpt lat="47.01848" lon="8.88512">
        <ele>1336</ele>
        <time>2021-08-03T10:15:58.236Z</time>
      </trkpt>
      <trkpt lat="47.01847" lon="8.88512">
        <ele>1336</ele>
        <time>2021-08-03T10:15:59.236Z</time>
      </trkpt>
      <trkpt lat="47.01846" lon="8.88511">
        <ele>1336</ele>
        <time>2021-08-03T10:16:00.236Z</time>
      </trkpt>
      <trkpt lat="47.01846" lon="8.88511">
        <ele>1336</ele>
        <time>2021-08-03T10:16:01.236Z</time>
      </trkpt>
      <trkpt lat="47.01846" lon="8.8851">
        <ele>1337</ele>
        <time>2021-08-03T10:16:02.235Z</time>
      </trkpt>
      <trkpt lat="47.01845" lon="8.88508">
        <ele>1338</ele>
        <time>2021-08-03T10:16:03.236Z</time>
      </trkpt>
      <trkpt lat="47.01844" lon="8.88507">
        <ele>1338</ele>
        <time>2021-08-03T10:16:04.236Z</time>
      </trkpt>
      <trkpt lat="47.01842" lon="8.88506">
        <ele>1339</ele>
        <time>2021-08-03T10:16:05.235Z</time>
      </trkpt>
      <trkpt lat="47.01842" lon="8.88505">
        <ele>1339</ele>
        <time>2021-08-03T10:16:06.235Z</time>
      </trkpt>
      <trkpt lat="47.01841" lon="8.88504">
        <ele>1340</ele>
        <time>2021-08-03T10:16:07.236Z</time>
      </trkpt>
      <trkpt lat="47.0184" lon="8.88504">
        <ele>1340</ele>
        <time>2021-08-03T10:16:08.236Z</time>
      </trkpt>
      <trkpt lat="47.01839" lon="8.88502">
        <ele>1341</ele>
        <time>2021-08-03T10:16:09.235Z</time>
      </trkpt>
      <trkpt lat="47.01838" lon="8.88502">
        <ele>1341</ele>
        <time>2021-08-03T10:16:10.235Z</time>
      </trkpt>
      <trkpt lat="47.01837" lon="8.88501">
        <ele>1342</ele>
        <time>2021-08-03T10:16:11.235Z</time>
      </trkpt>
      <trkpt lat="47.01836" lon="8.88502">
        <ele>1342</ele>
        <time>2021-08-03T10:16:12.236Z</time>
      </trkpt>
      <trkpt lat="47.01835" lon="8.88502">
        <ele>1342</ele>
        <time>2021-08-03T10:16:13.235Z</time>
      </trkpt>
      <trkpt lat="47.01834" lon="8.88502">
        <ele>1342</ele>
        <time>2021-08-03T10:16:14.235Z</time>
      </trkpt>
      <trkpt lat="47.01832" lon="8.88501">
        <ele>1342</ele>
        <time>2021-08-03T10:16:15.236Z</time>
      </trkpt>
      <trkpt lat="47.01831" lon="8.88501">
        <ele>1342</ele>
        <time>2021-08-03T10:16:16.236Z</time>
      </trkpt>
      <trkpt lat="47.01829" lon="8.88499">
        <ele>1344</ele>
        <time>2021-08-03T10:16:17.237Z</time>
      </trkpt>
      <trkpt lat="47.01828" lon="8.88498">
        <ele>1345</ele>
        <time>2021-08-03T10:16:18.237Z</time>
      </trkpt>
      <trkpt lat="47.01827" lon="8.88498">
        <ele>1345</ele>
        <time>2021-08-03T10:16:19.237Z</time>
      </trkpt>
      <trkpt lat="47.01827" lon="8.88496">
        <ele>1346</ele>
        <time>2021-08-03T10:16:20.237Z</time>
      </trkpt>
      <trkpt lat="47.01827" lon="8.88496">
        <ele>1346</ele>
        <time>2021-08-03T10:16:21.237Z</time>
      </trkpt>
      <trkpt lat="47.01827" lon="8.88495">
        <ele>1346</ele>
        <time>2021-08-03T10:16:22.236Z</time>
      </trkpt>
      <trkpt lat="47.01826" lon="8.88495">
        <ele>1347</ele>
        <time>2021-08-03T10:16:23.236Z</time>
      </trkpt>
      <trkpt lat="47.01826" lon="8.88495">
        <ele>1347</ele>
        <time>2021-08-03T10:16:24.237Z</time>
      </trkpt>
      <trkpt lat="47.01825" lon="8.88494">
        <ele>1347</ele>
        <time>2021-08-03T10:16:25.237Z</time>
      </trkpt>
      <trkpt lat="47.01825" lon="8.88493">
        <ele>1347</ele>
        <time>2021-08-03T10:16:26.237Z</time>
      </trkpt>
      <trkpt lat="47.01825" lon="8.88493">
        <ele>1347</ele>
        <time>2021-08-03T10:16:27.236Z</time>
      </trkpt>
      <trkpt lat="47.01825" lon="8.88492">
        <ele>1347</ele>
        <time>2021-08-03T10:16:28.237Z</time>
      </trkpt>
      <trkpt lat="47.01824" lon="8.88491">
        <ele>1346</ele>
        <time>2021-08-03T10:16:29.237Z</time>
      </trkpt>
      <trkpt lat="47.01824" lon="8.8849">
        <ele>1346</ele>
        <time>2021-08-03T10:16:30.237Z</time>
      </trkpt>
      <trkpt lat="47.01823" lon="8.8849">
        <ele>1346</ele>
        <time>2021-08-03T10:16:31.236Z</time>
      </trkpt>
      <trkpt lat="47.01823" lon="8.88489">
        <ele>1346</ele>
        <time>2021-08-03T10:16:32.237Z</time>
      </trkpt>
      <trkpt lat="47.01823" lon="8.88489">
        <ele>1346</ele>
        <time>2021-08-03T10:16:33.237Z</time>
      </trkpt>
      <trkpt lat="47.01822" lon="8.88488">
        <ele>1346</ele>
        <time>2021-08-03T10:16:34.237Z</time>
      </trkpt>
      <trkpt lat="47.01822" lon="8.88487">
        <ele>1346</ele>
        <time>2021-08-03T10:16:35.237Z</time>
      </trkpt>
      <trkpt lat="47.01821" lon="8.88485">
        <ele>1347</ele>
        <time>2021-08-03T10:16:36.237Z</time>
      </trkpt>
      <trkpt lat="47.0182" lon="8.88483">
        <ele>1347</ele>
        <time>2021-08-03T10:16:37.237Z</time>
      </trkpt>
      <trkpt lat="47.01819" lon="8.88481">
        <ele>1347</ele>
        <time>2021-08-03T10:16:38.237Z</time>
      </trkpt>
      <trkpt lat="47.01818" lon="8.8848">
        <ele>1347</ele>
        <time>2021-08-03T10:16:39.236Z</time>
      </trkpt>
      <trkpt lat="47.01817" lon="8.88478">
        <ele>1347</ele>
        <time>2021-08-03T10:16:40.236Z</time>
      </trkpt>
      <trkpt lat="47.01816" lon="8.88477">
        <ele>1347</ele>
        <time>2021-08-03T10:16:41.237Z</time>
      </trkpt>
      <trkpt lat="47.01815" lon="8.88475">
        <ele>1347</ele>
        <time>2021-08-03T10:16:42.237Z</time>
      </trkpt>
      <trkpt lat="47.01814" lon="8.88474">
        <ele>1348</ele>
        <time>2021-08-03T10:16:43.237Z</time>
      </trkpt>
      <trkpt lat="47.01813" lon="8.88473">
        <ele>1348</ele>
        <time>2021-08-03T10:16:44.237Z</time>
      </trkpt>
      <trkpt lat="47.01813" lon="8.88471">
        <ele>1348</ele>
        <time>2021-08-03T10:16:45.236Z</time>
      </trkpt>
      <trkpt lat="47.01812" lon="8.8847">
        <ele>1349</ele>
        <time>2021-08-03T10:16:46.237Z</time>
      </trkpt>
      <trkpt lat="47.01812" lon="8.88469">
        <ele>1349</ele>
        <time>2021-08-03T10:16:47.236Z</time>
      </trkpt>
      <trkpt lat="47.01811" lon="8.88469">
        <ele>1349</ele>
        <time>2021-08-03T10:16:48.237Z</time>
      </trkpt>
      <trkpt lat="47.0181" lon="8.88468">
        <ele>1349</ele>
        <time>2021-08-03T10:16:49.236Z</time>
      </trkpt>
      <trkpt lat="47.01809" lon="8.88468">
        <ele>1349</ele>
        <time>2021-08-03T10:16:50.237Z</time>
      </trkpt>
      <trkpt lat="47.01807" lon="8.88468">
        <ele>1350</ele>
        <time>2021-08-03T10:16:51.237Z</time>
      </trkpt>
      <trkpt lat="47.01806" lon="8.88468">
        <ele>1350</ele>
        <time>2021-08-03T10:16:52.236Z</time>
      </trkpt>
      <trkpt lat="47.01805" lon="8.88468">
        <ele>1350</ele>
        <time>2021-08-03T10:16:53.236Z</time>
      </trkpt>
      <trkpt lat="47.01804" lon="8.88469">
        <ele>1351</ele>
        <time>2021-08-03T10:16:54.236Z</time>
      </trkpt>
      <trkpt lat="47.01803" lon="8.88469">
        <ele>1351</ele>
        <time>2021-08-03T10:16:55.236Z</time>
      </trkpt>
      <trkpt lat="47.01802" lon="8.88469">
        <ele>1352</ele>
        <time>2021-08-03T10:16:56.236Z</time>
      </trkpt>
      <trkpt lat="47.018" lon="8.88469">
        <ele>1352</ele>
        <time>2021-08-03T10:16:57.236Z</time>
      </trkpt>
      <trkpt lat="47.01799" lon="8.88468">
        <ele>1353</ele>
        <time>2021-08-03T10:16:58.237Z</time>
      </trkpt>
      <trkpt lat="47.01798" lon="8.88468">
        <ele>1353</ele>
        <time>2021-08-03T10:16:59.236Z</time>
      </trkpt>
      <trkpt lat="47.01797" lon="8.88468">
        <ele>1354</ele>
        <time>2021-08-03T10:17:00.236Z</time>
      </trkpt>
      <trkpt lat="47.01796" lon="8.88467">
        <ele>1354</ele>
        <time>2021-08-03T10:17:01.236Z</time>
      </trkpt>
      <trkpt lat="47.01796" lon="8.88467">
        <ele>1355</ele>
        <time>2021-08-03T10:17:02.236Z</time>
      </trkpt>
      <trkpt lat="47.01793" lon="8.88465">
        <ele>1357</ele>
        <time>2021-08-03T10:17:03.238Z</time>
      </trkpt>
      <trkpt lat="47.01794" lon="8.88465">
        <ele>1357</ele>
        <time>2021-08-03T10:17:04.237Z</time>
      </trkpt>
      <trkpt lat="47.01794" lon="8.88464">
        <ele>1357</ele>
        <time>2021-08-03T10:17:05.238Z</time>
      </trkpt>
      <trkpt lat="47.01794" lon="8.88464">
        <ele>1357</ele>
        <time>2021-08-03T10:17:06.238Z</time>
      </trkpt>
      <trkpt lat="47.01793" lon="8.88463">
        <ele>1357</ele>
        <time>2021-08-03T10:17:07.238Z</time>
      </trkpt>
      <trkpt lat="47.01792" lon="8.88461">
        <ele>1357</ele>
        <time>2021-08-03T10:17:08.238Z</time>
      </trkpt>
      <trkpt lat="47.0179" lon="8.8846">
        <ele>1357</ele>
        <time>2021-08-03T10:17:09.238Z</time>
      </trkpt>
      <trkpt lat="47.01788" lon="8.88459">
        <ele>1356</ele>
        <time>2021-08-03T10:17:10.238Z</time>
      </trkpt>
      <trkpt lat="47.01785" lon="8.88458">
        <ele>1356</ele>
        <time>2021-08-03T10:17:11.237Z</time>
      </trkpt>
      <trkpt lat="47.01784" lon="8.88456">
        <ele>1354</ele>
        <time>2021-08-03T10:17:12.238Z</time>
      </trkpt>
      <trkpt lat="47.01784" lon="8.88454">
        <ele>1354</ele>
        <time>2021-08-03T10:17:13.237Z</time>
      </trkpt>
      <trkpt lat="47.01784" lon="8.88453">
        <ele>1354</ele>
        <time>2021-08-03T10:17:14.237Z</time>
      </trkpt>
      <trkpt lat="47.01783" lon="8.88453">
        <ele>1354</ele>
        <time>2021-08-03T10:17:15.237Z</time>
      </trkpt>
      <trkpt lat="47.01783" lon="8.88452">
        <ele>1354</ele>
        <time>2021-08-03T10:17:16.237Z</time>
      </trkpt>
      <trkpt lat="47.01782" lon="8.88451">
        <ele>1354</ele>
        <time>2021-08-03T10:17:17.238Z</time>
      </trkpt>
      <trkpt lat="47.01782" lon="8.88451">
        <ele>1354</ele>
        <time>2021-08-03T10:17:18.237Z</time>
      </trkpt>
      <trkpt lat="47.01781" lon="8.8845">
        <ele>1355</ele>
        <time>2021-08-03T10:17:19.237Z</time>
      </trkpt>
      <trkpt lat="47.01781" lon="8.8845">
        <ele>1356</ele>
        <time>2021-08-03T10:17:20.238Z</time>
      </trkpt>
      <trkpt lat="47.0178" lon="8.88449">
        <ele>1356</ele>
        <time>2021-08-03T10:17:21.238Z</time>
      </trkpt>
      <trkpt lat="47.01779" lon="8.88449">
        <ele>1357</ele>
        <time>2021-08-03T10:17:22.237Z</time>
      </trkpt>
      <trkpt lat="47.01777" lon="8.88448">
        <ele>1358</ele>
        <time>2021-08-03T10:17:23.238Z</time>
      </trkpt>
      <trkpt lat="47.01776" lon="8.88448">
        <ele>1359</ele>
        <time>2021-08-03T10:17:24.238Z</time>
      </trkpt>
      <trkpt lat="47.01775" lon="8.88448">
        <ele>1359</ele>
        <time>2021-08-03T10:17:25.237Z</time>
      </trkpt>
      <trkpt lat="47.01774" lon="8.88448">
        <ele>1360</ele>
        <time>2021-08-03T10:17:26.238Z</time>
      </trkpt>
      <trkpt lat="47.01774" lon="8.88447">
        <ele>1360</ele>
        <time>2021-08-03T10:17:27.238Z</time>
      </trkpt>
      <trkpt lat="47.01774" lon="8.88446">
        <ele>1361</ele>
        <time>2021-08-03T10:17:28.238Z</time>
      </trkpt>
      <trkpt lat="47.01773" lon="8.88445">
        <ele>1362</ele>
        <time>2021-08-03T10:17:29.237Z</time>
      </trkpt>
      <trkpt lat="47.01772" lon="8.88444">
        <ele>1362</ele>
        <time>2021-08-03T10:17:30.238Z</time>
      </trkpt>
      <trkpt lat="47.01771" lon="8.88443">
        <ele>1362</ele>
        <time>2021-08-03T10:17:31.237Z</time>
      </trkpt>
      <trkpt lat="47.0177" lon="8.88442">
        <ele>1363</ele>
        <time>2021-08-03T10:17:32.238Z</time>
      </trkpt>
      <trkpt lat="47.01769" lon="8.88441">
        <ele>1363</ele>
        <time>2021-08-03T10:17:33.238Z</time>
      </trkpt>
      <trkpt lat="47.01768" lon="8.88441">
        <ele>1364</ele>
        <time>2021-08-03T10:17:34.238Z</time>
      </trkpt>
      <trkpt lat="47.01768" lon="8.8844">
        <ele>1364</ele>
        <time>2021-08-03T10:17:35.238Z</time>
      </trkpt>
      <trkpt lat="47.01767" lon="8.88439">
        <ele>1364</ele>
        <time>2021-08-03T10:17:36.237Z</time>
      </trkpt>
      <trkpt lat="47.01766" lon="8.88439">
        <ele>1365</ele>
        <time>2021-08-03T10:17:37.238Z</time>
      </trkpt>
      <trkpt lat="47.01766" lon="8.88438">
        <ele>1365</ele>
        <time>2021-08-03T10:17:38.238Z</time>
      </trkpt>
      <trkpt lat="47.01765" lon="8.88438">
        <ele>1365</ele>
        <time>2021-08-03T10:17:39.238Z</time>
      </trkpt>
      <trkpt lat="47.01765" lon="8.88437">
        <ele>1365</ele>
        <time>2021-08-03T10:17:40.237Z</time>
      </trkpt>
      <trkpt lat="47.01765" lon="8.88437">
        <ele>1365</ele>
        <time>2021-08-03T10:17:41.237Z</time>
      </trkpt>
      <trkpt lat="47.01764" lon="8.88436">
        <ele>1365</ele>
        <time>2021-08-03T10:17:42.237Z</time>
      </trkpt>
      <trkpt lat="47.01764" lon="8.88435">
        <ele>1364</ele>
        <time>2021-08-03T10:17:43.238Z</time>
      </trkpt>
      <trkpt lat="47.01761" lon="8.88433">
        <ele>1363</ele>
        <time>2021-08-03T10:17:44.240Z</time>
      </trkpt>
      <trkpt lat="47.0176" lon="8.88432">
        <ele>1363</ele>
        <time>2021-08-03T10:17:45.240Z</time>
      </trkpt>
      <trkpt lat="47.01759" lon="8.88431">
        <ele>1362</ele>
        <time>2021-08-03T10:17:46.239Z</time>
      </trkpt>
      <trkpt lat="47.01758" lon="8.88432">
        <ele>1362</ele>
        <time>2021-08-03T10:17:47.239Z</time>
      </trkpt>
      <trkpt lat="47.01757" lon="8.88432">
        <ele>1362</ele>
        <time>2021-08-03T10:17:48.240Z</time>
      </trkpt>
      <trkpt lat="47.01756" lon="8.88433">
        <ele>1361</ele>
        <time>2021-08-03T10:17:49.240Z</time>
      </trkpt>
      <trkpt lat="47.01755" lon="8.88433">
        <ele>1361</ele>
        <time>2021-08-03T10:17:50.239Z</time>
      </trkpt>
      <trkpt lat="47.01754" lon="8.88432">
        <ele>1361</ele>
        <time>2021-08-03T10:17:51.240Z</time>
      </trkpt>
      <trkpt lat="47.01755" lon="8.88432">
        <ele>1361</ele>
        <time>2021-08-03T10:17:52.239Z</time>
      </trkpt>
      <trkpt lat="47.01753" lon="8.88431">
        <ele>1360</ele>
        <time>2021-08-03T10:17:53.240Z</time>
      </trkpt>
      <trkpt lat="47.01753" lon="8.88431">
        <ele>1359</ele>
        <time>2021-08-03T10:17:54.241Z</time>
      </trkpt>
      <trkpt lat="47.01752" lon="8.88431">
        <ele>1359</ele>
        <time>2021-08-03T10:17:55.240Z</time>
      </trkpt>
      <trkpt lat="47.01751" lon="8.8843">
        <ele>1359</ele>
        <time>2021-08-03T10:17:56.240Z</time>
      </trkpt>
      <trkpt lat="47.01751" lon="8.8843">
        <ele>1358</ele>
        <time>2021-08-03T10:17:57.241Z</time>
      </trkpt>
      <trkpt lat="47.01751" lon="8.88429">
        <ele>1358</ele>
        <time>2021-08-03T10:17:58.241Z</time>
      </trkpt>
      <trkpt lat="47.0175" lon="8.88429">
        <ele>1358</ele>
        <time>2021-08-03T10:17:59.240Z</time>
      </trkpt>
      <trkpt lat="47.0175" lon="8.8843">
        <ele>1357</ele>
        <time>2021-08-03T10:18:00.241Z</time>
      </trkpt>
      <trkpt lat="47.01749" lon="8.8843">
        <ele>1357</ele>
        <time>2021-08-03T10:18:01.240Z</time>
      </trkpt>
      <trkpt lat="47.01749" lon="8.88429">
        <ele>1358</ele>
        <time>2021-08-03T10:18:02.240Z</time>
      </trkpt>
      <trkpt lat="47.0175" lon="8.88428">
        <ele>1358</ele>
        <time>2021-08-03T10:18:03.241Z</time>
      </trkpt>
      <trkpt lat="47.0175" lon="8.88427">
        <ele>1358</ele>
        <time>2021-08-03T10:18:04.241Z</time>
      </trkpt>
      <trkpt lat="47.01749" lon="8.88426">
        <ele>1358</ele>
        <time>2021-08-03T10:18:05.241Z</time>
      </trkpt>
      <trkpt lat="47.01749" lon="8.88425">
        <ele>1358</ele>
        <time>2021-08-03T10:18:06.241Z</time>
      </trkpt>
      <trkpt lat="47.01749" lon="8.88425">
        <ele>1358</ele>
        <time>2021-08-03T10:18:07.241Z</time>
      </trkpt>
      <trkpt lat="47.01749" lon="8.88424">
        <ele>1358</ele>
        <time>2021-08-03T10:18:08.241Z</time>
      </trkpt>
      <trkpt lat="47.0175" lon="8.88424">
        <ele>1359</ele>
        <time>2021-08-03T10:18:09.240Z</time>
      </trkpt>
      <trkpt lat="47.01749" lon="8.88423">
        <ele>1359</ele>
        <time>2021-08-03T10:18:10.240Z</time>
      </trkpt>
      <trkpt lat="47.01747" lon="8.88423">
        <ele>1358</ele>
        <time>2021-08-03T10:18:11.240Z</time>
      </trkpt>
      <trkpt lat="47.01746" lon="8.88423">
        <ele>1358</ele>
        <time>2021-08-03T10:18:12.240Z</time>
      </trkpt>
      <trkpt lat="47.01744" lon="8.88423">
        <ele>1358</ele>
        <time>2021-08-03T10:18:13.241Z</time>
      </trkpt>
      <trkpt lat="47.01744" lon="8.88423">
        <ele>1358</ele>
        <time>2021-08-03T10:18:14.240Z</time>
      </trkpt>
      <trkpt lat="47.01743" lon="8.88424">
        <ele>1358</ele>
        <time>2021-08-03T10:18:15.240Z</time>
      </trkpt>
      <trkpt lat="47.01741" lon="8.88424">
        <ele>1359</ele>
        <time>2021-08-03T10:18:16.242Z</time>
      </trkpt>
      <trkpt lat="47.0174" lon="8.88424">
        <ele>1359</ele>
        <time>2021-08-03T10:18:17.242Z</time>
      </trkpt>
      <trkpt lat="47.01738" lon="8.88424">
        <ele>1360</ele>
        <time>2021-08-03T10:18:18.241Z</time>
      </trkpt>
      <trkpt lat="47.01737" lon="8.88423">
        <ele>1360</ele>
        <time>2021-08-03T10:18:19.241Z</time>
      </trkpt>
      <trkpt lat="47.01735" lon="8.88423">
        <ele>1360</ele>
        <time>2021-08-03T10:18:20.241Z</time>
      </trkpt>
      <trkpt lat="47.01734" lon="8.88424">
        <ele>1360</ele>
        <time>2021-08-03T10:18:21.242Z</time>
      </trkpt>
      <trkpt lat="47.0173" lon="8.88429">
        <ele>1356</ele>
        <time>2021-08-03T10:18:22.242Z</time>
      </trkpt>
      <trkpt lat="47.0173" lon="8.88428">
        <ele>1356</ele>
        <time>2021-08-03T10:18:23.242Z</time>
      </trkpt>
      <trkpt lat="47.01731" lon="8.88427">
        <ele>1356</ele>
        <time>2021-08-03T10:18:24.242Z</time>
      </trkpt>
      <trkpt lat="47.01731" lon="8.88428">
        <ele>1356</ele>
        <time>2021-08-03T10:18:25.241Z</time>
      </trkpt>
      <trkpt lat="47.01731" lon="8.88428">
        <ele>1356</ele>
        <time>2021-08-03T10:18:26.241Z</time>
      </trkpt>
      <trkpt lat="47.0173" lon="8.88429">
        <ele>1356</ele>
        <time>2021-08-03T10:18:27.242Z</time>
      </trkpt>
      <trkpt lat="47.01729" lon="8.88429">
        <ele>1356</ele>
        <time>2021-08-03T10:18:28.241Z</time>
      </trkpt>
      <trkpt lat="47.01726" lon="8.8843">
        <ele>1356</ele>
        <time>2021-08-03T10:18:29.242Z</time>
      </trkpt>
      <trkpt lat="47.01724" lon="8.88432">
        <ele>1356</ele>
        <time>2021-08-03T10:18:30.242Z</time>
      </trkpt>
      <trkpt lat="47.01722" lon="8.88433">
        <ele>1356</ele>
        <time>2021-08-03T10:18:31.241Z</time>
      </trkpt>
      <trkpt lat="47.01721" lon="8.88434">
        <ele>1357</ele>
        <time>2021-08-03T10:18:32.242Z</time>
      </trkpt>
      <trkpt lat="47.0172" lon="8.88433">
        <ele>1357</ele>
        <time>2021-08-03T10:18:33.242Z</time>
      </trkpt>
      <trkpt lat="47.01719" lon="8.88432">
        <ele>1357</ele>
        <time>2021-08-03T10:18:34.242Z</time>
      </trkpt>
      <trkpt lat="47.01718" lon="8.88431">
        <ele>1357</ele>
        <time>2021-08-03T10:18:35.241Z</time>
      </trkpt>
      <trkpt lat="47.01717" lon="8.88428">
        <ele>1357</ele>
        <time>2021-08-03T10:18:36.241Z</time>
      </trkpt>
      <trkpt lat="47.01716" lon="8.88426">
        <ele>1358</ele>
        <time>2021-08-03T10:18:37.241Z</time>
      </trkpt>
      <trkpt lat="47.01715" lon="8.88424">
        <ele>1358</ele>
        <time>2021-08-03T10:18:38.241Z</time>
      </trkpt>
      <trkpt lat="47.01714" lon="8.8842">
        <ele>1358</ele>
        <time>2021-08-03T10:18:39.242Z</time>
      </trkpt>
      <trkpt lat="47.01714" lon="8.88418">
        <ele>1358</ele>
        <time>2021-08-03T10:18:40.242Z</time>
      </trkpt>
      <trkpt lat="47.01713" lon="8.88416">
        <ele>1359</ele>
        <time>2021-08-03T10:18:41.242Z</time>
      </trkpt>
      <trkpt lat="47.01712" lon="8.88414">
        <ele>1359</ele>
        <time>2021-08-03T10:18:42.242Z</time>
      </trkpt>
      <trkpt lat="47.01711" lon="8.88413">
        <ele>1359</ele>
        <time>2021-08-03T10:18:43.241Z</time>
      </trkpt>
      <trkpt lat="47.0171" lon="8.88413">
        <ele>1359</ele>
        <time>2021-08-03T10:18:44.241Z</time>
      </trkpt>
      <trkpt lat="47.0171" lon="8.88414">
        <ele>1359</ele>
        <time>2021-08-03T10:18:45.241Z</time>
      </trkpt>
      <trkpt lat="47.01711" lon="8.88414">
        <ele>1359</ele>
        <time>2021-08-03T10:18:46.242Z</time>
      </trkpt>
      <trkpt lat="47.01711" lon="8.88416">
        <ele>1359</ele>
        <time>2021-08-03T10:18:47.241Z</time>
      </trkpt>
      <trkpt lat="47.01711" lon="8.88415">
        <ele>1359</ele>
        <time>2021-08-03T10:18:48.241Z</time>
      </trkpt>
      <trkpt lat="47.01711" lon="8.88414">
        <ele>1358</ele>
        <time>2021-08-03T10:18:49.242Z</time>
      </trkpt>
      <trkpt lat="47.0171" lon="8.88413">
        <ele>1358</ele>
        <time>2021-08-03T10:18:50.241Z</time>
      </trkpt>
      <trkpt lat="47.0171" lon="8.88411">
        <ele>1357</ele>
        <time>2021-08-03T10:18:51.242Z</time>
      </trkpt>
      <trkpt lat="47.01709" lon="8.88408">
        <ele>1357</ele>
        <time>2021-08-03T10:18:52.242Z</time>
      </trkpt>
      <trkpt lat="47.01709" lon="8.88407">
        <ele>1356</ele>
        <time>2021-08-03T10:18:53.242Z</time>
      </trkpt>
      <trkpt lat="47.01708" lon="8.88405">
        <ele>1356</ele>
        <time>2021-08-03T10:18:54.242Z</time>
      </trkpt>
      <trkpt lat="47.01709" lon="8.88404">
        <ele>1355</ele>
        <time>2021-08-03T10:18:55.242Z</time>
      </trkpt>
      <trkpt lat="47.01709" lon="8.88403">
        <ele>1355</ele>
        <time>2021-08-03T10:18:56.241Z</time>
      </trkpt>
      <trkpt lat="47.01709" lon="8.88403">
        <ele>1354</ele>
        <time>2021-08-03T10:18:57.241Z</time>
      </trkpt>
      <trkpt lat="47.01708" lon="8.88402">
        <ele>1354</ele>
        <time>2021-08-03T10:18:58.242Z</time>
      </trkpt>
      <trkpt lat="47.01706" lon="8.88403">
        <ele>1354</ele>
        <time>2021-08-03T10:18:59.241Z</time>
      </trkpt>
      <trkpt lat="47.01704" lon="8.88404">
        <ele>1353</ele>
        <time>2021-08-03T10:19:00.242Z</time>
      </trkpt>
      <trkpt lat="47.01702" lon="8.88404">
        <ele>1353</ele>
        <time>2021-08-03T10:19:01.242Z</time>
      </trkpt>
      <trkpt lat="47.01701" lon="8.88404">
        <ele>1353</ele>
        <time>2021-08-03T10:19:02.242Z</time>
      </trkpt>
      <trkpt lat="47.017" lon="8.88402">
        <ele>1353</ele>
        <time>2021-08-03T10:19:03.241Z</time>
      </trkpt>
      <trkpt lat="47.01698" lon="8.884">
        <ele>1353</ele>
        <time>2021-08-03T10:19:04.241Z</time>
      </trkpt>
      <trkpt lat="47.01697" lon="8.88399">
        <ele>1353</ele>
        <time>2021-08-03T10:19:05.242Z</time>
      </trkpt>
      <trkpt lat="47.01696" lon="8.88398">
        <ele>1353</ele>
        <time>2021-08-03T10:19:06.242Z</time>
      </trkpt>
      <trkpt lat="47.01695" lon="8.88397">
        <ele>1353</ele>
        <time>2021-08-03T10:19:07.242Z</time>
      </trkpt>
      <trkpt lat="47.01694" lon="8.88397">
        <ele>1353</ele>
        <time>2021-08-03T10:19:08.242Z</time>
      </trkpt>
      <trkpt lat="47.01694" lon="8.88397">
        <ele>1353</ele>
        <time>2021-08-03T10:19:09.242Z</time>
      </trkpt>
      <trkpt lat="47.01694" lon="8.88397">
        <ele>1353</ele>
        <time>2021-08-03T10:19:10.242Z</time>
      </trkpt>
      <trkpt lat="47.01695" lon="8.88397">
        <ele>1353</ele>
        <time>2021-08-03T10:19:11.241Z</time>
      </trkpt>
      <trkpt lat="47.01695" lon="8.88395">
        <ele>1353</ele>
        <time>2021-08-03T10:19:12.242Z</time>
      </trkpt>
      <trkpt lat="47.01696" lon="8.88395">
        <ele>1353</ele>
        <time>2021-08-03T10:19:13.242Z</time>
      </trkpt>
      <trkpt lat="47.01695" lon="8.88394">
        <ele>1353</ele>
        <time>2021-08-03T10:19:14.242Z</time>
      </trkpt>
      <trkpt lat="47.01694" lon="8.88394">
        <ele>1353</ele>
        <time>2021-08-03T10:19:15.242Z</time>
      </trkpt>
      <trkpt lat="47.01693" lon="8.88394">
        <ele>1353</ele>
        <time>2021-08-03T10:19:16.242Z</time>
      </trkpt>
      <trkpt lat="47.01692" lon="8.88393">
        <ele>1354</ele>
        <time>2021-08-03T10:19:17.242Z</time>
      </trkpt>
      <trkpt lat="47.01693" lon="8.88392">
        <ele>1354</ele>
        <time>2021-08-03T10:19:18.241Z</time>
      </trkpt>
      <trkpt lat="47.01694" lon="8.88391">
        <ele>1354</ele>
        <time>2021-08-03T10:19:19.242Z</time>
      </trkpt>
      <trkpt lat="47.01694" lon="8.88391">
        <ele>1354</ele>
        <time>2021-08-03T10:19:20.242Z</time>
      </trkpt>
      <trkpt lat="47.01694" lon="8.8839">
        <ele>1355</ele>
        <time>2021-08-03T10:19:21.242Z</time>
      </trkpt>
      <trkpt lat="47.01695" lon="8.88388">
        <ele>1355</ele>
        <time>2021-08-03T10:19:22.242Z</time>
      </trkpt>
      <trkpt lat="47.01694" lon="8.88387">
        <ele>1355</ele>
        <time>2021-08-03T10:19:23.242Z</time>
      </trkpt>
      <trkpt lat="47.01693" lon="8.88385">
        <ele>1356</ele>
        <time>2021-08-03T10:19:24.242Z</time>
      </trkpt>
      <trkpt lat="47.01692" lon="8.88384">
        <ele>1356</ele>
        <time>2021-08-03T10:19:25.241Z</time>
      </trkpt>
      <trkpt lat="47.0169" lon="8.88383">
        <ele>1356</ele>
        <time>2021-08-03T10:19:26.242Z</time>
      </trkpt>
      <trkpt lat="47.01689" lon="8.88382">
        <ele>1356</ele>
        <time>2021-08-03T10:19:27.241Z</time>
      </trkpt>
      <trkpt lat="47.01688" lon="8.8838">
        <ele>1356</ele>
        <time>2021-08-03T10:19:28.242Z</time>
      </trkpt>
      <trkpt lat="47.01687" lon="8.88379">
        <ele>1355</ele>
        <time>2021-08-03T10:19:29.241Z</time>
      </trkpt>
      <trkpt lat="47.01686" lon="8.88378">
        <ele>1355</ele>
        <time>2021-08-03T10:19:30.241Z</time>
      </trkpt>
      <trkpt lat="47.01685" lon="8.88377">
        <ele>1355</ele>
        <time>2021-08-03T10:19:31.242Z</time>
      </trkpt>
      <trkpt lat="47.01684" lon="8.88377">
        <ele>1355</ele>
        <time>2021-08-03T10:19:32.242Z</time>
      </trkpt>
      <trkpt lat="47.01684" lon="8.88377">
        <ele>1355</ele>
        <time>2021-08-03T10:19:33.242Z</time>
      </trkpt>
      <trkpt lat="47.01684" lon="8.88378">
        <ele>1354</ele>
        <time>2021-08-03T10:19:34.242Z</time>
      </trkpt>
      <trkpt lat="47.01684" lon="8.88378">
        <ele>1354</ele>
        <time>2021-08-03T10:19:35.242Z</time>
      </trkpt>
      <trkpt lat="47.01683" lon="8.88379">
        <ele>1354</ele>
        <time>2021-08-03T10:19:36.241Z</time>
      </trkpt>
      <trkpt lat="47.01682" lon="8.88378">
        <ele>1353</ele>
        <time>2021-08-03T10:19:37.241Z</time>
      </trkpt>
      <trkpt lat="47.01678" lon="8.88376">
        <ele>1352</ele>
        <time>2021-08-03T10:19:38.242Z</time>
      </trkpt>
      <trkpt lat="47.01677" lon="8.88375">
        <ele>1352</ele>
        <time>2021-08-03T10:19:39.242Z</time>
      </trkpt>
      <trkpt lat="47.01676" lon="8.88373">
        <ele>1351</ele>
        <time>2021-08-03T10:19:40.241Z</time>
      </trkpt>
      <trkpt lat="47.01675" lon="8.88371">
        <ele>1351</ele>
        <time>2021-08-03T10:19:41.242Z</time>
      </trkpt>
      <trkpt lat="47.01675" lon="8.88369">
        <ele>1350</ele>
        <time>2021-08-03T10:19:42.241Z</time>
      </trkpt>
      <trkpt lat="47.01674" lon="8.88367">
        <ele>1350</ele>
        <time>2021-08-03T10:19:43.242Z</time>
      </trkpt>
      <trkpt lat="47.01674" lon="8.88366">
        <ele>1349</ele>
        <time>2021-08-03T10:19:44.241Z</time>
      </trkpt>
      <trkpt lat="47.01674" lon="8.88366">
        <ele>1349</ele>
        <time>2021-08-03T10:19:45.242Z</time>
      </trkpt>
      <trkpt lat="47.01674" lon="8.88366">
        <ele>1348</ele>
        <time>2021-08-03T10:19:46.242Z</time>
      </trkpt>
      <trkpt lat="47.01674" lon="8.88367">
        <ele>1347</ele>
        <time>2021-08-03T10:19:47.242Z</time>
      </trkpt>
      <trkpt lat="47.01673" lon="8.88367">
        <ele>1347</ele>
        <time>2021-08-03T10:19:48.242Z</time>
      </trkpt>
      <trkpt lat="47.01672" lon="8.88368">
        <ele>1346</ele>
        <time>2021-08-03T10:19:49.242Z</time>
      </trkpt>
      <trkpt lat="47.01673" lon="8.88368">
        <ele>1346</ele>
        <time>2021-08-03T10:19:50.242Z</time>
      </trkpt>
      <trkpt lat="47.01674" lon="8.88367">
        <ele>1346</ele>
        <time>2021-08-03T10:19:51.242Z</time>
      </trkpt>
      <trkpt lat="47.01675" lon="8.88366">
        <ele>1345</ele>
        <time>2021-08-03T10:19:52.241Z</time>
      </trkpt>
      <trkpt lat="47.01676" lon="8.88364">
        <ele>1345</ele>
        <time>2021-08-03T10:19:53.241Z</time>
      </trkpt>
      <trkpt lat="47.01676" lon="8.88363">
        <ele>1345</ele>
        <time>2021-08-03T10:19:54.241Z</time>
      </trkpt>
      <trkpt lat="47.01675" lon="8.88363">
        <ele>1344</ele>
        <time>2021-08-03T10:19:55.241Z</time>
      </trkpt>
      <trkpt lat="47.01675" lon="8.88363">
        <ele>1344</ele>
        <time>2021-08-03T10:19:56.242Z</time>
      </trkpt>
      <trkpt lat="47.01674" lon="8.88362">
        <ele>1344</ele>
        <time>2021-08-03T10:19:57.242Z</time>
      </trkpt>
      <trkpt lat="47.01673" lon="8.88361">
        <ele>1344</ele>
        <time>2021-08-03T10:19:58.241Z</time>
      </trkpt>
      <trkpt lat="47.01669" lon="8.88359">
        <ele>1343</ele>
        <time>2021-08-03T10:19:59.242Z</time>
      </trkpt>
      <trkpt lat="47.01666" lon="8.88357">
        <ele>1343</ele>
        <time>2021-08-03T10:20:00.242Z</time>
      </trkpt>
      <trkpt lat="47.01663" lon="8.88355">
        <ele>1343</ele>
        <time>2021-08-03T10:20:01.242Z</time>
      </trkpt>
      <trkpt lat="47.01661" lon="8.88354">
        <ele>1343</ele>
        <time>2021-08-03T10:20:02.242Z</time>
      </trkpt>
      <trkpt lat="47.01659" lon="8.88353">
        <ele>1342</ele>
        <time>2021-08-03T10:20:03.241Z</time>
      </trkpt>
      <trkpt lat="47.01658" lon="8.88351">
        <ele>1342</ele>
        <time>2021-08-03T10:20:04.241Z</time>
      </trkpt>
      <trkpt lat="47.01656" lon="8.8835">
        <ele>1342</ele>
        <time>2021-08-03T10:20:05.242Z</time>
      </trkpt>
      <trkpt lat="47.01654" lon="8.88349">
        <ele>1342</ele>
        <time>2021-08-03T10:20:06.242Z</time>
      </trkpt>
      <trkpt lat="47.01652" lon="8.88348">
        <ele>1342</ele>
        <time>2021-08-03T10:20:07.242Z</time>
      </trkpt>
      <trkpt lat="47.01651" lon="8.88347">
        <ele>1343</ele>
        <time>2021-08-03T10:20:08.241Z</time>
      </trkpt>
      <trkpt lat="47.0165" lon="8.88346">
        <ele>1343</ele>
        <time>2021-08-03T10:20:09.242Z</time>
      </trkpt>
      <trkpt lat="47.0165" lon="8.88346">
        <ele>1343</ele>
        <time>2021-08-03T10:20:10.242Z</time>
      </trkpt>
      <trkpt lat="47.01649" lon="8.88345">
        <ele>1344</ele>
        <time>2021-08-03T10:20:11.242Z</time>
      </trkpt>
      <trkpt lat="47.01648" lon="8.88344">
        <ele>1344</ele>
        <time>2021-08-03T10:20:12.241Z</time>
      </trkpt>
      <trkpt lat="47.01642" lon="8.88341">
        <ele>1347</ele>
        <time>2021-08-03T10:20:13.241Z</time>
      </trkpt>
      <trkpt lat="47.01643" lon="8.88342">
        <ele>1347</ele>
        <time>2021-08-03T10:20:14.242Z</time>
      </trkpt>
      <trkpt lat="47.01643" lon="8.88343">
        <ele>1348</ele>
        <time>2021-08-03T10:20:15.241Z</time>
      </trkpt>
      <trkpt lat="47.01644" lon="8.88344">
        <ele>1349</ele>
        <time>2021-08-03T10:20:16.242Z</time>
      </trkpt>
      <trkpt lat="47.01643" lon="8.88344">
        <ele>1349</ele>
        <time>2021-08-03T10:20:17.242Z</time>
      </trkpt>
      <trkpt lat="47.01642" lon="8.88344">
        <ele>1349</ele>
        <time>2021-08-03T10:20:18.241Z</time>
      </trkpt>
      <trkpt lat="47.01642" lon="8.88344">
        <ele>1350</ele>
        <time>2021-08-03T10:20:19.242Z</time>
      </trkpt>
      <trkpt lat="47.01642" lon="8.88344">
        <ele>1350</ele>
        <time>2021-08-03T10:20:20.242Z</time>
      </trkpt>
      <trkpt lat="47.01642" lon="8.88344">
        <ele>1350</ele>
        <time>2021-08-03T10:20:21.242Z</time>
      </trkpt>
      <trkpt lat="47.01641" lon="8.88345">
        <ele>1350</ele>
        <time>2021-08-03T10:20:22.242Z</time>
      </trkpt>
      <trkpt lat="47.0164" lon="8.88344">
        <ele>1350</ele>
        <time>2021-08-03T10:20:23.241Z</time>
      </trkpt>
      <trkpt lat="47.0164" lon="8.88343">
        <ele>1350</ele>
        <time>2021-08-03T10:20:24.242Z</time>
      </trkpt>
      <trkpt lat="47.01641" lon="8.88343">
        <ele>1350</ele>
        <time>2021-08-03T10:20:25.242Z</time>
      </trkpt>
      <trkpt lat="47.01641" lon="8.88342">
        <ele>1350</ele>
        <time>2021-08-03T10:20:26.242Z</time>
      </trkpt>
      <trkpt lat="47.01641" lon="8.88342">
        <ele>1349</ele>
        <time>2021-08-03T10:20:27.241Z</time>
      </trkpt>
      <trkpt lat="47.0164" lon="8.88341">
        <ele>1349</ele>
        <time>2021-08-03T10:20:28.241Z</time>
      </trkpt>
      <trkpt lat="47.0164" lon="8.8834">
        <ele>1348</ele>
        <time>2021-08-03T10:20:29.242Z</time>
      </trkpt>
      <trkpt lat="47.0164" lon="8.88339">
        <ele>1347</ele>
        <time>2021-08-03T10:20:30.242Z</time>
      </trkpt>
      <trkpt lat="47.0164" lon="8.88339">
        <ele>1346</ele>
        <time>2021-08-03T10:20:31.242Z</time>
      </trkpt>
      <trkpt lat="47.0164" lon="8.88338">
        <ele>1346</ele>
        <time>2021-08-03T10:20:32.242Z</time>
      </trkpt>
      <trkpt lat="47.0164" lon="8.88337">
        <ele>1345</ele>
        <time>2021-08-03T10:20:33.242Z</time>
      </trkpt>
      <trkpt lat="47.01639" lon="8.88336">
        <ele>1345</ele>
        <time>2021-08-03T10:20:34.242Z</time>
      </trkpt>
      <trkpt lat="47.01639" lon="8.88335">
        <ele>1345</ele>
        <time>2021-08-03T10:20:35.242Z</time>
      </trkpt>
      <trkpt lat="47.01638" lon="8.88335">
        <ele>1344</ele>
        <time>2021-08-03T10:20:36.241Z</time>
      </trkpt>
      <trkpt lat="47.01637" lon="8.88335">
        <ele>1344</ele>
        <time>2021-08-03T10:20:37.242Z</time>
      </trkpt>
      <trkpt lat="47.01636" lon="8.88336">
        <ele>1344</ele>
        <time>2021-08-03T10:20:38.241Z</time>
      </trkpt>
      <trkpt lat="47.01635" lon="8.88336">
        <ele>1343</ele>
        <time>2021-08-03T10:20:39.242Z</time>
      </trkpt>
      <trkpt lat="47.01634" lon="8.88336">
        <ele>1343</ele>
        <time>2021-08-03T10:20:40.242Z</time>
      </trkpt>
      <trkpt lat="47.01634" lon="8.88335">
        <ele>1342</ele>
        <time>2021-08-03T10:20:41.241Z</time>
      </trkpt>
      <trkpt lat="47.01632" lon="8.88336">
        <ele>1342</ele>
        <time>2021-08-03T10:20:42.242Z</time>
      </trkpt>
      <trkpt lat="47.01632" lon="8.88336">
        <ele>1342</ele>
        <time>2021-08-03T10:20:43.241Z</time>
      </trkpt>
      <trkpt lat="47.01632" lon="8.88335">
        <ele>1342</ele>
        <time>2021-08-03T10:20:44.242Z</time>
      </trkpt>
      <trkpt lat="47.01631" lon="8.88334">
        <ele>1341</ele>
        <time>2021-08-03T10:20:45.241Z</time>
      </trkpt>
      <trkpt lat="47.0163" lon="8.88335">
        <ele>1341</ele>
        <time>2021-08-03T10:20:46.242Z</time>
      </trkpt>
      <trkpt lat="47.0163" lon="8.88335">
        <ele>1341</ele>
        <time>2021-08-03T10:20:47.242Z</time>
      </trkpt>
      <trkpt lat="47.01628" lon="8.88336">
        <ele>1341</ele>
        <time>2021-08-03T10:20:48.242Z</time>
      </trkpt>
      <trkpt lat="47.01627" lon="8.88337">
        <ele>1340</ele>
        <time>2021-08-03T10:20:49.242Z</time>
      </trkpt>
      <trkpt lat="47.01627" lon="8.88338">
        <ele>1340</ele>
        <time>2021-08-03T10:20:50.242Z</time>
      </trkpt>
      <trkpt lat="47.01626" lon="8.88339">
        <ele>1339</ele>
        <time>2021-08-03T10:20:51.242Z</time>
      </trkpt>
      <trkpt lat="47.01625" lon="8.88339">
        <ele>1339</ele>
        <time>2021-08-03T10:20:52.242Z</time>
      </trkpt>
      <trkpt lat="47.01624" lon="8.88339">
        <ele>1338</ele>
        <time>2021-08-03T10:20:53.241Z</time>
      </trkpt>
      <trkpt lat="47.01624" lon="8.88339">
        <ele>1338</ele>
        <time>2021-08-03T10:20:54.242Z</time>
      </trkpt>
      <trkpt lat="47.01623" lon="8.88338">
        <ele>1338</ele>
        <time>2021-08-03T10:20:55.242Z</time>
      </trkpt>
      <trkpt lat="47.01621" lon="8.88337">
        <ele>1338</ele>
        <time>2021-08-03T10:20:56.241Z</time>
      </trkpt>
      <trkpt lat="47.01619" lon="8.88336">
        <ele>1338</ele>
        <time>2021-08-03T10:20:57.242Z</time>
      </trkpt>
      <trkpt lat="47.01617" lon="8.88335">
        <ele>1337</ele>
        <time>2021-08-03T10:20:58.242Z</time>
      </trkpt>
      <trkpt lat="47.01617" lon="8.88335">
        <ele>1337</ele>
        <time>2021-08-03T10:20:59.241Z</time>
      </trkpt>
      <trkpt lat="47.01617" lon="8.88335">
        <ele>1337</ele>
        <time>2021-08-03T10:21:00.242Z</time>
      </trkpt>
      <trkpt lat="47.01616" lon="8.88335">
        <ele>1337</ele>
        <time>2021-08-03T10:21:01.242Z</time>
      </trkpt>
      <trkpt lat="47.01616" lon="8.88334">
        <ele>1337</ele>
        <time>2021-08-03T10:21:02.242Z</time>
      </trkpt>
      <trkpt lat="47.01617" lon="8.88333">
        <ele>1337</ele>
        <time>2021-08-03T10:21:03.241Z</time>
      </trkpt>
      <trkpt lat="47.01617" lon="8.88332">
        <ele>1337</ele>
        <time>2021-08-03T10:21:04.241Z</time>
      </trkpt>
      <trkpt lat="47.01617" lon="8.88331">
        <ele>1337</ele>
        <time>2021-08-03T10:21:05.241Z</time>
      </trkpt>
      <trkpt lat="47.01616" lon="8.88331">
        <ele>1337</ele>
        <time>2021-08-03T10:21:06.242Z</time>
      </trkpt>
      <trkpt lat="47.01616" lon="8.88331">
        <ele>1336</ele>
        <time>2021-08-03T10:21:07.242Z</time>
      </trkpt>
      <trkpt lat="47.01616" lon="8.8833">
        <ele>1336</ele>
        <time>2021-08-03T10:21:08.242Z</time>
      </trkpt>
      <trkpt lat="47.01617" lon="8.88329">
        <ele>1335</ele>
        <time>2021-08-03T10:21:09.242Z</time>
      </trkpt>
      <trkpt lat="47.01618" lon="8.88329">
        <ele>1335</ele>
        <time>2021-08-03T10:21:10.242Z</time>
      </trkpt>
      <trkpt lat="47.0162" lon="8.88328">
        <ele>1334</ele>
        <time>2021-08-03T10:21:11.242Z</time>
      </trkpt>
      <trkpt lat="47.0162" lon="8.88327">
        <ele>1334</ele>
        <time>2021-08-03T10:21:12.242Z</time>
      </trkpt>
      <trkpt lat="47.01622" lon="8.88326">
        <ele>1334</ele>
        <time>2021-08-03T10:21:13.242Z</time>
      </trkpt>
      <trkpt lat="47.01623" lon="8.88325">
        <ele>1333</ele>
        <time>2021-08-03T10:21:14.241Z</time>
      </trkpt>
      <trkpt lat="47.01623" lon="8.88325">
        <ele>1333</ele>
        <time>2021-08-03T10:21:15.241Z</time>
      </trkpt>
      <trkpt lat="47.01622" lon="8.88325">
        <ele>1333</ele>
        <time>2021-08-03T10:21:16.242Z</time>
      </trkpt>
      <trkpt lat="47.01622" lon="8.88324">
        <ele>1332</ele>
        <time>2021-08-03T10:21:17.242Z</time>
      </trkpt>
      <trkpt lat="47.01621" lon="8.88324">
        <ele>1332</ele>
        <time>2021-08-03T10:21:18.241Z</time>
      </trkpt>
      <trkpt lat="47.01619" lon="8.88324">
        <ele>1331</ele>
        <time>2021-08-03T10:21:19.241Z</time>
      </trkpt>
      <trkpt lat="47.01617" lon="8.88324">
        <ele>1331</ele>
        <time>2021-08-03T10:21:20.241Z</time>
      </trkpt>
      <trkpt lat="47.01616" lon="8.88324">
        <ele>1331</ele>
        <time>2021-08-03T10:21:21.242Z</time>
      </trkpt>
      <trkpt lat="47.01615" lon="8.88324">
        <ele>1331</ele>
        <time>2021-08-03T10:21:22.242Z</time>
      </trkpt>
      <trkpt lat="47.01614" lon="8.88324">
        <ele>1331</ele>
        <time>2021-08-03T10:21:23.241Z</time>
      </trkpt>
      <trkpt lat="47.01613" lon="8.88324">
        <ele>1331</ele>
        <time>2021-08-03T10:21:24.241Z</time>
      </trkpt>
      <trkpt lat="47.01611" lon="8.88324">
        <ele>1332</ele>
        <time>2021-08-03T10:21:25.241Z</time>
      </trkpt>
      <trkpt lat="47.0161" lon="8.88324">
        <ele>1332</ele>
        <time>2021-08-03T10:21:26.242Z</time>
      </trkpt>
      <trkpt lat="47.01608" lon="8.88324">
        <ele>1332</ele>
        <time>2021-08-03T10:21:27.242Z</time>
      </trkpt>
      <trkpt lat="47.01607" lon="8.88325">
        <ele>1333</ele>
        <time>2021-08-03T10:21:28.242Z</time>
      </trkpt>
      <trkpt lat="47.01606" lon="8.88325">
        <ele>1333</ele>
        <time>2021-08-03T10:21:29.241Z</time>
      </trkpt>
      <trkpt lat="47.01605" lon="8.88325">
        <ele>1333</ele>
        <time>2021-08-03T10:21:30.241Z</time>
      </trkpt>
      <trkpt lat="47.01604" lon="8.88325">
        <ele>1334</ele>
        <time>2021-08-03T10:21:31.241Z</time>
      </trkpt>
      <trkpt lat="47.01604" lon="8.88325">
        <ele>1335</ele>
        <time>2021-08-03T10:21:32.241Z</time>
      </trkpt>
      <trkpt lat="47.01603" lon="8.88324">
        <ele>1335</ele>
        <time>2021-08-03T10:21:33.242Z</time>
      </trkpt>
      <trkpt lat="47.01602" lon="8.88322">
        <ele>1336</ele>
        <time>2021-08-03T10:21:34.242Z</time>
      </trkpt>
      <trkpt lat="47.01601" lon="8.88321">
        <ele>1336</ele>
        <time>2021-08-03T10:21:35.242Z</time>
      </trkpt>
      <trkpt lat="47.016" lon="8.88321">
        <ele>1336</ele>
        <time>2021-08-03T10:21:36.241Z</time>
      </trkpt>
      <trkpt lat="47.01599" lon="8.8832">
        <ele>1337</ele>
        <time>2021-08-03T10:21:37.242Z</time>
      </trkpt>
      <trkpt lat="47.01598" lon="8.8832">
        <ele>1338</ele>
        <time>2021-08-03T10:21:38.242Z</time>
      </trkpt>
      <trkpt lat="47.01597" lon="8.88319">
        <ele>1338</ele>
        <time>2021-08-03T10:21:39.242Z</time>
      </trkpt>
      <trkpt lat="47.01596" lon="8.88318">
        <ele>1339</ele>
        <time>2021-08-03T10:21:40.241Z</time>
      </trkpt>
      <trkpt lat="47.01595" lon="8.88317">
        <ele>1339</ele>
        <time>2021-08-03T10:21:41.241Z</time>
      </trkpt>
      <trkpt lat="47.01594" lon="8.88316">
        <ele>1340</ele>
        <time>2021-08-03T10:21:42.242Z</time>
      </trkpt>
      <trkpt lat="47.01593" lon="8.88316">
        <ele>1340</ele>
        <time>2021-08-03T10:21:43.242Z</time>
      </trkpt>
      <trkpt lat="47.01591" lon="8.88315">
        <ele>1340</ele>
        <time>2021-08-03T10:21:44.242Z</time>
      </trkpt>
      <trkpt lat="47.0159" lon="8.88313">
        <ele>1340</ele>
        <time>2021-08-03T10:21:45.242Z</time>
      </trkpt>
      <trkpt lat="47.01589" lon="8.88312">
        <ele>1340</ele>
        <time>2021-08-03T10:21:46.242Z</time>
      </trkpt>
      <trkpt lat="47.01588" lon="8.8831">
        <ele>1340</ele>
        <time>2021-08-03T10:21:47.241Z</time>
      </trkpt>
      <trkpt lat="47.01587" lon="8.88309">
        <ele>1340</ele>
        <time>2021-08-03T10:21:48.241Z</time>
      </trkpt>
      <trkpt lat="47.01586" lon="8.88308">
        <ele>1340</ele>
        <time>2021-08-03T10:21:49.242Z</time>
      </trkpt>
      <trkpt lat="47.01586" lon="8.88307">
        <ele>1340</ele>
        <time>2021-08-03T10:21:50.242Z</time>
      </trkpt>
      <trkpt lat="47.01586" lon="8.88306">
        <ele>1340</ele>
        <time>2021-08-03T10:21:51.242Z</time>
      </trkpt>
      <trkpt lat="47.01587" lon="8.88305">
        <ele>1340</ele>
        <time>2021-08-03T10:21:52.242Z</time>
      </trkpt>
      <trkpt lat="47.01588" lon="8.88304">
        <ele>1340</ele>
        <time>2021-08-03T10:21:53.241Z</time>
      </trkpt>
      <trkpt lat="47.01588" lon="8.88304">
        <ele>1340</ele>
        <time>2021-08-03T10:21:54.242Z</time>
      </trkpt>
      <trkpt lat="47.01588" lon="8.88304">
        <ele>1340</ele>
        <time>2021-08-03T10:21:55.241Z</time>
      </trkpt>
      <trkpt lat="47.01587" lon="8.88303">
        <ele>1339</ele>
        <time>2021-08-03T10:21:56.241Z</time>
      </trkpt>
      <trkpt lat="47.01587" lon="8.88302">
        <ele>1338</ele>
        <time>2021-08-03T10:21:57.242Z</time>
      </trkpt>
      <trkpt lat="47.01586" lon="8.88301">
        <ele>1338</ele>
        <time>2021-08-03T10:21:58.242Z</time>
      </trkpt>
      <trkpt lat="47.01585" lon="8.88301">
        <ele>1337</ele>
        <time>2021-08-03T10:21:59.242Z</time>
      </trkpt>
      <trkpt lat="47.01584" lon="8.883">
        <ele>1337</ele>
        <time>2021-08-03T10:22:00.242Z</time>
      </trkpt>
      <trkpt lat="47.01583" lon="8.883">
        <ele>1336</ele>
        <time>2021-08-03T10:22:01.242Z</time>
      </trkpt>
      <trkpt lat="47.01582" lon="8.88299">
        <ele>1336</ele>
        <time>2021-08-03T10:22:02.242Z</time>
      </trkpt>
      <trkpt lat="47.01581" lon="8.88299">
        <ele>1336</ele>
        <time>2021-08-03T10:22:03.241Z</time>
      </trkpt>
      <trkpt lat="47.0158" lon="8.88298">
        <ele>1336</ele>
        <time>2021-08-03T10:22:04.242Z</time>
      </trkpt>
      <trkpt lat="47.01579" lon="8.88297">
        <ele>1336</ele>
        <time>2021-08-03T10:22:05.242Z</time>
      </trkpt>
      <trkpt lat="47.01577" lon="8.88297">
        <ele>1336</ele>
        <time>2021-08-03T10:22:06.241Z</time>
      </trkpt>
      <trkpt lat="47.01575" lon="8.88297">
        <ele>1336</ele>
        <time>2021-08-03T10:22:07.242Z</time>
      </trkpt>
      <trkpt lat="47.01574" lon="8.88297">
        <ele>1336</ele>
        <time>2021-08-03T10:22:08.241Z</time>
      </trkpt>
      <trkpt lat="47.01572" lon="8.88296">
        <ele>1336</ele>
        <time>2021-08-03T10:22:09.242Z</time>
      </trkpt>
      <trkpt lat="47.0157" lon="8.88296">
        <ele>1336</ele>
        <time>2021-08-03T10:22:10.242Z</time>
      </trkpt>
      <trkpt lat="47.01569" lon="8.88295">
        <ele>1336</ele>
        <time>2021-08-03T10:22:11.242Z</time>
      </trkpt>
      <trkpt lat="47.01569" lon="8.88294">
        <ele>1335</ele>
        <time>2021-08-03T10:22:12.242Z</time>
      </trkpt>
      <trkpt lat="47.01568" lon="8.88294">
        <ele>1335</ele>
        <time>2021-08-03T10:22:13.242Z</time>
      </trkpt>
      <trkpt lat="47.01568" lon="8.88293">
        <ele>1335</ele>
        <time>2021-08-03T10:22:14.242Z</time>
      </trkpt>
      <trkpt lat="47.01567" lon="8.88292">
        <ele>1335</ele>
        <time>2021-08-03T10:22:15.242Z</time>
      </trkpt>
      <trkpt lat="47.01566" lon="8.88291">
        <ele>1334</ele>
        <time>2021-08-03T10:22:16.241Z</time>
      </trkpt>
      <trkpt lat="47.01565" lon="8.88291">
        <ele>1334</ele>
        <time>2021-08-03T10:22:17.242Z</time>
      </trkpt>
      <trkpt lat="47.01564" lon="8.8829">
        <ele>1334</ele>
        <time>2021-08-03T10:22:18.241Z</time>
      </trkpt>
      <trkpt lat="47.01563" lon="8.8829">
        <ele>1335</ele>
        <time>2021-08-03T10:22:19.241Z</time>
      </trkpt>
      <trkpt lat="47.01561" lon="8.88289">
        <ele>1335</ele>
        <time>2021-08-03T10:22:20.242Z</time>
      </trkpt>
      <trkpt lat="47.0156" lon="8.88289">
        <ele>1335</ele>
        <time>2021-08-03T10:22:21.242Z</time>
      </trkpt>
      <trkpt lat="47.0156" lon="8.88288">
        <ele>1335</ele>
        <time>2021-08-03T10:22:22.242Z</time>
      </trkpt>
      <trkpt lat="47.01559" lon="8.88287">
        <ele>1336</ele>
        <time>2021-08-03T10:22:23.241Z</time>
      </trkpt>
      <trkpt lat="47.01559" lon="8.88286">
        <ele>1335</ele>
        <time>2021-08-03T10:22:24.242Z</time>
      </trkpt>
      <trkpt lat="47.01559" lon="8.88285">
        <ele>1335</ele>
        <time>2021-08-03T10:22:25.241Z</time>
      </trkpt>
      <trkpt lat="47.01557" lon="8.88284">
        <ele>1335</ele>
        <time>2021-08-03T10:22:26.242Z</time>
      </trkpt>
      <trkpt lat="47.01556" lon="8.88284">
        <ele>1335</ele>
        <time>2021-08-03T10:22:27.242Z</time>
      </trkpt>
      <trkpt lat="47.01555" lon="8.88283">
        <ele>1334</ele>
        <time>2021-08-03T10:22:28.242Z</time>
      </trkpt>
      <trkpt lat="47.01555" lon="8.88282">
        <ele>1334</ele>
        <time>2021-08-03T10:22:29.242Z</time>
      </trkpt>
      <trkpt lat="47.01555" lon="8.88282">
        <ele>1334</ele>
        <time>2021-08-03T10:22:30.242Z</time>
      </trkpt>
      <trkpt lat="47.01555" lon="8.88281">
        <ele>1333</ele>
        <time>2021-08-03T10:22:31.242Z</time>
      </trkpt>
      <trkpt lat="47.01555" lon="8.8828">
        <ele>1333</ele>
        <time>2021-08-03T10:22:32.242Z</time>
      </trkpt>
      <trkpt lat="47.01555" lon="8.8828">
        <ele>1333</ele>
        <time>2021-08-03T10:22:33.242Z</time>
      </trkpt>
      <trkpt lat="47.01555" lon="8.88279">
        <ele>1333</ele>
        <time>2021-08-03T10:22:34.242Z</time>
      </trkpt>
      <trkpt lat="47.01555" lon="8.88278">
        <ele>1333</ele>
        <time>2021-08-03T10:22:35.241Z</time>
      </trkpt>
      <trkpt lat="47.01554" lon="8.88277">
        <ele>1333</ele>
        <time>2021-08-03T10:22:36.242Z</time>
      </trkpt>
      <trkpt lat="47.01553" lon="8.88276">
        <ele>1333</ele>
        <time>2021-08-03T10:22:37.242Z</time>
      </trkpt>
      <trkpt lat="47.01553" lon="8.88275">
        <ele>1333</ele>
        <time>2021-08-03T10:22:38.242Z</time>
      </trkpt>
      <trkpt lat="47.01552" lon="8.88274">
        <ele>1333</ele>
        <time>2021-08-03T10:22:39.242Z</time>
      </trkpt>
      <trkpt lat="47.01551" lon="8.88273">
        <ele>1333</ele>
        <time>2021-08-03T10:22:40.241Z</time>
      </trkpt>
      <trkpt lat="47.0155" lon="8.88273">
        <ele>1333</ele>
        <time>2021-08-03T10:22:41.242Z</time>
      </trkpt>
      <trkpt lat="47.01549" lon="8.88272">
        <ele>1333</ele>
        <time>2021-08-03T10:22:42.241Z</time>
      </trkpt>
      <trkpt lat="47.01549" lon="8.88271">
        <ele>1333</ele>
        <time>2021-08-03T10:22:43.242Z</time>
      </trkpt>
      <trkpt lat="47.01548" lon="8.8827">
        <ele>1334</ele>
        <time>2021-08-03T10:22:44.241Z</time>
      </trkpt>
      <trkpt lat="47.01547" lon="8.88269">
        <ele>1334</ele>
        <time>2021-08-03T10:22:45.242Z</time>
      </trkpt>
      <trkpt lat="47.01548" lon="8.88269">
        <ele>1334</ele>
        <time>2021-08-03T10:22:46.242Z</time>
      </trkpt>
      <trkpt lat="47.01547" lon="8.88268">
        <ele>1333</ele>
        <time>2021-08-03T10:22:47.242Z</time>
      </trkpt>
      <trkpt lat="47.01546" lon="8.88267">
        <ele>1333</ele>
        <time>2021-08-03T10:22:48.242Z</time>
      </trkpt>
      <trkpt lat="47.01545" lon="8.88267">
        <ele>1333</ele>
        <time>2021-08-03T10:22:49.242Z</time>
      </trkpt>
      <trkpt lat="47.01545" lon="8.88266">
        <ele>1334</ele>
        <time>2021-08-03T10:22:50.242Z</time>
      </trkpt>
      <trkpt lat="47.01545" lon="8.88265">
        <ele>1334</ele>
        <time>2021-08-03T10:22:51.241Z</time>
      </trkpt>
      <trkpt lat="47.01544" lon="8.88265">
        <ele>1334</ele>
        <time>2021-08-03T10:22:52.241Z</time>
      </trkpt>
      <trkpt lat="47.01544" lon="8.88264">
        <ele>1335</ele>
        <time>2021-08-03T10:22:53.241Z</time>
      </trkpt>
      <trkpt lat="47.01543" lon="8.88263">
        <ele>1335</ele>
        <time>2021-08-03T10:22:54.241Z</time>
      </trkpt>
      <trkpt lat="47.01542" lon="8.88263">
        <ele>1335</ele>
        <time>2021-08-03T10:22:55.242Z</time>
      </trkpt>
      <trkpt lat="47.01542" lon="8.88263">
        <ele>1336</ele>
        <time>2021-08-03T10:22:56.242Z</time>
      </trkpt>
      <trkpt lat="47.01541" lon="8.88262">
        <ele>1336</ele>
        <time>2021-08-03T10:22:57.242Z</time>
      </trkpt>
      <trkpt lat="47.0154" lon="8.88262">
        <ele>1336</ele>
        <time>2021-08-03T10:22:58.241Z</time>
      </trkpt>
      <trkpt lat="47.0154" lon="8.88261">
        <ele>1335</ele>
        <time>2021-08-03T10:22:59.242Z</time>
      </trkpt>
      <trkpt lat="47.01539" lon="8.88261">
        <ele>1335</ele>
        <time>2021-08-03T10:23:00.242Z</time>
      </trkpt>
      <trkpt lat="47.01538" lon="8.88261">
        <ele>1335</ele>
        <time>2021-08-03T10:23:01.242Z</time>
      </trkpt>
      <trkpt lat="47.01538" lon="8.88261">
        <ele>1334</ele>
        <time>2021-08-03T10:23:02.241Z</time>
      </trkpt>
      <trkpt lat="47.01539" lon="8.88261">
        <ele>1334</ele>
        <time>2021-08-03T10:23:03.241Z</time>
      </trkpt>
      <trkpt lat="47.01539" lon="8.88261">
        <ele>1334</ele>
        <time>2021-08-03T10:23:04.242Z</time>
      </trkpt>
      <trkpt lat="47.01538" lon="8.88261">
        <ele>1334</ele>
        <time>2021-08-03T10:23:05.242Z</time>
      </trkpt>
      <trkpt lat="47.01537" lon="8.88259">
        <ele>1336</ele>
        <time>2021-08-03T10:23:06.243Z</time>
      </trkpt>
      <trkpt lat="47.01536" lon="8.88259">
        <ele>1336</ele>
        <time>2021-08-03T10:23:07.242Z</time>
      </trkpt>
      <trkpt lat="47.01535" lon="8.88259">
        <ele>1337</ele>
        <time>2021-08-03T10:23:08.242Z</time>
      </trkpt>
      <trkpt lat="47.01534" lon="8.8826">
        <ele>1337</ele>
        <time>2021-08-03T10:23:09.242Z</time>
      </trkpt>
      <trkpt lat="47.01534" lon="8.88259">
        <ele>1337</ele>
        <time>2021-08-03T10:23:10.243Z</time>
      </trkpt>
      <trkpt lat="47.01533" lon="8.88259">
        <ele>1337</ele>
        <time>2021-08-03T10:23:11.243Z</time>
      </trkpt>
      <trkpt lat="47.01533" lon="8.88258">
        <ele>1337</ele>
        <time>2021-08-03T10:23:12.243Z</time>
      </trkpt>
      <trkpt lat="47.01532" lon="8.88258">
        <ele>1337</ele>
        <time>2021-08-03T10:23:13.242Z</time>
      </trkpt>
      <trkpt lat="47.01531" lon="8.88258">
        <ele>1337</ele>
        <time>2021-08-03T10:23:14.243Z</time>
      </trkpt>
      <trkpt lat="47.01531" lon="8.88257">
        <ele>1337</ele>
        <time>2021-08-03T10:23:15.243Z</time>
      </trkpt>
      <trkpt lat="47.0153" lon="8.88257">
        <ele>1336</ele>
        <time>2021-08-03T10:23:16.243Z</time>
      </trkpt>
      <trkpt lat="47.01529" lon="8.88257">
        <ele>1336</ele>
        <time>2021-08-03T10:23:17.243Z</time>
      </trkpt>
      <trkpt lat="47.01529" lon="8.88257">
        <ele>1336</ele>
        <time>2021-08-03T10:23:18.243Z</time>
      </trkpt>
      <trkpt lat="47.01528" lon="8.88257">
        <ele>1336</ele>
        <time>2021-08-03T10:23:19.242Z</time>
      </trkpt>
      <trkpt lat="47.01528" lon="8.88256">
        <ele>1336</ele>
        <time>2021-08-03T10:23:20.243Z</time>
      </trkpt>
      <trkpt lat="47.01527" lon="8.88256">
        <ele>1337</ele>
        <time>2021-08-03T10:23:21.243Z</time>
      </trkpt>
      <trkpt lat="47.01526" lon="8.88255">
        <ele>1337</ele>
        <time>2021-08-03T10:23:22.243Z</time>
      </trkpt>
      <trkpt lat="47.01525" lon="8.88255">
        <ele>1337</ele>
        <time>2021-08-03T10:23:23.243Z</time>
      </trkpt>
      <trkpt lat="47.01525" lon="8.88254">
        <ele>1336</ele>
        <time>2021-08-03T10:23:24.242Z</time>
      </trkpt>
      <trkpt lat="47.01524" lon="8.88254">
        <ele>1336</ele>
        <time>2021-08-03T10:23:25.243Z</time>
      </trkpt>
      <trkpt lat="47.01523" lon="8.88253">
        <ele>1336</ele>
        <time>2021-08-03T10:23:26.242Z</time>
      </trkpt>
      <trkpt lat="47.01523" lon="8.88252">
        <ele>1336</ele>
        <time>2021-08-03T10:23:27.243Z</time>
      </trkpt>
      <trkpt lat="47.01522" lon="8.88252">
        <ele>1336</ele>
        <time>2021-08-03T10:23:28.243Z</time>
      </trkpt>
      <trkpt lat="47.01522" lon="8.88251">
        <ele>1336</ele>
        <time>2021-08-03T10:23:29.242Z</time>
      </trkpt>
      <trkpt lat="47.01521" lon="8.8825">
        <ele>1336</ele>
        <time>2021-08-03T10:23:30.243Z</time>
      </trkpt>
      <trkpt lat="47.0152" lon="8.88249">
        <ele>1335</ele>
        <time>2021-08-03T10:23:31.242Z</time>
      </trkpt>
      <trkpt lat="47.0152" lon="8.88248">
        <ele>1335</ele>
        <time>2021-08-03T10:23:32.242Z</time>
      </trkpt>
      <trkpt lat="47.01519" lon="8.88247">
        <ele>1335</ele>
        <time>2021-08-03T10:23:33.243Z</time>
      </trkpt>
      <trkpt lat="47.01518" lon="8.88246">
        <ele>1335</ele>
        <time>2021-08-03T10:23:34.243Z</time>
      </trkpt>
      <trkpt lat="47.01518" lon="8.88245">
        <ele>1335</ele>
        <time>2021-08-03T10:23:35.243Z</time>
      </trkpt>
      <trkpt lat="47.01517" lon="8.88243">
        <ele>1335</ele>
        <time>2021-08-03T10:23:36.243Z</time>
      </trkpt>
      <trkpt lat="47.01517" lon="8.88241">
        <ele>1335</ele>
        <time>2021-08-03T10:23:37.242Z</time>
      </trkpt>
      <trkpt lat="47.01517" lon="8.8824">
        <ele>1335</ele>
        <time>2021-08-03T10:23:38.243Z</time>
      </trkpt>
      <trkpt lat="47.01516" lon="8.88239">
        <ele>1335</ele>
        <time>2021-08-03T10:23:39.242Z</time>
      </trkpt>
      <trkpt lat="47.01516" lon="8.88238">
        <ele>1334</ele>
        <time>2021-08-03T10:23:40.243Z</time>
      </trkpt>
      <trkpt lat="47.01515" lon="8.88237">
        <ele>1334</ele>
        <time>2021-08-03T10:23:41.243Z</time>
      </trkpt>
      <trkpt lat="47.01515" lon="8.88236">
        <ele>1333</ele>
        <time>2021-08-03T10:23:42.243Z</time>
      </trkpt>
      <trkpt lat="47.01514" lon="8.88235">
        <ele>1333</ele>
        <time>2021-08-03T10:23:43.242Z</time>
      </trkpt>
      <trkpt lat="47.01514" lon="8.88234">
        <ele>1333</ele>
        <time>2021-08-03T10:23:44.242Z</time>
      </trkpt>
      <trkpt lat="47.01513" lon="8.88233">
        <ele>1333</ele>
        <time>2021-08-03T10:23:45.243Z</time>
      </trkpt>
      <trkpt lat="47.01513" lon="8.88232">
        <ele>1333</ele>
        <time>2021-08-03T10:23:46.243Z</time>
      </trkpt>
      <trkpt lat="47.01512" lon="8.88231">
        <ele>1333</ele>
        <time>2021-08-03T10:23:47.243Z</time>
      </trkpt>
      <trkpt lat="47.01511" lon="8.8823">
        <ele>1333</ele>
        <time>2021-08-03T10:23:48.243Z</time>
      </trkpt>
      <trkpt lat="47.0151" lon="8.88228">
        <ele>1334</ele>
        <time>2021-08-03T10:23:49.243Z</time>
      </trkpt>
      <trkpt lat="47.01509" lon="8.88226">
        <ele>1334</ele>
        <time>2021-08-03T10:23:50.242Z</time>
      </trkpt>
      <trkpt lat="47.01509" lon="8.88225">
        <ele>1334</ele>
        <time>2021-08-03T10:23:51.243Z</time>
      </trkpt>
      <trkpt lat="47.01508" lon="8.88224">
        <ele>1334</ele>
        <time>2021-08-03T10:23:52.243Z</time>
      </trkpt>
      <trkpt lat="47.01508" lon="8.88223">
        <ele>1334</ele>
        <time>2021-08-03T10:23:53.242Z</time>
      </trkpt>
      <trkpt lat="47.01508" lon="8.88221">
        <ele>1334</ele>
        <time>2021-08-03T10:23:54.243Z</time>
      </trkpt>
      <trkpt lat="47.01507" lon="8.8822">
        <ele>1335</ele>
        <time>2021-08-03T10:23:55.243Z</time>
      </trkpt>
      <trkpt lat="47.01506" lon="8.88219">
        <ele>1335</ele>
        <time>2021-08-03T10:23:56.243Z</time>
      </trkpt>
      <trkpt lat="47.01506" lon="8.88218">
        <ele>1336</ele>
        <time>2021-08-03T10:23:57.243Z</time>
      </trkpt>
      <trkpt lat="47.01505" lon="8.88217">
        <ele>1336</ele>
        <time>2021-08-03T10:23:58.242Z</time>
      </trkpt>
      <trkpt lat="47.01504" lon="8.88216">
        <ele>1337</ele>
        <time>2021-08-03T10:23:59.242Z</time>
      </trkpt>
      <trkpt lat="47.01503" lon="8.88215">
        <ele>1337</ele>
        <time>2021-08-03T10:24:00.243Z</time>
      </trkpt>
      <trkpt lat="47.01503" lon="8.88214">
        <ele>1338</ele>
        <time>2021-08-03T10:24:01.242Z</time>
      </trkpt>
      <trkpt lat="47.01501" lon="8.88213">
        <ele>1338</ele>
        <time>2021-08-03T10:24:02.243Z</time>
      </trkpt>
      <trkpt lat="47.01501" lon="8.88212">
        <ele>1339</ele>
        <time>2021-08-03T10:24:03.242Z</time>
      </trkpt>
      <trkpt lat="47.015" lon="8.88211">
        <ele>1339</ele>
        <time>2021-08-03T10:24:04.243Z</time>
      </trkpt>
      <trkpt lat="47.01499" lon="8.8821">
        <ele>1340</ele>
        <time>2021-08-03T10:24:05.243Z</time>
      </trkpt>
      <trkpt lat="47.01499" lon="8.88209">
        <ele>1341</ele>
        <time>2021-08-03T10:24:06.242Z</time>
      </trkpt>
      <trkpt lat="47.01498" lon="8.88207">
        <ele>1341</ele>
        <time>2021-08-03T10:24:07.242Z</time>
      </trkpt>
      <trkpt lat="47.01497" lon="8.88206">
        <ele>1341</ele>
        <time>2021-08-03T10:24:08.242Z</time>
      </trkpt>
      <trkpt lat="47.01497" lon="8.88206">
        <ele>1341</ele>
        <time>2021-08-03T10:24:09.243Z</time>
      </trkpt>
      <trkpt lat="47.01496" lon="8.88206">
        <ele>1341</ele>
        <time>2021-08-03T10:24:10.242Z</time>
      </trkpt>
      <trkpt lat="47.01495" lon="8.88205">
        <ele>1341</ele>
        <time>2021-08-03T10:24:11.242Z</time>
      </trkpt>
      <trkpt lat="47.01494" lon="8.88205">
        <ele>1340</ele>
        <time>2021-08-03T10:24:12.243Z</time>
      </trkpt>
      <trkpt lat="47.01494" lon="8.88204">
        <ele>1340</ele>
        <time>2021-08-03T10:24:13.243Z</time>
      </trkpt>
      <trkpt lat="47.01493" lon="8.88203">
        <ele>1340</ele>
        <time>2021-08-03T10:24:14.242Z</time>
      </trkpt>
      <trkpt lat="47.01492" lon="8.88202">
        <ele>1340</ele>
        <time>2021-08-03T10:24:15.242Z</time>
      </trkpt>
      <trkpt lat="47.01492" lon="8.88202">
        <ele>1339</ele>
        <time>2021-08-03T10:24:16.243Z</time>
      </trkpt>
      <trkpt lat="47.01491" lon="8.88201">
        <ele>1339</ele>
        <time>2021-08-03T10:24:17.243Z</time>
      </trkpt>
      <trkpt lat="47.0149" lon="8.882">
        <ele>1339</ele>
        <time>2021-08-03T10:24:18.242Z</time>
      </trkpt>
      <trkpt lat="47.0149" lon="8.882">
        <ele>1338</ele>
        <time>2021-08-03T10:24:19.242Z</time>
      </trkpt>
      <trkpt lat="47.01489" lon="8.882">
        <ele>1338</ele>
        <time>2021-08-03T10:24:20.243Z</time>
      </trkpt>
      <trkpt lat="47.01488" lon="8.882">
        <ele>1337</ele>
        <time>2021-08-03T10:24:21.242Z</time>
      </trkpt>
      <trkpt lat="47.01488" lon="8.882">
        <ele>1337</ele>
        <time>2021-08-03T10:24:22.243Z</time>
      </trkpt>
      <trkpt lat="47.01487" lon="8.88199">
        <ele>1337</ele>
        <time>2021-08-03T10:24:23.243Z</time>
      </trkpt>
      <trkpt lat="47.01486" lon="8.88199">
        <ele>1337</ele>
        <time>2021-08-03T10:24:24.243Z</time>
      </trkpt>
      <trkpt lat="47.01485" lon="8.88198">
        <ele>1338</ele>
        <time>2021-08-03T10:24:25.242Z</time>
      </trkpt>
      <trkpt lat="47.01485" lon="8.88197">
        <ele>1338</ele>
        <time>2021-08-03T10:24:26.242Z</time>
      </trkpt>
      <trkpt lat="47.01484" lon="8.88196">
        <ele>1338</ele>
        <time>2021-08-03T10:24:27.242Z</time>
      </trkpt>
      <trkpt lat="47.01483" lon="8.88196">
        <ele>1338</ele>
        <time>2021-08-03T10:24:28.242Z</time>
      </trkpt>
      <trkpt lat="47.01483" lon="8.88196">
        <ele>1338</ele>
        <time>2021-08-03T10:24:29.243Z</time>
      </trkpt>
      <trkpt lat="47.01483" lon="8.88195">
        <ele>1339</ele>
        <time>2021-08-03T10:24:30.243Z</time>
      </trkpt>
      <trkpt lat="47.01482" lon="8.88195">
        <ele>1338</ele>
        <time>2021-08-03T10:24:31.243Z</time>
      </trkpt>
      <trkpt lat="47.01482" lon="8.88194">
        <ele>1338</ele>
        <time>2021-08-03T10:24:32.242Z</time>
      </trkpt>
      <trkpt lat="47.0148" lon="8.88193">
        <ele>1338</ele>
        <time>2021-08-03T10:24:33.243Z</time>
      </trkpt>
      <trkpt lat="47.01479" lon="8.88193">
        <ele>1338</ele>
        <time>2021-08-03T10:24:34.243Z</time>
      </trkpt>
      <trkpt lat="47.01477" lon="8.88193">
        <ele>1339</ele>
        <time>2021-08-03T10:24:35.243Z</time>
      </trkpt>
      <trkpt lat="47.01476" lon="8.88193">
        <ele>1340</ele>
        <time>2021-08-03T10:24:36.243Z</time>
      </trkpt>
      <trkpt lat="47.01476" lon="8.88191">
        <ele>1341</ele>
        <time>2021-08-03T10:24:37.243Z</time>
      </trkpt>
      <trkpt lat="47.01476" lon="8.88191">
        <ele>1341</ele>
        <time>2021-08-03T10:24:38.243Z</time>
      </trkpt>
      <trkpt lat="47.01475" lon="8.8819">
        <ele>1342</ele>
        <time>2021-08-03T10:24:39.242Z</time>
      </trkpt>
      <trkpt lat="47.01474" lon="8.88189">
        <ele>1343</ele>
        <time>2021-08-03T10:24:40.243Z</time>
      </trkpt>
      <trkpt lat="47.01473" lon="8.88188">
        <ele>1343</ele>
        <time>2021-08-03T10:24:41.242Z</time>
      </trkpt>
      <trkpt lat="47.01472" lon="8.88187">
        <ele>1343</ele>
        <time>2021-08-03T10:24:42.243Z</time>
      </trkpt>
      <trkpt lat="47.01472" lon="8.88185">
        <ele>1344</ele>
        <time>2021-08-03T10:24:43.243Z</time>
      </trkpt>
      <trkpt lat="47.01471" lon="8.88184">
        <ele>1344</ele>
        <time>2021-08-03T10:24:44.242Z</time>
      </trkpt>
      <trkpt lat="47.01471" lon="8.88183">
        <ele>1344</ele>
        <time>2021-08-03T10:24:45.243Z</time>
      </trkpt>
      <trkpt lat="47.0147" lon="8.88183">
        <ele>1345</ele>
        <time>2021-08-03T10:24:46.242Z</time>
      </trkpt>
      <trkpt lat="47.0147" lon="8.88183">
        <ele>1345</ele>
        <time>2021-08-03T10:24:47.242Z</time>
      </trkpt>
      <trkpt lat="47.01469" lon="8.88183">
        <ele>1345</ele>
        <time>2021-08-03T10:24:48.243Z</time>
      </trkpt>
      <trkpt lat="47.01468" lon="8.88182">
        <ele>1345</ele>
        <time>2021-08-03T10:24:49.242Z</time>
      </trkpt>
      <trkpt lat="47.01468" lon="8.88182">
        <ele>1345</ele>
        <time>2021-08-03T10:24:50.242Z</time>
      </trkpt>
      <trkpt lat="47.01467" lon="8.88182">
        <ele>1344</ele>
        <time>2021-08-03T10:24:51.243Z</time>
      </trkpt>
      <trkpt lat="47.01467" lon="8.88181">
        <ele>1344</ele>
        <time>2021-08-03T10:24:52.242Z</time>
      </trkpt>
      <trkpt lat="47.01467" lon="8.8818">
        <ele>1343</ele>
        <time>2021-08-03T10:24:53.243Z</time>
      </trkpt>
      <trkpt lat="47.01466" lon="8.88179">
        <ele>1343</ele>
        <time>2021-08-03T10:24:54.242Z</time>
      </trkpt>
      <trkpt lat="47.01466" lon="8.88179">
        <ele>1342</ele>
        <time>2021-08-03T10:24:55.242Z</time>
      </trkpt>
      <trkpt lat="47.01466" lon="8.88178">
        <ele>1341</ele>
        <time>2021-08-03T10:24:56.242Z</time>
      </trkpt>
      <trkpt lat="47.01465" lon="8.88177">
        <ele>1341</ele>
        <time>2021-08-03T10:24:57.243Z</time>
      </trkpt>
      <trkpt lat="47.01465" lon="8.88177">
        <ele>1341</ele>
        <time>2021-08-03T10:24:58.242Z</time>
      </trkpt>
      <trkpt lat="47.01464" lon="8.88176">
        <ele>1341</ele>
        <time>2021-08-03T10:24:59.243Z</time>
      </trkpt>
      <trkpt lat="47.01464" lon="8.88176">
        <ele>1341</ele>
        <time>2021-08-03T10:25:00.243Z</time>
      </trkpt>
      <trkpt lat="47.01463" lon="8.88175">
        <ele>1341</ele>
        <time>2021-08-03T10:25:01.243Z</time>
      </trkpt>
      <trkpt lat="47.01463" lon="8.88175">
        <ele>1341</ele>
        <time>2021-08-03T10:25:02.243Z</time>
      </trkpt>
      <trkpt lat="47.01462" lon="8.88175">
        <ele>1341</ele>
        <time>2021-08-03T10:25:03.242Z</time>
      </trkpt>
      <trkpt lat="47.01462" lon="8.88175">
        <ele>1342</ele>
        <time>2021-08-03T10:25:04.243Z</time>
      </trkpt>
      <trkpt lat="47.01461" lon="8.88175">
        <ele>1342</ele>
        <time>2021-08-03T10:25:05.243Z</time>
      </trkpt>
      <trkpt lat="47.01461" lon="8.88175">
        <ele>1342</ele>
        <time>2021-08-03T10:25:06.243Z</time>
      </trkpt>
      <trkpt lat="47.01461" lon="8.88175">
        <ele>1342</ele>
        <time>2021-08-03T10:25:07.243Z</time>
      </trkpt>
      <trkpt lat="47.0146" lon="8.88175">
        <ele>1342</ele>
        <time>2021-08-03T10:25:08.242Z</time>
      </trkpt>
      <trkpt lat="47.01459" lon="8.88175">
        <ele>1342</ele>
        <time>2021-08-03T10:25:09.243Z</time>
      </trkpt>
      <trkpt lat="47.01459" lon="8.88175">
        <ele>1341</ele>
        <time>2021-08-03T10:25:10.243Z</time>
      </trkpt>
      <trkpt lat="47.01458" lon="8.88175">
        <ele>1341</ele>
        <time>2021-08-03T10:25:11.243Z</time>
      </trkpt>
      <trkpt lat="47.01458" lon="8.88175">
        <ele>1341</ele>
        <time>2021-08-03T10:25:12.243Z</time>
      </trkpt>
      <trkpt lat="47.01457" lon="8.88174">
        <ele>1341</ele>
        <time>2021-08-03T10:25:13.243Z</time>
      </trkpt>
      <trkpt lat="47.01455" lon="8.88174">
        <ele>1341</ele>
        <time>2021-08-03T10:25:14.243Z</time>
      </trkpt>
      <trkpt lat="47.01454" lon="8.88174">
        <ele>1340</ele>
        <time>2021-08-03T10:25:15.243Z</time>
      </trkpt>
      <trkpt lat="47.01453" lon="8.88174">
        <ele>1341</ele>
        <time>2021-08-03T10:25:16.242Z</time>
      </trkpt>
      <trkpt lat="47.01453" lon="8.88174">
        <ele>1341</ele>
        <time>2021-08-03T10:25:17.242Z</time>
      </trkpt>
      <trkpt lat="47.01453" lon="8.88173">
        <ele>1341</ele>
        <time>2021-08-03T10:25:18.242Z</time>
      </trkpt>
      <trkpt lat="47.01453" lon="8.88173">
        <ele>1342</ele>
        <time>2021-08-03T10:25:19.243Z</time>
      </trkpt>
      <trkpt lat="47.01453" lon="8.88172">
        <ele>1342</ele>
        <time>2021-08-03T10:25:20.243Z</time>
      </trkpt>
      <trkpt lat="47.01454" lon="8.88172">
        <ele>1343</ele>
        <time>2021-08-03T10:25:21.243Z</time>
      </trkpt>
      <trkpt lat="47.01453" lon="8.88172">
        <ele>1342</ele>
        <time>2021-08-03T10:25:22.243Z</time>
      </trkpt>
      <trkpt lat="47.01453" lon="8.88171">
        <ele>1341</ele>
        <time>2021-08-03T10:25:23.243Z</time>
      </trkpt>
      <trkpt lat="47.01452" lon="8.8817">
        <ele>1339</ele>
        <time>2021-08-03T10:25:24.244Z</time>
      </trkpt>
      <trkpt lat="47.01451" lon="8.88169">
        <ele>1338</ele>
        <time>2021-08-03T10:25:25.244Z</time>
      </trkpt>
      <trkpt lat="47.01451" lon="8.88169">
        <ele>1338</ele>
        <time>2021-08-03T10:25:26.244Z</time>
      </trkpt>
      <trkpt lat="47.01449" lon="8.88167">
        <ele>1337</ele>
        <time>2021-08-03T10:25:27.244Z</time>
      </trkpt>
      <trkpt lat="47.01448" lon="8.88167">
        <ele>1337</ele>
        <time>2021-08-03T10:25:28.243Z</time>
      </trkpt>
      <trkpt lat="47.01447" lon="8.88167">
        <ele>1337</ele>
        <time>2021-08-03T10:25:29.244Z</time>
      </trkpt>
      <trkpt lat="47.01446" lon="8.88166">
        <ele>1337</ele>
        <time>2021-08-03T10:25:30.243Z</time>
      </trkpt>
      <trkpt lat="47.01445" lon="8.88166">
        <ele>1338</ele>
        <time>2021-08-03T10:25:31.243Z</time>
      </trkpt>
      <trkpt lat="47.01443" lon="8.88165">
        <ele>1338</ele>
        <time>2021-08-03T10:25:32.244Z</time>
      </trkpt>
      <trkpt lat="47.01442" lon="8.88165">
        <ele>1338</ele>
        <time>2021-08-03T10:25:33.244Z</time>
      </trkpt>
      <trkpt lat="47.01441" lon="8.88165">
        <ele>1339</ele>
        <time>2021-08-03T10:25:34.244Z</time>
      </trkpt>
      <trkpt lat="47.0144" lon="8.88164">
        <ele>1339</ele>
        <time>2021-08-03T10:25:35.244Z</time>
      </trkpt>
      <trkpt lat="47.01439" lon="8.88164">
        <ele>1339</ele>
        <time>2021-08-03T10:25:36.243Z</time>
      </trkpt>
      <trkpt lat="47.01438" lon="8.88163">
        <ele>1340</ele>
        <time>2021-08-03T10:25:37.243Z</time>
      </trkpt>
      <trkpt lat="47.01437" lon="8.88162">
        <ele>1340</ele>
        <time>2021-08-03T10:25:38.243Z</time>
      </trkpt>
      <trkpt lat="47.01436" lon="8.88161">
        <ele>1340</ele>
        <time>2021-08-03T10:25:39.243Z</time>
      </trkpt>
      <trkpt lat="47.01435" lon="8.88161">
        <ele>1340</ele>
        <time>2021-08-03T10:25:40.244Z</time>
      </trkpt>
      <trkpt lat="47.01435" lon="8.88159">
        <ele>1340</ele>
        <time>2021-08-03T10:25:41.243Z</time>
      </trkpt>
      <trkpt lat="47.01434" lon="8.88159">
        <ele>1340</ele>
        <time>2021-08-03T10:25:42.244Z</time>
      </trkpt>
      <trkpt lat="47.01433" lon="8.88157">
        <ele>1340</ele>
        <time>2021-08-03T10:25:43.243Z</time>
      </trkpt>
      <trkpt lat="47.01433" lon="8.88156">
        <ele>1340</ele>
        <time>2021-08-03T10:25:44.244Z</time>
      </trkpt>
      <trkpt lat="47.01432" lon="8.88155">
        <ele>1341</ele>
        <time>2021-08-03T10:25:45.244Z</time>
      </trkpt>
      <trkpt lat="47.01432" lon="8.88154">
        <ele>1341</ele>
        <time>2021-08-03T10:25:46.243Z</time>
      </trkpt>
      <trkpt lat="47.01431" lon="8.88153">
        <ele>1341</ele>
        <time>2021-08-03T10:25:47.244Z</time>
      </trkpt>
      <trkpt lat="47.0143" lon="8.88152">
        <ele>1342</ele>
        <time>2021-08-03T10:25:48.244Z</time>
      </trkpt>
      <trkpt lat="47.01429" lon="8.88151">
        <ele>1342</ele>
        <time>2021-08-03T10:25:49.244Z</time>
      </trkpt>
      <trkpt lat="47.01427" lon="8.88151">
        <ele>1343</ele>
        <time>2021-08-03T10:25:50.244Z</time>
      </trkpt>
      <trkpt lat="47.01426" lon="8.8815">
        <ele>1344</ele>
        <time>2021-08-03T10:25:51.243Z</time>
      </trkpt>
      <trkpt lat="47.01426" lon="8.88149">
        <ele>1344</ele>
        <time>2021-08-03T10:25:52.243Z</time>
      </trkpt>
      <trkpt lat="47.01425" lon="8.88148">
        <ele>1344</ele>
        <time>2021-08-03T10:25:53.244Z</time>
      </trkpt>
      <trkpt lat="47.01424" lon="8.88147">
        <ele>1344</ele>
        <time>2021-08-03T10:25:54.244Z</time>
      </trkpt>
      <trkpt lat="47.01423" lon="8.88146">
        <ele>1344</ele>
        <time>2021-08-03T10:25:55.244Z</time>
      </trkpt>
      <trkpt lat="47.01422" lon="8.88145">
        <ele>1344</ele>
        <time>2021-08-03T10:25:56.243Z</time>
      </trkpt>
      <trkpt lat="47.01422" lon="8.88145">
        <ele>1343</ele>
        <time>2021-08-03T10:25:57.243Z</time>
      </trkpt>
      <trkpt lat="47.01421" lon="8.88144">
        <ele>1343</ele>
        <time>2021-08-03T10:25:58.244Z</time>
      </trkpt>
      <trkpt lat="47.0142" lon="8.88143">
        <ele>1344</ele>
        <time>2021-08-03T10:25:59.244Z</time>
      </trkpt>
      <trkpt lat="47.01419" lon="8.88142">
        <ele>1344</ele>
        <time>2021-08-03T10:26:00.244Z</time>
      </trkpt>
      <trkpt lat="47.01419" lon="8.8814">
        <ele>1344</ele>
        <time>2021-08-03T10:26:01.244Z</time>
      </trkpt>
      <trkpt lat="47.01418" lon="8.88139">
        <ele>1344</ele>
        <time>2021-08-03T10:26:02.244Z</time>
      </trkpt>
      <trkpt lat="47.01417" lon="8.88138">
        <ele>1344</ele>
        <time>2021-08-03T10:26:03.243Z</time>
      </trkpt>
      <trkpt lat="47.01416" lon="8.88137">
        <ele>1344</ele>
        <time>2021-08-03T10:26:04.243Z</time>
      </trkpt>
      <trkpt lat="47.01415" lon="8.88136">
        <ele>1345</ele>
        <time>2021-08-03T10:26:05.244Z</time>
      </trkpt>
      <trkpt lat="47.01413" lon="8.88135">
        <ele>1345</ele>
        <time>2021-08-03T10:26:06.243Z</time>
      </trkpt>
      <trkpt lat="47.01412" lon="8.88135">
        <ele>1345</ele>
        <time>2021-08-03T10:26:07.243Z</time>
      </trkpt>
      <trkpt lat="47.01411" lon="8.88134">
        <ele>1345</ele>
        <time>2021-08-03T10:26:08.244Z</time>
      </trkpt>
      <trkpt lat="47.0141" lon="8.88134">
        <ele>1344</ele>
        <time>2021-08-03T10:26:09.243Z</time>
      </trkpt>
      <trkpt lat="47.01409" lon="8.88133">
        <ele>1344</ele>
        <time>2021-08-03T10:26:10.244Z</time>
      </trkpt>
      <trkpt lat="47.01409" lon="8.88132">
        <ele>1344</ele>
        <time>2021-08-03T10:26:11.244Z</time>
      </trkpt>
      <trkpt lat="47.01407" lon="8.88131">
        <ele>1344</ele>
        <time>2021-08-03T10:26:12.244Z</time>
      </trkpt>
      <trkpt lat="47.01406" lon="8.88131">
        <ele>1344</ele>
        <time>2021-08-03T10:26:13.244Z</time>
      </trkpt>
      <trkpt lat="47.01405" lon="8.8813">
        <ele>1344</ele>
        <time>2021-08-03T10:26:14.243Z</time>
      </trkpt>
      <trkpt lat="47.01405" lon="8.88129">
        <ele>1344</ele>
        <time>2021-08-03T10:26:15.244Z</time>
      </trkpt>
      <trkpt lat="47.01404" lon="8.88128">
        <ele>1344</ele>
        <time>2021-08-03T10:26:16.243Z</time>
      </trkpt>
      <trkpt lat="47.01403" lon="8.88128">
        <ele>1345</ele>
        <time>2021-08-03T10:26:17.244Z</time>
      </trkpt>
      <trkpt lat="47.01402" lon="8.88127">
        <ele>1345</ele>
        <time>2021-08-03T10:26:18.243Z</time>
      </trkpt>
      <trkpt lat="47.01401" lon="8.88127">
        <ele>1345</ele>
        <time>2021-08-03T10:26:19.244Z</time>
      </trkpt>
      <trkpt lat="47.014" lon="8.88126">
        <ele>1345</ele>
        <time>2021-08-03T10:26:20.244Z</time>
      </trkpt>
      <trkpt lat="47.01399" lon="8.88126">
        <ele>1345</ele>
        <time>2021-08-03T10:26:21.243Z</time>
      </trkpt>
      <trkpt lat="47.01398" lon="8.88125">
        <ele>1345</ele>
        <time>2021-08-03T10:26:22.243Z</time>
      </trkpt>
      <trkpt lat="47.01397" lon="8.88125">
        <ele>1344</ele>
        <time>2021-08-03T10:26:23.243Z</time>
      </trkpt>
      <trkpt lat="47.01396" lon="8.88124">
        <ele>1344</ele>
        <time>2021-08-03T10:26:24.243Z</time>
      </trkpt>
      <trkpt lat="47.01395" lon="8.88123">
        <ele>1344</ele>
        <time>2021-08-03T10:26:25.244Z</time>
      </trkpt>
      <trkpt lat="47.01394" lon="8.88122">
        <ele>1344</ele>
        <time>2021-08-03T10:26:26.244Z</time>
      </trkpt>
      <trkpt lat="47.01393" lon="8.88121">
        <ele>1344</ele>
        <time>2021-08-03T10:26:27.243Z</time>
      </trkpt>
      <trkpt lat="47.01392" lon="8.8812">
        <ele>1344</ele>
        <time>2021-08-03T10:26:28.244Z</time>
      </trkpt>
      <trkpt lat="47.01391" lon="8.8812">
        <ele>1344</ele>
        <time>2021-08-03T10:26:29.244Z</time>
      </trkpt>
      <trkpt lat="47.0139" lon="8.8812">
        <ele>1345</ele>
        <time>2021-08-03T10:26:30.244Z</time>
      </trkpt>
      <trkpt lat="47.01389" lon="8.8812">
        <ele>1345</ele>
        <time>2021-08-03T10:26:31.244Z</time>
      </trkpt>
      <trkpt lat="47.01388" lon="8.88119">
        <ele>1345</ele>
        <time>2021-08-03T10:26:32.244Z</time>
      </trkpt>
      <trkpt lat="47.01387" lon="8.88119">
        <ele>1346</ele>
        <time>2021-08-03T10:26:33.244Z</time>
      </trkpt>
      <trkpt lat="47.01386" lon="8.88118">
        <ele>1346</ele>
        <time>2021-08-03T10:26:34.243Z</time>
      </trkpt>
      <trkpt lat="47.01385" lon="8.88118">
        <ele>1346</ele>
        <time>2021-08-03T10:26:35.243Z</time>
      </trkpt>
      <trkpt lat="47.01384" lon="8.88117">
        <ele>1346</ele>
        <time>2021-08-03T10:26:36.243Z</time>
      </trkpt>
      <trkpt lat="47.01383" lon="8.88117">
        <ele>1346</ele>
        <time>2021-08-03T10:26:37.244Z</time>
      </trkpt>
      <trkpt lat="47.01382" lon="8.88116">
        <ele>1345</ele>
        <time>2021-08-03T10:26:38.243Z</time>
      </trkpt>
      <trkpt lat="47.01382" lon="8.88115">
        <ele>1345</ele>
        <time>2021-08-03T10:26:39.243Z</time>
      </trkpt>
      <trkpt lat="47.01381" lon="8.88114">
        <ele>1345</ele>
        <time>2021-08-03T10:26:40.244Z</time>
      </trkpt>
      <trkpt lat="47.0138" lon="8.88113">
        <ele>1345</ele>
        <time>2021-08-03T10:26:41.244Z</time>
      </trkpt>
      <trkpt lat="47.01379" lon="8.88112">
        <ele>1345</ele>
        <time>2021-08-03T10:26:42.243Z</time>
      </trkpt>
      <trkpt lat="47.01378" lon="8.88111">
        <ele>1344</ele>
        <time>2021-08-03T10:26:43.243Z</time>
      </trkpt>
      <trkpt lat="47.01377" lon="8.88111">
        <ele>1344</ele>
        <time>2021-08-03T10:26:44.243Z</time>
      </trkpt>
      <trkpt lat="47.01376" lon="8.8811">
        <ele>1343</ele>
        <time>2021-08-03T10:26:45.243Z</time>
      </trkpt>
      <trkpt lat="47.01375" lon="8.8811">
        <ele>1343</ele>
        <time>2021-08-03T10:26:46.243Z</time>
      </trkpt>
      <trkpt lat="47.01374" lon="8.88109">
        <ele>1343</ele>
        <time>2021-08-03T10:26:47.244Z</time>
      </trkpt>
      <trkpt lat="47.01373" lon="8.88108">
        <ele>1343</ele>
        <time>2021-08-03T10:26:48.244Z</time>
      </trkpt>
      <trkpt lat="47.01372" lon="8.88107">
        <ele>1344</ele>
        <time>2021-08-03T10:26:49.244Z</time>
      </trkpt>
      <trkpt lat="47.0137" lon="8.88106">
        <ele>1344</ele>
        <time>2021-08-03T10:26:50.244Z</time>
      </trkpt>
      <trkpt lat="47.0137" lon="8.88105">
        <ele>1344</ele>
        <time>2021-08-03T10:26:51.244Z</time>
      </trkpt>
      <trkpt lat="47.01369" lon="8.88104">
        <ele>1344</ele>
        <time>2021-08-03T10:26:52.243Z</time>
      </trkpt>
      <trkpt lat="47.01368" lon="8.88102">
        <ele>1344</ele>
        <time>2021-08-03T10:26:53.243Z</time>
      </trkpt>
      <trkpt lat="47.01368" lon="8.881">
        <ele>1344</ele>
        <time>2021-08-03T10:26:54.244Z</time>
      </trkpt>
      <trkpt lat="47.01367" lon="8.88098">
        <ele>1344</ele>
        <time>2021-08-03T10:26:55.244Z</time>
      </trkpt>
      <trkpt lat="47.01367" lon="8.88097">
        <ele>1344</ele>
        <time>2021-08-03T10:26:56.244Z</time>
      </trkpt>
      <trkpt lat="47.01367" lon="8.88095">
        <ele>1344</ele>
        <time>2021-08-03T10:26:57.243Z</time>
      </trkpt>
      <trkpt lat="47.01366" lon="8.88093">
        <ele>1344</ele>
        <time>2021-08-03T10:26:58.244Z</time>
      </trkpt>
      <trkpt lat="47.01366" lon="8.88092">
        <ele>1344</ele>
        <time>2021-08-03T10:26:59.244Z</time>
      </trkpt>
      <trkpt lat="47.01365" lon="8.8809">
        <ele>1344</ele>
        <time>2021-08-03T10:27:00.243Z</time>
      </trkpt>
      <trkpt lat="47.01364" lon="8.88089">
        <ele>1344</ele>
        <time>2021-08-03T10:27:01.244Z</time>
      </trkpt>
      <trkpt lat="47.01363" lon="8.88088">
        <ele>1344</ele>
        <time>2021-08-03T10:27:02.243Z</time>
      </trkpt>
      <trkpt lat="47.01362" lon="8.88087">
        <ele>1344</ele>
        <time>2021-08-03T10:27:03.243Z</time>
      </trkpt>
      <trkpt lat="47.01361" lon="8.88086">
        <ele>1344</ele>
        <time>2021-08-03T10:27:04.244Z</time>
      </trkpt>
      <trkpt lat="47.01361" lon="8.88085">
        <ele>1345</ele>
        <time>2021-08-03T10:27:05.244Z</time>
      </trkpt>
      <trkpt lat="47.0136" lon="8.88084">
        <ele>1345</ele>
        <time>2021-08-03T10:27:06.244Z</time>
      </trkpt>
      <trkpt lat="47.01359" lon="8.88083">
        <ele>1345</ele>
        <time>2021-08-03T10:27:07.244Z</time>
      </trkpt>
      <trkpt lat="47.01358" lon="8.88083">
        <ele>1346</ele>
        <time>2021-08-03T10:27:08.243Z</time>
      </trkpt>
      <trkpt lat="47.01357" lon="8.88082">
        <ele>1346</ele>
        <time>2021-08-03T10:27:09.244Z</time>
      </trkpt>
      <trkpt lat="47.01356" lon="8.88082">
        <ele>1346</ele>
        <time>2021-08-03T10:27:10.244Z</time>
      </trkpt>
      <trkpt lat="47.01355" lon="8.88082">
        <ele>1347</ele>
        <time>2021-08-03T10:27:11.243Z</time>
      </trkpt>
      <trkpt lat="47.01354" lon="8.88082">
        <ele>1347</ele>
        <time>2021-08-03T10:27:12.244Z</time>
      </trkpt>
      <trkpt lat="47.01353" lon="8.88082">
        <ele>1347</ele>
        <time>2021-08-03T10:27:13.244Z</time>
      </trkpt>
      <trkpt lat="47.01352" lon="8.88082">
        <ele>1347</ele>
        <time>2021-08-03T10:27:14.244Z</time>
      </trkpt>
      <trkpt lat="47.01352" lon="8.88082">
        <ele>1347</ele>
        <time>2021-08-03T10:27:15.243Z</time>
      </trkpt>
      <trkpt lat="47.01351" lon="8.88082">
        <ele>1347</ele>
        <time>2021-08-03T10:27:16.244Z</time>
      </trkpt>
      <trkpt lat="47.0135" lon="8.88081">
        <ele>1347</ele>
        <time>2021-08-03T10:27:17.244Z</time>
      </trkpt>
      <trkpt lat="47.01349" lon="8.88081">
        <ele>1347</ele>
        <time>2021-08-03T10:27:18.244Z</time>
      </trkpt>
      <trkpt lat="47.01348" lon="8.8808">
        <ele>1347</ele>
        <time>2021-08-03T10:27:19.243Z</time>
      </trkpt>
      <trkpt lat="47.01347" lon="8.8808">
        <ele>1347</ele>
        <time>2021-08-03T10:27:20.244Z</time>
      </trkpt>
      <trkpt lat="47.01347" lon="8.8808">
        <ele>1346</ele>
        <time>2021-08-03T10:27:21.244Z</time>
      </trkpt>
      <trkpt lat="47.01346" lon="8.88079">
        <ele>1346</ele>
        <time>2021-08-03T10:27:22.244Z</time>
      </trkpt>
      <trkpt lat="47.01345" lon="8.88079">
        <ele>1345</ele>
        <time>2021-08-03T10:27:23.244Z</time>
      </trkpt>
      <trkpt lat="47.01344" lon="8.88079">
        <ele>1344</ele>
        <time>2021-08-03T10:27:24.243Z</time>
      </trkpt>
      <trkpt lat="47.01343" lon="8.88079">
        <ele>1344</ele>
        <time>2021-08-03T10:27:25.244Z</time>
      </trkpt>
      <trkpt lat="47.01342" lon="8.88078">
        <ele>1344</ele>
        <time>2021-08-03T10:27:26.244Z</time>
      </trkpt>
      <trkpt lat="47.01341" lon="8.88078">
        <ele>1344</ele>
        <time>2021-08-03T10:27:27.243Z</time>
      </trkpt>
      <trkpt lat="47.0134" lon="8.88079">
        <ele>1344</ele>
        <time>2021-08-03T10:27:28.244Z</time>
      </trkpt>
      <trkpt lat="47.01339" lon="8.88079">
        <ele>1343</ele>
        <time>2021-08-03T10:27:29.244Z</time>
      </trkpt>
      <trkpt lat="47.01338" lon="8.88079">
        <ele>1344</ele>
        <time>2021-08-03T10:27:30.244Z</time>
      </trkpt>
      <trkpt lat="47.01337" lon="8.88079">
        <ele>1344</ele>
        <time>2021-08-03T10:27:31.244Z</time>
      </trkpt>
      <trkpt lat="47.01336" lon="8.88079">
        <ele>1344</ele>
        <time>2021-08-03T10:27:32.244Z</time>
      </trkpt>
      <trkpt lat="47.01334" lon="8.8808">
        <ele>1345</ele>
        <time>2021-08-03T10:27:33.243Z</time>
      </trkpt>
      <trkpt lat="47.01333" lon="8.8808">
        <ele>1345</ele>
        <time>2021-08-03T10:27:34.244Z</time>
      </trkpt>
      <trkpt lat="47.01332" lon="8.8808">
        <ele>1345</ele>
        <time>2021-08-03T10:27:35.243Z</time>
      </trkpt>
      <trkpt lat="47.01331" lon="8.8808">
        <ele>1345</ele>
        <time>2021-08-03T10:27:36.244Z</time>
      </trkpt>
      <trkpt lat="47.0133" lon="8.8808">
        <ele>1345</ele>
        <time>2021-08-03T10:27:37.244Z</time>
      </trkpt>
      <trkpt lat="47.01329" lon="8.8808">
        <ele>1345</ele>
        <time>2021-08-03T10:27:38.244Z</time>
      </trkpt>
      <trkpt lat="47.01328" lon="8.88081">
        <ele>1345</ele>
        <time>2021-08-03T10:27:39.244Z</time>
      </trkpt>
      <trkpt lat="47.01326" lon="8.88082">
        <ele>1346</ele>
        <time>2021-08-03T10:27:40.244Z</time>
      </trkpt>
      <trkpt lat="47.01325" lon="8.88083">
        <ele>1346</ele>
        <time>2021-08-03T10:27:41.244Z</time>
      </trkpt>
      <trkpt lat="47.01324" lon="8.88083">
        <ele>1347</ele>
        <time>2021-08-03T10:27:42.244Z</time>
      </trkpt>
      <trkpt lat="47.01324" lon="8.88084">
        <ele>1347</ele>
        <time>2021-08-03T10:27:43.244Z</time>
      </trkpt>
      <trkpt lat="47.01324" lon="8.88084">
        <ele>1347</ele>
        <time>2021-08-03T10:27:44.244Z</time>
      </trkpt>
      <trkpt lat="47.01322" lon="8.88086">
        <ele>1347</ele>
        <time>2021-08-03T10:27:45.243Z</time>
      </trkpt>
      <trkpt lat="47.01321" lon="8.88087">
        <ele>1347</ele>
        <time>2021-08-03T10:27:46.244Z</time>
      </trkpt>
      <trkpt lat="47.01321" lon="8.88083">
        <ele>1349</ele>
        <time>2021-08-03T10:27:47.244Z</time>
      </trkpt>
      <trkpt lat="47.0132" lon="8.88082">
        <ele>1349</ele>
        <time>2021-08-03T10:27:48.244Z</time>
      </trkpt>
      <trkpt lat="47.01319" lon="8.88081">
        <ele>1349</ele>
        <time>2021-08-03T10:27:49.244Z</time>
      </trkpt>
      <trkpt lat="47.01319" lon="8.88081">
        <ele>1349</ele>
        <time>2021-08-03T10:27:50.245Z</time>
      </trkpt>
      <trkpt lat="47.01318" lon="8.8808">
        <ele>1349</ele>
        <time>2021-08-03T10:27:51.244Z</time>
      </trkpt>
      <trkpt lat="47.01318" lon="8.88081">
        <ele>1350</ele>
        <time>2021-08-03T10:27:52.244Z</time>
      </trkpt>
      <trkpt lat="47.01319" lon="8.88082">
        <ele>1350</ele>
        <time>2021-08-03T10:27:53.245Z</time>
      </trkpt>
      <trkpt lat="47.0132" lon="8.88082">
        <ele>1350</ele>
        <time>2021-08-03T10:27:54.245Z</time>
      </trkpt>
      <trkpt lat="47.01319" lon="8.88082">
        <ele>1350</ele>
        <time>2021-08-03T10:27:55.245Z</time>
      </trkpt>
      <trkpt lat="47.01319" lon="8.88083">
        <ele>1350</ele>
        <time>2021-08-03T10:27:56.246Z</time>
      </trkpt>
      <trkpt lat="47.0132" lon="8.88083">
        <ele>1351</ele>
        <time>2021-08-03T10:27:57.245Z</time>
      </trkpt>
      <trkpt lat="47.01319" lon="8.88084">
        <ele>1350</ele>
        <time>2021-08-03T10:27:58.247Z</time>
      </trkpt>
      <trkpt lat="47.01319" lon="8.88083">
        <ele>1350</ele>
        <time>2021-08-03T10:27:59.247Z</time>
      </trkpt>
      <trkpt lat="47.01319" lon="8.88083">
        <ele>1349</ele>
        <time>2021-08-03T10:28:00.246Z</time>
      </trkpt>
      <trkpt lat="47.01319" lon="8.88082">
        <ele>1348</ele>
        <time>2021-08-03T10:28:01.247Z</time>
      </trkpt>
      <trkpt lat="47.0132" lon="8.88082">
        <ele>1347</ele>
        <time>2021-08-03T10:28:02.246Z</time>
      </trkpt>
      <trkpt lat="47.0132" lon="8.88082">
        <ele>1347</ele>
        <time>2021-08-03T10:28:03.246Z</time>
      </trkpt>
      <trkpt lat="47.01321" lon="8.88083">
        <ele>1346</ele>
        <time>2021-08-03T10:28:04.249Z</time>
      </trkpt>
      <trkpt lat="47.0132" lon="8.88083">
        <ele>1347</ele>
        <time>2021-08-03T10:28:05.248Z</time>
      </trkpt>
      <trkpt lat="47.0132" lon="8.88082">
        <ele>1347</ele>
        <time>2021-08-03T10:28:06.249Z</time>
      </trkpt>
      <trkpt lat="47.01321" lon="8.88082">
        <ele>1352</ele>
        <time>2021-08-03T10:28:07.250Z</time>
      </trkpt>
      <trkpt lat="47.01321" lon="8.88083">
        <ele>1345</ele>
        <time>2021-08-03T10:28:08.250Z</time>
      </trkpt>
      <trkpt lat="47.01321" lon="8.88082">
        <ele>1344</ele>
        <time>2021-08-03T10:28:09.251Z</time>
      </trkpt>
      <trkpt lat="47.01321" lon="8.88081">
        <ele>1343</ele>
        <time>2021-08-03T10:28:10.251Z</time>
      </trkpt>
      <trkpt lat="47.01321" lon="8.88081">
        <ele>1342</ele>
        <time>2021-08-03T10:28:11.251Z</time>
      </trkpt>
      <trkpt lat="47.0132" lon="8.8808">
        <ele>1342</ele>
        <time>2021-08-03T10:28:12.251Z</time>
      </trkpt>
      <trkpt lat="47.0132" lon="8.8808">
        <ele>1341</ele>
        <time>2021-08-03T10:28:13.251Z</time>
      </trkpt>
      <trkpt lat="47.0132" lon="8.8808">
        <ele>1341</ele>
        <time>2021-08-03T10:28:14.251Z</time>
      </trkpt>
      <trkpt lat="47.0132" lon="8.88081">
        <ele>1340</ele>
        <time>2021-08-03T10:28:15.251Z</time>
      </trkpt>
      <trkpt lat="47.01319" lon="8.88082">
        <ele>1340</ele>
        <time>2021-08-03T10:28:16.251Z</time>
      </trkpt>
      <trkpt lat="47.0132" lon="8.88083">
        <ele>1340</ele>
        <time>2021-08-03T10:28:17.251Z</time>
      </trkpt>
      <trkpt lat="47.0132" lon="8.88084">
        <ele>1340</ele>
        <time>2021-08-03T10:28:18.251Z</time>
      </trkpt>
      <trkpt lat="47.0132" lon="8.88084">
        <ele>1340</ele>
        <time>2021-08-03T10:28:19.251Z</time>
      </trkpt>
      <trkpt lat="47.01319" lon="8.88082">
        <ele>1341</ele>
        <time>2021-08-03T10:28:20.252Z</time>
      </trkpt>
      <trkpt lat="47.01319" lon="8.88082">
        <ele>1341</ele>
        <time>2021-08-03T10:28:21.252Z</time>
      </trkpt>
      <trkpt lat="47.01319" lon="8.88081">
        <ele>1341</ele>
        <time>2021-08-03T10:28:22.251Z</time>
      </trkpt>
      <trkpt lat="47.01321" lon="8.88083">
        <ele>1353</ele>
        <time>2021-08-03T10:28:23.252Z</time>
      </trkpt>
      <trkpt lat="47.01321" lon="8.88082">
        <ele>1354</ele>
        <time>2021-08-03T10:28:24.252Z</time>
      </trkpt>
      <trkpt lat="47.0132" lon="8.88081">
        <ele>1354</ele>
        <time>2021-08-03T10:28:25.251Z</time>
      </trkpt>
      <trkpt lat="47.0132" lon="8.88079">
        <ele>1354</ele>
        <time>2021-08-03T10:28:26.252Z</time>
      </trkpt>
      <trkpt lat="47.0132" lon="8.88078">
        <ele>1354</ele>
        <time>2021-08-03T10:28:27.252Z</time>
      </trkpt>
      <trkpt lat="47.0132" lon="8.88076">
        <ele>1353</ele>
        <time>2021-08-03T10:28:28.252Z</time>
      </trkpt>
      <trkpt lat="47.0132" lon="8.88076">
        <ele>1353</ele>
        <time>2021-08-03T10:28:29.252Z</time>
      </trkpt>
      <trkpt lat="47.0132" lon="8.88076">
        <ele>1352</ele>
        <time>2021-08-03T10:28:30.252Z</time>
      </trkpt>
      <trkpt lat="47.0132" lon="8.88076">
        <ele>1352</ele>
        <time>2021-08-03T10:28:31.252Z</time>
      </trkpt>
      <trkpt lat="47.01324" lon="8.88069">
        <ele>1348</ele>
        <time>2021-08-03T10:28:32.253Z</time>
      </trkpt>
      <trkpt lat="47.01324" lon="8.88069">
        <ele>1347</ele>
        <time>2021-08-03T10:28:33.253Z</time>
      </trkpt>
      <trkpt lat="47.01324" lon="8.88069">
        <ele>1347</ele>
        <time>2021-08-03T10:28:34.252Z</time>
      </trkpt>
      <trkpt lat="47.01324" lon="8.88069">
        <ele>1345</ele>
        <time>2021-08-03T10:28:35.253Z</time>
      </trkpt>
      <trkpt lat="47.01325" lon="8.88068">
        <ele>1345</ele>
        <time>2021-08-03T10:28:36.254Z</time>
      </trkpt>
      <trkpt lat="47.01325" lon="8.88068">
        <ele>1345</ele>
        <time>2021-08-03T10:28:37.253Z</time>
      </trkpt>
      <trkpt lat="47.01325" lon="8.88068">
        <ele>1346</ele>
        <time>2021-08-03T10:28:38.254Z</time>
      </trkpt>
      <trkpt lat="47.01324" lon="8.88069">
        <ele>1346</ele>
        <time>2021-08-03T10:28:39.254Z</time>
      </trkpt>
      <trkpt lat="47.01323" lon="8.88068">
        <ele>1351</ele>
        <time>2021-08-03T10:28:40.254Z</time>
      </trkpt>
      <trkpt lat="47.01323" lon="8.88068">
        <ele>1352</ele>
        <time>2021-08-03T10:28:41.255Z</time>
      </trkpt>
      <trkpt lat="47.01323" lon="8.88067">
        <ele>1352</ele>
        <time>2021-08-03T10:28:42.254Z</time>
      </trkpt>
      <trkpt lat="47.01323" lon="8.88066">
        <ele>1353</ele>
        <time>2021-08-03T10:28:43.254Z</time>
      </trkpt>
      <trkpt lat="47.01323" lon="8.88065">
        <ele>1353</ele>
        <time>2021-08-03T10:28:44.255Z</time>
      </trkpt>
      <trkpt lat="47.01323" lon="8.88064">
        <ele>1353</ele>
        <time>2021-08-03T10:28:45.255Z</time>
      </trkpt>
      <trkpt lat="47.01323" lon="8.88063">
        <ele>1353</ele>
        <time>2021-08-03T10:28:46.255Z</time>
      </trkpt>
      <trkpt lat="47.01322" lon="8.88061">
        <ele>1352</ele>
        <time>2021-08-03T10:28:47.254Z</time>
      </trkpt>
      <trkpt lat="47.01322" lon="8.8806">
        <ele>1352</ele>
        <time>2021-08-03T10:28:48.255Z</time>
      </trkpt>
      <trkpt lat="47.01322" lon="8.88059">
        <ele>1352</ele>
        <time>2021-08-03T10:28:49.255Z</time>
      </trkpt>
      <trkpt lat="47.01322" lon="8.88059">
        <ele>1353</ele>
        <time>2021-08-03T10:28:50.255Z</time>
      </trkpt>
      <trkpt lat="47.01322" lon="8.88058">
        <ele>1353</ele>
        <time>2021-08-03T10:28:51.254Z</time>
      </trkpt>
      <trkpt lat="47.01319" lon="8.88057">
        <ele>1356</ele>
        <time>2021-08-03T10:28:52.255Z</time>
      </trkpt>
      <trkpt lat="47.01318" lon="8.88059">
        <ele>1356</ele>
        <time>2021-08-03T10:28:53.255Z</time>
      </trkpt>
      <trkpt lat="47.01318" lon="8.8806">
        <ele>1357</ele>
        <time>2021-08-03T10:28:54.255Z</time>
      </trkpt>
      <trkpt lat="47.01322" lon="8.8806">
        <ele>1353</ele>
        <time>2021-08-03T10:28:55.254Z</time>
      </trkpt>
      <trkpt lat="47.01321" lon="8.88059">
        <ele>1353</ele>
        <time>2021-08-03T10:28:56.254Z</time>
      </trkpt>
      <trkpt lat="47.01321" lon="8.88058">
        <ele>1352</ele>
        <time>2021-08-03T10:28:57.254Z</time>
      </trkpt>
      <trkpt lat="47.01321" lon="8.88058">
        <ele>1352</ele>
        <time>2021-08-03T10:28:58.255Z</time>
      </trkpt>
      <trkpt lat="47.01321" lon="8.88057">
        <ele>1351</ele>
        <time>2021-08-03T10:28:59.255Z</time>
      </trkpt>
      <trkpt lat="47.01321" lon="8.88058">
        <ele>1351</ele>
        <time>2021-08-03T10:29:00.254Z</time>
      </trkpt>
      <trkpt lat="47.01318" lon="8.88058">
        <ele>1352</ele>
        <time>2021-08-03T10:29:01.256Z</time>
      </trkpt>
      <trkpt lat="47.01318" lon="8.88058">
        <ele>1353</ele>
        <time>2021-08-03T10:29:02.256Z</time>
      </trkpt>
      <trkpt lat="47.01319" lon="8.88059">
        <ele>1354</ele>
        <time>2021-08-03T10:29:03.255Z</time>
      </trkpt>
      <trkpt lat="47.01317" lon="8.88057">
        <ele>1355</ele>
        <time>2021-08-03T10:29:04.255Z</time>
      </trkpt>
      <trkpt lat="47.01317" lon="8.88055">
        <ele>1354</ele>
        <time>2021-08-03T10:29:05.256Z</time>
      </trkpt>
      <trkpt lat="47.01317" lon="8.88053">
        <ele>1354</ele>
        <time>2021-08-03T10:29:06.256Z</time>
      </trkpt>
      <trkpt lat="47.01317" lon="8.88051">
        <ele>1353</ele>
        <time>2021-08-03T10:29:07.255Z</time>
      </trkpt>
      <trkpt lat="47.01316" lon="8.88049">
        <ele>1353</ele>
        <time>2021-08-03T10:29:08.256Z</time>
      </trkpt>
      <trkpt lat="47.01316" lon="8.88048">
        <ele>1353</ele>
        <time>2021-08-03T10:29:09.255Z</time>
      </trkpt>
      <trkpt lat="47.01316" lon="8.88046">
        <ele>1352</ele>
        <time>2021-08-03T10:29:10.256Z</time>
      </trkpt>
      <trkpt lat="47.01315" lon="8.88044">
        <ele>1351</ele>
        <time>2021-08-03T10:29:11.256Z</time>
      </trkpt>
      <trkpt lat="47.01316" lon="8.88042">
        <ele>1351</ele>
        <time>2021-08-03T10:29:12.255Z</time>
      </trkpt>
      <trkpt lat="47.01316" lon="8.88041">
        <ele>1350</ele>
        <time>2021-08-03T10:29:13.256Z</time>
      </trkpt>
      <trkpt lat="47.01315" lon="8.88039">
        <ele>1349</ele>
        <time>2021-08-03T10:29:14.256Z</time>
      </trkpt>
      <trkpt lat="47.01314" lon="8.88038">
        <ele>1349</ele>
        <time>2021-08-03T10:29:15.256Z</time>
      </trkpt>
      <trkpt lat="47.01314" lon="8.88036">
        <ele>1348</ele>
        <time>2021-08-03T10:29:16.256Z</time>
      </trkpt>
      <trkpt lat="47.01314" lon="8.88035">
        <ele>1348</ele>
        <time>2021-08-03T10:29:17.256Z</time>
      </trkpt>
      <trkpt lat="47.01313" lon="8.88033">
        <ele>1347</ele>
        <time>2021-08-03T10:29:18.255Z</time>
      </trkpt>
      <trkpt lat="47.01313" lon="8.88032">
        <ele>1347</ele>
        <time>2021-08-03T10:29:19.255Z</time>
      </trkpt>
      <trkpt lat="47.01312" lon="8.88031">
        <ele>1347</ele>
        <time>2021-08-03T10:29:20.256Z</time>
      </trkpt>
      <trkpt lat="47.01312" lon="8.88031">
        <ele>1348</ele>
        <time>2021-08-03T10:29:21.256Z</time>
      </trkpt>
      <trkpt lat="47.01312" lon="8.88031">
        <ele>1349</ele>
        <time>2021-08-03T10:29:22.256Z</time>
      </trkpt>
      <trkpt lat="47.01311" lon="8.88027">
        <ele>1350</ele>
        <time>2021-08-03T10:29:23.256Z</time>
      </trkpt>
      <trkpt lat="47.01311" lon="8.88026">
        <ele>1350</ele>
        <time>2021-08-03T10:29:24.256Z</time>
      </trkpt>
      <trkpt lat="47.01311" lon="8.88025">
        <ele>1350</ele>
        <time>2021-08-03T10:29:25.256Z</time>
      </trkpt>
      <trkpt lat="47.01311" lon="8.88024">
        <ele>1350</ele>
        <time>2021-08-03T10:29:26.256Z</time>
      </trkpt>
      <trkpt lat="47.01311" lon="8.88023">
        <ele>1350</ele>
        <time>2021-08-03T10:29:27.256Z</time>
      </trkpt>
      <trkpt lat="47.01311" lon="8.88022">
        <ele>1350</ele>
        <time>2021-08-03T10:29:28.256Z</time>
      </trkpt>
      <trkpt lat="47.01311" lon="8.8802">
        <ele>1349</ele>
        <time>2021-08-03T10:29:29.256Z</time>
      </trkpt>
      <trkpt lat="47.0131" lon="8.88019">
        <ele>1349</ele>
        <time>2021-08-03T10:29:30.256Z</time>
      </trkpt>
      <trkpt lat="47.0131" lon="8.88019">
        <ele>1349</ele>
        <time>2021-08-03T10:29:31.256Z</time>
      </trkpt>
      <trkpt lat="47.0131" lon="8.8802">
        <ele>1349</ele>
        <time>2021-08-03T10:29:32.256Z</time>
      </trkpt>
      <trkpt lat="47.01309" lon="8.8802">
        <ele>1349</ele>
        <time>2021-08-03T10:29:33.256Z</time>
      </trkpt>
      <trkpt lat="47.01309" lon="8.88019">
        <ele>1350</ele>
        <time>2021-08-03T10:29:34.257Z</time>
      </trkpt>
      <trkpt lat="47.01309" lon="8.88018">
        <ele>1350</ele>
        <time>2021-08-03T10:29:35.257Z</time>
      </trkpt>
      <trkpt lat="47.01309" lon="8.88017">
        <ele>1350</ele>
        <time>2021-08-03T10:29:36.257Z</time>
      </trkpt>
      <trkpt lat="47.01309" lon="8.88016">
        <ele>1350</ele>
        <time>2021-08-03T10:29:37.256Z</time>
      </trkpt>
      <trkpt lat="47.01309" lon="8.88015">
        <ele>1349</ele>
        <time>2021-08-03T10:29:38.256Z</time>
      </trkpt>
      <trkpt lat="47.01308" lon="8.88014">
        <ele>1349</ele>
        <time>2021-08-03T10:29:39.257Z</time>
      </trkpt>
      <trkpt lat="47.01308" lon="8.88012">
        <ele>1348</ele>
        <time>2021-08-03T10:29:40.257Z</time>
      </trkpt>
      <trkpt lat="47.01307" lon="8.88011">
        <ele>1348</ele>
        <time>2021-08-03T10:29:41.256Z</time>
      </trkpt>
      <trkpt lat="47.01307" lon="8.8801">
        <ele>1347</ele>
        <time>2021-08-03T10:29:42.257Z</time>
      </trkpt>
      <trkpt lat="47.01306" lon="8.88009">
        <ele>1347</ele>
        <time>2021-08-03T10:29:43.257Z</time>
      </trkpt>
      <trkpt lat="47.01305" lon="8.88008">
        <ele>1346</ele>
        <time>2021-08-03T10:29:44.257Z</time>
      </trkpt>
      <trkpt lat="47.01305" lon="8.88007">
        <ele>1346</ele>
        <time>2021-08-03T10:29:45.257Z</time>
      </trkpt>
      <trkpt lat="47.01305" lon="8.88005">
        <ele>1345</ele>
        <time>2021-08-03T10:29:46.256Z</time>
      </trkpt>
      <trkpt lat="47.01304" lon="8.88005">
        <ele>1345</ele>
        <time>2021-08-03T10:29:47.257Z</time>
      </trkpt>
      <trkpt lat="47.01304" lon="8.88004">
        <ele>1345</ele>
        <time>2021-08-03T10:29:48.257Z</time>
      </trkpt>
      <trkpt lat="47.01304" lon="8.88003">
        <ele>1345</ele>
        <time>2021-08-03T10:29:49.257Z</time>
      </trkpt>
      <trkpt lat="47.01303" lon="8.88001">
        <ele>1345</ele>
        <time>2021-08-03T10:29:50.256Z</time>
      </trkpt>
      <trkpt lat="47.01303" lon="8.88">
        <ele>1345</ele>
        <time>2021-08-03T10:29:51.256Z</time>
      </trkpt>
      <trkpt lat="47.01303" lon="8.87999">
        <ele>1345</ele>
        <time>2021-08-03T10:29:52.257Z</time>
      </trkpt>
      <trkpt lat="47.01302" lon="8.87997">
        <ele>1345</ele>
        <time>2021-08-03T10:29:53.257Z</time>
      </trkpt>
      <trkpt lat="47.01302" lon="8.87995">
        <ele>1345</ele>
        <time>2021-08-03T10:29:54.257Z</time>
      </trkpt>
      <trkpt lat="47.01301" lon="8.87993">
        <ele>1346</ele>
        <time>2021-08-03T10:29:55.257Z</time>
      </trkpt>
      <trkpt lat="47.01301" lon="8.87992">
        <ele>1346</ele>
        <time>2021-08-03T10:29:56.257Z</time>
      </trkpt>
      <trkpt lat="47.01301" lon="8.8799">
        <ele>1346</ele>
        <time>2021-08-03T10:29:57.257Z</time>
      </trkpt>
      <trkpt lat="47.01301" lon="8.87988">
        <ele>1346</ele>
        <time>2021-08-03T10:29:58.256Z</time>
      </trkpt>
      <trkpt lat="47.013" lon="8.87986">
        <ele>1346</ele>
        <time>2021-08-03T10:29:59.257Z</time>
      </trkpt>
      <trkpt lat="47.013" lon="8.87984">
        <ele>1346</ele>
        <time>2021-08-03T10:30:00.257Z</time>
      </trkpt>
      <trkpt lat="47.013" lon="8.87983">
        <ele>1345</ele>
        <time>2021-08-03T10:30:01.257Z</time>
      </trkpt>
      <trkpt lat="47.013" lon="8.87982">
        <ele>1345</ele>
        <time>2021-08-03T10:30:02.256Z</time>
      </trkpt>
      <trkpt lat="47.013" lon="8.87981">
        <ele>1345</ele>
        <time>2021-08-03T10:30:03.256Z</time>
      </trkpt>
      <trkpt lat="47.013" lon="8.8798">
        <ele>1345</ele>
        <time>2021-08-03T10:30:04.257Z</time>
      </trkpt>
      <trkpt lat="47.01299" lon="8.87979">
        <ele>1345</ele>
        <time>2021-08-03T10:30:05.257Z</time>
      </trkpt>
      <trkpt lat="47.01299" lon="8.87977">
        <ele>1346</ele>
        <time>2021-08-03T10:30:06.257Z</time>
      </trkpt>
      <trkpt lat="47.01299" lon="8.87975">
        <ele>1346</ele>
        <time>2021-08-03T10:30:07.257Z</time>
      </trkpt>
      <trkpt lat="47.01299" lon="8.87973">
        <ele>1346</ele>
        <time>2021-08-03T10:30:08.257Z</time>
      </trkpt>
      <trkpt lat="47.01298" lon="8.87971">
        <ele>1345</ele>
        <time>2021-08-03T10:30:09.257Z</time>
      </trkpt>
      <trkpt lat="47.01298" lon="8.87969">
        <ele>1345</ele>
        <time>2021-08-03T10:30:10.256Z</time>
      </trkpt>
      <trkpt lat="47.01298" lon="8.87968">
        <ele>1345</ele>
        <time>2021-08-03T10:30:11.257Z</time>
      </trkpt>
      <trkpt lat="47.01298" lon="8.87967">
        <ele>1345</ele>
        <time>2021-08-03T10:30:12.257Z</time>
      </trkpt>
      <trkpt lat="47.01298" lon="8.87964">
        <ele>1345</ele>
        <time>2021-08-03T10:30:13.256Z</time>
      </trkpt>
      <trkpt lat="47.01298" lon="8.87962">
        <ele>1345</ele>
        <time>2021-08-03T10:30:14.256Z</time>
      </trkpt>
      <trkpt lat="47.01298" lon="8.8796">
        <ele>1345</ele>
        <time>2021-08-03T10:30:15.257Z</time>
      </trkpt>
      <trkpt lat="47.01298" lon="8.87959">
        <ele>1345</ele>
        <time>2021-08-03T10:30:16.256Z</time>
      </trkpt>
      <trkpt lat="47.01298" lon="8.87958">
        <ele>1345</ele>
        <time>2021-08-03T10:30:17.256Z</time>
      </trkpt>
      <trkpt lat="47.01298" lon="8.87957">
        <ele>1345</ele>
        <time>2021-08-03T10:30:18.256Z</time>
      </trkpt>
      <trkpt lat="47.01298" lon="8.87955">
        <ele>1344</ele>
        <time>2021-08-03T10:30:19.257Z</time>
      </trkpt>
      <trkpt lat="47.01298" lon="8.87954">
        <ele>1344</ele>
        <time>2021-08-03T10:30:20.257Z</time>
      </trkpt>
      <trkpt lat="47.01298" lon="8.87953">
        <ele>1344</ele>
        <time>2021-08-03T10:30:21.256Z</time>
      </trkpt>
      <trkpt lat="47.01298" lon="8.87951">
        <ele>1344</ele>
        <time>2021-08-03T10:30:22.257Z</time>
      </trkpt>
      <trkpt lat="47.01299" lon="8.87949">
        <ele>1343</ele>
        <time>2021-08-03T10:30:23.257Z</time>
      </trkpt>
      <trkpt lat="47.01299" lon="8.87947">
        <ele>1343</ele>
        <time>2021-08-03T10:30:24.256Z</time>
      </trkpt>
      <trkpt lat="47.013" lon="8.87946">
        <ele>1343</ele>
        <time>2021-08-03T10:30:36.332Z</time>
      </trkpt>
      <trkpt lat="47.013" lon="8.87945">
        <ele>1343</ele>
        <time>2021-08-03T10:30:37.332Z</time>
      </trkpt>
      <trkpt lat="47.01301" lon="8.87942">
        <ele>1343</ele>
        <time>2021-08-03T10:30:38.331Z</time>
      </trkpt>
      <trkpt lat="47.01301" lon="8.87941">
        <ele>1343</ele>
        <time>2021-08-03T10:30:39.331Z</time>
      </trkpt>
      <trkpt lat="47.01302" lon="8.87939">
        <ele>1343</ele>
        <time>2021-08-03T10:30:40.332Z</time>
      </trkpt>
      <trkpt lat="47.01302" lon="8.87937">
        <ele>1343</ele>
        <time>2021-08-03T10:30:41.331Z</time>
      </trkpt>
      <trkpt lat="47.01302" lon="8.87936">
        <ele>1343</ele>
        <time>2021-08-03T10:30:42.332Z</time>
      </trkpt>
      <trkpt lat="47.01302" lon="8.87934">
        <ele>1343</ele>
        <time>2021-08-03T10:30:43.332Z</time>
      </trkpt>
      <trkpt lat="47.01303" lon="8.87933">
        <ele>1343</ele>
        <time>2021-08-03T10:30:44.332Z</time>
      </trkpt>
      <trkpt lat="47.01303" lon="8.87931">
        <ele>1343</ele>
        <time>2021-08-03T10:30:45.331Z</time>
      </trkpt>
      <trkpt lat="47.01303" lon="8.8793">
        <ele>1343</ele>
        <time>2021-08-03T10:30:46.332Z</time>
      </trkpt>
      <trkpt lat="47.01304" lon="8.87929">
        <ele>1342</ele>
        <time>2021-08-03T10:30:57.483Z</time>
      </trkpt>
      <trkpt lat="47.01304" lon="8.87928">
        <ele>1343</ele>
        <time>2021-08-03T10:30:58.483Z</time>
      </trkpt>
      <trkpt lat="47.01305" lon="8.87926">
        <ele>1343</ele>
        <time>2021-08-03T10:30:59.483Z</time>
      </trkpt>
      <trkpt lat="47.01305" lon="8.87925">
        <ele>1343</ele>
        <time>2021-08-03T10:31:00.482Z</time>
      </trkpt>
      <trkpt lat="47.01305" lon="8.87923">
        <ele>1344</ele>
        <time>2021-08-03T10:31:01.483Z</time>
      </trkpt>
      <trkpt lat="47.01305" lon="8.87921">
        <ele>1345</ele>
        <time>2021-08-03T10:31:02.483Z</time>
      </trkpt>
      <trkpt lat="47.01305" lon="8.87918">
        <ele>1345</ele>
        <time>2021-08-03T10:31:07.565Z</time>
      </trkpt>
      <trkpt lat="47.01306" lon="8.87916">
        <ele>1346</ele>
        <time>2021-08-03T10:31:08.565Z</time>
      </trkpt>
      <trkpt lat="47.01306" lon="8.87915">
        <ele>1346</ele>
        <time>2021-08-03T10:31:09.565Z</time>
      </trkpt>
      <trkpt lat="47.01306" lon="8.87914">
        <ele>1346</ele>
        <time>2021-08-03T10:31:10.566Z</time>
      </trkpt>
      <trkpt lat="47.01306" lon="8.87913">
        <ele>1346</ele>
        <time>2021-08-03T10:31:11.566Z</time>
      </trkpt>
      <trkpt lat="47.01306" lon="8.87912">
        <ele>1346</ele>
        <time>2021-08-03T10:31:12.565Z</time>
      </trkpt>
      <trkpt lat="47.01306" lon="8.8791">
        <ele>1345</ele>
        <time>2021-08-03T10:31:13.565Z</time>
      </trkpt>
      <trkpt lat="47.01305" lon="8.87909">
        <ele>1345</ele>
        <time>2021-08-03T10:31:14.565Z</time>
      </trkpt>
      <trkpt lat="47.01305" lon="8.87907">
        <ele>1345</ele>
        <time>2021-08-03T10:31:15.566Z</time>
      </trkpt>
      <trkpt lat="47.01305" lon="8.87905">
        <ele>1345</ele>
        <time>2021-08-03T10:31:16.566Z</time>
      </trkpt>
      <trkpt lat="47.01305" lon="8.87904">
        <ele>1345</ele>
        <time>2021-08-03T10:31:17.565Z</time>
      </trkpt>
      <trkpt lat="47.01304" lon="8.87903">
        <ele>1345</ele>
        <time>2021-08-03T10:31:18.565Z</time>
      </trkpt>
      <trkpt lat="47.01304" lon="8.87902">
        <ele>1345</ele>
        <time>2021-08-03T10:31:19.565Z</time>
      </trkpt>
      <trkpt lat="47.01303" lon="8.879">
        <ele>1346</ele>
        <time>2021-08-03T10:31:20.566Z</time>
      </trkpt>
      <trkpt lat="47.01302" lon="8.87899">
        <ele>1346</ele>
        <time>2021-08-03T10:31:21.565Z</time>
      </trkpt>
      <trkpt lat="47.01302" lon="8.87897">
        <ele>1347</ele>
        <time>2021-08-03T10:31:22.565Z</time>
      </trkpt>
      <trkpt lat="47.01302" lon="8.87894">
        <ele>1347</ele>
        <time>2021-08-03T10:31:23.565Z</time>
      </trkpt>
      <trkpt lat="47.01301" lon="8.87892">
        <ele>1348</ele>
        <time>2021-08-03T10:31:24.565Z</time>
      </trkpt>
      <trkpt lat="47.01301" lon="8.87891">
        <ele>1348</ele>
        <time>2021-08-03T10:31:25.566Z</time>
      </trkpt>
      <trkpt lat="47.01301" lon="8.8789">
        <ele>1348</ele>
        <time>2021-08-03T10:31:26.566Z</time>
      </trkpt>
      <trkpt lat="47.01302" lon="8.87888">
        <ele>1348</ele>
        <time>2021-08-03T10:31:27.565Z</time>
      </trkpt>
      <trkpt lat="47.01302" lon="8.87887">
        <ele>1348</ele>
        <time>2021-08-03T10:31:28.565Z</time>
      </trkpt>
      <trkpt lat="47.01301" lon="8.87885">
        <ele>1348</ele>
        <time>2021-08-03T10:31:29.565Z</time>
      </trkpt>
      <trkpt lat="47.01301" lon="8.87883">
        <ele>1349</ele>
        <time>2021-08-03T10:31:30.565Z</time>
      </trkpt>
      <trkpt lat="47.01301" lon="8.87882">
        <ele>1349</ele>
        <time>2021-08-03T10:31:31.566Z</time>
      </trkpt>
      <trkpt lat="47.013" lon="8.87881">
        <ele>1350</ele>
        <time>2021-08-03T10:31:32.565Z</time>
      </trkpt>
      <trkpt lat="47.013" lon="8.8788">
        <ele>1351</ele>
        <time>2021-08-03T10:31:33.565Z</time>
      </trkpt>
      <trkpt lat="47.013" lon="8.87879">
        <ele>1351</ele>
        <time>2021-08-03T10:31:34.565Z</time>
      </trkpt>
      <trkpt lat="47.01299" lon="8.87878">
        <ele>1352</ele>
        <time>2021-08-03T10:31:35.566Z</time>
      </trkpt>
      <trkpt lat="47.01298" lon="8.87877">
        <ele>1352</ele>
        <time>2021-08-03T10:31:36.565Z</time>
      </trkpt>
      <trkpt lat="47.01297" lon="8.87876">
        <ele>1352</ele>
        <time>2021-08-03T10:31:37.565Z</time>
      </trkpt>
      <trkpt lat="47.01296" lon="8.87875">
        <ele>1353</ele>
        <time>2021-08-03T10:31:38.565Z</time>
      </trkpt>
      <trkpt lat="47.01296" lon="8.87874">
        <ele>1353</ele>
        <time>2021-08-03T10:31:39.565Z</time>
      </trkpt>
      <trkpt lat="47.01295" lon="8.87873">
        <ele>1353</ele>
        <time>2021-08-03T10:31:40.566Z</time>
      </trkpt>
      <trkpt lat="47.01295" lon="8.87871">
        <ele>1353</ele>
        <time>2021-08-03T10:31:41.565Z</time>
      </trkpt>
      <trkpt lat="47.01294" lon="8.8787">
        <ele>1353</ele>
        <time>2021-08-03T10:31:42.566Z</time>
      </trkpt>
      <trkpt lat="47.01293" lon="8.87869">
        <ele>1354</ele>
        <time>2021-08-03T10:31:43.565Z</time>
      </trkpt>
      <trkpt lat="47.01292" lon="8.87868">
        <ele>1354</ele>
        <time>2021-08-03T10:31:44.565Z</time>
      </trkpt>
      <trkpt lat="47.01291" lon="8.87868">
        <ele>1354</ele>
        <time>2021-08-03T10:31:45.565Z</time>
      </trkpt>
      <trkpt lat="47.0129" lon="8.87868">
        <ele>1355</ele>
        <time>2021-08-03T10:31:46.565Z</time>
      </trkpt>
      <trkpt lat="47.01289" lon="8.87867">
        <ele>1355</ele>
        <time>2021-08-03T10:31:47.565Z</time>
      </trkpt>
      <trkpt lat="47.01289" lon="8.87866">
        <ele>1355</ele>
        <time>2021-08-03T10:31:48.565Z</time>
      </trkpt>
      <trkpt lat="47.01288" lon="8.87865">
        <ele>1356</ele>
        <time>2021-08-03T10:31:49.565Z</time>
      </trkpt>
      <trkpt lat="47.01288" lon="8.87865">
        <ele>1356</ele>
        <time>2021-08-03T10:31:50.565Z</time>
      </trkpt>
      <trkpt lat="47.01287" lon="8.87865">
        <ele>1356</ele>
        <time>2021-08-03T10:31:51.565Z</time>
      </trkpt>
      <trkpt lat="47.01287" lon="8.87866">
        <ele>1356</ele>
        <time>2021-08-03T10:31:52.565Z</time>
      </trkpt>
      <trkpt lat="47.01286" lon="8.87867">
        <ele>1355</ele>
        <time>2021-08-03T10:31:53.565Z</time>
      </trkpt>
      <trkpt lat="47.01284" lon="8.87868">
        <ele>1361</ele>
        <time>2021-08-03T10:31:54.566Z</time>
      </trkpt>
      <trkpt lat="47.01283" lon="8.87868">
        <ele>1362</ele>
        <time>2021-08-03T10:31:55.566Z</time>
      </trkpt>
      <trkpt lat="47.01282" lon="8.87867">
        <ele>1363</ele>
        <time>2021-08-03T10:31:56.566Z</time>
      </trkpt>
      <trkpt lat="47.01281" lon="8.87866">
        <ele>1364</ele>
        <time>2021-08-03T10:31:57.566Z</time>
      </trkpt>
      <trkpt lat="47.0128" lon="8.87863">
        <ele>1364</ele>
        <time>2021-08-03T10:31:58.566Z</time>
      </trkpt>
      <trkpt lat="47.01281" lon="8.87859">
        <ele>1365</ele>
        <time>2021-08-03T10:31:59.566Z</time>
      </trkpt>
      <trkpt lat="47.01281" lon="8.87856">
        <ele>1366</ele>
        <time>2021-08-03T10:32:00.567Z</time>
      </trkpt>
      <trkpt lat="47.01281" lon="8.87854">
        <ele>1366</ele>
        <time>2021-08-03T10:32:01.566Z</time>
      </trkpt>
      <trkpt lat="47.0128" lon="8.87853">
        <ele>1366</ele>
        <time>2021-08-03T10:32:02.566Z</time>
      </trkpt>
      <trkpt lat="47.01279" lon="8.87852">
        <ele>1365</ele>
        <time>2021-08-03T10:32:03.566Z</time>
      </trkpt>
      <trkpt lat="47.01279" lon="8.87852">
        <ele>1365</ele>
        <time>2021-08-03T10:32:04.566Z</time>
      </trkpt>
      <trkpt lat="47.01277" lon="8.87851">
        <ele>1365</ele>
        <time>2021-08-03T10:32:09.599Z</time>
      </trkpt>
      <trkpt lat="47.01277" lon="8.87851">
        <ele>1364</ele>
        <time>2021-08-03T10:32:10.599Z</time>
      </trkpt>
      <trkpt lat="47.01276" lon="8.8785">
        <ele>1364</ele>
        <time>2021-08-03T10:32:11.599Z</time>
      </trkpt>
      <trkpt lat="47.01275" lon="8.87849">
        <ele>1363</ele>
        <time>2021-08-03T10:32:12.600Z</time>
      </trkpt>
      <trkpt lat="47.01274" lon="8.87848">
        <ele>1363</ele>
        <time>2021-08-03T10:32:13.599Z</time>
      </trkpt>
      <trkpt lat="47.01273" lon="8.87848">
        <ele>1363</ele>
        <time>2021-08-03T10:32:14.600Z</time>
      </trkpt>
      <trkpt lat="47.01272" lon="8.87847">
        <ele>1362</ele>
        <time>2021-08-03T10:32:15.600Z</time>
      </trkpt>
      <trkpt lat="47.01271" lon="8.87847">
        <ele>1362</ele>
        <time>2021-08-03T10:32:16.599Z</time>
      </trkpt>
      <trkpt lat="47.01271" lon="8.87847">
        <ele>1362</ele>
        <time>2021-08-03T10:32:17.600Z</time>
      </trkpt>
      <trkpt lat="47.0127" lon="8.87846">
        <ele>1362</ele>
        <time>2021-08-03T10:32:18.599Z</time>
      </trkpt>
      <trkpt lat="47.01269" lon="8.87845">
        <ele>1362</ele>
        <time>2021-08-03T10:32:19.600Z</time>
      </trkpt>
      <trkpt lat="47.01269" lon="8.87844">
        <ele>1362</ele>
        <time>2021-08-03T10:32:20.600Z</time>
      </trkpt>
      <trkpt lat="47.01268" lon="8.87843">
        <ele>1363</ele>
        <time>2021-08-03T10:32:21.599Z</time>
      </trkpt>
      <trkpt lat="47.01268" lon="8.87842">
        <ele>1363</ele>
        <time>2021-08-03T10:32:22.599Z</time>
      </trkpt>
      <trkpt lat="47.01267" lon="8.87841">
        <ele>1363</ele>
        <time>2021-08-03T10:32:23.599Z</time>
      </trkpt>
      <trkpt lat="47.01266" lon="8.87839">
        <ele>1363</ele>
        <time>2021-08-03T10:32:24.600Z</time>
      </trkpt>
      <trkpt lat="47.01266" lon="8.87838">
        <ele>1363</ele>
        <time>2021-08-03T10:32:25.600Z</time>
      </trkpt>
      <trkpt lat="47.01265" lon="8.87837">
        <ele>1362</ele>
        <time>2021-08-03T10:32:26.599Z</time>
      </trkpt>
      <trkpt lat="47.01264" lon="8.87834">
        <ele>1362</ele>
        <time>2021-08-03T10:32:27.600Z</time>
      </trkpt>
      <trkpt lat="47.01263" lon="8.87832">
        <ele>1361</ele>
        <time>2021-08-03T10:32:28.600Z</time>
      </trkpt>
      <trkpt lat="47.01263" lon="8.87831">
        <ele>1361</ele>
        <time>2021-08-03T10:32:29.600Z</time>
      </trkpt>
      <trkpt lat="47.01263" lon="8.8783">
        <ele>1361</ele>
        <time>2021-08-03T10:32:30.600Z</time>
      </trkpt>
      <trkpt lat="47.01262" lon="8.87828">
        <ele>1360</ele>
        <time>2021-08-03T10:32:31.599Z</time>
      </trkpt>
      <trkpt lat="47.01262" lon="8.87826">
        <ele>1360</ele>
        <time>2021-08-03T10:32:32.600Z</time>
      </trkpt>
      <trkpt lat="47.01263" lon="8.87825">
        <ele>1359</ele>
        <time>2021-08-03T10:32:33.599Z</time>
      </trkpt>
      <trkpt lat="47.01262" lon="8.87823">
        <ele>1359</ele>
        <time>2021-08-03T10:32:34.600Z</time>
      </trkpt>
      <trkpt lat="47.01262" lon="8.8782">
        <ele>1358</ele>
        <time>2021-08-03T10:32:35.600Z</time>
      </trkpt>
      <trkpt lat="47.01262" lon="8.87818">
        <ele>1358</ele>
        <time>2021-08-03T10:32:36.600Z</time>
      </trkpt>
      <trkpt lat="47.01262" lon="8.87816">
        <ele>1357</ele>
        <time>2021-08-03T10:32:37.599Z</time>
      </trkpt>
      <trkpt lat="47.01261" lon="8.87815">
        <ele>1357</ele>
        <time>2021-08-03T10:32:38.600Z</time>
      </trkpt>
      <trkpt lat="47.0126" lon="8.87814">
        <ele>1356</ele>
        <time>2021-08-03T10:32:39.599Z</time>
      </trkpt>
      <trkpt lat="47.0126" lon="8.87812">
        <ele>1356</ele>
        <time>2021-08-03T10:32:40.599Z</time>
      </trkpt>
      <trkpt lat="47.01259" lon="8.87811">
        <ele>1355</ele>
        <time>2021-08-03T10:32:41.599Z</time>
      </trkpt>
      <trkpt lat="47.01258" lon="8.8781">
        <ele>1354</ele>
        <time>2021-08-03T10:32:42.600Z</time>
      </trkpt>
      <trkpt lat="47.01258" lon="8.87808">
        <ele>1354</ele>
        <time>2021-08-03T10:32:43.600Z</time>
      </trkpt>
      <trkpt lat="47.01257" lon="8.87807">
        <ele>1353</ele>
        <time>2021-08-03T10:32:44.600Z</time>
      </trkpt>
      <trkpt lat="47.01257" lon="8.87806">
        <ele>1353</ele>
        <time>2021-08-03T10:32:45.600Z</time>
      </trkpt>
      <trkpt lat="47.01256" lon="8.87804">
        <ele>1353</ele>
        <time>2021-08-03T10:32:46.600Z</time>
      </trkpt>
      <trkpt lat="47.01255" lon="8.87803">
        <ele>1353</ele>
        <time>2021-08-03T10:32:47.600Z</time>
      </trkpt>
      <trkpt lat="47.01255" lon="8.87802">
        <ele>1353</ele>
        <time>2021-08-03T10:32:48.600Z</time>
      </trkpt>
      <trkpt lat="47.01255" lon="8.878">
        <ele>1353</ele>
        <time>2021-08-03T10:32:49.600Z</time>
      </trkpt>
      <trkpt lat="47.01254" lon="8.87799">
        <ele>1353</ele>
        <time>2021-08-03T10:32:50.600Z</time>
      </trkpt>
      <trkpt lat="47.01253" lon="8.87798">
        <ele>1353</ele>
        <time>2021-08-03T10:32:51.600Z</time>
      </trkpt>
      <trkpt lat="47.01253" lon="8.87797">
        <ele>1353</ele>
        <time>2021-08-03T10:32:52.600Z</time>
      </trkpt>
      <trkpt lat="47.01253" lon="8.87796">
        <ele>1353</ele>
        <time>2021-08-03T10:32:53.600Z</time>
      </trkpt>
      <trkpt lat="47.01252" lon="8.87794">
        <ele>1353</ele>
        <time>2021-08-03T10:32:54.600Z</time>
      </trkpt>
      <trkpt lat="47.01252" lon="8.87793">
        <ele>1353</ele>
        <time>2021-08-03T10:32:55.599Z</time>
      </trkpt>
      <trkpt lat="47.01251" lon="8.87793">
        <ele>1353</ele>
        <time>2021-08-03T10:32:56.600Z</time>
      </trkpt>
      <trkpt lat="47.01251" lon="8.87793">
        <ele>1353</ele>
        <time>2021-08-03T10:33:05.692Z</time>
      </trkpt>
      <trkpt lat="47.0125" lon="8.87793">
        <ele>1354</ele>
        <time>2021-08-03T10:33:06.691Z</time>
      </trkpt>
      <trkpt lat="47.01249" lon="8.87793">
        <ele>1354</ele>
        <time>2021-08-03T10:33:08.552Z</time>
      </trkpt>
      <trkpt lat="47.01249" lon="8.87795">
        <ele>1354</ele>
        <time>2021-08-03T10:33:09.551Z</time>
      </trkpt>
      <trkpt lat="47.01248" lon="8.87793">
        <ele>1356</ele>
        <time>2021-08-03T10:33:10.551Z</time>
      </trkpt>
      <trkpt lat="47.01248" lon="8.87791">
        <ele>1356</ele>
        <time>2021-08-03T10:33:11.551Z</time>
      </trkpt>
      <trkpt lat="47.01248" lon="8.8779">
        <ele>1355</ele>
        <time>2021-08-03T10:33:12.551Z</time>
      </trkpt>
      <trkpt lat="47.01248" lon="8.87788">
        <ele>1354</ele>
        <time>2021-08-03T10:33:13.551Z</time>
      </trkpt>
      <trkpt lat="47.01248" lon="8.87787">
        <ele>1353</ele>
        <time>2021-08-03T10:33:14.552Z</time>
      </trkpt>
      <trkpt lat="47.01247" lon="8.87786">
        <ele>1352</ele>
        <time>2021-08-03T10:33:15.552Z</time>
      </trkpt>
      <trkpt lat="47.01247" lon="8.87784">
        <ele>1351</ele>
        <time>2021-08-03T10:33:16.552Z</time>
      </trkpt>
      <trkpt lat="47.01247" lon="8.87783">
        <ele>1350</ele>
        <time>2021-08-03T10:33:17.551Z</time>
      </trkpt>
      <trkpt lat="47.01247" lon="8.87782">
        <ele>1349</ele>
        <time>2021-08-03T10:33:18.552Z</time>
      </trkpt>
      <trkpt lat="47.01246" lon="8.87781">
        <ele>1348</ele>
        <time>2021-08-03T10:33:19.552Z</time>
      </trkpt>
      <trkpt lat="47.01245" lon="8.87779">
        <ele>1348</ele>
        <time>2021-08-03T10:33:20.552Z</time>
      </trkpt>
      <trkpt lat="47.01245" lon="8.87777">
        <ele>1348</ele>
        <time>2021-08-03T10:33:21.551Z</time>
      </trkpt>
      <trkpt lat="47.01244" lon="8.87776">
        <ele>1348</ele>
        <time>2021-08-03T10:33:22.551Z</time>
      </trkpt>
      <trkpt lat="47.01244" lon="8.87774">
        <ele>1349</ele>
        <time>2021-08-03T10:33:23.551Z</time>
      </trkpt>
      <trkpt lat="47.01244" lon="8.87772">
        <ele>1349</ele>
        <time>2021-08-03T10:33:24.552Z</time>
      </trkpt>
      <trkpt lat="47.01244" lon="8.8777">
        <ele>1350</ele>
        <time>2021-08-03T10:33:25.552Z</time>
      </trkpt>
      <trkpt lat="47.01244" lon="8.87769">
        <ele>1350</ele>
        <time>2021-08-03T10:33:26.552Z</time>
      </trkpt>
      <trkpt lat="47.01243" lon="8.87767">
        <ele>1350</ele>
        <time>2021-08-03T10:33:27.551Z</time>
      </trkpt>
      <trkpt lat="47.01243" lon="8.87766">
        <ele>1350</ele>
        <time>2021-08-03T10:33:31.723Z</time>
      </trkpt>
      <trkpt lat="47.01242" lon="8.87764">
        <ele>1350</ele>
        <time>2021-08-03T10:33:32.722Z</time>
      </trkpt>
      <trkpt lat="47.01242" lon="8.87763">
        <ele>1350</ele>
        <time>2021-08-03T10:33:33.722Z</time>
      </trkpt>
      <trkpt lat="47.01242" lon="8.87761">
        <ele>1349</ele>
        <time>2021-08-03T10:33:34.722Z</time>
      </trkpt>
      <trkpt lat="47.01241" lon="8.8776">
        <ele>1349</ele>
        <time>2021-08-03T10:33:35.723Z</time>
      </trkpt>
      <trkpt lat="47.01241" lon="8.87759">
        <ele>1349</ele>
        <time>2021-08-03T10:33:36.722Z</time>
      </trkpt>
      <trkpt lat="47.0124" lon="8.87757">
        <ele>1349</ele>
        <time>2021-08-03T10:33:37.723Z</time>
      </trkpt>
      <trkpt lat="47.0124" lon="8.87756">
        <ele>1348</ele>
        <time>2021-08-03T10:33:38.723Z</time>
      </trkpt>
      <trkpt lat="47.0124" lon="8.87755">
        <ele>1348</ele>
        <time>2021-08-03T10:33:39.723Z</time>
      </trkpt>
      <trkpt lat="47.0124" lon="8.87754">
        <ele>1348</ele>
        <time>2021-08-03T10:33:40.723Z</time>
      </trkpt>
      <trkpt lat="47.01239" lon="8.87753">
        <ele>1348</ele>
        <time>2021-08-03T10:33:41.722Z</time>
      </trkpt>
      <trkpt lat="47.01239" lon="8.87752">
        <ele>1348</ele>
        <time>2021-08-03T10:33:42.723Z</time>
      </trkpt>
      <trkpt lat="47.01239" lon="8.87751">
        <ele>1348</ele>
        <time>2021-08-03T10:33:43.722Z</time>
      </trkpt>
      <trkpt lat="47.01238" lon="8.87749">
        <ele>1348</ele>
        <time>2021-08-03T10:33:44.723Z</time>
      </trkpt>
      <trkpt lat="47.01238" lon="8.87748">
        <ele>1348</ele>
        <time>2021-08-03T10:33:45.722Z</time>
      </trkpt>
      <trkpt lat="47.01237" lon="8.87747">
        <ele>1348</ele>
        <time>2021-08-03T10:33:46.723Z</time>
      </trkpt>
      <trkpt lat="47.01236" lon="8.87745">
        <ele>1348</ele>
        <time>2021-08-03T10:33:47.723Z</time>
      </trkpt>
      <trkpt lat="47.01236" lon="8.87744">
        <ele>1348</ele>
        <time>2021-08-03T10:33:48.723Z</time>
      </trkpt>
      <trkpt lat="47.01236" lon="8.87744">
        <ele>1348</ele>
        <time>2021-08-03T10:33:49.723Z</time>
      </trkpt>
      <trkpt lat="47.01235" lon="8.87743">
        <ele>1348</ele>
        <time>2021-08-03T10:33:50.723Z</time>
      </trkpt>
      <trkpt lat="47.01235" lon="8.87741">
        <ele>1348</ele>
        <time>2021-08-03T10:33:51.723Z</time>
      </trkpt>
      <trkpt lat="47.01235" lon="8.8774">
        <ele>1348</ele>
        <time>2021-08-03T10:33:52.722Z</time>
      </trkpt>
      <trkpt lat="47.01234" lon="8.87738">
        <ele>1347</ele>
        <time>2021-08-03T10:33:53.723Z</time>
      </trkpt>
      <trkpt lat="47.01233" lon="8.87735">
        <ele>1347</ele>
        <time>2021-08-03T10:33:54.722Z</time>
      </trkpt>
      <trkpt lat="47.01232" lon="8.87733">
        <ele>1348</ele>
        <time>2021-08-03T10:33:55.722Z</time>
      </trkpt>
      <trkpt lat="47.01232" lon="8.87732">
        <ele>1348</ele>
        <time>2021-08-03T10:33:56.722Z</time>
      </trkpt>
      <trkpt lat="47.01232" lon="8.87731">
        <ele>1348</ele>
        <time>2021-08-03T10:33:57.722Z</time>
      </trkpt>
      <trkpt lat="47.01232" lon="8.8773">
        <ele>1349</ele>
        <time>2021-08-03T10:33:58.723Z</time>
      </trkpt>
      <trkpt lat="47.01231" lon="8.87729">
        <ele>1349</ele>
        <time>2021-08-03T10:33:59.722Z</time>
      </trkpt>
      <trkpt lat="47.01231" lon="8.87727">
        <ele>1350</ele>
        <time>2021-08-03T10:34:00.723Z</time>
      </trkpt>
      <trkpt lat="47.0123" lon="8.87725">
        <ele>1350</ele>
        <time>2021-08-03T10:34:01.723Z</time>
      </trkpt>
      <trkpt lat="47.0123" lon="8.87725">
        <ele>1351</ele>
        <time>2021-08-03T10:34:02.722Z</time>
      </trkpt>
      <trkpt lat="47.0123" lon="8.87724">
        <ele>1351</ele>
        <time>2021-08-03T10:34:03.723Z</time>
      </trkpt>
      <trkpt lat="47.01229" lon="8.87723">
        <ele>1352</ele>
        <time>2021-08-03T10:34:04.722Z</time>
      </trkpt>
      <trkpt lat="47.01229" lon="8.87722">
        <ele>1353</ele>
        <time>2021-08-03T10:34:05.722Z</time>
      </trkpt>
      <trkpt lat="47.01228" lon="8.87722">
        <ele>1354</ele>
        <time>2021-08-03T10:34:06.722Z</time>
      </trkpt>
      <trkpt lat="47.01228" lon="8.87721">
        <ele>1355</ele>
        <time>2021-08-03T10:34:07.723Z</time>
      </trkpt>
      <trkpt lat="47.01228" lon="8.8772">
        <ele>1356</ele>
        <time>2021-08-03T10:34:08.723Z</time>
      </trkpt>
      <trkpt lat="47.01227" lon="8.87718">
        <ele>1357</ele>
        <time>2021-08-03T10:34:09.722Z</time>
      </trkpt>
      <trkpt lat="47.01227" lon="8.87717">
        <ele>1358</ele>
        <time>2021-08-03T10:34:10.723Z</time>
      </trkpt>
      <trkpt lat="47.01226" lon="8.87716">
        <ele>1358</ele>
        <time>2021-08-03T10:34:11.723Z</time>
      </trkpt>
      <trkpt lat="47.01226" lon="8.87715">
        <ele>1358</ele>
        <time>2021-08-03T10:34:12.723Z</time>
      </trkpt>
      <trkpt lat="47.01225" lon="8.87713">
        <ele>1358</ele>
        <time>2021-08-03T10:34:13.723Z</time>
      </trkpt>
      <trkpt lat="47.01225" lon="8.87712">
        <ele>1358</ele>
        <time>2021-08-03T10:34:14.723Z</time>
      </trkpt>
      <trkpt lat="47.01224" lon="8.87711">
        <ele>1357</ele>
        <time>2021-08-03T10:34:15.722Z</time>
      </trkpt>
      <trkpt lat="47.01224" lon="8.87711">
        <ele>1358</ele>
        <time>2021-08-03T10:34:16.722Z</time>
      </trkpt>
      <trkpt lat="47.01223" lon="8.8771">
        <ele>1358</ele>
        <time>2021-08-03T10:34:17.722Z</time>
      </trkpt>
      <trkpt lat="47.01222" lon="8.87709">
        <ele>1358</ele>
        <time>2021-08-03T10:34:18.722Z</time>
      </trkpt>
      <trkpt lat="47.01221" lon="8.87708">
        <ele>1358</ele>
        <time>2021-08-03T10:34:19.722Z</time>
      </trkpt>
      <trkpt lat="47.0122" lon="8.87707">
        <ele>1359</ele>
        <time>2021-08-03T10:34:20.722Z</time>
      </trkpt>
      <trkpt lat="47.01219" lon="8.87706">
        <ele>1359</ele>
        <time>2021-08-03T10:34:21.722Z</time>
      </trkpt>
      <trkpt lat="47.01219" lon="8.87705">
        <ele>1359</ele>
        <time>2021-08-03T10:34:22.723Z</time>
      </trkpt>
      <trkpt lat="47.01218" lon="8.87704">
        <ele>1359</ele>
        <time>2021-08-03T10:34:23.723Z</time>
      </trkpt>
      <trkpt lat="47.01217" lon="8.87704">
        <ele>1359</ele>
        <time>2021-08-03T10:34:24.723Z</time>
      </trkpt>
      <trkpt lat="47.01217" lon="8.87703">
        <ele>1359</ele>
        <time>2021-08-03T10:34:25.722Z</time>
      </trkpt>
      <trkpt lat="47.01216" lon="8.87702">
        <ele>1359</ele>
        <time>2021-08-03T10:34:26.723Z</time>
      </trkpt>
      <trkpt lat="47.01215" lon="8.87701">
        <ele>1359</ele>
        <time>2021-08-03T10:34:27.723Z</time>
      </trkpt>
      <trkpt lat="47.01215" lon="8.87699">
        <ele>1359</ele>
        <time>2021-08-03T10:34:28.723Z</time>
      </trkpt>
      <trkpt lat="47.01215" lon="8.87698">
        <ele>1359</ele>
        <time>2021-08-03T10:34:29.723Z</time>
      </trkpt>
      <trkpt lat="47.01214" lon="8.87697">
        <ele>1359</ele>
        <time>2021-08-03T10:34:30.723Z</time>
      </trkpt>
      <trkpt lat="47.01214" lon="8.87696">
        <ele>1358</ele>
        <time>2021-08-03T10:34:31.723Z</time>
      </trkpt>
      <trkpt lat="47.01214" lon="8.87695">
        <ele>1358</ele>
        <time>2021-08-03T10:34:32.722Z</time>
      </trkpt>
      <trkpt lat="47.01214" lon="8.87694">
        <ele>1357</ele>
        <time>2021-08-03T10:34:33.722Z</time>
      </trkpt>
      <trkpt lat="47.01214" lon="8.87693">
        <ele>1356</ele>
        <time>2021-08-03T10:34:34.722Z</time>
      </trkpt>
      <trkpt lat="47.01214" lon="8.8769">
        <ele>1355</ele>
        <time>2021-08-03T10:34:35.722Z</time>
      </trkpt>
      <trkpt lat="47.01213" lon="8.87689">
        <ele>1354</ele>
        <time>2021-08-03T10:34:36.722Z</time>
      </trkpt>
      <trkpt lat="47.01212" lon="8.87688">
        <ele>1354</ele>
        <time>2021-08-03T10:34:37.723Z</time>
      </trkpt>
      <trkpt lat="47.01212" lon="8.87687">
        <ele>1354</ele>
        <time>2021-08-03T10:34:38.723Z</time>
      </trkpt>
      <trkpt lat="47.01211" lon="8.87685">
        <ele>1354</ele>
        <time>2021-08-03T10:34:39.723Z</time>
      </trkpt>
      <trkpt lat="47.0121" lon="8.87684">
        <ele>1354</ele>
        <time>2021-08-03T10:34:40.722Z</time>
      </trkpt>
      <trkpt lat="47.0121" lon="8.87682">
        <ele>1354</ele>
        <time>2021-08-03T10:34:41.722Z</time>
      </trkpt>
      <trkpt lat="47.0121" lon="8.8768">
        <ele>1353</ele>
        <time>2021-08-03T10:34:42.723Z</time>
      </trkpt>
      <trkpt lat="47.01209" lon="8.87678">
        <ele>1353</ele>
        <time>2021-08-03T10:34:43.723Z</time>
      </trkpt>
      <trkpt lat="47.01209" lon="8.87677">
        <ele>1353</ele>
        <time>2021-08-03T10:34:44.723Z</time>
      </trkpt>
      <trkpt lat="47.01208" lon="8.87676">
        <ele>1352</ele>
        <time>2021-08-03T10:34:45.722Z</time>
      </trkpt>
      <trkpt lat="47.01207" lon="8.87675">
        <ele>1352</ele>
        <time>2021-08-03T10:34:46.723Z</time>
      </trkpt>
      <trkpt lat="47.01206" lon="8.87674">
        <ele>1352</ele>
        <time>2021-08-03T10:34:47.723Z</time>
      </trkpt>
      <trkpt lat="47.01205" lon="8.87673">
        <ele>1352</ele>
        <time>2021-08-03T10:34:48.723Z</time>
      </trkpt>
      <trkpt lat="47.01204" lon="8.87673">
        <ele>1352</ele>
        <time>2021-08-03T10:34:49.723Z</time>
      </trkpt>
      <trkpt lat="47.01203" lon="8.87671">
        <ele>1353</ele>
        <time>2021-08-03T10:34:50.723Z</time>
      </trkpt>
      <trkpt lat="47.01201" lon="8.8767">
        <ele>1353</ele>
        <time>2021-08-03T10:34:51.723Z</time>
      </trkpt>
      <trkpt lat="47.012" lon="8.87669">
        <ele>1354</ele>
        <time>2021-08-03T10:34:52.723Z</time>
      </trkpt>
      <trkpt lat="47.01199" lon="8.87668">
        <ele>1355</ele>
        <time>2021-08-03T10:34:53.723Z</time>
      </trkpt>
      <trkpt lat="47.01198" lon="8.87667">
        <ele>1355</ele>
        <time>2021-08-03T10:34:54.722Z</time>
      </trkpt>
      <trkpt lat="47.01198" lon="8.87665">
        <ele>1356</ele>
        <time>2021-08-03T10:34:55.723Z</time>
      </trkpt>
      <trkpt lat="47.01197" lon="8.87665">
        <ele>1357</ele>
        <time>2021-08-03T10:34:56.723Z</time>
      </trkpt>
      <trkpt lat="47.01196" lon="8.87664">
        <ele>1359</ele>
        <time>2021-08-03T10:34:57.722Z</time>
      </trkpt>
      <trkpt lat="47.01196" lon="8.87663">
        <ele>1359</ele>
        <time>2021-08-03T10:34:58.723Z</time>
      </trkpt>
      <trkpt lat="47.01195" lon="8.87662">
        <ele>1360</ele>
        <time>2021-08-03T10:34:59.723Z</time>
      </trkpt>
      <trkpt lat="47.01194" lon="8.8766">
        <ele>1360</ele>
        <time>2021-08-03T10:35:00.723Z</time>
      </trkpt>
      <trkpt lat="47.01194" lon="8.87659">
        <ele>1361</ele>
        <time>2021-08-03T10:35:01.722Z</time>
      </trkpt>
      <trkpt lat="47.01193" lon="8.87658">
        <ele>1362</ele>
        <time>2021-08-03T10:35:02.723Z</time>
      </trkpt>
      <trkpt lat="47.01192" lon="8.87656">
        <ele>1363</ele>
        <time>2021-08-03T10:35:03.722Z</time>
      </trkpt>
      <trkpt lat="47.01191" lon="8.87654">
        <ele>1363</ele>
        <time>2021-08-03T10:35:04.723Z</time>
      </trkpt>
      <trkpt lat="47.0119" lon="8.87653">
        <ele>1364</ele>
        <time>2021-08-03T10:35:05.722Z</time>
      </trkpt>
      <trkpt lat="47.01189" lon="8.87653">
        <ele>1364</ele>
        <time>2021-08-03T10:35:06.722Z</time>
      </trkpt>
      <trkpt lat="47.01189" lon="8.87651">
        <ele>1365</ele>
        <time>2021-08-03T10:35:07.722Z</time>
      </trkpt>
      <trkpt lat="47.01188" lon="8.8765">
        <ele>1365</ele>
        <time>2021-08-03T10:35:08.722Z</time>
      </trkpt>
      <trkpt lat="47.01187" lon="8.87649">
        <ele>1365</ele>
        <time>2021-08-03T10:35:09.723Z</time>
      </trkpt>
      <trkpt lat="47.01186" lon="8.87648">
        <ele>1366</ele>
        <time>2021-08-03T10:35:10.722Z</time>
      </trkpt>
      <trkpt lat="47.01185" lon="8.87646">
        <ele>1366</ele>
        <time>2021-08-03T10:35:11.723Z</time>
      </trkpt>
      <trkpt lat="47.01184" lon="8.87645">
        <ele>1366</ele>
        <time>2021-08-03T10:35:12.722Z</time>
      </trkpt>
      <trkpt lat="47.01184" lon="8.87644">
        <ele>1366</ele>
        <time>2021-08-03T10:35:13.723Z</time>
      </trkpt>
      <trkpt lat="47.01183" lon="8.87644">
        <ele>1366</ele>
        <time>2021-08-03T10:35:14.722Z</time>
      </trkpt>
      <trkpt lat="47.01182" lon="8.87643">
        <ele>1366</ele>
        <time>2021-08-03T10:35:15.722Z</time>
      </trkpt>
      <trkpt lat="47.01182" lon="8.87642">
        <ele>1365</ele>
        <time>2021-08-03T10:35:16.723Z</time>
      </trkpt>
      <trkpt lat="47.01182" lon="8.87641">
        <ele>1365</ele>
        <time>2021-08-03T10:35:17.722Z</time>
      </trkpt>
      <trkpt lat="47.01182" lon="8.87639">
        <ele>1364</ele>
        <time>2021-08-03T10:35:18.722Z</time>
      </trkpt>
      <trkpt lat="47.01181" lon="8.87638">
        <ele>1364</ele>
        <time>2021-08-03T10:35:19.722Z</time>
      </trkpt>
      <trkpt lat="47.0118" lon="8.87637">
        <ele>1363</ele>
        <time>2021-08-03T10:35:20.722Z</time>
      </trkpt>
      <trkpt lat="47.0118" lon="8.87636">
        <ele>1363</ele>
        <time>2021-08-03T10:35:21.722Z</time>
      </trkpt>
      <trkpt lat="47.01179" lon="8.87635">
        <ele>1363</ele>
        <time>2021-08-03T10:35:22.722Z</time>
      </trkpt>
      <trkpt lat="47.01179" lon="8.87634">
        <ele>1362</ele>
        <time>2021-08-03T10:35:23.722Z</time>
      </trkpt>
      <trkpt lat="47.01178" lon="8.87633">
        <ele>1362</ele>
        <time>2021-08-03T10:35:24.723Z</time>
      </trkpt>
      <trkpt lat="47.01177" lon="8.87632">
        <ele>1362</ele>
        <time>2021-08-03T10:35:25.722Z</time>
      </trkpt>
      <trkpt lat="47.01177" lon="8.87631">
        <ele>1361</ele>
        <time>2021-08-03T10:35:26.722Z</time>
      </trkpt>
      <trkpt lat="47.01177" lon="8.87629">
        <ele>1361</ele>
        <time>2021-08-03T10:35:27.722Z</time>
      </trkpt>
      <trkpt lat="47.01177" lon="8.87628">
        <ele>1360</ele>
        <time>2021-08-03T10:35:28.722Z</time>
      </trkpt>
      <trkpt lat="47.01176" lon="8.87627">
        <ele>1359</ele>
        <time>2021-08-03T10:35:29.723Z</time>
      </trkpt>
      <trkpt lat="47.01176" lon="8.87626">
        <ele>1360</ele>
        <time>2021-08-03T10:35:30.722Z</time>
      </trkpt>
      <trkpt lat="47.01175" lon="8.87625">
        <ele>1360</ele>
        <time>2021-08-03T10:35:31.722Z</time>
      </trkpt>
      <trkpt lat="47.01175" lon="8.87624">
        <ele>1360</ele>
        <time>2021-08-03T10:35:32.722Z</time>
      </trkpt>
      <trkpt lat="47.01175" lon="8.87623">
        <ele>1360</ele>
        <time>2021-08-03T10:35:33.722Z</time>
      </trkpt>
      <trkpt lat="47.01174" lon="8.87622">
        <ele>1360</ele>
        <time>2021-08-03T10:35:34.722Z</time>
      </trkpt>
      <trkpt lat="47.01174" lon="8.87621">
        <ele>1360</ele>
        <time>2021-08-03T10:35:35.722Z</time>
      </trkpt>
      <trkpt lat="47.01172" lon="8.87621">
        <ele>1361</ele>
        <time>2021-08-03T10:35:36.722Z</time>
      </trkpt>
      <trkpt lat="47.01172" lon="8.8762">
        <ele>1362</ele>
        <time>2021-08-03T10:35:37.723Z</time>
      </trkpt>
      <trkpt lat="47.01171" lon="8.87619">
        <ele>1362</ele>
        <time>2021-08-03T10:35:38.723Z</time>
      </trkpt>
      <trkpt lat="47.0117" lon="8.87618">
        <ele>1363</ele>
        <time>2021-08-03T10:35:39.723Z</time>
      </trkpt>
      <trkpt lat="47.01169" lon="8.87617">
        <ele>1364</ele>
        <time>2021-08-03T10:35:40.722Z</time>
      </trkpt>
      <trkpt lat="47.01169" lon="8.87616">
        <ele>1364</ele>
        <time>2021-08-03T10:35:41.722Z</time>
      </trkpt>
      <trkpt lat="47.01169" lon="8.87615">
        <ele>1365</ele>
        <time>2021-08-03T10:35:42.722Z</time>
      </trkpt>
      <trkpt lat="47.01169" lon="8.87614">
        <ele>1365</ele>
        <time>2021-08-03T10:35:43.723Z</time>
      </trkpt>
      <trkpt lat="47.01168" lon="8.87613">
        <ele>1365</ele>
        <time>2021-08-03T10:35:44.723Z</time>
      </trkpt>
      <trkpt lat="47.01168" lon="8.87612">
        <ele>1366</ele>
        <time>2021-08-03T10:35:45.723Z</time>
      </trkpt>
      <trkpt lat="47.01167" lon="8.87611">
        <ele>1366</ele>
        <time>2021-08-03T10:35:46.723Z</time>
      </trkpt>
      <trkpt lat="47.01167" lon="8.8761">
        <ele>1366</ele>
        <time>2021-08-03T10:35:47.722Z</time>
      </trkpt>
      <trkpt lat="47.01167" lon="8.8761">
        <ele>1366</ele>
        <time>2021-08-03T10:35:48.722Z</time>
      </trkpt>
      <trkpt lat="47.01166" lon="8.87609">
        <ele>1366</ele>
        <time>2021-08-03T10:35:49.723Z</time>
      </trkpt>
      <trkpt lat="47.01166" lon="8.87609">
        <ele>1367</ele>
        <time>2021-08-03T10:35:50.723Z</time>
      </trkpt>
      <trkpt lat="47.01165" lon="8.87608">
        <ele>1367</ele>
        <time>2021-08-03T10:35:51.723Z</time>
      </trkpt>
      <trkpt lat="47.01164" lon="8.87607">
        <ele>1367</ele>
        <time>2021-08-03T10:35:52.723Z</time>
      </trkpt>
      <trkpt lat="47.01163" lon="8.87607">
        <ele>1367</ele>
        <time>2021-08-03T10:35:53.723Z</time>
      </trkpt>
      <trkpt lat="47.01162" lon="8.87606">
        <ele>1367</ele>
        <time>2021-08-03T10:35:54.723Z</time>
      </trkpt>
      <trkpt lat="47.01161" lon="8.87606">
        <ele>1367</ele>
        <time>2021-08-03T10:35:55.723Z</time>
      </trkpt>
      <trkpt lat="47.0116" lon="8.87605">
        <ele>1368</ele>
        <time>2021-08-03T10:35:56.722Z</time>
      </trkpt>
      <trkpt lat="47.0116" lon="8.87605">
        <ele>1368</ele>
        <time>2021-08-03T10:35:57.723Z</time>
      </trkpt>
      <trkpt lat="47.01159" lon="8.87603">
        <ele>1368</ele>
        <time>2021-08-03T10:35:58.723Z</time>
      </trkpt>
      <trkpt lat="47.01158" lon="8.87603">
        <ele>1367</ele>
        <time>2021-08-03T10:35:59.722Z</time>
      </trkpt>
      <trkpt lat="47.01157" lon="8.87601">
        <ele>1367</ele>
        <time>2021-08-03T10:36:00.722Z</time>
      </trkpt>
      <trkpt lat="47.01157" lon="8.876">
        <ele>1367</ele>
        <time>2021-08-03T10:36:01.722Z</time>
      </trkpt>
      <trkpt lat="47.01156" lon="8.87599">
        <ele>1367</ele>
        <time>2021-08-03T10:36:02.723Z</time>
      </trkpt>
      <trkpt lat="47.01156" lon="8.87598">
        <ele>1367</ele>
        <time>2021-08-03T10:36:03.722Z</time>
      </trkpt>
      <trkpt lat="47.01155" lon="8.87597">
        <ele>1368</ele>
        <time>2021-08-03T10:36:04.723Z</time>
      </trkpt>
      <trkpt lat="47.01155" lon="8.87596">
        <ele>1368</ele>
        <time>2021-08-03T10:36:05.722Z</time>
      </trkpt>
      <trkpt lat="47.01154" lon="8.87595">
        <ele>1369</ele>
        <time>2021-08-03T10:36:06.722Z</time>
      </trkpt>
      <trkpt lat="47.01153" lon="8.87595">
        <ele>1370</ele>
        <time>2021-08-03T10:36:07.722Z</time>
      </trkpt>
      <trkpt lat="47.01152" lon="8.87594">
        <ele>1370</ele>
        <time>2021-08-03T10:36:08.722Z</time>
      </trkpt>
      <trkpt lat="47.01151" lon="8.87593">
        <ele>1371</ele>
        <time>2021-08-03T10:36:09.723Z</time>
      </trkpt>
      <trkpt lat="47.0115" lon="8.87592">
        <ele>1372</ele>
        <time>2021-08-03T10:36:10.722Z</time>
      </trkpt>
      <trkpt lat="47.01149" lon="8.87591">
        <ele>1372</ele>
        <time>2021-08-03T10:36:11.722Z</time>
      </trkpt>
      <trkpt lat="47.01148" lon="8.8759">
        <ele>1373</ele>
        <time>2021-08-03T10:36:12.722Z</time>
      </trkpt>
      <trkpt lat="47.01148" lon="8.87589">
        <ele>1374</ele>
        <time>2021-08-03T10:36:13.723Z</time>
      </trkpt>
      <trkpt lat="47.01148" lon="8.87588">
        <ele>1374</ele>
        <time>2021-08-03T10:36:14.723Z</time>
      </trkpt>
      <trkpt lat="47.01147" lon="8.87586">
        <ele>1375</ele>
        <time>2021-08-03T10:36:15.723Z</time>
      </trkpt>
      <trkpt lat="47.01147" lon="8.87585">
        <ele>1375</ele>
        <time>2021-08-03T10:36:16.722Z</time>
      </trkpt>
      <trkpt lat="47.01147" lon="8.87584">
        <ele>1375</ele>
        <time>2021-08-03T10:36:17.722Z</time>
      </trkpt>
      <trkpt lat="47.01147" lon="8.87583">
        <ele>1374</ele>
        <time>2021-08-03T10:36:18.723Z</time>
      </trkpt>
      <trkpt lat="47.01146" lon="8.87582">
        <ele>1374</ele>
        <time>2021-08-03T10:36:19.723Z</time>
      </trkpt>
      <trkpt lat="47.01146" lon="8.87581">
        <ele>1373</ele>
        <time>2021-08-03T10:36:20.722Z</time>
      </trkpt>
      <trkpt lat="47.01145" lon="8.87578">
        <ele>1373</ele>
        <time>2021-08-03T10:36:21.722Z</time>
      </trkpt>
      <trkpt lat="47.01144" lon="8.87576">
        <ele>1374</ele>
        <time>2021-08-03T10:36:22.723Z</time>
      </trkpt>
      <trkpt lat="47.01143" lon="8.87575">
        <ele>1374</ele>
        <time>2021-08-03T10:36:23.723Z</time>
      </trkpt>
      <trkpt lat="47.01142" lon="8.87574">
        <ele>1374</ele>
        <time>2021-08-03T10:36:24.722Z</time>
      </trkpt>
      <trkpt lat="47.01141" lon="8.87573">
        <ele>1374</ele>
        <time>2021-08-03T10:36:25.723Z</time>
      </trkpt>
      <trkpt lat="47.01141" lon="8.87571">
        <ele>1374</ele>
        <time>2021-08-03T10:36:26.722Z</time>
      </trkpt>
      <trkpt lat="47.0114" lon="8.8757">
        <ele>1374</ele>
        <time>2021-08-03T10:36:27.723Z</time>
      </trkpt>
      <trkpt lat="47.01139" lon="8.87569">
        <ele>1374</ele>
        <time>2021-08-03T10:36:28.723Z</time>
      </trkpt>
      <trkpt lat="47.01139" lon="8.87568">
        <ele>1374</ele>
        <time>2021-08-03T10:36:29.723Z</time>
      </trkpt>
      <trkpt lat="47.01138" lon="8.87567">
        <ele>1374</ele>
        <time>2021-08-03T10:36:30.723Z</time>
      </trkpt>
      <trkpt lat="47.01138" lon="8.87566">
        <ele>1374</ele>
        <time>2021-08-03T10:36:31.723Z</time>
      </trkpt>
      <trkpt lat="47.01137" lon="8.87565">
        <ele>1374</ele>
        <time>2021-08-03T10:36:32.723Z</time>
      </trkpt>
      <trkpt lat="47.01137" lon="8.87564">
        <ele>1374</ele>
        <time>2021-08-03T10:36:33.723Z</time>
      </trkpt>
      <trkpt lat="47.01136" lon="8.87563">
        <ele>1373</ele>
        <time>2021-08-03T10:36:34.722Z</time>
      </trkpt>
      <trkpt lat="47.01135" lon="8.87563">
        <ele>1373</ele>
        <time>2021-08-03T10:36:35.723Z</time>
      </trkpt>
      <trkpt lat="47.01134" lon="8.87562">
        <ele>1373</ele>
        <time>2021-08-03T10:36:36.723Z</time>
      </trkpt>
      <trkpt lat="47.01134" lon="8.8756">
        <ele>1373</ele>
        <time>2021-08-03T10:36:37.723Z</time>
      </trkpt>
      <trkpt lat="47.01133" lon="8.87559">
        <ele>1373</ele>
        <time>2021-08-03T10:36:38.723Z</time>
      </trkpt>
      <trkpt lat="47.01132" lon="8.87559">
        <ele>1373</ele>
        <time>2021-08-03T10:36:39.722Z</time>
      </trkpt>
      <trkpt lat="47.01131" lon="8.87557">
        <ele>1373</ele>
        <time>2021-08-03T10:36:40.723Z</time>
      </trkpt>
      <trkpt lat="47.0113" lon="8.87556">
        <ele>1373</ele>
        <time>2021-08-03T10:36:41.722Z</time>
      </trkpt>
      <trkpt lat="47.01129" lon="8.87555">
        <ele>1372</ele>
        <time>2021-08-03T10:36:42.723Z</time>
      </trkpt>
      <trkpt lat="47.01129" lon="8.87555">
        <ele>1372</ele>
        <time>2021-08-03T10:36:43.722Z</time>
      </trkpt>
      <trkpt lat="47.01128" lon="8.87554">
        <ele>1372</ele>
        <time>2021-08-03T10:36:44.723Z</time>
      </trkpt>
      <trkpt lat="47.01127" lon="8.87553">
        <ele>1373</ele>
        <time>2021-08-03T10:36:45.723Z</time>
      </trkpt>
      <trkpt lat="47.01126" lon="8.87552">
        <ele>1373</ele>
        <time>2021-08-03T10:36:46.722Z</time>
      </trkpt>
      <trkpt lat="47.01125" lon="8.87549">
        <ele>1374</ele>
        <time>2021-08-03T10:36:47.722Z</time>
      </trkpt>
      <trkpt lat="47.01125" lon="8.87548">
        <ele>1374</ele>
        <time>2021-08-03T10:36:48.722Z</time>
      </trkpt>
      <trkpt lat="47.01125" lon="8.87547">
        <ele>1374</ele>
        <time>2021-08-03T10:36:49.722Z</time>
      </trkpt>
      <trkpt lat="47.01125" lon="8.87546">
        <ele>1373</ele>
        <time>2021-08-03T10:36:50.722Z</time>
      </trkpt>
      <trkpt lat="47.01124" lon="8.87545">
        <ele>1373</ele>
        <time>2021-08-03T10:36:51.723Z</time>
      </trkpt>
      <trkpt lat="47.01123" lon="8.87545">
        <ele>1373</ele>
        <time>2021-08-03T10:36:52.723Z</time>
      </trkpt>
      <trkpt lat="47.01122" lon="8.87545">
        <ele>1373</ele>
        <time>2021-08-03T10:36:53.722Z</time>
      </trkpt>
      <trkpt lat="47.01121" lon="8.87544">
        <ele>1373</ele>
        <time>2021-08-03T10:36:54.723Z</time>
      </trkpt>
      <trkpt lat="47.0112" lon="8.87542">
        <ele>1373</ele>
        <time>2021-08-03T10:36:55.723Z</time>
      </trkpt>
      <trkpt lat="47.01119" lon="8.87541">
        <ele>1374</ele>
        <time>2021-08-03T10:36:56.722Z</time>
      </trkpt>
      <trkpt lat="47.01118" lon="8.8754">
        <ele>1374</ele>
        <time>2021-08-03T10:36:57.722Z</time>
      </trkpt>
      <trkpt lat="47.01117" lon="8.87538">
        <ele>1374</ele>
        <time>2021-08-03T10:36:58.723Z</time>
      </trkpt>
      <trkpt lat="47.01116" lon="8.87537">
        <ele>1375</ele>
        <time>2021-08-03T10:36:59.723Z</time>
      </trkpt>
      <trkpt lat="47.01115" lon="8.87535">
        <ele>1375</ele>
        <time>2021-08-03T10:37:00.723Z</time>
      </trkpt>
      <trkpt lat="47.01114" lon="8.87533">
        <ele>1375</ele>
        <time>2021-08-03T10:37:01.723Z</time>
      </trkpt>
      <trkpt lat="47.01113" lon="8.87532">
        <ele>1376</ele>
        <time>2021-08-03T10:37:02.723Z</time>
      </trkpt>
      <trkpt lat="47.01113" lon="8.87531">
        <ele>1376</ele>
        <time>2021-08-03T10:37:03.723Z</time>
      </trkpt>
      <trkpt lat="47.01112" lon="8.87529">
        <ele>1377</ele>
        <time>2021-08-03T10:37:04.723Z</time>
      </trkpt>
      <trkpt lat="47.01111" lon="8.87528">
        <ele>1377</ele>
        <time>2021-08-03T10:37:05.722Z</time>
      </trkpt>
      <trkpt lat="47.0111" lon="8.87527">
        <ele>1378</ele>
        <time>2021-08-03T10:37:06.722Z</time>
      </trkpt>
      <trkpt lat="47.0111" lon="8.87526">
        <ele>1378</ele>
        <time>2021-08-03T10:37:07.723Z</time>
      </trkpt>
      <trkpt lat="47.01109" lon="8.87525">
        <ele>1378</ele>
        <time>2021-08-03T10:37:08.722Z</time>
      </trkpt>
      <trkpt lat="47.01109" lon="8.87523">
        <ele>1377</ele>
        <time>2021-08-03T10:37:09.723Z</time>
      </trkpt>
      <trkpt lat="47.01108" lon="8.87522">
        <ele>1376</ele>
        <time>2021-08-03T10:37:10.723Z</time>
      </trkpt>
      <trkpt lat="47.01107" lon="8.87521">
        <ele>1376</ele>
        <time>2021-08-03T10:37:11.723Z</time>
      </trkpt>
      <trkpt lat="47.01107" lon="8.8752">
        <ele>1376</ele>
        <time>2021-08-03T10:37:12.722Z</time>
      </trkpt>
      <trkpt lat="47.01106" lon="8.87519">
        <ele>1375</ele>
        <time>2021-08-03T10:37:13.723Z</time>
      </trkpt>
      <trkpt lat="47.01106" lon="8.87517">
        <ele>1375</ele>
        <time>2021-08-03T10:37:14.722Z</time>
      </trkpt>
      <trkpt lat="47.01105" lon="8.87515">
        <ele>1375</ele>
        <time>2021-08-03T10:37:15.723Z</time>
      </trkpt>
      <trkpt lat="47.01104" lon="8.87513">
        <ele>1375</ele>
        <time>2021-08-03T10:37:16.723Z</time>
      </trkpt>
      <trkpt lat="47.01103" lon="8.87512">
        <ele>1376</ele>
        <time>2021-08-03T10:37:17.723Z</time>
      </trkpt>
      <trkpt lat="47.01103" lon="8.87511">
        <ele>1376</ele>
        <time>2021-08-03T10:37:18.723Z</time>
      </trkpt>
      <trkpt lat="47.01102" lon="8.8751">
        <ele>1376</ele>
        <time>2021-08-03T10:37:19.723Z</time>
      </trkpt>
      <trkpt lat="47.01101" lon="8.87509">
        <ele>1377</ele>
        <time>2021-08-03T10:37:20.722Z</time>
      </trkpt>
      <trkpt lat="47.01101" lon="8.87509">
        <ele>1377</ele>
        <time>2021-08-03T10:37:21.723Z</time>
      </trkpt>
      <trkpt lat="47.011" lon="8.87508">
        <ele>1377</ele>
        <time>2021-08-03T10:37:22.723Z</time>
      </trkpt>
      <trkpt lat="47.01099" lon="8.87507">
        <ele>1378</ele>
        <time>2021-08-03T10:37:23.723Z</time>
      </trkpt>
      <trkpt lat="47.01098" lon="8.87506">
        <ele>1378</ele>
        <time>2021-08-03T10:37:24.723Z</time>
      </trkpt>
      <trkpt lat="47.01097" lon="8.87506">
        <ele>1379</ele>
        <time>2021-08-03T10:37:25.722Z</time>
      </trkpt>
      <trkpt lat="47.01096" lon="8.87506">
        <ele>1379</ele>
        <time>2021-08-03T10:37:26.723Z</time>
      </trkpt>
      <trkpt lat="47.01095" lon="8.87505">
        <ele>1379</ele>
        <time>2021-08-03T10:37:27.723Z</time>
      </trkpt>
      <trkpt lat="47.01094" lon="8.87505">
        <ele>1380</ele>
        <time>2021-08-03T10:37:28.723Z</time>
      </trkpt>
      <trkpt lat="47.01093" lon="8.87504">
        <ele>1380</ele>
        <time>2021-08-03T10:37:29.722Z</time>
      </trkpt>
      <trkpt lat="47.01092" lon="8.87503">
        <ele>1380</ele>
        <time>2021-08-03T10:37:30.723Z</time>
      </trkpt>
      <trkpt lat="47.01091" lon="8.87503">
        <ele>1380</ele>
        <time>2021-08-03T10:37:31.723Z</time>
      </trkpt>
      <trkpt lat="47.01089" lon="8.87502">
        <ele>1380</ele>
        <time>2021-08-03T10:37:32.723Z</time>
      </trkpt>
      <trkpt lat="47.01088" lon="8.87502">
        <ele>1380</ele>
        <time>2021-08-03T10:37:33.723Z</time>
      </trkpt>
      <trkpt lat="47.01087" lon="8.87501">
        <ele>1380</ele>
        <time>2021-08-03T10:37:34.723Z</time>
      </trkpt>
      <trkpt lat="47.01086" lon="8.87501">
        <ele>1380</ele>
        <time>2021-08-03T10:37:35.723Z</time>
      </trkpt>
      <trkpt lat="47.01085" lon="8.87501">
        <ele>1381</ele>
        <time>2021-08-03T10:37:36.722Z</time>
      </trkpt>
      <trkpt lat="47.01084" lon="8.875">
        <ele>1381</ele>
        <time>2021-08-03T10:37:37.723Z</time>
      </trkpt>
      <trkpt lat="47.01083" lon="8.87499">
        <ele>1381</ele>
        <time>2021-08-03T10:37:38.723Z</time>
      </trkpt>
      <trkpt lat="47.01082" lon="8.87499">
        <ele>1381</ele>
        <time>2021-08-03T10:37:39.723Z</time>
      </trkpt>
      <trkpt lat="47.01081" lon="8.87499">
        <ele>1381</ele>
        <time>2021-08-03T10:37:40.722Z</time>
      </trkpt>
      <trkpt lat="47.0108" lon="8.87499">
        <ele>1381</ele>
        <time>2021-08-03T10:37:41.723Z</time>
      </trkpt>
      <trkpt lat="47.01079" lon="8.87499">
        <ele>1380</ele>
        <time>2021-08-03T10:37:42.723Z</time>
      </trkpt>
      <trkpt lat="47.01077" lon="8.87499">
        <ele>1380</ele>
        <time>2021-08-03T10:37:43.723Z</time>
      </trkpt>
      <trkpt lat="47.01076" lon="8.87499">
        <ele>1380</ele>
        <time>2021-08-03T10:37:44.722Z</time>
      </trkpt>
      <trkpt lat="47.01075" lon="8.87499">
        <ele>1380</ele>
        <time>2021-08-03T10:37:45.723Z</time>
      </trkpt>
      <trkpt lat="47.01074" lon="8.87499">
        <ele>1380</ele>
        <time>2021-08-03T10:37:46.723Z</time>
      </trkpt>
      <trkpt lat="47.01073" lon="8.87498">
        <ele>1380</ele>
        <time>2021-08-03T10:37:47.722Z</time>
      </trkpt>
      <trkpt lat="47.01072" lon="8.87499">
        <ele>1381</ele>
        <time>2021-08-03T10:37:48.722Z</time>
      </trkpt>
      <trkpt lat="47.0107" lon="8.87499">
        <ele>1381</ele>
        <time>2021-08-03T10:37:49.722Z</time>
      </trkpt>
      <trkpt lat="47.0107" lon="8.87499">
        <ele>1382</ele>
        <time>2021-08-03T10:37:50.722Z</time>
      </trkpt>
      <trkpt lat="47.01069" lon="8.87498">
        <ele>1382</ele>
        <time>2021-08-03T10:37:51.723Z</time>
      </trkpt>
      <trkpt lat="47.01068" lon="8.87498">
        <ele>1383</ele>
        <time>2021-08-03T10:37:52.722Z</time>
      </trkpt>
      <trkpt lat="47.01067" lon="8.87497">
        <ele>1383</ele>
        <time>2021-08-03T10:37:53.723Z</time>
      </trkpt>
      <trkpt lat="47.01066" lon="8.87496">
        <ele>1383</ele>
        <time>2021-08-03T10:37:54.722Z</time>
      </trkpt>
      <trkpt lat="47.01065" lon="8.87496">
        <ele>1383</ele>
        <time>2021-08-03T10:37:55.722Z</time>
      </trkpt>
      <trkpt lat="47.01064" lon="8.87495">
        <ele>1383</ele>
        <time>2021-08-03T10:37:56.722Z</time>
      </trkpt>
      <trkpt lat="47.01063" lon="8.87494">
        <ele>1383</ele>
        <time>2021-08-03T10:37:57.723Z</time>
      </trkpt>
      <trkpt lat="47.01062" lon="8.87493">
        <ele>1383</ele>
        <time>2021-08-03T10:37:58.723Z</time>
      </trkpt>
      <trkpt lat="47.01061" lon="8.87492">
        <ele>1383</ele>
        <time>2021-08-03T10:37:59.722Z</time>
      </trkpt>
      <trkpt lat="47.0106" lon="8.87491">
        <ele>1382</ele>
        <time>2021-08-03T10:38:00.723Z</time>
      </trkpt>
      <trkpt lat="47.01059" lon="8.8749">
        <ele>1382</ele>
        <time>2021-08-03T10:38:01.723Z</time>
      </trkpt>
      <trkpt lat="47.01059" lon="8.87489">
        <ele>1382</ele>
        <time>2021-08-03T10:38:02.722Z</time>
      </trkpt>
      <trkpt lat="47.01058" lon="8.87488">
        <ele>1382</ele>
        <time>2021-08-03T10:38:03.723Z</time>
      </trkpt>
      <trkpt lat="47.01057" lon="8.87487">
        <ele>1381</ele>
        <time>2021-08-03T10:38:04.723Z</time>
      </trkpt>
      <trkpt lat="47.01057" lon="8.87485">
        <ele>1381</ele>
        <time>2021-08-03T10:38:05.723Z</time>
      </trkpt>
      <trkpt lat="47.01056" lon="8.87484">
        <ele>1381</ele>
        <time>2021-08-03T10:38:06.723Z</time>
      </trkpt>
      <trkpt lat="47.01055" lon="8.87483">
        <ele>1381</ele>
        <time>2021-08-03T10:38:07.723Z</time>
      </trkpt>
      <trkpt lat="47.01054" lon="8.87481">
        <ele>1381</ele>
        <time>2021-08-03T10:38:08.722Z</time>
      </trkpt>
      <trkpt lat="47.01053" lon="8.8748">
        <ele>1381</ele>
        <time>2021-08-03T10:38:09.722Z</time>
      </trkpt>
      <trkpt lat="47.01052" lon="8.87478">
        <ele>1381</ele>
        <time>2021-08-03T10:38:10.723Z</time>
      </trkpt>
      <trkpt lat="47.01051" lon="8.87475">
        <ele>1381</ele>
        <time>2021-08-03T10:38:11.723Z</time>
      </trkpt>
      <trkpt lat="47.01051" lon="8.87474">
        <ele>1381</ele>
        <time>2021-08-03T10:38:12.722Z</time>
      </trkpt>
      <trkpt lat="47.0105" lon="8.87473">
        <ele>1381</ele>
        <time>2021-08-03T10:38:13.723Z</time>
      </trkpt>
      <trkpt lat="47.01049" lon="8.87472">
        <ele>1381</ele>
        <time>2021-08-03T10:38:14.723Z</time>
      </trkpt>
      <trkpt lat="47.01049" lon="8.8747">
        <ele>1381</ele>
        <time>2021-08-03T10:38:15.722Z</time>
      </trkpt>
      <trkpt lat="47.01048" lon="8.87469">
        <ele>1382</ele>
        <time>2021-08-03T10:38:16.723Z</time>
      </trkpt>
      <trkpt lat="47.01048" lon="8.87467">
        <ele>1382</ele>
        <time>2021-08-03T10:38:17.723Z</time>
      </trkpt>
      <trkpt lat="47.01047" lon="8.87466">
        <ele>1382</ele>
        <time>2021-08-03T10:38:18.723Z</time>
      </trkpt>
      <trkpt lat="47.01047" lon="8.87464">
        <ele>1382</ele>
        <time>2021-08-03T10:38:19.723Z</time>
      </trkpt>
      <trkpt lat="47.01047" lon="8.87463">
        <ele>1382</ele>
        <time>2021-08-03T10:38:20.723Z</time>
      </trkpt>
      <trkpt lat="47.01046" lon="8.87461">
        <ele>1381</ele>
        <time>2021-08-03T10:38:21.723Z</time>
      </trkpt>
      <trkpt lat="47.01046" lon="8.87459">
        <ele>1381</ele>
        <time>2021-08-03T10:38:22.723Z</time>
      </trkpt>
      <trkpt lat="47.01046" lon="8.87457">
        <ele>1380</ele>
        <time>2021-08-03T10:38:23.723Z</time>
      </trkpt>
      <trkpt lat="47.01045" lon="8.87456">
        <ele>1381</ele>
        <time>2021-08-03T10:38:24.723Z</time>
      </trkpt>
      <trkpt lat="47.01044" lon="8.87454">
        <ele>1380</ele>
        <time>2021-08-03T10:38:25.723Z</time>
      </trkpt>
      <trkpt lat="47.01044" lon="8.87453">
        <ele>1380</ele>
        <time>2021-08-03T10:38:26.723Z</time>
      </trkpt>
      <trkpt lat="47.01043" lon="8.87451">
        <ele>1380</ele>
        <time>2021-08-03T10:38:27.722Z</time>
      </trkpt>
      <trkpt lat="47.01043" lon="8.87449">
        <ele>1380</ele>
        <time>2021-08-03T10:38:28.723Z</time>
      </trkpt>
      <trkpt lat="47.01042" lon="8.87447">
        <ele>1380</ele>
        <time>2021-08-03T10:38:29.722Z</time>
      </trkpt>
      <trkpt lat="47.01041" lon="8.87446">
        <ele>1380</ele>
        <time>2021-08-03T10:38:30.723Z</time>
      </trkpt>
      <trkpt lat="47.0104" lon="8.87445">
        <ele>1379</ele>
        <time>2021-08-03T10:38:31.723Z</time>
      </trkpt>
      <trkpt lat="47.0104" lon="8.87443">
        <ele>1379</ele>
        <time>2021-08-03T10:38:32.722Z</time>
      </trkpt>
      <trkpt lat="47.01039" lon="8.87442">
        <ele>1379</ele>
        <time>2021-08-03T10:38:33.723Z</time>
      </trkpt>
      <trkpt lat="47.01038" lon="8.87441">
        <ele>1379</ele>
        <time>2021-08-03T10:38:34.723Z</time>
      </trkpt>
      <trkpt lat="47.01038" lon="8.8744">
        <ele>1379</ele>
        <time>2021-08-03T10:38:35.722Z</time>
      </trkpt>
      <trkpt lat="47.01038" lon="8.87439">
        <ele>1379</ele>
        <time>2021-08-03T10:38:36.723Z</time>
      </trkpt>
      <trkpt lat="47.01037" lon="8.87438">
        <ele>1378</ele>
        <time>2021-08-03T10:38:37.723Z</time>
      </trkpt>
      <trkpt lat="47.01037" lon="8.87436">
        <ele>1378</ele>
        <time>2021-08-03T10:38:38.723Z</time>
      </trkpt>
      <trkpt lat="47.01038" lon="8.87435">
        <ele>1377</ele>
        <time>2021-08-03T10:38:39.723Z</time>
      </trkpt>
      <trkpt lat="47.01038" lon="8.87434">
        <ele>1377</ele>
        <time>2021-08-03T10:38:40.723Z</time>
      </trkpt>
      <trkpt lat="47.01038" lon="8.87434">
        <ele>1377</ele>
        <time>2021-08-03T10:38:41.723Z</time>
      </trkpt>
      <trkpt lat="47.01038" lon="8.87435">
        <ele>1378</ele>
        <time>2021-08-03T10:38:42.723Z</time>
      </trkpt>
      <trkpt lat="47.01038" lon="8.87436">
        <ele>1378</ele>
        <time>2021-08-03T10:38:43.722Z</time>
      </trkpt>
      <trkpt lat="47.01037" lon="8.87436">
        <ele>1378</ele>
        <time>2021-08-03T10:38:44.723Z</time>
      </trkpt>
      <trkpt lat="47.01037" lon="8.87435">
        <ele>1378</ele>
        <time>2021-08-03T10:38:58.824Z</time>
      </trkpt>
      <trkpt lat="47.01037" lon="8.87433">
        <ele>1379</ele>
        <time>2021-08-03T10:38:59.825Z</time>
      </trkpt>
      <trkpt lat="47.01037" lon="8.87433">
        <ele>1379</ele>
        <time>2021-08-03T10:39:00.824Z</time>
      </trkpt>
      <trkpt lat="47.01038" lon="8.87432">
        <ele>1378</ele>
        <time>2021-08-03T10:39:01.825Z</time>
      </trkpt>
      <trkpt lat="47.01038" lon="8.87431">
        <ele>1378</ele>
        <time>2021-08-03T10:39:02.824Z</time>
      </trkpt>
      <trkpt lat="47.01039" lon="8.87429">
        <ele>1377</ele>
        <time>2021-08-03T10:39:03.824Z</time>
      </trkpt>
      <trkpt lat="47.0104" lon="8.87427">
        <ele>1377</ele>
        <time>2021-08-03T10:39:04.825Z</time>
      </trkpt>
      <trkpt lat="47.0104" lon="8.87426">
        <ele>1376</ele>
        <time>2021-08-03T10:39:05.825Z</time>
      </trkpt>
      <trkpt lat="47.0104" lon="8.87425">
        <ele>1376</ele>
        <time>2021-08-03T10:39:06.824Z</time>
      </trkpt>
      <trkpt lat="47.0104" lon="8.87424">
        <ele>1376</ele>
        <time>2021-08-03T10:39:07.824Z</time>
      </trkpt>
      <trkpt lat="47.0104" lon="8.87423">
        <ele>1376</ele>
        <time>2021-08-03T10:39:08.825Z</time>
      </trkpt>
      <trkpt lat="47.0104" lon="8.87422">
        <ele>1376</ele>
        <time>2021-08-03T10:39:09.825Z</time>
      </trkpt>
      <trkpt lat="47.0104" lon="8.8742">
        <ele>1377</ele>
        <time>2021-08-03T10:39:10.824Z</time>
      </trkpt>
      <trkpt lat="47.01039" lon="8.87419">
        <ele>1378</ele>
        <time>2021-08-03T10:39:11.825Z</time>
      </trkpt>
      <trkpt lat="47.01039" lon="8.87418">
        <ele>1379</ele>
        <time>2021-08-03T10:39:12.825Z</time>
      </trkpt>
      <trkpt lat="47.01039" lon="8.87417">
        <ele>1379</ele>
        <time>2021-08-03T10:39:13.824Z</time>
      </trkpt>
      <trkpt lat="47.01039" lon="8.87416">
        <ele>1380</ele>
        <time>2021-08-03T10:39:14.825Z</time>
      </trkpt>
      <trkpt lat="47.01039" lon="8.87415">
        <ele>1380</ele>
        <time>2021-08-03T10:39:15.824Z</time>
      </trkpt>
      <trkpt lat="47.01039" lon="8.87414">
        <ele>1380</ele>
        <time>2021-08-03T10:39:16.825Z</time>
      </trkpt>
      <trkpt lat="47.01038" lon="8.87413">
        <ele>1380</ele>
        <time>2021-08-03T10:39:17.824Z</time>
      </trkpt>
      <trkpt lat="47.01038" lon="8.87413">
        <ele>1380</ele>
        <time>2021-08-03T10:39:18.824Z</time>
      </trkpt>
      <trkpt lat="47.01037" lon="8.87412">
        <ele>1381</ele>
        <time>2021-08-03T10:39:19.824Z</time>
      </trkpt>
      <trkpt lat="47.01036" lon="8.87411">
        <ele>1381</ele>
        <time>2021-08-03T10:39:20.824Z</time>
      </trkpt>
      <trkpt lat="47.01035" lon="8.8741">
        <ele>1381</ele>
        <time>2021-08-03T10:39:21.825Z</time>
      </trkpt>
      <trkpt lat="47.01035" lon="8.87409">
        <ele>1382</ele>
        <time>2021-08-03T10:39:22.825Z</time>
      </trkpt>
      <trkpt lat="47.01034" lon="8.87408">
        <ele>1382</ele>
        <time>2021-08-03T10:39:23.825Z</time>
      </trkpt>
      <trkpt lat="47.01033" lon="8.87407">
        <ele>1383</ele>
        <time>2021-08-03T10:39:24.824Z</time>
      </trkpt>
      <trkpt lat="47.01032" lon="8.87406">
        <ele>1383</ele>
        <time>2021-08-03T10:39:25.825Z</time>
      </trkpt>
      <trkpt lat="47.01032" lon="8.87406">
        <ele>1384</ele>
        <time>2021-08-03T10:39:26.824Z</time>
      </trkpt>
      <trkpt lat="47.01031" lon="8.87406">
        <ele>1384</ele>
        <time>2021-08-03T10:39:27.825Z</time>
      </trkpt>
      <trkpt lat="47.01031" lon="8.87405">
        <ele>1384</ele>
        <time>2021-08-03T10:39:28.824Z</time>
      </trkpt>
      <trkpt lat="47.0103" lon="8.87404">
        <ele>1384</ele>
        <time>2021-08-03T10:39:29.825Z</time>
      </trkpt>
      <trkpt lat="47.0103" lon="8.87404">
        <ele>1384</ele>
        <time>2021-08-03T10:39:30.824Z</time>
      </trkpt>
      <trkpt lat="47.01029" lon="8.87403">
        <ele>1385</ele>
        <time>2021-08-03T10:39:31.825Z</time>
      </trkpt>
      <trkpt lat="47.01029" lon="8.87402">
        <ele>1385</ele>
        <time>2021-08-03T10:39:32.824Z</time>
      </trkpt>
      <trkpt lat="47.01029" lon="8.87401">
        <ele>1385</ele>
        <time>2021-08-03T10:39:33.824Z</time>
      </trkpt>
      <trkpt lat="47.01029" lon="8.87401">
        <ele>1385</ele>
        <time>2021-08-03T10:39:34.825Z</time>
      </trkpt>
      <trkpt lat="47.01029" lon="8.87401">
        <ele>1385</ele>
        <time>2021-08-03T10:39:35.824Z</time>
      </trkpt>
      <trkpt lat="47.0103" lon="8.874">
        <ele>1385</ele>
        <time>2021-08-03T10:39:36.825Z</time>
      </trkpt>
      <trkpt lat="47.0103" lon="8.87401">
        <ele>1386</ele>
        <time>2021-08-03T10:39:37.824Z</time>
      </trkpt>
      <trkpt lat="47.0103" lon="8.87401">
        <ele>1386</ele>
        <time>2021-08-03T10:39:38.824Z</time>
      </trkpt>
      <trkpt lat="47.01031" lon="8.874">
        <ele>1386</ele>
        <time>2021-08-03T10:39:39.825Z</time>
      </trkpt>
      <trkpt lat="47.01031" lon="8.874">
        <ele>1387</ele>
        <time>2021-08-03T10:39:40.824Z</time>
      </trkpt>
      <trkpt lat="47.01031" lon="8.87399">
        <ele>1388</ele>
        <time>2021-08-03T10:39:41.824Z</time>
      </trkpt>
      <trkpt lat="47.0103" lon="8.87403">
        <ele>1401</ele>
        <time>2021-08-03T10:39:42.824Z</time>
      </trkpt>
      <trkpt lat="47.0103" lon="8.87403">
        <ele>1402</ele>
        <time>2021-08-03T10:39:43.824Z</time>
      </trkpt>
      <trkpt lat="47.01032" lon="8.87403">
        <ele>1403</ele>
        <time>2021-08-03T10:39:44.824Z</time>
      </trkpt>
      <trkpt lat="47.01034" lon="8.87404">
        <ele>1405</ele>
        <time>2021-08-03T10:39:45.825Z</time>
      </trkpt>
      <trkpt lat="47.01036" lon="8.87407">
        <ele>1414</ele>
        <time>2021-08-03T10:39:46.827Z</time>
      </trkpt>
      <trkpt lat="47.01035" lon="8.87407">
        <ele>1415</ele>
        <time>2021-08-03T10:39:47.827Z</time>
      </trkpt>
      <trkpt lat="47.01035" lon="8.87408">
        <ele>1416</ele>
        <time>2021-08-03T10:39:48.826Z</time>
      </trkpt>
      <trkpt lat="47.01035" lon="8.87408">
        <ele>1417</ele>
        <time>2021-08-03T10:39:49.826Z</time>
      </trkpt>
      <trkpt lat="47.01034" lon="8.87406">
        <ele>1410</ele>
        <time>2021-08-03T10:39:50.827Z</time>
      </trkpt>
      <trkpt lat="47.01034" lon="8.87405">
        <ele>1409</ele>
        <time>2021-08-03T10:39:51.826Z</time>
      </trkpt>
      <trkpt lat="47.01034" lon="8.87405">
        <ele>1408</ele>
        <time>2021-08-03T10:39:52.826Z</time>
      </trkpt>
      <trkpt lat="47.01034" lon="8.87406">
        <ele>1406</ele>
        <time>2021-08-03T10:39:53.826Z</time>
      </trkpt>
      <trkpt lat="47.01034" lon="8.87406">
        <ele>1405</ele>
        <time>2021-08-03T10:39:54.827Z</time>
      </trkpt>
      <trkpt lat="47.01033" lon="8.87407">
        <ele>1405</ele>
        <time>2021-08-03T10:39:55.826Z</time>
      </trkpt>
      <trkpt lat="47.01033" lon="8.87407">
        <ele>1404</ele>
        <time>2021-08-03T10:39:56.826Z</time>
      </trkpt>
      <trkpt lat="47.01033" lon="8.87407">
        <ele>1404</ele>
        <time>2021-08-03T10:39:57.827Z</time>
      </trkpt>
      <trkpt lat="47.0103" lon="8.8741">
        <ele>1401</ele>
        <time>2021-08-03T10:39:58.828Z</time>
      </trkpt>
      <trkpt lat="47.0103" lon="8.8741">
        <ele>1401</ele>
        <time>2021-08-03T10:39:59.828Z</time>
      </trkpt>
      <trkpt lat="47.01029" lon="8.87409">
        <ele>1406</ele>
        <time>2021-08-03T10:40:00.828Z</time>
      </trkpt>
      <trkpt lat="47.01029" lon="8.87409">
        <ele>1406</ele>
        <time>2021-08-03T10:40:01.828Z</time>
      </trkpt>
      <trkpt lat="47.0103" lon="8.87409">
        <ele>1407</ele>
        <time>2021-08-03T10:40:02.827Z</time>
      </trkpt>
      <trkpt lat="47.0103" lon="8.8741">
        <ele>1408</ele>
        <time>2021-08-03T10:40:03.828Z</time>
      </trkpt>
      <trkpt lat="47.0103" lon="8.87411">
        <ele>1408</ele>
        <time>2021-08-03T10:40:04.828Z</time>
      </trkpt>
      <trkpt lat="47.0103" lon="8.87411">
        <ele>1409</ele>
        <time>2021-08-03T10:40:05.828Z</time>
      </trkpt>
      <trkpt lat="47.0103" lon="8.87412">
        <ele>1409</ele>
        <time>2021-08-03T10:40:06.827Z</time>
      </trkpt>
      <trkpt lat="47.01028" lon="8.87411">
        <ele>1401</ele>
        <time>2021-08-03T10:40:07.828Z</time>
      </trkpt>
      <trkpt lat="47.01028" lon="8.87411">
        <ele>1400</ele>
        <time>2021-08-03T10:40:08.828Z</time>
      </trkpt>
      <trkpt lat="47.01027" lon="8.87406">
        <ele>1393</ele>
        <time>2021-08-03T10:40:09.828Z</time>
      </trkpt>
      <trkpt lat="47.01027" lon="8.87407">
        <ele>1393</ele>
        <time>2021-08-03T10:40:10.828Z</time>
      </trkpt>
      <trkpt lat="47.01026" lon="8.87408">
        <ele>1392</ele>
        <time>2021-08-03T10:40:11.828Z</time>
      </trkpt>
      <trkpt lat="47.01026" lon="8.87403">
        <ele>1402</ele>
        <time>2021-08-03T10:40:12.830Z</time>
      </trkpt>
      <trkpt lat="47.01026" lon="8.87402">
        <ele>1402</ele>
        <time>2021-08-03T10:40:13.830Z</time>
      </trkpt>
      <trkpt lat="47.01026" lon="8.87403">
        <ele>1402</ele>
        <time>2021-08-03T10:40:14.829Z</time>
      </trkpt>
      <trkpt lat="47.01026" lon="8.87403">
        <ele>1402</ele>
        <time>2021-08-03T10:40:15.830Z</time>
      </trkpt>
      <trkpt lat="47.01026" lon="8.87402">
        <ele>1402</ele>
        <time>2021-08-03T10:40:16.830Z</time>
      </trkpt>
      <trkpt lat="47.01027" lon="8.87402">
        <ele>1401</ele>
        <time>2021-08-03T10:40:17.830Z</time>
      </trkpt>
      <trkpt lat="47.01027" lon="8.87402">
        <ele>1400</ele>
        <time>2021-08-03T10:40:18.830Z</time>
      </trkpt>
      <trkpt lat="47.01026" lon="8.87401">
        <ele>1400</ele>
        <time>2021-08-03T10:40:19.830Z</time>
      </trkpt>
      <trkpt lat="47.01026" lon="8.874">
        <ele>1399</ele>
        <time>2021-08-03T10:40:20.829Z</time>
      </trkpt>
      <trkpt lat="47.01026" lon="8.874">
        <ele>1398</ele>
        <time>2021-08-03T10:40:21.829Z</time>
      </trkpt>
      <trkpt lat="47.01027" lon="8.874">
        <ele>1398</ele>
        <time>2021-08-03T10:40:22.830Z</time>
      </trkpt>
      <trkpt lat="47.01027" lon="8.874">
        <ele>1397</ele>
        <time>2021-08-03T10:40:23.830Z</time>
      </trkpt>
      <trkpt lat="47.01027" lon="8.874">
        <ele>1397</ele>
        <time>2021-08-03T10:40:24.830Z</time>
      </trkpt>
      <trkpt lat="47.01028" lon="8.87401">
        <ele>1396</ele>
        <time>2021-08-03T10:40:25.830Z</time>
      </trkpt>
      <trkpt lat="47.01028" lon="8.87401">
        <ele>1394</ele>
        <time>2021-08-03T10:40:26.832Z</time>
      </trkpt>
      <trkpt lat="47.0103" lon="8.87401">
        <ele>1393</ele>
        <time>2021-08-03T10:40:27.832Z</time>
      </trkpt>
      <trkpt lat="47.0103" lon="8.87402">
        <ele>1392</ele>
        <time>2021-08-03T10:40:28.831Z</time>
      </trkpt>
      <trkpt lat="47.01029" lon="8.87401">
        <ele>1398</ele>
        <time>2021-08-03T10:40:29.832Z</time>
      </trkpt>
      <trkpt lat="47.01029" lon="8.87402">
        <ele>1399</ele>
        <time>2021-08-03T10:40:30.831Z</time>
      </trkpt>
      <trkpt lat="47.01028" lon="8.874">
        <ele>1398</ele>
        <time>2021-08-03T10:40:31.831Z</time>
      </trkpt>
      <trkpt lat="47.01028" lon="8.87402">
        <ele>1401</ele>
        <time>2021-08-03T10:40:32.832Z</time>
      </trkpt>
      <trkpt lat="47.01028" lon="8.87404">
        <ele>1401</ele>
        <time>2021-08-03T10:40:33.831Z</time>
      </trkpt>
      <trkpt lat="47.01029" lon="8.87405">
        <ele>1402</ele>
        <time>2021-08-03T10:40:34.831Z</time>
      </trkpt>
      <trkpt lat="47.01029" lon="8.87406">
        <ele>1402</ele>
        <time>2021-08-03T10:40:35.832Z</time>
      </trkpt>
      <trkpt lat="47.01029" lon="8.87415">
        <ele>1405</ele>
        <time>2021-08-03T10:40:36.832Z</time>
      </trkpt>
      <trkpt lat="47.01029" lon="8.87417">
        <ele>1405</ele>
        <time>2021-08-03T10:40:54.834Z</time>
      </trkpt>
      <trkpt lat="47.01028" lon="8.87417">
        <ele>1406</ele>
        <time>2021-08-03T10:41:01.734Z</time>
      </trkpt>
      <trkpt lat="47.01028" lon="8.87418">
        <ele>1411</ele>
        <time>2021-08-03T10:41:02.735Z</time>
      </trkpt>
      <trkpt lat="47.01028" lon="8.87418">
        <ele>1411</ele>
        <time>2021-08-03T10:41:03.735Z</time>
      </trkpt>
      <trkpt lat="47.01028" lon="8.87418">
        <ele>1411</ele>
        <time>2021-08-03T10:41:07.863Z</time>
      </trkpt>
      <trkpt lat="47.01028" lon="8.87414">
        <ele>1412</ele>
        <time>2021-08-03T10:41:08.862Z</time>
      </trkpt>
      <trkpt lat="47.01028" lon="8.87415">
        <ele>1412</ele>
        <time>2021-08-03T10:41:09.863Z</time>
      </trkpt>
      <trkpt lat="47.01027" lon="8.87416">
        <ele>1413</ele>
        <time>2021-08-03T10:41:10.863Z</time>
      </trkpt>
      <trkpt lat="47.01027" lon="8.87415">
        <ele>1413</ele>
        <time>2021-08-03T10:41:11.863Z</time>
      </trkpt>
      <trkpt lat="47.01027" lon="8.87414">
        <ele>1411</ele>
        <time>2021-08-03T10:41:12.862Z</time>
      </trkpt>
      <trkpt lat="47.01027" lon="8.87413">
        <ele>1410</ele>
        <time>2021-08-03T10:41:13.862Z</time>
      </trkpt>
      <trkpt lat="47.01028" lon="8.87412">
        <ele>1404</ele>
        <time>2021-08-03T10:41:14.862Z</time>
      </trkpt>
      <trkpt lat="47.01028" lon="8.87413">
        <ele>1403</ele>
        <time>2021-08-03T10:41:15.862Z</time>
      </trkpt>
      <trkpt lat="47.01028" lon="8.87413">
        <ele>1403</ele>
        <time>2021-08-03T10:41:16.863Z</time>
      </trkpt>
      <trkpt lat="47.01028" lon="8.87414">
        <ele>1403</ele>
        <time>2021-08-03T10:41:17.863Z</time>
      </trkpt>
      <trkpt lat="47.01028" lon="8.87414">
        <ele>1402</ele>
        <time>2021-08-03T10:41:18.863Z</time>
      </trkpt>
      <trkpt lat="47.01027" lon="8.87415">
        <ele>1402</ele>
        <time>2021-08-03T10:41:19.862Z</time>
      </trkpt>
      <trkpt lat="47.01027" lon="8.87416">
        <ele>1402</ele>
        <time>2021-08-03T10:41:20.862Z</time>
      </trkpt>
      <trkpt lat="47.01026" lon="8.87417">
        <ele>1402</ele>
        <time>2021-08-03T10:41:21.863Z</time>
      </trkpt>
      <trkpt lat="47.01025" lon="8.87418">
        <ele>1404</ele>
        <time>2021-08-03T10:41:22.864Z</time>
      </trkpt>
      <trkpt lat="47.01026" lon="8.87417">
        <ele>1403</ele>
        <time>2021-08-03T10:41:23.864Z</time>
      </trkpt>
      <trkpt lat="47.01026" lon="8.87417">
        <ele>1403</ele>
        <time>2021-08-03T10:41:24.863Z</time>
      </trkpt>
      <trkpt lat="47.01026" lon="8.8741">
        <ele>1397</ele>
        <time>2021-08-03T10:41:25.864Z</time>
      </trkpt>
      <trkpt lat="47.01025" lon="8.87409">
        <ele>1397</ele>
        <time>2021-08-03T10:41:26.863Z</time>
      </trkpt>
      <trkpt lat="47.01025" lon="8.87406">
        <ele>1398</ele>
        <time>2021-08-03T10:41:27.864Z</time>
      </trkpt>
      <trkpt lat="47.01027" lon="8.87407">
        <ele>1398</ele>
        <time>2021-08-03T10:41:28.864Z</time>
      </trkpt>
      <trkpt lat="47.01026" lon="8.87404">
        <ele>1407</ele>
        <time>2021-08-03T10:41:29.864Z</time>
      </trkpt>
      <trkpt lat="47.01022" lon="8.87405">
        <ele>1400</ele>
        <time>2021-08-03T10:41:30.864Z</time>
      </trkpt>
      <trkpt lat="47.01022" lon="8.87405">
        <ele>1399</ele>
        <time>2021-08-03T10:41:31.864Z</time>
      </trkpt>
      <trkpt lat="47.01023" lon="8.87404">
        <ele>1399</ele>
        <time>2021-08-03T10:41:32.863Z</time>
      </trkpt>
      <trkpt lat="47.01024" lon="8.87404">
        <ele>1399</ele>
        <time>2021-08-03T10:41:33.863Z</time>
      </trkpt>
      <trkpt lat="47.01024" lon="8.87404">
        <ele>1400</ele>
        <time>2021-08-03T10:41:34.864Z</time>
      </trkpt>
      <trkpt lat="47.01025" lon="8.87404">
        <ele>1400</ele>
        <time>2021-08-03T10:41:35.863Z</time>
      </trkpt>
      <trkpt lat="47.01025" lon="8.87403">
        <ele>1400</ele>
        <time>2021-08-03T10:41:36.863Z</time>
      </trkpt>
      <trkpt lat="47.01024" lon="8.87403">
        <ele>1402</ele>
        <time>2021-08-03T10:41:37.865Z</time>
      </trkpt>
      <trkpt lat="47.01025" lon="8.87403">
        <ele>1402</ele>
        <time>2021-08-03T10:41:38.865Z</time>
      </trkpt>
      <trkpt lat="47.01025" lon="8.87402">
        <ele>1402</ele>
        <time>2021-08-03T10:41:39.865Z</time>
      </trkpt>
      <trkpt lat="47.01027" lon="8.87406">
        <ele>1401</ele>
        <time>2021-08-03T10:41:40.866Z</time>
      </trkpt>
      <trkpt lat="47.01026" lon="8.87407">
        <ele>1401</ele>
        <time>2021-08-03T10:41:41.866Z</time>
      </trkpt>
      <trkpt lat="47.01026" lon="8.87406">
        <ele>1402</ele>
        <time>2021-08-03T10:41:42.866Z</time>
      </trkpt>
      <trkpt lat="47.01025" lon="8.87406">
        <ele>1402</ele>
        <time>2021-08-03T10:41:43.866Z</time>
      </trkpt>
      <trkpt lat="47.01024" lon="8.87409">
        <ele>1411</ele>
        <time>2021-08-03T10:41:44.866Z</time>
      </trkpt>
      <trkpt lat="47.01024" lon="8.87409">
        <ele>1414</ele>
        <time>2021-08-03T10:41:45.866Z</time>
      </trkpt>
      <trkpt lat="47.01024" lon="8.8741">
        <ele>1416</ele>
        <time>2021-08-03T10:41:46.867Z</time>
      </trkpt>
      <trkpt lat="47.01024" lon="8.8741">
        <ele>1415</ele>
        <time>2021-08-03T10:41:47.867Z</time>
      </trkpt>
      <trkpt lat="47.01024" lon="8.87411">
        <ele>1415</ele>
        <time>2021-08-03T10:41:48.866Z</time>
      </trkpt>
      <trkpt lat="47.01024" lon="8.87411">
        <ele>1414</ele>
        <time>2021-08-03T10:41:49.867Z</time>
      </trkpt>
      <trkpt lat="47.01023" lon="8.87412">
        <ele>1414</ele>
        <time>2021-08-03T10:41:50.866Z</time>
      </trkpt>
      <trkpt lat="47.01022" lon="8.87413">
        <ele>1413</ele>
        <time>2021-08-03T10:41:51.867Z</time>
      </trkpt>
      <trkpt lat="47.01022" lon="8.87413">
        <ele>1412</ele>
        <time>2021-08-03T10:41:52.867Z</time>
      </trkpt>
      <trkpt lat="47.01023" lon="8.87412">
        <ele>1412</ele>
        <time>2021-08-03T10:41:53.866Z</time>
      </trkpt>
      <trkpt lat="47.01023" lon="8.87411">
        <ele>1411</ele>
        <time>2021-08-03T10:41:54.866Z</time>
      </trkpt>
      <trkpt lat="47.01023" lon="8.87409">
        <ele>1410</ele>
        <time>2021-08-03T10:41:55.867Z</time>
      </trkpt>
      <trkpt lat="47.01023" lon="8.87408">
        <ele>1410</ele>
        <time>2021-08-03T10:41:56.866Z</time>
      </trkpt>
      <trkpt lat="47.01024" lon="8.87408">
        <ele>1409</ele>
        <time>2021-08-03T10:41:57.866Z</time>
      </trkpt>
      <trkpt lat="47.01024" lon="8.87404">
        <ele>1395</ele>
        <time>2021-08-03T10:41:58.867Z</time>
      </trkpt>
      <trkpt lat="47.01023" lon="8.87404">
        <ele>1394</ele>
        <time>2021-08-03T10:41:59.866Z</time>
      </trkpt>
      <trkpt lat="47.01027" lon="8.87408">
        <ele>1407</ele>
        <time>2021-08-03T10:42:00.866Z</time>
      </trkpt>
      <trkpt lat="47.01026" lon="8.87408">
        <ele>1407</ele>
        <time>2021-08-03T10:42:01.866Z</time>
      </trkpt>
      <trkpt lat="47.01025" lon="8.87409">
        <ele>1406</ele>
        <time>2021-08-03T10:42:02.867Z</time>
      </trkpt>
      <trkpt lat="47.01025" lon="8.87409">
        <ele>1406</ele>
        <time>2021-08-03T10:42:03.867Z</time>
      </trkpt>
      <trkpt lat="47.01026" lon="8.87409">
        <ele>1406</ele>
        <time>2021-08-03T10:42:04.867Z</time>
      </trkpt>
      <trkpt lat="47.01026" lon="8.87402">
        <ele>1393</ele>
        <time>2021-08-03T10:42:05.868Z</time>
      </trkpt>
      <trkpt lat="47.01025" lon="8.87403">
        <ele>1393</ele>
        <time>2021-08-03T10:42:06.867Z</time>
      </trkpt>
      <trkpt lat="47.01026" lon="8.87404">
        <ele>1393</ele>
        <time>2021-08-03T10:42:07.868Z</time>
      </trkpt>
      <trkpt lat="47.01026" lon="8.87403">
        <ele>1393</ele>
        <time>2021-08-03T10:42:08.867Z</time>
      </trkpt>
      <trkpt lat="47.01029" lon="8.87398">
        <ele>1400</ele>
        <time>2021-08-03T10:42:09.868Z</time>
      </trkpt>
      <trkpt lat="47.01029" lon="8.87397">
        <ele>1397</ele>
        <time>2021-08-03T10:42:10.867Z</time>
      </trkpt>
      <trkpt lat="47.0103" lon="8.87398">
        <ele>1397</ele>
        <time>2021-08-03T10:42:11.867Z</time>
      </trkpt>
      <trkpt lat="47.01031" lon="8.874">
        <ele>1392</ele>
        <time>2021-08-03T10:42:12.867Z</time>
      </trkpt>
      <trkpt lat="47.01031" lon="8.874">
        <ele>1392</ele>
        <time>2021-08-03T10:42:13.868Z</time>
      </trkpt>
      <trkpt lat="47.0103" lon="8.874">
        <ele>1392</ele>
        <time>2021-08-03T10:42:14.868Z</time>
      </trkpt>
      <trkpt lat="47.01031" lon="8.87401">
        <ele>1392</ele>
        <time>2021-08-03T10:42:15.868Z</time>
      </trkpt>
      <trkpt lat="47.01031" lon="8.87402">
        <ele>1393</ele>
        <time>2021-08-03T10:42:16.868Z</time>
      </trkpt>
      <trkpt lat="47.01029" lon="8.87402">
        <ele>1394</ele>
        <time>2021-08-03T10:42:17.869Z</time>
      </trkpt>
      <trkpt lat="47.01029" lon="8.874">
        <ele>1398</ele>
        <time>2021-08-03T10:42:18.870Z</time>
      </trkpt>
      <trkpt lat="47.01028" lon="8.87398">
        <ele>1396</ele>
        <time>2021-08-03T10:42:19.871Z</time>
      </trkpt>
      <trkpt lat="47.01028" lon="8.87398">
        <ele>1396</ele>
        <time>2021-08-03T10:42:20.870Z</time>
      </trkpt>
      <trkpt lat="47.01028" lon="8.87397">
        <ele>1397</ele>
        <time>2021-08-03T10:42:21.870Z</time>
      </trkpt>
      <trkpt lat="47.01027" lon="8.87396">
        <ele>1398</ele>
        <time>2021-08-03T10:42:22.871Z</time>
      </trkpt>
      <trkpt lat="47.01027" lon="8.87396">
        <ele>1399</ele>
        <time>2021-08-03T10:42:23.872Z</time>
      </trkpt>
      <trkpt lat="47.01027" lon="8.87397">
        <ele>1400</ele>
        <time>2021-08-03T10:42:24.871Z</time>
      </trkpt>
      <trkpt lat="47.01027" lon="8.87397">
        <ele>1400</ele>
        <time>2021-08-03T10:42:25.871Z</time>
      </trkpt>
      <trkpt lat="47.01027" lon="8.87397">
        <ele>1401</ele>
        <time>2021-08-03T10:42:26.871Z</time>
      </trkpt>
      <trkpt lat="47.01026" lon="8.87397">
        <ele>1401</ele>
        <time>2021-08-03T10:42:27.872Z</time>
      </trkpt>
      <trkpt lat="47.01027" lon="8.87397">
        <ele>1400</ele>
        <time>2021-08-03T10:42:28.871Z</time>
      </trkpt>
      <trkpt lat="47.01026" lon="8.87397">
        <ele>1400</ele>
        <time>2021-08-03T10:42:29.872Z</time>
      </trkpt>
      <trkpt lat="47.01026" lon="8.87397">
        <ele>1400</ele>
        <time>2021-08-03T10:42:30.871Z</time>
      </trkpt>
      <trkpt lat="47.01026" lon="8.87398">
        <ele>1400</ele>
        <time>2021-08-03T10:42:31.872Z</time>
      </trkpt>
      <trkpt lat="47.01026" lon="8.87398">
        <ele>1400</ele>
        <time>2021-08-03T10:42:32.871Z</time>
      </trkpt>
      <trkpt lat="47.01026" lon="8.87398">
        <ele>1400</ele>
        <time>2021-08-03T10:42:33.872Z</time>
      </trkpt>
      <trkpt lat="47.01028" lon="8.87394">
        <ele>1397</ele>
        <time>2021-08-03T10:42:34.871Z</time>
      </trkpt>
      <trkpt lat="47.01028" lon="8.87395">
        <ele>1396</ele>
        <time>2021-08-03T10:42:35.871Z</time>
      </trkpt>
      <trkpt lat="47.01029" lon="8.87395">
        <ele>1396</ele>
        <time>2021-08-03T10:42:36.872Z</time>
      </trkpt>
      <trkpt lat="47.01029" lon="8.87396">
        <ele>1395</ele>
        <time>2021-08-03T10:42:37.871Z</time>
      </trkpt>
      <trkpt lat="47.0103" lon="8.87396">
        <ele>1395</ele>
        <time>2021-08-03T10:42:38.872Z</time>
      </trkpt>
      <trkpt lat="47.0103" lon="8.87396">
        <ele>1394</ele>
        <time>2021-08-03T10:42:39.871Z</time>
      </trkpt>
      <trkpt lat="47.01031" lon="8.87397">
        <ele>1393</ele>
        <time>2021-08-03T10:42:40.872Z</time>
      </trkpt>
      <trkpt lat="47.01031" lon="8.87397">
        <ele>1393</ele>
        <time>2021-08-03T10:42:41.872Z</time>
      </trkpt>
      <trkpt lat="47.0103" lon="8.87396">
        <ele>1392</ele>
        <time>2021-08-03T10:42:42.872Z</time>
      </trkpt>
      <trkpt lat="47.0103" lon="8.87396">
        <ele>1392</ele>
        <time>2021-08-03T10:42:43.871Z</time>
      </trkpt>
      <trkpt lat="47.01033" lon="8.874">
        <ele>1398</ele>
        <time>2021-08-03T10:42:44.871Z</time>
      </trkpt>
      <trkpt lat="47.01034" lon="8.87401">
        <ele>1400</ele>
        <time>2021-08-03T10:42:45.871Z</time>
      </trkpt>
      <trkpt lat="47.01035" lon="8.87401">
        <ele>1402</ele>
        <time>2021-08-03T10:42:46.871Z</time>
      </trkpt>
      <trkpt lat="47.01034" lon="8.87401">
        <ele>1404</ele>
        <time>2021-08-03T10:42:47.871Z</time>
      </trkpt>
      <trkpt lat="47.01034" lon="8.87401">
        <ele>1406</ele>
        <time>2021-08-03T10:42:48.871Z</time>
      </trkpt>
      <trkpt lat="47.01035" lon="8.87402">
        <ele>1413</ele>
        <time>2021-08-03T10:42:49.872Z</time>
      </trkpt>
      <trkpt lat="47.01035" lon="8.87402">
        <ele>1413</ele>
        <time>2021-08-03T10:42:50.871Z</time>
      </trkpt>
      <trkpt lat="47.01034" lon="8.87402">
        <ele>1413</ele>
        <time>2021-08-03T10:42:51.872Z</time>
      </trkpt>
      <trkpt lat="47.01029" lon="8.87402">
        <ele>1403</ele>
        <time>2021-08-03T10:42:52.871Z</time>
      </trkpt>
      <trkpt lat="47.01027" lon="8.87402">
        <ele>1403</ele>
        <time>2021-08-03T10:43:13.960Z</time>
      </trkpt>
      <trkpt lat="47.01026" lon="8.87401">
        <ele>1403</ele>
        <time>2021-08-03T10:43:14.959Z</time>
      </trkpt>
      <trkpt lat="47.01026" lon="8.87401">
        <ele>1403</ele>
        <time>2021-08-03T10:43:20.838Z</time>
      </trkpt>
      <trkpt lat="47.01025" lon="8.87401">
        <ele>1403</ele>
        <time>2021-08-03T10:43:21.839Z</time>
      </trkpt>
      <trkpt lat="47.01025" lon="8.87401">
        <ele>1402</ele>
        <time>2021-08-03T10:43:22.838Z</time>
      </trkpt>
      <trkpt lat="47.01024" lon="8.87402">
        <ele>1402</ele>
        <time>2021-08-03T10:43:27.989Z</time>
      </trkpt>
      <trkpt lat="47.01024" lon="8.87403">
        <ele>1402</ele>
        <time>2021-08-03T10:43:28.990Z</time>
      </trkpt>
      <trkpt lat="47.01021" lon="8.87401">
        <ele>1400</ele>
        <time>2021-08-03T10:43:29.990Z</time>
      </trkpt>
      <trkpt lat="47.01021" lon="8.874">
        <ele>1399</ele>
        <time>2021-08-03T10:43:30.990Z</time>
      </trkpt>
      <trkpt lat="47.0102" lon="8.874">
        <ele>1397</ele>
        <time>2021-08-03T10:43:43.117Z</time>
      </trkpt>
      <trkpt lat="47.0102" lon="8.87399">
        <ele>1397</ele>
        <time>2021-08-03T10:43:53.969Z</time>
      </trkpt>
      <trkpt lat="47.0102" lon="8.87398">
        <ele>1396</ele>
        <time>2021-08-03T10:43:54.968Z</time>
      </trkpt>
      <trkpt lat="47.0102" lon="8.87398">
        <ele>1395</ele>
        <time>2021-08-03T10:43:55.969Z</time>
      </trkpt>
      <trkpt lat="47.0102" lon="8.87397">
        <ele>1395</ele>
        <time>2021-08-03T10:43:56.969Z</time>
      </trkpt>
      <trkpt lat="47.0102" lon="8.87396">
        <ele>1394</ele>
        <time>2021-08-03T10:43:57.968Z</time>
      </trkpt>
      <trkpt lat="47.0102" lon="8.87396">
        <ele>1394</ele>
        <time>2021-08-03T10:44:02.989Z</time>
      </trkpt>
      <trkpt lat="47.0102" lon="8.87395">
        <ele>1393</ele>
        <time>2021-08-03T10:44:03.989Z</time>
      </trkpt>
      <trkpt lat="47.0102" lon="8.87394">
        <ele>1392</ele>
        <time>2021-08-03T10:44:04.989Z</time>
      </trkpt>
      <trkpt lat="47.0102" lon="8.87393">
        <ele>1392</ele>
        <time>2021-08-03T10:44:05.989Z</time>
      </trkpt>
      <trkpt lat="47.0102" lon="8.87392">
        <ele>1391</ele>
        <time>2021-08-03T10:44:06.989Z</time>
      </trkpt>
      <trkpt lat="47.0102" lon="8.87392">
        <ele>1391</ele>
        <time>2021-08-03T10:44:07.989Z</time>
      </trkpt>
      <trkpt lat="47.01019" lon="8.87391">
        <ele>1391</ele>
        <time>2021-08-03T10:44:08.990Z</time>
      </trkpt>
      <trkpt lat="47.01019" lon="8.87391">
        <ele>1391</ele>
        <time>2021-08-03T10:44:09.989Z</time>
      </trkpt>
      <trkpt lat="47.01018" lon="8.8739">
        <ele>1391</ele>
        <time>2021-08-03T10:44:10.990Z</time>
      </trkpt>
      <trkpt lat="47.01018" lon="8.8739">
        <ele>1390</ele>
        <time>2021-08-03T10:44:11.990Z</time>
      </trkpt>
      <trkpt lat="47.01017" lon="8.8739">
        <ele>1391</ele>
        <time>2021-08-03T10:44:12.990Z</time>
      </trkpt>
      <trkpt lat="47.01017" lon="8.87389">
        <ele>1391</ele>
        <time>2021-08-03T10:44:13.990Z</time>
      </trkpt>
      <trkpt lat="47.01016" lon="8.87389">
        <ele>1390</ele>
        <time>2021-08-03T10:44:14.990Z</time>
      </trkpt>
      <trkpt lat="47.01016" lon="8.87388">
        <ele>1390</ele>
        <time>2021-08-03T10:44:31.130Z</time>
      </trkpt>
      <trkpt lat="47.01016" lon="8.87388">
        <ele>1390</ele>
        <time>2021-08-03T10:44:32.130Z</time>
      </trkpt>
      <trkpt lat="47.01015" lon="8.87387">
        <ele>1391</ele>
        <time>2021-08-03T10:44:33.130Z</time>
      </trkpt>
      <trkpt lat="47.01015" lon="8.87386">
        <ele>1391</ele>
        <time>2021-08-03T10:44:34.130Z</time>
      </trkpt>
      <trkpt lat="47.01014" lon="8.87385">
        <ele>1391</ele>
        <time>2021-08-03T10:44:35.130Z</time>
      </trkpt>
      <trkpt lat="47.01013" lon="8.87384">
        <ele>1391</ele>
        <time>2021-08-03T10:44:36.130Z</time>
      </trkpt>
      <trkpt lat="47.01012" lon="8.87384">
        <ele>1392</ele>
        <time>2021-08-03T10:44:37.129Z</time>
      </trkpt>
      <trkpt lat="47.01011" lon="8.87384">
        <ele>1392</ele>
        <time>2021-08-03T10:44:38.129Z</time>
      </trkpt>
      <trkpt lat="47.01011" lon="8.87384">
        <ele>1392</ele>
        <time>2021-08-03T10:44:39.130Z</time>
      </trkpt>
      <trkpt lat="47.0101" lon="8.87384">
        <ele>1392</ele>
        <time>2021-08-03T10:44:40.129Z</time>
      </trkpt>
      <trkpt lat="47.0101" lon="8.87384">
        <ele>1393</ele>
        <time>2021-08-03T10:44:41.130Z</time>
      </trkpt>
      <trkpt lat="47.01009" lon="8.87383">
        <ele>1393</ele>
        <time>2021-08-03T10:44:42.130Z</time>
      </trkpt>
      <trkpt lat="47.01009" lon="8.87383">
        <ele>1393</ele>
        <time>2021-08-03T10:44:43.130Z</time>
      </trkpt>
      <trkpt lat="47.01009" lon="8.87383">
        <ele>1394</ele>
        <time>2021-08-03T10:44:44.129Z</time>
      </trkpt>
      <trkpt lat="47.01008" lon="8.87382">
        <ele>1394</ele>
        <time>2021-08-03T10:44:45.130Z</time>
      </trkpt>
      <trkpt lat="47.01008" lon="8.87381">
        <ele>1394</ele>
        <time>2021-08-03T10:44:46.130Z</time>
      </trkpt>
      <trkpt lat="47.01007" lon="8.87381">
        <ele>1394</ele>
        <time>2021-08-03T10:44:47.129Z</time>
      </trkpt>
      <trkpt lat="47.01007" lon="8.87381">
        <ele>1394</ele>
        <time>2021-08-03T10:44:48.130Z</time>
      </trkpt>
      <trkpt lat="47.01007" lon="8.87381">
        <ele>1394</ele>
        <time>2021-08-03T10:44:49.129Z</time>
      </trkpt>
      <trkpt lat="47.01006" lon="8.87381">
        <ele>1394</ele>
        <time>2021-08-03T10:44:50.130Z</time>
      </trkpt>
      <trkpt lat="47.01005" lon="8.87381">
        <ele>1394</ele>
        <time>2021-08-03T10:44:51.130Z</time>
      </trkpt>
      <trkpt lat="47.01005" lon="8.87381">
        <ele>1394</ele>
        <time>2021-08-03T10:44:52.130Z</time>
      </trkpt>
      <trkpt lat="47.01005" lon="8.87381">
        <ele>1395</ele>
        <time>2021-08-03T10:44:53.129Z</time>
      </trkpt>
      <trkpt lat="47.01005" lon="8.87381">
        <ele>1395</ele>
        <time>2021-08-03T10:44:54.130Z</time>
      </trkpt>
      <trkpt lat="47.01005" lon="8.87385">
        <ele>1394</ele>
        <time>2021-08-03T10:44:55.131Z</time>
      </trkpt>
      <trkpt lat="47.01005" lon="8.87384">
        <ele>1394</ele>
        <time>2021-08-03T10:44:56.130Z</time>
      </trkpt>
      <trkpt lat="47.01004" lon="8.87383">
        <ele>1395</ele>
        <time>2021-08-03T10:44:57.131Z</time>
      </trkpt>
      <trkpt lat="47.01004" lon="8.87383">
        <ele>1395</ele>
        <time>2021-08-03T10:44:58.131Z</time>
      </trkpt>
      <trkpt lat="47.01003" lon="8.87383">
        <ele>1396</ele>
        <time>2021-08-03T10:44:59.131Z</time>
      </trkpt>
      <trkpt lat="47.01003" lon="8.87382">
        <ele>1396</ele>
        <time>2021-08-03T10:45:00.131Z</time>
      </trkpt>
      <trkpt lat="47.01002" lon="8.87382">
        <ele>1396</ele>
        <time>2021-08-03T10:45:01.130Z</time>
      </trkpt>
      <trkpt lat="47.01002" lon="8.87381">
        <ele>1396</ele>
        <time>2021-08-03T10:45:02.130Z</time>
      </trkpt>
      <trkpt lat="47.01001" lon="8.8738">
        <ele>1397</ele>
        <time>2021-08-03T10:45:03.130Z</time>
      </trkpt>
      <trkpt lat="47.01" lon="8.8738">
        <ele>1397</ele>
        <time>2021-08-03T10:45:04.130Z</time>
      </trkpt>
      <trkpt lat="47.01" lon="8.8738">
        <ele>1398</ele>
        <time>2021-08-03T10:45:05.130Z</time>
      </trkpt>
      <trkpt lat="47.00999" lon="8.87379">
        <ele>1398</ele>
        <time>2021-08-03T10:45:06.130Z</time>
      </trkpt>
      <trkpt lat="47.00999" lon="8.87379">
        <ele>1399</ele>
        <time>2021-08-03T10:45:07.130Z</time>
      </trkpt>
      <trkpt lat="47.00998" lon="8.87378">
        <ele>1399</ele>
        <time>2021-08-03T10:45:08.130Z</time>
      </trkpt>
      <trkpt lat="47.00998" lon="8.87378">
        <ele>1399</ele>
        <time>2021-08-03T10:45:09.130Z</time>
      </trkpt>
      <trkpt lat="47.00997" lon="8.87378">
        <ele>1399</ele>
        <time>2021-08-03T10:45:10.130Z</time>
      </trkpt>
      <trkpt lat="47.00996" lon="8.87378">
        <ele>1399</ele>
        <time>2021-08-03T10:45:11.130Z</time>
      </trkpt>
      <trkpt lat="47.00996" lon="8.87378">
        <ele>1399</ele>
        <time>2021-08-03T10:45:12.131Z</time>
      </trkpt>
      <trkpt lat="47.00996" lon="8.87378">
        <ele>1399</ele>
        <time>2021-08-03T10:45:13.130Z</time>
      </trkpt>
      <trkpt lat="47.00995" lon="8.87376">
        <ele>1398</ele>
        <time>2021-08-03T10:45:14.131Z</time>
      </trkpt>
      <trkpt lat="47.00996" lon="8.87376">
        <ele>1397</ele>
        <time>2021-08-03T10:45:15.130Z</time>
      </trkpt>
      <trkpt lat="47.00997" lon="8.87375">
        <ele>1397</ele>
        <time>2021-08-03T10:45:16.130Z</time>
      </trkpt>
      <trkpt lat="47.00997" lon="8.87375">
        <ele>1396</ele>
        <time>2021-08-03T10:45:17.130Z</time>
      </trkpt>
      <trkpt lat="47.00997" lon="8.87375">
        <ele>1396</ele>
        <time>2021-08-03T10:45:18.131Z</time>
      </trkpt>
      <trkpt lat="47.00997" lon="8.87374">
        <ele>1395</ele>
        <time>2021-08-03T10:45:19.131Z</time>
      </trkpt>
      <trkpt lat="47.00997" lon="8.87372">
        <ele>1395</ele>
        <time>2021-08-03T10:45:20.131Z</time>
      </trkpt>
      <trkpt lat="47.00997" lon="8.87371">
        <ele>1394</ele>
        <time>2021-08-03T10:45:21.131Z</time>
      </trkpt>
      <trkpt lat="47.00997" lon="8.8737">
        <ele>1394</ele>
        <time>2021-08-03T10:45:22.131Z</time>
      </trkpt>
      <trkpt lat="47.00997" lon="8.87369">
        <ele>1394</ele>
        <time>2021-08-03T10:45:23.130Z</time>
      </trkpt>
      <trkpt lat="47.00996" lon="8.87369">
        <ele>1394</ele>
        <time>2021-08-03T10:45:24.131Z</time>
      </trkpt>
      <trkpt lat="47.00995" lon="8.87369">
        <ele>1395</ele>
        <time>2021-08-03T10:45:25.131Z</time>
      </trkpt>
      <trkpt lat="47.00994" lon="8.87369">
        <ele>1396</ele>
        <time>2021-08-03T10:45:26.131Z</time>
      </trkpt>
      <trkpt lat="47.00993" lon="8.87369">
        <ele>1396</ele>
        <time>2021-08-03T10:45:27.131Z</time>
      </trkpt>
      <trkpt lat="47.00992" lon="8.87369">
        <ele>1397</ele>
        <time>2021-08-03T10:45:28.130Z</time>
      </trkpt>
      <trkpt lat="47.00991" lon="8.87368">
        <ele>1398</ele>
        <time>2021-08-03T10:45:29.131Z</time>
      </trkpt>
      <trkpt lat="47.00991" lon="8.87367">
        <ele>1398</ele>
        <time>2021-08-03T10:45:30.130Z</time>
      </trkpt>
      <trkpt lat="47.00991" lon="8.87366">
        <ele>1398</ele>
        <time>2021-08-03T10:45:31.131Z</time>
      </trkpt>
      <trkpt lat="47.00991" lon="8.87366">
        <ele>1397</ele>
        <time>2021-08-03T10:45:32.130Z</time>
      </trkpt>
      <trkpt lat="47.0099" lon="8.87365">
        <ele>1397</ele>
        <time>2021-08-03T10:45:33.131Z</time>
      </trkpt>
      <trkpt lat="47.0099" lon="8.87364">
        <ele>1396</ele>
        <time>2021-08-03T10:45:34.131Z</time>
      </trkpt>
      <trkpt lat="47.0099" lon="8.87363">
        <ele>1396</ele>
        <time>2021-08-03T10:45:35.130Z</time>
      </trkpt>
      <trkpt lat="47.0099" lon="8.87362">
        <ele>1395</ele>
        <time>2021-08-03T10:45:36.130Z</time>
      </trkpt>
      <trkpt lat="47.0099" lon="8.87362">
        <ele>1394</ele>
        <time>2021-08-03T10:45:37.130Z</time>
      </trkpt>
      <trkpt lat="47.00989" lon="8.87361">
        <ele>1394</ele>
        <time>2021-08-03T10:45:38.131Z</time>
      </trkpt>
      <trkpt lat="47.00989" lon="8.8736">
        <ele>1394</ele>
        <time>2021-08-03T10:45:39.131Z</time>
      </trkpt>
      <trkpt lat="47.00988" lon="8.87359">
        <ele>1394</ele>
        <time>2021-08-03T10:45:40.131Z</time>
      </trkpt>
      <trkpt lat="47.00988" lon="8.87358">
        <ele>1394</ele>
        <time>2021-08-03T10:45:41.130Z</time>
      </trkpt>
      <trkpt lat="47.00987" lon="8.87357">
        <ele>1394</ele>
        <time>2021-08-03T10:45:42.131Z</time>
      </trkpt>
      <trkpt lat="47.00986" lon="8.87356">
        <ele>1394</ele>
        <time>2021-08-03T10:45:43.131Z</time>
      </trkpt>
      <trkpt lat="47.00985" lon="8.87356">
        <ele>1395</ele>
        <time>2021-08-03T10:45:44.131Z</time>
      </trkpt>
      <trkpt lat="47.00984" lon="8.87355">
        <ele>1395</ele>
        <time>2021-08-03T10:45:45.130Z</time>
      </trkpt>
      <trkpt lat="47.00984" lon="8.87355">
        <ele>1396</ele>
        <time>2021-08-03T10:45:46.131Z</time>
      </trkpt>
      <trkpt lat="47.00983" lon="8.87355">
        <ele>1397</ele>
        <time>2021-08-03T10:45:47.130Z</time>
      </trkpt>
      <trkpt lat="47.00982" lon="8.87355">
        <ele>1399</ele>
        <time>2021-08-03T10:45:48.130Z</time>
      </trkpt>
      <trkpt lat="47.00981" lon="8.87356">
        <ele>1400</ele>
        <time>2021-08-03T10:45:49.131Z</time>
      </trkpt>
      <trkpt lat="47.00981" lon="8.87356">
        <ele>1402</ele>
        <time>2021-08-03T10:45:50.131Z</time>
      </trkpt>
      <trkpt lat="47.00981" lon="8.87356">
        <ele>1403</ele>
        <time>2021-08-03T10:45:51.131Z</time>
      </trkpt>
      <trkpt lat="47.00981" lon="8.87355">
        <ele>1404</ele>
        <time>2021-08-03T10:45:52.131Z</time>
      </trkpt>
      <trkpt lat="47.00982" lon="8.87355">
        <ele>1405</ele>
        <time>2021-08-03T10:45:53.131Z</time>
      </trkpt>
      <trkpt lat="47.00982" lon="8.87355">
        <ele>1406</ele>
        <time>2021-08-03T10:45:54.131Z</time>
      </trkpt>
      <trkpt lat="47.00981" lon="8.87354">
        <ele>1406</ele>
        <time>2021-08-03T10:45:55.131Z</time>
      </trkpt>
      <trkpt lat="47.00981" lon="8.87353">
        <ele>1406</ele>
        <time>2021-08-03T10:45:56.130Z</time>
      </trkpt>
      <trkpt lat="47.00981" lon="8.87353">
        <ele>1406</ele>
        <time>2021-08-03T10:45:57.131Z</time>
      </trkpt>
      <trkpt lat="47.00981" lon="8.87353">
        <ele>1406</ele>
        <time>2021-08-03T10:45:58.131Z</time>
      </trkpt>
      <trkpt lat="47.00981" lon="8.87353">
        <ele>1406</ele>
        <time>2021-08-03T10:45:59.131Z</time>
      </trkpt>
      <trkpt lat="47.0098" lon="8.8735">
        <ele>1407</ele>
        <time>2021-08-03T10:46:00.132Z</time>
      </trkpt>
      <trkpt lat="47.00981" lon="8.8735">
        <ele>1408</ele>
        <time>2021-08-03T10:46:01.131Z</time>
      </trkpt>
      <trkpt lat="47.00981" lon="8.87349">
        <ele>1408</ele>
        <time>2021-08-03T10:46:02.132Z</time>
      </trkpt>
      <trkpt lat="47.00982" lon="8.87349">
        <ele>1407</ele>
        <time>2021-08-03T10:46:03.132Z</time>
      </trkpt>
      <trkpt lat="47.00982" lon="8.87348">
        <ele>1406</ele>
        <time>2021-08-03T10:46:04.132Z</time>
      </trkpt>
      <trkpt lat="47.00983" lon="8.87347">
        <ele>1405</ele>
        <time>2021-08-03T10:46:05.132Z</time>
      </trkpt>
      <trkpt lat="47.00982" lon="8.87346">
        <ele>1405</ele>
        <time>2021-08-03T10:46:06.132Z</time>
      </trkpt>
      <trkpt lat="47.00982" lon="8.87345">
        <ele>1404</ele>
        <time>2021-08-03T10:46:07.132Z</time>
      </trkpt>
      <trkpt lat="47.00982" lon="8.87345">
        <ele>1404</ele>
        <time>2021-08-03T10:46:08.132Z</time>
      </trkpt>
      <trkpt lat="47.00982" lon="8.87344">
        <ele>1403</ele>
        <time>2021-08-03T10:46:09.132Z</time>
      </trkpt>
      <trkpt lat="47.00981" lon="8.87343">
        <ele>1403</ele>
        <time>2021-08-03T10:46:10.131Z</time>
      </trkpt>
      <trkpt lat="47.0098" lon="8.87342">
        <ele>1403</ele>
        <time>2021-08-03T10:46:11.132Z</time>
      </trkpt>
      <trkpt lat="47.00979" lon="8.87342">
        <ele>1403</ele>
        <time>2021-08-03T10:46:12.132Z</time>
      </trkpt>
      <trkpt lat="47.00978" lon="8.87341">
        <ele>1404</ele>
        <time>2021-08-03T10:46:13.131Z</time>
      </trkpt>
      <trkpt lat="47.00977" lon="8.8734">
        <ele>1404</ele>
        <time>2021-08-03T10:46:14.132Z</time>
      </trkpt>
      <trkpt lat="47.00977" lon="8.8734">
        <ele>1405</ele>
        <time>2021-08-03T10:46:15.132Z</time>
      </trkpt>
      <trkpt lat="47.00977" lon="8.87339">
        <ele>1406</ele>
        <time>2021-08-03T10:46:16.132Z</time>
      </trkpt>
      <trkpt lat="47.00979" lon="8.87338">
        <ele>1410</ele>
        <time>2021-08-03T10:46:17.133Z</time>
      </trkpt>
      <trkpt lat="47.00976" lon="8.87338">
        <ele>1409</ele>
        <time>2021-08-03T10:46:18.133Z</time>
      </trkpt>
      <trkpt lat="47.00975" lon="8.87339">
        <ele>1409</ele>
        <time>2021-08-03T10:46:19.133Z</time>
      </trkpt>
      <trkpt lat="47.00974" lon="8.87338">
        <ele>1410</ele>
        <time>2021-08-03T10:46:21.134Z</time>
      </trkpt>
      <trkpt lat="47.00974" lon="8.87337">
        <ele>1411</ele>
        <time>2021-08-03T10:46:22.135Z</time>
      </trkpt>
      <trkpt lat="47.00974" lon="8.87336">
        <ele>1411</ele>
        <time>2021-08-03T10:46:23.134Z</time>
      </trkpt>
      <trkpt lat="47.00974" lon="8.87335">
        <ele>1412</ele>
        <time>2021-08-03T10:46:24.135Z</time>
      </trkpt>
      <trkpt lat="47.00973" lon="8.87334">
        <ele>1413</ele>
        <time>2021-08-03T10:46:25.135Z</time>
      </trkpt>
      <trkpt lat="47.00973" lon="8.87333">
        <ele>1413</ele>
        <time>2021-08-03T10:46:26.134Z</time>
      </trkpt>
      <trkpt lat="47.00973" lon="8.87332">
        <ele>1414</ele>
        <time>2021-08-03T10:46:27.135Z</time>
      </trkpt>
      <trkpt lat="47.00973" lon="8.87332">
        <ele>1414</ele>
        <time>2021-08-03T10:46:32.245Z</time>
      </trkpt>
      <trkpt lat="47.00973" lon="8.87332">
        <ele>1414</ele>
        <time>2021-08-03T10:46:33.245Z</time>
      </trkpt>
      <trkpt lat="47.00972" lon="8.87332">
        <ele>1413</ele>
        <time>2021-08-03T10:46:34.244Z</time>
      </trkpt>
      <trkpt lat="47.00972" lon="8.87331">
        <ele>1413</ele>
        <time>2021-08-03T10:46:43.376Z</time>
      </trkpt>
      <trkpt lat="47.00972" lon="8.87331">
        <ele>1413</ele>
        <time>2021-08-03T10:46:44.375Z</time>
      </trkpt>
      <trkpt lat="47.00972" lon="8.8733">
        <ele>1413</ele>
        <time>2021-08-03T10:46:45.376Z</time>
      </trkpt>
      <trkpt lat="47.00972" lon="8.8733">
        <ele>1413</ele>
        <time>2021-08-03T10:46:46.376Z</time>
      </trkpt>
      <trkpt lat="47.00972" lon="8.87329">
        <ele>1413</ele>
        <time>2021-08-03T10:46:47.376Z</time>
      </trkpt>
      <trkpt lat="47.00972" lon="8.87329">
        <ele>1413</ele>
        <time>2021-08-03T10:46:48.376Z</time>
      </trkpt>
      <trkpt lat="47.00971" lon="8.87328">
        <ele>1413</ele>
        <time>2021-08-03T10:46:49.376Z</time>
      </trkpt>
      <trkpt lat="47.00971" lon="8.87328">
        <ele>1413</ele>
        <time>2021-08-03T10:46:50.375Z</time>
      </trkpt>
      <trkpt lat="47.00971" lon="8.87328">
        <ele>1413</ele>
        <time>2021-08-03T10:46:51.375Z</time>
      </trkpt>
      <trkpt lat="47.00971" lon="8.87327">
        <ele>1412</ele>
        <time>2021-08-03T10:46:52.376Z</time>
      </trkpt>
      <trkpt lat="47.0097" lon="8.87327">
        <ele>1412</ele>
        <time>2021-08-03T10:46:53.376Z</time>
      </trkpt>
      <trkpt lat="47.0097" lon="8.87326">
        <ele>1412</ele>
        <time>2021-08-03T10:46:54.375Z</time>
      </trkpt>
      <trkpt lat="47.00969" lon="8.87326">
        <ele>1412</ele>
        <time>2021-08-03T10:46:55.376Z</time>
      </trkpt>
      <trkpt lat="47.00969" lon="8.87326">
        <ele>1411</ele>
        <time>2021-08-03T10:46:56.376Z</time>
      </trkpt>
      <trkpt lat="47.00969" lon="8.87325">
        <ele>1411</ele>
        <time>2021-08-03T10:46:57.375Z</time>
      </trkpt>
      <trkpt lat="47.00968" lon="8.87325">
        <ele>1411</ele>
        <time>2021-08-03T10:46:58.376Z</time>
      </trkpt>
      <trkpt lat="47.00968" lon="8.87324">
        <ele>1411</ele>
        <time>2021-08-03T10:46:59.375Z</time>
      </trkpt>
      <trkpt lat="47.00968" lon="8.87324">
        <ele>1412</ele>
        <time>2021-08-03T10:47:00.375Z</time>
      </trkpt>
      <trkpt lat="47.00968" lon="8.87324">
        <ele>1412</ele>
        <time>2021-08-03T10:47:01.376Z</time>
      </trkpt>
      <trkpt lat="47.00967" lon="8.87323">
        <ele>1411</ele>
        <time>2021-08-03T10:47:02.376Z</time>
      </trkpt>
      <trkpt lat="47.00967" lon="8.87322">
        <ele>1411</ele>
        <time>2021-08-03T10:47:03.376Z</time>
      </trkpt>
      <trkpt lat="47.00966" lon="8.87322">
        <ele>1411</ele>
        <time>2021-08-03T10:47:04.376Z</time>
      </trkpt>
      <trkpt lat="47.00966" lon="8.87321">
        <ele>1411</ele>
        <time>2021-08-03T10:47:05.376Z</time>
      </trkpt>
      <trkpt lat="47.00965" lon="8.87321">
        <ele>1410</ele>
        <time>2021-08-03T10:47:06.376Z</time>
      </trkpt>
      <trkpt lat="47.00965" lon="8.8732">
        <ele>1410</ele>
        <time>2021-08-03T10:47:07.376Z</time>
      </trkpt>
      <trkpt lat="47.00964" lon="8.8732">
        <ele>1410</ele>
        <time>2021-08-03T10:47:08.376Z</time>
      </trkpt>
      <trkpt lat="47.00963" lon="8.87319">
        <ele>1410</ele>
        <time>2021-08-03T10:47:09.375Z</time>
      </trkpt>
      <trkpt lat="47.00963" lon="8.87319">
        <ele>1411</ele>
        <time>2021-08-03T10:47:10.375Z</time>
      </trkpt>
      <trkpt lat="47.00962" lon="8.87318">
        <ele>1411</ele>
        <time>2021-08-03T10:47:11.375Z</time>
      </trkpt>
      <trkpt lat="47.00962" lon="8.87318">
        <ele>1411</ele>
        <time>2021-08-03T10:47:12.375Z</time>
      </trkpt>
      <trkpt lat="47.00961" lon="8.87317">
        <ele>1412</ele>
        <time>2021-08-03T10:47:13.375Z</time>
      </trkpt>
      <trkpt lat="47.00961" lon="8.87316">
        <ele>1412</ele>
        <time>2021-08-03T10:47:14.376Z</time>
      </trkpt>
      <trkpt lat="47.00961" lon="8.87316">
        <ele>1413</ele>
        <time>2021-08-03T10:47:15.376Z</time>
      </trkpt>
      <trkpt lat="47.00961" lon="8.87315">
        <ele>1413</ele>
        <time>2021-08-03T10:47:16.376Z</time>
      </trkpt>
      <trkpt lat="47.0096" lon="8.87315">
        <ele>1414</ele>
        <time>2021-08-03T10:47:17.376Z</time>
      </trkpt>
      <trkpt lat="47.0096" lon="8.87315">
        <ele>1414</ele>
        <time>2021-08-03T10:47:18.376Z</time>
      </trkpt>
      <trkpt lat="47.0096" lon="8.87314">
        <ele>1415</ele>
        <time>2021-08-03T10:47:19.376Z</time>
      </trkpt>
      <trkpt lat="47.00959" lon="8.87314">
        <ele>1415</ele>
        <time>2021-08-03T10:47:20.376Z</time>
      </trkpt>
      <trkpt lat="47.00959" lon="8.87314">
        <ele>1415</ele>
        <time>2021-08-03T10:47:21.376Z</time>
      </trkpt>
      <trkpt lat="47.00958" lon="8.87313">
        <ele>1414</ele>
        <time>2021-08-03T10:47:22.376Z</time>
      </trkpt>
      <trkpt lat="47.00958" lon="8.87313">
        <ele>1414</ele>
        <time>2021-08-03T10:47:23.376Z</time>
      </trkpt>
      <trkpt lat="47.00957" lon="8.87313">
        <ele>1413</ele>
        <time>2021-08-03T10:47:24.376Z</time>
      </trkpt>
      <trkpt lat="47.00957" lon="8.87312">
        <ele>1413</ele>
        <time>2021-08-03T10:47:25.376Z</time>
      </trkpt>
      <trkpt lat="47.00957" lon="8.87311">
        <ele>1412</ele>
        <time>2021-08-03T10:47:26.376Z</time>
      </trkpt>
      <trkpt lat="47.00956" lon="8.87311">
        <ele>1412</ele>
        <time>2021-08-03T10:47:27.376Z</time>
      </trkpt>
      <trkpt lat="47.00956" lon="8.8731">
        <ele>1412</ele>
        <time>2021-08-03T10:47:28.376Z</time>
      </trkpt>
      <trkpt lat="47.00956" lon="8.8731">
        <ele>1412</ele>
        <time>2021-08-03T10:47:29.376Z</time>
      </trkpt>
      <trkpt lat="47.00955" lon="8.8731">
        <ele>1412</ele>
        <time>2021-08-03T10:47:30.376Z</time>
      </trkpt>
      <trkpt lat="47.00955" lon="8.87309">
        <ele>1413</ele>
        <time>2021-08-03T10:47:31.376Z</time>
      </trkpt>
      <trkpt lat="47.00955" lon="8.87309">
        <ele>1413</ele>
        <time>2021-08-03T10:47:32.375Z</time>
      </trkpt>
      <trkpt lat="47.00955" lon="8.87309">
        <ele>1413</ele>
        <time>2021-08-03T10:47:33.376Z</time>
      </trkpt>
      <trkpt lat="47.00955" lon="8.87308">
        <ele>1413</ele>
        <time>2021-08-03T10:47:34.376Z</time>
      </trkpt>
      <trkpt lat="47.00954" lon="8.87308">
        <ele>1413</ele>
        <time>2021-08-03T10:47:35.376Z</time>
      </trkpt>
      <trkpt lat="47.00954" lon="8.87307">
        <ele>1415</ele>
        <time>2021-08-03T10:47:36.377Z</time>
      </trkpt>
      <trkpt lat="47.00953" lon="8.87307">
        <ele>1415</ele>
        <time>2021-08-03T10:47:37.376Z</time>
      </trkpt>
      <trkpt lat="47.00953" lon="8.87306">
        <ele>1416</ele>
        <time>2021-08-03T10:47:38.376Z</time>
      </trkpt>
      <trkpt lat="47.00953" lon="8.87306">
        <ele>1416</ele>
        <time>2021-08-03T10:47:39.377Z</time>
      </trkpt>
      <trkpt lat="47.00954" lon="8.87305">
        <ele>1416</ele>
        <time>2021-08-03T10:47:40.377Z</time>
      </trkpt>
      <trkpt lat="47.00954" lon="8.87304">
        <ele>1416</ele>
        <time>2021-08-03T10:47:41.377Z</time>
      </trkpt>
      <trkpt lat="47.00954" lon="8.87303">
        <ele>1416</ele>
        <time>2021-08-03T10:47:42.377Z</time>
      </trkpt>
      <trkpt lat="47.00954" lon="8.87302">
        <ele>1416</ele>
        <time>2021-08-03T10:47:43.377Z</time>
      </trkpt>
      <trkpt lat="47.00954" lon="8.87302">
        <ele>1417</ele>
        <time>2021-08-03T10:47:44.377Z</time>
      </trkpt>
      <trkpt lat="47.00953" lon="8.87302">
        <ele>1417</ele>
        <time>2021-08-03T10:47:45.376Z</time>
      </trkpt>
      <trkpt lat="47.00953" lon="8.87301">
        <ele>1418</ele>
        <time>2021-08-03T10:47:46.377Z</time>
      </trkpt>
      <trkpt lat="47.00953" lon="8.87301">
        <ele>1418</ele>
        <time>2021-08-03T10:47:47.377Z</time>
      </trkpt>
      <trkpt lat="47.00952" lon="8.873">
        <ele>1419</ele>
        <time>2021-08-03T10:47:48.377Z</time>
      </trkpt>
      <trkpt lat="47.00952" lon="8.873">
        <ele>1419</ele>
        <time>2021-08-03T10:47:49.376Z</time>
      </trkpt>
      <trkpt lat="47.00951" lon="8.87299">
        <ele>1419</ele>
        <time>2021-08-03T10:47:50.377Z</time>
      </trkpt>
      <trkpt lat="47.00951" lon="8.87298">
        <ele>1420</ele>
        <time>2021-08-03T10:47:51.376Z</time>
      </trkpt>
      <trkpt lat="47.0095" lon="8.87298">
        <ele>1420</ele>
        <time>2021-08-03T10:47:52.376Z</time>
      </trkpt>
      <trkpt lat="47.00949" lon="8.87298">
        <ele>1420</ele>
        <time>2021-08-03T10:47:53.377Z</time>
      </trkpt>
      <trkpt lat="47.00949" lon="8.87297">
        <ele>1421</ele>
        <time>2021-08-03T10:47:54.377Z</time>
      </trkpt>
      <trkpt lat="47.00948" lon="8.87297">
        <ele>1421</ele>
        <time>2021-08-03T10:47:55.377Z</time>
      </trkpt>
      <trkpt lat="47.00948" lon="8.87297">
        <ele>1422</ele>
        <time>2021-08-03T10:47:56.377Z</time>
      </trkpt>
      <trkpt lat="47.00947" lon="8.87297">
        <ele>1422</ele>
        <time>2021-08-03T10:47:57.377Z</time>
      </trkpt>
      <trkpt lat="47.00947" lon="8.87296">
        <ele>1423</ele>
        <time>2021-08-03T10:47:58.377Z</time>
      </trkpt>
      <trkpt lat="47.00946" lon="8.87296">
        <ele>1424</ele>
        <time>2021-08-03T10:47:59.376Z</time>
      </trkpt>
      <trkpt lat="47.00946" lon="8.87296">
        <ele>1424</ele>
        <time>2021-08-03T10:48:00.376Z</time>
      </trkpt>
      <trkpt lat="47.00946" lon="8.87295">
        <ele>1425</ele>
        <time>2021-08-03T10:48:01.377Z</time>
      </trkpt>
      <trkpt lat="47.00945" lon="8.87295">
        <ele>1425</ele>
        <time>2021-08-03T10:48:02.377Z</time>
      </trkpt>
      <trkpt lat="47.00945" lon="8.87294">
        <ele>1425</ele>
        <time>2021-08-03T10:48:03.377Z</time>
      </trkpt>
      <trkpt lat="47.00945" lon="8.87294">
        <ele>1426</ele>
        <time>2021-08-03T10:48:04.377Z</time>
      </trkpt>
      <trkpt lat="47.00945" lon="8.87294">
        <ele>1426</ele>
        <time>2021-08-03T10:48:05.377Z</time>
      </trkpt>
      <trkpt lat="47.00944" lon="8.87293">
        <ele>1426</ele>
        <time>2021-08-03T10:48:06.377Z</time>
      </trkpt>
      <trkpt lat="47.00944" lon="8.87292">
        <ele>1427</ele>
        <time>2021-08-03T10:48:07.376Z</time>
      </trkpt>
      <trkpt lat="47.00944" lon="8.87291">
        <ele>1426</ele>
        <time>2021-08-03T10:48:08.377Z</time>
      </trkpt>
      <trkpt lat="47.00944" lon="8.87291">
        <ele>1425</ele>
        <time>2021-08-03T10:48:09.377Z</time>
      </trkpt>
      <trkpt lat="47.00943" lon="8.8729">
        <ele>1425</ele>
        <time>2021-08-03T10:48:10.377Z</time>
      </trkpt>
      <trkpt lat="47.00942" lon="8.87289">
        <ele>1424</ele>
        <time>2021-08-03T10:48:11.376Z</time>
      </trkpt>
      <trkpt lat="47.00941" lon="8.87289">
        <ele>1424</ele>
        <time>2021-08-03T10:48:12.376Z</time>
      </trkpt>
      <trkpt lat="47.00941" lon="8.87288">
        <ele>1423</ele>
        <time>2021-08-03T10:48:13.377Z</time>
      </trkpt>
      <trkpt lat="47.00939" lon="8.87286">
        <ele>1423</ele>
        <time>2021-08-03T10:48:14.377Z</time>
      </trkpt>
      <trkpt lat="47.00938" lon="8.87285">
        <ele>1423</ele>
        <time>2021-08-03T10:48:15.376Z</time>
      </trkpt>
      <trkpt lat="47.00937" lon="8.87284">
        <ele>1423</ele>
        <time>2021-08-03T10:48:16.377Z</time>
      </trkpt>
      <trkpt lat="47.00937" lon="8.87284">
        <ele>1423</ele>
        <time>2021-08-03T10:48:17.376Z</time>
      </trkpt>
      <trkpt lat="47.00937" lon="8.87283">
        <ele>1423</ele>
        <time>2021-08-03T10:48:18.376Z</time>
      </trkpt>
      <trkpt lat="47.00937" lon="8.87282">
        <ele>1423</ele>
        <time>2021-08-03T10:48:19.377Z</time>
      </trkpt>
      <trkpt lat="47.00937" lon="8.87281">
        <ele>1424</ele>
        <time>2021-08-03T10:48:20.377Z</time>
      </trkpt>
      <trkpt lat="47.00936" lon="8.8728">
        <ele>1424</ele>
        <time>2021-08-03T10:48:21.377Z</time>
      </trkpt>
      <trkpt lat="47.00935" lon="8.8728">
        <ele>1425</ele>
        <time>2021-08-03T10:48:22.376Z</time>
      </trkpt>
      <trkpt lat="47.00935" lon="8.87279">
        <ele>1425</ele>
        <time>2021-08-03T10:48:23.377Z</time>
      </trkpt>
      <trkpt lat="47.00935" lon="8.87279">
        <ele>1426</ele>
        <time>2021-08-03T10:48:24.377Z</time>
      </trkpt>
      <trkpt lat="47.00934" lon="8.87279">
        <ele>1426</ele>
        <time>2021-08-03T10:48:25.377Z</time>
      </trkpt>
      <trkpt lat="47.00934" lon="8.87279">
        <ele>1426</ele>
        <time>2021-08-03T10:48:26.377Z</time>
      </trkpt>
      <trkpt lat="47.00934" lon="8.87279">
        <ele>1427</ele>
        <time>2021-08-03T10:48:27.377Z</time>
      </trkpt>
      <trkpt lat="47.00933" lon="8.87279">
        <ele>1427</ele>
        <time>2021-08-03T10:48:28.376Z</time>
      </trkpt>
      <trkpt lat="47.00933" lon="8.87278">
        <ele>1428</ele>
        <time>2021-08-03T10:48:29.377Z</time>
      </trkpt>
      <trkpt lat="47.00932" lon="8.87278">
        <ele>1428</ele>
        <time>2021-08-03T10:48:30.376Z</time>
      </trkpt>
      <trkpt lat="47.00932" lon="8.87277">
        <ele>1429</ele>
        <time>2021-08-03T10:48:31.377Z</time>
      </trkpt>
      <trkpt lat="47.00932" lon="8.87277">
        <ele>1429</ele>
        <time>2021-08-03T10:48:32.377Z</time>
      </trkpt>
      <trkpt lat="47.00931" lon="8.87276">
        <ele>1430</ele>
        <time>2021-08-03T10:48:33.376Z</time>
      </trkpt>
      <trkpt lat="47.00931" lon="8.87276">
        <ele>1430</ele>
        <time>2021-08-03T10:48:34.377Z</time>
      </trkpt>
      <trkpt lat="47.00931" lon="8.87276">
        <ele>1430</ele>
        <time>2021-08-03T10:48:35.377Z</time>
      </trkpt>
      <trkpt lat="47.0093" lon="8.87275">
        <ele>1431</ele>
        <time>2021-08-03T10:48:36.377Z</time>
      </trkpt>
      <trkpt lat="47.0093" lon="8.87275">
        <ele>1430</ele>
        <time>2021-08-03T10:48:37.376Z</time>
      </trkpt>
      <trkpt lat="47.0093" lon="8.87274">
        <ele>1430</ele>
        <time>2021-08-03T10:48:38.377Z</time>
      </trkpt>
      <trkpt lat="47.0093" lon="8.87273">
        <ele>1430</ele>
        <time>2021-08-03T10:48:39.377Z</time>
      </trkpt>
      <trkpt lat="47.00929" lon="8.87273">
        <ele>1431</ele>
        <time>2021-08-03T10:48:40.377Z</time>
      </trkpt>
      <trkpt lat="47.00929" lon="8.87272">
        <ele>1431</ele>
        <time>2021-08-03T10:48:41.377Z</time>
      </trkpt>
      <trkpt lat="47.00929" lon="8.87271">
        <ele>1431</ele>
        <time>2021-08-03T10:48:42.377Z</time>
      </trkpt>
      <trkpt lat="47.00928" lon="8.87271">
        <ele>1431</ele>
        <time>2021-08-03T10:48:43.377Z</time>
      </trkpt>
      <trkpt lat="47.00928" lon="8.8727">
        <ele>1432</ele>
        <time>2021-08-03T10:48:44.377Z</time>
      </trkpt>
      <trkpt lat="47.00928" lon="8.87269">
        <ele>1432</ele>
        <time>2021-08-03T10:48:45.377Z</time>
      </trkpt>
      <trkpt lat="47.00927" lon="8.87269">
        <ele>1432</ele>
        <time>2021-08-03T10:48:46.376Z</time>
      </trkpt>
      <trkpt lat="47.00927" lon="8.87268">
        <ele>1433</ele>
        <time>2021-08-03T10:48:47.376Z</time>
      </trkpt>
      <trkpt lat="47.00927" lon="8.87267">
        <ele>1433</ele>
        <time>2021-08-03T10:48:48.376Z</time>
      </trkpt>
      <trkpt lat="47.00927" lon="8.87267">
        <ele>1433</ele>
        <time>2021-08-03T10:48:49.376Z</time>
      </trkpt>
      <trkpt lat="47.00927" lon="8.87266">
        <ele>1434</ele>
        <time>2021-08-03T10:48:50.377Z</time>
      </trkpt>
      <trkpt lat="47.00926" lon="8.87266">
        <ele>1434</ele>
        <time>2021-08-03T10:48:51.377Z</time>
      </trkpt>
      <trkpt lat="47.00926" lon="8.87265">
        <ele>1434</ele>
        <time>2021-08-03T10:48:52.377Z</time>
      </trkpt>
      <trkpt lat="47.00926" lon="8.87264">
        <ele>1434</ele>
        <time>2021-08-03T10:48:53.377Z</time>
      </trkpt>
      <trkpt lat="47.00925" lon="8.87264">
        <ele>1433</ele>
        <time>2021-08-03T10:48:54.377Z</time>
      </trkpt>
      <trkpt lat="47.00925" lon="8.87263">
        <ele>1433</ele>
        <time>2021-08-03T10:48:55.376Z</time>
      </trkpt>
      <trkpt lat="47.00925" lon="8.87262">
        <ele>1433</ele>
        <time>2021-08-03T10:48:56.377Z</time>
      </trkpt>
      <trkpt lat="47.00924" lon="8.87262">
        <ele>1433</ele>
        <time>2021-08-03T10:48:57.377Z</time>
      </trkpt>
      <trkpt lat="47.00924" lon="8.87262">
        <ele>1433</ele>
        <time>2021-08-03T10:48:58.376Z</time>
      </trkpt>
      <trkpt lat="47.00924" lon="8.87261">
        <ele>1432</ele>
        <time>2021-08-03T10:48:59.377Z</time>
      </trkpt>
      <trkpt lat="47.00923" lon="8.8726">
        <ele>1432</ele>
        <time>2021-08-03T10:49:00.377Z</time>
      </trkpt>
      <trkpt lat="47.00922" lon="8.8726">
        <ele>1432</ele>
        <time>2021-08-03T10:49:01.377Z</time>
      </trkpt>
      <trkpt lat="47.00922" lon="8.87259">
        <ele>1432</ele>
        <time>2021-08-03T10:49:02.377Z</time>
      </trkpt>
      <trkpt lat="47.00921" lon="8.87257">
        <ele>1432</ele>
        <time>2021-08-03T10:49:03.376Z</time>
      </trkpt>
      <trkpt lat="47.0092" lon="8.87256">
        <ele>1432</ele>
        <time>2021-08-03T10:49:04.377Z</time>
      </trkpt>
      <trkpt lat="47.0092" lon="8.87255">
        <ele>1432</ele>
        <time>2021-08-03T10:49:05.377Z</time>
      </trkpt>
      <trkpt lat="47.00919" lon="8.87255">
        <ele>1432</ele>
        <time>2021-08-03T10:49:06.377Z</time>
      </trkpt>
      <trkpt lat="47.00919" lon="8.87254">
        <ele>1432</ele>
        <time>2021-08-03T10:49:07.377Z</time>
      </trkpt>
      <trkpt lat="47.00918" lon="8.87253">
        <ele>1432</ele>
        <time>2021-08-03T10:49:08.377Z</time>
      </trkpt>
      <trkpt lat="47.00918" lon="8.87252">
        <ele>1433</ele>
        <time>2021-08-03T10:49:09.377Z</time>
      </trkpt>
      <trkpt lat="47.00917" lon="8.87251">
        <ele>1433</ele>
        <time>2021-08-03T10:49:10.376Z</time>
      </trkpt>
      <trkpt lat="47.00916" lon="8.8725">
        <ele>1434</ele>
        <time>2021-08-03T10:49:11.376Z</time>
      </trkpt>
      <trkpt lat="47.00916" lon="8.8725">
        <ele>1434</ele>
        <time>2021-08-03T10:49:12.377Z</time>
      </trkpt>
      <trkpt lat="47.00916" lon="8.87248">
        <ele>1434</ele>
        <time>2021-08-03T10:49:13.377Z</time>
      </trkpt>
      <trkpt lat="47.00916" lon="8.87247">
        <ele>1435</ele>
        <time>2021-08-03T10:49:14.376Z</time>
      </trkpt>
      <trkpt lat="47.00915" lon="8.87246">
        <ele>1435</ele>
        <time>2021-08-03T10:49:15.377Z</time>
      </trkpt>
      <trkpt lat="47.00915" lon="8.87245">
        <ele>1436</ele>
        <time>2021-08-03T10:49:16.377Z</time>
      </trkpt>
      <trkpt lat="47.00914" lon="8.87244">
        <ele>1436</ele>
        <time>2021-08-03T10:49:17.377Z</time>
      </trkpt>
      <trkpt lat="47.00914" lon="8.87244">
        <ele>1436</ele>
        <time>2021-08-03T10:49:18.377Z</time>
      </trkpt>
      <trkpt lat="47.00913" lon="8.87244">
        <ele>1436</ele>
        <time>2021-08-03T10:49:19.376Z</time>
      </trkpt>
      <trkpt lat="47.00912" lon="8.87243">
        <ele>1436</ele>
        <time>2021-08-03T10:49:20.377Z</time>
      </trkpt>
      <trkpt lat="47.00911" lon="8.87242">
        <ele>1436</ele>
        <time>2021-08-03T10:49:21.377Z</time>
      </trkpt>
      <trkpt lat="47.0091" lon="8.87241">
        <ele>1436</ele>
        <time>2021-08-03T10:49:22.376Z</time>
      </trkpt>
      <trkpt lat="47.0091" lon="8.87241">
        <ele>1437</ele>
        <time>2021-08-03T10:49:23.377Z</time>
      </trkpt>
      <trkpt lat="47.0091" lon="8.8724">
        <ele>1437</ele>
        <time>2021-08-03T10:49:24.377Z</time>
      </trkpt>
      <trkpt lat="47.00909" lon="8.8724">
        <ele>1437</ele>
        <time>2021-08-03T10:49:25.377Z</time>
      </trkpt>
      <trkpt lat="47.00909" lon="8.8724">
        <ele>1437</ele>
        <time>2021-08-03T10:49:26.377Z</time>
      </trkpt>
      <trkpt lat="47.00909" lon="8.8724">
        <ele>1437</ele>
        <time>2021-08-03T10:49:27.377Z</time>
      </trkpt>
      <trkpt lat="47.00908" lon="8.87241">
        <ele>1437</ele>
        <time>2021-08-03T10:49:28.376Z</time>
      </trkpt>
      <trkpt lat="47.00908" lon="8.8724">
        <ele>1437</ele>
        <time>2021-08-03T10:49:29.377Z</time>
      </trkpt>
      <trkpt lat="47.00907" lon="8.87239">
        <ele>1437</ele>
        <time>2021-08-03T10:49:30.377Z</time>
      </trkpt>
      <trkpt lat="47.00907" lon="8.87238">
        <ele>1437</ele>
        <time>2021-08-03T10:49:31.377Z</time>
      </trkpt>
      <trkpt lat="47.00906" lon="8.87238">
        <ele>1437</ele>
        <time>2021-08-03T10:49:32.376Z</time>
      </trkpt>
      <trkpt lat="47.00906" lon="8.87238">
        <ele>1437</ele>
        <time>2021-08-03T10:49:33.376Z</time>
      </trkpt>
      <trkpt lat="47.00903" lon="8.87237">
        <ele>1438</ele>
        <time>2021-08-03T10:49:34.377Z</time>
      </trkpt>
      <trkpt lat="47.00903" lon="8.87237">
        <ele>1438</ele>
        <time>2021-08-03T10:49:35.376Z</time>
      </trkpt>
      <trkpt lat="47.00903" lon="8.87237">
        <ele>1437</ele>
        <time>2021-08-03T10:49:36.376Z</time>
      </trkpt>
      <trkpt lat="47.00902" lon="8.87237">
        <ele>1437</ele>
        <time>2021-08-03T10:49:37.377Z</time>
      </trkpt>
      <trkpt lat="47.00901" lon="8.87237">
        <ele>1437</ele>
        <time>2021-08-03T10:49:38.376Z</time>
      </trkpt>
      <trkpt lat="47.009" lon="8.87236">
        <ele>1437</ele>
        <time>2021-08-03T10:49:39.376Z</time>
      </trkpt>
      <trkpt lat="47.009" lon="8.87236">
        <ele>1437</ele>
        <time>2021-08-03T10:49:40.377Z</time>
      </trkpt>
      <trkpt lat="47.009" lon="8.87235">
        <ele>1437</ele>
        <time>2021-08-03T10:49:41.377Z</time>
      </trkpt>
      <trkpt lat="47.00899" lon="8.87235">
        <ele>1437</ele>
        <time>2021-08-03T10:49:42.377Z</time>
      </trkpt>
      <trkpt lat="47.00899" lon="8.87234">
        <ele>1438</ele>
        <time>2021-08-03T10:49:43.376Z</time>
      </trkpt>
      <trkpt lat="47.00898" lon="8.87233">
        <ele>1438</ele>
        <time>2021-08-03T10:49:44.376Z</time>
      </trkpt>
      <trkpt lat="47.00898" lon="8.87233">
        <ele>1438</ele>
        <time>2021-08-03T10:49:45.377Z</time>
      </trkpt>
      <trkpt lat="47.00897" lon="8.87232">
        <ele>1439</ele>
        <time>2021-08-03T10:49:46.376Z</time>
      </trkpt>
      <trkpt lat="47.00897" lon="8.87231">
        <ele>1439</ele>
        <time>2021-08-03T10:49:47.377Z</time>
      </trkpt>
      <trkpt lat="47.00897" lon="8.87231">
        <ele>1439</ele>
        <time>2021-08-03T10:49:48.377Z</time>
      </trkpt>
      <trkpt lat="47.00897" lon="8.8723">
        <ele>1439</ele>
        <time>2021-08-03T10:49:49.377Z</time>
      </trkpt>
      <trkpt lat="47.00896" lon="8.87229">
        <ele>1439</ele>
        <time>2021-08-03T10:49:50.377Z</time>
      </trkpt>
      <trkpt lat="47.00896" lon="8.87228">
        <ele>1439</ele>
        <time>2021-08-03T10:49:51.376Z</time>
      </trkpt>
      <trkpt lat="47.00895" lon="8.87228">
        <ele>1439</ele>
        <time>2021-08-03T10:49:52.376Z</time>
      </trkpt>
      <trkpt lat="47.00895" lon="8.87227">
        <ele>1439</ele>
        <time>2021-08-03T10:49:53.377Z</time>
      </trkpt>
      <trkpt lat="47.00894" lon="8.87226">
        <ele>1438</ele>
        <time>2021-08-03T10:49:54.377Z</time>
      </trkpt>
      <trkpt lat="47.00894" lon="8.87226">
        <ele>1438</ele>
        <time>2021-08-03T10:49:55.376Z</time>
      </trkpt>
      <trkpt lat="47.00893" lon="8.87225">
        <ele>1437</ele>
        <time>2021-08-03T10:49:56.377Z</time>
      </trkpt>
      <trkpt lat="47.00892" lon="8.87225">
        <ele>1437</ele>
        <time>2021-08-03T10:49:57.376Z</time>
      </trkpt>
      <trkpt lat="47.00892" lon="8.87224">
        <ele>1436</ele>
        <time>2021-08-03T10:49:58.377Z</time>
      </trkpt>
      <trkpt lat="47.00891" lon="8.87224">
        <ele>1435</ele>
        <time>2021-08-03T10:49:59.377Z</time>
      </trkpt>
      <trkpt lat="47.00891" lon="8.87223">
        <ele>1435</ele>
        <time>2021-08-03T10:50:00.377Z</time>
      </trkpt>
      <trkpt lat="47.0089" lon="8.87223">
        <ele>1434</ele>
        <time>2021-08-03T10:50:01.377Z</time>
      </trkpt>
      <trkpt lat="47.0089" lon="8.87222">
        <ele>1433</ele>
        <time>2021-08-03T10:50:02.376Z</time>
      </trkpt>
      <trkpt lat="47.0089" lon="8.8722">
        <ele>1432</ele>
        <time>2021-08-03T10:50:03.377Z</time>
      </trkpt>
      <trkpt lat="47.00889" lon="8.87219">
        <ele>1432</ele>
        <time>2021-08-03T10:50:04.376Z</time>
      </trkpt>
      <trkpt lat="47.00889" lon="8.87218">
        <ele>1431</ele>
        <time>2021-08-03T10:50:05.377Z</time>
      </trkpt>
      <trkpt lat="47.00888" lon="8.87217">
        <ele>1431</ele>
        <time>2021-08-03T10:50:06.376Z</time>
      </trkpt>
      <trkpt lat="47.00888" lon="8.87216">
        <ele>1431</ele>
        <time>2021-08-03T10:50:07.376Z</time>
      </trkpt>
      <trkpt lat="47.00887" lon="8.87216">
        <ele>1431</ele>
        <time>2021-08-03T10:50:08.377Z</time>
      </trkpt>
      <trkpt lat="47.00887" lon="8.87215">
        <ele>1430</ele>
        <time>2021-08-03T10:50:09.376Z</time>
      </trkpt>
      <trkpt lat="47.00886" lon="8.87214">
        <ele>1430</ele>
        <time>2021-08-03T10:50:10.377Z</time>
      </trkpt>
      <trkpt lat="47.00886" lon="8.87214">
        <ele>1429</ele>
        <time>2021-08-03T10:50:11.376Z</time>
      </trkpt>
      <trkpt lat="47.00885" lon="8.87213">
        <ele>1429</ele>
        <time>2021-08-03T10:50:12.377Z</time>
      </trkpt>
      <trkpt lat="47.00885" lon="8.87213">
        <ele>1429</ele>
        <time>2021-08-03T10:50:13.377Z</time>
      </trkpt>
      <trkpt lat="47.00884" lon="8.87213">
        <ele>1428</ele>
        <time>2021-08-03T10:50:14.377Z</time>
      </trkpt>
      <trkpt lat="47.00883" lon="8.87213">
        <ele>1428</ele>
        <time>2021-08-03T10:50:21.479Z</time>
      </trkpt>
      <trkpt lat="47.00883" lon="8.87212">
        <ele>1428</ele>
        <time>2021-08-03T10:50:22.480Z</time>
      </trkpt>
      <trkpt lat="47.00882" lon="8.87212">
        <ele>1428</ele>
        <time>2021-08-03T10:50:23.480Z</time>
      </trkpt>
      <trkpt lat="47.00882" lon="8.87211">
        <ele>1428</ele>
        <time>2021-08-03T10:50:24.479Z</time>
      </trkpt>
      <trkpt lat="47.00881" lon="8.8721">
        <ele>1427</ele>
        <time>2021-08-03T10:50:25.480Z</time>
      </trkpt>
      <trkpt lat="47.0088" lon="8.87209">
        <ele>1428</ele>
        <time>2021-08-03T10:50:26.479Z</time>
      </trkpt>
      <trkpt lat="47.0088" lon="8.87208">
        <ele>1429</ele>
        <time>2021-08-03T10:50:27.480Z</time>
      </trkpt>
      <trkpt lat="47.0088" lon="8.87207">
        <ele>1429</ele>
        <time>2021-08-03T10:50:28.480Z</time>
      </trkpt>
      <trkpt lat="47.00879" lon="8.87207">
        <ele>1430</ele>
        <time>2021-08-03T10:50:29.480Z</time>
      </trkpt>
      <trkpt lat="47.00878" lon="8.87206">
        <ele>1431</ele>
        <time>2021-08-03T10:50:30.480Z</time>
      </trkpt>
      <trkpt lat="47.00877" lon="8.87206">
        <ele>1431</ele>
        <time>2021-08-03T10:50:31.480Z</time>
      </trkpt>
      <trkpt lat="47.00876" lon="8.87206">
        <ele>1432</ele>
        <time>2021-08-03T10:50:32.480Z</time>
      </trkpt>
      <trkpt lat="47.00876" lon="8.87205">
        <ele>1432</ele>
        <time>2021-08-03T10:50:33.480Z</time>
      </trkpt>
      <trkpt lat="47.00875" lon="8.87205">
        <ele>1433</ele>
        <time>2021-08-03T10:50:34.480Z</time>
      </trkpt>
      <trkpt lat="47.00874" lon="8.87205">
        <ele>1434</ele>
        <time>2021-08-03T10:50:35.480Z</time>
      </trkpt>
      <trkpt lat="47.00874" lon="8.87205">
        <ele>1434</ele>
        <time>2021-08-03T10:50:36.480Z</time>
      </trkpt>
      <trkpt lat="47.00873" lon="8.87204">
        <ele>1435</ele>
        <time>2021-08-03T10:50:37.480Z</time>
      </trkpt>
      <trkpt lat="47.00873" lon="8.87204">
        <ele>1436</ele>
        <time>2021-08-03T10:50:38.480Z</time>
      </trkpt>
      <trkpt lat="47.00872" lon="8.87203">
        <ele>1436</ele>
        <time>2021-08-03T10:50:39.480Z</time>
      </trkpt>
      <trkpt lat="47.00871" lon="8.87203">
        <ele>1436</ele>
        <time>2021-08-03T10:50:40.480Z</time>
      </trkpt>
      <trkpt lat="47.00871" lon="8.87202">
        <ele>1436</ele>
        <time>2021-08-03T10:50:41.480Z</time>
      </trkpt>
      <trkpt lat="47.00871" lon="8.87201">
        <ele>1436</ele>
        <time>2021-08-03T10:50:42.479Z</time>
      </trkpt>
      <trkpt lat="47.0087" lon="8.872">
        <ele>1436</ele>
        <time>2021-08-03T10:50:43.479Z</time>
      </trkpt>
      <trkpt lat="47.0087" lon="8.872">
        <ele>1436</ele>
        <time>2021-08-03T10:50:44.480Z</time>
      </trkpt>
      <trkpt lat="47.00869" lon="8.87199">
        <ele>1436</ele>
        <time>2021-08-03T10:50:45.480Z</time>
      </trkpt>
      <trkpt lat="47.00869" lon="8.87198">
        <ele>1436</ele>
        <time>2021-08-03T10:50:46.480Z</time>
      </trkpt>
      <trkpt lat="47.00868" lon="8.87198">
        <ele>1437</ele>
        <time>2021-08-03T10:50:47.480Z</time>
      </trkpt>
      <trkpt lat="47.00867" lon="8.87197">
        <ele>1437</ele>
        <time>2021-08-03T10:50:48.480Z</time>
      </trkpt>
      <trkpt lat="47.00867" lon="8.87196">
        <ele>1437</ele>
        <time>2021-08-03T10:50:49.479Z</time>
      </trkpt>
      <trkpt lat="47.00867" lon="8.87196">
        <ele>1438</ele>
        <time>2021-08-03T10:50:50.479Z</time>
      </trkpt>
      <trkpt lat="47.00866" lon="8.87196">
        <ele>1437</ele>
        <time>2021-08-03T10:50:51.479Z</time>
      </trkpt>
      <trkpt lat="47.00866" lon="8.87195">
        <ele>1437</ele>
        <time>2021-08-03T10:50:52.480Z</time>
      </trkpt>
      <trkpt lat="47.00866" lon="8.87195">
        <ele>1437</ele>
        <time>2021-08-03T10:50:53.479Z</time>
      </trkpt>
      <trkpt lat="47.00865" lon="8.87194">
        <ele>1437</ele>
        <time>2021-08-03T10:50:54.480Z</time>
      </trkpt>
      <trkpt lat="47.00865" lon="8.87194">
        <ele>1437</ele>
        <time>2021-08-03T10:50:55.480Z</time>
      </trkpt>
      <trkpt lat="47.00865" lon="8.87194">
        <ele>1437</ele>
        <time>2021-08-03T10:50:56.479Z</time>
      </trkpt>
      <trkpt lat="47.00864" lon="8.87194">
        <ele>1437</ele>
        <time>2021-08-03T10:50:57.480Z</time>
      </trkpt>
      <trkpt lat="47.00863" lon="8.87193">
        <ele>1444</ele>
        <time>2021-08-03T10:50:58.481Z</time>
      </trkpt>
      <trkpt lat="47.00859" lon="8.87194">
        <ele>1448</ele>
        <time>2021-08-03T10:50:59.480Z</time>
      </trkpt>
      <trkpt lat="47.00859" lon="8.87194">
        <ele>1448</ele>
        <time>2021-08-03T10:51:00.481Z</time>
      </trkpt>
      <trkpt lat="47.0086" lon="8.87196">
        <ele>1447</ele>
        <time>2021-08-03T10:51:01.480Z</time>
      </trkpt>
      <trkpt lat="47.00861" lon="8.87196">
        <ele>1447</ele>
        <time>2021-08-03T10:51:02.481Z</time>
      </trkpt>
      <trkpt lat="47.0086" lon="8.87197">
        <ele>1448</ele>
        <time>2021-08-03T10:51:03.481Z</time>
      </trkpt>
      <trkpt lat="47.00864" lon="8.87193">
        <ele>1444</ele>
        <time>2021-08-03T10:51:04.481Z</time>
      </trkpt>
      <trkpt lat="47.00863" lon="8.87193">
        <ele>1443</ele>
        <time>2021-08-03T10:51:05.481Z</time>
      </trkpt>
      <trkpt lat="47.00862" lon="8.87192">
        <ele>1441</ele>
        <time>2021-08-03T10:51:06.481Z</time>
      </trkpt>
      <trkpt lat="47.00862" lon="8.87193">
        <ele>1440</ele>
        <time>2021-08-03T10:51:07.482Z</time>
      </trkpt>
      <trkpt lat="47.00862" lon="8.87193">
        <ele>1440</ele>
        <time>2021-08-03T10:51:08.482Z</time>
      </trkpt>
      <trkpt lat="47.00859" lon="8.87194">
        <ele>1433</ele>
        <time>2021-08-03T10:51:09.481Z</time>
      </trkpt>
      <trkpt lat="47.0086" lon="8.87193">
        <ele>1434</ele>
        <time>2021-08-03T10:51:10.482Z</time>
      </trkpt>
      <trkpt lat="47.00861" lon="8.87192">
        <ele>1435</ele>
        <time>2021-08-03T10:51:11.481Z</time>
      </trkpt>
      <trkpt lat="47.00861" lon="8.87191">
        <ele>1435</ele>
        <time>2021-08-03T10:51:12.482Z</time>
      </trkpt>
      <trkpt lat="47.00861" lon="8.8719">
        <ele>1436</ele>
        <time>2021-08-03T10:51:13.482Z</time>
      </trkpt>
      <trkpt lat="47.00861" lon="8.87189">
        <ele>1437</ele>
        <time>2021-08-03T10:51:14.482Z</time>
      </trkpt>
      <trkpt lat="47.00861" lon="8.87188">
        <ele>1437</ele>
        <time>2021-08-03T10:51:15.481Z</time>
      </trkpt>
      <trkpt lat="47.0086" lon="8.87188">
        <ele>1437</ele>
        <time>2021-08-03T10:51:16.481Z</time>
      </trkpt>
      <trkpt lat="47.0086" lon="8.87187">
        <ele>1438</ele>
        <time>2021-08-03T10:51:17.482Z</time>
      </trkpt>
      <trkpt lat="47.00859" lon="8.87187">
        <ele>1438</ele>
        <time>2021-08-03T10:51:18.482Z</time>
      </trkpt>
      <trkpt lat="47.00859" lon="8.87186">
        <ele>1439</ele>
        <time>2021-08-03T10:51:19.481Z</time>
      </trkpt>
      <trkpt lat="47.00859" lon="8.87186">
        <ele>1439</ele>
        <time>2021-08-03T10:51:20.481Z</time>
      </trkpt>
      <trkpt lat="47.00858" lon="8.87185">
        <ele>1440</ele>
        <time>2021-08-03T10:51:21.481Z</time>
      </trkpt>
      <trkpt lat="47.00858" lon="8.87184">
        <ele>1440</ele>
        <time>2021-08-03T10:51:22.481Z</time>
      </trkpt>
      <trkpt lat="47.00857" lon="8.87184">
        <ele>1441</ele>
        <time>2021-08-03T10:51:23.482Z</time>
      </trkpt>
      <trkpt lat="47.00857" lon="8.87184">
        <ele>1441</ele>
        <time>2021-08-03T10:51:24.482Z</time>
      </trkpt>
      <trkpt lat="47.00856" lon="8.87186">
        <ele>1443</ele>
        <time>2021-08-03T10:51:25.483Z</time>
      </trkpt>
      <trkpt lat="47.00856" lon="8.87186">
        <ele>1443</ele>
        <time>2021-08-03T10:51:27.446Z</time>
      </trkpt>
      <trkpt lat="47.00856" lon="8.87185">
        <ele>1443</ele>
        <time>2021-08-03T10:51:28.445Z</time>
      </trkpt>
      <trkpt lat="47.00856" lon="8.87185">
        <ele>1443</ele>
        <time>2021-08-03T10:51:29.445Z</time>
      </trkpt>
      <trkpt lat="47.00856" lon="8.87185">
        <ele>1442</ele>
        <time>2021-08-03T10:51:30.445Z</time>
      </trkpt>
      <trkpt lat="47.00856" lon="8.87185">
        <ele>1442</ele>
        <time>2021-08-03T10:51:31.445Z</time>
      </trkpt>
      <trkpt lat="47.00857" lon="8.87185">
        <ele>1442</ele>
        <time>2021-08-03T10:51:45.505Z</time>
      </trkpt>
      <trkpt lat="47.00855" lon="8.87185">
        <ele>1446</ele>
        <time>2021-08-03T10:51:46.506Z</time>
      </trkpt>
      <trkpt lat="47.00855" lon="8.87185">
        <ele>1446</ele>
        <time>2021-08-03T10:51:47.506Z</time>
      </trkpt>
      <trkpt lat="47.00855" lon="8.87185">
        <ele>1446</ele>
        <time>2021-08-03T10:52:15.622Z</time>
      </trkpt>
      <trkpt lat="47.00855" lon="8.87185">
        <ele>1445</ele>
        <time>2021-08-03T10:52:18.475Z</time>
      </trkpt>
      <trkpt lat="47.00854" lon="8.87185">
        <ele>1445</ele>
        <time>2021-08-03T10:52:19.474Z</time>
      </trkpt>
      <trkpt lat="47.00854" lon="8.87184">
        <ele>1444</ele>
        <time>2021-08-03T10:52:20.476Z</time>
      </trkpt>
      <trkpt lat="47.00853" lon="8.87185">
        <ele>1443</ele>
        <time>2021-08-03T10:52:21.476Z</time>
      </trkpt>
      <trkpt lat="47.00852" lon="8.87186">
        <ele>1443</ele>
        <time>2021-08-03T10:52:22.476Z</time>
      </trkpt>
      <trkpt lat="47.00852" lon="8.87186">
        <ele>1443</ele>
        <time>2021-08-03T10:52:47.608Z</time>
      </trkpt>
      <trkpt lat="47.00851" lon="8.87187">
        <ele>1442</ele>
        <time>2021-08-03T10:53:14.520Z</time>
      </trkpt>
      <trkpt lat="47.00851" lon="8.87187">
        <ele>1441</ele>
        <time>2021-08-03T10:53:17.355Z</time>
      </trkpt>
      <trkpt lat="47.0085" lon="8.87187">
        <ele>1441</ele>
        <time>2021-08-03T10:53:18.355Z</time>
      </trkpt>
      <trkpt lat="47.00849" lon="8.87187">
        <ele>1440</ele>
        <time>2021-08-03T10:53:19.355Z</time>
      </trkpt>
      <trkpt lat="47.00849" lon="8.87188">
        <ele>1439</ele>
        <time>2021-08-03T10:53:20.355Z</time>
      </trkpt>
      <trkpt lat="47.00849" lon="8.87188">
        <ele>1439</ele>
        <time>2021-08-03T10:53:28.503Z</time>
      </trkpt>
      <trkpt lat="47.00848" lon="8.87189">
        <ele>1438</ele>
        <time>2021-08-03T10:53:29.503Z</time>
      </trkpt>
      <trkpt lat="47.00848" lon="8.8719">
        <ele>1437</ele>
        <time>2021-08-03T10:53:30.503Z</time>
      </trkpt>
      <trkpt lat="47.00847" lon="8.8719">
        <ele>1437</ele>
        <time>2021-08-03T10:53:31.503Z</time>
      </trkpt>
      <trkpt lat="47.00847" lon="8.8719">
        <ele>1437</ele>
        <time>2021-08-03T10:53:32.503Z</time>
      </trkpt>
      <trkpt lat="47.00846" lon="8.8719">
        <ele>1437</ele>
        <time>2021-08-03T10:53:33.502Z</time>
      </trkpt>
      <trkpt lat="47.00846" lon="8.8719">
        <ele>1437</ele>
        <time>2021-08-03T10:53:34.502Z</time>
      </trkpt>
      <trkpt lat="47.00845" lon="8.8719">
        <ele>1438</ele>
        <time>2021-08-03T10:53:35.503Z</time>
      </trkpt>
      <trkpt lat="47.00844" lon="8.8719">
        <ele>1438</ele>
        <time>2021-08-03T10:53:36.503Z</time>
      </trkpt>
      <trkpt lat="47.00843" lon="8.87191">
        <ele>1438</ele>
        <time>2021-08-03T10:53:37.503Z</time>
      </trkpt>
      <trkpt lat="47.00842" lon="8.87191">
        <ele>1438</ele>
        <time>2021-08-03T10:53:38.503Z</time>
      </trkpt>
      <trkpt lat="47.00841" lon="8.87191">
        <ele>1439</ele>
        <time>2021-08-03T10:53:39.503Z</time>
      </trkpt>
      <trkpt lat="47.00839" lon="8.87192">
        <ele>1439</ele>
        <time>2021-08-03T10:53:40.502Z</time>
      </trkpt>
      <trkpt lat="47.00838" lon="8.87192">
        <ele>1439</ele>
        <time>2021-08-03T10:53:41.502Z</time>
      </trkpt>
      <trkpt lat="47.00837" lon="8.87192">
        <ele>1439</ele>
        <time>2021-08-03T10:53:42.502Z</time>
      </trkpt>
      <trkpt lat="47.00836" lon="8.87192">
        <ele>1440</ele>
        <time>2021-08-03T10:53:43.502Z</time>
      </trkpt>
      <trkpt lat="47.00835" lon="8.87192">
        <ele>1440</ele>
        <time>2021-08-03T10:53:44.503Z</time>
      </trkpt>
      <trkpt lat="47.00834" lon="8.87192">
        <ele>1440</ele>
        <time>2021-08-03T10:53:45.503Z</time>
      </trkpt>
      <trkpt lat="47.00834" lon="8.87192">
        <ele>1441</ele>
        <time>2021-08-03T10:53:46.503Z</time>
      </trkpt>
      <trkpt lat="47.00833" lon="8.87192">
        <ele>1441</ele>
        <time>2021-08-03T10:53:47.503Z</time>
      </trkpt>
      <trkpt lat="47.00832" lon="8.87192">
        <ele>1441</ele>
        <time>2021-08-03T10:53:48.503Z</time>
      </trkpt>
      <trkpt lat="47.00832" lon="8.87192">
        <ele>1441</ele>
        <time>2021-08-03T10:53:53.628Z</time>
      </trkpt>
      <trkpt lat="47.00831" lon="8.87192">
        <ele>1441</ele>
        <time>2021-08-03T10:53:54.628Z</time>
      </trkpt>
      <trkpt lat="47.0083" lon="8.87193">
        <ele>1441</ele>
        <time>2021-08-03T10:53:55.628Z</time>
      </trkpt>
      <trkpt lat="47.00829" lon="8.87193">
        <ele>1441</ele>
        <time>2021-08-03T10:53:56.628Z</time>
      </trkpt>
      <trkpt lat="47.00829" lon="8.87193">
        <ele>1442</ele>
        <time>2021-08-03T10:53:57.628Z</time>
      </trkpt>
      <trkpt lat="47.00828" lon="8.87194">
        <ele>1442</ele>
        <time>2021-08-03T10:53:58.628Z</time>
      </trkpt>
      <trkpt lat="47.00827" lon="8.87194">
        <ele>1443</ele>
        <time>2021-08-03T10:53:59.628Z</time>
      </trkpt>
      <trkpt lat="47.00827" lon="8.87194">
        <ele>1443</ele>
        <time>2021-08-03T10:54:00.628Z</time>
      </trkpt>
      <trkpt lat="47.00826" lon="8.87193">
        <ele>1444</ele>
        <time>2021-08-03T10:54:01.628Z</time>
      </trkpt>
      <trkpt lat="47.00825" lon="8.87193">
        <ele>1444</ele>
        <time>2021-08-03T10:54:02.628Z</time>
      </trkpt>
      <trkpt lat="47.00825" lon="8.87192">
        <ele>1444</ele>
        <time>2021-08-03T10:54:03.627Z</time>
      </trkpt>
      <trkpt lat="47.00824" lon="8.87192">
        <ele>1444</ele>
        <time>2021-08-03T10:54:04.628Z</time>
      </trkpt>
      <trkpt lat="47.00823" lon="8.87192">
        <ele>1443</ele>
        <time>2021-08-03T10:54:05.628Z</time>
      </trkpt>
      <trkpt lat="47.00822" lon="8.87192">
        <ele>1443</ele>
        <time>2021-08-03T10:54:06.628Z</time>
      </trkpt>
      <trkpt lat="47.00821" lon="8.87192">
        <ele>1443</ele>
        <time>2021-08-03T10:54:07.628Z</time>
      </trkpt>
      <trkpt lat="47.0082" lon="8.87191">
        <ele>1443</ele>
        <time>2021-08-03T10:54:08.627Z</time>
      </trkpt>
      <trkpt lat="47.00819" lon="8.87191">
        <ele>1443</ele>
        <time>2021-08-03T10:54:09.628Z</time>
      </trkpt>
      <trkpt lat="47.00818" lon="8.87191">
        <ele>1443</ele>
        <time>2021-08-03T10:54:10.628Z</time>
      </trkpt>
      <trkpt lat="47.00817" lon="8.87192">
        <ele>1443</ele>
        <time>2021-08-03T10:54:11.627Z</time>
      </trkpt>
      <trkpt lat="47.00816" lon="8.87192">
        <ele>1443</ele>
        <time>2021-08-03T10:54:12.627Z</time>
      </trkpt>
      <trkpt lat="47.00815" lon="8.87192">
        <ele>1443</ele>
        <time>2021-08-03T10:54:13.627Z</time>
      </trkpt>
      <trkpt lat="47.00814" lon="8.87193">
        <ele>1443</ele>
        <time>2021-08-03T10:54:14.627Z</time>
      </trkpt>
      <trkpt lat="47.00813" lon="8.87193">
        <ele>1443</ele>
        <time>2021-08-03T10:54:15.627Z</time>
      </trkpt>
      <trkpt lat="47.00812" lon="8.87193">
        <ele>1444</ele>
        <time>2021-08-03T10:54:16.627Z</time>
      </trkpt>
      <trkpt lat="47.00812" lon="8.87194">
        <ele>1444</ele>
        <time>2021-08-03T10:54:17.628Z</time>
      </trkpt>
      <trkpt lat="47.00811" lon="8.87194">
        <ele>1444</ele>
        <time>2021-08-03T10:54:18.627Z</time>
      </trkpt>
      <trkpt lat="47.0081" lon="8.87194">
        <ele>1444</ele>
        <time>2021-08-03T10:54:19.627Z</time>
      </trkpt>
      <trkpt lat="47.00809" lon="8.87195">
        <ele>1444</ele>
        <time>2021-08-03T10:54:20.628Z</time>
      </trkpt>
      <trkpt lat="47.00809" lon="8.87195">
        <ele>1445</ele>
        <time>2021-08-03T10:54:21.628Z</time>
      </trkpt>
      <trkpt lat="47.00808" lon="8.87195">
        <ele>1446</ele>
        <time>2021-08-03T10:54:23.719Z</time>
      </trkpt>
      <trkpt lat="47.00807" lon="8.87196">
        <ele>1446</ele>
        <time>2021-08-03T10:54:24.718Z</time>
      </trkpt>
      <trkpt lat="47.00806" lon="8.87196">
        <ele>1446</ele>
        <time>2021-08-03T10:54:33.614Z</time>
      </trkpt>
      <trkpt lat="47.00806" lon="8.87196">
        <ele>1446</ele>
        <time>2021-08-03T10:54:34.614Z</time>
      </trkpt>
      <trkpt lat="47.00805" lon="8.87197">
        <ele>1447</ele>
        <time>2021-08-03T10:54:35.614Z</time>
      </trkpt>
      <trkpt lat="47.00804" lon="8.87198">
        <ele>1447</ele>
        <time>2021-08-03T10:54:36.614Z</time>
      </trkpt>
      <trkpt lat="47.00804" lon="8.87199">
        <ele>1447</ele>
        <time>2021-08-03T10:54:37.614Z</time>
      </trkpt>
      <trkpt lat="47.00803" lon="8.87199">
        <ele>1447</ele>
        <time>2021-08-03T10:54:38.614Z</time>
      </trkpt>
      <trkpt lat="47.00802" lon="8.872">
        <ele>1447</ele>
        <time>2021-08-03T10:54:39.613Z</time>
      </trkpt>
      <trkpt lat="47.00801" lon="8.872">
        <ele>1446</ele>
        <time>2021-08-03T10:54:40.614Z</time>
      </trkpt>
      <trkpt lat="47.008" lon="8.872">
        <ele>1446</ele>
        <time>2021-08-03T10:54:41.614Z</time>
      </trkpt>
      <trkpt lat="47.008" lon="8.87201">
        <ele>1447</ele>
        <time>2021-08-03T10:54:42.614Z</time>
      </trkpt>
      <trkpt lat="47.00799" lon="8.87201">
        <ele>1447</ele>
        <time>2021-08-03T10:54:43.614Z</time>
      </trkpt>
      <trkpt lat="47.00798" lon="8.872">
        <ele>1447</ele>
        <time>2021-08-03T10:54:44.613Z</time>
      </trkpt>
      <trkpt lat="47.00797" lon="8.872">
        <ele>1448</ele>
        <time>2021-08-03T10:54:45.613Z</time>
      </trkpt>
      <trkpt lat="47.00796" lon="8.872">
        <ele>1448</ele>
        <time>2021-08-03T10:54:46.614Z</time>
      </trkpt>
      <trkpt lat="47.00795" lon="8.872">
        <ele>1448</ele>
        <time>2021-08-03T10:54:47.614Z</time>
      </trkpt>
      <trkpt lat="47.00794" lon="8.872">
        <ele>1448</ele>
        <time>2021-08-03T10:54:48.614Z</time>
      </trkpt>
      <trkpt lat="47.00794" lon="8.872">
        <ele>1448</ele>
        <time>2021-08-03T10:54:49.614Z</time>
      </trkpt>
      <trkpt lat="47.00793" lon="8.872">
        <ele>1448</ele>
        <time>2021-08-03T10:54:50.614Z</time>
      </trkpt>
      <trkpt lat="47.00792" lon="8.872">
        <ele>1449</ele>
        <time>2021-08-03T10:54:51.614Z</time>
      </trkpt>
      <trkpt lat="47.00791" lon="8.872">
        <ele>1449</ele>
        <time>2021-08-03T10:54:52.614Z</time>
      </trkpt>
      <trkpt lat="47.00791" lon="8.872">
        <ele>1450</ele>
        <time>2021-08-03T10:54:53.613Z</time>
      </trkpt>
      <trkpt lat="47.0079" lon="8.872">
        <ele>1450</ele>
        <time>2021-08-03T10:54:54.614Z</time>
      </trkpt>
      <trkpt lat="47.00789" lon="8.872">
        <ele>1451</ele>
        <time>2021-08-03T10:54:55.613Z</time>
      </trkpt>
      <trkpt lat="47.00788" lon="8.87199">
        <ele>1451</ele>
        <time>2021-08-03T10:54:56.614Z</time>
      </trkpt>
      <trkpt lat="47.00787" lon="8.872">
        <ele>1451</ele>
        <time>2021-08-03T10:54:57.614Z</time>
      </trkpt>
      <trkpt lat="47.00786" lon="8.872">
        <ele>1451</ele>
        <time>2021-08-03T10:54:58.613Z</time>
      </trkpt>
      <trkpt lat="47.00785" lon="8.87201">
        <ele>1451</ele>
        <time>2021-08-03T10:54:59.614Z</time>
      </trkpt>
      <trkpt lat="47.00784" lon="8.87202">
        <ele>1451</ele>
        <time>2021-08-03T10:55:00.614Z</time>
      </trkpt>
      <trkpt lat="47.00784" lon="8.87203">
        <ele>1451</ele>
        <time>2021-08-03T10:55:01.614Z</time>
      </trkpt>
      <trkpt lat="47.00783" lon="8.87203">
        <ele>1451</ele>
        <time>2021-08-03T10:55:02.614Z</time>
      </trkpt>
      <trkpt lat="47.00782" lon="8.87204">
        <ele>1451</ele>
        <time>2021-08-03T10:55:03.614Z</time>
      </trkpt>
      <trkpt lat="47.00781" lon="8.87205">
        <ele>1451</ele>
        <time>2021-08-03T10:55:04.613Z</time>
      </trkpt>
      <trkpt lat="47.0078" lon="8.87205">
        <ele>1450</ele>
        <time>2021-08-03T10:55:05.613Z</time>
      </trkpt>
      <trkpt lat="47.00779" lon="8.87206">
        <ele>1450</ele>
        <time>2021-08-03T10:55:06.613Z</time>
      </trkpt>
      <trkpt lat="47.00778" lon="8.87206">
        <ele>1450</ele>
        <time>2021-08-03T10:55:07.614Z</time>
      </trkpt>
      <trkpt lat="47.00777" lon="8.87207">
        <ele>1450</ele>
        <time>2021-08-03T10:55:08.614Z</time>
      </trkpt>
      <trkpt lat="47.00776" lon="8.87207">
        <ele>1449</ele>
        <time>2021-08-03T10:55:09.613Z</time>
      </trkpt>
      <trkpt lat="47.00775" lon="8.87208">
        <ele>1449</ele>
        <time>2021-08-03T10:55:10.614Z</time>
      </trkpt>
      <trkpt lat="47.00774" lon="8.87208">
        <ele>1449</ele>
        <time>2021-08-03T10:55:11.614Z</time>
      </trkpt>
      <trkpt lat="47.00773" lon="8.87208">
        <ele>1449</ele>
        <time>2021-08-03T10:55:12.613Z</time>
      </trkpt>
      <trkpt lat="47.00772" lon="8.87208">
        <ele>1449</ele>
        <time>2021-08-03T10:55:13.614Z</time>
      </trkpt>
      <trkpt lat="47.00772" lon="8.87208">
        <ele>1449</ele>
        <time>2021-08-03T10:55:14.614Z</time>
      </trkpt>
      <trkpt lat="47.00771" lon="8.87208">
        <ele>1449</ele>
        <time>2021-08-03T10:55:15.614Z</time>
      </trkpt>
      <trkpt lat="47.0077" lon="8.87208">
        <ele>1449</ele>
        <time>2021-08-03T10:55:16.614Z</time>
      </trkpt>
      <trkpt lat="47.00769" lon="8.87208">
        <ele>1449</ele>
        <time>2021-08-03T10:55:17.614Z</time>
      </trkpt>
      <trkpt lat="47.00769" lon="8.87208">
        <ele>1449</ele>
        <time>2021-08-03T10:55:18.613Z</time>
      </trkpt>
      <trkpt lat="47.00768" lon="8.87209">
        <ele>1449</ele>
        <time>2021-08-03T10:55:19.614Z</time>
      </trkpt>
      <trkpt lat="47.00767" lon="8.87209">
        <ele>1450</ele>
        <time>2021-08-03T10:55:20.613Z</time>
      </trkpt>
      <trkpt lat="47.00766" lon="8.87209">
        <ele>1450</ele>
        <time>2021-08-03T10:55:21.614Z</time>
      </trkpt>
      <trkpt lat="47.00765" lon="8.87209">
        <ele>1450</ele>
        <time>2021-08-03T10:55:22.614Z</time>
      </trkpt>
      <trkpt lat="47.00764" lon="8.87209">
        <ele>1450</ele>
        <time>2021-08-03T10:55:23.614Z</time>
      </trkpt>
      <trkpt lat="47.00763" lon="8.87209">
        <ele>1450</ele>
        <time>2021-08-03T10:55:24.614Z</time>
      </trkpt>
      <trkpt lat="47.00762" lon="8.87209">
        <ele>1450</ele>
        <time>2021-08-03T10:55:25.613Z</time>
      </trkpt>
      <trkpt lat="47.00761" lon="8.87209">
        <ele>1450</ele>
        <time>2021-08-03T10:55:26.614Z</time>
      </trkpt>
      <trkpt lat="47.0076" lon="8.87209">
        <ele>1451</ele>
        <time>2021-08-03T10:55:27.614Z</time>
      </trkpt>
      <trkpt lat="47.00759" lon="8.8721">
        <ele>1451</ele>
        <time>2021-08-03T10:55:28.613Z</time>
      </trkpt>
      <trkpt lat="47.00758" lon="8.8721">
        <ele>1451</ele>
        <time>2021-08-03T10:55:29.614Z</time>
      </trkpt>
      <trkpt lat="47.00758" lon="8.87209">
        <ele>1451</ele>
        <time>2021-08-03T10:55:30.613Z</time>
      </trkpt>
      <trkpt lat="47.00757" lon="8.87209">
        <ele>1451</ele>
        <time>2021-08-03T10:55:31.614Z</time>
      </trkpt>
      <trkpt lat="47.00757" lon="8.87208">
        <ele>1451</ele>
        <time>2021-08-03T10:55:32.614Z</time>
      </trkpt>
      <trkpt lat="47.00756" lon="8.87208">
        <ele>1451</ele>
        <time>2021-08-03T10:55:33.614Z</time>
      </trkpt>
      <trkpt lat="47.00755" lon="8.87208">
        <ele>1450</ele>
        <time>2021-08-03T10:55:34.614Z</time>
      </trkpt>
      <trkpt lat="47.00755" lon="8.87208">
        <ele>1450</ele>
        <time>2021-08-03T10:55:35.614Z</time>
      </trkpt>
      <trkpt lat="47.00754" lon="8.87208">
        <ele>1449</ele>
        <time>2021-08-03T10:55:36.613Z</time>
      </trkpt>
      <trkpt lat="47.00753" lon="8.87208">
        <ele>1449</ele>
        <time>2021-08-03T10:55:37.613Z</time>
      </trkpt>
      <trkpt lat="47.00753" lon="8.87208">
        <ele>1449</ele>
        <time>2021-08-03T10:55:38.614Z</time>
      </trkpt>
      <trkpt lat="47.00752" lon="8.87207">
        <ele>1449</ele>
        <time>2021-08-03T10:55:39.614Z</time>
      </trkpt>
      <trkpt lat="47.00752" lon="8.87207">
        <ele>1449</ele>
        <time>2021-08-03T10:55:40.614Z</time>
      </trkpt>
      <trkpt lat="47.00751" lon="8.87207">
        <ele>1449</ele>
        <time>2021-08-03T10:55:41.614Z</time>
      </trkpt>
      <trkpt lat="47.0075" lon="8.87207">
        <ele>1449</ele>
        <time>2021-08-03T10:55:42.614Z</time>
      </trkpt>
      <trkpt lat="47.0075" lon="8.87207">
        <ele>1449</ele>
        <time>2021-08-03T10:55:43.614Z</time>
      </trkpt>
      <trkpt lat="47.00749" lon="8.87207">
        <ele>1449</ele>
        <time>2021-08-03T10:55:44.614Z</time>
      </trkpt>
      <trkpt lat="47.00748" lon="8.87207">
        <ele>1449</ele>
        <time>2021-08-03T10:55:45.614Z</time>
      </trkpt>
      <trkpt lat="47.00748" lon="8.87206">
        <ele>1449</ele>
        <time>2021-08-03T10:55:46.614Z</time>
      </trkpt>
      <trkpt lat="47.00747" lon="8.87206">
        <ele>1450</ele>
        <time>2021-08-03T10:55:50.729Z</time>
      </trkpt>
      <trkpt lat="47.00746" lon="8.87206">
        <ele>1451</ele>
        <time>2021-08-03T10:55:51.730Z</time>
      </trkpt>
      <trkpt lat="47.00746" lon="8.87206">
        <ele>1451</ele>
        <time>2021-08-03T10:55:52.729Z</time>
      </trkpt>
      <trkpt lat="47.00745" lon="8.87206">
        <ele>1452</ele>
        <time>2021-08-03T10:55:53.729Z</time>
      </trkpt>
      <trkpt lat="47.00744" lon="8.87206">
        <ele>1452</ele>
        <time>2021-08-03T10:55:54.729Z</time>
      </trkpt>
      <trkpt lat="47.00743" lon="8.87206">
        <ele>1452</ele>
        <time>2021-08-03T10:55:55.730Z</time>
      </trkpt>
      <trkpt lat="47.00743" lon="8.87206">
        <ele>1453</ele>
        <time>2021-08-03T10:55:56.730Z</time>
      </trkpt>
      <trkpt lat="47.00742" lon="8.87206">
        <ele>1453</ele>
        <time>2021-08-03T10:55:57.730Z</time>
      </trkpt>
      <trkpt lat="47.00741" lon="8.87206">
        <ele>1454</ele>
        <time>2021-08-03T10:55:58.730Z</time>
      </trkpt>
      <trkpt lat="47.00741" lon="8.87205">
        <ele>1454</ele>
        <time>2021-08-03T10:55:59.729Z</time>
      </trkpt>
      <trkpt lat="47.0074" lon="8.87205">
        <ele>1455</ele>
        <time>2021-08-03T10:56:00.729Z</time>
      </trkpt>
      <trkpt lat="47.00739" lon="8.87205">
        <ele>1455</ele>
        <time>2021-08-03T10:56:01.730Z</time>
      </trkpt>
      <trkpt lat="47.00738" lon="8.87205">
        <ele>1455</ele>
        <time>2021-08-03T10:56:02.730Z</time>
      </trkpt>
      <trkpt lat="47.00737" lon="8.87205">
        <ele>1455</ele>
        <time>2021-08-03T10:56:03.730Z</time>
      </trkpt>
      <trkpt lat="47.00736" lon="8.87205">
        <ele>1456</ele>
        <time>2021-08-03T10:56:04.730Z</time>
      </trkpt>
      <trkpt lat="47.00736" lon="8.87205">
        <ele>1456</ele>
        <time>2021-08-03T10:56:05.729Z</time>
      </trkpt>
      <trkpt lat="47.00735" lon="8.87205">
        <ele>1456</ele>
        <time>2021-08-03T10:56:06.730Z</time>
      </trkpt>
      <trkpt lat="47.00734" lon="8.87204">
        <ele>1456</ele>
        <time>2021-08-03T10:56:07.730Z</time>
      </trkpt>
      <trkpt lat="47.00734" lon="8.87204">
        <ele>1456</ele>
        <time>2021-08-03T10:56:08.730Z</time>
      </trkpt>
      <trkpt lat="47.00733" lon="8.87204">
        <ele>1457</ele>
        <time>2021-08-03T10:56:09.730Z</time>
      </trkpt>
      <trkpt lat="47.00732" lon="8.87204">
        <ele>1457</ele>
        <time>2021-08-03T10:56:10.730Z</time>
      </trkpt>
      <trkpt lat="47.00732" lon="8.87203">
        <ele>1457</ele>
        <time>2021-08-03T10:56:11.730Z</time>
      </trkpt>
      <trkpt lat="47.00731" lon="8.87203">
        <ele>1458</ele>
        <time>2021-08-03T10:56:12.730Z</time>
      </trkpt>
      <trkpt lat="47.0073" lon="8.87202">
        <ele>1458</ele>
        <time>2021-08-03T10:56:13.730Z</time>
      </trkpt>
      <trkpt lat="47.00729" lon="8.87202">
        <ele>1458</ele>
        <time>2021-08-03T10:56:14.730Z</time>
      </trkpt>
      <trkpt lat="47.00729" lon="8.87202">
        <ele>1458</ele>
        <time>2021-08-03T10:56:15.730Z</time>
      </trkpt>
      <trkpt lat="47.00728" lon="8.87202">
        <ele>1458</ele>
        <time>2021-08-03T10:56:46.834Z</time>
      </trkpt>
      <trkpt lat="47.00728" lon="8.87201">
        <ele>1459</ele>
        <time>2021-08-03T10:56:47.834Z</time>
      </trkpt>
      <trkpt lat="47.00727" lon="8.87201">
        <ele>1460</ele>
        <time>2021-08-03T10:56:58.628Z</time>
      </trkpt>
      <trkpt lat="47.00727" lon="8.872">
        <ele>1460</ele>
        <time>2021-08-03T10:56:59.629Z</time>
      </trkpt>
      <trkpt lat="47.00727" lon="8.87199">
        <ele>1461</ele>
        <time>2021-08-03T10:57:00.629Z</time>
      </trkpt>
      <trkpt lat="47.00726" lon="8.87198">
        <ele>1462</ele>
        <time>2021-08-03T10:57:01.629Z</time>
      </trkpt>
      <trkpt lat="47.00725" lon="8.87197">
        <ele>1462</ele>
        <time>2021-08-03T10:57:02.629Z</time>
      </trkpt>
      <trkpt lat="47.00725" lon="8.87196">
        <ele>1463</ele>
        <time>2021-08-03T10:57:03.628Z</time>
      </trkpt>
      <trkpt lat="47.00724" lon="8.87195">
        <ele>1463</ele>
        <time>2021-08-03T10:57:04.629Z</time>
      </trkpt>
      <trkpt lat="47.00724" lon="8.87194">
        <ele>1462</ele>
        <time>2021-08-03T10:57:05.628Z</time>
      </trkpt>
      <trkpt lat="47.00724" lon="8.87194">
        <ele>1462</ele>
        <time>2021-08-03T10:57:06.629Z</time>
      </trkpt>
      <trkpt lat="47.00724" lon="8.87193">
        <ele>1461</ele>
        <time>2021-08-03T10:57:07.629Z</time>
      </trkpt>
      <trkpt lat="47.00724" lon="8.87192">
        <ele>1461</ele>
        <time>2021-08-03T10:57:08.629Z</time>
      </trkpt>
      <trkpt lat="47.00723" lon="8.87192">
        <ele>1461</ele>
        <time>2021-08-03T10:57:09.628Z</time>
      </trkpt>
      <trkpt lat="47.00723" lon="8.87191">
        <ele>1461</ele>
        <time>2021-08-03T10:57:10.629Z</time>
      </trkpt>
      <trkpt lat="47.00722" lon="8.87191">
        <ele>1460</ele>
        <time>2021-08-03T10:57:11.629Z</time>
      </trkpt>
      <trkpt lat="47.00722" lon="8.8719">
        <ele>1460</ele>
        <time>2021-08-03T10:57:12.628Z</time>
      </trkpt>
      <trkpt lat="47.00722" lon="8.8719">
        <ele>1459</ele>
        <time>2021-08-03T10:57:13.628Z</time>
      </trkpt>
      <trkpt lat="47.00721" lon="8.8719">
        <ele>1459</ele>
        <time>2021-08-03T10:57:14.629Z</time>
      </trkpt>
      <trkpt lat="47.0072" lon="8.8719">
        <ele>1458</ele>
        <time>2021-08-03T10:57:15.629Z</time>
      </trkpt>
      <trkpt lat="47.00719" lon="8.87189">
        <ele>1458</ele>
        <time>2021-08-03T10:57:16.629Z</time>
      </trkpt>
      <trkpt lat="47.00718" lon="8.87189">
        <ele>1457</ele>
        <time>2021-08-03T10:57:17.628Z</time>
      </trkpt>
      <trkpt lat="47.00718" lon="8.87189">
        <ele>1456</ele>
        <time>2021-08-03T10:57:18.629Z</time>
      </trkpt>
      <trkpt lat="47.00717" lon="8.87189">
        <ele>1456</ele>
        <time>2021-08-03T10:57:19.629Z</time>
      </trkpt>
      <trkpt lat="47.00716" lon="8.87189">
        <ele>1455</ele>
        <time>2021-08-03T10:57:20.629Z</time>
      </trkpt>
      <trkpt lat="47.00715" lon="8.87189">
        <ele>1455</ele>
        <time>2021-08-03T10:57:21.628Z</time>
      </trkpt>
      <trkpt lat="47.00714" lon="8.87189">
        <ele>1455</ele>
        <time>2021-08-03T10:57:22.628Z</time>
      </trkpt>
      <trkpt lat="47.00713" lon="8.8719">
        <ele>1455</ele>
        <time>2021-08-03T10:57:23.629Z</time>
      </trkpt>
      <trkpt lat="47.00712" lon="8.8719">
        <ele>1455</ele>
        <time>2021-08-03T10:57:24.629Z</time>
      </trkpt>
      <trkpt lat="47.00712" lon="8.8719">
        <ele>1455</ele>
        <time>2021-08-03T10:57:25.628Z</time>
      </trkpt>
      <trkpt lat="47.00711" lon="8.8719">
        <ele>1455</ele>
        <time>2021-08-03T10:57:26.629Z</time>
      </trkpt>
      <trkpt lat="47.00711" lon="8.87191">
        <ele>1455</ele>
        <time>2021-08-03T10:57:27.628Z</time>
      </trkpt>
      <trkpt lat="47.0071" lon="8.87191">
        <ele>1455</ele>
        <time>2021-08-03T10:57:28.629Z</time>
      </trkpt>
      <trkpt lat="47.0071" lon="8.87191">
        <ele>1455</ele>
        <time>2021-08-03T10:57:29.628Z</time>
      </trkpt>
      <trkpt lat="47.00709" lon="8.87191">
        <ele>1455</ele>
        <time>2021-08-03T10:57:30.629Z</time>
      </trkpt>
      <trkpt lat="47.00708" lon="8.87191">
        <ele>1455</ele>
        <time>2021-08-03T10:57:31.629Z</time>
      </trkpt>
      <trkpt lat="47.00708" lon="8.87191">
        <ele>1455</ele>
        <time>2021-08-03T10:57:32.628Z</time>
      </trkpt>
      <trkpt lat="47.00707" lon="8.87192">
        <ele>1456</ele>
        <time>2021-08-03T10:57:33.629Z</time>
      </trkpt>
      <trkpt lat="47.00706" lon="8.87192">
        <ele>1456</ele>
        <time>2021-08-03T10:57:34.628Z</time>
      </trkpt>
      <trkpt lat="47.00706" lon="8.87192">
        <ele>1456</ele>
        <time>2021-08-03T10:57:35.628Z</time>
      </trkpt>
      <trkpt lat="47.00705" lon="8.87192">
        <ele>1456</ele>
        <time>2021-08-03T10:57:36.629Z</time>
      </trkpt>
      <trkpt lat="47.00704" lon="8.87193">
        <ele>1456</ele>
        <time>2021-08-03T10:57:37.628Z</time>
      </trkpt>
      <trkpt lat="47.00704" lon="8.87193">
        <ele>1455</ele>
        <time>2021-08-03T10:57:49.750Z</time>
      </trkpt>
      <trkpt lat="47.00703" lon="8.87193">
        <ele>1455</ele>
        <time>2021-08-03T10:57:52.582Z</time>
      </trkpt>
      <trkpt lat="47.00703" lon="8.87193">
        <ele>1455</ele>
        <time>2021-08-03T10:57:53.582Z</time>
      </trkpt>
      <trkpt lat="47.00702" lon="8.87193">
        <ele>1455</ele>
        <time>2021-08-03T10:57:54.582Z</time>
      </trkpt>
      <trkpt lat="47.00701" lon="8.87193">
        <ele>1455</ele>
        <time>2021-08-03T10:57:59.712Z</time>
      </trkpt>
      <trkpt lat="47.00701" lon="8.87193">
        <ele>1455</ele>
        <time>2021-08-03T10:58:13.599Z</time>
      </trkpt>
      <trkpt lat="47.007" lon="8.87193">
        <ele>1456</ele>
        <time>2021-08-03T10:58:14.599Z</time>
      </trkpt>
      <trkpt lat="47.007" lon="8.87192">
        <ele>1457</ele>
        <time>2021-08-03T10:58:15.599Z</time>
      </trkpt>
      <trkpt lat="47.007" lon="8.87192">
        <ele>1458</ele>
        <time>2021-08-03T10:58:16.599Z</time>
      </trkpt>
      <trkpt lat="47.00699" lon="8.87192">
        <ele>1459</ele>
        <time>2021-08-03T10:58:17.599Z</time>
      </trkpt>
      <trkpt lat="47.00698" lon="8.87191">
        <ele>1460</ele>
        <time>2021-08-03T10:58:18.600Z</time>
      </trkpt>
      <trkpt lat="47.00698" lon="8.8719">
        <ele>1461</ele>
        <time>2021-08-03T10:58:19.599Z</time>
      </trkpt>
      <trkpt lat="47.00698" lon="8.8719">
        <ele>1461</ele>
        <time>2021-08-03T10:58:20.599Z</time>
      </trkpt>
      <trkpt lat="47.00697" lon="8.8719">
        <ele>1461</ele>
        <time>2021-08-03T10:58:21.599Z</time>
      </trkpt>
      <trkpt lat="47.00696" lon="8.8719">
        <ele>1461</ele>
        <time>2021-08-03T10:58:22.600Z</time>
      </trkpt>
      <trkpt lat="47.00696" lon="8.8719">
        <ele>1461</ele>
        <time>2021-08-03T10:58:23.600Z</time>
      </trkpt>
      <trkpt lat="47.00695" lon="8.8719">
        <ele>1461</ele>
        <time>2021-08-03T10:58:24.599Z</time>
      </trkpt>
      <trkpt lat="47.00695" lon="8.8719">
        <ele>1461</ele>
        <time>2021-08-03T10:58:25.600Z</time>
      </trkpt>
      <trkpt lat="47.00694" lon="8.8719">
        <ele>1461</ele>
        <time>2021-08-03T10:58:26.600Z</time>
      </trkpt>
      <trkpt lat="47.00694" lon="8.8719">
        <ele>1461</ele>
        <time>2021-08-03T10:58:27.600Z</time>
      </trkpt>
      <trkpt lat="47.00693" lon="8.8719">
        <ele>1461</ele>
        <time>2021-08-03T10:58:28.600Z</time>
      </trkpt>
      <trkpt lat="47.00693" lon="8.8719">
        <ele>1461</ele>
        <time>2021-08-03T10:58:29.600Z</time>
      </trkpt>
      <trkpt lat="47.00692" lon="8.87191">
        <ele>1461</ele>
        <time>2021-08-03T10:58:30.600Z</time>
      </trkpt>
      <trkpt lat="47.00692" lon="8.87191">
        <ele>1461</ele>
        <time>2021-08-03T10:58:31.600Z</time>
      </trkpt>
      <trkpt lat="47.00691" lon="8.87191">
        <ele>1461</ele>
        <time>2021-08-03T10:58:32.599Z</time>
      </trkpt>
      <trkpt lat="47.0069" lon="8.87191">
        <ele>1461</ele>
        <time>2021-08-03T10:58:40.743Z</time>
      </trkpt>
      <trkpt lat="47.0069" lon="8.87191">
        <ele>1462</ele>
        <time>2021-08-03T10:58:41.743Z</time>
      </trkpt>
      <trkpt lat="47.00689" lon="8.87191">
        <ele>1462</ele>
        <time>2021-08-03T10:58:42.743Z</time>
      </trkpt>
      <trkpt lat="47.00689" lon="8.87191">
        <ele>1463</ele>
        <time>2021-08-03T10:58:43.743Z</time>
      </trkpt>
      <trkpt lat="47.00688" lon="8.87191">
        <ele>1464</ele>
        <time>2021-08-03T10:58:44.743Z</time>
      </trkpt>
      <trkpt lat="47.00687" lon="8.87191">
        <ele>1465</ele>
        <time>2021-08-03T10:59:01.845Z</time>
      </trkpt>
      <trkpt lat="47.00686" lon="8.87191">
        <ele>1465</ele>
        <time>2021-08-03T10:59:02.846Z</time>
      </trkpt>
      <trkpt lat="47.00685" lon="8.87191">
        <ele>1466</ele>
        <time>2021-08-03T10:59:03.846Z</time>
      </trkpt>
      <trkpt lat="47.00685" lon="8.8719">
        <ele>1466</ele>
        <time>2021-08-03T10:59:04.846Z</time>
      </trkpt>
      <trkpt lat="47.00684" lon="8.8719">
        <ele>1467</ele>
        <time>2021-08-03T10:59:05.846Z</time>
      </trkpt>
      <trkpt lat="47.00683" lon="8.8719">
        <ele>1467</ele>
        <time>2021-08-03T10:59:06.845Z</time>
      </trkpt>
      <trkpt lat="47.00683" lon="8.87189">
        <ele>1466</ele>
        <time>2021-08-03T10:59:23.952Z</time>
      </trkpt>
      <trkpt lat="47.00682" lon="8.87189">
        <ele>1466</ele>
        <time>2021-08-03T10:59:24.952Z</time>
      </trkpt>
      <trkpt lat="47.00682" lon="8.87189">
        <ele>1465</ele>
        <time>2021-08-03T10:59:25.953Z</time>
      </trkpt>
      <trkpt lat="47.00681" lon="8.87189">
        <ele>1465</ele>
        <time>2021-08-03T10:59:26.952Z</time>
      </trkpt>
      <trkpt lat="47.00681" lon="8.87188">
        <ele>1465</ele>
        <time>2021-08-03T10:59:27.952Z</time>
      </trkpt>
      <trkpt lat="47.0068" lon="8.87188">
        <ele>1465</ele>
        <time>2021-08-03T10:59:28.953Z</time>
      </trkpt>
      <trkpt lat="47.0068" lon="8.87187">
        <ele>1464</ele>
        <time>2021-08-03T10:59:29.953Z</time>
      </trkpt>
      <trkpt lat="47.00679" lon="8.87187">
        <ele>1464</ele>
        <time>2021-08-03T10:59:30.953Z</time>
      </trkpt>
      <trkpt lat="47.00678" lon="8.87187">
        <ele>1464</ele>
        <time>2021-08-03T10:59:31.953Z</time>
      </trkpt>
      <trkpt lat="47.00678" lon="8.87188">
        <ele>1465</ele>
        <time>2021-08-03T10:59:32.952Z</time>
      </trkpt>
      <trkpt lat="47.00677" lon="8.87188">
        <ele>1465</ele>
        <time>2021-08-03T10:59:33.953Z</time>
      </trkpt>
      <trkpt lat="47.00677" lon="8.87188">
        <ele>1465</ele>
        <time>2021-08-03T10:59:34.953Z</time>
      </trkpt>
      <trkpt lat="47.00677" lon="8.87188">
        <ele>1465</ele>
        <time>2021-08-03T10:59:35.953Z</time>
      </trkpt>
      <trkpt lat="47.00676" lon="8.87189">
        <ele>1466</ele>
        <time>2021-08-03T10:59:36.952Z</time>
      </trkpt>
      <trkpt lat="47.00676" lon="8.8719">
        <ele>1466</ele>
        <time>2021-08-03T10:59:37.952Z</time>
      </trkpt>
      <trkpt lat="47.00675" lon="8.87189">
        <ele>1475</ele>
        <time>2021-08-03T10:59:38.953Z</time>
      </trkpt>
      <trkpt lat="47.00674" lon="8.87188">
        <ele>1476</ele>
        <time>2021-08-03T10:59:39.953Z</time>
      </trkpt>
      <trkpt lat="47.00674" lon="8.87188">
        <ele>1476</ele>
        <time>2021-08-03T10:59:40.952Z</time>
      </trkpt>
      <trkpt lat="47.00673" lon="8.87187">
        <ele>1476</ele>
        <time>2021-08-03T10:59:41.952Z</time>
      </trkpt>
      <trkpt lat="47.00673" lon="8.87187">
        <ele>1476</ele>
        <time>2021-08-03T10:59:42.952Z</time>
      </trkpt>
      <trkpt lat="47.00672" lon="8.87186">
        <ele>1477</ele>
        <time>2021-08-03T10:59:43.953Z</time>
      </trkpt>
      <trkpt lat="47.00671" lon="8.87185">
        <ele>1477</ele>
        <time>2021-08-03T10:59:44.953Z</time>
      </trkpt>
      <trkpt lat="47.00671" lon="8.87184">
        <ele>1477</ele>
        <time>2021-08-03T10:59:45.953Z</time>
      </trkpt>
      <trkpt lat="47.0067" lon="8.87183">
        <ele>1477</ele>
        <time>2021-08-03T10:59:46.952Z</time>
      </trkpt>
      <trkpt lat="47.00669" lon="8.87182">
        <ele>1477</ele>
        <time>2021-08-03T10:59:47.952Z</time>
      </trkpt>
      <trkpt lat="47.00669" lon="8.87181">
        <ele>1477</ele>
        <time>2021-08-03T10:59:48.953Z</time>
      </trkpt>
      <trkpt lat="47.00668" lon="8.87181">
        <ele>1477</ele>
        <time>2021-08-03T10:59:49.952Z</time>
      </trkpt>
      <trkpt lat="47.00667" lon="8.87181">
        <ele>1477</ele>
        <time>2021-08-03T10:59:50.953Z</time>
      </trkpt>
      <trkpt lat="47.00667" lon="8.8718">
        <ele>1476</ele>
        <time>2021-08-03T10:59:51.952Z</time>
      </trkpt>
      <trkpt lat="47.00666" lon="8.8718">
        <ele>1475</ele>
        <time>2021-08-03T10:59:52.953Z</time>
      </trkpt>
      <trkpt lat="47.00666" lon="8.87179">
        <ele>1474</ele>
        <time>2021-08-03T10:59:53.952Z</time>
      </trkpt>
      <trkpt lat="47.00665" lon="8.87179">
        <ele>1474</ele>
        <time>2021-08-03T10:59:54.953Z</time>
      </trkpt>
      <trkpt lat="47.00665" lon="8.87179">
        <ele>1474</ele>
        <time>2021-08-03T10:59:55.953Z</time>
      </trkpt>
      <trkpt lat="47.00665" lon="8.87178">
        <ele>1474</ele>
        <time>2021-08-03T10:59:56.953Z</time>
      </trkpt>
      <trkpt lat="47.00664" lon="8.87178">
        <ele>1474</ele>
        <time>2021-08-03T10:59:57.952Z</time>
      </trkpt>
      <trkpt lat="47.00664" lon="8.87177">
        <ele>1474</ele>
        <time>2021-08-03T10:59:58.953Z</time>
      </trkpt>
      <trkpt lat="47.00664" lon="8.87177">
        <ele>1475</ele>
        <time>2021-08-03T10:59:59.953Z</time>
      </trkpt>
      <trkpt lat="47.00665" lon="8.87178">
        <ele>1468</ele>
        <time>2021-08-03T11:00:00.952Z</time>
      </trkpt>
      <trkpt lat="47.00665" lon="8.87178">
        <ele>1467</ele>
        <time>2021-08-03T11:00:01.952Z</time>
      </trkpt>
      <trkpt lat="47.00665" lon="8.87178">
        <ele>1467</ele>
        <time>2021-08-03T11:00:02.952Z</time>
      </trkpt>
      <trkpt lat="47.00665" lon="8.87178">
        <ele>1466</ele>
        <time>2021-08-03T11:00:03.952Z</time>
      </trkpt>
      <trkpt lat="47.00665" lon="8.87178">
        <ele>1466</ele>
        <time>2021-08-03T11:00:04.952Z</time>
      </trkpt>
      <trkpt lat="47.00665" lon="8.87177">
        <ele>1465</ele>
        <time>2021-08-03T11:00:05.953Z</time>
      </trkpt>
      <trkpt lat="47.00665" lon="8.87176">
        <ele>1464</ele>
        <time>2021-08-03T11:00:06.952Z</time>
      </trkpt>
      <trkpt lat="47.00665" lon="8.87176">
        <ele>1464</ele>
        <time>2021-08-03T11:00:07.952Z</time>
      </trkpt>
      <trkpt lat="47.00665" lon="8.87176">
        <ele>1464</ele>
        <time>2021-08-03T11:00:08.952Z</time>
      </trkpt>
      <trkpt lat="47.00665" lon="8.87175">
        <ele>1464</ele>
        <time>2021-08-03T11:00:09.953Z</time>
      </trkpt>
      <trkpt lat="47.00665" lon="8.87175">
        <ele>1465</ele>
        <time>2021-08-03T11:00:10.952Z</time>
      </trkpt>
      <trkpt lat="47.00665" lon="8.87175">
        <ele>1466</ele>
        <time>2021-08-03T11:00:11.952Z</time>
      </trkpt>
      <trkpt lat="47.00664" lon="8.87175">
        <ele>1468</ele>
        <time>2021-08-03T11:00:12.954Z</time>
      </trkpt>
      <trkpt lat="47.00663" lon="8.87176">
        <ele>1468</ele>
        <time>2021-08-03T11:00:13.955Z</time>
      </trkpt>
      <trkpt lat="47.00662" lon="8.87176">
        <ele>1469</ele>
        <time>2021-08-03T11:00:14.955Z</time>
      </trkpt>
      <trkpt lat="47.00664" lon="8.87174">
        <ele>1475</ele>
        <time>2021-08-03T11:00:15.954Z</time>
      </trkpt>
      <trkpt lat="47.00664" lon="8.87176">
        <ele>1472</ele>
        <time>2021-08-03T11:00:16.955Z</time>
      </trkpt>
      <trkpt lat="47.00664" lon="8.87177">
        <ele>1472</ele>
        <time>2021-08-03T11:00:17.955Z</time>
      </trkpt>
      <trkpt lat="47.00664" lon="8.87178">
        <ele>1472</ele>
        <time>2021-08-03T11:00:18.956Z</time>
      </trkpt>
      <trkpt lat="47.00664" lon="8.87179">
        <ele>1473</ele>
        <time>2021-08-03T11:00:19.955Z</time>
      </trkpt>
      <trkpt lat="47.00663" lon="8.87177">
        <ele>1475</ele>
        <time>2021-08-03T11:00:20.955Z</time>
      </trkpt>
      <trkpt lat="47.00663" lon="8.87176">
        <ele>1475</ele>
        <time>2021-08-03T11:00:21.955Z</time>
      </trkpt>
      <trkpt lat="47.00663" lon="8.87175">
        <ele>1476</ele>
        <time>2021-08-03T11:00:22.955Z</time>
      </trkpt>
      <trkpt lat="47.00663" lon="8.87173">
        <ele>1475</ele>
        <time>2021-08-03T11:00:23.955Z</time>
      </trkpt>
      <trkpt lat="47.00663" lon="8.87173">
        <ele>1475</ele>
        <time>2021-08-03T11:00:24.955Z</time>
      </trkpt>
      <trkpt lat="47.00662" lon="8.87172">
        <ele>1475</ele>
        <time>2021-08-03T11:00:25.955Z</time>
      </trkpt>
      <trkpt lat="47.00662" lon="8.87171">
        <ele>1474</ele>
        <time>2021-08-03T11:00:26.955Z</time>
      </trkpt>
      <trkpt lat="47.00662" lon="8.87171">
        <ele>1474</ele>
        <time>2021-08-03T11:00:27.955Z</time>
      </trkpt>
      <trkpt lat="47.00661" lon="8.8717">
        <ele>1474</ele>
        <time>2021-08-03T11:00:28.955Z</time>
      </trkpt>
      <trkpt lat="47.0066" lon="8.87169">
        <ele>1474</ele>
        <time>2021-08-03T11:00:29.955Z</time>
      </trkpt>
      <trkpt lat="47.00659" lon="8.87168">
        <ele>1475</ele>
        <time>2021-08-03T11:00:30.955Z</time>
      </trkpt>
      <trkpt lat="47.00658" lon="8.87168">
        <ele>1475</ele>
        <time>2021-08-03T11:00:31.955Z</time>
      </trkpt>
      <trkpt lat="47.00657" lon="8.87167">
        <ele>1475</ele>
        <time>2021-08-03T11:00:32.955Z</time>
      </trkpt>
      <trkpt lat="47.00657" lon="8.87167">
        <ele>1476</ele>
        <time>2021-08-03T11:00:33.955Z</time>
      </trkpt>
      <trkpt lat="47.00656" lon="8.87166">
        <ele>1476</ele>
        <time>2021-08-03T11:00:34.955Z</time>
      </trkpt>
      <trkpt lat="47.00655" lon="8.87165">
        <ele>1477</ele>
        <time>2021-08-03T11:00:35.955Z</time>
      </trkpt>
      <trkpt lat="47.00654" lon="8.87164">
        <ele>1478</ele>
        <time>2021-08-03T11:00:36.955Z</time>
      </trkpt>
      <trkpt lat="47.00654" lon="8.87164">
        <ele>1478</ele>
        <time>2021-08-03T11:00:37.955Z</time>
      </trkpt>
      <trkpt lat="47.00653" lon="8.87163">
        <ele>1478</ele>
        <time>2021-08-03T11:00:38.955Z</time>
      </trkpt>
      <trkpt lat="47.00652" lon="8.87163">
        <ele>1478</ele>
        <time>2021-08-03T11:00:39.955Z</time>
      </trkpt>
      <trkpt lat="47.00652" lon="8.87162">
        <ele>1479</ele>
        <time>2021-08-03T11:00:40.955Z</time>
      </trkpt>
      <trkpt lat="47.00651" lon="8.87162">
        <ele>1479</ele>
        <time>2021-08-03T11:00:41.955Z</time>
      </trkpt>
      <trkpt lat="47.00651" lon="8.87161">
        <ele>1479</ele>
        <time>2021-08-03T11:00:42.955Z</time>
      </trkpt>
      <trkpt lat="47.0065" lon="8.87161">
        <ele>1480</ele>
        <time>2021-08-03T11:00:43.955Z</time>
      </trkpt>
      <trkpt lat="47.0065" lon="8.87161">
        <ele>1480</ele>
        <time>2021-08-03T11:00:44.955Z</time>
      </trkpt>
      <trkpt lat="47.0065" lon="8.8716">
        <ele>1480</ele>
        <time>2021-08-03T11:00:45.955Z</time>
      </trkpt>
      <trkpt lat="47.0065" lon="8.8716">
        <ele>1480</ele>
        <time>2021-08-03T11:00:46.955Z</time>
      </trkpt>
      <trkpt lat="47.0065" lon="8.87159">
        <ele>1480</ele>
        <time>2021-08-03T11:00:47.955Z</time>
      </trkpt>
      <trkpt lat="47.0065" lon="8.87159">
        <ele>1480</ele>
        <time>2021-08-03T11:00:48.955Z</time>
      </trkpt>
      <trkpt lat="47.00649" lon="8.87159">
        <ele>1480</ele>
        <time>2021-08-03T11:00:49.955Z</time>
      </trkpt>
      <trkpt lat="47.00649" lon="8.87158">
        <ele>1480</ele>
        <time>2021-08-03T11:00:50.955Z</time>
      </trkpt>
      <trkpt lat="47.00649" lon="8.87158">
        <ele>1480</ele>
        <time>2021-08-03T11:00:51.955Z</time>
      </trkpt>
      <trkpt lat="47.00648" lon="8.87157">
        <ele>1480</ele>
        <time>2021-08-03T11:00:52.955Z</time>
      </trkpt>
      <trkpt lat="47.00648" lon="8.87157">
        <ele>1480</ele>
        <time>2021-08-03T11:00:53.955Z</time>
      </trkpt>
      <trkpt lat="47.00647" lon="8.87157">
        <ele>1479</ele>
        <time>2021-08-03T11:00:54.955Z</time>
      </trkpt>
      <trkpt lat="47.00646" lon="8.87157">
        <ele>1478</ele>
        <time>2021-08-03T11:00:55.955Z</time>
      </trkpt>
      <trkpt lat="47.00645" lon="8.87157">
        <ele>1478</ele>
        <time>2021-08-03T11:00:56.955Z</time>
      </trkpt>
      <trkpt lat="47.00645" lon="8.87157">
        <ele>1477</ele>
        <time>2021-08-03T11:00:57.955Z</time>
      </trkpt>
      <trkpt lat="47.00645" lon="8.87156">
        <ele>1476</ele>
        <time>2021-08-03T11:00:58.955Z</time>
      </trkpt>
      <trkpt lat="47.00645" lon="8.87156">
        <ele>1476</ele>
        <time>2021-08-03T11:00:59.955Z</time>
      </trkpt>
      <trkpt lat="47.00644" lon="8.87155">
        <ele>1476</ele>
        <time>2021-08-03T11:01:00.955Z</time>
      </trkpt>
      <trkpt lat="47.00644" lon="8.87154">
        <ele>1476</ele>
        <time>2021-08-03T11:01:01.955Z</time>
      </trkpt>
      <trkpt lat="47.00643" lon="8.87153">
        <ele>1476</ele>
        <time>2021-08-03T11:01:02.955Z</time>
      </trkpt>
      <trkpt lat="47.00642" lon="8.87152">
        <ele>1476</ele>
        <time>2021-08-03T11:01:03.955Z</time>
      </trkpt>
      <trkpt lat="47.00641" lon="8.87152">
        <ele>1475</ele>
        <time>2021-08-03T11:01:04.955Z</time>
      </trkpt>
      <trkpt lat="47.0064" lon="8.87152">
        <ele>1475</ele>
        <time>2021-08-03T11:01:05.955Z</time>
      </trkpt>
      <trkpt lat="47.00639" lon="8.87152">
        <ele>1475</ele>
        <time>2021-08-03T11:01:06.955Z</time>
      </trkpt>
      <trkpt lat="47.00637" lon="8.87152">
        <ele>1474</ele>
        <time>2021-08-03T11:01:07.955Z</time>
      </trkpt>
      <trkpt lat="47.00636" lon="8.87152">
        <ele>1474</ele>
        <time>2021-08-03T11:01:08.955Z</time>
      </trkpt>
      <trkpt lat="47.00636" lon="8.87152">
        <ele>1474</ele>
        <time>2021-08-03T11:01:09.955Z</time>
      </trkpt>
      <trkpt lat="47.00635" lon="8.87151">
        <ele>1474</ele>
        <time>2021-08-03T11:01:32.976Z</time>
      </trkpt>
      <trkpt lat="47.00634" lon="8.87151">
        <ele>1474</ele>
        <time>2021-08-03T11:01:33.976Z</time>
      </trkpt>
      <trkpt lat="47.00633" lon="8.8715">
        <ele>1473</ele>
        <time>2021-08-03T11:01:34.976Z</time>
      </trkpt>
      <trkpt lat="47.00632" lon="8.87149">
        <ele>1473</ele>
        <time>2021-08-03T11:01:35.976Z</time>
      </trkpt>
      <trkpt lat="47.00631" lon="8.87149">
        <ele>1474</ele>
        <time>2021-08-03T11:01:36.976Z</time>
      </trkpt>
      <trkpt lat="47.0063" lon="8.87148">
        <ele>1475</ele>
        <time>2021-08-03T11:01:37.976Z</time>
      </trkpt>
      <trkpt lat="47.0063" lon="8.87148">
        <ele>1476</ele>
        <time>2021-08-03T11:01:38.976Z</time>
      </trkpt>
      <trkpt lat="47.00629" lon="8.87147">
        <ele>1477</ele>
        <time>2021-08-03T11:01:39.976Z</time>
      </trkpt>
      <trkpt lat="47.00628" lon="8.87147">
        <ele>1477</ele>
        <time>2021-08-03T11:01:40.976Z</time>
      </trkpt>
      <trkpt lat="47.00627" lon="8.87147">
        <ele>1478</ele>
        <time>2021-08-03T11:01:41.976Z</time>
      </trkpt>
      <trkpt lat="47.00626" lon="8.87147">
        <ele>1478</ele>
        <time>2021-08-03T11:01:42.976Z</time>
      </trkpt>
      <trkpt lat="47.00625" lon="8.87146">
        <ele>1478</ele>
        <time>2021-08-03T11:01:43.976Z</time>
      </trkpt>
      <trkpt lat="47.00624" lon="8.87146">
        <ele>1478</ele>
        <time>2021-08-03T11:01:44.976Z</time>
      </trkpt>
      <trkpt lat="47.00623" lon="8.87145">
        <ele>1478</ele>
        <time>2021-08-03T11:01:45.976Z</time>
      </trkpt>
      <trkpt lat="47.00622" lon="8.87145">
        <ele>1478</ele>
        <time>2021-08-03T11:01:46.976Z</time>
      </trkpt>
      <trkpt lat="47.00621" lon="8.87144">
        <ele>1478</ele>
        <time>2021-08-03T11:01:47.976Z</time>
      </trkpt>
      <trkpt lat="47.00621" lon="8.87143">
        <ele>1478</ele>
        <time>2021-08-03T11:01:48.976Z</time>
      </trkpt>
      <trkpt lat="47.0062" lon="8.87143">
        <ele>1478</ele>
        <time>2021-08-03T11:01:49.976Z</time>
      </trkpt>
      <trkpt lat="47.0062" lon="8.87142">
        <ele>1478</ele>
        <time>2021-08-03T11:01:50.976Z</time>
      </trkpt>
      <trkpt lat="47.0062" lon="8.87142">
        <ele>1478</ele>
        <time>2021-08-03T11:01:51.976Z</time>
      </trkpt>
      <trkpt lat="47.0062" lon="8.87142">
        <ele>1478</ele>
        <time>2021-08-03T11:01:52.976Z</time>
      </trkpt>
      <trkpt lat="47.00621" lon="8.8714">
        <ele>1480</ele>
        <time>2021-08-03T11:01:53.976Z</time>
      </trkpt>
      <trkpt lat="47.00621" lon="8.8714">
        <ele>1480</ele>
        <time>2021-08-03T11:01:54.977Z</time>
      </trkpt>
      <trkpt lat="47.00622" lon="8.87141">
        <ele>1480</ele>
        <time>2021-08-03T11:01:55.977Z</time>
      </trkpt>
      <trkpt lat="47.0062" lon="8.87141">
        <ele>1478</ele>
        <time>2021-08-03T11:01:56.978Z</time>
      </trkpt>
      <trkpt lat="47.00619" lon="8.8714">
        <ele>1478</ele>
        <time>2021-08-03T11:01:57.977Z</time>
      </trkpt>
      <trkpt lat="47.00618" lon="8.8714">
        <ele>1478</ele>
        <time>2021-08-03T11:01:58.977Z</time>
      </trkpt>
      <trkpt lat="47.00617" lon="8.8714">
        <ele>1477</ele>
        <time>2021-08-03T11:01:59.978Z</time>
      </trkpt>
      <trkpt lat="47.00616" lon="8.8714">
        <ele>1477</ele>
        <time>2021-08-03T11:02:00.978Z</time>
      </trkpt>
      <trkpt lat="47.00616" lon="8.8714">
        <ele>1477</ele>
        <time>2021-08-03T11:02:01.978Z</time>
      </trkpt>
      <trkpt lat="47.00615" lon="8.8714">
        <ele>1476</ele>
        <time>2021-08-03T11:02:02.977Z</time>
      </trkpt>
      <trkpt lat="47.00615" lon="8.8714">
        <ele>1476</ele>
        <time>2021-08-03T11:02:03.978Z</time>
      </trkpt>
      <trkpt lat="47.00614" lon="8.8714">
        <ele>1475</ele>
        <time>2021-08-03T11:02:04.978Z</time>
      </trkpt>
      <trkpt lat="47.00613" lon="8.87141">
        <ele>1475</ele>
        <time>2021-08-03T11:02:05.978Z</time>
      </trkpt>
      <trkpt lat="47.00612" lon="8.8714">
        <ele>1474</ele>
        <time>2021-08-03T11:02:06.977Z</time>
      </trkpt>
      <trkpt lat="47.00611" lon="8.8714">
        <ele>1474</ele>
        <time>2021-08-03T11:02:07.977Z</time>
      </trkpt>
      <trkpt lat="47.0061" lon="8.8714">
        <ele>1474</ele>
        <time>2021-08-03T11:02:08.978Z</time>
      </trkpt>
      <trkpt lat="47.0061" lon="8.8714">
        <ele>1475</ele>
        <time>2021-08-03T11:02:09.978Z</time>
      </trkpt>
      <trkpt lat="47.00609" lon="8.8714">
        <ele>1475</ele>
        <time>2021-08-03T11:02:10.978Z</time>
      </trkpt>
      <trkpt lat="47.00609" lon="8.8714">
        <ele>1476</ele>
        <time>2021-08-03T11:02:11.978Z</time>
      </trkpt>
      <trkpt lat="47.00608" lon="8.87139">
        <ele>1476</ele>
        <time>2021-08-03T11:02:12.978Z</time>
      </trkpt>
      <trkpt lat="47.00607" lon="8.87139">
        <ele>1476</ele>
        <time>2021-08-03T11:02:13.978Z</time>
      </trkpt>
      <trkpt lat="47.00606" lon="8.87139">
        <ele>1476</ele>
        <time>2021-08-03T11:02:14.977Z</time>
      </trkpt>
      <trkpt lat="47.00606" lon="8.87139">
        <ele>1476</ele>
        <time>2021-08-03T11:02:15.977Z</time>
      </trkpt>
      <trkpt lat="47.00605" lon="8.87138">
        <ele>1476</ele>
        <time>2021-08-03T11:02:16.978Z</time>
      </trkpt>
      <trkpt lat="47.00604" lon="8.87138">
        <ele>1475</ele>
        <time>2021-08-03T11:02:17.978Z</time>
      </trkpt>
      <trkpt lat="47.00604" lon="8.87137">
        <ele>1476</ele>
        <time>2021-08-03T11:02:18.977Z</time>
      </trkpt>
      <trkpt lat="47.00603" lon="8.87137">
        <ele>1476</ele>
        <time>2021-08-03T11:02:19.977Z</time>
      </trkpt>
      <trkpt lat="47.00602" lon="8.87137">
        <ele>1476</ele>
        <time>2021-08-03T11:02:20.978Z</time>
      </trkpt>
      <trkpt lat="47.00602" lon="8.87137">
        <ele>1476</ele>
        <time>2021-08-03T11:02:21.977Z</time>
      </trkpt>
      <trkpt lat="47.00601" lon="8.87136">
        <ele>1476</ele>
        <time>2021-08-03T11:02:22.978Z</time>
      </trkpt>
      <trkpt lat="47.006" lon="8.87136">
        <ele>1475</ele>
        <time>2021-08-03T11:02:23.978Z</time>
      </trkpt>
      <trkpt lat="47.00599" lon="8.87136">
        <ele>1475</ele>
        <time>2021-08-03T11:02:24.978Z</time>
      </trkpt>
      <trkpt lat="47.00599" lon="8.87135">
        <ele>1475</ele>
        <time>2021-08-03T11:02:25.978Z</time>
      </trkpt>
      <trkpt lat="47.00598" lon="8.87135">
        <ele>1475</ele>
        <time>2021-08-03T11:02:26.978Z</time>
      </trkpt>
      <trkpt lat="47.00597" lon="8.87135">
        <ele>1475</ele>
        <time>2021-08-03T11:02:27.977Z</time>
      </trkpt>
      <trkpt lat="47.00596" lon="8.87135">
        <ele>1476</ele>
        <time>2021-08-03T11:02:28.978Z</time>
      </trkpt>
      <trkpt lat="47.00595" lon="8.87135">
        <ele>1477</ele>
        <time>2021-08-03T11:02:29.978Z</time>
      </trkpt>
      <trkpt lat="47.00594" lon="8.87135">
        <ele>1478</ele>
        <time>2021-08-03T11:02:30.978Z</time>
      </trkpt>
      <trkpt lat="47.00593" lon="8.87135">
        <ele>1479</ele>
        <time>2021-08-03T11:02:31.977Z</time>
      </trkpt>
      <trkpt lat="47.00593" lon="8.87135">
        <ele>1479</ele>
        <time>2021-08-03T11:02:32.977Z</time>
      </trkpt>
      <trkpt lat="47.00592" lon="8.87134">
        <ele>1480</ele>
        <time>2021-08-03T11:02:33.977Z</time>
      </trkpt>
      <trkpt lat="47.00591" lon="8.87134">
        <ele>1480</ele>
        <time>2021-08-03T11:02:34.978Z</time>
      </trkpt>
      <trkpt lat="47.00591" lon="8.87134">
        <ele>1480</ele>
        <time>2021-08-03T11:02:35.978Z</time>
      </trkpt>
      <trkpt lat="47.0059" lon="8.87134">
        <ele>1480</ele>
        <time>2021-08-03T11:02:45.127Z</time>
      </trkpt>
      <trkpt lat="47.0059" lon="8.87134">
        <ele>1480</ele>
        <time>2021-08-03T11:02:46.126Z</time>
      </trkpt>
      <trkpt lat="47.00589" lon="8.87134">
        <ele>1480</ele>
        <time>2021-08-03T11:02:47.126Z</time>
      </trkpt>
      <trkpt lat="47.00589" lon="8.87134">
        <ele>1480</ele>
        <time>2021-08-03T11:02:48.126Z</time>
      </trkpt>
      <trkpt lat="47.00588" lon="8.87133">
        <ele>1481</ele>
        <time>2021-08-03T11:02:49.127Z</time>
      </trkpt>
      <trkpt lat="47.00587" lon="8.87133">
        <ele>1482</ele>
        <time>2021-08-03T11:02:50.126Z</time>
      </trkpt>
      <trkpt lat="47.00586" lon="8.87132">
        <ele>1482</ele>
        <time>2021-08-03T11:02:51.127Z</time>
      </trkpt>
      <trkpt lat="47.00585" lon="8.87131">
        <ele>1482</ele>
        <time>2021-08-03T11:02:52.127Z</time>
      </trkpt>
      <trkpt lat="47.00583" lon="8.87131">
        <ele>1482</ele>
        <time>2021-08-03T11:02:53.127Z</time>
      </trkpt>
      <trkpt lat="47.00583" lon="8.87131">
        <ele>1481</ele>
        <time>2021-08-03T11:02:57.250Z</time>
      </trkpt>
      <trkpt lat="47.00582" lon="8.87131">
        <ele>1481</ele>
        <time>2021-08-03T11:02:58.249Z</time>
      </trkpt>
      <trkpt lat="47.00581" lon="8.87131">
        <ele>1481</ele>
        <time>2021-08-03T11:02:59.250Z</time>
      </trkpt>
      <trkpt lat="47.0058" lon="8.87131">
        <ele>1481</ele>
        <time>2021-08-03T11:03:00.250Z</time>
      </trkpt>
      <trkpt lat="47.00579" lon="8.8713">
        <ele>1481</ele>
        <time>2021-08-03T11:03:01.250Z</time>
      </trkpt>
      <trkpt lat="47.00578" lon="8.8713">
        <ele>1480</ele>
        <time>2021-08-03T11:03:02.250Z</time>
      </trkpt>
      <trkpt lat="47.00577" lon="8.87129">
        <ele>1480</ele>
        <time>2021-08-03T11:03:03.249Z</time>
      </trkpt>
      <trkpt lat="47.00576" lon="8.87129">
        <ele>1480</ele>
        <time>2021-08-03T11:03:04.249Z</time>
      </trkpt>
      <trkpt lat="47.00575" lon="8.87129">
        <ele>1480</ele>
        <time>2021-08-03T11:03:05.250Z</time>
      </trkpt>
      <trkpt lat="47.00574" lon="8.87129">
        <ele>1480</ele>
        <time>2021-08-03T11:03:06.249Z</time>
      </trkpt>
      <trkpt lat="47.00573" lon="8.87128">
        <ele>1480</ele>
        <time>2021-08-03T11:03:07.249Z</time>
      </trkpt>
      <trkpt lat="47.00572" lon="8.87128">
        <ele>1480</ele>
        <time>2021-08-03T11:03:08.250Z</time>
      </trkpt>
      <trkpt lat="47.00571" lon="8.87128">
        <ele>1479</ele>
        <time>2021-08-03T11:03:09.249Z</time>
      </trkpt>
      <trkpt lat="47.0057" lon="8.87128">
        <ele>1479</ele>
        <time>2021-08-03T11:03:10.250Z</time>
      </trkpt>
      <trkpt lat="47.00569" lon="8.87127">
        <ele>1479</ele>
        <time>2021-08-03T11:03:11.250Z</time>
      </trkpt>
      <trkpt lat="47.00568" lon="8.87127">
        <ele>1479</ele>
        <time>2021-08-03T11:03:12.249Z</time>
      </trkpt>
      <trkpt lat="47.00567" lon="8.87127">
        <ele>1479</ele>
        <time>2021-08-03T11:03:13.250Z</time>
      </trkpt>
      <trkpt lat="47.00565" lon="8.87127">
        <ele>1480</ele>
        <time>2021-08-03T11:03:14.250Z</time>
      </trkpt>
      <trkpt lat="47.00565" lon="8.87127">
        <ele>1480</ele>
        <time>2021-08-03T11:03:15.249Z</time>
      </trkpt>
      <trkpt lat="47.00564" lon="8.87126">
        <ele>1480</ele>
        <time>2021-08-03T11:03:16.250Z</time>
      </trkpt>
      <trkpt lat="47.00563" lon="8.87127">
        <ele>1480</ele>
        <time>2021-08-03T11:03:17.250Z</time>
      </trkpt>
      <trkpt lat="47.00562" lon="8.87127">
        <ele>1480</ele>
        <time>2021-08-03T11:03:18.250Z</time>
      </trkpt>
      <trkpt lat="47.00561" lon="8.87127">
        <ele>1481</ele>
        <time>2021-08-03T11:03:19.250Z</time>
      </trkpt>
      <trkpt lat="47.0056" lon="8.87127">
        <ele>1481</ele>
        <time>2021-08-03T11:03:20.249Z</time>
      </trkpt>
      <trkpt lat="47.00559" lon="8.87128">
        <ele>1481</ele>
        <time>2021-08-03T11:03:21.250Z</time>
      </trkpt>
      <trkpt lat="47.00559" lon="8.87128">
        <ele>1481</ele>
        <time>2021-08-03T11:03:22.250Z</time>
      </trkpt>
      <trkpt lat="47.00558" lon="8.87128">
        <ele>1480</ele>
        <time>2021-08-03T11:03:23.249Z</time>
      </trkpt>
      <trkpt lat="47.00558" lon="8.87128">
        <ele>1480</ele>
        <time>2021-08-03T11:03:24.250Z</time>
      </trkpt>
      <trkpt lat="47.00557" lon="8.87128">
        <ele>1480</ele>
        <time>2021-08-03T11:03:25.249Z</time>
      </trkpt>
      <trkpt lat="47.00557" lon="8.87128">
        <ele>1481</ele>
        <time>2021-08-03T11:03:26.250Z</time>
      </trkpt>
      <trkpt lat="47.00556" lon="8.87128">
        <ele>1482</ele>
        <time>2021-08-03T11:03:27.249Z</time>
      </trkpt>
      <trkpt lat="47.00555" lon="8.87128">
        <ele>1482</ele>
        <time>2021-08-03T11:03:28.250Z</time>
      </trkpt>
      <trkpt lat="47.00554" lon="8.87127">
        <ele>1483</ele>
        <time>2021-08-03T11:03:29.250Z</time>
      </trkpt>
      <trkpt lat="47.00554" lon="8.87127">
        <ele>1483</ele>
        <time>2021-08-03T11:03:30.249Z</time>
      </trkpt>
      <trkpt lat="47.00553" lon="8.87126">
        <ele>1483</ele>
        <time>2021-08-03T11:03:31.249Z</time>
      </trkpt>
      <trkpt lat="47.00552" lon="8.87126">
        <ele>1483</ele>
        <time>2021-08-03T11:03:32.249Z</time>
      </trkpt>
      <trkpt lat="47.00552" lon="8.87126">
        <ele>1483</ele>
        <time>2021-08-03T11:03:33.250Z</time>
      </trkpt>
      <trkpt lat="47.00551" lon="8.87126">
        <ele>1482</ele>
        <time>2021-08-03T11:03:34.249Z</time>
      </trkpt>
      <trkpt lat="47.0055" lon="8.87125">
        <ele>1482</ele>
        <time>2021-08-03T11:03:35.250Z</time>
      </trkpt>
      <trkpt lat="47.00549" lon="8.87125">
        <ele>1482</ele>
        <time>2021-08-03T11:03:36.250Z</time>
      </trkpt>
      <trkpt lat="47.00549" lon="8.87124">
        <ele>1482</ele>
        <time>2021-08-03T11:03:37.249Z</time>
      </trkpt>
      <trkpt lat="47.00548" lon="8.87124">
        <ele>1482</ele>
        <time>2021-08-03T11:03:38.250Z</time>
      </trkpt>
      <trkpt lat="47.00547" lon="8.87124">
        <ele>1481</ele>
        <time>2021-08-03T11:03:39.249Z</time>
      </trkpt>
      <trkpt lat="47.00546" lon="8.87124">
        <ele>1482</ele>
        <time>2021-08-03T11:03:40.249Z</time>
      </trkpt>
      <trkpt lat="47.00545" lon="8.87123">
        <ele>1482</ele>
        <time>2021-08-03T11:03:41.250Z</time>
      </trkpt>
      <trkpt lat="47.00544" lon="8.87124">
        <ele>1481</ele>
        <time>2021-08-03T11:03:42.249Z</time>
      </trkpt>
      <trkpt lat="47.00543" lon="8.87124">
        <ele>1481</ele>
        <time>2021-08-03T11:03:43.249Z</time>
      </trkpt>
      <trkpt lat="47.00542" lon="8.87124">
        <ele>1480</ele>
        <time>2021-08-03T11:03:44.250Z</time>
      </trkpt>
      <trkpt lat="47.00541" lon="8.87124">
        <ele>1480</ele>
        <time>2021-08-03T11:03:45.249Z</time>
      </trkpt>
      <trkpt lat="47.0054" lon="8.87124">
        <ele>1480</ele>
        <time>2021-08-03T11:03:46.249Z</time>
      </trkpt>
      <trkpt lat="47.00539" lon="8.87124">
        <ele>1480</ele>
        <time>2021-08-03T11:03:47.249Z</time>
      </trkpt>
      <trkpt lat="47.00538" lon="8.87124">
        <ele>1480</ele>
        <time>2021-08-03T11:03:48.250Z</time>
      </trkpt>
      <trkpt lat="47.00537" lon="8.87124">
        <ele>1479</ele>
        <time>2021-08-03T11:03:49.249Z</time>
      </trkpt>
      <trkpt lat="47.00537" lon="8.87124">
        <ele>1479</ele>
        <time>2021-08-03T11:03:50.250Z</time>
      </trkpt>
      <trkpt lat="47.00536" lon="8.87124">
        <ele>1479</ele>
        <time>2021-08-03T11:03:51.250Z</time>
      </trkpt>
      <trkpt lat="47.00536" lon="8.87124">
        <ele>1479</ele>
        <time>2021-08-03T11:03:52.249Z</time>
      </trkpt>
      <trkpt lat="47.00535" lon="8.87124">
        <ele>1479</ele>
        <time>2021-08-03T11:03:53.250Z</time>
      </trkpt>
      <trkpt lat="47.00534" lon="8.87124">
        <ele>1478</ele>
        <time>2021-08-03T11:03:54.249Z</time>
      </trkpt>
      <trkpt lat="47.00534" lon="8.87124">
        <ele>1478</ele>
        <time>2021-08-03T11:03:55.249Z</time>
      </trkpt>
      <trkpt lat="47.00533" lon="8.87123">
        <ele>1479</ele>
        <time>2021-08-03T11:03:56.249Z</time>
      </trkpt>
      <trkpt lat="47.00532" lon="8.87123">
        <ele>1479</ele>
        <time>2021-08-03T11:03:57.250Z</time>
      </trkpt>
      <trkpt lat="47.00531" lon="8.87122">
        <ele>1480</ele>
        <time>2021-08-03T11:03:58.249Z</time>
      </trkpt>
      <trkpt lat="47.00531" lon="8.87122">
        <ele>1481</ele>
        <time>2021-08-03T11:03:59.250Z</time>
      </trkpt>
      <trkpt lat="47.0053" lon="8.87122">
        <ele>1481</ele>
        <time>2021-08-03T11:04:00.249Z</time>
      </trkpt>
      <trkpt lat="47.00529" lon="8.87122">
        <ele>1481</ele>
        <time>2021-08-03T11:04:02.227Z</time>
      </trkpt>
      <trkpt lat="47.00528" lon="8.87122">
        <ele>1482</ele>
        <time>2021-08-03T11:04:03.226Z</time>
      </trkpt>
      <trkpt lat="47.00527" lon="8.87122">
        <ele>1482</ele>
        <time>2021-08-03T11:04:04.226Z</time>
      </trkpt>
      <trkpt lat="47.00526" lon="8.87121">
        <ele>1481</ele>
        <time>2021-08-03T11:04:05.227Z</time>
      </trkpt>
      <trkpt lat="47.00525" lon="8.87121">
        <ele>1481</ele>
        <time>2021-08-03T11:04:06.226Z</time>
      </trkpt>
      <trkpt lat="47.00524" lon="8.8712">
        <ele>1481</ele>
        <time>2021-08-03T11:04:07.226Z</time>
      </trkpt>
      <trkpt lat="47.00523" lon="8.8712">
        <ele>1481</ele>
        <time>2021-08-03T11:04:08.227Z</time>
      </trkpt>
      <trkpt lat="47.00522" lon="8.8712">
        <ele>1481</ele>
        <time>2021-08-03T11:04:09.226Z</time>
      </trkpt>
      <trkpt lat="47.00522" lon="8.87119">
        <ele>1480</ele>
        <time>2021-08-03T11:04:10.227Z</time>
      </trkpt>
      <trkpt lat="47.0052" lon="8.87118">
        <ele>1480</ele>
        <time>2021-08-03T11:04:11.226Z</time>
      </trkpt>
      <trkpt lat="47.0052" lon="8.87118">
        <ele>1480</ele>
        <time>2021-08-03T11:04:12.226Z</time>
      </trkpt>
      <trkpt lat="47.00519" lon="8.87117">
        <ele>1479</ele>
        <time>2021-08-03T11:04:13.226Z</time>
      </trkpt>
      <trkpt lat="47.00518" lon="8.87116">
        <ele>1479</ele>
        <time>2021-08-03T11:04:14.227Z</time>
      </trkpt>
      <trkpt lat="47.00517" lon="8.87116">
        <ele>1479</ele>
        <time>2021-08-03T11:04:15.226Z</time>
      </trkpt>
      <trkpt lat="47.00516" lon="8.87115">
        <ele>1479</ele>
        <time>2021-08-03T11:04:16.226Z</time>
      </trkpt>
      <trkpt lat="47.00515" lon="8.87115">
        <ele>1479</ele>
        <time>2021-08-03T11:04:17.227Z</time>
      </trkpt>
      <trkpt lat="47.00514" lon="8.87115">
        <ele>1479</ele>
        <time>2021-08-03T11:04:18.227Z</time>
      </trkpt>
      <trkpt lat="47.00513" lon="8.87114">
        <ele>1479</ele>
        <time>2021-08-03T11:04:19.227Z</time>
      </trkpt>
      <trkpt lat="47.00512" lon="8.87114">
        <ele>1478</ele>
        <time>2021-08-03T11:04:20.226Z</time>
      </trkpt>
      <trkpt lat="47.00512" lon="8.87113">
        <ele>1479</ele>
        <time>2021-08-03T11:04:21.226Z</time>
      </trkpt>
      <trkpt lat="47.00511" lon="8.87113">
        <ele>1479</ele>
        <time>2021-08-03T11:04:22.226Z</time>
      </trkpt>
      <trkpt lat="47.00511" lon="8.87113">
        <ele>1480</ele>
        <time>2021-08-03T11:04:23.227Z</time>
      </trkpt>
      <trkpt lat="47.00511" lon="8.87113">
        <ele>1481</ele>
        <time>2021-08-03T11:04:24.227Z</time>
      </trkpt>
      <trkpt lat="47.0051" lon="8.87112">
        <ele>1482</ele>
        <time>2021-08-03T11:04:25.226Z</time>
      </trkpt>
      <trkpt lat="47.00509" lon="8.87112">
        <ele>1482</ele>
        <time>2021-08-03T11:04:26.226Z</time>
      </trkpt>
      <trkpt lat="47.00508" lon="8.87112">
        <ele>1481</ele>
        <time>2021-08-03T11:04:27.226Z</time>
      </trkpt>
      <trkpt lat="47.00508" lon="8.87112">
        <ele>1481</ele>
        <time>2021-08-03T11:04:28.227Z</time>
      </trkpt>
      <trkpt lat="47.00507" lon="8.87112">
        <ele>1480</ele>
        <time>2021-08-03T11:04:29.227Z</time>
      </trkpt>
      <trkpt lat="47.00507" lon="8.87112">
        <ele>1479</ele>
        <time>2021-08-03T11:04:30.227Z</time>
      </trkpt>
      <trkpt lat="47.00505" lon="8.87112">
        <ele>1479</ele>
        <time>2021-08-03T11:04:31.227Z</time>
      </trkpt>
      <trkpt lat="47.00504" lon="8.87113">
        <ele>1478</ele>
        <time>2021-08-03T11:04:32.227Z</time>
      </trkpt>
      <trkpt lat="47.00504" lon="8.87114">
        <ele>1478</ele>
        <time>2021-08-03T11:04:33.227Z</time>
      </trkpt>
      <trkpt lat="47.00503" lon="8.87115">
        <ele>1478</ele>
        <time>2021-08-03T11:04:34.226Z</time>
      </trkpt>
      <trkpt lat="47.00502" lon="8.87116">
        <ele>1478</ele>
        <time>2021-08-03T11:04:35.227Z</time>
      </trkpt>
      <trkpt lat="47.00501" lon="8.87116">
        <ele>1478</ele>
        <time>2021-08-03T11:04:36.226Z</time>
      </trkpt>
      <trkpt lat="47.005" lon="8.87117">
        <ele>1478</ele>
        <time>2021-08-03T11:04:37.227Z</time>
      </trkpt>
      <trkpt lat="47.00499" lon="8.87117">
        <ele>1478</ele>
        <time>2021-08-03T11:04:38.226Z</time>
      </trkpt>
      <trkpt lat="47.00498" lon="8.87117">
        <ele>1478</ele>
        <time>2021-08-03T11:04:39.227Z</time>
      </trkpt>
      <trkpt lat="47.00496" lon="8.87117">
        <ele>1478</ele>
        <time>2021-08-03T11:04:40.226Z</time>
      </trkpt>
      <trkpt lat="47.00495" lon="8.87117">
        <ele>1478</ele>
        <time>2021-08-03T11:04:41.226Z</time>
      </trkpt>
      <trkpt lat="47.00494" lon="8.87117">
        <ele>1478</ele>
        <time>2021-08-03T11:04:42.227Z</time>
      </trkpt>
      <trkpt lat="47.00493" lon="8.87117">
        <ele>1478</ele>
        <time>2021-08-03T11:04:43.227Z</time>
      </trkpt>
      <trkpt lat="47.00492" lon="8.87118">
        <ele>1478</ele>
        <time>2021-08-03T11:04:44.226Z</time>
      </trkpt>
      <trkpt lat="47.00491" lon="8.87118">
        <ele>1478</ele>
        <time>2021-08-03T11:04:45.226Z</time>
      </trkpt>
      <trkpt lat="47.0049" lon="8.87118">
        <ele>1477</ele>
        <time>2021-08-03T11:04:46.227Z</time>
      </trkpt>
      <trkpt lat="47.00489" lon="8.87118">
        <ele>1477</ele>
        <time>2021-08-03T11:04:47.226Z</time>
      </trkpt>
      <trkpt lat="47.00488" lon="8.87118">
        <ele>1477</ele>
        <time>2021-08-03T11:04:48.226Z</time>
      </trkpt>
      <trkpt lat="47.00488" lon="8.87118">
        <ele>1477</ele>
        <time>2021-08-03T11:04:49.226Z</time>
      </trkpt>
      <trkpt lat="47.00487" lon="8.87118">
        <ele>1476</ele>
        <time>2021-08-03T11:04:50.226Z</time>
      </trkpt>
      <trkpt lat="47.00486" lon="8.87118">
        <ele>1476</ele>
        <time>2021-08-03T11:04:51.227Z</time>
      </trkpt>
      <trkpt lat="47.00486" lon="8.87118">
        <ele>1476</ele>
        <time>2021-08-03T11:04:52.227Z</time>
      </trkpt>
      <trkpt lat="47.00485" lon="8.87117">
        <ele>1476</ele>
        <time>2021-08-03T11:04:53.227Z</time>
      </trkpt>
      <trkpt lat="47.00484" lon="8.87117">
        <ele>1476</ele>
        <time>2021-08-03T11:04:54.227Z</time>
      </trkpt>
      <trkpt lat="47.00483" lon="8.87117">
        <ele>1476</ele>
        <time>2021-08-03T11:04:55.227Z</time>
      </trkpt>
      <trkpt lat="47.00482" lon="8.87117">
        <ele>1476</ele>
        <time>2021-08-03T11:04:56.227Z</time>
      </trkpt>
      <trkpt lat="47.00482" lon="8.87117">
        <ele>1476</ele>
        <time>2021-08-03T11:04:57.226Z</time>
      </trkpt>
      <trkpt lat="47.00481" lon="8.87117">
        <ele>1476</ele>
        <time>2021-08-03T11:04:58.227Z</time>
      </trkpt>
      <trkpt lat="47.00481" lon="8.87117">
        <ele>1476</ele>
        <time>2021-08-03T11:04:59.226Z</time>
      </trkpt>
      <trkpt lat="47.0048" lon="8.87117">
        <ele>1476</ele>
        <time>2021-08-03T11:05:00.227Z</time>
      </trkpt>
      <trkpt lat="47.00479" lon="8.87117">
        <ele>1476</ele>
        <time>2021-08-03T11:05:01.226Z</time>
      </trkpt>
      <trkpt lat="47.00479" lon="8.87116">
        <ele>1476</ele>
        <time>2021-08-03T11:05:02.227Z</time>
      </trkpt>
      <trkpt lat="47.00478" lon="8.87116">
        <ele>1476</ele>
        <time>2021-08-03T11:05:03.227Z</time>
      </trkpt>
      <trkpt lat="47.00477" lon="8.87116">
        <ele>1477</ele>
        <time>2021-08-03T11:05:04.227Z</time>
      </trkpt>
      <trkpt lat="47.00477" lon="8.87116">
        <ele>1478</ele>
        <time>2021-08-03T11:05:05.227Z</time>
      </trkpt>
      <trkpt lat="47.00476" lon="8.87116">
        <ele>1478</ele>
        <time>2021-08-03T11:05:06.226Z</time>
      </trkpt>
      <trkpt lat="47.00475" lon="8.87116">
        <ele>1478</ele>
        <time>2021-08-03T11:05:07.227Z</time>
      </trkpt>
      <trkpt lat="47.00474" lon="8.87116">
        <ele>1478</ele>
        <time>2021-08-03T11:05:08.226Z</time>
      </trkpt>
      <trkpt lat="47.00474" lon="8.87116">
        <ele>1478</ele>
        <time>2021-08-03T11:05:09.226Z</time>
      </trkpt>
      <trkpt lat="47.00473" lon="8.87116">
        <ele>1478</ele>
        <time>2021-08-03T11:05:10.227Z</time>
      </trkpt>
      <trkpt lat="47.00473" lon="8.87115">
        <ele>1478</ele>
        <time>2021-08-03T11:05:11.226Z</time>
      </trkpt>
      <trkpt lat="47.00472" lon="8.87115">
        <ele>1478</ele>
        <time>2021-08-03T11:05:12.227Z</time>
      </trkpt>
      <trkpt lat="47.00471" lon="8.87115">
        <ele>1477</ele>
        <time>2021-08-03T11:05:13.226Z</time>
      </trkpt>
      <trkpt lat="47.00471" lon="8.87115">
        <ele>1477</ele>
        <time>2021-08-03T11:05:14.226Z</time>
      </trkpt>
      <trkpt lat="47.0047" lon="8.87114">
        <ele>1477</ele>
        <time>2021-08-03T11:05:15.226Z</time>
      </trkpt>
      <trkpt lat="47.0047" lon="8.87114">
        <ele>1477</ele>
        <time>2021-08-03T11:05:16.227Z</time>
      </trkpt>
      <trkpt lat="47.00469" lon="8.87114">
        <ele>1477</ele>
        <time>2021-08-03T11:05:17.226Z</time>
      </trkpt>
      <trkpt lat="47.00468" lon="8.87114">
        <ele>1478</ele>
        <time>2021-08-03T11:05:18.226Z</time>
      </trkpt>
      <trkpt lat="47.00467" lon="8.87113">
        <ele>1478</ele>
        <time>2021-08-03T11:05:19.227Z</time>
      </trkpt>
      <trkpt lat="47.00467" lon="8.87113">
        <ele>1478</ele>
        <time>2021-08-03T11:05:20.227Z</time>
      </trkpt>
      <trkpt lat="47.00466" lon="8.87112">
        <ele>1478</ele>
        <time>2021-08-03T11:05:21.227Z</time>
      </trkpt>
      <trkpt lat="47.00465" lon="8.87112">
        <ele>1478</ele>
        <time>2021-08-03T11:05:22.226Z</time>
      </trkpt>
      <trkpt lat="47.00463" lon="8.87112">
        <ele>1479</ele>
        <time>2021-08-03T11:05:23.227Z</time>
      </trkpt>
      <trkpt lat="47.00462" lon="8.87113">
        <ele>1479</ele>
        <time>2021-08-03T11:05:24.227Z</time>
      </trkpt>
      <trkpt lat="47.00461" lon="8.87113">
        <ele>1479</ele>
        <time>2021-08-03T11:05:25.227Z</time>
      </trkpt>
      <trkpt lat="47.0046" lon="8.87113">
        <ele>1479</ele>
        <time>2021-08-03T11:05:26.227Z</time>
      </trkpt>
      <trkpt lat="47.00459" lon="8.87113">
        <ele>1479</ele>
        <time>2021-08-03T11:05:27.227Z</time>
      </trkpt>
      <trkpt lat="47.00458" lon="8.87113">
        <ele>1479</ele>
        <time>2021-08-03T11:05:28.227Z</time>
      </trkpt>
      <trkpt lat="47.00456" lon="8.87113">
        <ele>1479</ele>
        <time>2021-08-03T11:05:29.226Z</time>
      </trkpt>
      <trkpt lat="47.00455" lon="8.87112">
        <ele>1480</ele>
        <time>2021-08-03T11:05:30.226Z</time>
      </trkpt>
      <trkpt lat="47.00454" lon="8.87113">
        <ele>1480</ele>
        <time>2021-08-03T11:05:31.227Z</time>
      </trkpt>
      <trkpt lat="47.00453" lon="8.87113">
        <ele>1480</ele>
        <time>2021-08-03T11:05:32.226Z</time>
      </trkpt>
      <trkpt lat="47.00452" lon="8.87113">
        <ele>1480</ele>
        <time>2021-08-03T11:05:33.226Z</time>
      </trkpt>
      <trkpt lat="47.00451" lon="8.87112">
        <ele>1480</ele>
        <time>2021-08-03T11:05:34.226Z</time>
      </trkpt>
      <trkpt lat="47.00449" lon="8.87112">
        <ele>1480</ele>
        <time>2021-08-03T11:05:35.227Z</time>
      </trkpt>
      <trkpt lat="47.00448" lon="8.87112">
        <ele>1480</ele>
        <time>2021-08-03T11:05:36.227Z</time>
      </trkpt>
      <trkpt lat="47.00447" lon="8.87113">
        <ele>1480</ele>
        <time>2021-08-03T11:05:37.227Z</time>
      </trkpt>
      <trkpt lat="47.00447" lon="8.87112">
        <ele>1480</ele>
        <time>2021-08-03T11:05:38.227Z</time>
      </trkpt>
      <trkpt lat="47.00446" lon="8.87112">
        <ele>1479</ele>
        <time>2021-08-03T11:05:39.226Z</time>
      </trkpt>
      <trkpt lat="47.00445" lon="8.87112">
        <ele>1480</ele>
        <time>2021-08-03T11:05:40.226Z</time>
      </trkpt>
      <trkpt lat="47.00444" lon="8.87111">
        <ele>1480</ele>
        <time>2021-08-03T11:05:41.227Z</time>
      </trkpt>
      <trkpt lat="47.00444" lon="8.87111">
        <ele>1480</ele>
        <time>2021-08-03T11:05:42.227Z</time>
      </trkpt>
      <trkpt lat="47.00443" lon="8.87111">
        <ele>1480</ele>
        <time>2021-08-03T11:05:43.227Z</time>
      </trkpt>
      <trkpt lat="47.00442" lon="8.87111">
        <ele>1480</ele>
        <time>2021-08-03T11:05:44.226Z</time>
      </trkpt>
      <trkpt lat="47.00441" lon="8.87111">
        <ele>1479</ele>
        <time>2021-08-03T11:05:45.227Z</time>
      </trkpt>
      <trkpt lat="47.00441" lon="8.87111">
        <ele>1479</ele>
        <time>2021-08-03T11:05:46.227Z</time>
      </trkpt>
      <trkpt lat="47.0044" lon="8.8711">
        <ele>1479</ele>
        <time>2021-08-03T11:05:47.226Z</time>
      </trkpt>
      <trkpt lat="47.0044" lon="8.8711">
        <ele>1478</ele>
        <time>2021-08-03T11:05:48.226Z</time>
      </trkpt>
      <trkpt lat="47.00439" lon="8.8711">
        <ele>1478</ele>
        <time>2021-08-03T11:05:49.226Z</time>
      </trkpt>
      <trkpt lat="47.00438" lon="8.87109">
        <ele>1478</ele>
        <time>2021-08-03T11:05:50.227Z</time>
      </trkpt>
      <trkpt lat="47.00437" lon="8.87109">
        <ele>1478</ele>
        <time>2021-08-03T11:05:51.227Z</time>
      </trkpt>
      <trkpt lat="47.00436" lon="8.87108">
        <ele>1478</ele>
        <time>2021-08-03T11:05:52.226Z</time>
      </trkpt>
      <trkpt lat="47.00436" lon="8.87108">
        <ele>1478</ele>
        <time>2021-08-03T11:05:53.227Z</time>
      </trkpt>
      <trkpt lat="47.00435" lon="8.87107">
        <ele>1478</ele>
        <time>2021-08-03T11:05:54.226Z</time>
      </trkpt>
      <trkpt lat="47.00435" lon="8.87107">
        <ele>1478</ele>
        <time>2021-08-03T11:05:55.226Z</time>
      </trkpt>
      <trkpt lat="47.00434" lon="8.87106">
        <ele>1478</ele>
        <time>2021-08-03T11:05:56.226Z</time>
      </trkpt>
      <trkpt lat="47.00434" lon="8.87106">
        <ele>1478</ele>
        <time>2021-08-03T11:05:57.226Z</time>
      </trkpt>
      <trkpt lat="47.00433" lon="8.87106">
        <ele>1478</ele>
        <time>2021-08-03T11:05:58.227Z</time>
      </trkpt>
      <trkpt lat="47.00432" lon="8.87105">
        <ele>1478</ele>
        <time>2021-08-03T11:05:59.226Z</time>
      </trkpt>
      <trkpt lat="47.00432" lon="8.87105">
        <ele>1478</ele>
        <time>2021-08-03T11:06:00.227Z</time>
      </trkpt>
      <trkpt lat="47.00431" lon="8.87104">
        <ele>1478</ele>
        <time>2021-08-03T11:06:01.227Z</time>
      </trkpt>
      <trkpt lat="47.00431" lon="8.87103">
        <ele>1478</ele>
        <time>2021-08-03T11:06:02.226Z</time>
      </trkpt>
      <trkpt lat="47.0043" lon="8.87102">
        <ele>1478</ele>
        <time>2021-08-03T11:06:03.227Z</time>
      </trkpt>
      <trkpt lat="47.00429" lon="8.87101">
        <ele>1478</ele>
        <time>2021-08-03T11:06:04.227Z</time>
      </trkpt>
      <trkpt lat="47.00428" lon="8.871">
        <ele>1478</ele>
        <time>2021-08-03T11:06:05.227Z</time>
      </trkpt>
      <trkpt lat="47.00427" lon="8.871">
        <ele>1478</ele>
        <time>2021-08-03T11:06:06.227Z</time>
      </trkpt>
      <trkpt lat="47.00426" lon="8.87099">
        <ele>1478</ele>
        <time>2021-08-03T11:06:07.227Z</time>
      </trkpt>
      <trkpt lat="47.00426" lon="8.87099">
        <ele>1478</ele>
        <time>2021-08-03T11:06:22.233Z</time>
      </trkpt>
      <trkpt lat="47.00425" lon="8.87098">
        <ele>1479</ele>
        <time>2021-08-03T11:06:23.233Z</time>
      </trkpt>
      <trkpt lat="47.00424" lon="8.87098">
        <ele>1479</ele>
        <time>2021-08-03T11:06:24.234Z</time>
      </trkpt>
      <trkpt lat="47.00423" lon="8.87097">
        <ele>1479</ele>
        <time>2021-08-03T11:06:25.234Z</time>
      </trkpt>
      <trkpt lat="47.00422" lon="8.87096">
        <ele>1479</ele>
        <time>2021-08-03T11:06:26.234Z</time>
      </trkpt>
      <trkpt lat="47.00421" lon="8.87095">
        <ele>1479</ele>
        <time>2021-08-03T11:06:27.234Z</time>
      </trkpt>
      <trkpt lat="47.00421" lon="8.87094">
        <ele>1480</ele>
        <time>2021-08-03T11:06:28.234Z</time>
      </trkpt>
      <trkpt lat="47.0042" lon="8.87094">
        <ele>1480</ele>
        <time>2021-08-03T11:06:29.234Z</time>
      </trkpt>
      <trkpt lat="47.00419" lon="8.87093">
        <ele>1479</ele>
        <time>2021-08-03T11:06:30.233Z</time>
      </trkpt>
      <trkpt lat="47.00418" lon="8.87093">
        <ele>1479</ele>
        <time>2021-08-03T11:06:31.233Z</time>
      </trkpt>
      <trkpt lat="47.00418" lon="8.87092">
        <ele>1478</ele>
        <time>2021-08-03T11:06:32.233Z</time>
      </trkpt>
      <trkpt lat="47.00418" lon="8.87092">
        <ele>1478</ele>
        <time>2021-08-03T11:06:33.234Z</time>
      </trkpt>
      <trkpt lat="47.00417" lon="8.87092">
        <ele>1477</ele>
        <time>2021-08-03T11:06:34.234Z</time>
      </trkpt>
      <trkpt lat="47.00416" lon="8.87091">
        <ele>1477</ele>
        <time>2021-08-03T11:06:35.233Z</time>
      </trkpt>
      <trkpt lat="47.00415" lon="8.87091">
        <ele>1477</ele>
        <time>2021-08-03T11:06:36.233Z</time>
      </trkpt>
      <trkpt lat="47.00414" lon="8.8709">
        <ele>1477</ele>
        <time>2021-08-03T11:06:37.233Z</time>
      </trkpt>
      <trkpt lat="47.00414" lon="8.87089">
        <ele>1477</ele>
        <time>2021-08-03T11:06:38.234Z</time>
      </trkpt>
      <trkpt lat="47.00413" lon="8.87088">
        <ele>1477</ele>
        <time>2021-08-03T11:06:39.233Z</time>
      </trkpt>
      <trkpt lat="47.00412" lon="8.87088">
        <ele>1477</ele>
        <time>2021-08-03T11:06:40.233Z</time>
      </trkpt>
      <trkpt lat="47.00412" lon="8.87087">
        <ele>1476</ele>
        <time>2021-08-03T11:06:41.234Z</time>
      </trkpt>
      <trkpt lat="47.00411" lon="8.87087">
        <ele>1477</ele>
        <time>2021-08-03T11:06:42.233Z</time>
      </trkpt>
      <trkpt lat="47.0041" lon="8.87086">
        <ele>1477</ele>
        <time>2021-08-03T11:06:43.233Z</time>
      </trkpt>
      <trkpt lat="47.0041" lon="8.87084">
        <ele>1477</ele>
        <time>2021-08-03T11:06:44.234Z</time>
      </trkpt>
      <trkpt lat="47.00409" lon="8.87083">
        <ele>1478</ele>
        <time>2021-08-03T11:06:45.233Z</time>
      </trkpt>
      <trkpt lat="47.00409" lon="8.87082">
        <ele>1478</ele>
        <time>2021-08-03T11:06:46.233Z</time>
      </trkpt>
      <trkpt lat="47.00408" lon="8.87081">
        <ele>1478</ele>
        <time>2021-08-03T11:06:47.233Z</time>
      </trkpt>
      <trkpt lat="47.00408" lon="8.87079">
        <ele>1478</ele>
        <time>2021-08-03T11:06:48.233Z</time>
      </trkpt>
      <trkpt lat="47.00407" lon="8.87078">
        <ele>1478</ele>
        <time>2021-08-03T11:06:49.234Z</time>
      </trkpt>
      <trkpt lat="47.00406" lon="8.87077">
        <ele>1478</ele>
        <time>2021-08-03T11:06:50.234Z</time>
      </trkpt>
      <trkpt lat="47.00405" lon="8.87076">
        <ele>1478</ele>
        <time>2021-08-03T11:06:51.233Z</time>
      </trkpt>
      <trkpt lat="47.00404" lon="8.87075">
        <ele>1478</ele>
        <time>2021-08-03T11:06:52.233Z</time>
      </trkpt>
      <trkpt lat="47.00404" lon="8.87074">
        <ele>1478</ele>
        <time>2021-08-03T11:06:53.234Z</time>
      </trkpt>
      <trkpt lat="47.00403" lon="8.87073">
        <ele>1478</ele>
        <time>2021-08-03T11:06:54.233Z</time>
      </trkpt>
      <trkpt lat="47.00403" lon="8.87072">
        <ele>1478</ele>
        <time>2021-08-03T11:06:55.233Z</time>
      </trkpt>
      <trkpt lat="47.00402" lon="8.87071">
        <ele>1479</ele>
        <time>2021-08-03T11:06:56.234Z</time>
      </trkpt>
      <trkpt lat="47.00401" lon="8.8707">
        <ele>1479</ele>
        <time>2021-08-03T11:06:57.233Z</time>
      </trkpt>
      <trkpt lat="47.004" lon="8.8707">
        <ele>1479</ele>
        <time>2021-08-03T11:06:58.233Z</time>
      </trkpt>
      <trkpt lat="47.004" lon="8.8707">
        <ele>1479</ele>
        <time>2021-08-03T11:06:59.233Z</time>
      </trkpt>
      <trkpt lat="47.004" lon="8.87069">
        <ele>1478</ele>
        <time>2021-08-03T11:07:00.233Z</time>
      </trkpt>
      <trkpt lat="47.00399" lon="8.87069">
        <ele>1478</ele>
        <time>2021-08-03T11:07:01.233Z</time>
      </trkpt>
      <trkpt lat="47.00399" lon="8.87068">
        <ele>1478</ele>
        <time>2021-08-03T11:07:02.233Z</time>
      </trkpt>
      <trkpt lat="47.00398" lon="8.87067">
        <ele>1478</ele>
        <time>2021-08-03T11:07:03.233Z</time>
      </trkpt>
      <trkpt lat="47.00397" lon="8.87066">
        <ele>1477</ele>
        <time>2021-08-03T11:07:04.234Z</time>
      </trkpt>
      <trkpt lat="47.00396" lon="8.87064">
        <ele>1477</ele>
        <time>2021-08-03T11:07:05.233Z</time>
      </trkpt>
      <trkpt lat="47.00395" lon="8.87062">
        <ele>1476</ele>
        <time>2021-08-03T11:07:06.234Z</time>
      </trkpt>
      <trkpt lat="47.00394" lon="8.87066">
        <ele>1482</ele>
        <time>2021-08-03T11:07:07.234Z</time>
      </trkpt>
      <trkpt lat="47.00394" lon="8.87066">
        <ele>1481</ele>
        <time>2021-08-03T11:07:08.234Z</time>
      </trkpt>
      <trkpt lat="47.00393" lon="8.87064">
        <ele>1481</ele>
        <time>2021-08-03T11:07:09.233Z</time>
      </trkpt>
      <trkpt lat="47.00393" lon="8.87063">
        <ele>1480</ele>
        <time>2021-08-03T11:07:10.234Z</time>
      </trkpt>
      <trkpt lat="47.00393" lon="8.87062">
        <ele>1480</ele>
        <time>2021-08-03T11:07:11.234Z</time>
      </trkpt>
      <trkpt lat="47.00393" lon="8.87062">
        <ele>1480</ele>
        <time>2021-08-03T11:07:12.233Z</time>
      </trkpt>
      <trkpt lat="47.00392" lon="8.87061">
        <ele>1480</ele>
        <time>2021-08-03T11:07:13.234Z</time>
      </trkpt>
      <trkpt lat="47.00392" lon="8.8706">
        <ele>1480</ele>
        <time>2021-08-03T11:07:14.234Z</time>
      </trkpt>
      <trkpt lat="47.00391" lon="8.87058">
        <ele>1481</ele>
        <time>2021-08-03T11:07:15.233Z</time>
      </trkpt>
      <trkpt lat="47.00391" lon="8.87057">
        <ele>1481</ele>
        <time>2021-08-03T11:07:16.234Z</time>
      </trkpt>
      <trkpt lat="47.0039" lon="8.87057">
        <ele>1481</ele>
        <time>2021-08-03T11:07:17.233Z</time>
      </trkpt>
      <trkpt lat="47.0039" lon="8.87057">
        <ele>1482</ele>
        <time>2021-08-03T11:07:18.234Z</time>
      </trkpt>
      <trkpt lat="47.00391" lon="8.87055">
        <ele>1483</ele>
        <time>2021-08-03T11:07:19.234Z</time>
      </trkpt>
      <trkpt lat="47.00392" lon="8.87055">
        <ele>1484</ele>
        <time>2021-08-03T11:07:20.234Z</time>
      </trkpt>
      <trkpt lat="47.00391" lon="8.87055">
        <ele>1484</ele>
        <time>2021-08-03T11:07:21.233Z</time>
      </trkpt>
      <trkpt lat="47.00391" lon="8.87054">
        <ele>1485</ele>
        <time>2021-08-03T11:07:22.234Z</time>
      </trkpt>
      <trkpt lat="47.0039" lon="8.87054">
        <ele>1486</ele>
        <time>2021-08-03T11:07:23.234Z</time>
      </trkpt>
      <trkpt lat="47.0039" lon="8.87054">
        <ele>1486</ele>
        <time>2021-08-03T11:07:24.234Z</time>
      </trkpt>
      <trkpt lat="47.00388" lon="8.87053">
        <ele>1487</ele>
        <time>2021-08-03T11:07:25.235Z</time>
      </trkpt>
      <trkpt lat="47.00388" lon="8.87053">
        <ele>1487</ele>
        <time>2021-08-03T11:07:26.235Z</time>
      </trkpt>
      <trkpt lat="47.00387" lon="8.87054">
        <ele>1487</ele>
        <time>2021-08-03T11:07:27.235Z</time>
      </trkpt>
      <trkpt lat="47.00387" lon="8.87054">
        <ele>1487</ele>
        <time>2021-08-03T11:07:28.234Z</time>
      </trkpt>
      <trkpt lat="47.00386" lon="8.87055">
        <ele>1487</ele>
        <time>2021-08-03T11:07:29.235Z</time>
      </trkpt>
      <trkpt lat="47.00386" lon="8.87055">
        <ele>1488</ele>
        <time>2021-08-03T11:07:30.235Z</time>
      </trkpt>
      <trkpt lat="47.00386" lon="8.87055">
        <ele>1489</ele>
        <time>2021-08-03T11:07:31.236Z</time>
      </trkpt>
      <trkpt lat="47.00388" lon="8.87055">
        <ele>1494</ele>
        <time>2021-08-03T11:07:32.235Z</time>
      </trkpt>
      <trkpt lat="47.00388" lon="8.87055">
        <ele>1494</ele>
        <time>2021-08-03T11:07:33.236Z</time>
      </trkpt>
      <trkpt lat="47.00388" lon="8.87056">
        <ele>1493</ele>
        <time>2021-08-03T11:07:34.235Z</time>
      </trkpt>
      <trkpt lat="47.00387" lon="8.87055">
        <ele>1493</ele>
        <time>2021-08-03T11:07:35.236Z</time>
      </trkpt>
      <trkpt lat="47.00386" lon="8.87054">
        <ele>1493</ele>
        <time>2021-08-03T11:07:36.235Z</time>
      </trkpt>
      <trkpt lat="47.00385" lon="8.87053">
        <ele>1493</ele>
        <time>2021-08-03T11:07:37.236Z</time>
      </trkpt>
      <trkpt lat="47.00385" lon="8.87053">
        <ele>1493</ele>
        <time>2021-08-03T11:07:38.236Z</time>
      </trkpt>
      <trkpt lat="47.00384" lon="8.87053">
        <ele>1493</ele>
        <time>2021-08-03T11:07:39.236Z</time>
      </trkpt>
      <trkpt lat="47.00384" lon="8.87054">
        <ele>1493</ele>
        <time>2021-08-03T11:07:40.236Z</time>
      </trkpt>
      <trkpt lat="47.00383" lon="8.87055">
        <ele>1492</ele>
        <time>2021-08-03T11:07:41.236Z</time>
      </trkpt>
      <trkpt lat="47.00383" lon="8.87057">
        <ele>1491</ele>
        <time>2021-08-03T11:07:42.236Z</time>
      </trkpt>
      <trkpt lat="47.00383" lon="8.87059">
        <ele>1491</ele>
        <time>2021-08-03T11:07:43.235Z</time>
      </trkpt>
      <trkpt lat="47.00383" lon="8.8706">
        <ele>1490</ele>
        <time>2021-08-03T11:07:44.236Z</time>
      </trkpt>
      <trkpt lat="47.00383" lon="8.8706">
        <ele>1489</ele>
        <time>2021-08-03T11:07:45.236Z</time>
      </trkpt>
      <trkpt lat="47.00384" lon="8.87059">
        <ele>1489</ele>
        <time>2021-08-03T11:07:46.237Z</time>
      </trkpt>
      <trkpt lat="47.00385" lon="8.87059">
        <ele>1489</ele>
        <time>2021-08-03T11:07:47.236Z</time>
      </trkpt>
      <trkpt lat="47.00385" lon="8.87058">
        <ele>1489</ele>
        <time>2021-08-03T11:07:48.236Z</time>
      </trkpt>
      <trkpt lat="47.00385" lon="8.87057">
        <ele>1489</ele>
        <time>2021-08-03T11:07:49.237Z</time>
      </trkpt>
      <trkpt lat="47.00384" lon="8.87056">
        <ele>1487</ele>
        <time>2021-08-03T11:07:50.236Z</time>
      </trkpt>
      <trkpt lat="47.00383" lon="8.87056">
        <ele>1486</ele>
        <time>2021-08-03T11:07:51.236Z</time>
      </trkpt>
      <trkpt lat="47.00383" lon="8.87056">
        <ele>1486</ele>
        <time>2021-08-03T11:07:52.236Z</time>
      </trkpt>
      <trkpt lat="47.00382" lon="8.87057">
        <ele>1486</ele>
        <time>2021-08-03T11:07:53.236Z</time>
      </trkpt>
      <trkpt lat="47.00382" lon="8.87059">
        <ele>1485</ele>
        <time>2021-08-03T11:07:54.236Z</time>
      </trkpt>
      <trkpt lat="47.00383" lon="8.8706">
        <ele>1485</ele>
        <time>2021-08-03T11:07:55.236Z</time>
      </trkpt>
      <trkpt lat="47.00383" lon="8.87061">
        <ele>1484</ele>
        <time>2021-08-03T11:07:56.236Z</time>
      </trkpt>
      <trkpt lat="47.00383" lon="8.87062">
        <ele>1484</ele>
        <time>2021-08-03T11:07:57.236Z</time>
      </trkpt>
      <trkpt lat="47.00383" lon="8.87063">
        <ele>1483</ele>
        <time>2021-08-03T11:07:58.236Z</time>
      </trkpt>
      <trkpt lat="47.00383" lon="8.87064">
        <ele>1483</ele>
        <time>2021-08-03T11:07:59.236Z</time>
      </trkpt>
      <trkpt lat="47.00383" lon="8.87065">
        <ele>1482</ele>
        <time>2021-08-03T11:08:00.236Z</time>
      </trkpt>
      <trkpt lat="47.00384" lon="8.87067">
        <ele>1481</ele>
        <time>2021-08-03T11:08:01.236Z</time>
      </trkpt>
      <trkpt lat="47.00384" lon="8.87068">
        <ele>1481</ele>
        <time>2021-08-03T11:08:02.236Z</time>
      </trkpt>
      <trkpt lat="47.00384" lon="8.87069">
        <ele>1480</ele>
        <time>2021-08-03T11:08:03.236Z</time>
      </trkpt>
      <trkpt lat="47.00384" lon="8.87071">
        <ele>1481</ele>
        <time>2021-08-03T11:08:04.236Z</time>
      </trkpt>
      <trkpt lat="47.00385" lon="8.87072">
        <ele>1481</ele>
        <time>2021-08-03T11:08:05.236Z</time>
      </trkpt>
      <trkpt lat="47.00385" lon="8.87073">
        <ele>1481</ele>
        <time>2021-08-03T11:08:06.236Z</time>
      </trkpt>
      <trkpt lat="47.00385" lon="8.87075">
        <ele>1481</ele>
        <time>2021-08-03T11:08:07.236Z</time>
      </trkpt>
      <trkpt lat="47.00385" lon="8.87076">
        <ele>1481</ele>
        <time>2021-08-03T11:08:08.236Z</time>
      </trkpt>
      <trkpt lat="47.00385" lon="8.87077">
        <ele>1481</ele>
        <time>2021-08-03T11:08:09.236Z</time>
      </trkpt>
      <trkpt lat="47.00385" lon="8.87078">
        <ele>1481</ele>
        <time>2021-08-03T11:08:10.236Z</time>
      </trkpt>
      <trkpt lat="47.00384" lon="8.87079">
        <ele>1481</ele>
        <time>2021-08-03T11:08:11.236Z</time>
      </trkpt>
      <trkpt lat="47.00384" lon="8.87079">
        <ele>1481</ele>
        <time>2021-08-03T11:08:12.236Z</time>
      </trkpt>
      <trkpt lat="47.00383" lon="8.87079">
        <ele>1482</ele>
        <time>2021-08-03T11:08:13.236Z</time>
      </trkpt>
      <trkpt lat="47.00383" lon="8.87079">
        <ele>1482</ele>
        <time>2021-08-03T11:08:14.236Z</time>
      </trkpt>
      <trkpt lat="47.00382" lon="8.8708">
        <ele>1482</ele>
        <time>2021-08-03T11:08:15.236Z</time>
      </trkpt>
      <trkpt lat="47.00381" lon="8.8708">
        <ele>1483</ele>
        <time>2021-08-03T11:08:16.236Z</time>
      </trkpt>
      <trkpt lat="47.0038" lon="8.8708">
        <ele>1483</ele>
        <time>2021-08-03T11:08:17.236Z</time>
      </trkpt>
      <trkpt lat="47.00379" lon="8.87079">
        <ele>1484</ele>
        <time>2021-08-03T11:08:18.236Z</time>
      </trkpt>
      <trkpt lat="47.00379" lon="8.87079">
        <ele>1484</ele>
        <time>2021-08-03T11:08:19.236Z</time>
      </trkpt>
      <trkpt lat="47.00378" lon="8.87079">
        <ele>1484</ele>
        <time>2021-08-03T11:08:20.236Z</time>
      </trkpt>
      <trkpt lat="47.00377" lon="8.87079">
        <ele>1484</ele>
        <time>2021-08-03T11:08:21.236Z</time>
      </trkpt>
      <trkpt lat="47.00377" lon="8.87079">
        <ele>1485</ele>
        <time>2021-08-03T11:08:22.236Z</time>
      </trkpt>
      <trkpt lat="47.00376" lon="8.87078">
        <ele>1485</ele>
        <time>2021-08-03T11:08:23.236Z</time>
      </trkpt>
      <trkpt lat="47.00376" lon="8.87078">
        <ele>1485</ele>
        <time>2021-08-03T11:08:24.236Z</time>
      </trkpt>
      <trkpt lat="47.00375" lon="8.87077">
        <ele>1485</ele>
        <time>2021-08-03T11:08:25.236Z</time>
      </trkpt>
      <trkpt lat="47.00375" lon="8.87076">
        <ele>1486</ele>
        <time>2021-08-03T11:08:26.236Z</time>
      </trkpt>
      <trkpt lat="47.00375" lon="8.87076">
        <ele>1486</ele>
        <time>2021-08-03T11:08:27.236Z</time>
      </trkpt>
      <trkpt lat="47.00374" lon="8.87075">
        <ele>1487</ele>
        <time>2021-08-03T11:08:28.236Z</time>
      </trkpt>
      <trkpt lat="47.00374" lon="8.87074">
        <ele>1487</ele>
        <time>2021-08-03T11:08:29.236Z</time>
      </trkpt>
      <trkpt lat="47.00374" lon="8.87073">
        <ele>1486</ele>
        <time>2021-08-03T11:08:30.236Z</time>
      </trkpt>
      <trkpt lat="47.00374" lon="8.87071">
        <ele>1486</ele>
        <time>2021-08-03T11:08:31.236Z</time>
      </trkpt>
      <trkpt lat="47.00374" lon="8.8707">
        <ele>1486</ele>
        <time>2021-08-03T11:08:32.236Z</time>
      </trkpt>
      <trkpt lat="47.00373" lon="8.87069">
        <ele>1486</ele>
        <time>2021-08-03T11:08:33.236Z</time>
      </trkpt>
      <trkpt lat="47.00372" lon="8.87068">
        <ele>1486</ele>
        <time>2021-08-03T11:08:34.236Z</time>
      </trkpt>
      <trkpt lat="47.00372" lon="8.87067">
        <ele>1485</ele>
        <time>2021-08-03T11:08:35.236Z</time>
      </trkpt>
      <trkpt lat="47.00371" lon="8.87066">
        <ele>1485</ele>
        <time>2021-08-03T11:08:36.236Z</time>
      </trkpt>
      <trkpt lat="47.00371" lon="8.87065">
        <ele>1485</ele>
        <time>2021-08-03T11:08:37.236Z</time>
      </trkpt>
      <trkpt lat="47.0037" lon="8.87064">
        <ele>1485</ele>
        <time>2021-08-03T11:08:38.236Z</time>
      </trkpt>
      <trkpt lat="47.0037" lon="8.87062">
        <ele>1485</ele>
        <time>2021-08-03T11:08:39.236Z</time>
      </trkpt>
      <trkpt lat="47.00369" lon="8.87061">
        <ele>1485</ele>
        <time>2021-08-03T11:08:40.236Z</time>
      </trkpt>
      <trkpt lat="47.00369" lon="8.8706">
        <ele>1485</ele>
        <time>2021-08-03T11:08:41.236Z</time>
      </trkpt>
      <trkpt lat="47.00368" lon="8.87059">
        <ele>1485</ele>
        <time>2021-08-03T11:08:42.236Z</time>
      </trkpt>
      <trkpt lat="47.00368" lon="8.87059">
        <ele>1486</ele>
        <time>2021-08-03T11:08:43.236Z</time>
      </trkpt>
      <trkpt lat="47.00367" lon="8.87058">
        <ele>1486</ele>
        <time>2021-08-03T11:08:44.236Z</time>
      </trkpt>
      <trkpt lat="47.00367" lon="8.87057">
        <ele>1486</ele>
        <time>2021-08-03T11:08:45.236Z</time>
      </trkpt>
      <trkpt lat="47.00366" lon="8.87056">
        <ele>1486</ele>
        <time>2021-08-03T11:08:46.236Z</time>
      </trkpt>
      <trkpt lat="47.00365" lon="8.87055">
        <ele>1486</ele>
        <time>2021-08-03T11:08:47.236Z</time>
      </trkpt>
      <trkpt lat="47.00364" lon="8.87055">
        <ele>1487</ele>
        <time>2021-08-03T11:08:48.236Z</time>
      </trkpt>
      <trkpt lat="47.00363" lon="8.87054">
        <ele>1488</ele>
        <time>2021-08-03T11:08:49.236Z</time>
      </trkpt>
      <trkpt lat="47.00362" lon="8.87054">
        <ele>1489</ele>
        <time>2021-08-03T11:08:50.236Z</time>
      </trkpt>
      <trkpt lat="47.00361" lon="8.87053">
        <ele>1489</ele>
        <time>2021-08-03T11:08:51.236Z</time>
      </trkpt>
      <trkpt lat="47.00361" lon="8.87052">
        <ele>1490</ele>
        <time>2021-08-03T11:08:52.236Z</time>
      </trkpt>
      <trkpt lat="47.0036" lon="8.87051">
        <ele>1490</ele>
        <time>2021-08-03T11:08:53.236Z</time>
      </trkpt>
      <trkpt lat="47.0036" lon="8.8705">
        <ele>1490</ele>
        <time>2021-08-03T11:08:54.236Z</time>
      </trkpt>
      <trkpt lat="47.00359" lon="8.87049">
        <ele>1490</ele>
        <time>2021-08-03T11:08:55.236Z</time>
      </trkpt>
      <trkpt lat="47.00358" lon="8.87048">
        <ele>1490</ele>
        <time>2021-08-03T11:08:56.236Z</time>
      </trkpt>
      <trkpt lat="47.00358" lon="8.87047">
        <ele>1490</ele>
        <time>2021-08-03T11:08:57.236Z</time>
      </trkpt>
      <trkpt lat="47.00357" lon="8.87047">
        <ele>1489</ele>
        <time>2021-08-03T11:08:58.236Z</time>
      </trkpt>
      <trkpt lat="47.00357" lon="8.87046">
        <ele>1489</ele>
        <time>2021-08-03T11:08:59.236Z</time>
      </trkpt>
      <trkpt lat="47.00356" lon="8.87045">
        <ele>1489</ele>
        <time>2021-08-03T11:09:00.236Z</time>
      </trkpt>
      <trkpt lat="47.00355" lon="8.87044">
        <ele>1490</ele>
        <time>2021-08-03T11:09:01.236Z</time>
      </trkpt>
      <trkpt lat="47.00355" lon="8.87043">
        <ele>1490</ele>
        <time>2021-08-03T11:09:02.236Z</time>
      </trkpt>
      <trkpt lat="47.00354" lon="8.87042">
        <ele>1491</ele>
        <time>2021-08-03T11:09:03.236Z</time>
      </trkpt>
      <trkpt lat="47.00353" lon="8.87042">
        <ele>1492</ele>
        <time>2021-08-03T11:09:04.236Z</time>
      </trkpt>
      <trkpt lat="47.00352" lon="8.87041">
        <ele>1491</ele>
        <time>2021-08-03T11:09:05.236Z</time>
      </trkpt>
      <trkpt lat="47.00352" lon="8.87041">
        <ele>1491</ele>
        <time>2021-08-03T11:09:06.236Z</time>
      </trkpt>
      <trkpt lat="47.00351" lon="8.8704">
        <ele>1491</ele>
        <time>2021-08-03T11:09:08.337Z</time>
      </trkpt>
      <trkpt lat="47.00351" lon="8.87039">
        <ele>1490</ele>
        <time>2021-08-03T11:09:14.224Z</time>
      </trkpt>
      <trkpt lat="47.0035" lon="8.87038">
        <ele>1490</ele>
        <time>2021-08-03T11:09:15.224Z</time>
      </trkpt>
      <trkpt lat="47.00349" lon="8.87038">
        <ele>1490</ele>
        <time>2021-08-03T11:09:16.224Z</time>
      </trkpt>
      <trkpt lat="47.00348" lon="8.87037">
        <ele>1491</ele>
        <time>2021-08-03T11:09:17.224Z</time>
      </trkpt>
      <trkpt lat="47.00348" lon="8.87036">
        <ele>1491</ele>
        <time>2021-08-03T11:09:18.224Z</time>
      </trkpt>
      <trkpt lat="47.00347" lon="8.87035">
        <ele>1491</ele>
        <time>2021-08-03T11:09:19.224Z</time>
      </trkpt>
      <trkpt lat="47.00347" lon="8.87035">
        <ele>1491</ele>
        <time>2021-08-03T11:09:20.224Z</time>
      </trkpt>
      <trkpt lat="47.00345" lon="8.87034">
        <ele>1491</ele>
        <time>2021-08-03T11:09:40.358Z</time>
      </trkpt>
      <trkpt lat="47.00345" lon="8.87034">
        <ele>1491</ele>
        <time>2021-08-03T11:09:41.358Z</time>
      </trkpt>
      <trkpt lat="47.00344" lon="8.87033">
        <ele>1490</ele>
        <time>2021-08-03T11:09:42.358Z</time>
      </trkpt>
      <trkpt lat="47.00343" lon="8.87033">
        <ele>1490</ele>
        <time>2021-08-03T11:09:43.358Z</time>
      </trkpt>
      <trkpt lat="47.00343" lon="8.87032">
        <ele>1490</ele>
        <time>2021-08-03T11:09:44.358Z</time>
      </trkpt>
      <trkpt lat="47.00342" lon="8.87032">
        <ele>1490</ele>
        <time>2021-08-03T11:09:45.358Z</time>
      </trkpt>
      <trkpt lat="47.00341" lon="8.87031">
        <ele>1490</ele>
        <time>2021-08-03T11:09:46.358Z</time>
      </trkpt>
      <trkpt lat="47.0034" lon="8.87031">
        <ele>1490</ele>
        <time>2021-08-03T11:09:47.358Z</time>
      </trkpt>
      <trkpt lat="47.0034" lon="8.8703">
        <ele>1491</ele>
        <time>2021-08-03T11:09:50.478Z</time>
      </trkpt>
      <trkpt lat="47.00339" lon="8.8703">
        <ele>1492</ele>
        <time>2021-08-03T11:09:51.478Z</time>
      </trkpt>
      <trkpt lat="47.00338" lon="8.87029">
        <ele>1493</ele>
        <time>2021-08-03T11:09:52.478Z</time>
      </trkpt>
      <trkpt lat="47.00337" lon="8.87029">
        <ele>1493</ele>
        <time>2021-08-03T11:09:53.478Z</time>
      </trkpt>
      <trkpt lat="47.00337" lon="8.87028">
        <ele>1494</ele>
        <time>2021-08-03T11:09:54.478Z</time>
      </trkpt>
      <trkpt lat="47.00336" lon="8.87028">
        <ele>1494</ele>
        <time>2021-08-03T11:09:55.478Z</time>
      </trkpt>
      <trkpt lat="47.00335" lon="8.87027">
        <ele>1495</ele>
        <time>2021-08-03T11:09:56.478Z</time>
      </trkpt>
      <trkpt lat="47.00334" lon="8.87026">
        <ele>1495</ele>
        <time>2021-08-03T11:09:57.478Z</time>
      </trkpt>
      <trkpt lat="47.00333" lon="8.87026">
        <ele>1495</ele>
        <time>2021-08-03T11:09:58.478Z</time>
      </trkpt>
      <trkpt lat="47.00333" lon="8.87025">
        <ele>1495</ele>
        <time>2021-08-03T11:09:59.478Z</time>
      </trkpt>
      <trkpt lat="47.00332" lon="8.87024">
        <ele>1496</ele>
        <time>2021-08-03T11:10:00.478Z</time>
      </trkpt>
      <trkpt lat="47.00331" lon="8.87023">
        <ele>1496</ele>
        <time>2021-08-03T11:10:01.478Z</time>
      </trkpt>
      <trkpt lat="47.00331" lon="8.87022">
        <ele>1497</ele>
        <time>2021-08-03T11:10:02.478Z</time>
      </trkpt>
      <trkpt lat="47.0033" lon="8.87022">
        <ele>1497</ele>
        <time>2021-08-03T11:10:04.602Z</time>
      </trkpt>
      <trkpt lat="47.00329" lon="8.87022">
        <ele>1498</ele>
        <time>2021-08-03T11:10:05.602Z</time>
      </trkpt>
      <trkpt lat="47.00328" lon="8.87021">
        <ele>1497</ele>
        <time>2021-08-03T11:10:06.602Z</time>
      </trkpt>
      <trkpt lat="47.00328" lon="8.8702">
        <ele>1496</ele>
        <time>2021-08-03T11:10:07.602Z</time>
      </trkpt>
      <trkpt lat="47.00327" lon="8.8702">
        <ele>1495</ele>
        <time>2021-08-03T11:10:10.605Z</time>
      </trkpt>
      <trkpt lat="47.00327" lon="8.87019">
        <ele>1494</ele>
        <time>2021-08-03T11:10:11.605Z</time>
      </trkpt>
      <trkpt lat="47.00326" lon="8.87019">
        <ele>1494</ele>
        <time>2021-08-03T11:10:12.605Z</time>
      </trkpt>
      <trkpt lat="47.00325" lon="8.87018">
        <ele>1493</ele>
        <time>2021-08-03T11:10:13.605Z</time>
      </trkpt>
      <trkpt lat="47.00325" lon="8.87018">
        <ele>1493</ele>
        <time>2021-08-03T11:10:14.605Z</time>
      </trkpt>
      <trkpt lat="47.00324" lon="8.87017">
        <ele>1493</ele>
        <time>2021-08-03T11:10:16.762Z</time>
      </trkpt>
      <trkpt lat="47.00323" lon="8.87017">
        <ele>1493</ele>
        <time>2021-08-03T11:10:17.762Z</time>
      </trkpt>
      <trkpt lat="47.00322" lon="8.87016">
        <ele>1494</ele>
        <time>2021-08-03T11:10:18.762Z</time>
      </trkpt>
      <trkpt lat="47.0032" lon="8.87015">
        <ele>1494</ele>
        <time>2021-08-03T11:10:19.762Z</time>
      </trkpt>
      <trkpt lat="47.00319" lon="8.87014">
        <ele>1495</ele>
        <time>2021-08-03T11:10:20.762Z</time>
      </trkpt>
      <trkpt lat="47.00319" lon="8.87014">
        <ele>1495</ele>
        <time>2021-08-03T11:10:21.762Z</time>
      </trkpt>
      <trkpt lat="47.00319" lon="8.87013">
        <ele>1495</ele>
        <time>2021-08-03T11:10:22.762Z</time>
      </trkpt>
      <trkpt lat="47.00319" lon="8.87013">
        <ele>1494</ele>
        <time>2021-08-03T11:10:23.762Z</time>
      </trkpt>
      <trkpt lat="47.00317" lon="8.87013">
        <ele>1494</ele>
        <time>2021-08-03T11:10:24.762Z</time>
      </trkpt>
      <trkpt lat="47.00316" lon="8.87012">
        <ele>1494</ele>
        <time>2021-08-03T11:10:25.762Z</time>
      </trkpt>
      <trkpt lat="47.00315" lon="8.87012">
        <ele>1494</ele>
        <time>2021-08-03T11:10:26.762Z</time>
      </trkpt>
      <trkpt lat="47.00314" lon="8.87011">
        <ele>1494</ele>
        <time>2021-08-03T11:10:27.762Z</time>
      </trkpt>
      <trkpt lat="47.00313" lon="8.87011">
        <ele>1494</ele>
        <time>2021-08-03T11:10:28.762Z</time>
      </trkpt>
      <trkpt lat="47.00312" lon="8.8701">
        <ele>1495</ele>
        <time>2021-08-03T11:10:29.762Z</time>
      </trkpt>
      <trkpt lat="47.00311" lon="8.8701">
        <ele>1495</ele>
        <time>2021-08-03T11:10:30.762Z</time>
      </trkpt>
      <trkpt lat="47.00309" lon="8.8701">
        <ele>1496</ele>
        <time>2021-08-03T11:10:31.762Z</time>
      </trkpt>
      <trkpt lat="47.00309" lon="8.8701">
        <ele>1496</ele>
        <time>2021-08-03T11:10:32.762Z</time>
      </trkpt>
      <trkpt lat="47.00308" lon="8.8701">
        <ele>1496</ele>
        <time>2021-08-03T11:10:33.762Z</time>
      </trkpt>
      <trkpt lat="47.00307" lon="8.87009">
        <ele>1497</ele>
        <time>2021-08-03T11:10:34.762Z</time>
      </trkpt>
      <trkpt lat="47.00306" lon="8.87009">
        <ele>1497</ele>
        <time>2021-08-03T11:10:35.762Z</time>
      </trkpt>
      <trkpt lat="47.00305" lon="8.87009">
        <ele>1497</ele>
        <time>2021-08-03T11:10:36.762Z</time>
      </trkpt>
      <trkpt lat="47.00303" lon="8.87009">
        <ele>1498</ele>
        <time>2021-08-03T11:10:37.762Z</time>
      </trkpt>
      <trkpt lat="47.00303" lon="8.87009">
        <ele>1498</ele>
        <time>2021-08-03T11:10:38.762Z</time>
      </trkpt>
      <trkpt lat="47.00302" lon="8.87008">
        <ele>1498</ele>
        <time>2021-08-03T11:10:39.762Z</time>
      </trkpt>
      <trkpt lat="47.003" lon="8.87008">
        <ele>1498</ele>
        <time>2021-08-03T11:10:40.762Z</time>
      </trkpt>
      <trkpt lat="47.00299" lon="8.87008">
        <ele>1498</ele>
        <time>2021-08-03T11:10:41.762Z</time>
      </trkpt>
      <trkpt lat="47.00298" lon="8.87007">
        <ele>1499</ele>
        <time>2021-08-03T11:10:42.762Z</time>
      </trkpt>
      <trkpt lat="47.00297" lon="8.87007">
        <ele>1499</ele>
        <time>2021-08-03T11:10:43.762Z</time>
      </trkpt>
      <trkpt lat="47.00297" lon="8.87007">
        <ele>1500</ele>
        <time>2021-08-03T11:10:44.762Z</time>
      </trkpt>
      <trkpt lat="47.00296" lon="8.87007">
        <ele>1500</ele>
        <time>2021-08-03T11:10:45.762Z</time>
      </trkpt>
      <trkpt lat="47.00295" lon="8.87006">
        <ele>1500</ele>
        <time>2021-08-03T11:10:46.762Z</time>
      </trkpt>
      <trkpt lat="47.00294" lon="8.87005">
        <ele>1501</ele>
        <time>2021-08-03T11:10:47.762Z</time>
      </trkpt>
      <trkpt lat="47.00294" lon="8.87004">
        <ele>1501</ele>
        <time>2021-08-03T11:10:48.762Z</time>
      </trkpt>
      <trkpt lat="47.00293" lon="8.87004">
        <ele>1501</ele>
        <time>2021-08-03T11:10:49.762Z</time>
      </trkpt>
      <trkpt lat="47.00293" lon="8.87003">
        <ele>1501</ele>
        <time>2021-08-03T11:10:50.762Z</time>
      </trkpt>
      <trkpt lat="47.00292" lon="8.87003">
        <ele>1501</ele>
        <time>2021-08-03T11:10:51.762Z</time>
      </trkpt>
      <trkpt lat="47.00291" lon="8.87002">
        <ele>1501</ele>
        <time>2021-08-03T11:10:52.762Z</time>
      </trkpt>
      <trkpt lat="47.0029" lon="8.87002">
        <ele>1501</ele>
        <time>2021-08-03T11:10:53.762Z</time>
      </trkpt>
      <trkpt lat="47.00289" lon="8.87001">
        <ele>1501</ele>
        <time>2021-08-03T11:10:54.762Z</time>
      </trkpt>
      <trkpt lat="47.00288" lon="8.87">
        <ele>1501</ele>
        <time>2021-08-03T11:10:55.762Z</time>
      </trkpt>
      <trkpt lat="47.00287" lon="8.86999">
        <ele>1502</ele>
        <time>2021-08-03T11:10:56.762Z</time>
      </trkpt>
      <trkpt lat="47.00286" lon="8.86999">
        <ele>1501</ele>
        <time>2021-08-03T11:10:57.762Z</time>
      </trkpt>
      <trkpt lat="47.00285" lon="8.86999">
        <ele>1502</ele>
        <time>2021-08-03T11:10:58.762Z</time>
      </trkpt>
      <trkpt lat="47.00285" lon="8.86999">
        <ele>1502</ele>
        <time>2021-08-03T11:10:59.762Z</time>
      </trkpt>
      <trkpt lat="47.00284" lon="8.86999">
        <ele>1502</ele>
        <time>2021-08-03T11:11:00.762Z</time>
      </trkpt>
      <trkpt lat="47.00283" lon="8.87">
        <ele>1502</ele>
        <time>2021-08-03T11:11:01.762Z</time>
      </trkpt>
      <trkpt lat="47.00282" lon="8.87001">
        <ele>1501</ele>
        <time>2021-08-03T11:11:02.762Z</time>
      </trkpt>
      <trkpt lat="47.00281" lon="8.87001">
        <ele>1501</ele>
        <time>2021-08-03T11:11:03.762Z</time>
      </trkpt>
      <trkpt lat="47.00281" lon="8.87002">
        <ele>1501</ele>
        <time>2021-08-03T11:11:04.762Z</time>
      </trkpt>
      <trkpt lat="47.00281" lon="8.87003">
        <ele>1501</ele>
        <time>2021-08-03T11:11:05.762Z</time>
      </trkpt>
      <trkpt lat="47.00281" lon="8.87003">
        <ele>1501</ele>
        <time>2021-08-03T11:11:06.762Z</time>
      </trkpt>
      <trkpt lat="47.0028" lon="8.87004">
        <ele>1502</ele>
        <time>2021-08-03T11:11:07.763Z</time>
      </trkpt>
      <trkpt lat="47.00279" lon="8.87">
        <ele>1496</ele>
        <time>2021-08-03T11:11:08.763Z</time>
      </trkpt>
      <trkpt lat="47.00279" lon="8.87">
        <ele>1496</ele>
        <time>2021-08-03T11:11:09.763Z</time>
      </trkpt>
      <trkpt lat="47.0028" lon="8.87003">
        <ele>1497</ele>
        <time>2021-08-03T11:11:10.764Z</time>
      </trkpt>
      <trkpt lat="47.0028" lon="8.87003">
        <ele>1497</ele>
        <time>2021-08-03T11:11:11.764Z</time>
      </trkpt>
      <trkpt lat="47.00279" lon="8.87004">
        <ele>1498</ele>
        <time>2021-08-03T11:11:12.764Z</time>
      </trkpt>
      <trkpt lat="47.00279" lon="8.87004">
        <ele>1499</ele>
        <time>2021-08-03T11:11:13.765Z</time>
      </trkpt>
      <trkpt lat="47.00279" lon="8.87004">
        <ele>1499</ele>
        <time>2021-08-03T11:11:14.764Z</time>
      </trkpt>
      <trkpt lat="47.0028" lon="8.87006">
        <ele>1498</ele>
        <time>2021-08-03T11:11:15.764Z</time>
      </trkpt>
      <trkpt lat="47.0028" lon="8.87006">
        <ele>1497</ele>
        <time>2021-08-03T11:11:16.764Z</time>
      </trkpt>
      <trkpt lat="47.00279" lon="8.87005">
        <ele>1497</ele>
        <time>2021-08-03T11:11:17.766Z</time>
      </trkpt>
      <trkpt lat="47.00279" lon="8.87005">
        <ele>1497</ele>
        <time>2021-08-03T11:11:18.765Z</time>
      </trkpt>
      <trkpt lat="47.00278" lon="8.87007">
        <ele>1498</ele>
        <time>2021-08-03T11:11:19.766Z</time>
      </trkpt>
      <trkpt lat="47.00277" lon="8.87008">
        <ele>1498</ele>
        <time>2021-08-03T11:11:20.765Z</time>
      </trkpt>
      <trkpt lat="47.00277" lon="8.87008">
        <ele>1498</ele>
        <time>2021-08-03T11:11:21.765Z</time>
      </trkpt>
      <trkpt lat="47.00276" lon="8.87009">
        <ele>1498</ele>
        <time>2021-08-03T11:11:22.766Z</time>
      </trkpt>
      <trkpt lat="47.00276" lon="8.8701">
        <ele>1498</ele>
        <time>2021-08-03T11:11:23.765Z</time>
      </trkpt>
      <trkpt lat="47.00276" lon="8.87011">
        <ele>1498</ele>
        <time>2021-08-03T11:11:24.765Z</time>
      </trkpt>
      <trkpt lat="47.00276" lon="8.87011">
        <ele>1499</ele>
        <time>2021-08-03T11:11:25.765Z</time>
      </trkpt>
      <trkpt lat="47.00276" lon="8.87012">
        <ele>1499</ele>
        <time>2021-08-03T11:11:26.765Z</time>
      </trkpt>
      <trkpt lat="47.00275" lon="8.87013">
        <ele>1500</ele>
        <time>2021-08-03T11:11:27.765Z</time>
      </trkpt>
      <trkpt lat="47.00274" lon="8.87014">
        <ele>1500</ele>
        <time>2021-08-03T11:11:28.766Z</time>
      </trkpt>
      <trkpt lat="47.00273" lon="8.87015">
        <ele>1501</ele>
        <time>2021-08-03T11:11:29.766Z</time>
      </trkpt>
      <trkpt lat="47.00273" lon="8.87016">
        <ele>1501</ele>
        <time>2021-08-03T11:11:30.765Z</time>
      </trkpt>
      <trkpt lat="47.00273" lon="8.87016">
        <ele>1501</ele>
        <time>2021-08-03T11:11:31.766Z</time>
      </trkpt>
      <trkpt lat="47.00272" lon="8.87017">
        <ele>1501</ele>
        <time>2021-08-03T11:11:32.765Z</time>
      </trkpt>
      <trkpt lat="47.00272" lon="8.87018">
        <ele>1500</ele>
        <time>2021-08-03T11:11:33.766Z</time>
      </trkpt>
      <trkpt lat="47.00272" lon="8.87019">
        <ele>1500</ele>
        <time>2021-08-03T11:11:34.766Z</time>
      </trkpt>
      <trkpt lat="47.00271" lon="8.87019">
        <ele>1500</ele>
        <time>2021-08-03T11:11:35.766Z</time>
      </trkpt>
      <trkpt lat="47.00271" lon="8.8702">
        <ele>1500</ele>
        <time>2021-08-03T11:11:39.849Z</time>
      </trkpt>
      <trkpt lat="47.00271" lon="8.87021">
        <ele>1500</ele>
        <time>2021-08-03T11:11:40.848Z</time>
      </trkpt>
      <trkpt lat="47.0027" lon="8.87022">
        <ele>1500</ele>
        <time>2021-08-03T11:11:41.849Z</time>
      </trkpt>
      <trkpt lat="47.0027" lon="8.87022">
        <ele>1499</ele>
        <time>2021-08-03T11:11:42.849Z</time>
      </trkpt>
      <trkpt lat="47.0027" lon="8.87023">
        <ele>1499</ele>
        <time>2021-08-03T11:11:43.848Z</time>
      </trkpt>
      <trkpt lat="47.0027" lon="8.87024">
        <ele>1499</ele>
        <time>2021-08-03T11:11:44.848Z</time>
      </trkpt>
      <trkpt lat="47.00269" lon="8.87025">
        <ele>1499</ele>
        <time>2021-08-03T11:11:45.848Z</time>
      </trkpt>
      <trkpt lat="47.00269" lon="8.87026">
        <ele>1499</ele>
        <time>2021-08-03T11:11:46.849Z</time>
      </trkpt>
      <trkpt lat="47.00268" lon="8.87027">
        <ele>1499</ele>
        <time>2021-08-03T11:11:47.848Z</time>
      </trkpt>
      <trkpt lat="47.00268" lon="8.87028">
        <ele>1498</ele>
        <time>2021-08-03T11:11:48.848Z</time>
      </trkpt>
      <trkpt lat="47.00267" lon="8.87029">
        <ele>1498</ele>
        <time>2021-08-03T11:11:49.848Z</time>
      </trkpt>
      <trkpt lat="47.00267" lon="8.87029">
        <ele>1498</ele>
        <time>2021-08-03T11:11:50.848Z</time>
      </trkpt>
      <trkpt lat="47.00267" lon="8.8703">
        <ele>1498</ele>
        <time>2021-08-03T11:11:51.849Z</time>
      </trkpt>
      <trkpt lat="47.00267" lon="8.87031">
        <ele>1497</ele>
        <time>2021-08-03T11:11:52.849Z</time>
      </trkpt>
      <trkpt lat="47.00266" lon="8.87031">
        <ele>1498</ele>
        <time>2021-08-03T11:11:55.840Z</time>
      </trkpt>
      <trkpt lat="47.00265" lon="8.87032">
        <ele>1498</ele>
        <time>2021-08-03T11:11:56.840Z</time>
      </trkpt>
      <trkpt lat="47.00265" lon="8.87033">
        <ele>1499</ele>
        <time>2021-08-03T11:11:57.841Z</time>
      </trkpt>
      <trkpt lat="47.00265" lon="8.87034">
        <ele>1500</ele>
        <time>2021-08-03T11:11:58.841Z</time>
      </trkpt>
      <trkpt lat="47.00264" lon="8.87034">
        <ele>1500</ele>
        <time>2021-08-03T11:11:59.840Z</time>
      </trkpt>
      <trkpt lat="47.00264" lon="8.87035">
        <ele>1501</ele>
        <time>2021-08-03T11:12:00.840Z</time>
      </trkpt>
      <trkpt lat="47.00263" lon="8.87035">
        <ele>1501</ele>
        <time>2021-08-03T11:12:01.841Z</time>
      </trkpt>
      <trkpt lat="47.00263" lon="8.87036">
        <ele>1502</ele>
        <time>2021-08-03T11:12:02.841Z</time>
      </trkpt>
      <trkpt lat="47.00262" lon="8.87036">
        <ele>1502</ele>
        <time>2021-08-03T11:12:03.841Z</time>
      </trkpt>
      <trkpt lat="47.00262" lon="8.87036">
        <ele>1503</ele>
        <time>2021-08-03T11:12:04.840Z</time>
      </trkpt>
      <trkpt lat="47.00261" lon="8.87036">
        <ele>1503</ele>
        <time>2021-08-03T11:12:05.841Z</time>
      </trkpt>
      <trkpt lat="47.00261" lon="8.87037">
        <ele>1503</ele>
        <time>2021-08-03T11:12:06.841Z</time>
      </trkpt>
      <trkpt lat="47.0026" lon="8.87037">
        <ele>1504</ele>
        <time>2021-08-03T11:12:07.841Z</time>
      </trkpt>
      <trkpt lat="47.00259" lon="8.87037">
        <ele>1504</ele>
        <time>2021-08-03T11:12:08.841Z</time>
      </trkpt>
      <trkpt lat="47.00259" lon="8.87038">
        <ele>1505</ele>
        <time>2021-08-03T11:12:09.841Z</time>
      </trkpt>
      <trkpt lat="47.00258" lon="8.87039">
        <ele>1505</ele>
        <time>2021-08-03T11:12:10.840Z</time>
      </trkpt>
      <trkpt lat="47.00258" lon="8.87039">
        <ele>1506</ele>
        <time>2021-08-03T11:12:11.840Z</time>
      </trkpt>
      <trkpt lat="47.00257" lon="8.8704">
        <ele>1506</ele>
        <time>2021-08-03T11:12:12.840Z</time>
      </trkpt>
      <trkpt lat="47.00257" lon="8.87041">
        <ele>1506</ele>
        <time>2021-08-03T11:12:13.841Z</time>
      </trkpt>
      <trkpt lat="47.00256" lon="8.87042">
        <ele>1506</ele>
        <time>2021-08-03T11:12:14.841Z</time>
      </trkpt>
      <trkpt lat="47.00256" lon="8.87042">
        <ele>1506</ele>
        <time>2021-08-03T11:12:15.841Z</time>
      </trkpt>
      <trkpt lat="47.00256" lon="8.87042">
        <ele>1506</ele>
        <time>2021-08-03T11:12:16.840Z</time>
      </trkpt>
      <trkpt lat="47.00255" lon="8.87043">
        <ele>1506</ele>
        <time>2021-08-03T11:12:17.840Z</time>
      </trkpt>
      <trkpt lat="47.00255" lon="8.87044">
        <ele>1506</ele>
        <time>2021-08-03T11:12:18.841Z</time>
      </trkpt>
      <trkpt lat="47.00254" lon="8.87044">
        <ele>1506</ele>
        <time>2021-08-03T11:12:19.840Z</time>
      </trkpt>
      <trkpt lat="47.00254" lon="8.87045">
        <ele>1506</ele>
        <time>2021-08-03T11:12:20.840Z</time>
      </trkpt>
      <trkpt lat="47.00254" lon="8.87046">
        <ele>1506</ele>
        <time>2021-08-03T11:12:21.840Z</time>
      </trkpt>
      <trkpt lat="47.00254" lon="8.87047">
        <ele>1506</ele>
        <time>2021-08-03T11:12:22.840Z</time>
      </trkpt>
      <trkpt lat="47.00253" lon="8.87047">
        <ele>1506</ele>
        <time>2021-08-03T11:12:23.841Z</time>
      </trkpt>
      <trkpt lat="47.00253" lon="8.87048">
        <ele>1506</ele>
        <time>2021-08-03T11:12:24.841Z</time>
      </trkpt>
      <trkpt lat="47.00252" lon="8.87049">
        <ele>1507</ele>
        <time>2021-08-03T11:12:29.019Z</time>
      </trkpt>
      <trkpt lat="47.00251" lon="8.87049">
        <ele>1507</ele>
        <time>2021-08-03T11:12:30.019Z</time>
      </trkpt>
      <trkpt lat="47.0025" lon="8.8705">
        <ele>1507</ele>
        <time>2021-08-03T11:12:31.018Z</time>
      </trkpt>
      <trkpt lat="47.0025" lon="8.87051">
        <ele>1507</ele>
        <time>2021-08-03T11:12:32.019Z</time>
      </trkpt>
      <trkpt lat="47.00249" lon="8.87052">
        <ele>1507</ele>
        <time>2021-08-03T11:12:36.084Z</time>
      </trkpt>
      <trkpt lat="47.00249" lon="8.87053">
        <ele>1507</ele>
        <time>2021-08-03T11:12:37.084Z</time>
      </trkpt>
      <trkpt lat="47.00248" lon="8.87054">
        <ele>1507</ele>
        <time>2021-08-03T11:12:38.083Z</time>
      </trkpt>
      <trkpt lat="47.00248" lon="8.87054">
        <ele>1507</ele>
        <time>2021-08-03T11:12:39.083Z</time>
      </trkpt>
      <trkpt lat="47.00247" lon="8.87054">
        <ele>1506</ele>
        <time>2021-08-03T11:12:40.084Z</time>
      </trkpt>
      <trkpt lat="47.00246" lon="8.87055">
        <ele>1506</ele>
        <time>2021-08-03T11:12:41.084Z</time>
      </trkpt>
      <trkpt lat="47.00246" lon="8.87055">
        <ele>1506</ele>
        <time>2021-08-03T11:12:42.084Z</time>
      </trkpt>
      <trkpt lat="47.00245" lon="8.87056">
        <ele>1506</ele>
        <time>2021-08-03T11:12:43.083Z</time>
      </trkpt>
      <trkpt lat="47.00245" lon="8.87056">
        <ele>1506</ele>
        <time>2021-08-03T11:12:44.083Z</time>
      </trkpt>
      <trkpt lat="47.00244" lon="8.87057">
        <ele>1506</ele>
        <time>2021-08-03T11:12:45.084Z</time>
      </trkpt>
      <trkpt lat="47.00244" lon="8.87057">
        <ele>1506</ele>
        <time>2021-08-03T11:12:52.147Z</time>
      </trkpt>
      <trkpt lat="47.00243" lon="8.87057">
        <ele>1506</ele>
        <time>2021-08-03T11:12:53.147Z</time>
      </trkpt>
      <trkpt lat="47.00242" lon="8.87057">
        <ele>1506</ele>
        <time>2021-08-03T11:12:54.148Z</time>
      </trkpt>
      <trkpt lat="47.00241" lon="8.87057">
        <ele>1506</ele>
        <time>2021-08-03T11:12:55.148Z</time>
      </trkpt>
      <trkpt lat="47.00241" lon="8.87058">
        <ele>1506</ele>
        <time>2021-08-03T11:12:56.147Z</time>
      </trkpt>
      <trkpt lat="47.0024" lon="8.87058">
        <ele>1507</ele>
        <time>2021-08-03T11:12:57.148Z</time>
      </trkpt>
      <trkpt lat="47.00239" lon="8.87058">
        <ele>1507</ele>
        <time>2021-08-03T11:12:58.148Z</time>
      </trkpt>
      <trkpt lat="47.00238" lon="8.87058">
        <ele>1507</ele>
        <time>2021-08-03T11:12:59.147Z</time>
      </trkpt>
      <trkpt lat="47.00237" lon="8.87058">
        <ele>1508</ele>
        <time>2021-08-03T11:13:00.148Z</time>
      </trkpt>
      <trkpt lat="47.00236" lon="8.87058">
        <ele>1508</ele>
        <time>2021-08-03T11:13:01.148Z</time>
      </trkpt>
      <trkpt lat="47.00236" lon="8.87059">
        <ele>1509</ele>
        <time>2021-08-03T11:13:02.147Z</time>
      </trkpt>
      <trkpt lat="47.00235" lon="8.87058">
        <ele>1509</ele>
        <time>2021-08-03T11:13:03.148Z</time>
      </trkpt>
      <trkpt lat="47.00234" lon="8.87058">
        <ele>1509</ele>
        <time>2021-08-03T11:13:04.147Z</time>
      </trkpt>
      <trkpt lat="47.00234" lon="8.87058">
        <ele>1509</ele>
        <time>2021-08-03T11:13:05.148Z</time>
      </trkpt>
      <trkpt lat="47.00233" lon="8.87058">
        <ele>1509</ele>
        <time>2021-08-03T11:13:06.148Z</time>
      </trkpt>
      <trkpt lat="47.00232" lon="8.87058">
        <ele>1509</ele>
        <time>2021-08-03T11:13:07.147Z</time>
      </trkpt>
      <trkpt lat="47.00231" lon="8.87059">
        <ele>1510</ele>
        <time>2021-08-03T11:13:08.148Z</time>
      </trkpt>
      <trkpt lat="47.00231" lon="8.87058">
        <ele>1510</ele>
        <time>2021-08-03T11:13:09.147Z</time>
      </trkpt>
      <trkpt lat="47.0023" lon="8.87058">
        <ele>1509</ele>
        <time>2021-08-03T11:13:10.148Z</time>
      </trkpt>
      <trkpt lat="47.00229" lon="8.87058">
        <ele>1509</ele>
        <time>2021-08-03T11:13:11.147Z</time>
      </trkpt>
      <trkpt lat="47.00228" lon="8.87058">
        <ele>1509</ele>
        <time>2021-08-03T11:13:12.147Z</time>
      </trkpt>
      <trkpt lat="47.00227" lon="8.87058">
        <ele>1508</ele>
        <time>2021-08-03T11:13:13.147Z</time>
      </trkpt>
      <trkpt lat="47.00227" lon="8.87058">
        <ele>1508</ele>
        <time>2021-08-03T11:13:14.148Z</time>
      </trkpt>
      <trkpt lat="47.00226" lon="8.87059">
        <ele>1509</ele>
        <time>2021-08-03T11:13:15.148Z</time>
      </trkpt>
      <trkpt lat="47.00225" lon="8.87059">
        <ele>1509</ele>
        <time>2021-08-03T11:13:16.147Z</time>
      </trkpt>
      <trkpt lat="47.00225" lon="8.87059">
        <ele>1508</ele>
        <time>2021-08-03T11:13:17.147Z</time>
      </trkpt>
      <trkpt lat="47.00224" lon="8.87059">
        <ele>1508</ele>
        <time>2021-08-03T11:13:18.148Z</time>
      </trkpt>
      <trkpt lat="47.00223" lon="8.87059">
        <ele>1507</ele>
        <time>2021-08-03T11:13:19.148Z</time>
      </trkpt>
      <trkpt lat="47.00223" lon="8.8706">
        <ele>1507</ele>
        <time>2021-08-03T11:13:20.148Z</time>
      </trkpt>
      <trkpt lat="47.00222" lon="8.8706">
        <ele>1507</ele>
        <time>2021-08-03T11:13:21.147Z</time>
      </trkpt>
      <trkpt lat="47.00221" lon="8.8706">
        <ele>1508</ele>
        <time>2021-08-03T11:13:22.148Z</time>
      </trkpt>
      <trkpt lat="47.0022" lon="8.8706">
        <ele>1508</ele>
        <time>2021-08-03T11:13:29.248Z</time>
      </trkpt>
      <trkpt lat="47.00219" lon="8.8706">
        <ele>1508</ele>
        <time>2021-08-03T11:13:30.247Z</time>
      </trkpt>
      <trkpt lat="47.00219" lon="8.8706">
        <ele>1509</ele>
        <time>2021-08-03T11:13:31.248Z</time>
      </trkpt>
      <trkpt lat="47.00218" lon="8.8706">
        <ele>1509</ele>
        <time>2021-08-03T11:13:33.255Z</time>
      </trkpt>
      <trkpt lat="47.00217" lon="8.8706">
        <ele>1509</ele>
        <time>2021-08-03T11:13:34.254Z</time>
      </trkpt>
      <trkpt lat="47.00216" lon="8.8706">
        <ele>1510</ele>
        <time>2021-08-03T11:13:35.254Z</time>
      </trkpt>
      <trkpt lat="47.00215" lon="8.8706">
        <ele>1510</ele>
        <time>2021-08-03T11:13:36.254Z</time>
      </trkpt>
      <trkpt lat="47.00214" lon="8.8706">
        <ele>1510</ele>
        <time>2021-08-03T11:13:37.254Z</time>
      </trkpt>
      <trkpt lat="47.00213" lon="8.87059">
        <ele>1509</ele>
        <time>2021-08-03T11:13:38.255Z</time>
      </trkpt>
      <trkpt lat="47.00212" lon="8.87059">
        <ele>1509</ele>
        <time>2021-08-03T11:13:39.255Z</time>
      </trkpt>
      <trkpt lat="47.00211" lon="8.87058">
        <ele>1509</ele>
        <time>2021-08-03T11:13:40.254Z</time>
      </trkpt>
      <trkpt lat="47.0021" lon="8.87058">
        <ele>1509</ele>
        <time>2021-08-03T11:13:41.254Z</time>
      </trkpt>
      <trkpt lat="47.00209" lon="8.87059">
        <ele>1509</ele>
        <time>2021-08-03T11:13:42.254Z</time>
      </trkpt>
      <trkpt lat="47.00208" lon="8.87059">
        <ele>1510</ele>
        <time>2021-08-03T11:13:43.255Z</time>
      </trkpt>
      <trkpt lat="47.00207" lon="8.87058">
        <ele>1510</ele>
        <time>2021-08-03T11:13:44.254Z</time>
      </trkpt>
      <trkpt lat="47.00207" lon="8.87058">
        <ele>1511</ele>
        <time>2021-08-03T11:13:45.254Z</time>
      </trkpt>
      <trkpt lat="47.00206" lon="8.87058">
        <ele>1512</ele>
        <time>2021-08-03T11:13:46.254Z</time>
      </trkpt>
      <trkpt lat="47.00206" lon="8.87058">
        <ele>1513</ele>
        <time>2021-08-03T11:13:50.344Z</time>
      </trkpt>
      <trkpt lat="47.00205" lon="8.87059">
        <ele>1513</ele>
        <time>2021-08-03T11:13:51.345Z</time>
      </trkpt>
      <trkpt lat="47.00205" lon="8.87059">
        <ele>1513</ele>
        <time>2021-08-03T11:14:03.244Z</time>
      </trkpt>
      <trkpt lat="47.00204" lon="8.8706">
        <ele>1513</ele>
        <time>2021-08-03T11:14:04.245Z</time>
      </trkpt>
      <trkpt lat="47.00204" lon="8.8706">
        <ele>1513</ele>
        <time>2021-08-03T11:14:05.245Z</time>
      </trkpt>
      <trkpt lat="47.00204" lon="8.8706">
        <ele>1513</ele>
        <time>2021-08-03T11:14:06.244Z</time>
      </trkpt>
      <trkpt lat="47.00203" lon="8.8706">
        <ele>1513</ele>
        <time>2021-08-03T11:14:07.245Z</time>
      </trkpt>
      <trkpt lat="47.00202" lon="8.8706">
        <ele>1513</ele>
        <time>2021-08-03T11:14:08.244Z</time>
      </trkpt>
      <trkpt lat="47.00201" lon="8.8706">
        <ele>1514</ele>
        <time>2021-08-03T11:14:09.244Z</time>
      </trkpt>
      <trkpt lat="47.00201" lon="8.8706">
        <ele>1514</ele>
        <time>2021-08-03T11:14:10.245Z</time>
      </trkpt>
      <trkpt lat="47.002" lon="8.8706">
        <ele>1514</ele>
        <time>2021-08-03T11:14:11.245Z</time>
      </trkpt>
      <trkpt lat="47.00199" lon="8.8706">
        <ele>1514</ele>
        <time>2021-08-03T11:14:12.245Z</time>
      </trkpt>
      <trkpt lat="47.00199" lon="8.8706">
        <ele>1514</ele>
        <time>2021-08-03T11:14:13.245Z</time>
      </trkpt>
      <trkpt lat="47.00198" lon="8.8706">
        <ele>1514</ele>
        <time>2021-08-03T11:14:14.245Z</time>
      </trkpt>
      <trkpt lat="47.00197" lon="8.8706">
        <ele>1515</ele>
        <time>2021-08-03T11:14:15.245Z</time>
      </trkpt>
      <trkpt lat="47.00196" lon="8.8706">
        <ele>1515</ele>
        <time>2021-08-03T11:14:16.245Z</time>
      </trkpt>
      <trkpt lat="47.00195" lon="8.8706">
        <ele>1515</ele>
        <time>2021-08-03T11:14:17.244Z</time>
      </trkpt>
      <trkpt lat="47.00194" lon="8.8706">
        <ele>1516</ele>
        <time>2021-08-03T11:14:18.244Z</time>
      </trkpt>
      <trkpt lat="47.00193" lon="8.8706">
        <ele>1516</ele>
        <time>2021-08-03T11:14:19.245Z</time>
      </trkpt>
      <trkpt lat="47.00192" lon="8.87059">
        <ele>1517</ele>
        <time>2021-08-03T11:14:20.244Z</time>
      </trkpt>
      <trkpt lat="47.00191" lon="8.87059">
        <ele>1517</ele>
        <time>2021-08-03T11:14:21.245Z</time>
      </trkpt>
      <trkpt lat="47.0019" lon="8.87059">
        <ele>1518</ele>
        <time>2021-08-03T11:14:22.245Z</time>
      </trkpt>
      <trkpt lat="47.00189" lon="8.87059">
        <ele>1518</ele>
        <time>2021-08-03T11:14:23.245Z</time>
      </trkpt>
      <trkpt lat="47.00189" lon="8.87059">
        <ele>1518</ele>
        <time>2021-08-03T11:14:24.244Z</time>
      </trkpt>
      <trkpt lat="47.00188" lon="8.87059">
        <ele>1519</ele>
        <time>2021-08-03T11:14:25.244Z</time>
      </trkpt>
      <trkpt lat="47.00187" lon="8.87059">
        <ele>1519</ele>
        <time>2021-08-03T11:14:31.390Z</time>
      </trkpt>
      <trkpt lat="47.00186" lon="8.87059">
        <ele>1519</ele>
        <time>2021-08-03T11:14:32.390Z</time>
      </trkpt>
      <trkpt lat="47.00185" lon="8.87059">
        <ele>1520</ele>
        <time>2021-08-03T11:14:33.391Z</time>
      </trkpt>
      <trkpt lat="47.00184" lon="8.87059">
        <ele>1520</ele>
        <time>2021-08-03T11:14:34.391Z</time>
      </trkpt>
      <trkpt lat="47.00183" lon="8.87059">
        <ele>1520</ele>
        <time>2021-08-03T11:14:35.390Z</time>
      </trkpt>
      <trkpt lat="47.00183" lon="8.87059">
        <ele>1520</ele>
        <time>2021-08-03T11:14:36.391Z</time>
      </trkpt>
      <trkpt lat="47.00182" lon="8.87059">
        <ele>1520</ele>
        <time>2021-08-03T11:14:37.390Z</time>
      </trkpt>
      <trkpt lat="47.00181" lon="8.87058">
        <ele>1520</ele>
        <time>2021-08-03T11:14:38.390Z</time>
      </trkpt>
      <trkpt lat="47.0018" lon="8.87058">
        <ele>1520</ele>
        <time>2021-08-03T11:14:39.391Z</time>
      </trkpt>
      <trkpt lat="47.00179" lon="8.87058">
        <ele>1520</ele>
        <time>2021-08-03T11:14:46.477Z</time>
      </trkpt>
      <trkpt lat="47.00179" lon="8.87058">
        <ele>1520</ele>
        <time>2021-08-03T11:14:47.478Z</time>
      </trkpt>
      <trkpt lat="47.00178" lon="8.87058">
        <ele>1519</ele>
        <time>2021-08-03T11:14:48.478Z</time>
      </trkpt>
      <trkpt lat="47.00177" lon="8.87059">
        <ele>1519</ele>
        <time>2021-08-03T11:14:49.477Z</time>
      </trkpt>
      <trkpt lat="47.00177" lon="8.87059">
        <ele>1518</ele>
        <time>2021-08-03T11:14:50.478Z</time>
      </trkpt>
      <trkpt lat="47.00176" lon="8.87059">
        <ele>1517</ele>
        <time>2021-08-03T11:14:51.477Z</time>
      </trkpt>
      <trkpt lat="47.00175" lon="8.8706">
        <ele>1517</ele>
        <time>2021-08-03T11:14:52.478Z</time>
      </trkpt>
      <trkpt lat="47.00175" lon="8.8706">
        <ele>1517</ele>
        <time>2021-08-03T11:14:53.477Z</time>
      </trkpt>
      <trkpt lat="47.00174" lon="8.87061">
        <ele>1516</ele>
        <time>2021-08-03T11:14:54.477Z</time>
      </trkpt>
      <trkpt lat="47.00173" lon="8.87061">
        <ele>1516</ele>
        <time>2021-08-03T11:14:55.478Z</time>
      </trkpt>
      <trkpt lat="47.00173" lon="8.87061">
        <ele>1516</ele>
        <time>2021-08-03T11:14:56.477Z</time>
      </trkpt>
      <trkpt lat="47.00172" lon="8.87061">
        <ele>1516</ele>
        <time>2021-08-03T11:14:57.477Z</time>
      </trkpt>
      <trkpt lat="47.00171" lon="8.87061">
        <ele>1516</ele>
        <time>2021-08-03T11:14:58.478Z</time>
      </trkpt>
      <trkpt lat="47.0017" lon="8.87061">
        <ele>1517</ele>
        <time>2021-08-03T11:14:59.478Z</time>
      </trkpt>
      <trkpt lat="47.00169" lon="8.87061">
        <ele>1517</ele>
        <time>2021-08-03T11:15:00.477Z</time>
      </trkpt>
      <trkpt lat="47.00169" lon="8.87061">
        <ele>1517</ele>
        <time>2021-08-03T11:15:01.477Z</time>
      </trkpt>
      <trkpt lat="47.00168" lon="8.87061">
        <ele>1517</ele>
        <time>2021-08-03T11:15:02.477Z</time>
      </trkpt>
      <trkpt lat="47.00167" lon="8.8706">
        <ele>1517</ele>
        <time>2021-08-03T11:15:03.477Z</time>
      </trkpt>
      <trkpt lat="47.00167" lon="8.8706">
        <ele>1517</ele>
        <time>2021-08-03T11:15:04.477Z</time>
      </trkpt>
      <trkpt lat="47.00167" lon="8.87059">
        <ele>1517</ele>
        <time>2021-08-03T11:15:05.477Z</time>
      </trkpt>
      <trkpt lat="47.00166" lon="8.87059">
        <ele>1517</ele>
        <time>2021-08-03T11:15:06.477Z</time>
      </trkpt>
      <trkpt lat="47.00166" lon="8.87059">
        <ele>1517</ele>
        <time>2021-08-03T11:15:07.477Z</time>
      </trkpt>
      <trkpt lat="47.00165" lon="8.87058">
        <ele>1518</ele>
        <time>2021-08-03T11:15:08.478Z</time>
      </trkpt>
      <trkpt lat="47.00165" lon="8.87057">
        <ele>1518</ele>
        <time>2021-08-03T11:15:09.477Z</time>
      </trkpt>
      <trkpt lat="47.00164" lon="8.87057">
        <ele>1519</ele>
        <time>2021-08-03T11:15:10.477Z</time>
      </trkpt>
      <trkpt lat="47.00163" lon="8.87056">
        <ele>1519</ele>
        <time>2021-08-03T11:15:11.478Z</time>
      </trkpt>
      <trkpt lat="47.00163" lon="8.87056">
        <ele>1520</ele>
        <time>2021-08-03T11:15:12.477Z</time>
      </trkpt>
      <trkpt lat="47.00162" lon="8.87056">
        <ele>1520</ele>
        <time>2021-08-03T11:15:13.477Z</time>
      </trkpt>
      <trkpt lat="47.00161" lon="8.87055">
        <ele>1520</ele>
        <time>2021-08-03T11:15:14.478Z</time>
      </trkpt>
      <trkpt lat="47.00161" lon="8.87054">
        <ele>1520</ele>
        <time>2021-08-03T11:15:15.478Z</time>
      </trkpt>
      <trkpt lat="47.0016" lon="8.87053">
        <ele>1520</ele>
        <time>2021-08-03T11:15:16.477Z</time>
      </trkpt>
      <trkpt lat="47.00159" lon="8.87053">
        <ele>1520</ele>
        <time>2021-08-03T11:15:17.478Z</time>
      </trkpt>
      <trkpt lat="47.00159" lon="8.87052">
        <ele>1520</ele>
        <time>2021-08-03T11:15:18.478Z</time>
      </trkpt>
      <trkpt lat="47.00158" lon="8.87052">
        <ele>1520</ele>
        <time>2021-08-03T11:15:19.477Z</time>
      </trkpt>
      <trkpt lat="47.00157" lon="8.87051">
        <ele>1520</ele>
        <time>2021-08-03T11:15:20.477Z</time>
      </trkpt>
      <trkpt lat="47.00157" lon="8.87051">
        <ele>1520</ele>
        <time>2021-08-03T11:15:21.478Z</time>
      </trkpt>
      <trkpt lat="47.00157" lon="8.87051">
        <ele>1521</ele>
        <time>2021-08-03T11:15:22.477Z</time>
      </trkpt>
      <trkpt lat="47.00156" lon="8.87051">
        <ele>1521</ele>
        <time>2021-08-03T11:15:23.477Z</time>
      </trkpt>
      <trkpt lat="47.00156" lon="8.8705">
        <ele>1521</ele>
        <time>2021-08-03T11:15:24.477Z</time>
      </trkpt>
      <trkpt lat="47.00155" lon="8.8705">
        <ele>1521</ele>
        <time>2021-08-03T11:15:25.478Z</time>
      </trkpt>
      <trkpt lat="47.00154" lon="8.8705">
        <ele>1521</ele>
        <time>2021-08-03T11:15:26.477Z</time>
      </trkpt>
      <trkpt lat="47.00153" lon="8.8705">
        <ele>1521</ele>
        <time>2021-08-03T11:15:27.477Z</time>
      </trkpt>
      <trkpt lat="47.00153" lon="8.8705">
        <ele>1521</ele>
        <time>2021-08-03T11:15:28.477Z</time>
      </trkpt>
      <trkpt lat="47.00152" lon="8.8705">
        <ele>1521</ele>
        <time>2021-08-03T11:15:29.478Z</time>
      </trkpt>
      <trkpt lat="47.00151" lon="8.87051">
        <ele>1522</ele>
        <time>2021-08-03T11:15:30.477Z</time>
      </trkpt>
      <trkpt lat="47.0015" lon="8.87052">
        <ele>1522</ele>
        <time>2021-08-03T11:15:31.477Z</time>
      </trkpt>
      <trkpt lat="47.00149" lon="8.87052">
        <ele>1523</ele>
        <time>2021-08-03T11:15:32.477Z</time>
      </trkpt>
      <trkpt lat="47.00149" lon="8.87052">
        <ele>1523</ele>
        <time>2021-08-03T11:15:33.478Z</time>
      </trkpt>
      <trkpt lat="47.00148" lon="8.87052">
        <ele>1523</ele>
        <time>2021-08-03T11:15:34.477Z</time>
      </trkpt>
      <trkpt lat="47.00148" lon="8.87052">
        <ele>1523</ele>
        <time>2021-08-03T11:15:35.478Z</time>
      </trkpt>
      <trkpt lat="47.00147" lon="8.87053">
        <ele>1524</ele>
        <time>2021-08-03T11:15:36.478Z</time>
      </trkpt>
      <trkpt lat="47.00146" lon="8.87052">
        <ele>1524</ele>
        <time>2021-08-03T11:15:37.477Z</time>
      </trkpt>
      <trkpt lat="47.00146" lon="8.87052">
        <ele>1524</ele>
        <time>2021-08-03T11:15:38.477Z</time>
      </trkpt>
      <trkpt lat="47.00145" lon="8.87052">
        <ele>1524</ele>
        <time>2021-08-03T11:15:39.478Z</time>
      </trkpt>
      <trkpt lat="47.00144" lon="8.87051">
        <ele>1525</ele>
        <time>2021-08-03T11:15:40.477Z</time>
      </trkpt>
      <trkpt lat="47.00144" lon="8.87052">
        <ele>1525</ele>
        <time>2021-08-03T11:15:41.478Z</time>
      </trkpt>
      <trkpt lat="47.00143" lon="8.87052">
        <ele>1525</ele>
        <time>2021-08-03T11:15:42.478Z</time>
      </trkpt>
      <trkpt lat="47.00143" lon="8.87052">
        <ele>1525</ele>
        <time>2021-08-03T11:15:43.478Z</time>
      </trkpt>
      <trkpt lat="47.00142" lon="8.87053">
        <ele>1526</ele>
        <time>2021-08-03T11:15:44.478Z</time>
      </trkpt>
      <trkpt lat="47.00141" lon="8.87053">
        <ele>1526</ele>
        <time>2021-08-03T11:15:45.478Z</time>
      </trkpt>
      <trkpt lat="47.0014" lon="8.87054">
        <ele>1526</ele>
        <time>2021-08-03T11:15:46.478Z</time>
      </trkpt>
      <trkpt lat="47.0014" lon="8.87054">
        <ele>1526</ele>
        <time>2021-08-03T11:15:47.478Z</time>
      </trkpt>
      <trkpt lat="47.00139" lon="8.87054">
        <ele>1526</ele>
        <time>2021-08-03T11:15:48.477Z</time>
      </trkpt>
      <trkpt lat="47.00139" lon="8.87054">
        <ele>1526</ele>
        <time>2021-08-03T11:15:49.478Z</time>
      </trkpt>
      <trkpt lat="47.00138" lon="8.87055">
        <ele>1526</ele>
        <time>2021-08-03T11:15:50.478Z</time>
      </trkpt>
      <trkpt lat="47.00137" lon="8.87055">
        <ele>1526</ele>
        <time>2021-08-03T11:15:51.477Z</time>
      </trkpt>
      <trkpt lat="47.00137" lon="8.87055">
        <ele>1526</ele>
        <time>2021-08-03T11:15:52.477Z</time>
      </trkpt>
      <trkpt lat="47.00136" lon="8.87055">
        <ele>1526</ele>
        <time>2021-08-03T11:15:53.478Z</time>
      </trkpt>
      <trkpt lat="47.00135" lon="8.87055">
        <ele>1526</ele>
        <time>2021-08-03T11:15:54.477Z</time>
      </trkpt>
      <trkpt lat="47.00135" lon="8.87055">
        <ele>1526</ele>
        <time>2021-08-03T11:15:55.478Z</time>
      </trkpt>
      <trkpt lat="47.00135" lon="8.87055">
        <ele>1526</ele>
        <time>2021-08-03T11:15:56.478Z</time>
      </trkpt>
      <trkpt lat="47.00134" lon="8.87055">
        <ele>1527</ele>
        <time>2021-08-03T11:15:57.477Z</time>
      </trkpt>
      <trkpt lat="47.00134" lon="8.87055">
        <ele>1527</ele>
        <time>2021-08-03T11:15:58.478Z</time>
      </trkpt>
      <trkpt lat="47.00133" lon="8.87055">
        <ele>1526</ele>
        <time>2021-08-03T11:15:59.478Z</time>
      </trkpt>
      <trkpt lat="47.00132" lon="8.87056">
        <ele>1526</ele>
        <time>2021-08-03T11:16:00.477Z</time>
      </trkpt>
      <trkpt lat="47.00132" lon="8.87056">
        <ele>1525</ele>
        <time>2021-08-03T11:16:01.477Z</time>
      </trkpt>
      <trkpt lat="47.00131" lon="8.87057">
        <ele>1525</ele>
        <time>2021-08-03T11:16:02.477Z</time>
      </trkpt>
      <trkpt lat="47.00131" lon="8.87057">
        <ele>1524</ele>
        <time>2021-08-03T11:16:03.477Z</time>
      </trkpt>
      <trkpt lat="47.0013" lon="8.87058">
        <ele>1524</ele>
        <time>2021-08-03T11:16:04.478Z</time>
      </trkpt>
      <trkpt lat="47.0013" lon="8.87058">
        <ele>1523</ele>
        <time>2021-08-03T11:16:05.478Z</time>
      </trkpt>
      <trkpt lat="47.00129" lon="8.87058">
        <ele>1523</ele>
        <time>2021-08-03T11:16:06.477Z</time>
      </trkpt>
      <trkpt lat="47.00128" lon="8.87059">
        <ele>1523</ele>
        <time>2021-08-03T11:16:07.478Z</time>
      </trkpt>
      <trkpt lat="47.00127" lon="8.87059">
        <ele>1523</ele>
        <time>2021-08-03T11:16:08.478Z</time>
      </trkpt>
      <trkpt lat="47.00126" lon="8.87059">
        <ele>1523</ele>
        <time>2021-08-03T11:16:09.477Z</time>
      </trkpt>
      <trkpt lat="47.00125" lon="8.8706">
        <ele>1523</ele>
        <time>2021-08-03T11:16:10.478Z</time>
      </trkpt>
      <trkpt lat="47.00124" lon="8.8706">
        <ele>1523</ele>
        <time>2021-08-03T11:16:11.478Z</time>
      </trkpt>
      <trkpt lat="47.00123" lon="8.87061">
        <ele>1523</ele>
        <time>2021-08-03T11:16:12.478Z</time>
      </trkpt>
      <trkpt lat="47.00122" lon="8.87061">
        <ele>1523</ele>
        <time>2021-08-03T11:16:13.478Z</time>
      </trkpt>
      <trkpt lat="47.00121" lon="8.87061">
        <ele>1523</ele>
        <time>2021-08-03T11:16:14.478Z</time>
      </trkpt>
      <trkpt lat="47.0012" lon="8.87062">
        <ele>1523</ele>
        <time>2021-08-03T11:16:15.477Z</time>
      </trkpt>
      <trkpt lat="47.00119" lon="8.87064">
        <ele>1523</ele>
        <time>2021-08-03T11:16:16.478Z</time>
      </trkpt>
      <trkpt lat="47.00119" lon="8.87064">
        <ele>1524</ele>
        <time>2021-08-03T11:16:17.478Z</time>
      </trkpt>
      <trkpt lat="47.00118" lon="8.87065">
        <ele>1523</ele>
        <time>2021-08-03T11:16:18.478Z</time>
      </trkpt>
      <trkpt lat="47.00118" lon="8.87066">
        <ele>1523</ele>
        <time>2021-08-03T11:16:19.477Z</time>
      </trkpt>
      <trkpt lat="47.00117" lon="8.87066">
        <ele>1523</ele>
        <time>2021-08-03T11:16:20.478Z</time>
      </trkpt>
      <trkpt lat="47.00115" lon="8.87067">
        <ele>1522</ele>
        <time>2021-08-03T11:16:21.478Z</time>
      </trkpt>
      <trkpt lat="47.00115" lon="8.87068">
        <ele>1522</ele>
        <time>2021-08-03T11:16:22.478Z</time>
      </trkpt>
      <trkpt lat="47.00114" lon="8.87068">
        <ele>1522</ele>
        <time>2021-08-03T11:16:23.478Z</time>
      </trkpt>
      <trkpt lat="47.00113" lon="8.87069">
        <ele>1522</ele>
        <time>2021-08-03T11:16:24.478Z</time>
      </trkpt>
      <trkpt lat="47.00112" lon="8.87069">
        <ele>1522</ele>
        <time>2021-08-03T11:16:25.477Z</time>
      </trkpt>
      <trkpt lat="47.00111" lon="8.87069">
        <ele>1523</ele>
        <time>2021-08-03T11:16:26.478Z</time>
      </trkpt>
      <trkpt lat="47.0011" lon="8.87069">
        <ele>1523</ele>
        <time>2021-08-03T11:16:27.477Z</time>
      </trkpt>
      <trkpt lat="47.00109" lon="8.87069">
        <ele>1524</ele>
        <time>2021-08-03T11:16:28.478Z</time>
      </trkpt>
      <trkpt lat="47.00108" lon="8.8707">
        <ele>1524</ele>
        <time>2021-08-03T11:16:29.478Z</time>
      </trkpt>
      <trkpt lat="47.00107" lon="8.8707">
        <ele>1524</ele>
        <time>2021-08-03T11:16:30.477Z</time>
      </trkpt>
      <trkpt lat="47.00107" lon="8.8707">
        <ele>1524</ele>
        <time>2021-08-03T11:16:31.477Z</time>
      </trkpt>
      <trkpt lat="47.00106" lon="8.8707">
        <ele>1524</ele>
        <time>2021-08-03T11:16:32.478Z</time>
      </trkpt>
      <trkpt lat="47.00105" lon="8.87071">
        <ele>1524</ele>
        <time>2021-08-03T11:16:33.477Z</time>
      </trkpt>
      <trkpt lat="47.00104" lon="8.87071">
        <ele>1524</ele>
        <time>2021-08-03T11:16:34.478Z</time>
      </trkpt>
      <trkpt lat="47.00103" lon="8.87071">
        <ele>1525</ele>
        <time>2021-08-03T11:16:35.478Z</time>
      </trkpt>
      <trkpt lat="47.00102" lon="8.87071">
        <ele>1525</ele>
        <time>2021-08-03T11:16:36.478Z</time>
      </trkpt>
      <trkpt lat="47.00101" lon="8.8707">
        <ele>1526</ele>
        <time>2021-08-03T11:16:37.478Z</time>
      </trkpt>
      <trkpt lat="47.001" lon="8.8707">
        <ele>1526</ele>
        <time>2021-08-03T11:16:38.477Z</time>
      </trkpt>
      <trkpt lat="47.00099" lon="8.87069">
        <ele>1527</ele>
        <time>2021-08-03T11:16:39.478Z</time>
      </trkpt>
      <trkpt lat="47.00098" lon="8.87069">
        <ele>1528</ele>
        <time>2021-08-03T11:16:40.478Z</time>
      </trkpt>
      <trkpt lat="47.00098" lon="8.87068">
        <ele>1529</ele>
        <time>2021-08-03T11:16:41.478Z</time>
      </trkpt>
      <trkpt lat="47.00097" lon="8.87068">
        <ele>1529</ele>
        <time>2021-08-03T11:16:42.478Z</time>
      </trkpt>
      <trkpt lat="47.00096" lon="8.87068">
        <ele>1529</ele>
        <time>2021-08-03T11:16:43.477Z</time>
      </trkpt>
      <trkpt lat="47.00096" lon="8.87068">
        <ele>1529</ele>
        <time>2021-08-03T11:16:44.478Z</time>
      </trkpt>
      <trkpt lat="47.00095" lon="8.87068">
        <ele>1528</ele>
        <time>2021-08-03T11:16:45.478Z</time>
      </trkpt>
      <trkpt lat="47.00094" lon="8.87068">
        <ele>1528</ele>
        <time>2021-08-03T11:16:46.478Z</time>
      </trkpt>
      <trkpt lat="47.00094" lon="8.87068">
        <ele>1527</ele>
        <time>2021-08-03T11:16:47.478Z</time>
      </trkpt>
      <trkpt lat="47.00093" lon="8.87069">
        <ele>1527</ele>
        <time>2021-08-03T11:16:48.478Z</time>
      </trkpt>
      <trkpt lat="47.00092" lon="8.87069">
        <ele>1527</ele>
        <time>2021-08-03T11:16:49.477Z</time>
      </trkpt>
      <trkpt lat="47.00092" lon="8.87069">
        <ele>1526</ele>
        <time>2021-08-03T11:16:50.477Z</time>
      </trkpt>
      <trkpt lat="47.00091" lon="8.8707">
        <ele>1526</ele>
        <time>2021-08-03T11:16:51.478Z</time>
      </trkpt>
      <trkpt lat="47.0009" lon="8.8707">
        <ele>1526</ele>
        <time>2021-08-03T11:16:52.478Z</time>
      </trkpt>
      <trkpt lat="47.00089" lon="8.8707">
        <ele>1526</ele>
        <time>2021-08-03T11:16:53.478Z</time>
      </trkpt>
      <trkpt lat="47.00088" lon="8.8707">
        <ele>1527</ele>
        <time>2021-08-03T11:16:54.477Z</time>
      </trkpt>
      <trkpt lat="47.00088" lon="8.8707">
        <ele>1527</ele>
        <time>2021-08-03T11:16:55.478Z</time>
      </trkpt>
      <trkpt lat="47.00087" lon="8.8707">
        <ele>1528</ele>
        <time>2021-08-03T11:16:56.477Z</time>
      </trkpt>
      <trkpt lat="47.00086" lon="8.8707">
        <ele>1528</ele>
        <time>2021-08-03T11:16:57.477Z</time>
      </trkpt>
      <trkpt lat="47.00085" lon="8.87071">
        <ele>1528</ele>
        <time>2021-08-03T11:16:58.478Z</time>
      </trkpt>
      <trkpt lat="47.00085" lon="8.87071">
        <ele>1529</ele>
        <time>2021-08-03T11:16:59.478Z</time>
      </trkpt>
      <trkpt lat="47.00084" lon="8.8707">
        <ele>1529</ele>
        <time>2021-08-03T11:17:00.477Z</time>
      </trkpt>
      <trkpt lat="47.00083" lon="8.8707">
        <ele>1529</ele>
        <time>2021-08-03T11:17:01.478Z</time>
      </trkpt>
      <trkpt lat="47.00082" lon="8.8707">
        <ele>1529</ele>
        <time>2021-08-03T11:17:02.477Z</time>
      </trkpt>
      <trkpt lat="47.00082" lon="8.8707">
        <ele>1529</ele>
        <time>2021-08-03T11:17:03.478Z</time>
      </trkpt>
      <trkpt lat="47.00081" lon="8.8707">
        <ele>1529</ele>
        <time>2021-08-03T11:17:04.477Z</time>
      </trkpt>
      <trkpt lat="47.00081" lon="8.8707">
        <ele>1529</ele>
        <time>2021-08-03T11:17:05.478Z</time>
      </trkpt>
      <trkpt lat="47.0008" lon="8.8707">
        <ele>1529</ele>
        <time>2021-08-03T11:17:06.477Z</time>
      </trkpt>
      <trkpt lat="47.0008" lon="8.8707">
        <ele>1529</ele>
        <time>2021-08-03T11:17:07.478Z</time>
      </trkpt>
      <trkpt lat="47.00079" lon="8.87071">
        <ele>1529</ele>
        <time>2021-08-03T11:17:08.477Z</time>
      </trkpt>
      <trkpt lat="47.00078" lon="8.87071">
        <ele>1529</ele>
        <time>2021-08-03T11:17:09.478Z</time>
      </trkpt>
      <trkpt lat="47.00078" lon="8.87072">
        <ele>1529</ele>
        <time>2021-08-03T11:17:10.478Z</time>
      </trkpt>
      <trkpt lat="47.00078" lon="8.87073">
        <ele>1529</ele>
        <time>2021-08-03T11:17:11.478Z</time>
      </trkpt>
      <trkpt lat="47.00078" lon="8.87073">
        <ele>1529</ele>
        <time>2021-08-03T11:17:12.478Z</time>
      </trkpt>
      <trkpt lat="47.00079" lon="8.87072">
        <ele>1529</ele>
        <time>2021-08-03T11:17:13.477Z</time>
      </trkpt>
      <trkpt lat="47.00079" lon="8.87072">
        <ele>1529</ele>
        <time>2021-08-03T11:17:14.477Z</time>
      </trkpt>
      <trkpt lat="47.0008" lon="8.87074">
        <ele>1529</ele>
        <time>2021-08-03T11:17:15.478Z</time>
      </trkpt>
      <trkpt lat="47.0008" lon="8.87074">
        <ele>1529</ele>
        <time>2021-08-03T11:17:16.478Z</time>
      </trkpt>
      <trkpt lat="47.0008" lon="8.87074">
        <ele>1530</ele>
        <time>2021-08-03T11:17:17.477Z</time>
      </trkpt>
      <trkpt lat="47.00078" lon="8.87073">
        <ele>1530</ele>
        <time>2021-08-03T11:17:18.477Z</time>
      </trkpt>
      <trkpt lat="47.00077" lon="8.87073">
        <ele>1530</ele>
        <time>2021-08-03T11:17:19.477Z</time>
      </trkpt>
      <trkpt lat="47.00076" lon="8.87073">
        <ele>1530</ele>
        <time>2021-08-03T11:17:20.477Z</time>
      </trkpt>
      <trkpt lat="47.00075" lon="8.87073">
        <ele>1531</ele>
        <time>2021-08-03T11:17:21.477Z</time>
      </trkpt>
      <trkpt lat="47.00074" lon="8.87072">
        <ele>1531</ele>
        <time>2021-08-03T11:17:22.477Z</time>
      </trkpt>
      <trkpt lat="47.00073" lon="8.87072">
        <ele>1531</ele>
        <time>2021-08-03T11:17:23.477Z</time>
      </trkpt>
      <trkpt lat="47.00072" lon="8.87072">
        <ele>1531</ele>
        <time>2021-08-03T11:17:24.477Z</time>
      </trkpt>
      <trkpt lat="47.00071" lon="8.87072">
        <ele>1531</ele>
        <time>2021-08-03T11:17:25.478Z</time>
      </trkpt>
      <trkpt lat="47.00069" lon="8.87071">
        <ele>1532</ele>
        <time>2021-08-03T11:17:26.477Z</time>
      </trkpt>
      <trkpt lat="47.00068" lon="8.87071">
        <ele>1532</ele>
        <time>2021-08-03T11:17:29.587Z</time>
      </trkpt>
      <trkpt lat="47.00067" lon="8.87071">
        <ele>1531</ele>
        <time>2021-08-03T11:17:30.587Z</time>
      </trkpt>
      <trkpt lat="47.00066" lon="8.87071">
        <ele>1531</ele>
        <time>2021-08-03T11:17:31.587Z</time>
      </trkpt>
      <trkpt lat="47.00065" lon="8.87071">
        <ele>1531</ele>
        <time>2021-08-03T11:17:32.587Z</time>
      </trkpt>
      <trkpt lat="47.00064" lon="8.87071">
        <ele>1530</ele>
        <time>2021-08-03T11:17:33.587Z</time>
      </trkpt>
      <trkpt lat="47.00063" lon="8.8707">
        <ele>1530</ele>
        <time>2021-08-03T11:17:42.723Z</time>
      </trkpt>
      <trkpt lat="47.00062" lon="8.8707">
        <ele>1530</ele>
        <time>2021-08-03T11:17:43.723Z</time>
      </trkpt>
      <trkpt lat="47.00062" lon="8.8707">
        <ele>1530</ele>
        <time>2021-08-03T11:17:44.723Z</time>
      </trkpt>
      <trkpt lat="47.00061" lon="8.8707">
        <ele>1530</ele>
        <time>2021-08-03T11:17:45.724Z</time>
      </trkpt>
      <trkpt lat="47.0006" lon="8.8707">
        <ele>1530</ele>
        <time>2021-08-03T11:17:46.724Z</time>
      </trkpt>
      <trkpt lat="47.00059" lon="8.8707">
        <ele>1530</ele>
        <time>2021-08-03T11:17:47.723Z</time>
      </trkpt>
      <trkpt lat="47.00058" lon="8.8707">
        <ele>1529</ele>
        <time>2021-08-03T11:17:50.852Z</time>
      </trkpt>
      <trkpt lat="47.00057" lon="8.8707">
        <ele>1529</ele>
        <time>2021-08-03T11:17:51.851Z</time>
      </trkpt>
      <trkpt lat="47.00057" lon="8.87071">
        <ele>1529</ele>
        <time>2021-08-03T11:17:52.851Z</time>
      </trkpt>
      <trkpt lat="47.00056" lon="8.87071">
        <ele>1529</ele>
        <time>2021-08-03T11:17:53.851Z</time>
      </trkpt>
      <trkpt lat="47.00055" lon="8.8707">
        <ele>1529</ele>
        <time>2021-08-03T11:17:54.851Z</time>
      </trkpt>
      <trkpt lat="47.00054" lon="8.8707">
        <ele>1529</ele>
        <time>2021-08-03T11:17:55.851Z</time>
      </trkpt>
      <trkpt lat="47.00053" lon="8.87069">
        <ele>1529</ele>
        <time>2021-08-03T11:17:56.852Z</time>
      </trkpt>
      <trkpt lat="47.00052" lon="8.87069">
        <ele>1530</ele>
        <time>2021-08-03T11:17:57.851Z</time>
      </trkpt>
      <trkpt lat="47.00051" lon="8.87068">
        <ele>1530</ele>
        <time>2021-08-03T11:17:58.851Z</time>
      </trkpt>
      <trkpt lat="47.0005" lon="8.87068">
        <ele>1531</ele>
        <time>2021-08-03T11:17:59.852Z</time>
      </trkpt>
      <trkpt lat="47.00049" lon="8.87067">
        <ele>1532</ele>
        <time>2021-08-03T11:18:00.851Z</time>
      </trkpt>
      <trkpt lat="47.00048" lon="8.87067">
        <ele>1533</ele>
        <time>2021-08-03T11:18:01.852Z</time>
      </trkpt>
      <trkpt lat="47.00047" lon="8.87067">
        <ele>1533</ele>
        <time>2021-08-03T11:18:02.851Z</time>
      </trkpt>
      <trkpt lat="47.00046" lon="8.87066">
        <ele>1534</ele>
        <time>2021-08-03T11:18:03.851Z</time>
      </trkpt>
      <trkpt lat="47.00045" lon="8.87066">
        <ele>1534</ele>
        <time>2021-08-03T11:18:04.851Z</time>
      </trkpt>
      <trkpt lat="47.00044" lon="8.87065">
        <ele>1535</ele>
        <time>2021-08-03T11:18:05.852Z</time>
      </trkpt>
      <trkpt lat="47.00043" lon="8.87065">
        <ele>1535</ele>
        <time>2021-08-03T11:18:06.851Z</time>
      </trkpt>
      <trkpt lat="47.00042" lon="8.87064">
        <ele>1535</ele>
        <time>2021-08-03T11:18:07.851Z</time>
      </trkpt>
      <trkpt lat="47.00041" lon="8.87064">
        <ele>1536</ele>
        <time>2021-08-03T11:18:08.852Z</time>
      </trkpt>
      <trkpt lat="47.0004" lon="8.87063">
        <ele>1536</ele>
        <time>2021-08-03T11:18:09.851Z</time>
      </trkpt>
      <trkpt lat="47.00039" lon="8.87063">
        <ele>1537</ele>
        <time>2021-08-03T11:18:10.852Z</time>
      </trkpt>
      <trkpt lat="47.00038" lon="8.87063">
        <ele>1537</ele>
        <time>2021-08-03T11:18:11.851Z</time>
      </trkpt>
      <trkpt lat="47.00037" lon="8.87062">
        <ele>1537</ele>
        <time>2021-08-03T11:18:12.851Z</time>
      </trkpt>
      <trkpt lat="47.00035" lon="8.87061">
        <ele>1537</ele>
        <time>2021-08-03T11:18:13.851Z</time>
      </trkpt>
      <trkpt lat="47.00035" lon="8.8706">
        <ele>1537</ele>
        <time>2021-08-03T11:18:14.851Z</time>
      </trkpt>
      <trkpt lat="47.00034" lon="8.87059">
        <ele>1537</ele>
        <time>2021-08-03T11:18:15.851Z</time>
      </trkpt>
      <trkpt lat="47.00033" lon="8.87059">
        <ele>1537</ele>
        <time>2021-08-03T11:18:16.851Z</time>
      </trkpt>
      <trkpt lat="47.00032" lon="8.87059">
        <ele>1538</ele>
        <time>2021-08-03T11:18:17.851Z</time>
      </trkpt>
      <trkpt lat="47.00031" lon="8.87058">
        <ele>1538</ele>
        <time>2021-08-03T11:18:18.852Z</time>
      </trkpt>
      <trkpt lat="47.00029" lon="8.87058">
        <ele>1539</ele>
        <time>2021-08-03T11:18:19.851Z</time>
      </trkpt>
      <trkpt lat="47.00028" lon="8.87057">
        <ele>1539</ele>
        <time>2021-08-03T11:18:20.851Z</time>
      </trkpt>
      <trkpt lat="47.00027" lon="8.87055">
        <ele>1540</ele>
        <time>2021-08-03T11:18:21.851Z</time>
      </trkpt>
      <trkpt lat="47.00026" lon="8.87054">
        <ele>1540</ele>
        <time>2021-08-03T11:18:22.851Z</time>
      </trkpt>
      <trkpt lat="47.00025" lon="8.87053">
        <ele>1540</ele>
        <time>2021-08-03T11:18:23.851Z</time>
      </trkpt>
      <trkpt lat="47.00024" lon="8.87052">
        <ele>1540</ele>
        <time>2021-08-03T11:18:24.852Z</time>
      </trkpt>
      <trkpt lat="47.00023" lon="8.87052">
        <ele>1540</ele>
        <time>2021-08-03T11:18:25.851Z</time>
      </trkpt>
      <trkpt lat="47.00023" lon="8.87051">
        <ele>1540</ele>
        <time>2021-08-03T11:18:26.851Z</time>
      </trkpt>
      <trkpt lat="47.00022" lon="8.8705">
        <ele>1540</ele>
        <time>2021-08-03T11:18:27.851Z</time>
      </trkpt>
      <trkpt lat="47.00021" lon="8.87049">
        <ele>1540</ele>
        <time>2021-08-03T11:18:28.851Z</time>
      </trkpt>
      <trkpt lat="47.00019" lon="8.87048">
        <ele>1541</ele>
        <time>2021-08-03T11:18:29.851Z</time>
      </trkpt>
      <trkpt lat="47.00019" lon="8.87048">
        <ele>1541</ele>
        <time>2021-08-03T11:18:30.851Z</time>
      </trkpt>
      <trkpt lat="47.00018" lon="8.87047">
        <ele>1541</ele>
        <time>2021-08-03T11:18:32.971Z</time>
      </trkpt>
      <trkpt lat="47.00017" lon="8.87045">
        <ele>1541</ele>
        <time>2021-08-03T11:18:33.970Z</time>
      </trkpt>
      <trkpt lat="47.00016" lon="8.87045">
        <ele>1541</ele>
        <time>2021-08-03T11:18:34.971Z</time>
      </trkpt>
      <trkpt lat="47.00015" lon="8.87044">
        <ele>1541</ele>
        <time>2021-08-03T11:18:35.970Z</time>
      </trkpt>
      <trkpt lat="47.00014" lon="8.87043">
        <ele>1540</ele>
        <time>2021-08-03T11:18:36.970Z</time>
      </trkpt>
      <trkpt lat="47.00013" lon="8.87042">
        <ele>1540</ele>
        <time>2021-08-03T11:18:37.971Z</time>
      </trkpt>
      <trkpt lat="47.00012" lon="8.87041">
        <ele>1539</ele>
        <time>2021-08-03T11:18:38.970Z</time>
      </trkpt>
      <trkpt lat="47.00011" lon="8.8704">
        <ele>1539</ele>
        <time>2021-08-03T11:18:39.970Z</time>
      </trkpt>
      <trkpt lat="47.0001" lon="8.87039">
        <ele>1539</ele>
        <time>2021-08-03T11:18:40.970Z</time>
      </trkpt>
      <trkpt lat="47.00009" lon="8.87038">
        <ele>1538</ele>
        <time>2021-08-03T11:18:41.970Z</time>
      </trkpt>
      <trkpt lat="47.00009" lon="8.87037">
        <ele>1538</ele>
        <time>2021-08-03T11:18:42.970Z</time>
      </trkpt>
      <trkpt lat="47.00008" lon="8.87036">
        <ele>1538</ele>
        <time>2021-08-03T11:18:43.971Z</time>
      </trkpt>
      <trkpt lat="47.00007" lon="8.87035">
        <ele>1538</ele>
        <time>2021-08-03T11:18:44.971Z</time>
      </trkpt>
      <trkpt lat="47.00006" lon="8.87034">
        <ele>1539</ele>
        <time>2021-08-03T11:18:45.970Z</time>
      </trkpt>
      <trkpt lat="47.00005" lon="8.87033">
        <ele>1539</ele>
        <time>2021-08-03T11:18:46.970Z</time>
      </trkpt>
      <trkpt lat="47.00004" lon="8.87032">
        <ele>1540</ele>
        <time>2021-08-03T11:18:47.970Z</time>
      </trkpt>
      <trkpt lat="47.00003" lon="8.87031">
        <ele>1540</ele>
        <time>2021-08-03T11:18:48.970Z</time>
      </trkpt>
      <trkpt lat="47.00002" lon="8.87029">
        <ele>1541</ele>
        <time>2021-08-03T11:18:49.970Z</time>
      </trkpt>
      <trkpt lat="47.00002" lon="8.87028">
        <ele>1541</ele>
        <time>2021-08-03T11:18:50.971Z</time>
      </trkpt>
      <trkpt lat="47.00001" lon="8.87027">
        <ele>1541</ele>
        <time>2021-08-03T11:18:51.970Z</time>
      </trkpt>
      <trkpt lat="47" lon="8.87026">
        <ele>1541</ele>
        <time>2021-08-03T11:18:52.970Z</time>
      </trkpt>
      <trkpt lat="47" lon="8.87025">
        <ele>1541</ele>
        <time>2021-08-03T11:18:53.971Z</time>
      </trkpt>
      <trkpt lat="46.99999" lon="8.87024">
        <ele>1541</ele>
        <time>2021-08-03T11:18:54.970Z</time>
      </trkpt>
      <trkpt lat="46.99998" lon="8.87023">
        <ele>1540</ele>
        <time>2021-08-03T11:18:55.970Z</time>
      </trkpt>
      <trkpt lat="46.99998" lon="8.87022">
        <ele>1540</ele>
        <time>2021-08-03T11:18:56.971Z</time>
      </trkpt>
      <trkpt lat="46.99997" lon="8.8702">
        <ele>1540</ele>
        <time>2021-08-03T11:18:57.970Z</time>
      </trkpt>
      <trkpt lat="46.99996" lon="8.8702">
        <ele>1540</ele>
        <time>2021-08-03T11:18:58.970Z</time>
      </trkpt>
      <trkpt lat="46.99995" lon="8.87018">
        <ele>1540</ele>
        <time>2021-08-03T11:18:59.970Z</time>
      </trkpt>
      <trkpt lat="46.99994" lon="8.87017">
        <ele>1540</ele>
        <time>2021-08-03T11:19:00.970Z</time>
      </trkpt>
      <trkpt lat="46.99993" lon="8.87016">
        <ele>1540</ele>
        <time>2021-08-03T11:19:01.970Z</time>
      </trkpt>
      <trkpt lat="46.99993" lon="8.87014">
        <ele>1540</ele>
        <time>2021-08-03T11:19:02.970Z</time>
      </trkpt>
      <trkpt lat="46.99992" lon="8.87013">
        <ele>1540</ele>
        <time>2021-08-03T11:19:03.971Z</time>
      </trkpt>
      <trkpt lat="46.9999" lon="8.87011">
        <ele>1541</ele>
        <time>2021-08-03T11:19:04.971Z</time>
      </trkpt>
      <trkpt lat="46.9999" lon="8.8701">
        <ele>1541</ele>
        <time>2021-08-03T11:19:05.970Z</time>
      </trkpt>
      <trkpt lat="46.99989" lon="8.87008">
        <ele>1541</ele>
        <time>2021-08-03T11:19:06.970Z</time>
      </trkpt>
      <trkpt lat="46.99988" lon="8.87006">
        <ele>1541</ele>
        <time>2021-08-03T11:19:07.970Z</time>
      </trkpt>
      <trkpt lat="46.99987" lon="8.87005">
        <ele>1541</ele>
        <time>2021-08-03T11:19:08.970Z</time>
      </trkpt>
      <trkpt lat="46.99986" lon="8.87003">
        <ele>1541</ele>
        <time>2021-08-03T11:19:09.970Z</time>
      </trkpt>
      <trkpt lat="46.99985" lon="8.87003">
        <ele>1541</ele>
        <time>2021-08-03T11:19:10.970Z</time>
      </trkpt>
      <trkpt lat="46.99984" lon="8.87002">
        <ele>1540</ele>
        <time>2021-08-03T11:19:11.970Z</time>
      </trkpt>
      <trkpt lat="46.99984" lon="8.87001">
        <ele>1540</ele>
        <time>2021-08-03T11:19:12.971Z</time>
      </trkpt>
      <trkpt lat="46.99983" lon="8.86999">
        <ele>1540</ele>
        <time>2021-08-03T11:19:13.970Z</time>
      </trkpt>
      <trkpt lat="46.99982" lon="8.86998">
        <ele>1539</ele>
        <time>2021-08-03T11:19:14.970Z</time>
      </trkpt>
      <trkpt lat="46.99981" lon="8.86997">
        <ele>1539</ele>
        <time>2021-08-03T11:19:15.970Z</time>
      </trkpt>
      <trkpt lat="46.9998" lon="8.86996">
        <ele>1538</ele>
        <time>2021-08-03T11:19:16.970Z</time>
      </trkpt>
      <trkpt lat="46.9998" lon="8.86994">
        <ele>1538</ele>
        <time>2021-08-03T11:19:17.970Z</time>
      </trkpt>
      <trkpt lat="46.99979" lon="8.86993">
        <ele>1537</ele>
        <time>2021-08-03T11:19:18.970Z</time>
      </trkpt>
      <trkpt lat="46.99978" lon="8.86992">
        <ele>1537</ele>
        <time>2021-08-03T11:19:19.971Z</time>
      </trkpt>
      <trkpt lat="46.99977" lon="8.86991">
        <ele>1537</ele>
        <time>2021-08-03T11:19:20.970Z</time>
      </trkpt>
      <trkpt lat="46.99976" lon="8.8699">
        <ele>1537</ele>
        <time>2021-08-03T11:19:21.970Z</time>
      </trkpt>
      <trkpt lat="46.99976" lon="8.86989">
        <ele>1538</ele>
        <time>2021-08-03T11:19:22.970Z</time>
      </trkpt>
      <trkpt lat="46.99975" lon="8.86988">
        <ele>1538</ele>
        <time>2021-08-03T11:19:23.970Z</time>
      </trkpt>
      <trkpt lat="46.99974" lon="8.86986">
        <ele>1538</ele>
        <time>2021-08-03T11:19:24.970Z</time>
      </trkpt>
      <trkpt lat="46.99973" lon="8.86985">
        <ele>1539</ele>
        <time>2021-08-03T11:19:25.970Z</time>
      </trkpt>
      <trkpt lat="46.99972" lon="8.86984">
        <ele>1539</ele>
        <time>2021-08-03T11:19:26.970Z</time>
      </trkpt>
      <trkpt lat="46.99971" lon="8.86984">
        <ele>1540</ele>
        <time>2021-08-03T11:19:27.971Z</time>
      </trkpt>
      <trkpt lat="46.99971" lon="8.86982">
        <ele>1540</ele>
        <time>2021-08-03T11:19:30.935Z</time>
      </trkpt>
      <trkpt lat="46.9997" lon="8.86981">
        <ele>1540</ele>
        <time>2021-08-03T11:19:31.935Z</time>
      </trkpt>
      <trkpt lat="46.99969" lon="8.8698">
        <ele>1540</ele>
        <time>2021-08-03T11:19:32.936Z</time>
      </trkpt>
      <trkpt lat="46.99968" lon="8.86979">
        <ele>1540</ele>
        <time>2021-08-03T11:19:33.935Z</time>
      </trkpt>
      <trkpt lat="46.99967" lon="8.86977">
        <ele>1540</ele>
        <time>2021-08-03T11:19:34.935Z</time>
      </trkpt>
      <trkpt lat="46.99966" lon="8.86976">
        <ele>1540</ele>
        <time>2021-08-03T11:19:40.988Z</time>
      </trkpt>
      <trkpt lat="46.99965" lon="8.86974">
        <ele>1540</ele>
        <time>2021-08-03T11:19:41.988Z</time>
      </trkpt>
      <trkpt lat="46.99965" lon="8.86973">
        <ele>1540</ele>
        <time>2021-08-03T11:19:42.988Z</time>
      </trkpt>
      <trkpt lat="46.99964" lon="8.86971">
        <ele>1540</ele>
        <time>2021-08-03T11:19:43.988Z</time>
      </trkpt>
      <trkpt lat="46.99963" lon="8.8697">
        <ele>1540</ele>
        <time>2021-08-03T11:19:49.078Z</time>
      </trkpt>
      <trkpt lat="46.99962" lon="8.86969">
        <ele>1540</ele>
        <time>2021-08-03T11:19:50.078Z</time>
      </trkpt>
      <trkpt lat="46.99961" lon="8.86968">
        <ele>1540</ele>
        <time>2021-08-03T11:19:51.078Z</time>
      </trkpt>
      <trkpt lat="46.99961" lon="8.86967">
        <ele>1540</ele>
        <time>2021-08-03T11:19:52.078Z</time>
      </trkpt>
      <trkpt lat="46.9996" lon="8.86966">
        <ele>1540</ele>
        <time>2021-08-03T11:19:53.078Z</time>
      </trkpt>
      <trkpt lat="46.99959" lon="8.86965">
        <ele>1540</ele>
        <time>2021-08-03T11:19:54.078Z</time>
      </trkpt>
      <trkpt lat="46.99958" lon="8.86964">
        <ele>1541</ele>
        <time>2021-08-03T11:19:58.245Z</time>
      </trkpt>
      <trkpt lat="46.99957" lon="8.86963">
        <ele>1541</ele>
        <time>2021-08-03T11:19:59.245Z</time>
      </trkpt>
      <trkpt lat="46.99956" lon="8.86962">
        <ele>1540</ele>
        <time>2021-08-03T11:20:00.246Z</time>
      </trkpt>
      <trkpt lat="46.99955" lon="8.86961">
        <ele>1540</ele>
        <time>2021-08-03T11:20:01.245Z</time>
      </trkpt>
      <trkpt lat="46.99954" lon="8.8696">
        <ele>1540</ele>
        <time>2021-08-03T11:20:08.949Z</time>
      </trkpt>
      <trkpt lat="46.99953" lon="8.86958">
        <ele>1540</ele>
        <time>2021-08-03T11:20:09.949Z</time>
      </trkpt>
      <trkpt lat="46.99952" lon="8.86957">
        <ele>1540</ele>
        <time>2021-08-03T11:20:10.949Z</time>
      </trkpt>
      <trkpt lat="46.99951" lon="8.86957">
        <ele>1540</ele>
        <time>2021-08-03T11:20:11.949Z</time>
      </trkpt>
      <trkpt lat="46.9995" lon="8.86956">
        <ele>1541</ele>
        <time>2021-08-03T11:20:14.080Z</time>
      </trkpt>
      <trkpt lat="46.99949" lon="8.86955">
        <ele>1541</ele>
        <time>2021-08-03T11:20:15.080Z</time>
      </trkpt>
      <trkpt lat="46.99948" lon="8.86955">
        <ele>1542</ele>
        <time>2021-08-03T11:20:16.080Z</time>
      </trkpt>
      <trkpt lat="46.99947" lon="8.86954">
        <ele>1543</ele>
        <time>2021-08-03T11:20:17.080Z</time>
      </trkpt>
      <trkpt lat="46.99946" lon="8.86954">
        <ele>1544</ele>
        <time>2021-08-03T11:20:18.080Z</time>
      </trkpt>
      <trkpt lat="46.99945" lon="8.86953">
        <ele>1544</ele>
        <time>2021-08-03T11:20:19.080Z</time>
      </trkpt>
      <trkpt lat="46.99944" lon="8.86952">
        <ele>1545</ele>
        <time>2021-08-03T11:20:20.080Z</time>
      </trkpt>
      <trkpt lat="46.99943" lon="8.86952">
        <ele>1545</ele>
        <time>2021-08-03T11:20:21.080Z</time>
      </trkpt>
      <trkpt lat="46.99941" lon="8.8695">
        <ele>1545</ele>
        <time>2021-08-03T11:20:22.080Z</time>
      </trkpt>
      <trkpt lat="46.9994" lon="8.86949">
        <ele>1545</ele>
        <time>2021-08-03T11:20:23.081Z</time>
      </trkpt>
      <trkpt lat="46.99939" lon="8.86949">
        <ele>1546</ele>
        <time>2021-08-03T11:20:24.080Z</time>
      </trkpt>
      <trkpt lat="46.99938" lon="8.86949">
        <ele>1546</ele>
        <time>2021-08-03T11:20:25.080Z</time>
      </trkpt>
      <trkpt lat="46.99937" lon="8.86948">
        <ele>1546</ele>
        <time>2021-08-03T11:20:26.080Z</time>
      </trkpt>
      <trkpt lat="46.99936" lon="8.86947">
        <ele>1546</ele>
        <time>2021-08-03T11:20:27.081Z</time>
      </trkpt>
      <trkpt lat="46.99935" lon="8.86947">
        <ele>1546</ele>
        <time>2021-08-03T11:20:28.080Z</time>
      </trkpt>
      <trkpt lat="46.99934" lon="8.86947">
        <ele>1546</ele>
        <time>2021-08-03T11:20:29.080Z</time>
      </trkpt>
      <trkpt lat="46.99933" lon="8.86947">
        <ele>1545</ele>
        <time>2021-08-03T11:20:30.080Z</time>
      </trkpt>
      <trkpt lat="46.99932" lon="8.86946">
        <ele>1546</ele>
        <time>2021-08-03T11:20:31.080Z</time>
      </trkpt>
      <trkpt lat="46.99931" lon="8.86946">
        <ele>1546</ele>
        <time>2021-08-03T11:20:32.835Z</time>
      </trkpt>
      <trkpt lat="46.99929" lon="8.86946">
        <ele>1546</ele>
        <time>2021-08-03T11:20:33.835Z</time>
      </trkpt>
      <trkpt lat="46.99928" lon="8.86945">
        <ele>1546</ele>
        <time>2021-08-03T11:20:34.835Z</time>
      </trkpt>
      <trkpt lat="46.99926" lon="8.86945">
        <ele>1546</ele>
        <time>2021-08-03T11:20:35.835Z</time>
      </trkpt>
      <trkpt lat="46.99925" lon="8.86945">
        <ele>1546</ele>
        <time>2021-08-03T11:20:36.835Z</time>
      </trkpt>
      <trkpt lat="46.99924" lon="8.86945">
        <ele>1547</ele>
        <time>2021-08-03T11:20:37.835Z</time>
      </trkpt>
      <trkpt lat="46.99923" lon="8.86946">
        <ele>1547</ele>
        <time>2021-08-03T11:20:38.835Z</time>
      </trkpt>
      <trkpt lat="46.99922" lon="8.86946">
        <ele>1546</ele>
        <time>2021-08-03T11:20:39.835Z</time>
      </trkpt>
      <trkpt lat="46.99921" lon="8.86947">
        <ele>1546</ele>
        <time>2021-08-03T11:20:40.836Z</time>
      </trkpt>
      <trkpt lat="46.9992" lon="8.86947">
        <ele>1546</ele>
        <time>2021-08-03T11:20:41.835Z</time>
      </trkpt>
      <trkpt lat="46.99919" lon="8.86947">
        <ele>1545</ele>
        <time>2021-08-03T11:20:42.835Z</time>
      </trkpt>
      <trkpt lat="46.99918" lon="8.86947">
        <ele>1544</ele>
        <time>2021-08-03T11:20:43.835Z</time>
      </trkpt>
      <trkpt lat="46.99917" lon="8.86947">
        <ele>1543</ele>
        <time>2021-08-03T11:20:44.835Z</time>
      </trkpt>
      <trkpt lat="46.99916" lon="8.86947">
        <ele>1542</ele>
        <time>2021-08-03T11:20:45.835Z</time>
      </trkpt>
      <trkpt lat="46.99915" lon="8.86946">
        <ele>1542</ele>
        <time>2021-08-03T11:20:46.835Z</time>
      </trkpt>
      <trkpt lat="46.99915" lon="8.86946">
        <ele>1542</ele>
        <time>2021-08-03T11:20:47.836Z</time>
      </trkpt>
      <trkpt lat="46.99914" lon="8.86946">
        <ele>1542</ele>
        <time>2021-08-03T11:20:48.835Z</time>
      </trkpt>
      <trkpt lat="46.99912" lon="8.86946">
        <ele>1542</ele>
        <time>2021-08-03T11:20:49.835Z</time>
      </trkpt>
      <trkpt lat="46.99911" lon="8.86945">
        <ele>1542</ele>
        <time>2021-08-03T11:20:50.835Z</time>
      </trkpt>
      <trkpt lat="46.9991" lon="8.86945">
        <ele>1542</ele>
        <time>2021-08-03T11:20:51.835Z</time>
      </trkpt>
      <trkpt lat="46.99909" lon="8.86944">
        <ele>1542</ele>
        <time>2021-08-03T11:20:52.836Z</time>
      </trkpt>
      <trkpt lat="46.99908" lon="8.86944">
        <ele>1542</ele>
        <time>2021-08-03T11:20:53.835Z</time>
      </trkpt>
      <trkpt lat="46.99907" lon="8.86944">
        <ele>1542</ele>
        <time>2021-08-03T11:20:54.835Z</time>
      </trkpt>
      <trkpt lat="46.99906" lon="8.86945">
        <ele>1542</ele>
        <time>2021-08-03T11:20:55.835Z</time>
      </trkpt>
      <trkpt lat="46.99906" lon="8.86945">
        <ele>1542</ele>
        <time>2021-08-03T11:20:56.835Z</time>
      </trkpt>
      <trkpt lat="46.99906" lon="8.86945">
        <ele>1543</ele>
        <time>2021-08-03T11:20:57.835Z</time>
      </trkpt>
      <trkpt lat="46.99905" lon="8.86943">
        <ele>1547</ele>
        <time>2021-08-03T11:20:58.837Z</time>
      </trkpt>
      <trkpt lat="46.99905" lon="8.86942">
        <ele>1547</ele>
        <time>2021-08-03T11:20:59.836Z</time>
      </trkpt>
      <trkpt lat="46.99905" lon="8.86941">
        <ele>1546</ele>
        <time>2021-08-03T11:21:00.836Z</time>
      </trkpt>
      <trkpt lat="46.99905" lon="8.8694">
        <ele>1542</ele>
        <time>2021-08-03T11:21:01.838Z</time>
      </trkpt>
      <trkpt lat="46.99906" lon="8.86939">
        <ele>1541</ele>
        <time>2021-08-03T11:21:02.837Z</time>
      </trkpt>
      <trkpt lat="46.99907" lon="8.86938">
        <ele>1541</ele>
        <time>2021-08-03T11:21:03.837Z</time>
      </trkpt>
      <trkpt lat="46.99907" lon="8.86937">
        <ele>1540</ele>
        <time>2021-08-03T11:21:09.823Z</time>
      </trkpt>
      <trkpt lat="46.99907" lon="8.86936">
        <ele>1540</ele>
        <time>2021-08-03T11:21:10.824Z</time>
      </trkpt>
      <trkpt lat="46.99907" lon="8.86935">
        <ele>1539</ele>
        <time>2021-08-03T11:21:11.824Z</time>
      </trkpt>
      <trkpt lat="46.99907" lon="8.86933">
        <ele>1539</ele>
        <time>2021-08-03T11:21:12.823Z</time>
      </trkpt>
      <trkpt lat="46.99907" lon="8.86931">
        <ele>1538</ele>
        <time>2021-08-03T11:21:13.823Z</time>
      </trkpt>
      <trkpt lat="46.99906" lon="8.86929">
        <ele>1538</ele>
        <time>2021-08-03T11:21:14.823Z</time>
      </trkpt>
      <trkpt lat="46.99906" lon="8.86928">
        <ele>1537</ele>
        <time>2021-08-03T11:21:15.824Z</time>
      </trkpt>
      <trkpt lat="46.99905" lon="8.86927">
        <ele>1536</ele>
        <time>2021-08-03T11:21:16.823Z</time>
      </trkpt>
      <trkpt lat="46.99904" lon="8.86926">
        <ele>1535</ele>
        <time>2021-08-03T11:21:17.823Z</time>
      </trkpt>
      <trkpt lat="46.99903" lon="8.86926">
        <ele>1535</ele>
        <time>2021-08-03T11:21:18.823Z</time>
      </trkpt>
      <trkpt lat="46.99903" lon="8.86925">
        <ele>1535</ele>
        <time>2021-08-03T11:21:19.823Z</time>
      </trkpt>
      <trkpt lat="46.99901" lon="8.86924">
        <ele>1535</ele>
        <time>2021-08-03T11:21:20.824Z</time>
      </trkpt>
      <trkpt lat="46.999" lon="8.86923">
        <ele>1535</ele>
        <time>2021-08-03T11:21:23.828Z</time>
      </trkpt>
      <trkpt lat="46.999" lon="8.86922">
        <ele>1535</ele>
        <time>2021-08-03T11:21:24.828Z</time>
      </trkpt>
      <trkpt lat="46.99899" lon="8.8692">
        <ele>1535</ele>
        <time>2021-08-03T11:21:25.828Z</time>
      </trkpt>
      <trkpt lat="46.99898" lon="8.86919">
        <ele>1535</ele>
        <time>2021-08-03T11:21:26.828Z</time>
      </trkpt>
      <trkpt lat="46.99897" lon="8.86917">
        <ele>1536</ele>
        <time>2021-08-03T11:21:27.829Z</time>
      </trkpt>
      <trkpt lat="46.99896" lon="8.86916">
        <ele>1536</ele>
        <time>2021-08-03T11:21:51.834Z</time>
      </trkpt>
      <trkpt lat="46.99895" lon="8.86915">
        <ele>1536</ele>
        <time>2021-08-03T11:21:52.834Z</time>
      </trkpt>
      <trkpt lat="46.99895" lon="8.86913">
        <ele>1536</ele>
        <time>2021-08-03T11:21:56.736Z</time>
      </trkpt>
      <trkpt lat="46.99894" lon="8.86912">
        <ele>1536</ele>
        <time>2021-08-03T11:21:57.737Z</time>
      </trkpt>
      <trkpt lat="46.99893" lon="8.86911">
        <ele>1536</ele>
        <time>2021-08-03T11:21:58.736Z</time>
      </trkpt>
      <trkpt lat="46.99893" lon="8.86909">
        <ele>1535</ele>
        <time>2021-08-03T11:21:59.736Z</time>
      </trkpt>
      <trkpt lat="46.99892" lon="8.86908">
        <ele>1535</ele>
        <time>2021-08-03T11:22:00.736Z</time>
      </trkpt>
      <trkpt lat="46.99891" lon="8.86907">
        <ele>1535</ele>
        <time>2021-08-03T11:22:01.736Z</time>
      </trkpt>
      <trkpt lat="46.99891" lon="8.86905">
        <ele>1536</ele>
        <time>2021-08-03T11:22:08.864Z</time>
      </trkpt>
      <trkpt lat="46.9989" lon="8.86903">
        <ele>1536</ele>
        <time>2021-08-03T11:22:09.864Z</time>
      </trkpt>
      <trkpt lat="46.99889" lon="8.86902">
        <ele>1536</ele>
        <time>2021-08-03T11:22:10.864Z</time>
      </trkpt>
      <trkpt lat="46.99889" lon="8.869">
        <ele>1537</ele>
        <time>2021-08-03T11:22:11.864Z</time>
      </trkpt>
      <trkpt lat="46.99888" lon="8.86899">
        <ele>1537</ele>
        <time>2021-08-03T11:22:12.864Z</time>
      </trkpt>
      <trkpt lat="46.99888" lon="8.86897">
        <ele>1537</ele>
        <time>2021-08-03T11:22:13.864Z</time>
      </trkpt>
      <trkpt lat="46.99887" lon="8.86896">
        <ele>1537</ele>
        <time>2021-08-03T11:22:14.864Z</time>
      </trkpt>
      <trkpt lat="46.99886" lon="8.86894">
        <ele>1537</ele>
        <time>2021-08-03T11:22:15.864Z</time>
      </trkpt>
      <trkpt lat="46.99885" lon="8.86893">
        <ele>1537</ele>
        <time>2021-08-03T11:22:16.864Z</time>
      </trkpt>
      <trkpt lat="46.99885" lon="8.86891">
        <ele>1537</ele>
        <time>2021-08-03T11:22:17.864Z</time>
      </trkpt>
      <trkpt lat="46.99884" lon="8.8689">
        <ele>1537</ele>
        <time>2021-08-03T11:22:18.864Z</time>
      </trkpt>
      <trkpt lat="46.99883" lon="8.86888">
        <ele>1537</ele>
        <time>2021-08-03T11:22:19.864Z</time>
      </trkpt>
      <trkpt lat="46.99882" lon="8.86887">
        <ele>1537</ele>
        <time>2021-08-03T11:22:20.864Z</time>
      </trkpt>
      <trkpt lat="46.99881" lon="8.86886">
        <ele>1537</ele>
        <time>2021-08-03T11:22:21.864Z</time>
      </trkpt>
      <trkpt lat="46.99881" lon="8.86884">
        <ele>1536</ele>
        <time>2021-08-03T11:22:22.864Z</time>
      </trkpt>
      <trkpt lat="46.9988" lon="8.86883">
        <ele>1537</ele>
        <time>2021-08-03T11:22:23.865Z</time>
      </trkpt>
      <trkpt lat="46.9988" lon="8.86881">
        <ele>1537</ele>
        <time>2021-08-03T11:22:24.865Z</time>
      </trkpt>
      <trkpt lat="46.99879" lon="8.8688">
        <ele>1537</ele>
        <time>2021-08-03T11:22:25.864Z</time>
      </trkpt>
      <trkpt lat="46.99878" lon="8.86879">
        <ele>1537</ele>
        <time>2021-08-03T11:22:26.864Z</time>
      </trkpt>
      <trkpt lat="46.99877" lon="8.86878">
        <ele>1538</ele>
        <time>2021-08-03T11:22:27.864Z</time>
      </trkpt>
      <trkpt lat="46.99877" lon="8.86876">
        <ele>1538</ele>
        <time>2021-08-03T11:22:28.864Z</time>
      </trkpt>
      <trkpt lat="46.99876" lon="8.86875">
        <ele>1538</ele>
        <time>2021-08-03T11:22:29.864Z</time>
      </trkpt>
      <trkpt lat="46.99875" lon="8.86873">
        <ele>1538</ele>
        <time>2021-08-03T11:22:30.864Z</time>
      </trkpt>
      <trkpt lat="46.99874" lon="8.86872">
        <ele>1537</ele>
        <time>2021-08-03T11:22:31.864Z</time>
      </trkpt>
      <trkpt lat="46.99873" lon="8.8687">
        <ele>1537</ele>
        <time>2021-08-03T11:22:32.864Z</time>
      </trkpt>
      <trkpt lat="46.99872" lon="8.86869">
        <ele>1537</ele>
        <time>2021-08-03T11:22:33.864Z</time>
      </trkpt>
      <trkpt lat="46.99871" lon="8.86868">
        <ele>1537</ele>
        <time>2021-08-03T11:22:34.864Z</time>
      </trkpt>
      <trkpt lat="46.99871" lon="8.86867">
        <ele>1537</ele>
        <time>2021-08-03T11:22:35.864Z</time>
      </trkpt>
      <trkpt lat="46.9987" lon="8.86865">
        <ele>1537</ele>
        <time>2021-08-03T11:22:36.865Z</time>
      </trkpt>
      <trkpt lat="46.99869" lon="8.86864">
        <ele>1537</ele>
        <time>2021-08-03T11:22:37.864Z</time>
      </trkpt>
      <trkpt lat="46.99868" lon="8.86863">
        <ele>1538</ele>
        <time>2021-08-03T11:22:38.864Z</time>
      </trkpt>
      <trkpt lat="46.99867" lon="8.86862">
        <ele>1538</ele>
        <time>2021-08-03T11:22:39.864Z</time>
      </trkpt>
      <trkpt lat="46.99865" lon="8.86861">
        <ele>1538</ele>
        <time>2021-08-03T11:22:46.984Z</time>
      </trkpt>
      <trkpt lat="46.99864" lon="8.8686">
        <ele>1539</ele>
        <time>2021-08-03T11:22:47.984Z</time>
      </trkpt>
      <trkpt lat="46.99863" lon="8.86859">
        <ele>1539</ele>
        <time>2021-08-03T11:22:55.837Z</time>
      </trkpt>
      <trkpt lat="46.99862" lon="8.86858">
        <ele>1539</ele>
        <time>2021-08-03T11:22:56.837Z</time>
      </trkpt>
      <trkpt lat="46.99861" lon="8.86857">
        <ele>1539</ele>
        <time>2021-08-03T11:22:57.837Z</time>
      </trkpt>
      <trkpt lat="46.9986" lon="8.86857">
        <ele>1539</ele>
        <time>2021-08-03T11:22:58.837Z</time>
      </trkpt>
      <trkpt lat="46.99859" lon="8.86856">
        <ele>1538</ele>
        <time>2021-08-03T11:22:59.837Z</time>
      </trkpt>
      <trkpt lat="46.99858" lon="8.86855">
        <ele>1538</ele>
        <time>2021-08-03T11:23:00.837Z</time>
      </trkpt>
      <trkpt lat="46.99857" lon="8.86855">
        <ele>1538</ele>
        <time>2021-08-03T11:23:01.838Z</time>
      </trkpt>
      <trkpt lat="46.99856" lon="8.86854">
        <ele>1538</ele>
        <time>2021-08-03T11:23:02.837Z</time>
      </trkpt>
      <trkpt lat="46.99855" lon="8.86853">
        <ele>1538</ele>
        <time>2021-08-03T11:23:03.837Z</time>
      </trkpt>
      <trkpt lat="46.99854" lon="8.86853">
        <ele>1538</ele>
        <time>2021-08-03T11:23:04.837Z</time>
      </trkpt>
      <trkpt lat="46.99853" lon="8.86853">
        <ele>1538</ele>
        <time>2021-08-03T11:23:05.838Z</time>
      </trkpt>
      <trkpt lat="46.99852" lon="8.86853">
        <ele>1538</ele>
        <time>2021-08-03T11:23:06.837Z</time>
      </trkpt>
      <trkpt lat="46.99851" lon="8.86853">
        <ele>1539</ele>
        <time>2021-08-03T11:23:07.837Z</time>
      </trkpt>
      <trkpt lat="46.9985" lon="8.86852">
        <ele>1539</ele>
        <time>2021-08-03T11:23:08.837Z</time>
      </trkpt>
      <trkpt lat="46.99848" lon="8.86852">
        <ele>1539</ele>
        <time>2021-08-03T11:23:09.837Z</time>
      </trkpt>
      <trkpt lat="46.99847" lon="8.86851">
        <ele>1539</ele>
        <time>2021-08-03T11:23:10.837Z</time>
      </trkpt>
      <trkpt lat="46.99846" lon="8.86851">
        <ele>1539</ele>
        <time>2021-08-03T11:23:11.837Z</time>
      </trkpt>
      <trkpt lat="46.99845" lon="8.8685">
        <ele>1540</ele>
        <time>2021-08-03T11:23:12.837Z</time>
      </trkpt>
      <trkpt lat="46.99844" lon="8.8685">
        <ele>1540</ele>
        <time>2021-08-03T11:23:13.838Z</time>
      </trkpt>
      <trkpt lat="46.99842" lon="8.8685">
        <ele>1541</ele>
        <time>2021-08-03T11:23:14.837Z</time>
      </trkpt>
      <trkpt lat="46.99841" lon="8.86849">
        <ele>1541</ele>
        <time>2021-08-03T11:23:15.837Z</time>
      </trkpt>
      <trkpt lat="46.9984" lon="8.86848">
        <ele>1541</ele>
        <time>2021-08-03T11:23:16.837Z</time>
      </trkpt>
      <trkpt lat="46.99838" lon="8.86848">
        <ele>1541</ele>
        <time>2021-08-03T11:23:17.837Z</time>
      </trkpt>
      <trkpt lat="46.99838" lon="8.86848">
        <ele>1541</ele>
        <time>2021-08-03T11:23:18.837Z</time>
      </trkpt>
      <trkpt lat="46.99837" lon="8.86847">
        <ele>1542</ele>
        <time>2021-08-03T11:23:19.837Z</time>
      </trkpt>
      <trkpt lat="46.99836" lon="8.86847">
        <ele>1542</ele>
        <time>2021-08-03T11:23:20.837Z</time>
      </trkpt>
      <trkpt lat="46.99835" lon="8.86847">
        <ele>1542</ele>
        <time>2021-08-03T11:23:21.837Z</time>
      </trkpt>
      <trkpt lat="46.99834" lon="8.86847">
        <ele>1542</ele>
        <time>2021-08-03T11:23:22.837Z</time>
      </trkpt>
      <trkpt lat="46.99833" lon="8.86847">
        <ele>1542</ele>
        <time>2021-08-03T11:23:23.837Z</time>
      </trkpt>
      <trkpt lat="46.99832" lon="8.86846">
        <ele>1542</ele>
        <time>2021-08-03T11:23:24.837Z</time>
      </trkpt>
      <trkpt lat="46.99831" lon="8.86846">
        <ele>1542</ele>
        <time>2021-08-03T11:23:25.837Z</time>
      </trkpt>
      <trkpt lat="46.99831" lon="8.86846">
        <ele>1542</ele>
        <time>2021-08-03T11:23:27.928Z</time>
      </trkpt>
      <trkpt lat="46.99833" lon="8.86846">
        <ele>1542</ele>
        <time>2021-08-03T11:23:28.928Z</time>
      </trkpt>
      <trkpt lat="46.99832" lon="8.86842">
        <ele>1539</ele>
        <time>2021-08-03T11:23:29.928Z</time>
      </trkpt>
      <trkpt lat="46.99832" lon="8.86842">
        <ele>1539</ele>
        <time>2021-08-03T11:23:30.928Z</time>
      </trkpt>
      <trkpt lat="46.99831" lon="8.86842">
        <ele>1539</ele>
        <time>2021-08-03T11:23:31.928Z</time>
      </trkpt>
      <trkpt lat="46.99831" lon="8.86842">
        <ele>1539</ele>
        <time>2021-08-03T11:23:32.928Z</time>
      </trkpt>
      <trkpt lat="46.9983" lon="8.86842">
        <ele>1539</ele>
        <time>2021-08-03T11:23:33.928Z</time>
      </trkpt>
      <trkpt lat="46.9983" lon="8.86842">
        <ele>1539</ele>
        <time>2021-08-03T11:23:34.928Z</time>
      </trkpt>
      <trkpt lat="46.9983" lon="8.86843">
        <ele>1539</ele>
        <time>2021-08-03T11:23:35.928Z</time>
      </trkpt>
      <trkpt lat="46.99832" lon="8.86844">
        <ele>1539</ele>
        <time>2021-08-03T11:23:36.928Z</time>
      </trkpt>
      <trkpt lat="46.99832" lon="8.86844">
        <ele>1539</ele>
        <time>2021-08-03T11:23:37.928Z</time>
      </trkpt>
      <trkpt lat="46.99832" lon="8.86844">
        <ele>1539</ele>
        <time>2021-08-03T11:23:38.929Z</time>
      </trkpt>
      <trkpt lat="46.99829" lon="8.8685">
        <ele>1543</ele>
        <time>2021-08-03T11:23:39.928Z</time>
      </trkpt>
      <trkpt lat="46.99829" lon="8.86849">
        <ele>1543</ele>
        <time>2021-08-03T11:23:40.929Z</time>
      </trkpt>
      <trkpt lat="46.99829" lon="8.86848">
        <ele>1543</ele>
        <time>2021-08-03T11:23:41.928Z</time>
      </trkpt>
      <trkpt lat="46.99829" lon="8.86848">
        <ele>1543</ele>
        <time>2021-08-03T11:23:42.928Z</time>
      </trkpt>
      <trkpt lat="46.99829" lon="8.86847">
        <ele>1543</ele>
        <time>2021-08-03T11:23:43.929Z</time>
      </trkpt>
      <trkpt lat="46.99831" lon="8.86848">
        <ele>1536</ele>
        <time>2021-08-03T11:23:44.930Z</time>
      </trkpt>
      <trkpt lat="46.99832" lon="8.86847">
        <ele>1536</ele>
        <time>2021-08-03T11:23:45.929Z</time>
      </trkpt>
      <trkpt lat="46.99832" lon="8.86847">
        <ele>1537</ele>
        <time>2021-08-03T11:23:46.929Z</time>
      </trkpt>
      <trkpt lat="46.99831" lon="8.86847">
        <ele>1537</ele>
        <time>2021-08-03T11:23:47.929Z</time>
      </trkpt>
      <trkpt lat="46.9983" lon="8.86849">
        <ele>1541</ele>
        <time>2021-08-03T11:23:48.931Z</time>
      </trkpt>
      <trkpt lat="46.9983" lon="8.86848">
        <ele>1541</ele>
        <time>2021-08-03T11:23:49.930Z</time>
      </trkpt>
      <trkpt lat="46.9983" lon="8.86848">
        <ele>1541</ele>
        <time>2021-08-03T11:23:50.931Z</time>
      </trkpt>
      <trkpt lat="46.99831" lon="8.8685">
        <ele>1540</ele>
        <time>2021-08-03T11:23:51.932Z</time>
      </trkpt>
      <trkpt lat="46.99831" lon="8.8685">
        <ele>1540</ele>
        <time>2021-08-03T11:23:52.932Z</time>
      </trkpt>
      <trkpt lat="46.99831" lon="8.8685">
        <ele>1541</ele>
        <time>2021-08-03T11:23:53.931Z</time>
      </trkpt>
      <trkpt lat="46.99832" lon="8.86849">
        <ele>1543</ele>
        <time>2021-08-03T11:23:54.931Z</time>
      </trkpt>
      <trkpt lat="46.99833" lon="8.86849">
        <ele>1544</ele>
        <time>2021-08-03T11:23:55.931Z</time>
      </trkpt>
      <trkpt lat="46.99832" lon="8.8685">
        <ele>1545</ele>
        <time>2021-08-03T11:23:56.931Z</time>
      </trkpt>
      <trkpt lat="46.99832" lon="8.8685">
        <ele>1545</ele>
        <time>2021-08-03T11:23:57.932Z</time>
      </trkpt>
      <trkpt lat="46.99832" lon="8.8685">
        <ele>1545</ele>
        <time>2021-08-03T11:23:58.931Z</time>
      </trkpt>
      <trkpt lat="46.9983" lon="8.86848">
        <ele>1544</ele>
        <time>2021-08-03T11:23:59.932Z</time>
      </trkpt>
      <trkpt lat="46.99829" lon="8.86848">
        <ele>1544</ele>
        <time>2021-08-03T11:24:00.931Z</time>
      </trkpt>
      <trkpt lat="46.99828" lon="8.86848">
        <ele>1545</ele>
        <time>2021-08-03T11:24:01.931Z</time>
      </trkpt>
      <trkpt lat="46.99827" lon="8.86848">
        <ele>1545</ele>
        <time>2021-08-03T11:24:02.932Z</time>
      </trkpt>
      <trkpt lat="46.99827" lon="8.86848">
        <ele>1544</ele>
        <time>2021-08-03T11:24:03.931Z</time>
      </trkpt>
      <trkpt lat="46.99827" lon="8.86848">
        <ele>1544</ele>
        <time>2021-08-03T11:24:04.932Z</time>
      </trkpt>
      <trkpt lat="46.99826" lon="8.86848">
        <ele>1544</ele>
        <time>2021-08-03T11:24:05.932Z</time>
      </trkpt>
      <trkpt lat="46.99827" lon="8.86848">
        <ele>1544</ele>
        <time>2021-08-03T11:24:06.931Z</time>
      </trkpt>
      <trkpt lat="46.99827" lon="8.86849">
        <ele>1544</ele>
        <time>2021-08-03T11:24:07.932Z</time>
      </trkpt>
      <trkpt lat="46.99828" lon="8.86848">
        <ele>1543</ele>
        <time>2021-08-03T11:24:08.931Z</time>
      </trkpt>
      <trkpt lat="46.99828" lon="8.86848">
        <ele>1543</ele>
        <time>2021-08-03T11:24:09.931Z</time>
      </trkpt>
      <trkpt lat="46.99828" lon="8.86848">
        <ele>1542</ele>
        <time>2021-08-03T11:24:10.931Z</time>
      </trkpt>
      <trkpt lat="46.99828" lon="8.8685">
        <ele>1539</ele>
        <time>2021-08-03T11:24:11.932Z</time>
      </trkpt>
      <trkpt lat="46.99828" lon="8.8685">
        <ele>1539</ele>
        <time>2021-08-03T11:24:12.931Z</time>
      </trkpt>
      <trkpt lat="46.99828" lon="8.8685">
        <ele>1540</ele>
        <time>2021-08-03T11:24:13.931Z</time>
      </trkpt>
      <trkpt lat="46.99829" lon="8.86851">
        <ele>1540</ele>
        <time>2021-08-03T11:24:14.932Z</time>
      </trkpt>
      <trkpt lat="46.99829" lon="8.86851">
        <ele>1541</ele>
        <time>2021-08-03T11:24:15.932Z</time>
      </trkpt>
      <trkpt lat="46.99828" lon="8.86852">
        <ele>1543</ele>
        <time>2021-08-03T11:24:16.931Z</time>
      </trkpt>
      <trkpt lat="46.99828" lon="8.86852">
        <ele>1544</ele>
        <time>2021-08-03T11:24:17.931Z</time>
      </trkpt>
      <trkpt lat="46.99828" lon="8.86852">
        <ele>1544</ele>
        <time>2021-08-03T11:24:18.931Z</time>
      </trkpt>
      <trkpt lat="46.99828" lon="8.86852">
        <ele>1543</ele>
        <time>2021-08-03T11:24:19.933Z</time>
      </trkpt>
      <trkpt lat="46.99829" lon="8.86851">
        <ele>1542</ele>
        <time>2021-08-03T11:24:20.933Z</time>
      </trkpt>
      <trkpt lat="46.99828" lon="8.86852">
        <ele>1543</ele>
        <time>2021-08-03T11:24:21.933Z</time>
      </trkpt>
      <trkpt lat="46.9983" lon="8.8685">
        <ele>1535</ele>
        <time>2021-08-03T11:24:22.933Z</time>
      </trkpt>
      <trkpt lat="46.9983" lon="8.86849">
        <ele>1534</ele>
        <time>2021-08-03T11:24:23.933Z</time>
      </trkpt>
      <trkpt lat="46.9983" lon="8.86849">
        <ele>1534</ele>
        <time>2021-08-03T11:24:24.932Z</time>
      </trkpt>
      <trkpt lat="46.99829" lon="8.86849">
        <ele>1533</ele>
        <time>2021-08-03T11:24:25.933Z</time>
      </trkpt>
      <trkpt lat="46.99828" lon="8.86849">
        <ele>1533</ele>
        <time>2021-08-03T11:24:26.932Z</time>
      </trkpt>
      <trkpt lat="46.99828" lon="8.86849">
        <ele>1533</ele>
        <time>2021-08-03T11:24:27.933Z</time>
      </trkpt>
      <trkpt lat="46.99827" lon="8.8685">
        <ele>1533</ele>
        <time>2021-08-03T11:24:28.932Z</time>
      </trkpt>
      <trkpt lat="46.99828" lon="8.8685">
        <ele>1533</ele>
        <time>2021-08-03T11:24:29.933Z</time>
      </trkpt>
      <trkpt lat="46.99828" lon="8.8685">
        <ele>1533</ele>
        <time>2021-08-03T11:24:30.933Z</time>
      </trkpt>
      <trkpt lat="46.99828" lon="8.86849">
        <ele>1532</ele>
        <time>2021-08-03T11:24:31.932Z</time>
      </trkpt>
      <trkpt lat="46.99828" lon="8.86849">
        <ele>1534</ele>
        <time>2021-08-03T11:24:32.935Z</time>
      </trkpt>
      <trkpt lat="46.99828" lon="8.86849">
        <ele>1535</ele>
        <time>2021-08-03T11:24:33.935Z</time>
      </trkpt>
      <trkpt lat="46.99827" lon="8.86851">
        <ele>1540</ele>
        <time>2021-08-03T11:24:34.934Z</time>
      </trkpt>
      <trkpt lat="46.99827" lon="8.8685">
        <ele>1540</ele>
        <time>2021-08-03T11:24:35.934Z</time>
      </trkpt>
      <trkpt lat="46.99827" lon="8.86851">
        <ele>1539</ele>
        <time>2021-08-03T11:24:36.935Z</time>
      </trkpt>
      <trkpt lat="46.99828" lon="8.86851">
        <ele>1539</ele>
        <time>2021-08-03T11:24:37.935Z</time>
      </trkpt>
      <trkpt lat="46.99828" lon="8.8685">
        <ele>1540</ele>
        <time>2021-08-03T11:24:39.989Z</time>
      </trkpt>
      <trkpt lat="46.99828" lon="8.8685">
        <ele>1540</ele>
        <time>2021-08-03T11:24:40.989Z</time>
      </trkpt>
      <trkpt lat="46.99827" lon="8.86849">
        <ele>1542</ele>
        <time>2021-08-03T11:24:41.990Z</time>
      </trkpt>
      <trkpt lat="46.99827" lon="8.86849">
        <ele>1543</ele>
        <time>2021-08-03T11:24:42.990Z</time>
      </trkpt>
      <trkpt lat="46.99827" lon="8.8685">
        <ele>1543</ele>
        <time>2021-08-03T11:24:43.990Z</time>
      </trkpt>
      <trkpt lat="46.9983" lon="8.86849">
        <ele>1544</ele>
        <time>2021-08-03T11:24:44.991Z</time>
      </trkpt>
      <trkpt lat="46.99829" lon="8.8685">
        <ele>1545</ele>
        <time>2021-08-03T11:24:45.990Z</time>
      </trkpt>
      <trkpt lat="46.99829" lon="8.86849">
        <ele>1544</ele>
        <time>2021-08-03T11:24:46.991Z</time>
      </trkpt>
      <trkpt lat="46.99828" lon="8.86849">
        <ele>1544</ele>
        <time>2021-08-03T11:24:47.990Z</time>
      </trkpt>
      <trkpt lat="46.99828" lon="8.8685">
        <ele>1543</ele>
        <time>2021-08-03T11:24:48.990Z</time>
      </trkpt>
      <trkpt lat="46.99828" lon="8.8685">
        <ele>1543</ele>
        <time>2021-08-03T11:24:49.990Z</time>
      </trkpt>
      <trkpt lat="46.99828" lon="8.86851">
        <ele>1543</ele>
        <time>2021-08-03T11:24:50.991Z</time>
      </trkpt>
      <trkpt lat="46.99828" lon="8.86851">
        <ele>1542</ele>
        <time>2021-08-03T11:24:51.991Z</time>
      </trkpt>
      <trkpt lat="46.99827" lon="8.86852">
        <ele>1543</ele>
        <time>2021-08-03T11:24:52.991Z</time>
      </trkpt>
      <trkpt lat="46.99827" lon="8.86852">
        <ele>1543</ele>
        <time>2021-08-03T11:24:53.990Z</time>
      </trkpt>
      <trkpt lat="46.99827" lon="8.86852">
        <ele>1543</ele>
        <time>2021-08-03T11:24:54.990Z</time>
      </trkpt>
      <trkpt lat="46.99828" lon="8.86846">
        <ele>1549</ele>
        <time>2021-08-03T11:24:55.991Z</time>
      </trkpt>
      <trkpt lat="46.99828" lon="8.86846">
        <ele>1549</ele>
        <time>2021-08-03T11:24:56.992Z</time>
      </trkpt>
      <trkpt lat="46.99827" lon="8.86846">
        <ele>1549</ele>
        <time>2021-08-03T11:24:57.991Z</time>
      </trkpt>
      <trkpt lat="46.99828" lon="8.86843">
        <ele>1549</ele>
        <time>2021-08-03T11:24:58.992Z</time>
      </trkpt>
      <trkpt lat="46.99827" lon="8.86844">
        <ele>1549</ele>
        <time>2021-08-03T11:24:59.993Z</time>
      </trkpt>
      <trkpt lat="46.99827" lon="8.86844">
        <ele>1549</ele>
        <time>2021-08-03T11:25:00.992Z</time>
      </trkpt>
      <trkpt lat="46.99827" lon="8.86843">
        <ele>1549</ele>
        <time>2021-08-03T11:25:01.993Z</time>
      </trkpt>
      <trkpt lat="46.99827" lon="8.86843">
        <ele>1546</ele>
        <time>2021-08-03T11:25:02.993Z</time>
      </trkpt>
      <trkpt lat="46.99827" lon="8.86843">
        <ele>1546</ele>
        <time>2021-08-03T11:25:03.993Z</time>
      </trkpt>
      <trkpt lat="46.99828" lon="8.86844">
        <ele>1546</ele>
        <time>2021-08-03T11:25:04.993Z</time>
      </trkpt>
      <trkpt lat="46.99828" lon="8.86844">
        <ele>1546</ele>
        <time>2021-08-03T11:25:05.992Z</time>
      </trkpt>
      <trkpt lat="46.99827" lon="8.86844">
        <ele>1547</ele>
        <time>2021-08-03T11:25:08.085Z</time>
      </trkpt>
      <trkpt lat="46.99827" lon="8.86841">
        <ele>1550</ele>
        <time>2021-08-03T11:25:09.086Z</time>
      </trkpt>
      <trkpt lat="46.99826" lon="8.86841">
        <ele>1550</ele>
        <time>2021-08-03T11:25:10.086Z</time>
      </trkpt>
      <trkpt lat="46.99826" lon="8.86841">
        <ele>1550</ele>
        <time>2021-08-03T11:25:11.086Z</time>
      </trkpt>
      <trkpt lat="46.99826" lon="8.86841">
        <ele>1550</ele>
        <time>2021-08-03T11:25:12.086Z</time>
      </trkpt>
      <trkpt lat="46.99826" lon="8.86843">
        <ele>1550</ele>
        <time>2021-08-03T11:25:14.226Z</time>
      </trkpt>
      <trkpt lat="46.99825" lon="8.86843">
        <ele>1550</ele>
        <time>2021-08-03T11:25:15.227Z</time>
      </trkpt>
      <trkpt lat="46.99825" lon="8.86843">
        <ele>1549</ele>
        <time>2021-08-03T11:25:16.227Z</time>
      </trkpt>
      <trkpt lat="46.99825" lon="8.86842">
        <ele>1549</ele>
        <time>2021-08-03T11:25:17.226Z</time>
      </trkpt>
      <trkpt lat="46.99825" lon="8.86842">
        <ele>1549</ele>
        <time>2021-08-03T11:25:18.227Z</time>
      </trkpt>
      <trkpt lat="46.99824" lon="8.86842">
        <ele>1549</ele>
        <time>2021-08-03T11:25:19.227Z</time>
      </trkpt>
      <trkpt lat="46.99824" lon="8.86843">
        <ele>1549</ele>
        <time>2021-08-03T11:25:20.226Z</time>
      </trkpt>
      <trkpt lat="46.99824" lon="8.86844">
        <ele>1549</ele>
        <time>2021-08-03T11:25:22.310Z</time>
      </trkpt>
      <trkpt lat="46.99824" lon="8.86844">
        <ele>1550</ele>
        <time>2021-08-03T11:25:23.310Z</time>
      </trkpt>
      <trkpt lat="46.99825" lon="8.86843">
        <ele>1550</ele>
        <time>2021-08-03T11:25:24.310Z</time>
      </trkpt>
      <trkpt lat="46.99825" lon="8.86843">
        <ele>1551</ele>
        <time>2021-08-03T11:25:25.310Z</time>
      </trkpt>
      <trkpt lat="46.99825" lon="8.86842">
        <ele>1552</ele>
        <time>2021-08-03T11:25:26.311Z</time>
      </trkpt>
      <trkpt lat="46.99826" lon="8.86843">
        <ele>1552</ele>
        <time>2021-08-03T11:25:27.310Z</time>
      </trkpt>
      <trkpt lat="46.99826" lon="8.86843">
        <ele>1551</ele>
        <time>2021-08-03T11:25:28.311Z</time>
      </trkpt>
      <trkpt lat="46.99826" lon="8.86842">
        <ele>1551</ele>
        <time>2021-08-03T11:25:29.310Z</time>
      </trkpt>
      <trkpt lat="46.99826" lon="8.86842">
        <ele>1550</ele>
        <time>2021-08-03T11:25:30.310Z</time>
      </trkpt>
      <trkpt lat="46.99826" lon="8.86842">
        <ele>1550</ele>
        <time>2021-08-03T11:25:31.310Z</time>
      </trkpt>
      <trkpt lat="46.99827" lon="8.86841">
        <ele>1548</ele>
        <time>2021-08-03T11:25:32.313Z</time>
      </trkpt>
      <trkpt lat="46.99827" lon="8.86841">
        <ele>1547</ele>
        <time>2021-08-03T11:25:33.313Z</time>
      </trkpt>
      <trkpt lat="46.99826" lon="8.86841">
        <ele>1547</ele>
        <time>2021-08-03T11:25:34.313Z</time>
      </trkpt>
      <trkpt lat="46.99826" lon="8.86841">
        <ele>1547</ele>
        <time>2021-08-03T11:25:35.312Z</time>
      </trkpt>
      <trkpt lat="46.99825" lon="8.8684">
        <ele>1548</ele>
        <time>2021-08-03T11:25:36.312Z</time>
      </trkpt>
      <trkpt lat="46.99825" lon="8.86843">
        <ele>1551</ele>
        <time>2021-08-03T11:25:37.313Z</time>
      </trkpt>
      <trkpt lat="46.99825" lon="8.86842">
        <ele>1551</ele>
        <time>2021-08-03T11:25:38.314Z</time>
      </trkpt>
      <trkpt lat="46.99825" lon="8.86842">
        <ele>1551</ele>
        <time>2021-08-03T11:25:39.313Z</time>
      </trkpt>
      <trkpt lat="46.99825" lon="8.86847">
        <ele>1545</ele>
        <time>2021-08-03T11:25:40.314Z</time>
      </trkpt>
      <trkpt lat="46.99825" lon="8.86848">
        <ele>1544</ele>
        <time>2021-08-03T11:25:41.314Z</time>
      </trkpt>
      <trkpt lat="46.99825" lon="8.86849">
        <ele>1544</ele>
        <time>2021-08-03T11:25:42.313Z</time>
      </trkpt>
      <trkpt lat="46.99825" lon="8.86849">
        <ele>1543</ele>
        <time>2021-08-03T11:25:43.313Z</time>
      </trkpt>
      <trkpt lat="46.99825" lon="8.86844">
        <ele>1544</ele>
        <time>2021-08-03T11:25:44.314Z</time>
      </trkpt>
      <trkpt lat="46.99825" lon="8.86843">
        <ele>1544</ele>
        <time>2021-08-03T11:25:45.314Z</time>
      </trkpt>
      <trkpt lat="46.99825" lon="8.86843">
        <ele>1545</ele>
        <time>2021-08-03T11:25:46.313Z</time>
      </trkpt>
      <trkpt lat="46.99825" lon="8.86844">
        <ele>1546</ele>
        <time>2021-08-03T11:25:47.314Z</time>
      </trkpt>
      <trkpt lat="46.99824" lon="8.86843">
        <ele>1547</ele>
        <time>2021-08-03T11:25:48.313Z</time>
      </trkpt>
      <trkpt lat="46.99824" lon="8.86848">
        <ele>1551</ele>
        <time>2021-08-03T11:25:49.314Z</time>
      </trkpt>
      <trkpt lat="46.99823" lon="8.86847">
        <ele>1552</ele>
        <time>2021-08-03T11:25:50.313Z</time>
      </trkpt>
      <trkpt lat="46.99823" lon="8.86847">
        <ele>1552</ele>
        <time>2021-08-03T11:25:51.314Z</time>
      </trkpt>
      <trkpt lat="46.99822" lon="8.86848">
        <ele>1556</ele>
        <time>2021-08-03T11:25:52.314Z</time>
      </trkpt>
      <trkpt lat="46.99822" lon="8.86849">
        <ele>1556</ele>
        <time>2021-08-03T11:25:53.314Z</time>
      </trkpt>
      <trkpt lat="46.99822" lon="8.86856">
        <ele>1554</ele>
        <time>2021-08-03T11:25:54.315Z</time>
      </trkpt>
      <trkpt lat="46.99823" lon="8.86856">
        <ele>1553</ele>
        <time>2021-08-03T11:25:55.315Z</time>
      </trkpt>
      <trkpt lat="46.99823" lon="8.86856">
        <ele>1552</ele>
        <time>2021-08-03T11:25:56.315Z</time>
      </trkpt>
      <trkpt lat="46.99823" lon="8.86857">
        <ele>1551</ele>
        <time>2021-08-03T11:25:57.314Z</time>
      </trkpt>
      <trkpt lat="46.99824" lon="8.86857">
        <ele>1550</ele>
        <time>2021-08-03T11:25:58.315Z</time>
      </trkpt>
      <trkpt lat="46.99826" lon="8.86861">
        <ele>1537</ele>
        <time>2021-08-03T11:25:59.314Z</time>
      </trkpt>
      <trkpt lat="46.99827" lon="8.86861">
        <ele>1537</ele>
        <time>2021-08-03T11:26:00.314Z</time>
      </trkpt>
      <trkpt lat="46.99827" lon="8.86861">
        <ele>1536</ele>
        <time>2021-08-03T11:26:01.315Z</time>
      </trkpt>
      <trkpt lat="46.99827" lon="8.86861">
        <ele>1536</ele>
        <time>2021-08-03T11:26:02.314Z</time>
      </trkpt>
      <trkpt lat="46.99827" lon="8.8686">
        <ele>1536</ele>
        <time>2021-08-03T11:26:03.315Z</time>
      </trkpt>
      <trkpt lat="46.99827" lon="8.8686">
        <ele>1535</ele>
        <time>2021-08-03T11:26:04.315Z</time>
      </trkpt>
      <trkpt lat="46.99827" lon="8.8686">
        <ele>1535</ele>
        <time>2021-08-03T11:26:05.315Z</time>
      </trkpt>
      <trkpt lat="46.99827" lon="8.86859">
        <ele>1535</ele>
        <time>2021-08-03T11:26:06.314Z</time>
      </trkpt>
      <trkpt lat="46.99827" lon="8.86859">
        <ele>1536</ele>
        <time>2021-08-03T11:26:07.315Z</time>
      </trkpt>
      <trkpt lat="46.99828" lon="8.86854">
        <ele>1540</ele>
        <time>2021-08-03T11:26:08.315Z</time>
      </trkpt>
      <trkpt lat="46.99828" lon="8.86854">
        <ele>1541</ele>
        <time>2021-08-03T11:26:09.314Z</time>
      </trkpt>
      <trkpt lat="46.99828" lon="8.86853">
        <ele>1541</ele>
        <time>2021-08-03T11:26:10.315Z</time>
      </trkpt>
      <trkpt lat="46.99828" lon="8.86851">
        <ele>1542</ele>
        <time>2021-08-03T11:26:11.315Z</time>
      </trkpt>
      <trkpt lat="46.99828" lon="8.86852">
        <ele>1542</ele>
        <time>2021-08-03T11:26:12.315Z</time>
      </trkpt>
      <trkpt lat="46.99826" lon="8.86847">
        <ele>1545</ele>
        <time>2021-08-03T11:26:13.315Z</time>
      </trkpt>
      <trkpt lat="46.99826" lon="8.86847">
        <ele>1546</ele>
        <time>2021-08-03T11:26:14.314Z</time>
      </trkpt>
      <trkpt lat="46.99826" lon="8.86847">
        <ele>1547</ele>
        <time>2021-08-03T11:26:15.314Z</time>
      </trkpt>
      <trkpt lat="46.99827" lon="8.86842">
        <ele>1545</ele>
        <time>2021-08-03T11:26:16.314Z</time>
      </trkpt>
      <trkpt lat="46.99826" lon="8.86841">
        <ele>1544</ele>
        <time>2021-08-03T11:26:17.315Z</time>
      </trkpt>
      <trkpt lat="46.99826" lon="8.8684">
        <ele>1543</ele>
        <time>2021-08-03T11:26:18.315Z</time>
      </trkpt>
      <trkpt lat="46.99832" lon="8.86839">
        <ele>1546</ele>
        <time>2021-08-03T11:26:19.316Z</time>
      </trkpt>
      <trkpt lat="46.9983" lon="8.86835">
        <ele>1548</ele>
        <time>2021-08-03T11:26:20.316Z</time>
      </trkpt>
      <trkpt lat="46.99828" lon="8.86832">
        <ele>1545</ele>
        <time>2021-08-03T11:26:21.316Z</time>
      </trkpt>
      <trkpt lat="46.99826" lon="8.86835">
        <ele>1550</ele>
        <time>2021-08-03T11:26:22.317Z</time>
      </trkpt>
      <trkpt lat="46.99826" lon="8.86838">
        <ele>1550</ele>
        <time>2021-08-03T11:26:23.318Z</time>
      </trkpt>
      <trkpt lat="46.99826" lon="8.8684">
        <ele>1550</ele>
        <time>2021-08-03T11:26:24.317Z</time>
      </trkpt>
      <trkpt lat="46.99826" lon="8.86841">
        <ele>1550</ele>
        <time>2021-08-03T11:26:25.318Z</time>
      </trkpt>
      <trkpt lat="46.99825" lon="8.86841">
        <ele>1550</ele>
        <time>2021-08-03T11:26:26.317Z</time>
      </trkpt>
      <trkpt lat="46.99825" lon="8.86842">
        <ele>1550</ele>
        <time>2021-08-03T11:26:27.318Z</time>
      </trkpt>
      <trkpt lat="46.99825" lon="8.86843">
        <ele>1551</ele>
        <time>2021-08-03T11:26:28.318Z</time>
      </trkpt>
      <trkpt lat="46.99824" lon="8.86842">
        <ele>1553</ele>
        <time>2021-08-03T11:26:29.318Z</time>
      </trkpt>
      <trkpt lat="46.99824" lon="8.86842">
        <ele>1553</ele>
        <time>2021-08-03T11:26:30.319Z</time>
      </trkpt>
      <trkpt lat="46.99824" lon="8.86842">
        <ele>1553</ele>
        <time>2021-08-03T11:26:31.318Z</time>
      </trkpt>
      <trkpt lat="46.99823" lon="8.86843">
        <ele>1554</ele>
        <time>2021-08-03T11:26:32.318Z</time>
      </trkpt>
      <trkpt lat="46.99823" lon="8.86843">
        <ele>1553</ele>
        <time>2021-08-03T11:26:33.319Z</time>
      </trkpt>
      <trkpt lat="46.99825" lon="8.86847">
        <ele>1556</ele>
        <time>2021-08-03T11:26:34.319Z</time>
      </trkpt>
      <trkpt lat="46.99825" lon="8.86848">
        <ele>1556</ele>
        <time>2021-08-03T11:26:35.319Z</time>
      </trkpt>
      <trkpt lat="46.99824" lon="8.86851">
        <ele>1556</ele>
        <time>2021-08-03T11:26:36.318Z</time>
      </trkpt>
      <trkpt lat="46.99827" lon="8.86851">
        <ele>1553</ele>
        <time>2021-08-03T11:26:37.319Z</time>
      </trkpt>
      <trkpt lat="46.99825" lon="8.86851">
        <ele>1552</ele>
        <time>2021-08-03T11:26:38.319Z</time>
      </trkpt>
      <trkpt lat="46.99827" lon="8.86846">
        <ele>1554</ele>
        <time>2021-08-03T11:26:39.319Z</time>
      </trkpt>
      <trkpt lat="46.99828" lon="8.86845">
        <ele>1554</ele>
        <time>2021-08-03T11:26:40.320Z</time>
      </trkpt>
      <trkpt lat="46.99828" lon="8.86844">
        <ele>1554</ele>
        <time>2021-08-03T11:26:41.319Z</time>
      </trkpt>
      <trkpt lat="46.99826" lon="8.86844">
        <ele>1556</ele>
        <time>2021-08-03T11:26:42.319Z</time>
      </trkpt>
      <trkpt lat="46.99826" lon="8.86844">
        <ele>1557</ele>
        <time>2021-08-03T11:26:43.319Z</time>
      </trkpt>
      <trkpt lat="46.99826" lon="8.86843">
        <ele>1557</ele>
        <time>2021-08-03T11:26:44.320Z</time>
      </trkpt>
      <trkpt lat="46.99823" lon="8.86847">
        <ele>1558</ele>
        <time>2021-08-03T11:26:45.320Z</time>
      </trkpt>
      <trkpt lat="46.99823" lon="8.86848">
        <ele>1558</ele>
        <time>2021-08-03T11:26:46.320Z</time>
      </trkpt>
      <trkpt lat="46.99827" lon="8.86849">
        <ele>1555</ele>
        <time>2021-08-03T11:26:47.319Z</time>
      </trkpt>
      <trkpt lat="46.99827" lon="8.86848">
        <ele>1554</ele>
        <time>2021-08-03T11:26:48.319Z</time>
      </trkpt>
      <trkpt lat="46.99827" lon="8.86848">
        <ele>1553</ele>
        <time>2021-08-03T11:26:49.320Z</time>
      </trkpt>
      <trkpt lat="46.99827" lon="8.86848">
        <ele>1552</ele>
        <time>2021-08-03T11:26:50.320Z</time>
      </trkpt>
      <trkpt lat="46.99827" lon="8.86848">
        <ele>1552</ele>
        <time>2021-08-03T11:26:51.319Z</time>
      </trkpt>
      <trkpt lat="46.99827" lon="8.86848">
        <ele>1551</ele>
        <time>2021-08-03T11:26:52.319Z</time>
      </trkpt>
      <trkpt lat="46.99828" lon="8.86848">
        <ele>1551</ele>
        <time>2021-08-03T11:26:53.319Z</time>
      </trkpt>
      <trkpt lat="46.99828" lon="8.86849">
        <ele>1549</ele>
        <time>2021-08-03T11:26:54.321Z</time>
      </trkpt>
      <trkpt lat="46.99828" lon="8.86849">
        <ele>1549</ele>
        <time>2021-08-03T11:26:55.321Z</time>
      </trkpt>
      <trkpt lat="46.99827" lon="8.8685">
        <ele>1548</ele>
        <time>2021-08-03T11:26:56.322Z</time>
      </trkpt>
      <trkpt lat="46.99827" lon="8.8685">
        <ele>1548</ele>
        <time>2021-08-03T11:26:57.322Z</time>
      </trkpt>
      <trkpt lat="46.99827" lon="8.8685">
        <ele>1548</ele>
        <time>2021-08-03T11:26:58.321Z</time>
      </trkpt>
      <trkpt lat="46.99826" lon="8.86847">
        <ele>1548</ele>
        <time>2021-08-03T11:26:59.322Z</time>
      </trkpt>
      <trkpt lat="46.99826" lon="8.86847">
        <ele>1547</ele>
        <time>2021-08-03T11:27:00.321Z</time>
      </trkpt>
      <trkpt lat="46.99826" lon="8.86847">
        <ele>1547</ele>
        <time>2021-08-03T11:27:01.321Z</time>
      </trkpt>
      <trkpt lat="46.99826" lon="8.8685">
        <ele>1547</ele>
        <time>2021-08-03T11:27:02.322Z</time>
      </trkpt>
      <trkpt lat="46.99825" lon="8.86852">
        <ele>1547</ele>
        <time>2021-08-03T11:27:03.321Z</time>
      </trkpt>
      <trkpt lat="46.99825" lon="8.86854">
        <ele>1547</ele>
        <time>2021-08-03T11:27:07.321Z</time>
      </trkpt>
      <trkpt lat="46.99823" lon="8.86853">
        <ele>1547</ele>
        <time>2021-08-03T11:27:08.321Z</time>
      </trkpt>
      <trkpt lat="46.99822" lon="8.86853">
        <ele>1548</ele>
        <time>2021-08-03T11:27:09.322Z</time>
      </trkpt>
      <trkpt lat="46.99822" lon="8.86853">
        <ele>1548</ele>
        <time>2021-08-03T11:27:10.322Z</time>
      </trkpt>
      <trkpt lat="46.99822" lon="8.86853">
        <ele>1548</ele>
        <time>2021-08-03T11:27:11.322Z</time>
      </trkpt>
      <trkpt lat="46.99822" lon="8.86852">
        <ele>1548</ele>
        <time>2021-08-03T11:27:12.323Z</time>
      </trkpt>
      <trkpt lat="46.99823" lon="8.86852">
        <ele>1549</ele>
        <time>2021-08-03T11:27:13.322Z</time>
      </trkpt>
      <trkpt lat="46.99823" lon="8.86852">
        <ele>1549</ele>
        <time>2021-08-03T11:27:14.323Z</time>
      </trkpt>
      <trkpt lat="46.99823" lon="8.86852">
        <ele>1549</ele>
        <time>2021-08-03T11:27:20.337Z</time>
      </trkpt>
      <trkpt lat="46.99824" lon="8.86851">
        <ele>1550</ele>
        <time>2021-08-03T11:27:21.337Z</time>
      </trkpt>
      <trkpt lat="46.99824" lon="8.8685">
        <ele>1550</ele>
        <time>2021-08-03T11:27:22.337Z</time>
      </trkpt>
      <trkpt lat="46.99825" lon="8.8685">
        <ele>1551</ele>
        <time>2021-08-03T11:27:23.339Z</time>
      </trkpt>
      <trkpt lat="46.99825" lon="8.86849">
        <ele>1551</ele>
        <time>2021-08-03T11:27:24.339Z</time>
      </trkpt>
      <trkpt lat="46.99826" lon="8.86848">
        <ele>1551</ele>
        <time>2021-08-03T11:27:25.339Z</time>
      </trkpt>
      <trkpt lat="46.99825" lon="8.86848">
        <ele>1551</ele>
        <time>2021-08-03T11:27:36.465Z</time>
      </trkpt>
      <trkpt lat="46.99825" lon="8.86846">
        <ele>1551</ele>
        <time>2021-08-03T11:27:37.465Z</time>
      </trkpt>
      <trkpt lat="46.99825" lon="8.86844">
        <ele>1552</ele>
        <time>2021-08-03T11:27:42.227Z</time>
      </trkpt>
      <trkpt lat="46.99825" lon="8.86843">
        <ele>1552</ele>
        <time>2021-08-03T11:27:43.228Z</time>
      </trkpt>
      <trkpt lat="46.99825" lon="8.86843">
        <ele>1552</ele>
        <time>2021-08-03T11:27:44.227Z</time>
      </trkpt>
      <trkpt lat="46.99828" lon="8.86847">
        <ele>1551</ele>
        <time>2021-08-03T11:27:45.229Z</time>
      </trkpt>
      <trkpt lat="46.99829" lon="8.86847">
        <ele>1550</ele>
        <time>2021-08-03T11:27:46.228Z</time>
      </trkpt>
      <trkpt lat="46.9983" lon="8.86848">
        <ele>1549</ele>
        <time>2021-08-03T11:27:47.228Z</time>
      </trkpt>
      <trkpt lat="46.99832" lon="8.86849">
        <ele>1549</ele>
        <time>2021-08-03T11:27:48.228Z</time>
      </trkpt>
      <trkpt lat="46.99833" lon="8.86849">
        <ele>1548</ele>
        <time>2021-08-03T11:27:49.229Z</time>
      </trkpt>
      <trkpt lat="46.99834" lon="8.86849">
        <ele>1548</ele>
        <time>2021-08-03T11:27:50.229Z</time>
      </trkpt>
      <trkpt lat="46.99835" lon="8.8685">
        <ele>1548</ele>
        <time>2021-08-03T11:27:51.228Z</time>
      </trkpt>
      <trkpt lat="46.99836" lon="8.86851">
        <ele>1548</ele>
        <time>2021-08-03T11:27:52.228Z</time>
      </trkpt>
      <trkpt lat="46.99837" lon="8.86852">
        <ele>1547</ele>
        <time>2021-08-03T11:27:53.228Z</time>
      </trkpt>
      <trkpt lat="46.99838" lon="8.86852">
        <ele>1547</ele>
        <time>2021-08-03T11:27:58.343Z</time>
      </trkpt>
      <trkpt lat="46.99839" lon="8.86853">
        <ele>1546</ele>
        <time>2021-08-03T11:28:05.221Z</time>
      </trkpt>
      <trkpt lat="46.9984" lon="8.86854">
        <ele>1545</ele>
        <time>2021-08-03T11:28:06.220Z</time>
      </trkpt>
      <trkpt lat="46.99841" lon="8.86854">
        <ele>1545</ele>
        <time>2021-08-03T11:28:07.221Z</time>
      </trkpt>
      <trkpt lat="46.99843" lon="8.86855">
        <ele>1545</ele>
        <time>2021-08-03T11:28:15.115Z</time>
      </trkpt>
      <trkpt lat="46.99844" lon="8.86855">
        <ele>1544</ele>
        <time>2021-08-03T11:28:16.115Z</time>
      </trkpt>
      <trkpt lat="46.99845" lon="8.86855">
        <ele>1544</ele>
        <time>2021-08-03T11:28:17.115Z</time>
      </trkpt>
      <trkpt lat="46.99846" lon="8.86856">
        <ele>1543</ele>
        <time>2021-08-03T11:28:27.236Z</time>
      </trkpt>
      <trkpt lat="46.99848" lon="8.86857">
        <ele>1542</ele>
        <time>2021-08-03T11:28:28.236Z</time>
      </trkpt>
      <trkpt lat="46.99849" lon="8.86857">
        <ele>1542</ele>
        <time>2021-08-03T11:28:29.237Z</time>
      </trkpt>
      <trkpt lat="46.9985" lon="8.86858">
        <ele>1541</ele>
        <time>2021-08-03T11:28:30.237Z</time>
      </trkpt>
      <trkpt lat="46.99852" lon="8.86858">
        <ele>1541</ele>
        <time>2021-08-03T11:28:31.237Z</time>
      </trkpt>
      <trkpt lat="46.99854" lon="8.86858">
        <ele>1540</ele>
        <time>2021-08-03T11:28:32.237Z</time>
      </trkpt>
      <trkpt lat="46.99855" lon="8.86859">
        <ele>1540</ele>
        <time>2021-08-03T11:28:33.237Z</time>
      </trkpt>
      <trkpt lat="46.99856" lon="8.8686">
        <ele>1539</ele>
        <time>2021-08-03T11:28:34.236Z</time>
      </trkpt>
      <trkpt lat="46.99857" lon="8.86861">
        <ele>1539</ele>
        <time>2021-08-03T11:28:38.356Z</time>
      </trkpt>
      <trkpt lat="46.99859" lon="8.86862">
        <ele>1539</ele>
        <time>2021-08-03T11:28:39.357Z</time>
      </trkpt>
      <trkpt lat="46.9986" lon="8.86863">
        <ele>1538</ele>
        <time>2021-08-03T11:28:40.357Z</time>
      </trkpt>
      <trkpt lat="46.99861" lon="8.86864">
        <ele>1538</ele>
        <time>2021-08-03T11:28:42.484Z</time>
      </trkpt>
      <trkpt lat="46.99863" lon="8.86865">
        <ele>1538</ele>
        <time>2021-08-03T11:28:43.483Z</time>
      </trkpt>
      <trkpt lat="46.99864" lon="8.86866">
        <ele>1537</ele>
        <time>2021-08-03T11:28:44.484Z</time>
      </trkpt>
      <trkpt lat="46.99865" lon="8.86867">
        <ele>1537</ele>
        <time>2021-08-03T11:28:46.604Z</time>
      </trkpt>
      <trkpt lat="46.99867" lon="8.86869">
        <ele>1537</ele>
        <time>2021-08-03T11:28:47.604Z</time>
      </trkpt>
      <trkpt lat="46.99868" lon="8.8687">
        <ele>1536</ele>
        <time>2021-08-03T11:28:48.603Z</time>
      </trkpt>
      <trkpt lat="46.99869" lon="8.86871">
        <ele>1536</ele>
        <time>2021-08-03T11:28:49.604Z</time>
      </trkpt>
      <trkpt lat="46.9987" lon="8.86872">
        <ele>1536</ele>
        <time>2021-08-03T11:28:50.603Z</time>
      </trkpt>
      <trkpt lat="46.99871" lon="8.86873">
        <ele>1535</ele>
        <time>2021-08-03T11:28:51.604Z</time>
      </trkpt>
      <trkpt lat="46.99871" lon="8.86875">
        <ele>1535</ele>
        <time>2021-08-03T11:28:52.604Z</time>
      </trkpt>
      <trkpt lat="46.99872" lon="8.86876">
        <ele>1535</ele>
        <time>2021-08-03T11:28:53.604Z</time>
      </trkpt>
      <trkpt lat="46.99873" lon="8.86878">
        <ele>1536</ele>
        <time>2021-08-03T11:28:54.604Z</time>
      </trkpt>
      <trkpt lat="46.99874" lon="8.8688">
        <ele>1536</ele>
        <time>2021-08-03T11:28:55.604Z</time>
      </trkpt>
      <trkpt lat="46.99874" lon="8.86882">
        <ele>1536</ele>
        <time>2021-08-03T11:28:56.604Z</time>
      </trkpt>
      <trkpt lat="46.99875" lon="8.86883">
        <ele>1536</ele>
        <time>2021-08-03T11:28:57.603Z</time>
      </trkpt>
      <trkpt lat="46.99876" lon="8.86885">
        <ele>1537</ele>
        <time>2021-08-03T11:28:58.604Z</time>
      </trkpt>
      <trkpt lat="46.99877" lon="8.86887">
        <ele>1537</ele>
        <time>2021-08-03T11:28:59.604Z</time>
      </trkpt>
      <trkpt lat="46.99878" lon="8.86888">
        <ele>1537</ele>
        <time>2021-08-03T11:29:00.604Z</time>
      </trkpt>
      <trkpt lat="46.99879" lon="8.86889">
        <ele>1537</ele>
        <time>2021-08-03T11:29:01.604Z</time>
      </trkpt>
      <trkpt lat="46.9988" lon="8.86891">
        <ele>1537</ele>
        <time>2021-08-03T11:29:02.604Z</time>
      </trkpt>
      <trkpt lat="46.99881" lon="8.86892">
        <ele>1537</ele>
        <time>2021-08-03T11:29:03.603Z</time>
      </trkpt>
      <trkpt lat="46.99882" lon="8.86893">
        <ele>1537</ele>
        <time>2021-08-03T11:29:04.603Z</time>
      </trkpt>
      <trkpt lat="46.99883" lon="8.86895">
        <ele>1537</ele>
        <time>2021-08-03T11:29:05.604Z</time>
      </trkpt>
      <trkpt lat="46.99884" lon="8.86897">
        <ele>1536</ele>
        <time>2021-08-03T11:29:06.604Z</time>
      </trkpt>
      <trkpt lat="46.99885" lon="8.86898">
        <ele>1535</ele>
        <time>2021-08-03T11:29:07.603Z</time>
      </trkpt>
      <trkpt lat="46.99885" lon="8.869">
        <ele>1535</ele>
        <time>2021-08-03T11:29:08.603Z</time>
      </trkpt>
      <trkpt lat="46.99886" lon="8.86902">
        <ele>1535</ele>
        <time>2021-08-03T11:29:09.603Z</time>
      </trkpt>
      <trkpt lat="46.99887" lon="8.86904">
        <ele>1535</ele>
        <time>2021-08-03T11:29:10.604Z</time>
      </trkpt>
      <trkpt lat="46.99887" lon="8.86906">
        <ele>1536</ele>
        <time>2021-08-03T11:29:11.604Z</time>
      </trkpt>
      <trkpt lat="46.99888" lon="8.86908">
        <ele>1536</ele>
        <time>2021-08-03T11:29:12.604Z</time>
      </trkpt>
      <trkpt lat="46.99889" lon="8.86909">
        <ele>1537</ele>
        <time>2021-08-03T11:29:13.603Z</time>
      </trkpt>
      <trkpt lat="46.9989" lon="8.86911">
        <ele>1537</ele>
        <time>2021-08-03T11:29:14.603Z</time>
      </trkpt>
      <trkpt lat="46.99891" lon="8.86913">
        <ele>1537</ele>
        <time>2021-08-03T11:29:15.603Z</time>
      </trkpt>
      <trkpt lat="46.99892" lon="8.86915">
        <ele>1537</ele>
        <time>2021-08-03T11:29:16.603Z</time>
      </trkpt>
      <trkpt lat="46.99893" lon="8.86917">
        <ele>1537</ele>
        <time>2021-08-03T11:29:17.603Z</time>
      </trkpt>
      <trkpt lat="46.99894" lon="8.86919">
        <ele>1537</ele>
        <time>2021-08-03T11:29:18.604Z</time>
      </trkpt>
      <trkpt lat="46.99895" lon="8.86921">
        <ele>1537</ele>
        <time>2021-08-03T11:29:19.604Z</time>
      </trkpt>
      <trkpt lat="46.99896" lon="8.86923">
        <ele>1537</ele>
        <time>2021-08-03T11:29:20.603Z</time>
      </trkpt>
      <trkpt lat="46.99897" lon="8.86925">
        <ele>1537</ele>
        <time>2021-08-03T11:29:21.603Z</time>
      </trkpt>
      <trkpt lat="46.99898" lon="8.86927">
        <ele>1537</ele>
        <time>2021-08-03T11:29:22.604Z</time>
      </trkpt>
      <trkpt lat="46.999" lon="8.86928">
        <ele>1537</ele>
        <time>2021-08-03T11:29:23.604Z</time>
      </trkpt>
      <trkpt lat="46.99901" lon="8.8693">
        <ele>1537</ele>
        <time>2021-08-03T11:29:24.603Z</time>
      </trkpt>
      <trkpt lat="46.99902" lon="8.86931">
        <ele>1537</ele>
        <time>2021-08-03T11:29:25.603Z</time>
      </trkpt>
      <trkpt lat="46.99903" lon="8.86933">
        <ele>1537</ele>
        <time>2021-08-03T11:29:26.604Z</time>
      </trkpt>
      <trkpt lat="46.99905" lon="8.86934">
        <ele>1537</ele>
        <time>2021-08-03T11:29:27.604Z</time>
      </trkpt>
      <trkpt lat="46.99906" lon="8.86935">
        <ele>1537</ele>
        <time>2021-08-03T11:29:28.604Z</time>
      </trkpt>
      <trkpt lat="46.99908" lon="8.86936">
        <ele>1536</ele>
        <time>2021-08-03T11:29:29.604Z</time>
      </trkpt>
      <trkpt lat="46.99909" lon="8.86937">
        <ele>1536</ele>
        <time>2021-08-03T11:29:30.604Z</time>
      </trkpt>
      <trkpt lat="46.99911" lon="8.86938">
        <ele>1536</ele>
        <time>2021-08-03T11:29:31.603Z</time>
      </trkpt>
      <trkpt lat="46.99912" lon="8.8694">
        <ele>1536</ele>
        <time>2021-08-03T11:29:32.603Z</time>
      </trkpt>
      <trkpt lat="46.99913" lon="8.86941">
        <ele>1535</ele>
        <time>2021-08-03T11:29:33.603Z</time>
      </trkpt>
      <trkpt lat="46.99914" lon="8.86942">
        <ele>1535</ele>
        <time>2021-08-03T11:29:34.603Z</time>
      </trkpt>
      <trkpt lat="46.99914" lon="8.86943">
        <ele>1535</ele>
        <time>2021-08-03T11:29:35.604Z</time>
      </trkpt>
      <trkpt lat="46.99915" lon="8.86944">
        <ele>1536</ele>
        <time>2021-08-03T11:29:36.604Z</time>
      </trkpt>
      <trkpt lat="46.99916" lon="8.86945">
        <ele>1536</ele>
        <time>2021-08-03T11:29:37.604Z</time>
      </trkpt>
      <trkpt lat="46.99916" lon="8.86945">
        <ele>1537</ele>
        <time>2021-08-03T11:29:38.604Z</time>
      </trkpt>
      <trkpt lat="46.99917" lon="8.86945">
        <ele>1537</ele>
        <time>2021-08-03T11:29:39.603Z</time>
      </trkpt>
      <trkpt lat="46.99916" lon="8.86945">
        <ele>1537</ele>
        <time>2021-08-03T11:29:40.604Z</time>
      </trkpt>
      <trkpt lat="46.99916" lon="8.86944">
        <ele>1537</ele>
        <time>2021-08-03T11:29:43.727Z</time>
      </trkpt>
      <trkpt lat="46.99917" lon="8.86945">
        <ele>1537</ele>
        <time>2021-08-03T11:29:44.727Z</time>
      </trkpt>
      <trkpt lat="46.99917" lon="8.86946">
        <ele>1538</ele>
        <time>2021-08-03T11:29:45.727Z</time>
      </trkpt>
      <trkpt lat="46.99917" lon="8.86946">
        <ele>1538</ele>
        <time>2021-08-03T11:29:46.727Z</time>
      </trkpt>
      <trkpt lat="46.99918" lon="8.86946">
        <ele>1538</ele>
        <time>2021-08-03T11:29:47.726Z</time>
      </trkpt>
      <trkpt lat="46.99917" lon="8.86944">
        <ele>1537</ele>
        <time>2021-08-03T11:29:48.727Z</time>
      </trkpt>
      <trkpt lat="46.99916" lon="8.86942">
        <ele>1537</ele>
        <time>2021-08-03T11:29:50.831Z</time>
      </trkpt>
      <trkpt lat="46.99915" lon="8.86941">
        <ele>1536</ele>
        <time>2021-08-03T11:29:51.830Z</time>
      </trkpt>
      <trkpt lat="46.99915" lon="8.8694">
        <ele>1536</ele>
        <time>2021-08-03T11:29:52.830Z</time>
      </trkpt>
      <trkpt lat="46.99914" lon="8.86938">
        <ele>1536</ele>
        <time>2021-08-03T11:29:53.831Z</time>
      </trkpt>
      <trkpt lat="46.99913" lon="8.86937">
        <ele>1536</ele>
        <time>2021-08-03T11:29:54.830Z</time>
      </trkpt>
      <trkpt lat="46.99912" lon="8.86937">
        <ele>1537</ele>
        <time>2021-08-03T11:29:55.831Z</time>
      </trkpt>
      <trkpt lat="46.99912" lon="8.86937">
        <ele>1537</ele>
        <time>2021-08-03T11:29:56.830Z</time>
      </trkpt>
      <trkpt lat="46.99912" lon="8.86938">
        <ele>1538</ele>
        <time>2021-08-03T11:29:57.831Z</time>
      </trkpt>
      <trkpt lat="46.99912" lon="8.86938">
        <ele>1538</ele>
        <time>2021-08-03T11:29:58.832Z</time>
      </trkpt>
      <trkpt lat="46.99912" lon="8.86938">
        <ele>1538</ele>
        <time>2021-08-03T11:29:59.831Z</time>
      </trkpt>
      <trkpt lat="46.99914" lon="8.86937">
        <ele>1537</ele>
        <time>2021-08-03T11:30:05.002Z</time>
      </trkpt>
      <trkpt lat="46.99915" lon="8.86937">
        <ele>1536</ele>
        <time>2021-08-03T11:30:06.002Z</time>
      </trkpt>
      <trkpt lat="46.99916" lon="8.86938">
        <ele>1535</ele>
        <time>2021-08-03T11:30:07.002Z</time>
      </trkpt>
      <trkpt lat="46.99918" lon="8.86938">
        <ele>1535</ele>
        <time>2021-08-03T11:30:08.003Z</time>
      </trkpt>
      <trkpt lat="46.9992" lon="8.86938">
        <ele>1535</ele>
        <time>2021-08-03T11:30:09.002Z</time>
      </trkpt>
      <trkpt lat="46.99921" lon="8.86939">
        <ele>1535</ele>
        <time>2021-08-03T11:30:10.003Z</time>
      </trkpt>
      <trkpt lat="46.99923" lon="8.86939">
        <ele>1534</ele>
        <time>2021-08-03T11:30:11.002Z</time>
      </trkpt>
      <trkpt lat="46.99924" lon="8.86939">
        <ele>1535</ele>
        <time>2021-08-03T11:30:12.003Z</time>
      </trkpt>
      <trkpt lat="46.99925" lon="8.8694">
        <ele>1535</ele>
        <time>2021-08-03T11:30:13.002Z</time>
      </trkpt>
      <trkpt lat="46.99926" lon="8.86939">
        <ele>1534</ele>
        <time>2021-08-03T11:30:14.002Z</time>
      </trkpt>
      <trkpt lat="46.99927" lon="8.86939">
        <ele>1534</ele>
        <time>2021-08-03T11:30:15.003Z</time>
      </trkpt>
      <trkpt lat="46.99927" lon="8.86939">
        <ele>1534</ele>
        <time>2021-08-03T11:30:16.002Z</time>
      </trkpt>
      <trkpt lat="46.99927" lon="8.86939">
        <ele>1535</ele>
        <time>2021-08-03T11:30:17.002Z</time>
      </trkpt>
      <trkpt lat="46.99927" lon="8.86939">
        <ele>1535</ele>
        <time>2021-08-03T11:30:18.003Z</time>
      </trkpt>
      <trkpt lat="46.99928" lon="8.8694">
        <ele>1535</ele>
        <time>2021-08-03T11:30:19.003Z</time>
      </trkpt>
      <trkpt lat="46.9993" lon="8.8694">
        <ele>1535</ele>
        <time>2021-08-03T11:30:20.002Z</time>
      </trkpt>
      <trkpt lat="46.99931" lon="8.86941">
        <ele>1535</ele>
        <time>2021-08-03T11:30:21.002Z</time>
      </trkpt>
      <trkpt lat="46.99932" lon="8.86941">
        <ele>1535</ele>
        <time>2021-08-03T11:30:22.002Z</time>
      </trkpt>
      <trkpt lat="46.99934" lon="8.86941">
        <ele>1535</ele>
        <time>2021-08-03T11:30:23.002Z</time>
      </trkpt>
      <trkpt lat="46.99935" lon="8.86941">
        <ele>1535</ele>
        <time>2021-08-03T11:30:24.003Z</time>
      </trkpt>
      <trkpt lat="46.99936" lon="8.86942">
        <ele>1536</ele>
        <time>2021-08-03T11:30:25.002Z</time>
      </trkpt>
      <trkpt lat="46.99937" lon="8.86943">
        <ele>1536</ele>
        <time>2021-08-03T11:30:26.002Z</time>
      </trkpt>
      <trkpt lat="46.99938" lon="8.86944">
        <ele>1537</ele>
        <time>2021-08-03T11:30:27.002Z</time>
      </trkpt>
      <trkpt lat="46.99939" lon="8.86944">
        <ele>1538</ele>
        <time>2021-08-03T11:30:28.002Z</time>
      </trkpt>
      <trkpt lat="46.99939" lon="8.86944">
        <ele>1538</ele>
        <time>2021-08-03T11:30:29.003Z</time>
      </trkpt>
      <trkpt lat="46.99939" lon="8.86943">
        <ele>1538</ele>
        <time>2021-08-03T11:30:30.002Z</time>
      </trkpt>
      <trkpt lat="46.99937" lon="8.86942">
        <ele>1539</ele>
        <time>2021-08-03T11:30:31.003Z</time>
      </trkpt>
      <trkpt lat="46.99936" lon="8.86941">
        <ele>1538</ele>
        <time>2021-08-03T11:30:32.002Z</time>
      </trkpt>
      <trkpt lat="46.99934" lon="8.8694">
        <ele>1538</ele>
        <time>2021-08-03T11:30:33.002Z</time>
      </trkpt>
      <trkpt lat="46.99933" lon="8.8694">
        <ele>1538</ele>
        <time>2021-08-03T11:30:34.003Z</time>
      </trkpt>
      <trkpt lat="46.99931" lon="8.86939">
        <ele>1538</ele>
        <time>2021-08-03T11:30:35.003Z</time>
      </trkpt>
      <trkpt lat="46.99929" lon="8.86939">
        <ele>1538</ele>
        <time>2021-08-03T11:30:36.003Z</time>
      </trkpt>
      <trkpt lat="46.99928" lon="8.86938">
        <ele>1538</ele>
        <time>2021-08-03T11:30:37.003Z</time>
      </trkpt>
      <trkpt lat="46.99926" lon="8.86937">
        <ele>1538</ele>
        <time>2021-08-03T11:30:38.003Z</time>
      </trkpt>
      <trkpt lat="46.99925" lon="8.86936">
        <ele>1539</ele>
        <time>2021-08-03T11:30:39.003Z</time>
      </trkpt>
      <trkpt lat="46.99923" lon="8.86936">
        <ele>1539</ele>
        <time>2021-08-03T11:30:40.002Z</time>
      </trkpt>
      <trkpt lat="46.99921" lon="8.86935">
        <ele>1540</ele>
        <time>2021-08-03T11:30:41.003Z</time>
      </trkpt>
      <trkpt lat="46.9992" lon="8.86935">
        <ele>1540</ele>
        <time>2021-08-03T11:30:42.003Z</time>
      </trkpt>
      <trkpt lat="46.99918" lon="8.86934">
        <ele>1541</ele>
        <time>2021-08-03T11:30:43.002Z</time>
      </trkpt>
      <trkpt lat="46.99917" lon="8.86933">
        <ele>1541</ele>
        <time>2021-08-03T11:30:44.003Z</time>
      </trkpt>
      <trkpt lat="46.99916" lon="8.86933">
        <ele>1540</ele>
        <time>2021-08-03T11:30:45.003Z</time>
      </trkpt>
      <trkpt lat="46.99915" lon="8.86932">
        <ele>1539</ele>
        <time>2021-08-03T11:30:46.003Z</time>
      </trkpt>
      <trkpt lat="46.99914" lon="8.86932">
        <ele>1539</ele>
        <time>2021-08-03T11:30:47.003Z</time>
      </trkpt>
      <trkpt lat="46.99913" lon="8.86931">
        <ele>1539</ele>
        <time>2021-08-03T11:30:48.003Z</time>
      </trkpt>
      <trkpt lat="46.99912" lon="8.86931">
        <ele>1539</ele>
        <time>2021-08-03T11:30:49.002Z</time>
      </trkpt>
      <trkpt lat="46.99911" lon="8.86931">
        <ele>1538</ele>
        <time>2021-08-03T11:30:50.003Z</time>
      </trkpt>
      <trkpt lat="46.9991" lon="8.8693">
        <ele>1538</ele>
        <time>2021-08-03T11:30:51.002Z</time>
      </trkpt>
      <trkpt lat="46.99909" lon="8.8693">
        <ele>1539</ele>
        <time>2021-08-03T11:30:52.003Z</time>
      </trkpt>
      <trkpt lat="46.99908" lon="8.86929">
        <ele>1539</ele>
        <time>2021-08-03T11:30:53.002Z</time>
      </trkpt>
      <trkpt lat="46.99907" lon="8.86928">
        <ele>1540</ele>
        <time>2021-08-03T11:30:54.002Z</time>
      </trkpt>
      <trkpt lat="46.99906" lon="8.86928">
        <ele>1540</ele>
        <time>2021-08-03T11:30:55.003Z</time>
      </trkpt>
      <trkpt lat="46.99905" lon="8.86927">
        <ele>1540</ele>
        <time>2021-08-03T11:30:56.003Z</time>
      </trkpt>
      <trkpt lat="46.99904" lon="8.86926">
        <ele>1539</ele>
        <time>2021-08-03T11:31:01.126Z</time>
      </trkpt>
      <trkpt lat="46.99903" lon="8.86925">
        <ele>1539</ele>
        <time>2021-08-03T11:31:02.126Z</time>
      </trkpt>
      <trkpt lat="46.99902" lon="8.86923">
        <ele>1539</ele>
        <time>2021-08-03T11:31:03.126Z</time>
      </trkpt>
      <trkpt lat="46.99901" lon="8.86922">
        <ele>1539</ele>
        <time>2021-08-03T11:31:04.126Z</time>
      </trkpt>
      <trkpt lat="46.99901" lon="8.86921">
        <ele>1538</ele>
        <time>2021-08-03T11:31:05.126Z</time>
      </trkpt>
      <trkpt lat="46.999" lon="8.86919">
        <ele>1538</ele>
        <time>2021-08-03T11:31:06.126Z</time>
      </trkpt>
      <trkpt lat="46.99899" lon="8.86918">
        <ele>1538</ele>
        <time>2021-08-03T11:31:07.126Z</time>
      </trkpt>
      <trkpt lat="46.99898" lon="8.86916">
        <ele>1539</ele>
        <time>2021-08-03T11:31:08.126Z</time>
      </trkpt>
      <trkpt lat="46.99897" lon="8.86914">
        <ele>1539</ele>
        <time>2021-08-03T11:31:09.126Z</time>
      </trkpt>
      <trkpt lat="46.99896" lon="8.86913">
        <ele>1539</ele>
        <time>2021-08-03T11:31:10.126Z</time>
      </trkpt>
      <trkpt lat="46.99895" lon="8.86911">
        <ele>1539</ele>
        <time>2021-08-03T11:31:11.126Z</time>
      </trkpt>
      <trkpt lat="46.99894" lon="8.86909">
        <ele>1538</ele>
        <time>2021-08-03T11:31:12.126Z</time>
      </trkpt>
      <trkpt lat="46.99893" lon="8.86908">
        <ele>1539</ele>
        <time>2021-08-03T11:31:13.125Z</time>
      </trkpt>
      <trkpt lat="46.99893" lon="8.86906">
        <ele>1539</ele>
        <time>2021-08-03T11:31:14.126Z</time>
      </trkpt>
      <trkpt lat="46.99892" lon="8.86904">
        <ele>1539</ele>
        <time>2021-08-03T11:31:15.125Z</time>
      </trkpt>
      <trkpt lat="46.99891" lon="8.86903">
        <ele>1539</ele>
        <time>2021-08-03T11:31:16.126Z</time>
      </trkpt>
      <trkpt lat="46.9989" lon="8.86901">
        <ele>1538</ele>
        <time>2021-08-03T11:31:17.125Z</time>
      </trkpt>
      <trkpt lat="46.99889" lon="8.869">
        <ele>1538</ele>
        <time>2021-08-03T11:31:18.125Z</time>
      </trkpt>
      <trkpt lat="46.99888" lon="8.86898">
        <ele>1538</ele>
        <time>2021-08-03T11:31:19.125Z</time>
      </trkpt>
      <trkpt lat="46.99887" lon="8.86897">
        <ele>1538</ele>
        <time>2021-08-03T11:31:20.126Z</time>
      </trkpt>
      <trkpt lat="46.99886" lon="8.86895">
        <ele>1538</ele>
        <time>2021-08-03T11:31:21.126Z</time>
      </trkpt>
      <trkpt lat="46.99885" lon="8.86893">
        <ele>1538</ele>
        <time>2021-08-03T11:31:22.126Z</time>
      </trkpt>
      <trkpt lat="46.99885" lon="8.86891">
        <ele>1538</ele>
        <time>2021-08-03T11:31:23.126Z</time>
      </trkpt>
      <trkpt lat="46.99884" lon="8.86889">
        <ele>1538</ele>
        <time>2021-08-03T11:31:24.125Z</time>
      </trkpt>
      <trkpt lat="46.99883" lon="8.86887">
        <ele>1538</ele>
        <time>2021-08-03T11:31:25.126Z</time>
      </trkpt>
      <trkpt lat="46.99882" lon="8.86886">
        <ele>1539</ele>
        <time>2021-08-03T11:31:26.125Z</time>
      </trkpt>
      <trkpt lat="46.99881" lon="8.86885">
        <ele>1539</ele>
        <time>2021-08-03T11:31:27.126Z</time>
      </trkpt>
      <trkpt lat="46.9988" lon="8.86883">
        <ele>1539</ele>
        <time>2021-08-03T11:31:28.125Z</time>
      </trkpt>
      <trkpt lat="46.99879" lon="8.86881">
        <ele>1539</ele>
        <time>2021-08-03T11:31:29.126Z</time>
      </trkpt>
      <trkpt lat="46.99878" lon="8.8688">
        <ele>1539</ele>
        <time>2021-08-03T11:31:30.126Z</time>
      </trkpt>
      <trkpt lat="46.99877" lon="8.86878">
        <ele>1540</ele>
        <time>2021-08-03T11:31:31.126Z</time>
      </trkpt>
      <trkpt lat="46.99877" lon="8.86877">
        <ele>1539</ele>
        <time>2021-08-03T11:31:32.125Z</time>
      </trkpt>
      <trkpt lat="46.99876" lon="8.86875">
        <ele>1539</ele>
        <time>2021-08-03T11:31:33.126Z</time>
      </trkpt>
      <trkpt lat="46.99875" lon="8.86874">
        <ele>1539</ele>
        <time>2021-08-03T11:31:34.126Z</time>
      </trkpt>
      <trkpt lat="46.99874" lon="8.86872">
        <ele>1539</ele>
        <time>2021-08-03T11:31:35.125Z</time>
      </trkpt>
      <trkpt lat="46.99873" lon="8.86871">
        <ele>1540</ele>
        <time>2021-08-03T11:31:36.125Z</time>
      </trkpt>
      <trkpt lat="46.99871" lon="8.86869">
        <ele>1540</ele>
        <time>2021-08-03T11:31:37.126Z</time>
      </trkpt>
      <trkpt lat="46.9987" lon="8.86868">
        <ele>1541</ele>
        <time>2021-08-03T11:31:38.126Z</time>
      </trkpt>
      <trkpt lat="46.99869" lon="8.86866">
        <ele>1541</ele>
        <time>2021-08-03T11:31:39.126Z</time>
      </trkpt>
      <trkpt lat="46.99868" lon="8.86865">
        <ele>1541</ele>
        <time>2021-08-03T11:31:40.126Z</time>
      </trkpt>
      <trkpt lat="46.99866" lon="8.86863">
        <ele>1541</ele>
        <time>2021-08-03T11:31:41.126Z</time>
      </trkpt>
      <trkpt lat="46.99865" lon="8.86861">
        <ele>1542</ele>
        <time>2021-08-03T11:31:42.126Z</time>
      </trkpt>
      <trkpt lat="46.99864" lon="8.8686">
        <ele>1542</ele>
        <time>2021-08-03T11:31:43.126Z</time>
      </trkpt>
      <trkpt lat="46.99863" lon="8.86859">
        <ele>1542</ele>
        <time>2021-08-03T11:31:44.125Z</time>
      </trkpt>
      <trkpt lat="46.99861" lon="8.86858">
        <ele>1542</ele>
        <time>2021-08-03T11:31:45.125Z</time>
      </trkpt>
      <trkpt lat="46.99859" lon="8.86857">
        <ele>1542</ele>
        <time>2021-08-03T11:31:46.126Z</time>
      </trkpt>
      <trkpt lat="46.99858" lon="8.86856">
        <ele>1542</ele>
        <time>2021-08-03T11:31:47.126Z</time>
      </trkpt>
      <trkpt lat="46.99856" lon="8.86856">
        <ele>1543</ele>
        <time>2021-08-03T11:31:48.125Z</time>
      </trkpt>
      <trkpt lat="46.99854" lon="8.86856">
        <ele>1542</ele>
        <time>2021-08-03T11:31:49.126Z</time>
      </trkpt>
      <trkpt lat="46.99853" lon="8.86855">
        <ele>1542</ele>
        <time>2021-08-03T11:31:50.126Z</time>
      </trkpt>
      <trkpt lat="46.99852" lon="8.86855">
        <ele>1541</ele>
        <time>2021-08-03T11:31:51.126Z</time>
      </trkpt>
      <trkpt lat="46.99851" lon="8.86854">
        <ele>1541</ele>
        <time>2021-08-03T11:31:52.125Z</time>
      </trkpt>
      <trkpt lat="46.9985" lon="8.86853">
        <ele>1541</ele>
        <time>2021-08-03T11:31:53.125Z</time>
      </trkpt>
      <trkpt lat="46.99848" lon="8.86853">
        <ele>1540</ele>
        <time>2021-08-03T11:31:54.126Z</time>
      </trkpt>
      <trkpt lat="46.99847" lon="8.86852">
        <ele>1540</ele>
        <time>2021-08-03T11:31:55.125Z</time>
      </trkpt>
      <trkpt lat="46.99845" lon="8.86851">
        <ele>1540</ele>
        <time>2021-08-03T11:31:56.125Z</time>
      </trkpt>
      <trkpt lat="46.99843" lon="8.86851">
        <ele>1540</ele>
        <time>2021-08-03T11:31:57.126Z</time>
      </trkpt>
      <trkpt lat="46.99842" lon="8.8685">
        <ele>1541</ele>
        <time>2021-08-03T11:31:58.125Z</time>
      </trkpt>
      <trkpt lat="46.99841" lon="8.8685">
        <ele>1541</ele>
        <time>2021-08-03T11:31:59.126Z</time>
      </trkpt>
      <trkpt lat="46.9984" lon="8.8685">
        <ele>1541</ele>
        <time>2021-08-03T11:32:00.126Z</time>
      </trkpt>
      <trkpt lat="46.99838" lon="8.8685">
        <ele>1541</ele>
        <time>2021-08-03T11:32:01.125Z</time>
      </trkpt>
      <trkpt lat="46.99837" lon="8.8685">
        <ele>1541</ele>
        <time>2021-08-03T11:32:02.126Z</time>
      </trkpt>
      <trkpt lat="46.99836" lon="8.8685">
        <ele>1541</ele>
        <time>2021-08-03T11:32:03.126Z</time>
      </trkpt>
      <trkpt lat="46.99834" lon="8.8685">
        <ele>1541</ele>
        <time>2021-08-03T11:32:04.125Z</time>
      </trkpt>
      <trkpt lat="46.99833" lon="8.86849">
        <ele>1541</ele>
        <time>2021-08-03T11:32:05.126Z</time>
      </trkpt>
      <trkpt lat="46.99832" lon="8.86849">
        <ele>1541</ele>
        <time>2021-08-03T11:32:06.125Z</time>
      </trkpt>
      <trkpt lat="46.99831" lon="8.86849">
        <ele>1541</ele>
        <time>2021-08-03T11:32:07.126Z</time>
      </trkpt>
      <trkpt lat="46.9983" lon="8.86848">
        <ele>1542</ele>
        <time>2021-08-03T11:32:08.126Z</time>
      </trkpt>
      <trkpt lat="46.99829" lon="8.86848">
        <ele>1543</ele>
        <time>2021-08-03T11:32:09.126Z</time>
      </trkpt>
      <trkpt lat="46.99829" lon="8.86848">
        <ele>1543</ele>
        <time>2021-08-03T11:32:10.126Z</time>
      </trkpt>
      <trkpt lat="46.99829" lon="8.86848">
        <ele>1544</ele>
        <time>2021-08-03T11:32:11.126Z</time>
      </trkpt>
      <trkpt lat="46.9983" lon="8.86848">
        <ele>1543</ele>
        <time>2021-08-03T11:32:12.127Z</time>
      </trkpt>
      <trkpt lat="46.9983" lon="8.86848">
        <ele>1543</ele>
        <time>2021-08-03T11:32:13.128Z</time>
      </trkpt>
      <trkpt lat="46.9983" lon="8.86848">
        <ele>1543</ele>
        <time>2021-08-03T11:32:14.127Z</time>
      </trkpt>
      <trkpt lat="46.9983" lon="8.86848">
        <ele>1543</ele>
        <time>2021-08-03T11:32:15.127Z</time>
      </trkpt>
      <trkpt lat="46.9983" lon="8.86848">
        <ele>1544</ele>
        <time>2021-08-03T11:32:16.128Z</time>
      </trkpt>
      <trkpt lat="46.9983" lon="8.86846">
        <ele>1544</ele>
        <time>2021-08-03T11:32:17.128Z</time>
      </trkpt>
      <trkpt lat="46.99827" lon="8.86845">
        <ele>1544</ele>
        <time>2021-08-03T11:32:18.128Z</time>
      </trkpt>
      <trkpt lat="46.99826" lon="8.86845">
        <ele>1544</ele>
        <time>2021-08-03T11:32:19.128Z</time>
      </trkpt>
      <trkpt lat="46.99827" lon="8.86845">
        <ele>1544</ele>
        <time>2021-08-03T11:32:20.127Z</time>
      </trkpt>
      <trkpt lat="46.99828" lon="8.86844">
        <ele>1542</ele>
        <time>2021-08-03T11:32:21.127Z</time>
      </trkpt>
      <trkpt lat="46.99827" lon="8.86844">
        <ele>1542</ele>
        <time>2021-08-03T11:32:22.128Z</time>
      </trkpt>
      <trkpt lat="46.99827" lon="8.86844">
        <ele>1543</ele>
        <time>2021-08-03T11:32:23.127Z</time>
      </trkpt>
      <trkpt lat="46.99827" lon="8.86844">
        <ele>1543</ele>
        <time>2021-08-03T11:32:24.128Z</time>
      </trkpt>
      <trkpt lat="46.99827" lon="8.86844">
        <ele>1543</ele>
        <time>2021-08-03T11:32:25.127Z</time>
      </trkpt>
      <trkpt lat="46.99824" lon="8.86841">
        <ele>1546</ele>
        <time>2021-08-03T11:32:26.127Z</time>
      </trkpt>
      <trkpt lat="46.99824" lon="8.86841">
        <ele>1547</ele>
        <time>2021-08-03T11:32:27.128Z</time>
      </trkpt>
      <trkpt lat="46.99823" lon="8.86841">
        <ele>1547</ele>
        <time>2021-08-03T11:32:28.127Z</time>
      </trkpt>
      <trkpt lat="46.99823" lon="8.86842">
        <ele>1547</ele>
        <time>2021-08-03T11:32:29.127Z</time>
      </trkpt>
      <trkpt lat="46.99822" lon="8.86843">
        <ele>1547</ele>
        <time>2021-08-03T11:32:30.128Z</time>
      </trkpt>
      <trkpt lat="46.99823" lon="8.86843">
        <ele>1547</ele>
        <time>2021-08-03T11:32:31.128Z</time>
      </trkpt>
      <trkpt lat="46.99823" lon="8.86843">
        <ele>1547</ele>
        <time>2021-08-03T11:32:32.128Z</time>
      </trkpt>
      <trkpt lat="46.99823" lon="8.86844">
        <ele>1547</ele>
        <time>2021-08-03T11:32:33.127Z</time>
      </trkpt>
      <trkpt lat="46.99827" lon="8.86846">
        <ele>1539</ele>
        <time>2021-08-03T11:32:34.127Z</time>
      </trkpt>
      <trkpt lat="46.99827" lon="8.86847">
        <ele>1537</ele>
        <time>2021-08-03T11:32:35.129Z</time>
      </trkpt>
      <trkpt lat="46.99827" lon="8.86847">
        <ele>1536</ele>
        <time>2021-08-03T11:32:36.128Z</time>
      </trkpt>
      <trkpt lat="46.99827" lon="8.86847">
        <ele>1536</ele>
        <time>2021-08-03T11:32:37.128Z</time>
      </trkpt>
      <trkpt lat="46.99827" lon="8.86847">
        <ele>1535</ele>
        <time>2021-08-03T11:32:38.129Z</time>
      </trkpt>
      <trkpt lat="46.99825" lon="8.86849">
        <ele>1535</ele>
        <time>2021-08-03T11:32:39.130Z</time>
      </trkpt>
      <trkpt lat="46.99824" lon="8.86851">
        <ele>1535</ele>
        <time>2021-08-03T11:32:40.129Z</time>
      </trkpt>
      <trkpt lat="46.99825" lon="8.86851">
        <ele>1535</ele>
        <time>2021-08-03T11:32:41.129Z</time>
      </trkpt>
      <trkpt lat="46.99825" lon="8.86851">
        <ele>1535</ele>
        <time>2021-08-03T11:32:42.130Z</time>
      </trkpt>
      <trkpt lat="46.99824" lon="8.86852">
        <ele>1537</ele>
        <time>2021-08-03T11:32:43.131Z</time>
      </trkpt>
      <trkpt lat="46.99824" lon="8.86852">
        <ele>1537</ele>
        <time>2021-08-03T11:32:44.130Z</time>
      </trkpt>
      <trkpt lat="46.99824" lon="8.86852">
        <ele>1537</ele>
        <time>2021-08-03T11:32:45.130Z</time>
      </trkpt>
      <trkpt lat="46.99823" lon="8.86846">
        <ele>1541</ele>
        <time>2021-08-03T11:32:46.130Z</time>
      </trkpt>
      <trkpt lat="46.99824" lon="8.86846">
        <ele>1541</ele>
        <time>2021-08-03T11:32:47.131Z</time>
      </trkpt>
      <trkpt lat="46.99824" lon="8.86846">
        <ele>1541</ele>
        <time>2021-08-03T11:32:48.130Z</time>
      </trkpt>
      <trkpt lat="46.99825" lon="8.86847">
        <ele>1541</ele>
        <time>2021-08-03T11:32:49.130Z</time>
      </trkpt>
      <trkpt lat="46.99825" lon="8.86848">
        <ele>1541</ele>
        <time>2021-08-03T11:32:50.130Z</time>
      </trkpt>
      <trkpt lat="46.99825" lon="8.86849">
        <ele>1541</ele>
        <time>2021-08-03T11:32:51.130Z</time>
      </trkpt>
      <trkpt lat="46.99825" lon="8.86849">
        <ele>1540</ele>
        <time>2021-08-03T11:32:52.130Z</time>
      </trkpt>
      <trkpt lat="46.99826" lon="8.86849">
        <ele>1539</ele>
        <time>2021-08-03T11:32:53.130Z</time>
      </trkpt>
      <trkpt lat="46.99826" lon="8.86848">
        <ele>1539</ele>
        <time>2021-08-03T11:32:54.130Z</time>
      </trkpt>
      <trkpt lat="46.99827" lon="8.86849">
        <ele>1538</ele>
        <time>2021-08-03T11:32:55.130Z</time>
      </trkpt>
      <trkpt lat="46.99827" lon="8.86848">
        <ele>1538</ele>
        <time>2021-08-03T11:32:56.130Z</time>
      </trkpt>
      <trkpt lat="46.99827" lon="8.86848">
        <ele>1538</ele>
        <time>2021-08-03T11:32:57.130Z</time>
      </trkpt>
      <trkpt lat="46.99828" lon="8.86848">
        <ele>1537</ele>
        <time>2021-08-03T11:32:58.130Z</time>
      </trkpt>
      <trkpt lat="46.99828" lon="8.86847">
        <ele>1536</ele>
        <time>2021-08-03T11:32:59.131Z</time>
      </trkpt>
      <trkpt lat="46.99829" lon="8.86846">
        <ele>1535</ele>
        <time>2021-08-03T11:33:00.131Z</time>
      </trkpt>
      <trkpt lat="46.9983" lon="8.86845">
        <ele>1535</ele>
        <time>2021-08-03T11:33:01.131Z</time>
      </trkpt>
      <trkpt lat="46.9983" lon="8.86844">
        <ele>1534</ele>
        <time>2021-08-03T11:33:02.131Z</time>
      </trkpt>
      <trkpt lat="46.99831" lon="8.86844">
        <ele>1534</ele>
        <time>2021-08-03T11:33:03.131Z</time>
      </trkpt>
      <trkpt lat="46.99831" lon="8.86846">
        <ele>1535</ele>
        <time>2021-08-03T11:33:04.131Z</time>
      </trkpt>
      <trkpt lat="46.99831" lon="8.86846">
        <ele>1535</ele>
        <time>2021-08-03T11:33:05.131Z</time>
      </trkpt>
      <trkpt lat="46.99832" lon="8.86843">
        <ele>1548</ele>
        <time>2021-08-03T11:33:06.132Z</time>
      </trkpt>
      <trkpt lat="46.99832" lon="8.86844">
        <ele>1549</ele>
        <time>2021-08-03T11:33:07.131Z</time>
      </trkpt>
      <trkpt lat="46.99833" lon="8.86845">
        <ele>1552</ele>
        <time>2021-08-03T11:33:08.131Z</time>
      </trkpt>
      <trkpt lat="46.99834" lon="8.86845">
        <ele>1552</ele>
        <time>2021-08-03T11:33:09.131Z</time>
      </trkpt>
      <trkpt lat="46.99834" lon="8.86845">
        <ele>1552</ele>
        <time>2021-08-03T11:33:10.131Z</time>
      </trkpt>
      <trkpt lat="46.99834" lon="8.86846">
        <ele>1552</ele>
        <time>2021-08-03T11:33:11.131Z</time>
      </trkpt>
      <trkpt lat="46.99834" lon="8.86846">
        <ele>1552</ele>
        <time>2021-08-03T11:33:12.131Z</time>
      </trkpt>
      <trkpt lat="46.99835" lon="8.86846">
        <ele>1549</ele>
        <time>2021-08-03T11:33:13.132Z</time>
      </trkpt>
      <trkpt lat="46.99835" lon="8.86845">
        <ele>1548</ele>
        <time>2021-08-03T11:33:14.132Z</time>
      </trkpt>
      <trkpt lat="46.99836" lon="8.86844">
        <ele>1547</ele>
        <time>2021-08-03T11:33:15.132Z</time>
      </trkpt>
      <trkpt lat="46.99836" lon="8.86844">
        <ele>1546</ele>
        <time>2021-08-03T11:33:16.132Z</time>
      </trkpt>
      <trkpt lat="46.99832" lon="8.86847">
        <ele>1542</ele>
        <time>2021-08-03T11:33:17.133Z</time>
      </trkpt>
      <trkpt lat="46.99832" lon="8.86847">
        <ele>1541</ele>
        <time>2021-08-03T11:33:18.132Z</time>
      </trkpt>
      <trkpt lat="46.99832" lon="8.86847">
        <ele>1538</ele>
        <time>2021-08-03T11:33:19.132Z</time>
      </trkpt>
      <trkpt lat="46.99833" lon="8.86847">
        <ele>1538</ele>
        <time>2021-08-03T11:33:20.133Z</time>
      </trkpt>
      <trkpt lat="46.99831" lon="8.86844">
        <ele>1542</ele>
        <time>2021-08-03T11:33:21.133Z</time>
      </trkpt>
      <trkpt lat="46.9983" lon="8.86843">
        <ele>1542</ele>
        <time>2021-08-03T11:33:22.133Z</time>
      </trkpt>
      <trkpt lat="46.99829" lon="8.86842">
        <ele>1542</ele>
        <time>2021-08-03T11:33:23.133Z</time>
      </trkpt>
      <trkpt lat="46.99828" lon="8.8684">
        <ele>1542</ele>
        <time>2021-08-03T11:33:24.133Z</time>
      </trkpt>
      <trkpt lat="46.99827" lon="8.86839">
        <ele>1542</ele>
        <time>2021-08-03T11:33:25.132Z</time>
      </trkpt>
      <trkpt lat="46.99825" lon="8.86837">
        <ele>1542</ele>
        <time>2021-08-03T11:33:26.132Z</time>
      </trkpt>
      <trkpt lat="46.99822" lon="8.86834">
        <ele>1542</ele>
        <time>2021-08-03T11:33:27.133Z</time>
      </trkpt>
      <trkpt lat="46.9982" lon="8.86831">
        <ele>1542</ele>
        <time>2021-08-03T11:33:28.132Z</time>
      </trkpt>
      <trkpt lat="46.99817" lon="8.86827">
        <ele>1542</ele>
        <time>2021-08-03T11:33:29.133Z</time>
      </trkpt>
      <trkpt lat="46.99814" lon="8.86823">
        <ele>1543</ele>
        <time>2021-08-03T11:33:30.133Z</time>
      </trkpt>
      <trkpt lat="46.99812" lon="8.8682">
        <ele>1543</ele>
        <time>2021-08-03T11:33:31.133Z</time>
      </trkpt>
      <trkpt lat="46.99809" lon="8.86816">
        <ele>1543</ele>
        <time>2021-08-03T11:33:32.133Z</time>
      </trkpt>
      <trkpt lat="46.99806" lon="8.86811">
        <ele>1543</ele>
        <time>2021-08-03T11:33:33.133Z</time>
      </trkpt>
      <trkpt lat="46.99804" lon="8.86807">
        <ele>1543</ele>
        <time>2021-08-03T11:33:34.132Z</time>
      </trkpt>
      <trkpt lat="46.99801" lon="8.86803">
        <ele>1543</ele>
        <time>2021-08-03T11:33:35.133Z</time>
      </trkpt>
      <trkpt lat="46.99799" lon="8.86798">
        <ele>1544</ele>
        <time>2021-08-03T11:33:36.132Z</time>
      </trkpt>
      <trkpt lat="46.99797" lon="8.86794">
        <ele>1544</ele>
        <time>2021-08-03T11:33:37.133Z</time>
      </trkpt>
      <trkpt lat="46.99794" lon="8.8679">
        <ele>1543</ele>
        <time>2021-08-03T11:33:38.133Z</time>
      </trkpt>
      <trkpt lat="46.99792" lon="8.86787">
        <ele>1543</ele>
        <time>2021-08-03T11:33:39.132Z</time>
      </trkpt>
      <trkpt lat="46.99789" lon="8.86783">
        <ele>1543</ele>
        <time>2021-08-03T11:33:40.133Z</time>
      </trkpt>
      <trkpt lat="46.99787" lon="8.86779">
        <ele>1543</ele>
        <time>2021-08-03T11:33:41.133Z</time>
      </trkpt>
      <trkpt lat="46.99785" lon="8.86776">
        <ele>1543</ele>
        <time>2021-08-03T11:33:42.132Z</time>
      </trkpt>
      <trkpt lat="46.99782" lon="8.86772">
        <ele>1544</ele>
        <time>2021-08-03T11:33:43.133Z</time>
      </trkpt>
      <trkpt lat="46.9978" lon="8.86768">
        <ele>1543</ele>
        <time>2021-08-03T11:33:44.133Z</time>
      </trkpt>
      <trkpt lat="46.99777" lon="8.86765">
        <ele>1544</ele>
        <time>2021-08-03T11:33:45.132Z</time>
      </trkpt>
      <trkpt lat="46.99774" lon="8.86761">
        <ele>1544</ele>
        <time>2021-08-03T11:33:46.133Z</time>
      </trkpt>
      <trkpt lat="46.99771" lon="8.86757">
        <ele>1544</ele>
        <time>2021-08-03T11:33:47.133Z</time>
      </trkpt>
      <trkpt lat="46.99768" lon="8.86753">
        <ele>1544</ele>
        <time>2021-08-03T11:33:48.133Z</time>
      </trkpt>
      <trkpt lat="46.99764" lon="8.86749">
        <ele>1543</ele>
        <time>2021-08-03T11:33:49.133Z</time>
      </trkpt>
      <trkpt lat="46.9976" lon="8.86745">
        <ele>1543</ele>
        <time>2021-08-03T11:33:50.132Z</time>
      </trkpt>
      <trkpt lat="46.99757" lon="8.86742">
        <ele>1543</ele>
        <time>2021-08-03T11:33:51.133Z</time>
      </trkpt>
      <trkpt lat="46.99754" lon="8.86739">
        <ele>1544</ele>
        <time>2021-08-03T11:33:52.133Z</time>
      </trkpt>
      <trkpt lat="46.9975" lon="8.86735">
        <ele>1544</ele>
        <time>2021-08-03T11:33:53.133Z</time>
      </trkpt>
      <trkpt lat="46.99747" lon="8.86732">
        <ele>1544</ele>
        <time>2021-08-03T11:33:54.133Z</time>
      </trkpt>
      <trkpt lat="46.99744" lon="8.86729">
        <ele>1544</ele>
        <time>2021-08-03T11:33:55.132Z</time>
      </trkpt>
      <trkpt lat="46.99741" lon="8.86726">
        <ele>1544</ele>
        <time>2021-08-03T11:33:56.133Z</time>
      </trkpt>
      <trkpt lat="46.99738" lon="8.86724">
        <ele>1544</ele>
        <time>2021-08-03T11:33:57.133Z</time>
      </trkpt>
      <trkpt lat="46.99735" lon="8.86722">
        <ele>1544</ele>
        <time>2021-08-03T11:33:58.133Z</time>
      </trkpt>
      <trkpt lat="46.99732" lon="8.86722">
        <ele>1544</ele>
        <time>2021-08-03T11:33:59.132Z</time>
      </trkpt>
      <trkpt lat="46.99729" lon="8.86722">
        <ele>1544</ele>
        <time>2021-08-03T11:34:00.132Z</time>
      </trkpt>
      <trkpt lat="46.99726" lon="8.86722">
        <ele>1544</ele>
        <time>2021-08-03T11:34:01.132Z</time>
      </trkpt>
      <trkpt lat="46.99723" lon="8.86723">
        <ele>1544</ele>
        <time>2021-08-03T11:34:02.133Z</time>
      </trkpt>
      <trkpt lat="46.9972" lon="8.86724">
        <ele>1543</ele>
        <time>2021-08-03T11:34:03.133Z</time>
      </trkpt>
      <trkpt lat="46.99716" lon="8.86725">
        <ele>1543</ele>
        <time>2021-08-03T11:34:04.133Z</time>
      </trkpt>
      <trkpt lat="46.99713" lon="8.86726">
        <ele>1543</ele>
        <time>2021-08-03T11:34:05.133Z</time>
      </trkpt>
      <trkpt lat="46.99709" lon="8.86726">
        <ele>1543</ele>
        <time>2021-08-03T11:34:06.132Z</time>
      </trkpt>
      <trkpt lat="46.99705" lon="8.86727">
        <ele>1543</ele>
        <time>2021-08-03T11:34:07.133Z</time>
      </trkpt>
      <trkpt lat="46.99701" lon="8.86728">
        <ele>1543</ele>
        <time>2021-08-03T11:34:08.133Z</time>
      </trkpt>
      <trkpt lat="46.99697" lon="8.86729">
        <ele>1543</ele>
        <time>2021-08-03T11:34:09.133Z</time>
      </trkpt>
      <trkpt lat="46.99693" lon="8.86729">
        <ele>1544</ele>
        <time>2021-08-03T11:34:10.133Z</time>
      </trkpt>
      <trkpt lat="46.99689" lon="8.86729">
        <ele>1544</ele>
        <time>2021-08-03T11:34:11.132Z</time>
      </trkpt>
      <trkpt lat="46.99684" lon="8.8673">
        <ele>1544</ele>
        <time>2021-08-03T11:34:12.133Z</time>
      </trkpt>
      <trkpt lat="46.9968" lon="8.8673">
        <ele>1544</ele>
        <time>2021-08-03T11:34:13.132Z</time>
      </trkpt>
      <trkpt lat="46.99675" lon="8.8673">
        <ele>1544</ele>
        <time>2021-08-03T11:34:14.132Z</time>
      </trkpt>
      <trkpt lat="46.99672" lon="8.8673">
        <ele>1544</ele>
        <time>2021-08-03T11:34:15.132Z</time>
      </trkpt>
      <trkpt lat="46.99667" lon="8.86731">
        <ele>1544</ele>
        <time>2021-08-03T11:34:16.132Z</time>
      </trkpt>
      <trkpt lat="46.99663" lon="8.86731">
        <ele>1544</ele>
        <time>2021-08-03T11:34:17.133Z</time>
      </trkpt>
      <trkpt lat="46.99658" lon="8.86731">
        <ele>1544</ele>
        <time>2021-08-03T11:34:18.133Z</time>
      </trkpt>
      <trkpt lat="46.99654" lon="8.8673">
        <ele>1544</ele>
        <time>2021-08-03T11:34:19.133Z</time>
      </trkpt>
      <trkpt lat="46.9965" lon="8.8673">
        <ele>1543</ele>
        <time>2021-08-03T11:34:20.133Z</time>
      </trkpt>
      <trkpt lat="46.99645" lon="8.86728">
        <ele>1543</ele>
        <time>2021-08-03T11:34:21.132Z</time>
      </trkpt>
      <trkpt lat="46.99641" lon="8.86727">
        <ele>1543</ele>
        <time>2021-08-03T11:34:22.133Z</time>
      </trkpt>
      <trkpt lat="46.99637" lon="8.86725">
        <ele>1543</ele>
        <time>2021-08-03T11:34:23.132Z</time>
      </trkpt>
      <trkpt lat="46.99634" lon="8.86723">
        <ele>1543</ele>
        <time>2021-08-03T11:34:24.132Z</time>
      </trkpt>
      <trkpt lat="46.9963" lon="8.86721">
        <ele>1542</ele>
        <time>2021-08-03T11:34:25.133Z</time>
      </trkpt>
      <trkpt lat="46.99627" lon="8.86718">
        <ele>1542</ele>
        <time>2021-08-03T11:34:26.132Z</time>
      </trkpt>
      <trkpt lat="46.99624" lon="8.86715">
        <ele>1541</ele>
        <time>2021-08-03T11:34:27.132Z</time>
      </trkpt>
      <trkpt lat="46.99622" lon="8.86713">
        <ele>1541</ele>
        <time>2021-08-03T11:34:28.133Z</time>
      </trkpt>
      <trkpt lat="46.99619" lon="8.86711">
        <ele>1541</ele>
        <time>2021-08-03T11:34:29.132Z</time>
      </trkpt>
      <trkpt lat="46.99617" lon="8.8671">
        <ele>1541</ele>
        <time>2021-08-03T11:34:30.133Z</time>
      </trkpt>
      <trkpt lat="46.99615" lon="8.86709">
        <ele>1540</ele>
        <time>2021-08-03T11:34:31.133Z</time>
      </trkpt>
      <trkpt lat="46.99613" lon="8.86708">
        <ele>1540</ele>
        <time>2021-08-03T11:34:32.133Z</time>
      </trkpt>
      <trkpt lat="46.99613" lon="8.86708">
        <ele>1539</ele>
        <time>2021-08-03T11:34:33.132Z</time>
      </trkpt>
      <trkpt lat="46.99613" lon="8.86709">
        <ele>1539</ele>
        <time>2021-08-03T11:34:34.133Z</time>
      </trkpt>
      <trkpt lat="46.99613" lon="8.86709">
        <ele>1538</ele>
        <time>2021-08-03T11:34:35.133Z</time>
      </trkpt>
      <trkpt lat="46.99613" lon="8.86709">
        <ele>1538</ele>
        <time>2021-08-03T11:34:36.132Z</time>
      </trkpt>
      <trkpt lat="46.99614" lon="8.86709">
        <ele>1538</ele>
        <time>2021-08-03T11:34:37.133Z</time>
      </trkpt>
      <trkpt lat="46.99614" lon="8.86708">
        <ele>1549</ele>
        <time>2021-08-03T11:34:38.134Z</time>
      </trkpt>
      <trkpt lat="46.99615" lon="8.86708">
        <ele>1548</ele>
        <time>2021-08-03T11:34:39.134Z</time>
      </trkpt>
      <trkpt lat="46.99615" lon="8.86708">
        <ele>1548</ele>
        <time>2021-08-03T11:34:40.133Z</time>
      </trkpt>
      <trkpt lat="46.99616" lon="8.86708">
        <ele>1548</ele>
        <time>2021-08-03T11:34:41.134Z</time>
      </trkpt>
      <trkpt lat="46.99616" lon="8.86708">
        <ele>1548</ele>
        <time>2021-08-03T11:34:42.134Z</time>
      </trkpt>
      <trkpt lat="46.99619" lon="8.86707">
        <ele>1546</ele>
        <time>2021-08-03T11:34:43.135Z</time>
      </trkpt>
      <trkpt lat="46.99619" lon="8.86707">
        <ele>1545</ele>
        <time>2021-08-03T11:34:44.135Z</time>
      </trkpt>
      <trkpt lat="46.9962" lon="8.86708">
        <ele>1544</ele>
        <time>2021-08-03T11:34:45.134Z</time>
      </trkpt>
      <trkpt lat="46.99621" lon="8.86708">
        <ele>1544</ele>
        <time>2021-08-03T11:34:46.134Z</time>
      </trkpt>
      <trkpt lat="46.99622" lon="8.8671">
        <ele>1544</ele>
        <time>2021-08-03T11:34:47.134Z</time>
      </trkpt>
      <trkpt lat="46.99623" lon="8.86711">
        <ele>1544</ele>
        <time>2021-08-03T11:34:48.134Z</time>
      </trkpt>
      <trkpt lat="46.99624" lon="8.86712">
        <ele>1544</ele>
        <time>2021-08-03T11:34:49.134Z</time>
      </trkpt>
      <trkpt lat="46.99625" lon="8.86713">
        <ele>1543</ele>
        <time>2021-08-03T11:34:50.135Z</time>
      </trkpt>
      <trkpt lat="46.99626" lon="8.86714">
        <ele>1543</ele>
        <time>2021-08-03T11:34:51.135Z</time>
      </trkpt>
      <trkpt lat="46.99627" lon="8.86716">
        <ele>1543</ele>
        <time>2021-08-03T11:34:52.134Z</time>
      </trkpt>
      <trkpt lat="46.99628" lon="8.86717">
        <ele>1543</ele>
        <time>2021-08-03T11:34:53.135Z</time>
      </trkpt>
      <trkpt lat="46.99629" lon="8.86718">
        <ele>1542</ele>
        <time>2021-08-03T11:34:54.134Z</time>
      </trkpt>
      <trkpt lat="46.9963" lon="8.86718">
        <ele>1542</ele>
        <time>2021-08-03T11:34:55.134Z</time>
      </trkpt>
      <trkpt lat="46.99631" lon="8.8672">
        <ele>1542</ele>
        <time>2021-08-03T11:34:56.134Z</time>
      </trkpt>
      <trkpt lat="46.99632" lon="8.86721">
        <ele>1542</ele>
        <time>2021-08-03T11:34:57.134Z</time>
      </trkpt>
      <trkpt lat="46.99633" lon="8.86722">
        <ele>1542</ele>
        <time>2021-08-03T11:34:58.135Z</time>
      </trkpt>
      <trkpt lat="46.99635" lon="8.86723">
        <ele>1542</ele>
        <time>2021-08-03T11:34:59.134Z</time>
      </trkpt>
      <trkpt lat="46.99636" lon="8.86724">
        <ele>1543</ele>
        <time>2021-08-03T11:35:00.134Z</time>
      </trkpt>
      <trkpt lat="46.99636" lon="8.86725">
        <ele>1543</ele>
        <time>2021-08-03T11:35:01.134Z</time>
      </trkpt>
      <trkpt lat="46.99637" lon="8.86726">
        <ele>1544</ele>
        <time>2021-08-03T11:35:02.135Z</time>
      </trkpt>
      <trkpt lat="46.99638" lon="8.86727">
        <ele>1543</ele>
        <time>2021-08-03T11:35:03.134Z</time>
      </trkpt>
      <trkpt lat="46.9964" lon="8.86728">
        <ele>1543</ele>
        <time>2021-08-03T11:35:04.135Z</time>
      </trkpt>
      <trkpt lat="46.99641" lon="8.86728">
        <ele>1543</ele>
        <time>2021-08-03T11:35:05.134Z</time>
      </trkpt>
      <trkpt lat="46.99642" lon="8.86729">
        <ele>1542</ele>
        <time>2021-08-03T11:35:06.134Z</time>
      </trkpt>
      <trkpt lat="46.99643" lon="8.86729">
        <ele>1542</ele>
        <time>2021-08-03T11:35:07.134Z</time>
      </trkpt>
      <trkpt lat="46.99644" lon="8.86729">
        <ele>1541</ele>
        <time>2021-08-03T11:35:08.134Z</time>
      </trkpt>
      <trkpt lat="46.99645" lon="8.8673">
        <ele>1541</ele>
        <time>2021-08-03T11:35:09.134Z</time>
      </trkpt>
      <trkpt lat="46.99646" lon="8.86731">
        <ele>1540</ele>
        <time>2021-08-03T11:35:10.134Z</time>
      </trkpt>
      <trkpt lat="46.99647" lon="8.86731">
        <ele>1540</ele>
        <time>2021-08-03T11:35:11.134Z</time>
      </trkpt>
      <trkpt lat="46.99648" lon="8.86732">
        <ele>1540</ele>
        <time>2021-08-03T11:35:12.134Z</time>
      </trkpt>
      <trkpt lat="46.99649" lon="8.86733">
        <ele>1540</ele>
        <time>2021-08-03T11:35:13.134Z</time>
      </trkpt>
      <trkpt lat="46.99651" lon="8.86733">
        <ele>1540</ele>
        <time>2021-08-03T11:35:14.134Z</time>
      </trkpt>
      <trkpt lat="46.99652" lon="8.86733">
        <ele>1540</ele>
        <time>2021-08-03T11:35:15.134Z</time>
      </trkpt>
      <trkpt lat="46.99653" lon="8.86734">
        <ele>1540</ele>
        <time>2021-08-03T11:35:16.134Z</time>
      </trkpt>
      <trkpt lat="46.99654" lon="8.86734">
        <ele>1539</ele>
        <time>2021-08-03T11:35:17.135Z</time>
      </trkpt>
      <trkpt lat="46.99655" lon="8.86734">
        <ele>1539</ele>
        <time>2021-08-03T11:35:18.135Z</time>
      </trkpt>
      <trkpt lat="46.99657" lon="8.86734">
        <ele>1539</ele>
        <time>2021-08-03T11:35:19.134Z</time>
      </trkpt>
      <trkpt lat="46.99658" lon="8.86734">
        <ele>1539</ele>
        <time>2021-08-03T11:35:20.134Z</time>
      </trkpt>
      <trkpt lat="46.99659" lon="8.86735">
        <ele>1539</ele>
        <time>2021-08-03T11:35:21.134Z</time>
      </trkpt>
      <trkpt lat="46.9966" lon="8.86735">
        <ele>1539</ele>
        <time>2021-08-03T11:35:22.134Z</time>
      </trkpt>
      <trkpt lat="46.99661" lon="8.86735">
        <ele>1539</ele>
        <time>2021-08-03T11:35:23.135Z</time>
      </trkpt>
      <trkpt lat="46.99662" lon="8.86735">
        <ele>1539</ele>
        <time>2021-08-03T11:35:24.135Z</time>
      </trkpt>
      <trkpt lat="46.99663" lon="8.86735">
        <ele>1539</ele>
        <time>2021-08-03T11:35:25.135Z</time>
      </trkpt>
      <trkpt lat="46.99664" lon="8.86736">
        <ele>1539</ele>
        <time>2021-08-03T11:35:26.135Z</time>
      </trkpt>
      <trkpt lat="46.99665" lon="8.86736">
        <ele>1539</ele>
        <time>2021-08-03T11:35:27.135Z</time>
      </trkpt>
      <trkpt lat="46.99666" lon="8.86736">
        <ele>1539</ele>
        <time>2021-08-03T11:35:28.135Z</time>
      </trkpt>
      <trkpt lat="46.99667" lon="8.86736">
        <ele>1539</ele>
        <time>2021-08-03T11:35:29.134Z</time>
      </trkpt>
      <trkpt lat="46.99668" lon="8.86736">
        <ele>1539</ele>
        <time>2021-08-03T11:35:30.134Z</time>
      </trkpt>
      <trkpt lat="46.99669" lon="8.86736">
        <ele>1539</ele>
        <time>2021-08-03T11:35:31.134Z</time>
      </trkpt>
      <trkpt lat="46.9967" lon="8.86736">
        <ele>1540</ele>
        <time>2021-08-03T11:35:32.134Z</time>
      </trkpt>
      <trkpt lat="46.99671" lon="8.86736">
        <ele>1540</ele>
        <time>2021-08-03T11:35:33.135Z</time>
      </trkpt>
      <trkpt lat="46.99672" lon="8.86736">
        <ele>1540</ele>
        <time>2021-08-03T11:35:34.135Z</time>
      </trkpt>
      <trkpt lat="46.99673" lon="8.86735">
        <ele>1541</ele>
        <time>2021-08-03T11:35:35.134Z</time>
      </trkpt>
      <trkpt lat="46.99674" lon="8.86735">
        <ele>1541</ele>
        <time>2021-08-03T11:35:36.134Z</time>
      </trkpt>
      <trkpt lat="46.99675" lon="8.86735">
        <ele>1541</ele>
        <time>2021-08-03T11:35:37.135Z</time>
      </trkpt>
      <trkpt lat="46.99676" lon="8.86735">
        <ele>1541</ele>
        <time>2021-08-03T11:35:38.135Z</time>
      </trkpt>
      <trkpt lat="46.99677" lon="8.86735">
        <ele>1541</ele>
        <time>2021-08-03T11:35:39.134Z</time>
      </trkpt>
      <trkpt lat="46.99678" lon="8.86735">
        <ele>1541</ele>
        <time>2021-08-03T11:35:40.134Z</time>
      </trkpt>
      <trkpt lat="46.99679" lon="8.86735">
        <ele>1542</ele>
        <time>2021-08-03T11:35:41.135Z</time>
      </trkpt>
      <trkpt lat="46.9968" lon="8.86735">
        <ele>1542</ele>
        <time>2021-08-03T11:35:42.135Z</time>
      </trkpt>
      <trkpt lat="46.99681" lon="8.86735">
        <ele>1543</ele>
        <time>2021-08-03T11:35:43.135Z</time>
      </trkpt>
      <trkpt lat="46.99682" lon="8.86735">
        <ele>1544</ele>
        <time>2021-08-03T11:35:44.134Z</time>
      </trkpt>
      <trkpt lat="46.99683" lon="8.86735">
        <ele>1544</ele>
        <time>2021-08-03T11:35:45.134Z</time>
      </trkpt>
      <trkpt lat="46.99683" lon="8.86735">
        <ele>1544</ele>
        <time>2021-08-03T11:35:46.134Z</time>
      </trkpt>
      <trkpt lat="46.99684" lon="8.86735">
        <ele>1544</ele>
        <time>2021-08-03T11:35:47.135Z</time>
      </trkpt>
      <trkpt lat="46.99684" lon="8.86735">
        <ele>1544</ele>
        <time>2021-08-03T11:35:48.135Z</time>
      </trkpt>
      <trkpt lat="46.99685" lon="8.86735">
        <ele>1544</ele>
        <time>2021-08-03T11:35:49.134Z</time>
      </trkpt>
      <trkpt lat="46.99685" lon="8.86735">
        <ele>1544</ele>
        <time>2021-08-03T11:35:50.135Z</time>
      </trkpt>
      <trkpt lat="46.99686" lon="8.86736">
        <ele>1544</ele>
        <time>2021-08-03T11:35:51.135Z</time>
      </trkpt>
      <trkpt lat="46.99687" lon="8.86736">
        <ele>1544</ele>
        <time>2021-08-03T11:35:52.135Z</time>
      </trkpt>
      <trkpt lat="46.99688" lon="8.86735">
        <ele>1544</ele>
        <time>2021-08-03T11:35:53.135Z</time>
      </trkpt>
      <trkpt lat="46.99688" lon="8.86735">
        <ele>1544</ele>
        <time>2021-08-03T11:35:54.134Z</time>
      </trkpt>
      <trkpt lat="46.99689" lon="8.86735">
        <ele>1544</ele>
        <time>2021-08-03T11:35:55.135Z</time>
      </trkpt>
      <trkpt lat="46.9969" lon="8.86735">
        <ele>1544</ele>
        <time>2021-08-03T11:35:56.135Z</time>
      </trkpt>
      <trkpt lat="46.99691" lon="8.86735">
        <ele>1542</ele>
        <time>2021-08-03T11:35:57.134Z</time>
      </trkpt>
      <trkpt lat="46.99692" lon="8.86735">
        <ele>1542</ele>
        <time>2021-08-03T11:35:58.135Z</time>
      </trkpt>
      <trkpt lat="46.99693" lon="8.86735">
        <ele>1542</ele>
        <time>2021-08-03T11:35:59.134Z</time>
      </trkpt>
      <trkpt lat="46.99694" lon="8.86734">
        <ele>1542</ele>
        <time>2021-08-03T11:36:00.134Z</time>
      </trkpt>
      <trkpt lat="46.99695" lon="8.86734">
        <ele>1542</ele>
        <time>2021-08-03T11:36:01.135Z</time>
      </trkpt>
      <trkpt lat="46.99696" lon="8.86734">
        <ele>1542</ele>
        <time>2021-08-03T11:36:02.135Z</time>
      </trkpt>
      <trkpt lat="46.99697" lon="8.86734">
        <ele>1542</ele>
        <time>2021-08-03T11:36:03.135Z</time>
      </trkpt>
      <trkpt lat="46.99699" lon="8.86734">
        <ele>1542</ele>
        <time>2021-08-03T11:36:04.135Z</time>
      </trkpt>
      <trkpt lat="46.997" lon="8.86733">
        <ele>1543</ele>
        <time>2021-08-03T11:36:05.135Z</time>
      </trkpt>
      <trkpt lat="46.99701" lon="8.86733">
        <ele>1543</ele>
        <time>2021-08-03T11:36:06.135Z</time>
      </trkpt>
      <trkpt lat="46.99702" lon="8.86733">
        <ele>1543</ele>
        <time>2021-08-03T11:36:07.135Z</time>
      </trkpt>
      <trkpt lat="46.99703" lon="8.86734">
        <ele>1544</ele>
        <time>2021-08-03T11:36:08.135Z</time>
      </trkpt>
      <trkpt lat="46.99704" lon="8.86734">
        <ele>1544</ele>
        <time>2021-08-03T11:36:09.135Z</time>
      </trkpt>
      <trkpt lat="46.99705" lon="8.86734">
        <ele>1544</ele>
        <time>2021-08-03T11:36:10.134Z</time>
      </trkpt>
      <trkpt lat="46.99706" lon="8.86734">
        <ele>1544</ele>
        <time>2021-08-03T11:36:11.135Z</time>
      </trkpt>
      <trkpt lat="46.99707" lon="8.86734">
        <ele>1544</ele>
        <time>2021-08-03T11:36:12.135Z</time>
      </trkpt>
      <trkpt lat="46.99708" lon="8.86734">
        <ele>1545</ele>
        <time>2021-08-03T11:36:13.135Z</time>
      </trkpt>
      <trkpt lat="46.99709" lon="8.86734">
        <ele>1545</ele>
        <time>2021-08-03T11:36:14.135Z</time>
      </trkpt>
      <trkpt lat="46.9971" lon="8.86734">
        <ele>1545</ele>
        <time>2021-08-03T11:36:15.135Z</time>
      </trkpt>
      <trkpt lat="46.9971" lon="8.86734">
        <ele>1544</ele>
        <time>2021-08-03T11:36:16.135Z</time>
      </trkpt>
      <trkpt lat="46.99711" lon="8.86734">
        <ele>1544</ele>
        <time>2021-08-03T11:36:17.134Z</time>
      </trkpt>
      <trkpt lat="46.99711" lon="8.86733">
        <ele>1543</ele>
        <time>2021-08-03T11:36:23.236Z</time>
      </trkpt>
      <trkpt lat="46.99712" lon="8.86733">
        <ele>1543</ele>
        <time>2021-08-03T11:36:24.235Z</time>
      </trkpt>
      <trkpt lat="46.99712" lon="8.86733">
        <ele>1543</ele>
        <time>2021-08-03T11:36:25.236Z</time>
      </trkpt>
      <trkpt lat="46.99713" lon="8.86733">
        <ele>1543</ele>
        <time>2021-08-03T11:36:47.260Z</time>
      </trkpt>
      <trkpt lat="46.99714" lon="8.86733">
        <ele>1543</ele>
        <time>2021-08-03T11:36:48.260Z</time>
      </trkpt>
      <trkpt lat="46.99715" lon="8.86732">
        <ele>1543</ele>
        <time>2021-08-03T11:37:07.132Z</time>
      </trkpt>
      <trkpt lat="46.99716" lon="8.86732">
        <ele>1543</ele>
        <time>2021-08-03T11:37:08.132Z</time>
      </trkpt>
      <trkpt lat="46.99717" lon="8.86732">
        <ele>1543</ele>
        <time>2021-08-03T11:37:30.971Z</time>
      </trkpt>
      <trkpt lat="46.99719" lon="8.86731">
        <ele>1543</ele>
        <time>2021-08-03T11:37:31.970Z</time>
      </trkpt>
      <trkpt lat="46.9972" lon="8.86731">
        <ele>1543</ele>
        <time>2021-08-03T11:37:32.970Z</time>
      </trkpt>
      <trkpt lat="46.99721" lon="8.86731">
        <ele>1544</ele>
        <time>2021-08-03T11:37:33.970Z</time>
      </trkpt>
      <trkpt lat="46.99722" lon="8.86731">
        <ele>1544</ele>
        <time>2021-08-03T11:37:34.971Z</time>
      </trkpt>
      <trkpt lat="46.99723" lon="8.86731">
        <ele>1544</ele>
        <time>2021-08-03T11:37:35.971Z</time>
      </trkpt>
      <trkpt lat="46.99724" lon="8.8673">
        <ele>1544</ele>
        <time>2021-08-03T11:37:36.971Z</time>
      </trkpt>
      <trkpt lat="46.99725" lon="8.86729">
        <ele>1544</ele>
        <time>2021-08-03T11:37:45.995Z</time>
      </trkpt>
      <trkpt lat="46.99726" lon="8.86729">
        <ele>1544</ele>
        <time>2021-08-03T11:37:46.995Z</time>
      </trkpt>
      <trkpt lat="46.99727" lon="8.86728">
        <ele>1544</ele>
        <time>2021-08-03T11:37:47.995Z</time>
      </trkpt>
      <trkpt lat="46.99729" lon="8.86728">
        <ele>1544</ele>
        <time>2021-08-03T11:37:48.995Z</time>
      </trkpt>
      <trkpt lat="46.9973" lon="8.86727">
        <ele>1544</ele>
        <time>2021-08-03T11:37:49.994Z</time>
      </trkpt>
      <trkpt lat="46.99731" lon="8.86727">
        <ele>1545</ele>
        <time>2021-08-03T11:37:50.995Z</time>
      </trkpt>
      <trkpt lat="46.99732" lon="8.86727">
        <ele>1544</ele>
        <time>2021-08-03T11:37:51.995Z</time>
      </trkpt>
      <trkpt lat="46.99734" lon="8.86726">
        <ele>1544</ele>
        <time>2021-08-03T11:37:52.995Z</time>
      </trkpt>
      <trkpt lat="46.99735" lon="8.86726">
        <ele>1544</ele>
        <time>2021-08-03T11:38:01.110Z</time>
      </trkpt>
      <trkpt lat="46.99736" lon="8.86726">
        <ele>1543</ele>
        <time>2021-08-03T11:38:02.109Z</time>
      </trkpt>
      <trkpt lat="46.99737" lon="8.86726">
        <ele>1543</ele>
        <time>2021-08-03T11:38:03.109Z</time>
      </trkpt>
      <trkpt lat="46.99738" lon="8.86726">
        <ele>1543</ele>
        <time>2021-08-03T11:38:05.126Z</time>
      </trkpt>
      <trkpt lat="46.99739" lon="8.86727">
        <ele>1542</ele>
        <time>2021-08-03T11:38:06.125Z</time>
      </trkpt>
      <trkpt lat="46.9974" lon="8.86728">
        <ele>1542</ele>
        <time>2021-08-03T11:38:07.126Z</time>
      </trkpt>
      <trkpt lat="46.99742" lon="8.86729">
        <ele>1543</ele>
        <time>2021-08-03T11:38:08.126Z</time>
      </trkpt>
      <trkpt lat="46.99742" lon="8.8673">
        <ele>1543</ele>
        <time>2021-08-03T11:38:09.126Z</time>
      </trkpt>
      <trkpt lat="46.99744" lon="8.86731">
        <ele>1543</ele>
        <time>2021-08-03T11:38:10.126Z</time>
      </trkpt>
      <trkpt lat="46.99745" lon="8.86732">
        <ele>1544</ele>
        <time>2021-08-03T11:38:11.125Z</time>
      </trkpt>
      <trkpt lat="46.99746" lon="8.86732">
        <ele>1544</ele>
        <time>2021-08-03T11:38:12.126Z</time>
      </trkpt>
      <trkpt lat="46.99747" lon="8.86733">
        <ele>1543</ele>
        <time>2021-08-03T11:38:13.126Z</time>
      </trkpt>
      <trkpt lat="46.99748" lon="8.86734">
        <ele>1543</ele>
        <time>2021-08-03T11:38:14.125Z</time>
      </trkpt>
      <trkpt lat="46.99749" lon="8.86735">
        <ele>1543</ele>
        <time>2021-08-03T11:38:15.126Z</time>
      </trkpt>
      <trkpt lat="46.9975" lon="8.86736">
        <ele>1543</ele>
        <time>2021-08-03T11:38:16.126Z</time>
      </trkpt>
      <trkpt lat="46.99751" lon="8.86738">
        <ele>1544</ele>
        <time>2021-08-03T11:38:17.125Z</time>
      </trkpt>
      <trkpt lat="46.99752" lon="8.86738">
        <ele>1544</ele>
        <time>2021-08-03T11:38:18.126Z</time>
      </trkpt>
      <trkpt lat="46.99753" lon="8.8674">
        <ele>1544</ele>
        <time>2021-08-03T11:38:19.126Z</time>
      </trkpt>
      <trkpt lat="46.99754" lon="8.86741">
        <ele>1545</ele>
        <time>2021-08-03T11:38:20.126Z</time>
      </trkpt>
      <trkpt lat="46.99755" lon="8.86742">
        <ele>1545</ele>
        <time>2021-08-03T11:38:21.126Z</time>
      </trkpt>
      <trkpt lat="46.99756" lon="8.86742">
        <ele>1544</ele>
        <time>2021-08-03T11:38:22.125Z</time>
      </trkpt>
      <trkpt lat="46.99757" lon="8.86743">
        <ele>1544</ele>
        <time>2021-08-03T11:38:23.125Z</time>
      </trkpt>
      <trkpt lat="46.99758" lon="8.86744">
        <ele>1544</ele>
        <time>2021-08-03T11:38:24.125Z</time>
      </trkpt>
      <trkpt lat="46.99759" lon="8.86745">
        <ele>1543</ele>
        <time>2021-08-03T11:38:25.125Z</time>
      </trkpt>
      <trkpt lat="46.9976" lon="8.86745">
        <ele>1543</ele>
        <time>2021-08-03T11:38:26.125Z</time>
      </trkpt>
      <trkpt lat="46.9976" lon="8.86746">
        <ele>1543</ele>
        <time>2021-08-03T11:38:27.126Z</time>
      </trkpt>
      <trkpt lat="46.99761" lon="8.86746">
        <ele>1543</ele>
        <time>2021-08-03T11:38:28.125Z</time>
      </trkpt>
      <trkpt lat="46.99762" lon="8.86747">
        <ele>1543</ele>
        <time>2021-08-03T11:38:29.125Z</time>
      </trkpt>
      <trkpt lat="46.99762" lon="8.86747">
        <ele>1543</ele>
        <time>2021-08-03T11:38:30.126Z</time>
      </trkpt>
      <trkpt lat="46.99763" lon="8.86748">
        <ele>1544</ele>
        <time>2021-08-03T11:38:31.125Z</time>
      </trkpt>
      <trkpt lat="46.99764" lon="8.86749">
        <ele>1544</ele>
        <time>2021-08-03T11:38:32.126Z</time>
      </trkpt>
      <trkpt lat="46.99765" lon="8.8675">
        <ele>1544</ele>
        <time>2021-08-03T11:38:33.126Z</time>
      </trkpt>
      <trkpt lat="46.99765" lon="8.8675">
        <ele>1544</ele>
        <time>2021-08-03T11:38:34.125Z</time>
      </trkpt>
      <trkpt lat="46.99765" lon="8.8675">
        <ele>1544</ele>
        <time>2021-08-03T11:38:35.126Z</time>
      </trkpt>
      <trkpt lat="46.99765" lon="8.8675">
        <ele>1544</ele>
        <time>2021-08-03T11:38:36.125Z</time>
      </trkpt>
      <trkpt lat="46.99766" lon="8.8675">
        <ele>1544</ele>
        <time>2021-08-03T11:38:37.126Z</time>
      </trkpt>
      <trkpt lat="46.99767" lon="8.86751">
        <ele>1545</ele>
        <time>2021-08-03T11:38:38.125Z</time>
      </trkpt>
      <trkpt lat="46.99768" lon="8.86752">
        <ele>1545</ele>
        <time>2021-08-03T11:38:39.125Z</time>
      </trkpt>
      <trkpt lat="46.99769" lon="8.86753">
        <ele>1546</ele>
        <time>2021-08-03T11:38:40.125Z</time>
      </trkpt>
      <trkpt lat="46.9977" lon="8.86753">
        <ele>1547</ele>
        <time>2021-08-03T11:38:41.125Z</time>
      </trkpt>
      <trkpt lat="46.99771" lon="8.86755">
        <ele>1546</ele>
        <time>2021-08-03T11:38:42.126Z</time>
      </trkpt>
      <trkpt lat="46.99772" lon="8.86756">
        <ele>1546</ele>
        <time>2021-08-03T11:38:43.125Z</time>
      </trkpt>
      <trkpt lat="46.99773" lon="8.86758">
        <ele>1546</ele>
        <time>2021-08-03T11:38:44.126Z</time>
      </trkpt>
      <trkpt lat="46.99774" lon="8.86759">
        <ele>1546</ele>
        <time>2021-08-03T11:38:51.108Z</time>
      </trkpt>
      <trkpt lat="46.99775" lon="8.8676">
        <ele>1546</ele>
        <time>2021-08-03T11:38:52.108Z</time>
      </trkpt>
      <trkpt lat="46.99776" lon="8.86762">
        <ele>1547</ele>
        <time>2021-08-03T11:38:53.108Z</time>
      </trkpt>
      <trkpt lat="46.99777" lon="8.86763">
        <ele>1547</ele>
        <time>2021-08-03T11:38:58.122Z</time>
      </trkpt>
      <trkpt lat="46.99777" lon="8.86764">
        <ele>1547</ele>
        <time>2021-08-03T11:38:59.123Z</time>
      </trkpt>
      <trkpt lat="46.99778" lon="8.86766">
        <ele>1548</ele>
        <time>2021-08-03T11:39:04.256Z</time>
      </trkpt>
      <trkpt lat="46.99779" lon="8.86767">
        <ele>1548</ele>
        <time>2021-08-03T11:39:05.255Z</time>
      </trkpt>
      <trkpt lat="46.9978" lon="8.86768">
        <ele>1548</ele>
        <time>2021-08-03T11:39:06.255Z</time>
      </trkpt>
      <trkpt lat="46.99781" lon="8.8677">
        <ele>1548</ele>
        <time>2021-08-03T11:39:07.256Z</time>
      </trkpt>
      <trkpt lat="46.99782" lon="8.86771">
        <ele>1547</ele>
        <time>2021-08-03T11:39:08.256Z</time>
      </trkpt>
      <trkpt lat="46.99783" lon="8.86772">
        <ele>1547</ele>
        <time>2021-08-03T11:39:09.256Z</time>
      </trkpt>
      <trkpt lat="46.99784" lon="8.86774">
        <ele>1546</ele>
        <time>2021-08-03T11:39:10.255Z</time>
      </trkpt>
      <trkpt lat="46.99785" lon="8.86775">
        <ele>1546</ele>
        <time>2021-08-03T11:39:11.256Z</time>
      </trkpt>
      <trkpt lat="46.99785" lon="8.86777">
        <ele>1546</ele>
        <time>2021-08-03T11:39:12.255Z</time>
      </trkpt>
      <trkpt lat="46.99786" lon="8.86778">
        <ele>1545</ele>
        <time>2021-08-03T11:39:13.256Z</time>
      </trkpt>
      <trkpt lat="46.99787" lon="8.86779">
        <ele>1545</ele>
        <time>2021-08-03T11:39:14.256Z</time>
      </trkpt>
      <trkpt lat="46.99788" lon="8.86781">
        <ele>1545</ele>
        <time>2021-08-03T11:39:15.256Z</time>
      </trkpt>
      <trkpt lat="46.99789" lon="8.86782">
        <ele>1545</ele>
        <time>2021-08-03T11:39:16.255Z</time>
      </trkpt>
      <trkpt lat="46.99789" lon="8.86784">
        <ele>1545</ele>
        <time>2021-08-03T11:39:17.256Z</time>
      </trkpt>
      <trkpt lat="46.9979" lon="8.86785">
        <ele>1545</ele>
        <time>2021-08-03T11:39:18.256Z</time>
      </trkpt>
      <trkpt lat="46.99791" lon="8.86787">
        <ele>1545</ele>
        <time>2021-08-03T11:39:19.255Z</time>
      </trkpt>
      <trkpt lat="46.99792" lon="8.86788">
        <ele>1545</ele>
        <time>2021-08-03T11:39:26.235Z</time>
      </trkpt>
      <trkpt lat="46.99792" lon="8.86789">
        <ele>1544</ele>
        <time>2021-08-03T11:39:27.235Z</time>
      </trkpt>
      <trkpt lat="46.99793" lon="8.86789">
        <ele>1544</ele>
        <time>2021-08-03T11:39:28.236Z</time>
      </trkpt>
      <trkpt lat="46.99793" lon="8.86789">
        <ele>1544</ele>
        <time>2021-08-03T11:39:29.235Z</time>
      </trkpt>
      <trkpt lat="46.99793" lon="8.86789">
        <ele>1544</ele>
        <time>2021-08-03T11:39:30.235Z</time>
      </trkpt>
      <trkpt lat="46.99794" lon="8.8679">
        <ele>1543</ele>
        <time>2021-08-03T11:39:32.261Z</time>
      </trkpt>
      <trkpt lat="46.99794" lon="8.8679">
        <ele>1543</ele>
        <time>2021-08-03T11:39:33.261Z</time>
      </trkpt>
      <trkpt lat="46.99794" lon="8.86789">
        <ele>1543</ele>
        <time>2021-08-03T11:39:34.261Z</time>
      </trkpt>
      <trkpt lat="46.99794" lon="8.86791">
        <ele>1544</ele>
        <time>2021-08-03T11:39:35.261Z</time>
      </trkpt>
      <trkpt lat="46.99794" lon="8.86792">
        <ele>1544</ele>
        <time>2021-08-03T11:39:36.262Z</time>
      </trkpt>
      <trkpt lat="46.99794" lon="8.86794">
        <ele>1545</ele>
        <time>2021-08-03T11:39:37.261Z</time>
      </trkpt>
      <trkpt lat="46.99795" lon="8.86795">
        <ele>1545</ele>
        <time>2021-08-03T11:39:38.261Z</time>
      </trkpt>
      <trkpt lat="46.99795" lon="8.86796">
        <ele>1544</ele>
        <time>2021-08-03T11:39:39.261Z</time>
      </trkpt>
      <trkpt lat="46.99796" lon="8.86795">
        <ele>1544</ele>
        <time>2021-08-03T11:39:40.262Z</time>
      </trkpt>
      <trkpt lat="46.99797" lon="8.86796">
        <ele>1544</ele>
        <time>2021-08-03T11:39:44.380Z</time>
      </trkpt>
      <trkpt lat="46.99797" lon="8.86798">
        <ele>1544</ele>
        <time>2021-08-03T11:39:45.380Z</time>
      </trkpt>
      <trkpt lat="46.99798" lon="8.868">
        <ele>1544</ele>
        <time>2021-08-03T11:39:46.379Z</time>
      </trkpt>
      <trkpt lat="46.99799" lon="8.86802">
        <ele>1544</ele>
        <time>2021-08-03T11:39:47.379Z</time>
      </trkpt>
      <trkpt lat="46.998" lon="8.86803">
        <ele>1544</ele>
        <time>2021-08-03T11:39:48.380Z</time>
      </trkpt>
      <trkpt lat="46.998" lon="8.86804">
        <ele>1544</ele>
        <time>2021-08-03T11:39:49.379Z</time>
      </trkpt>
      <trkpt lat="46.99801" lon="8.86805">
        <ele>1544</ele>
        <time>2021-08-03T11:39:50.380Z</time>
      </trkpt>
      <trkpt lat="46.99802" lon="8.86805">
        <ele>1544</ele>
        <time>2021-08-03T11:39:51.380Z</time>
      </trkpt>
      <trkpt lat="46.99803" lon="8.86807">
        <ele>1544</ele>
        <time>2021-08-03T11:39:52.380Z</time>
      </trkpt>
      <trkpt lat="46.99803" lon="8.86808">
        <ele>1544</ele>
        <time>2021-08-03T11:39:56.482Z</time>
      </trkpt>
      <trkpt lat="46.99803" lon="8.8681">
        <ele>1543</ele>
        <time>2021-08-03T11:39:57.482Z</time>
      </trkpt>
      <trkpt lat="46.99803" lon="8.86811">
        <ele>1543</ele>
        <time>2021-08-03T11:39:58.481Z</time>
      </trkpt>
      <trkpt lat="46.99804" lon="8.86813">
        <ele>1542</ele>
        <time>2021-08-03T11:39:59.482Z</time>
      </trkpt>
      <trkpt lat="46.99805" lon="8.86814">
        <ele>1542</ele>
        <time>2021-08-03T11:40:00.481Z</time>
      </trkpt>
      <trkpt lat="46.99805" lon="8.86816">
        <ele>1541</ele>
        <time>2021-08-03T11:40:01.482Z</time>
      </trkpt>
      <trkpt lat="46.99806" lon="8.86817">
        <ele>1541</ele>
        <time>2021-08-03T11:40:02.482Z</time>
      </trkpt>
      <trkpt lat="46.99807" lon="8.86818">
        <ele>1540</ele>
        <time>2021-08-03T11:40:03.482Z</time>
      </trkpt>
      <trkpt lat="46.99808" lon="8.86819">
        <ele>1540</ele>
        <time>2021-08-03T11:40:04.481Z</time>
      </trkpt>
      <trkpt lat="46.99808" lon="8.8682">
        <ele>1539</ele>
        <time>2021-08-03T11:40:05.482Z</time>
      </trkpt>
      <trkpt lat="46.99809" lon="8.86821">
        <ele>1538</ele>
        <time>2021-08-03T11:40:06.482Z</time>
      </trkpt>
      <trkpt lat="46.9981" lon="8.86822">
        <ele>1538</ele>
        <time>2021-08-03T11:40:07.481Z</time>
      </trkpt>
      <trkpt lat="46.99811" lon="8.86824">
        <ele>1538</ele>
        <time>2021-08-03T11:40:11.472Z</time>
      </trkpt>
      <trkpt lat="46.99811" lon="8.86825">
        <ele>1538</ele>
        <time>2021-08-03T11:40:12.472Z</time>
      </trkpt>
      <trkpt lat="46.99812" lon="8.86827">
        <ele>1538</ele>
        <time>2021-08-03T11:40:13.471Z</time>
      </trkpt>
      <trkpt lat="46.99813" lon="8.86828">
        <ele>1538</ele>
        <time>2021-08-03T11:40:14.472Z</time>
      </trkpt>
      <trkpt lat="46.99814" lon="8.86829">
        <ele>1538</ele>
        <time>2021-08-03T11:40:15.471Z</time>
      </trkpt>
      <trkpt lat="46.99815" lon="8.8683">
        <ele>1538</ele>
        <time>2021-08-03T11:40:16.472Z</time>
      </trkpt>
      <trkpt lat="46.99816" lon="8.86831">
        <ele>1538</ele>
        <time>2021-08-03T11:40:17.472Z</time>
      </trkpt>
      <trkpt lat="46.99817" lon="8.86833">
        <ele>1539</ele>
        <time>2021-08-03T11:40:25.476Z</time>
      </trkpt>
      <trkpt lat="46.99818" lon="8.86834">
        <ele>1539</ele>
        <time>2021-08-03T11:40:26.476Z</time>
      </trkpt>
      <trkpt lat="46.99819" lon="8.86835">
        <ele>1538</ele>
        <time>2021-08-03T11:40:42.261Z</time>
      </trkpt>
      <trkpt lat="46.9982" lon="8.86836">
        <ele>1538</ele>
        <time>2021-08-03T11:40:43.261Z</time>
      </trkpt>
      <trkpt lat="46.99821" lon="8.86837">
        <ele>1538</ele>
        <time>2021-08-03T11:40:55.147Z</time>
      </trkpt>
      <trkpt lat="46.99822" lon="8.86838">
        <ele>1537</ele>
        <time>2021-08-03T11:40:58.007Z</time>
      </trkpt>
      <trkpt lat="46.99823" lon="8.86839">
        <ele>1538</ele>
        <time>2021-08-03T11:40:59.007Z</time>
      </trkpt>
      <trkpt lat="46.99824" lon="8.8684">
        <ele>1538</ele>
        <time>2021-08-03T11:41:00.007Z</time>
      </trkpt>
      <trkpt lat="46.99825" lon="8.86841">
        <ele>1538</ele>
        <time>2021-08-03T11:41:07.101Z</time>
      </trkpt>
      <trkpt lat="46.99826" lon="8.86841">
        <ele>1538</ele>
        <time>2021-08-03T11:41:08.101Z</time>
      </trkpt>
      <trkpt lat="46.99827" lon="8.86842">
        <ele>1538</ele>
        <time>2021-08-03T11:41:09.101Z</time>
      </trkpt>
      <trkpt lat="46.99827" lon="8.86844">
        <ele>1538</ele>
        <time>2021-08-03T11:41:19.150Z</time>
      </trkpt>
      <trkpt lat="46.99827" lon="8.86845">
        <ele>1538</ele>
        <time>2021-08-03T11:41:20.151Z</time>
      </trkpt>
      <trkpt lat="46.99828" lon="8.86845">
        <ele>1538</ele>
        <time>2021-08-03T11:41:21.151Z</time>
      </trkpt>
      <trkpt lat="46.99828" lon="8.86846">
        <ele>1538</ele>
        <time>2021-08-03T11:41:22.151Z</time>
      </trkpt>
      <trkpt lat="46.99828" lon="8.86847">
        <ele>1537</ele>
        <time>2021-08-03T11:41:29.136Z</time>
      </trkpt>
      <trkpt lat="46.99828" lon="8.86848">
        <ele>1537</ele>
        <time>2021-08-03T11:41:30.136Z</time>
      </trkpt>
      <trkpt lat="46.99827" lon="8.86848">
        <ele>1537</ele>
        <time>2021-08-03T11:41:40.994Z</time>
      </trkpt>
      <trkpt lat="46.99827" lon="8.86849">
        <ele>1537</ele>
        <time>2021-08-03T11:41:47.883Z</time>
      </trkpt>
      <trkpt lat="46.99826" lon="8.86849">
        <ele>1538</ele>
        <time>2021-08-03T11:41:48.883Z</time>
      </trkpt>
      <trkpt lat="46.99826" lon="8.86849">
        <ele>1538</ele>
        <time>2021-08-03T11:41:49.883Z</time>
      </trkpt>
      <trkpt lat="46.99826" lon="8.8685">
        <ele>1539</ele>
        <time>2021-08-03T11:41:50.882Z</time>
      </trkpt>
      <trkpt lat="46.99825" lon="8.86853">
        <ele>1539</ele>
        <time>2021-08-03T11:41:51.882Z</time>
      </trkpt>
      <trkpt lat="46.99824" lon="8.86854">
        <ele>1539</ele>
        <time>2021-08-03T11:42:10.883Z</time>
      </trkpt>
      <trkpt lat="46.99824" lon="8.86855">
        <ele>1539</ele>
        <time>2021-08-03T11:42:11.883Z</time>
      </trkpt>
      <trkpt lat="46.99823" lon="8.86855">
        <ele>1539</ele>
        <time>2021-08-03T11:42:25.727Z</time>
      </trkpt>
      <trkpt lat="46.99823" lon="8.86854">
        <ele>1539</ele>
        <time>2021-08-03T11:42:26.727Z</time>
      </trkpt>
      <trkpt lat="46.99823" lon="8.86852">
        <ele>1543</ele>
        <time>2021-08-03T11:42:27.726Z</time>
      </trkpt>
      <trkpt lat="46.99823" lon="8.86852">
        <ele>1543</ele>
        <time>2021-08-03T11:42:28.727Z</time>
      </trkpt>
      <trkpt lat="46.99827" lon="8.86849">
        <ele>1545</ele>
        <time>2021-08-03T11:42:45.759Z</time>
      </trkpt>
      <trkpt lat="46.99827" lon="8.86849">
        <ele>1545</ele>
        <time>2021-08-03T11:42:46.759Z</time>
      </trkpt>
      <trkpt lat="46.99827" lon="8.86849">
        <ele>1544</ele>
        <time>2021-08-03T11:42:47.759Z</time>
      </trkpt>
      <trkpt lat="46.99828" lon="8.86847">
        <ele>1546</ele>
        <time>2021-08-03T11:42:48.761Z</time>
      </trkpt>
      <trkpt lat="46.99828" lon="8.86848">
        <ele>1546</ele>
        <time>2021-08-03T11:43:09.806Z</time>
      </trkpt>
      <trkpt lat="46.99828" lon="8.86848">
        <ele>1546</ele>
        <time>2021-08-03T11:43:10.806Z</time>
      </trkpt>
      <trkpt lat="46.99828" lon="8.86847">
        <ele>1546</ele>
        <time>2021-08-03T11:43:11.806Z</time>
      </trkpt>
      <trkpt lat="46.99827" lon="8.86844">
        <ele>1547</ele>
        <time>2021-08-03T11:43:20.847Z</time>
      </trkpt>
      <trkpt lat="46.99827" lon="8.86844">
        <ele>1547</ele>
        <time>2021-08-03T11:43:21.847Z</time>
      </trkpt>
      <trkpt lat="46.99828" lon="8.86844">
        <ele>1546</ele>
        <time>2021-08-03T11:43:22.847Z</time>
      </trkpt>
      <trkpt lat="46.99828" lon="8.86844">
        <ele>1546</ele>
        <time>2021-08-03T11:43:23.847Z</time>
      </trkpt>
      <trkpt lat="46.99828" lon="8.86844">
        <ele>1546</ele>
        <time>2021-08-03T11:43:28.891Z</time>
      </trkpt>
      <trkpt lat="46.99827" lon="8.86845">
        <ele>1546</ele>
        <time>2021-08-03T11:43:29.890Z</time>
      </trkpt>
      <trkpt lat="46.99828" lon="8.86848">
        <ele>1546</ele>
        <time>2021-08-03T11:43:30.890Z</time>
      </trkpt>
      <trkpt lat="46.99828" lon="8.86848">
        <ele>1547</ele>
        <time>2021-08-03T11:43:31.891Z</time>
      </trkpt>
      <trkpt lat="46.99828" lon="8.86848">
        <ele>1547</ele>
        <time>2021-08-03T11:43:32.890Z</time>
      </trkpt>
      <trkpt lat="46.99828" lon="8.86848">
        <ele>1548</ele>
        <time>2021-08-03T11:43:35.847Z</time>
      </trkpt>
      <trkpt lat="46.99824" lon="8.86845">
        <ele>1552</ele>
        <time>2021-08-03T11:43:36.848Z</time>
      </trkpt>
      <trkpt lat="46.99824" lon="8.86844">
        <ele>1552</ele>
        <time>2021-08-03T11:43:37.848Z</time>
      </trkpt>
      <trkpt lat="46.99824" lon="8.86842">
        <ele>1554</ele>
        <time>2021-08-03T11:43:38.847Z</time>
      </trkpt>
      <trkpt lat="46.99824" lon="8.86841">
        <ele>1555</ele>
        <time>2021-08-03T11:43:39.848Z</time>
      </trkpt>
      <trkpt lat="46.99824" lon="8.86841">
        <ele>1554</ele>
        <time>2021-08-03T11:43:40.847Z</time>
      </trkpt>
      <trkpt lat="46.99824" lon="8.8684">
        <ele>1555</ele>
        <time>2021-08-03T11:43:41.848Z</time>
      </trkpt>
      <trkpt lat="46.99824" lon="8.8684">
        <ele>1555</ele>
        <time>2021-08-03T11:43:42.847Z</time>
      </trkpt>
      <trkpt lat="46.99824" lon="8.8684">
        <ele>1555</ele>
        <time>2021-08-03T11:43:43.847Z</time>
      </trkpt>
      <trkpt lat="46.99824" lon="8.86841">
        <ele>1555</ele>
        <time>2021-08-03T11:43:44.847Z</time>
      </trkpt>
      <trkpt lat="46.99827" lon="8.86845">
        <ele>1550</ele>
        <time>2021-08-03T11:43:46.988Z</time>
      </trkpt>
      <trkpt lat="46.99827" lon="8.86845">
        <ele>1551</ele>
        <time>2021-08-03T11:43:47.987Z</time>
      </trkpt>
      <trkpt lat="46.99826" lon="8.86845">
        <ele>1551</ele>
        <time>2021-08-03T11:43:48.987Z</time>
      </trkpt>
      <trkpt lat="46.99825" lon="8.86845">
        <ele>1551</ele>
        <time>2021-08-03T11:43:49.987Z</time>
      </trkpt>
      <trkpt lat="46.99825" lon="8.86845">
        <ele>1551</ele>
        <time>2021-08-03T11:43:50.987Z</time>
      </trkpt>
      <trkpt lat="46.99824" lon="8.86845">
        <ele>1551</ele>
        <time>2021-08-03T11:44:01.137Z</time>
      </trkpt>
      <trkpt lat="46.99824" lon="8.86846">
        <ele>1550</ele>
        <time>2021-08-03T11:44:02.137Z</time>
      </trkpt>
      <trkpt lat="46.99824" lon="8.86847">
        <ele>1549</ele>
        <time>2021-08-03T11:44:03.136Z</time>
      </trkpt>
      <trkpt lat="46.99824" lon="8.86847">
        <ele>1548</ele>
        <time>2021-08-03T11:44:12.232Z</time>
      </trkpt>
      <trkpt lat="46.99824" lon="8.86848">
        <ele>1548</ele>
        <time>2021-08-03T11:44:13.233Z</time>
      </trkpt>
      <trkpt lat="46.99824" lon="8.86848">
        <ele>1547</ele>
        <time>2021-08-03T11:44:25.109Z</time>
      </trkpt>
      <trkpt lat="46.99824" lon="8.86848">
        <ele>1547</ele>
        <time>2021-08-03T11:44:26.108Z</time>
      </trkpt>
      <trkpt lat="46.99825" lon="8.8685">
        <ele>1544</ele>
        <time>2021-08-03T11:44:27.110Z</time>
      </trkpt>
      <trkpt lat="46.99825" lon="8.8685">
        <ele>1543</ele>
        <time>2021-08-03T11:44:43.135Z</time>
      </trkpt>
      <trkpt lat="46.99826" lon="8.86845">
        <ele>1542</ele>
        <time>2021-08-03T11:44:44.134Z</time>
      </trkpt>
      <trkpt lat="46.99826" lon="8.86844">
        <ele>1542</ele>
        <time>2021-08-03T11:44:45.135Z</time>
      </trkpt>
      <trkpt lat="46.99826" lon="8.86844">
        <ele>1542</ele>
        <time>2021-08-03T11:45:08.110Z</time>
      </trkpt>
      <trkpt lat="46.99826" lon="8.86844">
        <ele>1542</ele>
        <time>2021-08-03T11:45:09.111Z</time>
      </trkpt>
      <trkpt lat="46.99827" lon="8.86843">
        <ele>1542</ele>
        <time>2021-08-03T11:45:34.880Z</time>
      </trkpt>
      <trkpt lat="46.99827" lon="8.86842">
        <ele>1542</ele>
        <time>2021-08-03T11:45:35.880Z</time>
      </trkpt>
      <trkpt lat="46.99827" lon="8.86842">
        <ele>1542</ele>
        <time>2021-08-03T11:45:36.880Z</time>
      </trkpt>
      <trkpt lat="46.99827" lon="8.86841">
        <ele>1541</ele>
        <time>2021-08-03T11:45:37.879Z</time>
      </trkpt>
      <trkpt lat="46.99827" lon="8.86842">
        <ele>1541</ele>
        <time>2021-08-03T11:45:38.880Z</time>
      </trkpt>
      <trkpt lat="46.99826" lon="8.86842">
        <ele>1541</ele>
        <time>2021-08-03T11:45:55.002Z</time>
      </trkpt>
      <trkpt lat="46.99825" lon="8.86844">
        <ele>1541</ele>
        <time>2021-08-03T11:46:27.839Z</time>
      </trkpt>
      <trkpt lat="46.99824" lon="8.86845">
        <ele>1542</ele>
        <time>2021-08-03T11:46:28.840Z</time>
      </trkpt>
      <trkpt lat="46.99824" lon="8.86845">
        <ele>1542</ele>
        <time>2021-08-03T11:46:29.840Z</time>
      </trkpt>
      <trkpt lat="46.99824" lon="8.86844">
        <ele>1543</ele>
        <time>2021-08-03T11:46:30.840Z</time>
      </trkpt>
      <trkpt lat="46.99823" lon="8.86845">
        <ele>1543</ele>
        <time>2021-08-03T11:46:31.839Z</time>
      </trkpt>
      <trkpt lat="46.99823" lon="8.86846">
        <ele>1543</ele>
        <time>2021-08-03T11:46:32.839Z</time>
      </trkpt>
      <trkpt lat="46.99822" lon="8.86847">
        <ele>1544</ele>
        <time>2021-08-03T11:46:33.840Z</time>
      </trkpt>
      <trkpt lat="46.99822" lon="8.86847">
        <ele>1545</ele>
        <time>2021-08-03T11:46:34.840Z</time>
      </trkpt>
      <trkpt lat="46.99822" lon="8.86847">
        <ele>1545</ele>
        <time>2021-08-03T11:46:35.840Z</time>
      </trkpt>
      <trkpt lat="46.99821" lon="8.86848">
        <ele>1546</ele>
        <time>2021-08-03T11:46:36.839Z</time>
      </trkpt>
      <trkpt lat="46.99822" lon="8.86848">
        <ele>1549</ele>
        <time>2021-08-03T11:46:37.839Z</time>
      </trkpt>
      <trkpt lat="46.99822" lon="8.86849">
        <ele>1550</ele>
        <time>2021-08-03T11:46:38.839Z</time>
      </trkpt>
      <trkpt lat="46.9982" lon="8.8685">
        <ele>1551</ele>
        <time>2021-08-03T11:46:39.840Z</time>
      </trkpt>
      <trkpt lat="46.9982" lon="8.86851">
        <ele>1552</ele>
        <time>2021-08-03T11:46:40.839Z</time>
      </trkpt>
      <trkpt lat="46.99819" lon="8.86851">
        <ele>1552</ele>
        <time>2021-08-03T11:46:41.839Z</time>
      </trkpt>
      <trkpt lat="46.99819" lon="8.86852">
        <ele>1553</ele>
        <time>2021-08-03T11:46:42.840Z</time>
      </trkpt>
      <trkpt lat="46.99819" lon="8.86852">
        <ele>1553</ele>
        <time>2021-08-03T11:46:43.839Z</time>
      </trkpt>
      <trkpt lat="46.99819" lon="8.86852">
        <ele>1552</ele>
        <time>2021-08-03T11:46:44.840Z</time>
      </trkpt>
      <trkpt lat="46.9982" lon="8.86851">
        <ele>1552</ele>
        <time>2021-08-03T11:46:45.840Z</time>
      </trkpt>
      <trkpt lat="46.9982" lon="8.8685">
        <ele>1552</ele>
        <time>2021-08-03T11:46:46.840Z</time>
      </trkpt>
      <trkpt lat="46.9982" lon="8.8685">
        <ele>1552</ele>
        <time>2021-08-03T11:46:47.839Z</time>
      </trkpt>
      <trkpt lat="46.99821" lon="8.86849">
        <ele>1552</ele>
        <time>2021-08-03T11:46:48.840Z</time>
      </trkpt>
      <trkpt lat="46.99822" lon="8.8685">
        <ele>1552</ele>
        <time>2021-08-03T11:46:49.840Z</time>
      </trkpt>
      <trkpt lat="46.99823" lon="8.8685">
        <ele>1552</ele>
        <time>2021-08-03T11:46:50.839Z</time>
      </trkpt>
      <trkpt lat="46.99823" lon="8.86851">
        <ele>1552</ele>
        <time>2021-08-03T11:46:51.840Z</time>
      </trkpt>
      <trkpt lat="46.99823" lon="8.86851">
        <ele>1552</ele>
        <time>2021-08-03T11:46:52.840Z</time>
      </trkpt>
      <trkpt lat="46.99823" lon="8.8685">
        <ele>1553</ele>
        <time>2021-08-03T11:46:53.840Z</time>
      </trkpt>
      <trkpt lat="46.99824" lon="8.86849">
        <ele>1553</ele>
        <time>2021-08-03T11:46:54.840Z</time>
      </trkpt>
      <trkpt lat="46.99824" lon="8.86848">
        <ele>1554</ele>
        <time>2021-08-03T11:46:55.839Z</time>
      </trkpt>
      <trkpt lat="46.99825" lon="8.86847">
        <ele>1554</ele>
        <time>2021-08-03T11:46:56.839Z</time>
      </trkpt>
      <trkpt lat="46.99823" lon="8.86848">
        <ele>1555</ele>
        <time>2021-08-03T11:46:57.841Z</time>
      </trkpt>
      <trkpt lat="46.99822" lon="8.86849">
        <ele>1555</ele>
        <time>2021-08-03T11:46:58.841Z</time>
      </trkpt>
      <trkpt lat="46.99821" lon="8.8685">
        <ele>1555</ele>
        <time>2021-08-03T11:46:59.841Z</time>
      </trkpt>
      <trkpt lat="46.99822" lon="8.8685">
        <ele>1555</ele>
        <time>2021-08-03T11:47:00.841Z</time>
      </trkpt>
      <trkpt lat="46.99821" lon="8.8685">
        <ele>1556</ele>
        <time>2021-08-03T11:47:01.841Z</time>
      </trkpt>
      <trkpt lat="46.9982" lon="8.8685">
        <ele>1556</ele>
        <time>2021-08-03T11:47:02.842Z</time>
      </trkpt>
      <trkpt lat="46.9982" lon="8.86851">
        <ele>1558</ele>
        <time>2021-08-03T11:47:03.842Z</time>
      </trkpt>
      <trkpt lat="46.99821" lon="8.86851">
        <ele>1559</ele>
        <time>2021-08-03T11:47:04.842Z</time>
      </trkpt>
      <trkpt lat="46.99822" lon="8.8685">
        <ele>1559</ele>
        <time>2021-08-03T11:47:05.842Z</time>
      </trkpt>
      <trkpt lat="46.99822" lon="8.8685">
        <ele>1559</ele>
        <time>2021-08-03T11:47:06.842Z</time>
      </trkpt>
      <trkpt lat="46.99822" lon="8.86849">
        <ele>1560</ele>
        <time>2021-08-03T11:47:07.842Z</time>
      </trkpt>
      <trkpt lat="46.99822" lon="8.86849">
        <ele>1560</ele>
        <time>2021-08-03T11:47:08.842Z</time>
      </trkpt>
      <trkpt lat="46.99822" lon="8.8685">
        <ele>1561</ele>
        <time>2021-08-03T11:47:09.842Z</time>
      </trkpt>
      <trkpt lat="46.99821" lon="8.86851">
        <ele>1561</ele>
        <time>2021-08-03T11:47:10.841Z</time>
      </trkpt>
      <trkpt lat="46.99821" lon="8.86852">
        <ele>1561</ele>
        <time>2021-08-03T11:47:11.842Z</time>
      </trkpt>
      <trkpt lat="46.99821" lon="8.86853">
        <ele>1561</ele>
        <time>2021-08-03T11:47:12.842Z</time>
      </trkpt>
      <trkpt lat="46.9982" lon="8.86855">
        <ele>1561</ele>
        <time>2021-08-03T11:47:13.841Z</time>
      </trkpt>
      <trkpt lat="46.99819" lon="8.86856">
        <ele>1561</ele>
        <time>2021-08-03T11:47:14.842Z</time>
      </trkpt>
      <trkpt lat="46.99819" lon="8.86856">
        <ele>1561</ele>
        <time>2021-08-03T11:47:15.841Z</time>
      </trkpt>
      <trkpt lat="46.99819" lon="8.86856">
        <ele>1561</ele>
        <time>2021-08-03T11:47:16.842Z</time>
      </trkpt>
      <trkpt lat="46.99821" lon="8.86853">
        <ele>1560</ele>
        <time>2021-08-03T11:47:17.842Z</time>
      </trkpt>
      <trkpt lat="46.99822" lon="8.86853">
        <ele>1560</ele>
        <time>2021-08-03T11:47:18.841Z</time>
      </trkpt>
      <trkpt lat="46.99822" lon="8.86853">
        <ele>1560</ele>
        <time>2021-08-03T11:47:19.842Z</time>
      </trkpt>
      <trkpt lat="46.99822" lon="8.86852">
        <ele>1560</ele>
        <time>2021-08-03T11:47:20.841Z</time>
      </trkpt>
      <trkpt lat="46.99822" lon="8.86852">
        <ele>1559</ele>
        <time>2021-08-03T11:47:21.842Z</time>
      </trkpt>
      <trkpt lat="46.99822" lon="8.86852">
        <ele>1559</ele>
        <time>2021-08-03T11:47:22.842Z</time>
      </trkpt>
      <trkpt lat="46.99824" lon="8.8685">
        <ele>1556</ele>
        <time>2021-08-03T11:47:23.843Z</time>
      </trkpt>
      <trkpt lat="46.99826" lon="8.86848">
        <ele>1556</ele>
        <time>2021-08-03T11:47:24.843Z</time>
      </trkpt>
      <trkpt lat="46.99827" lon="8.86847">
        <ele>1556</ele>
        <time>2021-08-03T11:47:25.842Z</time>
      </trkpt>
      <trkpt lat="46.99827" lon="8.86847">
        <ele>1555</ele>
        <time>2021-08-03T11:47:26.843Z</time>
      </trkpt>
      <trkpt lat="46.99826" lon="8.86848">
        <ele>1555</ele>
        <time>2021-08-03T11:47:27.843Z</time>
      </trkpt>
      <trkpt lat="46.99826" lon="8.86847">
        <ele>1556</ele>
        <time>2021-08-03T11:47:28.842Z</time>
      </trkpt>
      <trkpt lat="46.99825" lon="8.86848">
        <ele>1556</ele>
        <time>2021-08-03T11:47:29.843Z</time>
      </trkpt>
      <trkpt lat="46.99825" lon="8.86848">
        <ele>1556</ele>
        <time>2021-08-03T11:47:30.843Z</time>
      </trkpt>
      <trkpt lat="46.99824" lon="8.86848">
        <ele>1557</ele>
        <time>2021-08-03T11:47:31.843Z</time>
      </trkpt>
      <trkpt lat="46.99823" lon="8.86848">
        <ele>1557</ele>
        <time>2021-08-03T11:47:32.842Z</time>
      </trkpt>
      <trkpt lat="46.99823" lon="8.86848">
        <ele>1557</ele>
        <time>2021-08-03T11:47:33.843Z</time>
      </trkpt>
      <trkpt lat="46.99823" lon="8.86848">
        <ele>1557</ele>
        <time>2021-08-03T11:47:34.843Z</time>
      </trkpt>
      <trkpt lat="46.99823" lon="8.86848">
        <ele>1557</ele>
        <time>2021-08-03T11:47:35.842Z</time>
      </trkpt>
      <trkpt lat="46.99824" lon="8.86848">
        <ele>1557</ele>
        <time>2021-08-03T11:47:41.881Z</time>
      </trkpt>
      <trkpt lat="46.99825" lon="8.86848">
        <ele>1557</ele>
        <time>2021-08-03T11:47:42.882Z</time>
      </trkpt>
      <trkpt lat="46.99826" lon="8.86847">
        <ele>1557</ele>
        <time>2021-08-03T11:47:46.758Z</time>
      </trkpt>
      <trkpt lat="46.99826" lon="8.86845">
        <ele>1556</ele>
        <time>2021-08-03T11:47:47.758Z</time>
      </trkpt>
      <trkpt lat="46.99827" lon="8.86844">
        <ele>1556</ele>
        <time>2021-08-03T11:47:48.757Z</time>
      </trkpt>
      <trkpt lat="46.99827" lon="8.86844">
        <ele>1555</ele>
        <time>2021-08-03T11:47:49.757Z</time>
      </trkpt>
      <trkpt lat="46.99827" lon="8.86843">
        <ele>1555</ele>
        <time>2021-08-03T11:47:50.757Z</time>
      </trkpt>
      <trkpt lat="46.99827" lon="8.86843">
        <ele>1555</ele>
        <time>2021-08-03T11:47:51.758Z</time>
      </trkpt>
      <trkpt lat="46.99828" lon="8.86843">
        <ele>1555</ele>
        <time>2021-08-03T11:47:52.758Z</time>
      </trkpt>
      <trkpt lat="46.99828" lon="8.86844">
        <ele>1554</ele>
        <time>2021-08-03T11:47:53.758Z</time>
      </trkpt>
      <trkpt lat="46.99826" lon="8.86845">
        <ele>1550</ele>
        <time>2021-08-03T11:47:54.759Z</time>
      </trkpt>
      <trkpt lat="46.99826" lon="8.86845">
        <ele>1549</ele>
        <time>2021-08-03T11:47:55.758Z</time>
      </trkpt>
      <trkpt lat="46.99825" lon="8.86845">
        <ele>1549</ele>
        <time>2021-08-03T11:47:56.758Z</time>
      </trkpt>
      <trkpt lat="46.99825" lon="8.86845">
        <ele>1548</ele>
        <time>2021-08-03T11:47:57.758Z</time>
      </trkpt>
      <trkpt lat="46.99825" lon="8.86845">
        <ele>1547</ele>
        <time>2021-08-03T11:47:58.759Z</time>
      </trkpt>
      <trkpt lat="46.99824" lon="8.86844">
        <ele>1547</ele>
        <time>2021-08-03T11:47:59.758Z</time>
      </trkpt>
      <trkpt lat="46.99823" lon="8.86845">
        <ele>1546</ele>
        <time>2021-08-03T11:48:00.758Z</time>
      </trkpt>
      <trkpt lat="46.99823" lon="8.86844">
        <ele>1546</ele>
        <time>2021-08-03T11:48:01.759Z</time>
      </trkpt>
      <trkpt lat="46.99823" lon="8.86844">
        <ele>1546</ele>
        <time>2021-08-03T11:48:02.758Z</time>
      </trkpt>
      <trkpt lat="46.99824" lon="8.86844">
        <ele>1546</ele>
        <time>2021-08-03T11:48:03.758Z</time>
      </trkpt>
      <trkpt lat="46.99825" lon="8.86845">
        <ele>1546</ele>
        <time>2021-08-03T11:48:04.758Z</time>
      </trkpt>
      <trkpt lat="46.99825" lon="8.86845">
        <ele>1547</ele>
        <time>2021-08-03T11:48:05.758Z</time>
      </trkpt>
      <trkpt lat="46.99825" lon="8.86845">
        <ele>1547</ele>
        <time>2021-08-03T11:48:06.759Z</time>
      </trkpt>
      <trkpt lat="46.99825" lon="8.86846">
        <ele>1547</ele>
        <time>2021-08-03T11:48:07.758Z</time>
      </trkpt>
      <trkpt lat="46.99825" lon="8.86846">
        <ele>1547</ele>
        <time>2021-08-03T11:48:08.758Z</time>
      </trkpt>
      <trkpt lat="46.99824" lon="8.86849">
        <ele>1546</ele>
        <time>2021-08-03T11:48:09.759Z</time>
      </trkpt>
      <trkpt lat="46.99824" lon="8.8685">
        <ele>1546</ele>
        <time>2021-08-03T11:48:10.758Z</time>
      </trkpt>
      <trkpt lat="46.99823" lon="8.8685">
        <ele>1547</ele>
        <time>2021-08-03T11:48:11.759Z</time>
      </trkpt>
      <trkpt lat="46.99823" lon="8.8685">
        <ele>1547</ele>
        <time>2021-08-03T11:48:12.758Z</time>
      </trkpt>
      <trkpt lat="46.99823" lon="8.8685">
        <ele>1547</ele>
        <time>2021-08-03T11:48:13.759Z</time>
      </trkpt>
      <trkpt lat="46.99824" lon="8.86848">
        <ele>1547</ele>
        <time>2021-08-03T11:48:14.759Z</time>
      </trkpt>
      <trkpt lat="46.99825" lon="8.86847">
        <ele>1548</ele>
        <time>2021-08-03T11:48:15.759Z</time>
      </trkpt>
      <trkpt lat="46.99826" lon="8.86847">
        <ele>1548</ele>
        <time>2021-08-03T11:48:16.759Z</time>
      </trkpt>
      <trkpt lat="46.99826" lon="8.86845">
        <ele>1550</ele>
        <time>2021-08-03T11:48:17.761Z</time>
      </trkpt>
      <trkpt lat="46.99826" lon="8.86846">
        <ele>1550</ele>
        <time>2021-08-03T11:48:18.760Z</time>
      </trkpt>
      <trkpt lat="46.99826" lon="8.86846">
        <ele>1550</ele>
        <time>2021-08-03T11:48:19.760Z</time>
      </trkpt>
      <trkpt lat="46.99827" lon="8.86846">
        <ele>1552</ele>
        <time>2021-08-03T11:48:20.761Z</time>
      </trkpt>
      <trkpt lat="46.99827" lon="8.86847">
        <ele>1551</ele>
        <time>2021-08-03T11:48:21.761Z</time>
      </trkpt>
      <trkpt lat="46.99828" lon="8.86847">
        <ele>1551</ele>
        <time>2021-08-03T11:48:22.760Z</time>
      </trkpt>
      <trkpt lat="46.99828" lon="8.86846">
        <ele>1550</ele>
        <time>2021-08-03T11:48:23.760Z</time>
      </trkpt>
      <trkpt lat="46.99829" lon="8.86845">
        <ele>1550</ele>
        <time>2021-08-03T11:48:24.761Z</time>
      </trkpt>
      <trkpt lat="46.99829" lon="8.86845">
        <ele>1549</ele>
        <time>2021-08-03T11:48:25.761Z</time>
      </trkpt>
      <trkpt lat="46.99829" lon="8.86844">
        <ele>1548</ele>
        <time>2021-08-03T11:48:26.761Z</time>
      </trkpt>
      <trkpt lat="46.99828" lon="8.86844">
        <ele>1550</ele>
        <time>2021-08-03T11:48:27.761Z</time>
      </trkpt>
      <trkpt lat="46.99828" lon="8.86844">
        <ele>1550</ele>
        <time>2021-08-03T11:48:28.762Z</time>
      </trkpt>
      <trkpt lat="46.99827" lon="8.86846">
        <ele>1546</ele>
        <time>2021-08-03T11:48:29.762Z</time>
      </trkpt>
      <trkpt lat="46.99827" lon="8.86847">
        <ele>1546</ele>
        <time>2021-08-03T11:48:30.762Z</time>
      </trkpt>
      <trkpt lat="46.99827" lon="8.86847">
        <ele>1544</ele>
        <time>2021-08-03T11:48:31.762Z</time>
      </trkpt>
      <trkpt lat="46.99827" lon="8.86847">
        <ele>1544</ele>
        <time>2021-08-03T11:48:32.762Z</time>
      </trkpt>
      <trkpt lat="46.99827" lon="8.86847">
        <ele>1545</ele>
        <time>2021-08-03T11:48:33.762Z</time>
      </trkpt>
      <trkpt lat="46.99826" lon="8.86848">
        <ele>1546</ele>
        <time>2021-08-03T11:48:34.762Z</time>
      </trkpt>
      <trkpt lat="46.99826" lon="8.86848">
        <ele>1546</ele>
        <time>2021-08-03T11:48:35.761Z</time>
      </trkpt>
      <trkpt lat="46.99826" lon="8.86849">
        <ele>1546</ele>
        <time>2021-08-03T11:48:36.761Z</time>
      </trkpt>
      <trkpt lat="46.99827" lon="8.86849">
        <ele>1547</ele>
        <time>2021-08-03T11:48:37.762Z</time>
      </trkpt>
      <trkpt lat="46.99827" lon="8.86848">
        <ele>1547</ele>
        <time>2021-08-03T11:48:38.761Z</time>
      </trkpt>
      <trkpt lat="46.99827" lon="8.86848">
        <ele>1547</ele>
        <time>2021-08-03T11:48:39.761Z</time>
      </trkpt>
      <trkpt lat="46.99828" lon="8.86848">
        <ele>1546</ele>
        <time>2021-08-03T11:48:40.762Z</time>
      </trkpt>
      <trkpt lat="46.99829" lon="8.86848">
        <ele>1547</ele>
        <time>2021-08-03T11:48:41.763Z</time>
      </trkpt>
      <trkpt lat="46.9983" lon="8.86847">
        <ele>1546</ele>
        <time>2021-08-03T11:48:42.763Z</time>
      </trkpt>
      <trkpt lat="46.9983" lon="8.86847">
        <ele>1546</ele>
        <time>2021-08-03T11:48:43.762Z</time>
      </trkpt>
      <trkpt lat="46.9983" lon="8.86847">
        <ele>1547</ele>
        <time>2021-08-03T11:48:44.762Z</time>
      </trkpt>
      <trkpt lat="46.9983" lon="8.86848">
        <ele>1547</ele>
        <time>2021-08-03T11:48:45.763Z</time>
      </trkpt>
      <trkpt lat="46.9983" lon="8.86848">
        <ele>1548</ele>
        <time>2021-08-03T11:48:46.763Z</time>
      </trkpt>
      <trkpt lat="46.99829" lon="8.86847">
        <ele>1545</ele>
        <time>2021-08-03T11:48:47.764Z</time>
      </trkpt>
      <trkpt lat="46.99829" lon="8.86846">
        <ele>1545</ele>
        <time>2021-08-03T11:48:48.764Z</time>
      </trkpt>
      <trkpt lat="46.99826" lon="8.86846">
        <ele>1547</ele>
        <time>2021-08-03T11:48:50.764Z</time>
      </trkpt>
      <trkpt lat="46.99826" lon="8.86846">
        <ele>1546</ele>
        <time>2021-08-03T11:48:51.764Z</time>
      </trkpt>
      <trkpt lat="46.99826" lon="8.86847">
        <ele>1547</ele>
        <time>2021-08-03T11:48:52.765Z</time>
      </trkpt>
      <trkpt lat="46.99826" lon="8.86847">
        <ele>1547</ele>
        <time>2021-08-03T11:48:53.764Z</time>
      </trkpt>
      <trkpt lat="46.99829" lon="8.8684">
        <ele>1547</ele>
        <time>2021-08-03T11:48:54.765Z</time>
      </trkpt>
      <trkpt lat="46.99829" lon="8.8684">
        <ele>1547</ele>
        <time>2021-08-03T11:48:55.764Z</time>
      </trkpt>
      <trkpt lat="46.99829" lon="8.86842">
        <ele>1547</ele>
        <time>2021-08-03T11:48:56.764Z</time>
      </trkpt>
      <trkpt lat="46.9983" lon="8.86842">
        <ele>1547</ele>
        <time>2021-08-03T11:48:57.765Z</time>
      </trkpt>
      <trkpt lat="46.9983" lon="8.86842">
        <ele>1547</ele>
        <time>2021-08-03T11:48:58.765Z</time>
      </trkpt>
      <trkpt lat="46.9983" lon="8.86842">
        <ele>1547</ele>
        <time>2021-08-03T11:48:59.765Z</time>
      </trkpt>
      <trkpt lat="46.99831" lon="8.86843">
        <ele>1548</ele>
        <time>2021-08-03T11:49:00.765Z</time>
      </trkpt>
      <trkpt lat="46.99831" lon="8.86843">
        <ele>1548</ele>
        <time>2021-08-03T11:49:01.764Z</time>
      </trkpt>
      <trkpt lat="46.99829" lon="8.86845">
        <ele>1548</ele>
        <time>2021-08-03T11:49:02.765Z</time>
      </trkpt>
      <trkpt lat="46.99828" lon="8.86848">
        <ele>1548</ele>
        <time>2021-08-03T11:49:03.765Z</time>
      </trkpt>
      <trkpt lat="46.99828" lon="8.86849">
        <ele>1549</ele>
        <time>2021-08-03T11:49:04.765Z</time>
      </trkpt>
      <trkpt lat="46.99828" lon="8.8685">
        <ele>1549</ele>
        <time>2021-08-03T11:49:05.765Z</time>
      </trkpt>
      <trkpt lat="46.99827" lon="8.86849">
        <ele>1549</ele>
        <time>2021-08-03T11:49:06.765Z</time>
      </trkpt>
      <trkpt lat="46.99827" lon="8.86849">
        <ele>1549</ele>
        <time>2021-08-03T11:49:07.764Z</time>
      </trkpt>
      <trkpt lat="46.99826" lon="8.86849">
        <ele>1549</ele>
        <time>2021-08-03T11:49:08.765Z</time>
      </trkpt>
      <trkpt lat="46.99826" lon="8.86849">
        <ele>1549</ele>
        <time>2021-08-03T11:49:09.765Z</time>
      </trkpt>
      <trkpt lat="46.99826" lon="8.8685">
        <ele>1549</ele>
        <time>2021-08-03T11:49:10.765Z</time>
      </trkpt>
      <trkpt lat="46.99826" lon="8.86849">
        <ele>1549</ele>
        <time>2021-08-03T11:49:11.765Z</time>
      </trkpt>
      <trkpt lat="46.99826" lon="8.86849">
        <ele>1548</ele>
        <time>2021-08-03T11:49:12.764Z</time>
      </trkpt>
      <trkpt lat="46.99827" lon="8.86848">
        <ele>1548</ele>
        <time>2021-08-03T11:49:13.764Z</time>
      </trkpt>
      <trkpt lat="46.99827" lon="8.86847">
        <ele>1548</ele>
        <time>2021-08-03T11:49:14.764Z</time>
      </trkpt>
      <trkpt lat="46.99827" lon="8.86848">
        <ele>1547</ele>
        <time>2021-08-03T11:49:15.764Z</time>
      </trkpt>
      <trkpt lat="46.99828" lon="8.86847">
        <ele>1547</ele>
        <time>2021-08-03T11:49:16.764Z</time>
      </trkpt>
      <trkpt lat="46.99829" lon="8.86846">
        <ele>1547</ele>
        <time>2021-08-03T11:49:17.764Z</time>
      </trkpt>
      <trkpt lat="46.99829" lon="8.86846">
        <ele>1546</ele>
        <time>2021-08-03T11:49:18.765Z</time>
      </trkpt>
      <trkpt lat="46.99829" lon="8.86844">
        <ele>1545</ele>
        <time>2021-08-03T11:49:19.766Z</time>
      </trkpt>
      <trkpt lat="46.99829" lon="8.86844">
        <ele>1545</ele>
        <time>2021-08-03T11:49:20.765Z</time>
      </trkpt>
      <trkpt lat="46.9983" lon="8.86844">
        <ele>1544</ele>
        <time>2021-08-03T11:49:21.766Z</time>
      </trkpt>
      <trkpt lat="46.99831" lon="8.86842">
        <ele>1544</ele>
        <time>2021-08-03T11:49:22.766Z</time>
      </trkpt>
      <trkpt lat="46.99832" lon="8.86841">
        <ele>1544</ele>
        <time>2021-08-03T11:49:23.766Z</time>
      </trkpt>
      <trkpt lat="46.99832" lon="8.86841">
        <ele>1543</ele>
        <time>2021-08-03T11:49:24.766Z</time>
      </trkpt>
      <trkpt lat="46.99833" lon="8.8684">
        <ele>1543</ele>
        <time>2021-08-03T11:49:25.766Z</time>
      </trkpt>
      <trkpt lat="46.99833" lon="8.8684">
        <ele>1543</ele>
        <time>2021-08-03T11:49:26.765Z</time>
      </trkpt>
      <trkpt lat="46.99833" lon="8.86841">
        <ele>1543</ele>
        <time>2021-08-03T11:49:27.765Z</time>
      </trkpt>
      <trkpt lat="46.99833" lon="8.86841">
        <ele>1543</ele>
        <time>2021-08-03T11:49:28.765Z</time>
      </trkpt>
      <trkpt lat="46.99832" lon="8.86842">
        <ele>1543</ele>
        <time>2021-08-03T11:49:29.766Z</time>
      </trkpt>
      <trkpt lat="46.99832" lon="8.86843">
        <ele>1544</ele>
        <time>2021-08-03T11:49:30.766Z</time>
      </trkpt>
      <trkpt lat="46.99831" lon="8.86844">
        <ele>1544</ele>
        <time>2021-08-03T11:49:31.766Z</time>
      </trkpt>
      <trkpt lat="46.99831" lon="8.86844">
        <ele>1545</ele>
        <time>2021-08-03T11:49:32.766Z</time>
      </trkpt>
      <trkpt lat="46.99831" lon="8.86845">
        <ele>1545</ele>
        <time>2021-08-03T11:49:33.766Z</time>
      </trkpt>
      <trkpt lat="46.99831" lon="8.86845">
        <ele>1546</ele>
        <time>2021-08-03T11:49:34.766Z</time>
      </trkpt>
      <trkpt lat="46.99832" lon="8.86846">
        <ele>1546</ele>
        <time>2021-08-03T11:49:35.766Z</time>
      </trkpt>
      <trkpt lat="46.99834" lon="8.86844">
        <ele>1547</ele>
        <time>2021-08-03T11:49:36.766Z</time>
      </trkpt>
      <trkpt lat="46.99834" lon="8.86844">
        <ele>1547</ele>
        <time>2021-08-03T11:49:37.765Z</time>
      </trkpt>
      <trkpt lat="46.99833" lon="8.86843">
        <ele>1548</ele>
        <time>2021-08-03T11:49:38.766Z</time>
      </trkpt>
      <trkpt lat="46.99833" lon="8.86844">
        <ele>1549</ele>
        <time>2021-08-03T11:49:39.766Z</time>
      </trkpt>
      <trkpt lat="46.99833" lon="8.86844">
        <ele>1549</ele>
        <time>2021-08-03T11:49:40.766Z</time>
      </trkpt>
      <trkpt lat="46.99833" lon="8.86845">
        <ele>1551</ele>
        <time>2021-08-03T11:49:41.767Z</time>
      </trkpt>
      <trkpt lat="46.99832" lon="8.86846">
        <ele>1551</ele>
        <time>2021-08-03T11:49:42.766Z</time>
      </trkpt>
      <trkpt lat="46.99831" lon="8.86847">
        <ele>1551</ele>
        <time>2021-08-03T11:49:43.767Z</time>
      </trkpt>
      <trkpt lat="46.99831" lon="8.86848">
        <ele>1552</ele>
        <time>2021-08-03T11:49:44.766Z</time>
      </trkpt>
      <trkpt lat="46.99832" lon="8.86848">
        <ele>1552</ele>
        <time>2021-08-03T11:49:45.766Z</time>
      </trkpt>
      <trkpt lat="46.99832" lon="8.86848">
        <ele>1551</ele>
        <time>2021-08-03T11:49:46.767Z</time>
      </trkpt>
      <trkpt lat="46.99832" lon="8.86848">
        <ele>1551</ele>
        <time>2021-08-03T11:49:47.766Z</time>
      </trkpt>
      <trkpt lat="46.99832" lon="8.86846">
        <ele>1551</ele>
        <time>2021-08-03T11:49:48.768Z</time>
      </trkpt>
      <trkpt lat="46.99832" lon="8.86846">
        <ele>1551</ele>
        <time>2021-08-03T11:49:49.767Z</time>
      </trkpt>
      <trkpt lat="46.99832" lon="8.86845">
        <ele>1552</ele>
        <time>2021-08-03T11:49:50.767Z</time>
      </trkpt>
      <trkpt lat="46.99831" lon="8.86845">
        <ele>1552</ele>
        <time>2021-08-03T11:49:51.767Z</time>
      </trkpt>
      <trkpt lat="46.99831" lon="8.86845">
        <ele>1552</ele>
        <time>2021-08-03T11:49:52.768Z</time>
      </trkpt>
      <trkpt lat="46.99831" lon="8.86845">
        <ele>1552</ele>
        <time>2021-08-03T11:49:53.767Z</time>
      </trkpt>
      <trkpt lat="46.9983" lon="8.86845">
        <ele>1552</ele>
        <time>2021-08-03T11:49:54.768Z</time>
      </trkpt>
      <trkpt lat="46.9983" lon="8.86845">
        <ele>1551</ele>
        <time>2021-08-03T11:49:55.767Z</time>
      </trkpt>
      <trkpt lat="46.99829" lon="8.86844">
        <ele>1550</ele>
        <time>2021-08-03T11:49:56.767Z</time>
      </trkpt>
      <trkpt lat="46.99829" lon="8.86844">
        <ele>1548</ele>
        <time>2021-08-03T11:49:57.768Z</time>
      </trkpt>
      <trkpt lat="46.99829" lon="8.86844">
        <ele>1547</ele>
        <time>2021-08-03T11:49:58.767Z</time>
      </trkpt>
      <trkpt lat="46.99829" lon="8.86845">
        <ele>1545</ele>
        <time>2021-08-03T11:49:59.768Z</time>
      </trkpt>
      <trkpt lat="46.99829" lon="8.86845">
        <ele>1544</ele>
        <time>2021-08-03T11:50:00.767Z</time>
      </trkpt>
      <trkpt lat="46.99829" lon="8.86844">
        <ele>1542</ele>
        <time>2021-08-03T11:50:01.769Z</time>
      </trkpt>
      <trkpt lat="46.99828" lon="8.86845">
        <ele>1542</ele>
        <time>2021-08-03T11:50:02.768Z</time>
      </trkpt>
      <trkpt lat="46.99828" lon="8.86846">
        <ele>1542</ele>
        <time>2021-08-03T11:50:03.769Z</time>
      </trkpt>
      <trkpt lat="46.99827" lon="8.86848">
        <ele>1542</ele>
        <time>2021-08-03T11:50:04.769Z</time>
      </trkpt>
      <trkpt lat="46.99827" lon="8.86848">
        <ele>1543</ele>
        <time>2021-08-03T11:50:05.769Z</time>
      </trkpt>
      <trkpt lat="46.99828" lon="8.86847">
        <ele>1543</ele>
        <time>2021-08-03T11:50:06.769Z</time>
      </trkpt>
      <trkpt lat="46.99828" lon="8.86847">
        <ele>1543</ele>
        <time>2021-08-03T11:50:07.768Z</time>
      </trkpt>
      <trkpt lat="46.99828" lon="8.86847">
        <ele>1544</ele>
        <time>2021-08-03T11:50:08.769Z</time>
      </trkpt>
      <trkpt lat="46.99827" lon="8.86848">
        <ele>1544</ele>
        <time>2021-08-03T11:50:09.769Z</time>
      </trkpt>
      <trkpt lat="46.99827" lon="8.86849">
        <ele>1544</ele>
        <time>2021-08-03T11:50:10.768Z</time>
      </trkpt>
      <trkpt lat="46.99827" lon="8.86849">
        <ele>1544</ele>
        <time>2021-08-03T11:50:11.769Z</time>
      </trkpt>
      <trkpt lat="46.99826" lon="8.8685">
        <ele>1543</ele>
        <time>2021-08-03T11:50:12.769Z</time>
      </trkpt>
      <trkpt lat="46.99826" lon="8.86851">
        <ele>1543</ele>
        <time>2021-08-03T11:50:13.769Z</time>
      </trkpt>
      <trkpt lat="46.99826" lon="8.86851">
        <ele>1543</ele>
        <time>2021-08-03T11:50:14.768Z</time>
      </trkpt>
      <trkpt lat="46.99826" lon="8.8685">
        <ele>1542</ele>
        <time>2021-08-03T11:50:15.769Z</time>
      </trkpt>
      <trkpt lat="46.99826" lon="8.8685">
        <ele>1542</ele>
        <time>2021-08-03T11:50:16.769Z</time>
      </trkpt>
      <trkpt lat="46.99826" lon="8.8685">
        <ele>1542</ele>
        <time>2021-08-03T11:50:18.874Z</time>
      </trkpt>
      <trkpt lat="46.99827" lon="8.8685">
        <ele>1542</ele>
        <time>2021-08-03T11:50:19.874Z</time>
      </trkpt>
      <trkpt lat="46.99825" lon="8.86853">
        <ele>1543</ele>
        <time>2021-08-03T11:50:20.875Z</time>
      </trkpt>
      <trkpt lat="46.99824" lon="8.86853">
        <ele>1543</ele>
        <time>2021-08-03T11:50:21.874Z</time>
      </trkpt>
      <trkpt lat="46.99823" lon="8.86854">
        <ele>1543</ele>
        <time>2021-08-03T11:50:22.874Z</time>
      </trkpt>
      <trkpt lat="46.99823" lon="8.86855">
        <ele>1543</ele>
        <time>2021-08-03T11:50:23.874Z</time>
      </trkpt>
      <trkpt lat="46.99823" lon="8.86854">
        <ele>1543</ele>
        <time>2021-08-03T11:50:24.874Z</time>
      </trkpt>
      <trkpt lat="46.99822" lon="8.86854">
        <ele>1542</ele>
        <time>2021-08-03T11:50:25.875Z</time>
      </trkpt>
      <trkpt lat="46.99822" lon="8.86854">
        <ele>1542</ele>
        <time>2021-08-03T11:50:26.874Z</time>
      </trkpt>
      <trkpt lat="46.99823" lon="8.86853">
        <ele>1542</ele>
        <time>2021-08-03T11:50:27.875Z</time>
      </trkpt>
      <trkpt lat="46.99823" lon="8.86852">
        <ele>1541</ele>
        <time>2021-08-03T11:50:28.874Z</time>
      </trkpt>
      <trkpt lat="46.99823" lon="8.86852">
        <ele>1541</ele>
        <time>2021-08-03T11:50:29.874Z</time>
      </trkpt>
      <trkpt lat="46.99823" lon="8.86852">
        <ele>1541</ele>
        <time>2021-08-03T11:50:30.874Z</time>
      </trkpt>
      <trkpt lat="46.99824" lon="8.86852">
        <ele>1540</ele>
        <time>2021-08-03T11:50:31.875Z</time>
      </trkpt>
      <trkpt lat="46.99824" lon="8.86852">
        <ele>1540</ele>
        <time>2021-08-03T11:50:32.874Z</time>
      </trkpt>
      <trkpt lat="46.99823" lon="8.86853">
        <ele>1540</ele>
        <time>2021-08-03T11:50:33.874Z</time>
      </trkpt>
      <trkpt lat="46.99823" lon="8.86854">
        <ele>1540</ele>
        <time>2021-08-03T11:50:34.874Z</time>
      </trkpt>
      <trkpt lat="46.99822" lon="8.86854">
        <ele>1540</ele>
        <time>2021-08-03T11:50:35.874Z</time>
      </trkpt>
      <trkpt lat="46.99823" lon="8.86854">
        <ele>1541</ele>
        <time>2021-08-03T11:50:36.874Z</time>
      </trkpt>
      <trkpt lat="46.99823" lon="8.86854">
        <ele>1541</ele>
        <time>2021-08-03T11:50:37.875Z</time>
      </trkpt>
      <trkpt lat="46.99825" lon="8.8685">
        <ele>1543</ele>
        <time>2021-08-03T11:50:38.875Z</time>
      </trkpt>
      <trkpt lat="46.99825" lon="8.86851">
        <ele>1543</ele>
        <time>2021-08-03T11:50:39.875Z</time>
      </trkpt>
      <trkpt lat="46.99825" lon="8.86851">
        <ele>1543</ele>
        <time>2021-08-03T11:50:40.876Z</time>
      </trkpt>
      <trkpt lat="46.99824" lon="8.86851">
        <ele>1543</ele>
        <time>2021-08-03T11:50:41.876Z</time>
      </trkpt>
      <trkpt lat="46.99824" lon="8.8685">
        <ele>1543</ele>
        <time>2021-08-03T11:50:42.875Z</time>
      </trkpt>
      <trkpt lat="46.99824" lon="8.86851">
        <ele>1543</ele>
        <time>2021-08-03T11:50:43.876Z</time>
      </trkpt>
      <trkpt lat="46.99824" lon="8.8685">
        <ele>1543</ele>
        <time>2021-08-03T11:50:44.875Z</time>
      </trkpt>
      <trkpt lat="46.99823" lon="8.86849">
        <ele>1543</ele>
        <time>2021-08-03T11:50:45.876Z</time>
      </trkpt>
      <trkpt lat="46.99823" lon="8.86849">
        <ele>1543</ele>
        <time>2021-08-03T11:50:46.876Z</time>
      </trkpt>
      <trkpt lat="46.99824" lon="8.86847">
        <ele>1543</ele>
        <time>2021-08-03T11:50:47.876Z</time>
      </trkpt>
      <trkpt lat="46.99825" lon="8.86846">
        <ele>1544</ele>
        <time>2021-08-03T11:50:48.876Z</time>
      </trkpt>
      <trkpt lat="46.99826" lon="8.86845">
        <ele>1544</ele>
        <time>2021-08-03T11:50:49.876Z</time>
      </trkpt>
      <trkpt lat="46.99825" lon="8.86846">
        <ele>1544</ele>
        <time>2021-08-03T11:50:50.876Z</time>
      </trkpt>
      <trkpt lat="46.99824" lon="8.86846">
        <ele>1545</ele>
        <time>2021-08-03T11:50:51.875Z</time>
      </trkpt>
      <trkpt lat="46.99824" lon="8.86847">
        <ele>1546</ele>
        <time>2021-08-03T11:50:52.876Z</time>
      </trkpt>
      <trkpt lat="46.99823" lon="8.86848">
        <ele>1546</ele>
        <time>2021-08-03T11:50:53.876Z</time>
      </trkpt>
      <trkpt lat="46.99823" lon="8.86849">
        <ele>1547</ele>
        <time>2021-08-03T11:50:54.876Z</time>
      </trkpt>
      <trkpt lat="46.99823" lon="8.86849">
        <ele>1547</ele>
        <time>2021-08-03T11:50:55.876Z</time>
      </trkpt>
      <trkpt lat="46.99822" lon="8.8685">
        <ele>1548</ele>
        <time>2021-08-03T11:50:56.876Z</time>
      </trkpt>
      <trkpt lat="46.99822" lon="8.8685">
        <ele>1549</ele>
        <time>2021-08-03T11:50:57.876Z</time>
      </trkpt>
      <trkpt lat="46.9982" lon="8.86851">
        <ele>1551</ele>
        <time>2021-08-03T11:50:58.875Z</time>
      </trkpt>
      <trkpt lat="46.9982" lon="8.86851">
        <ele>1551</ele>
        <time>2021-08-03T11:50:59.875Z</time>
      </trkpt>
      <trkpt lat="46.9982" lon="8.86852">
        <ele>1552</ele>
        <time>2021-08-03T11:51:00.875Z</time>
      </trkpt>
      <trkpt lat="46.99822" lon="8.86852">
        <ele>1554</ele>
        <time>2021-08-03T11:51:01.875Z</time>
      </trkpt>
      <trkpt lat="46.99821" lon="8.86853">
        <ele>1554</ele>
        <time>2021-08-03T11:51:02.876Z</time>
      </trkpt>
      <trkpt lat="46.99821" lon="8.86852">
        <ele>1555</ele>
        <time>2021-08-03T11:51:03.875Z</time>
      </trkpt>
      <trkpt lat="46.99821" lon="8.86851">
        <ele>1555</ele>
        <time>2021-08-03T11:51:04.875Z</time>
      </trkpt>
      <trkpt lat="46.99821" lon="8.86851">
        <ele>1555</ele>
        <time>2021-08-03T11:51:05.875Z</time>
      </trkpt>
      <trkpt lat="46.99822" lon="8.8685">
        <ele>1555</ele>
        <time>2021-08-03T11:51:06.876Z</time>
      </trkpt>
      <trkpt lat="46.99827" lon="8.86846">
        <ele>1555</ele>
        <time>2021-08-03T11:51:07.876Z</time>
      </trkpt>
      <trkpt lat="46.99827" lon="8.86847">
        <ele>1554</ele>
        <time>2021-08-03T11:51:08.876Z</time>
      </trkpt>
      <trkpt lat="46.99826" lon="8.86848">
        <ele>1554</ele>
        <time>2021-08-03T11:51:09.876Z</time>
      </trkpt>
      <trkpt lat="46.99826" lon="8.86848">
        <ele>1554</ele>
        <time>2021-08-03T11:51:10.876Z</time>
      </trkpt>
      <trkpt lat="46.99826" lon="8.86848">
        <ele>1553</ele>
        <time>2021-08-03T11:51:11.876Z</time>
      </trkpt>
      <trkpt lat="46.99827" lon="8.86847">
        <ele>1553</ele>
        <time>2021-08-03T11:51:12.877Z</time>
      </trkpt>
      <trkpt lat="46.99827" lon="8.86847">
        <ele>1553</ele>
        <time>2021-08-03T11:51:13.876Z</time>
      </trkpt>
      <trkpt lat="46.99827" lon="8.86847">
        <ele>1552</ele>
        <time>2021-08-03T11:51:14.877Z</time>
      </trkpt>
      <trkpt lat="46.99828" lon="8.86846">
        <ele>1552</ele>
        <time>2021-08-03T11:51:15.877Z</time>
      </trkpt>
      <trkpt lat="46.99828" lon="8.86846">
        <ele>1551</ele>
        <time>2021-08-03T11:51:16.876Z</time>
      </trkpt>
      <trkpt lat="46.99827" lon="8.86847">
        <ele>1551</ele>
        <time>2021-08-03T11:51:17.877Z</time>
      </trkpt>
      <trkpt lat="46.99826" lon="8.86848">
        <ele>1551</ele>
        <time>2021-08-03T11:51:18.877Z</time>
      </trkpt>
      <trkpt lat="46.99826" lon="8.86849">
        <ele>1550</ele>
        <time>2021-08-03T11:51:19.877Z</time>
      </trkpt>
      <trkpt lat="46.99826" lon="8.86849">
        <ele>1550</ele>
        <time>2021-08-03T11:51:20.877Z</time>
      </trkpt>
      <trkpt lat="46.99826" lon="8.86848">
        <ele>1550</ele>
        <time>2021-08-03T11:51:21.877Z</time>
      </trkpt>
      <trkpt lat="46.99827" lon="8.86848">
        <ele>1550</ele>
        <time>2021-08-03T11:51:22.877Z</time>
      </trkpt>
      <trkpt lat="46.99827" lon="8.86847">
        <ele>1550</ele>
        <time>2021-08-03T11:51:23.877Z</time>
      </trkpt>
      <trkpt lat="46.99828" lon="8.86847">
        <ele>1550</ele>
        <time>2021-08-03T11:51:24.877Z</time>
      </trkpt>
      <trkpt lat="46.99828" lon="8.86847">
        <ele>1550</ele>
        <time>2021-08-03T11:51:25.876Z</time>
      </trkpt>
      <trkpt lat="46.99828" lon="8.86848">
        <ele>1550</ele>
        <time>2021-08-03T11:51:26.877Z</time>
      </trkpt>
      <trkpt lat="46.99827" lon="8.86848">
        <ele>1548</ele>
        <time>2021-08-03T11:51:27.878Z</time>
      </trkpt>
      <trkpt lat="46.99827" lon="8.86848">
        <ele>1548</ele>
        <time>2021-08-03T11:51:28.877Z</time>
      </trkpt>
      <trkpt lat="46.99827" lon="8.86849">
        <ele>1544</ele>
        <time>2021-08-03T11:51:29.878Z</time>
      </trkpt>
      <trkpt lat="46.99826" lon="8.8685">
        <ele>1543</ele>
        <time>2021-08-03T11:51:30.878Z</time>
      </trkpt>
      <trkpt lat="46.99826" lon="8.8685">
        <ele>1542</ele>
        <time>2021-08-03T11:51:31.877Z</time>
      </trkpt>
      <trkpt lat="46.99826" lon="8.86851">
        <ele>1542</ele>
        <time>2021-08-03T11:51:32.877Z</time>
      </trkpt>
      <trkpt lat="46.99827" lon="8.86851">
        <ele>1540</ele>
        <time>2021-08-03T11:51:33.877Z</time>
      </trkpt>
      <trkpt lat="46.99827" lon="8.86851">
        <ele>1539</ele>
        <time>2021-08-03T11:51:34.877Z</time>
      </trkpt>
      <trkpt lat="46.99826" lon="8.86852">
        <ele>1539</ele>
        <time>2021-08-03T11:51:35.877Z</time>
      </trkpt>
      <trkpt lat="46.99826" lon="8.86853">
        <ele>1539</ele>
        <time>2021-08-03T11:51:36.878Z</time>
      </trkpt>
      <trkpt lat="46.99826" lon="8.86853">
        <ele>1539</ele>
        <time>2021-08-03T11:51:37.877Z</time>
      </trkpt>
      <trkpt lat="46.99827" lon="8.86852">
        <ele>1539</ele>
        <time>2021-08-03T11:51:38.877Z</time>
      </trkpt>
      <trkpt lat="46.99827" lon="8.86853">
        <ele>1539</ele>
        <time>2021-08-03T11:51:39.877Z</time>
      </trkpt>
      <trkpt lat="46.99828" lon="8.86851">
        <ele>1539</ele>
        <time>2021-08-03T11:51:40.877Z</time>
      </trkpt>
      <trkpt lat="46.99828" lon="8.8685">
        <ele>1539</ele>
        <time>2021-08-03T11:51:41.878Z</time>
      </trkpt>
      <trkpt lat="46.99829" lon="8.8685">
        <ele>1539</ele>
        <time>2021-08-03T11:51:42.877Z</time>
      </trkpt>
      <trkpt lat="46.99829" lon="8.86849">
        <ele>1539</ele>
        <time>2021-08-03T11:51:43.877Z</time>
      </trkpt>
      <trkpt lat="46.9983" lon="8.86848">
        <ele>1539</ele>
        <time>2021-08-03T11:51:44.878Z</time>
      </trkpt>
      <trkpt lat="46.9983" lon="8.86847">
        <ele>1539</ele>
        <time>2021-08-03T11:51:45.877Z</time>
      </trkpt>
      <trkpt lat="46.99831" lon="8.86846">
        <ele>1539</ele>
        <time>2021-08-03T11:51:46.878Z</time>
      </trkpt>
      <trkpt lat="46.99832" lon="8.86844">
        <ele>1539</ele>
        <time>2021-08-03T11:51:47.877Z</time>
      </trkpt>
      <trkpt lat="46.99832" lon="8.86842">
        <ele>1539</ele>
        <time>2021-08-03T11:51:48.878Z</time>
      </trkpt>
      <trkpt lat="46.99833" lon="8.8684">
        <ele>1539</ele>
        <time>2021-08-03T11:51:49.877Z</time>
      </trkpt>
      <trkpt lat="46.99834" lon="8.86838">
        <ele>1539</ele>
        <time>2021-08-03T11:51:50.877Z</time>
      </trkpt>
      <trkpt lat="46.99835" lon="8.86837">
        <ele>1539</ele>
        <time>2021-08-03T11:51:51.877Z</time>
      </trkpt>
      <trkpt lat="46.99835" lon="8.86837">
        <ele>1539</ele>
        <time>2021-08-03T11:51:52.878Z</time>
      </trkpt>
      <trkpt lat="46.99835" lon="8.86838">
        <ele>1539</ele>
        <time>2021-08-03T11:51:53.877Z</time>
      </trkpt>
      <trkpt lat="46.99835" lon="8.86838">
        <ele>1538</ele>
        <time>2021-08-03T11:51:54.877Z</time>
      </trkpt>
      <trkpt lat="46.99836" lon="8.86838">
        <ele>1538</ele>
        <time>2021-08-03T11:51:55.877Z</time>
      </trkpt>
      <trkpt lat="46.99837" lon="8.86837">
        <ele>1532</ele>
        <time>2021-08-03T11:51:56.878Z</time>
      </trkpt>
      <trkpt lat="46.99837" lon="8.86837">
        <ele>1532</ele>
        <time>2021-08-03T11:51:57.878Z</time>
      </trkpt>
      <trkpt lat="46.99836" lon="8.86838">
        <ele>1532</ele>
        <time>2021-08-03T11:51:58.877Z</time>
      </trkpt>
      <trkpt lat="46.99836" lon="8.86839">
        <ele>1532</ele>
        <time>2021-08-03T11:51:59.877Z</time>
      </trkpt>
      <trkpt lat="46.99835" lon="8.86841">
        <ele>1534</ele>
        <time>2021-08-03T11:52:00.878Z</time>
      </trkpt>
      <trkpt lat="46.99835" lon="8.86842">
        <ele>1535</ele>
        <time>2021-08-03T11:52:01.878Z</time>
      </trkpt>
      <trkpt lat="46.99834" lon="8.86843">
        <ele>1536</ele>
        <time>2021-08-03T11:52:02.878Z</time>
      </trkpt>
      <trkpt lat="46.99834" lon="8.86843">
        <ele>1536</ele>
        <time>2021-08-03T11:52:03.878Z</time>
      </trkpt>
      <trkpt lat="46.99834" lon="8.86843">
        <ele>1537</ele>
        <time>2021-08-03T11:52:04.878Z</time>
      </trkpt>
      <trkpt lat="46.99834" lon="8.86844">
        <ele>1538</ele>
        <time>2021-08-03T11:52:05.879Z</time>
      </trkpt>
      <trkpt lat="46.99832" lon="8.86848">
        <ele>1541</ele>
        <time>2021-08-03T11:52:06.878Z</time>
      </trkpt>
      <trkpt lat="46.99832" lon="8.86848">
        <ele>1542</ele>
        <time>2021-08-03T11:52:07.879Z</time>
      </trkpt>
      <trkpt lat="46.99832" lon="8.86847">
        <ele>1542</ele>
        <time>2021-08-03T11:52:08.878Z</time>
      </trkpt>
      <trkpt lat="46.99832" lon="8.86846">
        <ele>1543</ele>
        <time>2021-08-03T11:52:09.879Z</time>
      </trkpt>
      <trkpt lat="46.99831" lon="8.86846">
        <ele>1543</ele>
        <time>2021-08-03T11:52:10.879Z</time>
      </trkpt>
      <trkpt lat="46.99831" lon="8.86846">
        <ele>1544</ele>
        <time>2021-08-03T11:52:11.879Z</time>
      </trkpt>
      <trkpt lat="46.99831" lon="8.86846">
        <ele>1544</ele>
        <time>2021-08-03T11:52:43.022Z</time>
      </trkpt>
      <trkpt lat="46.99832" lon="8.86845">
        <ele>1544</ele>
        <time>2021-08-03T11:52:44.022Z</time>
      </trkpt>
      <trkpt lat="46.99832" lon="8.86843">
        <ele>1541</ele>
        <time>2021-08-03T11:52:45.022Z</time>
      </trkpt>
      <trkpt lat="46.99833" lon="8.86843">
        <ele>1540</ele>
        <time>2021-08-03T11:52:46.023Z</time>
      </trkpt>
      <trkpt lat="46.99833" lon="8.86844">
        <ele>1540</ele>
        <time>2021-08-03T11:52:47.023Z</time>
      </trkpt>
      <trkpt lat="46.99831" lon="8.86847">
        <ele>1541</ele>
        <time>2021-08-03T11:52:48.023Z</time>
      </trkpt>
      <trkpt lat="46.99831" lon="8.86847">
        <ele>1541</ele>
        <time>2021-08-03T11:52:49.023Z</time>
      </trkpt>
      <trkpt lat="46.99831" lon="8.86848">
        <ele>1541</ele>
        <time>2021-08-03T11:52:50.022Z</time>
      </trkpt>
      <trkpt lat="46.99831" lon="8.86848">
        <ele>1541</ele>
        <time>2021-08-03T11:52:51.022Z</time>
      </trkpt>
      <trkpt lat="46.9983" lon="8.86848">
        <ele>1540</ele>
        <time>2021-08-03T11:52:52.022Z</time>
      </trkpt>
      <trkpt lat="46.9983" lon="8.86849">
        <ele>1541</ele>
        <time>2021-08-03T11:52:53.022Z</time>
      </trkpt>
      <trkpt lat="46.9983" lon="8.86849">
        <ele>1541</ele>
        <time>2021-08-03T11:52:54.023Z</time>
      </trkpt>
      <trkpt lat="46.99831" lon="8.86849">
        <ele>1542</ele>
        <time>2021-08-03T11:52:55.023Z</time>
      </trkpt>
      <trkpt lat="46.99831" lon="8.86849">
        <ele>1542</ele>
        <time>2021-08-03T11:52:56.023Z</time>
      </trkpt>
      <trkpt lat="46.99832" lon="8.86848">
        <ele>1542</ele>
        <time>2021-08-03T11:52:57.022Z</time>
      </trkpt>
      <trkpt lat="46.99832" lon="8.86847">
        <ele>1543</ele>
        <time>2021-08-03T11:52:58.023Z</time>
      </trkpt>
      <trkpt lat="46.99833" lon="8.86847">
        <ele>1543</ele>
        <time>2021-08-03T11:52:59.023Z</time>
      </trkpt>
      <trkpt lat="46.99833" lon="8.86847">
        <ele>1543</ele>
        <time>2021-08-03T11:53:00.022Z</time>
      </trkpt>
      <trkpt lat="46.99834" lon="8.86846">
        <ele>1543</ele>
        <time>2021-08-03T11:53:01.023Z</time>
      </trkpt>
      <trkpt lat="46.99834" lon="8.86846">
        <ele>1543</ele>
        <time>2021-08-03T11:53:02.022Z</time>
      </trkpt>
      <trkpt lat="46.99833" lon="8.86845">
        <ele>1543</ele>
        <time>2021-08-03T11:53:03.024Z</time>
      </trkpt>
      <trkpt lat="46.99834" lon="8.86844">
        <ele>1543</ele>
        <time>2021-08-03T11:53:04.024Z</time>
      </trkpt>
      <trkpt lat="46.99835" lon="8.86843">
        <ele>1543</ele>
        <time>2021-08-03T11:53:04.899Z</time>
      </trkpt>
      <trkpt lat="46.99835" lon="8.86843">
        <ele>1543</ele>
        <time>2021-08-03T11:53:06.023Z</time>
      </trkpt>
      <trkpt lat="46.99835" lon="8.86844">
        <ele>1543</ele>
        <time>2021-08-03T11:53:07.024Z</time>
      </trkpt>
      <trkpt lat="46.99835" lon="8.86846">
        <ele>1544</ele>
        <time>2021-08-03T11:53:08.024Z</time>
      </trkpt>
      <trkpt lat="46.99832" lon="8.86847">
        <ele>1547</ele>
        <time>2021-08-03T11:53:08.900Z</time>
      </trkpt>
      <trkpt lat="46.99832" lon="8.86846">
        <ele>1548</ele>
        <time>2021-08-03T11:53:09.900Z</time>
      </trkpt>
      <trkpt lat="46.99832" lon="8.86845">
        <ele>1548</ele>
        <time>2021-08-03T11:53:10.899Z</time>
      </trkpt>
      <trkpt lat="46.99833" lon="8.86846">
        <ele>1548</ele>
        <time>2021-08-03T11:53:11.901Z</time>
      </trkpt>
      <trkpt lat="46.99833" lon="8.86846">
        <ele>1548</ele>
        <time>2021-08-03T11:53:12.901Z</time>
      </trkpt>
      <trkpt lat="46.99834" lon="8.86841">
        <ele>1546</ele>
        <time>2021-08-03T11:53:13.902Z</time>
      </trkpt>
      <trkpt lat="46.99834" lon="8.8684">
        <ele>1545</ele>
        <time>2021-08-03T11:53:14.902Z</time>
      </trkpt>
      <trkpt lat="46.99834" lon="8.86841">
        <ele>1545</ele>
        <time>2021-08-03T11:53:15.901Z</time>
      </trkpt>
      <trkpt lat="46.99834" lon="8.86842">
        <ele>1544</ele>
        <time>2021-08-03T11:53:16.901Z</time>
      </trkpt>
      <trkpt lat="46.99833" lon="8.86844">
        <ele>1544</ele>
        <time>2021-08-03T11:53:17.901Z</time>
      </trkpt>
      <trkpt lat="46.99833" lon="8.86844">
        <ele>1544</ele>
        <time>2021-08-03T11:53:18.902Z</time>
      </trkpt>
      <trkpt lat="46.99834" lon="8.86844">
        <ele>1544</ele>
        <time>2021-08-03T11:53:19.901Z</time>
      </trkpt>
      <trkpt lat="46.99834" lon="8.86844">
        <ele>1544</ele>
        <time>2021-08-03T11:53:20.903Z</time>
      </trkpt>
      <trkpt lat="46.99836" lon="8.86839">
        <ele>1544</ele>
        <time>2021-08-03T11:53:21.902Z</time>
      </trkpt>
      <trkpt lat="46.99836" lon="8.86838">
        <ele>1544</ele>
        <time>2021-08-03T11:53:22.903Z</time>
      </trkpt>
      <trkpt lat="46.99836" lon="8.86838">
        <ele>1544</ele>
        <time>2021-08-03T11:53:23.902Z</time>
      </trkpt>
      <trkpt lat="46.99837" lon="8.86837">
        <ele>1544</ele>
        <time>2021-08-03T11:53:24.903Z</time>
      </trkpt>
      <trkpt lat="46.99837" lon="8.86837">
        <ele>1544</ele>
        <time>2021-08-03T11:53:25.903Z</time>
      </trkpt>
      <trkpt lat="46.99836" lon="8.86837">
        <ele>1544</ele>
        <time>2021-08-03T11:53:26.903Z</time>
      </trkpt>
      <trkpt lat="46.99836" lon="8.86836">
        <ele>1543</ele>
        <time>2021-08-03T11:53:27.902Z</time>
      </trkpt>
      <trkpt lat="46.99836" lon="8.86838">
        <ele>1538</ele>
        <time>2021-08-03T11:53:28.903Z</time>
      </trkpt>
      <trkpt lat="46.99835" lon="8.86839">
        <ele>1538</ele>
        <time>2021-08-03T11:53:29.902Z</time>
      </trkpt>
      <trkpt lat="46.99835" lon="8.86839">
        <ele>1539</ele>
        <time>2021-08-03T11:53:30.902Z</time>
      </trkpt>
      <trkpt lat="46.99834" lon="8.8684">
        <ele>1539</ele>
        <time>2021-08-03T11:53:31.903Z</time>
      </trkpt>
      <trkpt lat="46.99834" lon="8.86841">
        <ele>1539</ele>
        <time>2021-08-03T11:53:32.903Z</time>
      </trkpt>
      <trkpt lat="46.99834" lon="8.86841">
        <ele>1539</ele>
        <time>2021-08-03T11:53:33.902Z</time>
      </trkpt>
      <trkpt lat="46.99833" lon="8.86842">
        <ele>1539</ele>
        <time>2021-08-03T11:53:34.903Z</time>
      </trkpt>
      <trkpt lat="46.99833" lon="8.86843">
        <ele>1539</ele>
        <time>2021-08-03T11:53:35.903Z</time>
      </trkpt>
      <trkpt lat="46.99833" lon="8.86843">
        <ele>1539</ele>
        <time>2021-08-03T11:53:36.903Z</time>
      </trkpt>
      <trkpt lat="46.99834" lon="8.86844">
        <ele>1538</ele>
        <time>2021-08-03T11:53:37.903Z</time>
      </trkpt>
      <trkpt lat="46.99833" lon="8.86846">
        <ele>1538</ele>
        <time>2021-08-03T11:53:38.904Z</time>
      </trkpt>
      <trkpt lat="46.99833" lon="8.86847">
        <ele>1538</ele>
        <time>2021-08-03T11:53:39.903Z</time>
      </trkpt>
      <trkpt lat="46.99832" lon="8.86848">
        <ele>1538</ele>
        <time>2021-08-03T11:53:40.904Z</time>
      </trkpt>
      <trkpt lat="46.99831" lon="8.86849">
        <ele>1539</ele>
        <time>2021-08-03T11:53:41.904Z</time>
      </trkpt>
      <trkpt lat="46.99831" lon="8.8685">
        <ele>1539</ele>
        <time>2021-08-03T11:53:42.903Z</time>
      </trkpt>
      <trkpt lat="46.9983" lon="8.86851">
        <ele>1539</ele>
        <time>2021-08-03T11:53:43.903Z</time>
      </trkpt>
      <trkpt lat="46.99825" lon="8.86857">
        <ele>1541</ele>
        <time>2021-08-03T11:53:44.904Z</time>
      </trkpt>
      <trkpt lat="46.99826" lon="8.86857">
        <ele>1541</ele>
        <time>2021-08-03T11:53:45.904Z</time>
      </trkpt>
      <trkpt lat="46.99826" lon="8.86857">
        <ele>1541</ele>
        <time>2021-08-03T11:53:46.903Z</time>
      </trkpt>
      <trkpt lat="46.99826" lon="8.86857">
        <ele>1541</ele>
        <time>2021-08-03T11:53:47.904Z</time>
      </trkpt>
      <trkpt lat="46.99826" lon="8.86857">
        <ele>1542</ele>
        <time>2021-08-03T11:53:48.903Z</time>
      </trkpt>
      <trkpt lat="46.99831" lon="8.86848">
        <ele>1547</ele>
        <time>2021-08-03T11:53:49.904Z</time>
      </trkpt>
      <trkpt lat="46.99831" lon="8.86848">
        <ele>1548</ele>
        <time>2021-08-03T11:53:50.903Z</time>
      </trkpt>
      <trkpt lat="46.99831" lon="8.86848">
        <ele>1548</ele>
        <time>2021-08-03T11:53:51.903Z</time>
      </trkpt>
      <trkpt lat="46.99831" lon="8.86847">
        <ele>1549</ele>
        <time>2021-08-03T11:53:52.903Z</time>
      </trkpt>
      <trkpt lat="46.99831" lon="8.86846">
        <ele>1549</ele>
        <time>2021-08-03T11:53:53.903Z</time>
      </trkpt>
      <trkpt lat="46.99832" lon="8.86844">
        <ele>1550</ele>
        <time>2021-08-03T11:53:54.904Z</time>
      </trkpt>
      <trkpt lat="46.99831" lon="8.86845">
        <ele>1551</ele>
        <time>2021-08-03T11:53:55.904Z</time>
      </trkpt>
      <trkpt lat="46.99831" lon="8.86845">
        <ele>1552</ele>
        <time>2021-08-03T11:53:56.904Z</time>
      </trkpt>
      <trkpt lat="46.99831" lon="8.86846">
        <ele>1552</ele>
        <time>2021-08-03T11:53:57.904Z</time>
      </trkpt>
      <trkpt lat="46.9983" lon="8.86846">
        <ele>1552</ele>
        <time>2021-08-03T11:53:58.904Z</time>
      </trkpt>
      <trkpt lat="46.99829" lon="8.86849">
        <ele>1553</ele>
        <time>2021-08-03T11:53:59.903Z</time>
      </trkpt>
      <trkpt lat="46.99829" lon="8.86849">
        <ele>1553</ele>
        <time>2021-08-03T11:54:00.903Z</time>
      </trkpt>
      <trkpt lat="46.99829" lon="8.86848">
        <ele>1553</ele>
        <time>2021-08-03T11:54:01.903Z</time>
      </trkpt>
      <trkpt lat="46.99829" lon="8.86847">
        <ele>1553</ele>
        <time>2021-08-03T11:54:02.904Z</time>
      </trkpt>
      <trkpt lat="46.99829" lon="8.86848">
        <ele>1552</ele>
        <time>2021-08-03T11:54:03.903Z</time>
      </trkpt>
      <trkpt lat="46.9983" lon="8.86849">
        <ele>1552</ele>
        <time>2021-08-03T11:54:04.904Z</time>
      </trkpt>
      <trkpt lat="46.99829" lon="8.86851">
        <ele>1551</ele>
        <time>2021-08-03T11:54:05.905Z</time>
      </trkpt>
      <trkpt lat="46.99829" lon="8.86851">
        <ele>1550</ele>
        <time>2021-08-03T11:54:06.904Z</time>
      </trkpt>
      <trkpt lat="46.99829" lon="8.86852">
        <ele>1549</ele>
        <time>2021-08-03T11:54:07.904Z</time>
      </trkpt>
      <trkpt lat="46.99829" lon="8.86852">
        <ele>1548</ele>
        <time>2021-08-03T11:54:08.904Z</time>
      </trkpt>
      <trkpt lat="46.99828" lon="8.86853">
        <ele>1547</ele>
        <time>2021-08-03T11:54:09.905Z</time>
      </trkpt>
      <trkpt lat="46.99828" lon="8.86853">
        <ele>1547</ele>
        <time>2021-08-03T11:54:10.906Z</time>
      </trkpt>
      <trkpt lat="46.99829" lon="8.86851">
        <ele>1548</ele>
        <time>2021-08-03T11:54:11.907Z</time>
      </trkpt>
      <trkpt lat="46.9983" lon="8.86849">
        <ele>1548</ele>
        <time>2021-08-03T11:54:12.906Z</time>
      </trkpt>
      <trkpt lat="46.9983" lon="8.86848">
        <ele>1548</ele>
        <time>2021-08-03T11:54:13.906Z</time>
      </trkpt>
      <trkpt lat="46.9983" lon="8.86848">
        <ele>1548</ele>
        <time>2021-08-03T11:54:14.906Z</time>
      </trkpt>
      <trkpt lat="46.9983" lon="8.86848">
        <ele>1549</ele>
        <time>2021-08-03T11:54:15.906Z</time>
      </trkpt>
      <trkpt lat="46.9983" lon="8.86849">
        <ele>1548</ele>
        <time>2021-08-03T11:54:16.907Z</time>
      </trkpt>
      <trkpt lat="46.9983" lon="8.86849">
        <ele>1548</ele>
        <time>2021-08-03T11:54:17.906Z</time>
      </trkpt>
      <trkpt lat="46.99831" lon="8.86849">
        <ele>1548</ele>
        <time>2021-08-03T11:54:18.906Z</time>
      </trkpt>
      <trkpt lat="46.9983" lon="8.86849">
        <ele>1548</ele>
        <time>2021-08-03T11:54:19.907Z</time>
      </trkpt>
      <trkpt lat="46.9983" lon="8.86849">
        <ele>1548</ele>
        <time>2021-08-03T11:54:20.907Z</time>
      </trkpt>
      <trkpt lat="46.99828" lon="8.86848">
        <ele>1549</ele>
        <time>2021-08-03T11:54:21.907Z</time>
      </trkpt>
      <trkpt lat="46.99829" lon="8.86848">
        <ele>1548</ele>
        <time>2021-08-03T11:54:22.907Z</time>
      </trkpt>
      <trkpt lat="46.99829" lon="8.86847">
        <ele>1548</ele>
        <time>2021-08-03T11:54:23.907Z</time>
      </trkpt>
      <trkpt lat="46.99829" lon="8.86848">
        <ele>1548</ele>
        <time>2021-08-03T11:54:24.906Z</time>
      </trkpt>
      <trkpt lat="46.99829" lon="8.86848">
        <ele>1548</ele>
        <time>2021-08-03T11:54:25.906Z</time>
      </trkpt>
      <trkpt lat="46.99828" lon="8.86848">
        <ele>1548</ele>
        <time>2021-08-03T11:54:26.906Z</time>
      </trkpt>
      <trkpt lat="46.99828" lon="8.86847">
        <ele>1548</ele>
        <time>2021-08-03T11:54:27.907Z</time>
      </trkpt>
      <trkpt lat="46.99828" lon="8.86847">
        <ele>1548</ele>
        <time>2021-08-03T11:54:28.906Z</time>
      </trkpt>
      <trkpt lat="46.99828" lon="8.86846">
        <ele>1548</ele>
        <time>2021-08-03T11:54:29.907Z</time>
      </trkpt>
      <trkpt lat="46.99828" lon="8.86846">
        <ele>1548</ele>
        <time>2021-08-03T11:54:30.907Z</time>
      </trkpt>
      <trkpt lat="46.99828" lon="8.86847">
        <ele>1548</ele>
        <time>2021-08-03T11:54:31.907Z</time>
      </trkpt>
      <trkpt lat="46.99828" lon="8.86846">
        <ele>1548</ele>
        <time>2021-08-03T11:54:32.906Z</time>
      </trkpt>
      <trkpt lat="46.99828" lon="8.86845">
        <ele>1548</ele>
        <time>2021-08-03T11:54:33.907Z</time>
      </trkpt>
      <trkpt lat="46.99828" lon="8.86846">
        <ele>1548</ele>
        <time>2021-08-03T11:54:34.906Z</time>
      </trkpt>
      <trkpt lat="46.99827" lon="8.86846">
        <ele>1548</ele>
        <time>2021-08-03T11:54:35.906Z</time>
      </trkpt>
      <trkpt lat="46.99827" lon="8.86846">
        <ele>1548</ele>
        <time>2021-08-03T11:54:36.906Z</time>
      </trkpt>
      <trkpt lat="46.99827" lon="8.86847">
        <ele>1548</ele>
        <time>2021-08-03T11:54:37.906Z</time>
      </trkpt>
      <trkpt lat="46.99826" lon="8.86847">
        <ele>1548</ele>
        <time>2021-08-03T11:54:38.907Z</time>
      </trkpt>
      <trkpt lat="46.99826" lon="8.86847">
        <ele>1548</ele>
        <time>2021-08-03T11:54:39.907Z</time>
      </trkpt>
      <trkpt lat="46.99826" lon="8.86847">
        <ele>1548</ele>
        <time>2021-08-03T11:54:40.906Z</time>
      </trkpt>
      <trkpt lat="46.99826" lon="8.86846">
        <ele>1548</ele>
        <time>2021-08-03T11:54:41.907Z</time>
      </trkpt>
      <trkpt lat="46.99827" lon="8.86846">
        <ele>1548</ele>
        <time>2021-08-03T11:54:42.907Z</time>
      </trkpt>
      <trkpt lat="46.99828" lon="8.86846">
        <ele>1548</ele>
        <time>2021-08-03T11:54:43.907Z</time>
      </trkpt>
      <trkpt lat="46.99828" lon="8.86847">
        <ele>1548</ele>
        <time>2021-08-03T11:54:44.907Z</time>
      </trkpt>
      <trkpt lat="46.99828" lon="8.86847">
        <ele>1548</ele>
        <time>2021-08-03T11:54:45.906Z</time>
      </trkpt>
      <trkpt lat="46.99827" lon="8.86849">
        <ele>1548</ele>
        <time>2021-08-03T11:54:46.907Z</time>
      </trkpt>
      <trkpt lat="46.99827" lon="8.8685">
        <ele>1548</ele>
        <time>2021-08-03T11:54:47.907Z</time>
      </trkpt>
      <trkpt lat="46.99827" lon="8.86851">
        <ele>1548</ele>
        <time>2021-08-03T11:54:48.907Z</time>
      </trkpt>
      <trkpt lat="46.99826" lon="8.86852">
        <ele>1548</ele>
        <time>2021-08-03T11:54:49.906Z</time>
      </trkpt>
      <trkpt lat="46.99826" lon="8.86852">
        <ele>1548</ele>
        <time>2021-08-03T11:54:50.906Z</time>
      </trkpt>
      <trkpt lat="46.99826" lon="8.86852">
        <ele>1548</ele>
        <time>2021-08-03T11:54:51.906Z</time>
      </trkpt>
      <trkpt lat="46.99825" lon="8.86852">
        <ele>1548</ele>
        <time>2021-08-03T11:54:52.907Z</time>
      </trkpt>
      <trkpt lat="46.99825" lon="8.86852">
        <ele>1547</ele>
        <time>2021-08-03T11:54:53.906Z</time>
      </trkpt>
      <trkpt lat="46.99825" lon="8.86852">
        <ele>1547</ele>
        <time>2021-08-03T11:54:54.907Z</time>
      </trkpt>
      <trkpt lat="46.99824" lon="8.86852">
        <ele>1545</ele>
        <time>2021-08-03T11:54:55.907Z</time>
      </trkpt>
      <trkpt lat="46.99824" lon="8.86852">
        <ele>1545</ele>
        <time>2021-08-03T11:54:56.907Z</time>
      </trkpt>
      <trkpt lat="46.99822" lon="8.86851">
        <ele>1543</ele>
        <time>2021-08-03T11:54:57.907Z</time>
      </trkpt>
      <trkpt lat="46.99822" lon="8.86851">
        <ele>1543</ele>
        <time>2021-08-03T11:54:58.907Z</time>
      </trkpt>
      <trkpt lat="46.99822" lon="8.86852">
        <ele>1542</ele>
        <time>2021-08-03T11:54:59.908Z</time>
      </trkpt>
      <trkpt lat="46.99822" lon="8.86851">
        <ele>1542</ele>
        <time>2021-08-03T11:55:00.909Z</time>
      </trkpt>
      <trkpt lat="46.99822" lon="8.86851">
        <ele>1543</ele>
        <time>2021-08-03T11:55:01.908Z</time>
      </trkpt>
      <trkpt lat="46.99823" lon="8.86852">
        <ele>1543</ele>
        <time>2021-08-03T11:55:02.908Z</time>
      </trkpt>
      <trkpt lat="46.99825" lon="8.8685">
        <ele>1545</ele>
        <time>2021-08-03T11:55:03.909Z</time>
      </trkpt>
      <trkpt lat="46.99825" lon="8.8685">
        <ele>1546</ele>
        <time>2021-08-03T11:55:04.909Z</time>
      </trkpt>
      <trkpt lat="46.99825" lon="8.8685">
        <ele>1546</ele>
        <time>2021-08-03T11:55:05.908Z</time>
      </trkpt>
      <trkpt lat="46.99825" lon="8.86849">
        <ele>1546</ele>
        <time>2021-08-03T11:55:06.908Z</time>
      </trkpt>
      <trkpt lat="46.99825" lon="8.86849">
        <ele>1546</ele>
        <time>2021-08-03T11:55:07.909Z</time>
      </trkpt>
      <trkpt lat="46.99823" lon="8.86848">
        <ele>1546</ele>
        <time>2021-08-03T11:55:08.909Z</time>
      </trkpt>
      <trkpt lat="46.99823" lon="8.86849">
        <ele>1546</ele>
        <time>2021-08-03T11:55:09.909Z</time>
      </trkpt>
      <trkpt lat="46.99823" lon="8.8685">
        <ele>1547</ele>
        <time>2021-08-03T11:55:10.909Z</time>
      </trkpt>
      <trkpt lat="46.99824" lon="8.86848">
        <ele>1548</ele>
        <time>2021-08-03T11:55:11.908Z</time>
      </trkpt>
      <trkpt lat="46.99825" lon="8.86845">
        <ele>1548</ele>
        <time>2021-08-03T11:55:12.908Z</time>
      </trkpt>
      <trkpt lat="46.99826" lon="8.86844">
        <ele>1548</ele>
        <time>2021-08-03T11:55:13.909Z</time>
      </trkpt>
      <trkpt lat="46.99826" lon="8.86843">
        <ele>1547</ele>
        <time>2021-08-03T11:55:14.908Z</time>
      </trkpt>
      <trkpt lat="46.99823" lon="8.86844">
        <ele>1547</ele>
        <time>2021-08-03T11:55:15.909Z</time>
      </trkpt>
      <trkpt lat="46.99823" lon="8.86845">
        <ele>1548</ele>
        <time>2021-08-03T11:55:16.908Z</time>
      </trkpt>
      <trkpt lat="46.99823" lon="8.86845">
        <ele>1548</ele>
        <time>2021-08-03T11:55:17.908Z</time>
      </trkpt>
      <trkpt lat="46.99823" lon="8.86844">
        <ele>1549</ele>
        <time>2021-08-03T11:55:18.908Z</time>
      </trkpt>
      <trkpt lat="46.99823" lon="8.86844">
        <ele>1549</ele>
        <time>2021-08-03T11:55:19.908Z</time>
      </trkpt>
      <trkpt lat="46.99824" lon="8.86843">
        <ele>1548</ele>
        <time>2021-08-03T11:55:20.908Z</time>
      </trkpt>
      <trkpt lat="46.99824" lon="8.86843">
        <ele>1547</ele>
        <time>2021-08-03T11:55:21.909Z</time>
      </trkpt>
      <trkpt lat="46.99825" lon="8.86843">
        <ele>1547</ele>
        <time>2021-08-03T11:55:22.908Z</time>
      </trkpt>
      <trkpt lat="46.99825" lon="8.8684">
        <ele>1540</ele>
        <time>2021-08-03T11:55:23.909Z</time>
      </trkpt>
      <trkpt lat="46.99825" lon="8.8684">
        <ele>1540</ele>
        <time>2021-08-03T11:55:24.908Z</time>
      </trkpt>
      <trkpt lat="46.99828" lon="8.86839">
        <ele>1541</ele>
        <time>2021-08-03T11:55:25.908Z</time>
      </trkpt>
      <trkpt lat="46.99828" lon="8.8684">
        <ele>1542</ele>
        <time>2021-08-03T11:55:26.908Z</time>
      </trkpt>
      <trkpt lat="46.99828" lon="8.8684">
        <ele>1543</ele>
        <time>2021-08-03T11:55:27.908Z</time>
      </trkpt>
      <trkpt lat="46.99829" lon="8.8684">
        <ele>1546</ele>
        <time>2021-08-03T11:55:28.908Z</time>
      </trkpt>
      <trkpt lat="46.99829" lon="8.86841">
        <ele>1546</ele>
        <time>2021-08-03T11:55:29.908Z</time>
      </trkpt>
      <trkpt lat="46.99828" lon="8.86842">
        <ele>1547</ele>
        <time>2021-08-03T11:55:30.908Z</time>
      </trkpt>
      <trkpt lat="46.99829" lon="8.86841">
        <ele>1547</ele>
        <time>2021-08-03T11:55:31.910Z</time>
      </trkpt>
      <trkpt lat="46.99829" lon="8.86841">
        <ele>1547</ele>
        <time>2021-08-03T11:55:32.910Z</time>
      </trkpt>
      <trkpt lat="46.99828" lon="8.86841">
        <ele>1547</ele>
        <time>2021-08-03T11:55:33.910Z</time>
      </trkpt>
      <trkpt lat="46.99828" lon="8.8684">
        <ele>1548</ele>
        <time>2021-08-03T11:55:34.909Z</time>
      </trkpt>
      <trkpt lat="46.99828" lon="8.8684">
        <ele>1548</ele>
        <time>2021-08-03T11:55:35.909Z</time>
      </trkpt>
      <trkpt lat="46.99828" lon="8.86841">
        <ele>1549</ele>
        <time>2021-08-03T11:55:36.910Z</time>
      </trkpt>
      <trkpt lat="46.99828" lon="8.86841">
        <ele>1549</ele>
        <time>2021-08-03T11:55:37.909Z</time>
      </trkpt>
      <trkpt lat="46.99828" lon="8.86841">
        <ele>1550</ele>
        <time>2021-08-03T11:55:38.909Z</time>
      </trkpt>
      <trkpt lat="46.99829" lon="8.86841">
        <ele>1550</ele>
        <time>2021-08-03T11:55:39.909Z</time>
      </trkpt>
      <trkpt lat="46.99829" lon="8.8684">
        <ele>1550</ele>
        <time>2021-08-03T11:55:40.910Z</time>
      </trkpt>
      <trkpt lat="46.99829" lon="8.86839">
        <ele>1549</ele>
        <time>2021-08-03T11:55:41.910Z</time>
      </trkpt>
      <trkpt lat="46.9983" lon="8.86837">
        <ele>1548</ele>
        <time>2021-08-03T11:55:42.909Z</time>
      </trkpt>
      <trkpt lat="46.9983" lon="8.86835">
        <ele>1547</ele>
        <time>2021-08-03T11:55:43.909Z</time>
      </trkpt>
      <trkpt lat="46.9983" lon="8.86834">
        <ele>1547</ele>
        <time>2021-08-03T11:55:44.909Z</time>
      </trkpt>
      <trkpt lat="46.9983" lon="8.86835">
        <ele>1546</ele>
        <time>2021-08-03T11:55:45.909Z</time>
      </trkpt>
      <trkpt lat="46.9983" lon="8.86836">
        <ele>1545</ele>
        <time>2021-08-03T11:55:46.910Z</time>
      </trkpt>
      <trkpt lat="46.9983" lon="8.86836">
        <ele>1544</ele>
        <time>2021-08-03T11:55:47.910Z</time>
      </trkpt>
      <trkpt lat="46.99831" lon="8.86834">
        <ele>1540</ele>
        <time>2021-08-03T11:55:48.910Z</time>
      </trkpt>
      <trkpt lat="46.99829" lon="8.86833">
        <ele>1538</ele>
        <time>2021-08-03T11:55:49.911Z</time>
      </trkpt>
      <trkpt lat="46.99829" lon="8.86833">
        <ele>1537</ele>
        <time>2021-08-03T11:55:50.911Z</time>
      </trkpt>
      <trkpt lat="46.99828" lon="8.86831">
        <ele>1537</ele>
        <time>2021-08-03T11:55:51.912Z</time>
      </trkpt>
      <trkpt lat="46.99827" lon="8.8683">
        <ele>1536</ele>
        <time>2021-08-03T11:55:52.911Z</time>
      </trkpt>
      <trkpt lat="46.99827" lon="8.86829">
        <ele>1536</ele>
        <time>2021-08-03T11:55:53.911Z</time>
      </trkpt>
      <trkpt lat="46.99826" lon="8.86828">
        <ele>1535</ele>
        <time>2021-08-03T11:55:54.911Z</time>
      </trkpt>
      <trkpt lat="46.99826" lon="8.86827">
        <ele>1535</ele>
        <time>2021-08-03T11:55:55.912Z</time>
      </trkpt>
      <trkpt lat="46.99825" lon="8.86826">
        <ele>1534</ele>
        <time>2021-08-03T11:55:56.912Z</time>
      </trkpt>
      <trkpt lat="46.99824" lon="8.86826">
        <ele>1534</ele>
        <time>2021-08-03T11:55:57.911Z</time>
      </trkpt>
      <trkpt lat="46.99823" lon="8.86826">
        <ele>1534</ele>
        <time>2021-08-03T11:55:58.911Z</time>
      </trkpt>
      <trkpt lat="46.99822" lon="8.86826">
        <ele>1535</ele>
        <time>2021-08-03T11:55:59.912Z</time>
      </trkpt>
      <trkpt lat="46.99821" lon="8.86825">
        <ele>1535</ele>
        <time>2021-08-03T11:56:00.912Z</time>
      </trkpt>
      <trkpt lat="46.99821" lon="8.86823">
        <ele>1536</ele>
        <time>2021-08-03T11:56:01.912Z</time>
      </trkpt>
      <trkpt lat="46.9982" lon="8.86823">
        <ele>1536</ele>
        <time>2021-08-03T11:56:02.911Z</time>
      </trkpt>
      <trkpt lat="46.99819" lon="8.86821">
        <ele>1536</ele>
        <time>2021-08-03T11:56:03.912Z</time>
      </trkpt>
      <trkpt lat="46.99818" lon="8.86819">
        <ele>1537</ele>
        <time>2021-08-03T11:56:04.912Z</time>
      </trkpt>
      <trkpt lat="46.99818" lon="8.86818">
        <ele>1537</ele>
        <time>2021-08-03T11:56:05.912Z</time>
      </trkpt>
      <trkpt lat="46.99817" lon="8.86817">
        <ele>1537</ele>
        <time>2021-08-03T11:56:06.912Z</time>
      </trkpt>
      <trkpt lat="46.99816" lon="8.86817">
        <ele>1536</ele>
        <time>2021-08-03T11:56:07.911Z</time>
      </trkpt>
      <trkpt lat="46.99815" lon="8.86815">
        <ele>1536</ele>
        <time>2021-08-03T11:56:08.912Z</time>
      </trkpt>
      <trkpt lat="46.99815" lon="8.86813">
        <ele>1536</ele>
        <time>2021-08-03T11:56:09.912Z</time>
      </trkpt>
      <trkpt lat="46.99814" lon="8.86812">
        <ele>1536</ele>
        <time>2021-08-03T11:56:10.912Z</time>
      </trkpt>
      <trkpt lat="46.99814" lon="8.86811">
        <ele>1536</ele>
        <time>2021-08-03T11:56:11.912Z</time>
      </trkpt>
      <trkpt lat="46.99813" lon="8.86809">
        <ele>1536</ele>
        <time>2021-08-03T11:56:12.912Z</time>
      </trkpt>
      <trkpt lat="46.99813" lon="8.86809">
        <ele>1536</ele>
        <time>2021-08-03T11:56:13.912Z</time>
      </trkpt>
      <trkpt lat="46.99812" lon="8.86808">
        <ele>1536</ele>
        <time>2021-08-03T11:56:14.912Z</time>
      </trkpt>
      <trkpt lat="46.99811" lon="8.86807">
        <ele>1536</ele>
        <time>2021-08-03T11:56:15.912Z</time>
      </trkpt>
      <trkpt lat="46.99809" lon="8.86808">
        <ele>1537</ele>
        <time>2021-08-03T11:56:16.912Z</time>
      </trkpt>
      <trkpt lat="46.99808" lon="8.86807">
        <ele>1538</ele>
        <time>2021-08-03T11:56:17.912Z</time>
      </trkpt>
      <trkpt lat="46.99808" lon="8.86808">
        <ele>1539</ele>
        <time>2021-08-03T11:56:18.912Z</time>
      </trkpt>
      <trkpt lat="46.99811" lon="8.86812">
        <ele>1539</ele>
        <time>2021-08-03T11:56:19.912Z</time>
      </trkpt>
      <trkpt lat="46.99811" lon="8.8681">
        <ele>1536</ele>
        <time>2021-08-03T11:56:20.914Z</time>
      </trkpt>
      <trkpt lat="46.9981" lon="8.86809">
        <ele>1537</ele>
        <time>2021-08-03T11:56:21.913Z</time>
      </trkpt>
      <trkpt lat="46.9981" lon="8.86807">
        <ele>1537</ele>
        <time>2021-08-03T11:56:22.914Z</time>
      </trkpt>
      <trkpt lat="46.9981" lon="8.86806">
        <ele>1537</ele>
        <time>2021-08-03T11:56:23.913Z</time>
      </trkpt>
      <trkpt lat="46.99809" lon="8.86804">
        <ele>1537</ele>
        <time>2021-08-03T11:56:24.914Z</time>
      </trkpt>
      <trkpt lat="46.99808" lon="8.86803">
        <ele>1537</ele>
        <time>2021-08-03T11:56:25.914Z</time>
      </trkpt>
      <trkpt lat="46.99808" lon="8.86802">
        <ele>1537</ele>
        <time>2021-08-03T11:56:26.914Z</time>
      </trkpt>
      <trkpt lat="46.99807" lon="8.868">
        <ele>1537</ele>
        <time>2021-08-03T11:56:27.913Z</time>
      </trkpt>
      <trkpt lat="46.99806" lon="8.86799">
        <ele>1537</ele>
        <time>2021-08-03T11:56:28.914Z</time>
      </trkpt>
      <trkpt lat="46.99805" lon="8.86799">
        <ele>1537</ele>
        <time>2021-08-03T11:56:29.914Z</time>
      </trkpt>
      <trkpt lat="46.99805" lon="8.868">
        <ele>1537</ele>
        <time>2021-08-03T11:56:30.914Z</time>
      </trkpt>
      <trkpt lat="46.99805" lon="8.868">
        <ele>1537</ele>
        <time>2021-08-03T11:56:31.913Z</time>
      </trkpt>
      <trkpt lat="46.99805" lon="8.86799">
        <ele>1533</ele>
        <time>2021-08-03T11:56:32.914Z</time>
      </trkpt>
      <trkpt lat="46.99804" lon="8.86798">
        <ele>1533</ele>
        <time>2021-08-03T11:56:33.915Z</time>
      </trkpt>
      <trkpt lat="46.99803" lon="8.86797">
        <ele>1533</ele>
        <time>2021-08-03T11:56:34.915Z</time>
      </trkpt>
      <trkpt lat="46.99802" lon="8.86797">
        <ele>1533</ele>
        <time>2021-08-03T11:56:35.914Z</time>
      </trkpt>
      <trkpt lat="46.99802" lon="8.86797">
        <ele>1533</ele>
        <time>2021-08-03T11:56:36.914Z</time>
      </trkpt>
      <trkpt lat="46.99801" lon="8.86797">
        <ele>1533</ele>
        <time>2021-08-03T11:56:37.914Z</time>
      </trkpt>
      <trkpt lat="46.99801" lon="8.86796">
        <ele>1533</ele>
        <time>2021-08-03T11:56:38.914Z</time>
      </trkpt>
      <trkpt lat="46.99801" lon="8.86796">
        <ele>1534</ele>
        <time>2021-08-03T11:56:39.914Z</time>
      </trkpt>
      <trkpt lat="46.99801" lon="8.86796">
        <ele>1534</ele>
        <time>2021-08-03T11:56:40.915Z</time>
      </trkpt>
      <trkpt lat="46.998" lon="8.86795">
        <ele>1539</ele>
        <time>2021-08-03T11:56:41.916Z</time>
      </trkpt>
      <trkpt lat="46.99799" lon="8.86795">
        <ele>1540</ele>
        <time>2021-08-03T11:56:42.916Z</time>
      </trkpt>
      <trkpt lat="46.99799" lon="8.86794">
        <ele>1540</ele>
        <time>2021-08-03T11:56:43.917Z</time>
      </trkpt>
      <trkpt lat="46.99798" lon="8.86793">
        <ele>1541</ele>
        <time>2021-08-03T11:56:44.916Z</time>
      </trkpt>
      <trkpt lat="46.99797" lon="8.86792">
        <ele>1541</ele>
        <time>2021-08-03T11:56:45.916Z</time>
      </trkpt>
      <trkpt lat="46.99797" lon="8.86791">
        <ele>1542</ele>
        <time>2021-08-03T11:56:46.916Z</time>
      </trkpt>
      <trkpt lat="46.99797" lon="8.8679">
        <ele>1542</ele>
        <time>2021-08-03T11:56:47.916Z</time>
      </trkpt>
      <trkpt lat="46.99796" lon="8.86789">
        <ele>1543</ele>
        <time>2021-08-03T11:56:48.916Z</time>
      </trkpt>
      <trkpt lat="46.99796" lon="8.86787">
        <ele>1543</ele>
        <time>2021-08-03T11:56:49.916Z</time>
      </trkpt>
      <trkpt lat="46.99795" lon="8.86786">
        <ele>1543</ele>
        <time>2021-08-03T11:56:50.916Z</time>
      </trkpt>
      <trkpt lat="46.99794" lon="8.86785">
        <ele>1543</ele>
        <time>2021-08-03T11:56:51.916Z</time>
      </trkpt>
      <trkpt lat="46.99793" lon="8.86784">
        <ele>1544</ele>
        <time>2021-08-03T11:56:52.916Z</time>
      </trkpt>
      <trkpt lat="46.99793" lon="8.86783">
        <ele>1544</ele>
        <time>2021-08-03T11:56:53.916Z</time>
      </trkpt>
      <trkpt lat="46.99792" lon="8.86782">
        <ele>1544</ele>
        <time>2021-08-03T11:56:54.916Z</time>
      </trkpt>
      <trkpt lat="46.99791" lon="8.86781">
        <ele>1544</ele>
        <time>2021-08-03T11:56:55.917Z</time>
      </trkpt>
      <trkpt lat="46.99791" lon="8.8678">
        <ele>1544</ele>
        <time>2021-08-03T11:56:56.916Z</time>
      </trkpt>
      <trkpt lat="46.9979" lon="8.86778">
        <ele>1544</ele>
        <time>2021-08-03T11:56:57.916Z</time>
      </trkpt>
      <trkpt lat="46.9979" lon="8.86776">
        <ele>1544</ele>
        <time>2021-08-03T11:56:58.916Z</time>
      </trkpt>
      <trkpt lat="46.99789" lon="8.86775">
        <ele>1544</ele>
        <time>2021-08-03T11:56:59.916Z</time>
      </trkpt>
      <trkpt lat="46.99788" lon="8.86774">
        <ele>1544</ele>
        <time>2021-08-03T11:57:00.917Z</time>
      </trkpt>
      <trkpt lat="46.99788" lon="8.86773">
        <ele>1544</ele>
        <time>2021-08-03T11:57:01.916Z</time>
      </trkpt>
      <trkpt lat="46.99787" lon="8.86773">
        <ele>1543</ele>
        <time>2021-08-03T11:57:02.917Z</time>
      </trkpt>
      <trkpt lat="46.99786" lon="8.86771">
        <ele>1543</ele>
        <time>2021-08-03T11:57:03.916Z</time>
      </trkpt>
      <trkpt lat="46.99786" lon="8.8677">
        <ele>1543</ele>
        <time>2021-08-03T11:57:04.917Z</time>
      </trkpt>
      <trkpt lat="46.99785" lon="8.8677">
        <ele>1543</ele>
        <time>2021-08-03T11:57:05.916Z</time>
      </trkpt>
      <trkpt lat="46.99784" lon="8.86769">
        <ele>1543</ele>
        <time>2021-08-03T11:57:06.917Z</time>
      </trkpt>
      <trkpt lat="46.99783" lon="8.86768">
        <ele>1544</ele>
        <time>2021-08-03T11:57:07.916Z</time>
      </trkpt>
      <trkpt lat="46.99783" lon="8.86766">
        <ele>1544</ele>
        <time>2021-08-03T11:57:08.916Z</time>
      </trkpt>
      <trkpt lat="46.99782" lon="8.86765">
        <ele>1544</ele>
        <time>2021-08-03T11:57:09.916Z</time>
      </trkpt>
      <trkpt lat="46.99781" lon="8.86764">
        <ele>1544</ele>
        <time>2021-08-03T11:57:10.916Z</time>
      </trkpt>
      <trkpt lat="46.9978" lon="8.86763">
        <ele>1544</ele>
        <time>2021-08-03T11:57:11.916Z</time>
      </trkpt>
      <trkpt lat="46.9978" lon="8.86761">
        <ele>1544</ele>
        <time>2021-08-03T11:57:12.916Z</time>
      </trkpt>
      <trkpt lat="46.99779" lon="8.8676">
        <ele>1543</ele>
        <time>2021-08-03T11:57:13.916Z</time>
      </trkpt>
      <trkpt lat="46.99779" lon="8.86759">
        <ele>1543</ele>
        <time>2021-08-03T11:57:18.046Z</time>
      </trkpt>
      <trkpt lat="46.99778" lon="8.86758">
        <ele>1543</ele>
        <time>2021-08-03T11:57:19.046Z</time>
      </trkpt>
      <trkpt lat="46.99778" lon="8.86757">
        <ele>1542</ele>
        <time>2021-08-03T11:57:20.045Z</time>
      </trkpt>
      <trkpt lat="46.99777" lon="8.86755">
        <ele>1542</ele>
        <time>2021-08-03T11:57:21.045Z</time>
      </trkpt>
      <trkpt lat="46.99777" lon="8.86753">
        <ele>1542</ele>
        <time>2021-08-03T11:57:22.045Z</time>
      </trkpt>
      <trkpt lat="46.99776" lon="8.86752">
        <ele>1542</ele>
        <time>2021-08-03T11:57:23.045Z</time>
      </trkpt>
      <trkpt lat="46.99775" lon="8.86751">
        <ele>1541</ele>
        <time>2021-08-03T11:57:24.046Z</time>
      </trkpt>
      <trkpt lat="46.99775" lon="8.8675">
        <ele>1541</ele>
        <time>2021-08-03T11:57:25.045Z</time>
      </trkpt>
      <trkpt lat="46.99774" lon="8.86749">
        <ele>1541</ele>
        <time>2021-08-03T11:57:26.046Z</time>
      </trkpt>
      <trkpt lat="46.99773" lon="8.86748">
        <ele>1541</ele>
        <time>2021-08-03T11:57:27.045Z</time>
      </trkpt>
      <trkpt lat="46.99773" lon="8.86747">
        <ele>1541</ele>
        <time>2021-08-03T11:57:28.046Z</time>
      </trkpt>
      <trkpt lat="46.99772" lon="8.86746">
        <ele>1541</ele>
        <time>2021-08-03T11:57:29.046Z</time>
      </trkpt>
      <trkpt lat="46.99772" lon="8.86745">
        <ele>1541</ele>
        <time>2021-08-03T11:57:30.045Z</time>
      </trkpt>
      <trkpt lat="46.99771" lon="8.86745">
        <ele>1541</ele>
        <time>2021-08-03T11:57:31.046Z</time>
      </trkpt>
      <trkpt lat="46.9977" lon="8.86745">
        <ele>1541</ele>
        <time>2021-08-03T11:57:32.045Z</time>
      </trkpt>
      <trkpt lat="46.99769" lon="8.86744">
        <ele>1542</ele>
        <time>2021-08-03T11:57:33.045Z</time>
      </trkpt>
      <trkpt lat="46.99768" lon="8.86743">
        <ele>1542</ele>
        <time>2021-08-03T11:57:34.045Z</time>
      </trkpt>
      <trkpt lat="46.99767" lon="8.86742">
        <ele>1541</ele>
        <time>2021-08-03T11:57:35.046Z</time>
      </trkpt>
      <trkpt lat="46.99767" lon="8.86741">
        <ele>1541</ele>
        <time>2021-08-03T11:57:36.046Z</time>
      </trkpt>
      <trkpt lat="46.99766" lon="8.86741">
        <ele>1540</ele>
        <time>2021-08-03T11:57:37.046Z</time>
      </trkpt>
      <trkpt lat="46.99765" lon="8.8674">
        <ele>1540</ele>
        <time>2021-08-03T11:57:38.046Z</time>
      </trkpt>
      <trkpt lat="46.99764" lon="8.8674">
        <ele>1540</ele>
        <time>2021-08-03T11:57:39.045Z</time>
      </trkpt>
      <trkpt lat="46.99763" lon="8.86739">
        <ele>1539</ele>
        <time>2021-08-03T11:57:40.045Z</time>
      </trkpt>
      <trkpt lat="46.99762" lon="8.86738">
        <ele>1539</ele>
        <time>2021-08-03T11:57:41.045Z</time>
      </trkpt>
      <trkpt lat="46.99762" lon="8.86737">
        <ele>1538</ele>
        <time>2021-08-03T11:57:42.046Z</time>
      </trkpt>
      <trkpt lat="46.99761" lon="8.86736">
        <ele>1538</ele>
        <time>2021-08-03T11:57:43.045Z</time>
      </trkpt>
      <trkpt lat="46.99761" lon="8.86735">
        <ele>1537</ele>
        <time>2021-08-03T11:57:44.045Z</time>
      </trkpt>
      <trkpt lat="46.9976" lon="8.86734">
        <ele>1537</ele>
        <time>2021-08-03T11:57:45.045Z</time>
      </trkpt>
      <trkpt lat="46.99759" lon="8.86733">
        <ele>1537</ele>
        <time>2021-08-03T11:57:46.045Z</time>
      </trkpt>
      <trkpt lat="46.99759" lon="8.86732">
        <ele>1537</ele>
        <time>2021-08-03T11:57:47.045Z</time>
      </trkpt>
      <trkpt lat="46.99757" lon="8.86732">
        <ele>1537</ele>
        <time>2021-08-03T11:57:48.046Z</time>
      </trkpt>
      <trkpt lat="46.99756" lon="8.86731">
        <ele>1537</ele>
        <time>2021-08-03T11:57:49.045Z</time>
      </trkpt>
      <trkpt lat="46.99755" lon="8.86731">
        <ele>1538</ele>
        <time>2021-08-03T11:57:50.045Z</time>
      </trkpt>
      <trkpt lat="46.99755" lon="8.86731">
        <ele>1539</ele>
        <time>2021-08-03T11:57:51.045Z</time>
      </trkpt>
      <trkpt lat="46.99752" lon="8.86732">
        <ele>1539</ele>
        <time>2021-08-03T11:57:52.045Z</time>
      </trkpt>
      <trkpt lat="46.99752" lon="8.86731">
        <ele>1539</ele>
        <time>2021-08-03T11:57:53.045Z</time>
      </trkpt>
      <trkpt lat="46.99752" lon="8.86729">
        <ele>1540</ele>
        <time>2021-08-03T11:57:54.045Z</time>
      </trkpt>
      <trkpt lat="46.99751" lon="8.86728">
        <ele>1539</ele>
        <time>2021-08-03T11:57:55.045Z</time>
      </trkpt>
      <trkpt lat="46.99751" lon="8.86727">
        <ele>1539</ele>
        <time>2021-08-03T11:57:56.045Z</time>
      </trkpt>
      <trkpt lat="46.9975" lon="8.86726">
        <ele>1539</ele>
        <time>2021-08-03T11:57:57.045Z</time>
      </trkpt>
      <trkpt lat="46.99749" lon="8.86726">
        <ele>1539</ele>
        <time>2021-08-03T11:57:58.045Z</time>
      </trkpt>
      <trkpt lat="46.99748" lon="8.86725">
        <ele>1539</ele>
        <time>2021-08-03T11:57:59.045Z</time>
      </trkpt>
      <trkpt lat="46.99747" lon="8.86724">
        <ele>1539</ele>
        <time>2021-08-03T11:58:00.045Z</time>
      </trkpt>
      <trkpt lat="46.99746" lon="8.86724">
        <ele>1539</ele>
        <time>2021-08-03T11:58:01.045Z</time>
      </trkpt>
      <trkpt lat="46.99746" lon="8.86723">
        <ele>1539</ele>
        <time>2021-08-03T11:58:02.045Z</time>
      </trkpt>
      <trkpt lat="46.99745" lon="8.86721">
        <ele>1539</ele>
        <time>2021-08-03T11:58:03.045Z</time>
      </trkpt>
      <trkpt lat="46.99745" lon="8.86718">
        <ele>1539</ele>
        <time>2021-08-03T11:58:04.045Z</time>
      </trkpt>
      <trkpt lat="46.99744" lon="8.86718">
        <ele>1539</ele>
        <time>2021-08-03T11:58:05.045Z</time>
      </trkpt>
      <trkpt lat="46.99743" lon="8.86717">
        <ele>1539</ele>
        <time>2021-08-03T11:58:06.045Z</time>
      </trkpt>
      <trkpt lat="46.99742" lon="8.86716">
        <ele>1538</ele>
        <time>2021-08-03T11:58:07.045Z</time>
      </trkpt>
      <trkpt lat="46.99741" lon="8.86716">
        <ele>1538</ele>
        <time>2021-08-03T11:58:08.045Z</time>
      </trkpt>
      <trkpt lat="46.99739" lon="8.86715">
        <ele>1538</ele>
        <time>2021-08-03T11:58:09.045Z</time>
      </trkpt>
      <trkpt lat="46.99738" lon="8.86715">
        <ele>1538</ele>
        <time>2021-08-03T11:58:10.045Z</time>
      </trkpt>
      <trkpt lat="46.99737" lon="8.86714">
        <ele>1538</ele>
        <time>2021-08-03T11:58:11.045Z</time>
      </trkpt>
      <trkpt lat="46.99735" lon="8.86714">
        <ele>1538</ele>
        <time>2021-08-03T11:58:12.045Z</time>
      </trkpt>
      <trkpt lat="46.99733" lon="8.86715">
        <ele>1539</ele>
        <time>2021-08-03T11:58:13.045Z</time>
      </trkpt>
      <trkpt lat="46.99732" lon="8.86715">
        <ele>1539</ele>
        <time>2021-08-03T11:58:14.045Z</time>
      </trkpt>
      <trkpt lat="46.9973" lon="8.86715">
        <ele>1539</ele>
        <time>2021-08-03T11:58:15.045Z</time>
      </trkpt>
      <trkpt lat="46.99729" lon="8.86715">
        <ele>1539</ele>
        <time>2021-08-03T11:58:16.045Z</time>
      </trkpt>
      <trkpt lat="46.99727" lon="8.86715">
        <ele>1540</ele>
        <time>2021-08-03T11:58:17.045Z</time>
      </trkpt>
      <trkpt lat="46.99726" lon="8.86716">
        <ele>1540</ele>
        <time>2021-08-03T11:58:18.045Z</time>
      </trkpt>
      <trkpt lat="46.99725" lon="8.86716">
        <ele>1540</ele>
        <time>2021-08-03T11:58:19.045Z</time>
      </trkpt>
      <trkpt lat="46.99723" lon="8.86717">
        <ele>1541</ele>
        <time>2021-08-03T11:58:20.045Z</time>
      </trkpt>
      <trkpt lat="46.99722" lon="8.86718">
        <ele>1541</ele>
        <time>2021-08-03T11:58:21.045Z</time>
      </trkpt>
      <trkpt lat="46.99721" lon="8.86718">
        <ele>1541</ele>
        <time>2021-08-03T11:58:22.046Z</time>
      </trkpt>
      <trkpt lat="46.99719" lon="8.86719">
        <ele>1542</ele>
        <time>2021-08-03T11:58:23.046Z</time>
      </trkpt>
      <trkpt lat="46.99718" lon="8.86719">
        <ele>1542</ele>
        <time>2021-08-03T11:58:24.045Z</time>
      </trkpt>
      <trkpt lat="46.99717" lon="8.86719">
        <ele>1543</ele>
        <time>2021-08-03T11:58:25.046Z</time>
      </trkpt>
      <trkpt lat="46.99716" lon="8.86719">
        <ele>1543</ele>
        <time>2021-08-03T11:58:26.046Z</time>
      </trkpt>
      <trkpt lat="46.99715" lon="8.8672">
        <ele>1543</ele>
        <time>2021-08-03T11:58:27.045Z</time>
      </trkpt>
      <trkpt lat="46.99713" lon="8.8672">
        <ele>1543</ele>
        <time>2021-08-03T11:58:28.046Z</time>
      </trkpt>
      <trkpt lat="46.99712" lon="8.86721">
        <ele>1543</ele>
        <time>2021-08-03T11:58:29.045Z</time>
      </trkpt>
      <trkpt lat="46.9971" lon="8.86721">
        <ele>1543</ele>
        <time>2021-08-03T11:58:30.045Z</time>
      </trkpt>
      <trkpt lat="46.99709" lon="8.86721">
        <ele>1543</ele>
        <time>2021-08-03T11:58:31.045Z</time>
      </trkpt>
      <trkpt lat="46.99708" lon="8.86721">
        <ele>1543</ele>
        <time>2021-08-03T11:58:32.045Z</time>
      </trkpt>
      <trkpt lat="46.99706" lon="8.86721">
        <ele>1543</ele>
        <time>2021-08-03T11:58:33.045Z</time>
      </trkpt>
      <trkpt lat="46.99705" lon="8.86721">
        <ele>1543</ele>
        <time>2021-08-03T11:58:34.045Z</time>
      </trkpt>
      <trkpt lat="46.99703" lon="8.86721">
        <ele>1544</ele>
        <time>2021-08-03T11:58:35.045Z</time>
      </trkpt>
      <trkpt lat="46.99702" lon="8.86721">
        <ele>1544</ele>
        <time>2021-08-03T11:58:36.046Z</time>
      </trkpt>
      <trkpt lat="46.997" lon="8.86721">
        <ele>1543</ele>
        <time>2021-08-03T11:58:37.046Z</time>
      </trkpt>
      <trkpt lat="46.99699" lon="8.86721">
        <ele>1543</ele>
        <time>2021-08-03T11:58:38.046Z</time>
      </trkpt>
      <trkpt lat="46.99698" lon="8.86721">
        <ele>1543</ele>
        <time>2021-08-03T11:58:39.046Z</time>
      </trkpt>
      <trkpt lat="46.99696" lon="8.86721">
        <ele>1542</ele>
        <time>2021-08-03T11:58:40.045Z</time>
      </trkpt>
      <trkpt lat="46.99695" lon="8.86721">
        <ele>1542</ele>
        <time>2021-08-03T11:58:41.045Z</time>
      </trkpt>
      <trkpt lat="46.99694" lon="8.86722">
        <ele>1541</ele>
        <time>2021-08-03T11:58:42.045Z</time>
      </trkpt>
      <trkpt lat="46.99693" lon="8.86722">
        <ele>1541</ele>
        <time>2021-08-03T11:58:43.046Z</time>
      </trkpt>
      <trkpt lat="46.99692" lon="8.86723">
        <ele>1541</ele>
        <time>2021-08-03T11:58:44.045Z</time>
      </trkpt>
      <trkpt lat="46.9969" lon="8.86723">
        <ele>1541</ele>
        <time>2021-08-03T11:58:45.045Z</time>
      </trkpt>
      <trkpt lat="46.99689" lon="8.86724">
        <ele>1541</ele>
        <time>2021-08-03T11:58:46.045Z</time>
      </trkpt>
      <trkpt lat="46.99688" lon="8.86724">
        <ele>1541</ele>
        <time>2021-08-03T11:58:47.046Z</time>
      </trkpt>
      <trkpt lat="46.99686" lon="8.86724">
        <ele>1541</ele>
        <time>2021-08-03T11:58:48.045Z</time>
      </trkpt>
      <trkpt lat="46.99685" lon="8.86725">
        <ele>1541</ele>
        <time>2021-08-03T11:58:49.045Z</time>
      </trkpt>
      <trkpt lat="46.99684" lon="8.86724">
        <ele>1541</ele>
        <time>2021-08-03T11:58:50.045Z</time>
      </trkpt>
      <trkpt lat="46.99683" lon="8.86724">
        <ele>1541</ele>
        <time>2021-08-03T11:58:51.045Z</time>
      </trkpt>
      <trkpt lat="46.99682" lon="8.86724">
        <ele>1541</ele>
        <time>2021-08-03T11:58:52.045Z</time>
      </trkpt>
      <trkpt lat="46.9968" lon="8.86724">
        <ele>1540</ele>
        <time>2021-08-03T11:58:53.045Z</time>
      </trkpt>
      <trkpt lat="46.99679" lon="8.86724">
        <ele>1540</ele>
        <time>2021-08-03T11:58:54.045Z</time>
      </trkpt>
      <trkpt lat="46.99678" lon="8.86724">
        <ele>1540</ele>
        <time>2021-08-03T11:58:55.045Z</time>
      </trkpt>
      <trkpt lat="46.99677" lon="8.86725">
        <ele>1540</ele>
        <time>2021-08-03T11:58:56.045Z</time>
      </trkpt>
      <trkpt lat="46.99675" lon="8.86725">
        <ele>1541</ele>
        <time>2021-08-03T11:58:57.046Z</time>
      </trkpt>
      <trkpt lat="46.99674" lon="8.86725">
        <ele>1541</ele>
        <time>2021-08-03T11:58:58.045Z</time>
      </trkpt>
      <trkpt lat="46.99673" lon="8.86725">
        <ele>1542</ele>
        <time>2021-08-03T11:58:59.045Z</time>
      </trkpt>
      <trkpt lat="46.99671" lon="8.86725">
        <ele>1542</ele>
        <time>2021-08-03T11:59:00.045Z</time>
      </trkpt>
      <trkpt lat="46.9967" lon="8.86725">
        <ele>1543</ele>
        <time>2021-08-03T11:59:01.045Z</time>
      </trkpt>
      <trkpt lat="46.99668" lon="8.86726">
        <ele>1543</ele>
        <time>2021-08-03T11:59:02.045Z</time>
      </trkpt>
      <trkpt lat="46.99667" lon="8.86726">
        <ele>1544</ele>
        <time>2021-08-03T11:59:03.046Z</time>
      </trkpt>
      <trkpt lat="46.99666" lon="8.86726">
        <ele>1544</ele>
        <time>2021-08-03T11:59:04.045Z</time>
      </trkpt>
      <trkpt lat="46.99666" lon="8.86726">
        <ele>1544</ele>
        <time>2021-08-03T11:59:05.046Z</time>
      </trkpt>
      <trkpt lat="46.99663" lon="8.86727">
        <ele>1545</ele>
        <time>2021-08-03T11:59:06.045Z</time>
      </trkpt>
      <trkpt lat="46.99662" lon="8.86727">
        <ele>1546</ele>
        <time>2021-08-03T11:59:07.045Z</time>
      </trkpt>
      <trkpt lat="46.9966" lon="8.86728">
        <ele>1546</ele>
        <time>2021-08-03T11:59:08.045Z</time>
      </trkpt>
      <trkpt lat="46.99659" lon="8.86728">
        <ele>1546</ele>
        <time>2021-08-03T11:59:09.045Z</time>
      </trkpt>
      <trkpt lat="46.99658" lon="8.86728">
        <ele>1545</ele>
        <time>2021-08-03T11:59:10.045Z</time>
      </trkpt>
      <trkpt lat="46.99656" lon="8.86728">
        <ele>1545</ele>
        <time>2021-08-03T11:59:11.045Z</time>
      </trkpt>
      <trkpt lat="46.99655" lon="8.86728">
        <ele>1545</ele>
        <time>2021-08-03T11:59:12.045Z</time>
      </trkpt>
      <trkpt lat="46.99654" lon="8.86728">
        <ele>1546</ele>
        <time>2021-08-03T11:59:13.045Z</time>
      </trkpt>
      <trkpt lat="46.99653" lon="8.86728">
        <ele>1546</ele>
        <time>2021-08-03T11:59:14.045Z</time>
      </trkpt>
      <trkpt lat="46.99652" lon="8.86728">
        <ele>1546</ele>
        <time>2021-08-03T11:59:15.045Z</time>
      </trkpt>
      <trkpt lat="46.9965" lon="8.86727">
        <ele>1546</ele>
        <time>2021-08-03T11:59:16.045Z</time>
      </trkpt>
      <trkpt lat="46.9965" lon="8.86727">
        <ele>1546</ele>
        <time>2021-08-03T11:59:17.045Z</time>
      </trkpt>
      <trkpt lat="46.99648" lon="8.86727">
        <ele>1545</ele>
        <time>2021-08-03T11:59:18.045Z</time>
      </trkpt>
      <trkpt lat="46.99647" lon="8.86726">
        <ele>1545</ele>
        <time>2021-08-03T11:59:19.045Z</time>
      </trkpt>
      <trkpt lat="46.99646" lon="8.86726">
        <ele>1545</ele>
        <time>2021-08-03T11:59:20.045Z</time>
      </trkpt>
      <trkpt lat="46.99645" lon="8.86725">
        <ele>1544</ele>
        <time>2021-08-03T11:59:21.046Z</time>
      </trkpt>
      <trkpt lat="46.99644" lon="8.86724">
        <ele>1544</ele>
        <time>2021-08-03T11:59:22.046Z</time>
      </trkpt>
      <trkpt lat="46.99643" lon="8.86723">
        <ele>1543</ele>
        <time>2021-08-03T11:59:23.045Z</time>
      </trkpt>
      <trkpt lat="46.99642" lon="8.86723">
        <ele>1544</ele>
        <time>2021-08-03T11:59:24.045Z</time>
      </trkpt>
      <trkpt lat="46.99641" lon="8.86722">
        <ele>1544</ele>
        <time>2021-08-03T11:59:25.046Z</time>
      </trkpt>
      <trkpt lat="46.9964" lon="8.86722">
        <ele>1543</ele>
        <time>2021-08-03T11:59:26.045Z</time>
      </trkpt>
      <trkpt lat="46.99638" lon="8.86722">
        <ele>1543</ele>
        <time>2021-08-03T11:59:27.046Z</time>
      </trkpt>
      <trkpt lat="46.99637" lon="8.86722">
        <ele>1543</ele>
        <time>2021-08-03T11:59:28.045Z</time>
      </trkpt>
      <trkpt lat="46.99636" lon="8.86721">
        <ele>1543</ele>
        <time>2021-08-03T11:59:29.045Z</time>
      </trkpt>
      <trkpt lat="46.99634" lon="8.86721">
        <ele>1543</ele>
        <time>2021-08-03T11:59:30.046Z</time>
      </trkpt>
      <trkpt lat="46.99633" lon="8.86721">
        <ele>1543</ele>
        <time>2021-08-03T11:59:31.046Z</time>
      </trkpt>
      <trkpt lat="46.99632" lon="8.8672">
        <ele>1543</ele>
        <time>2021-08-03T11:59:32.046Z</time>
      </trkpt>
      <trkpt lat="46.99632" lon="8.86719">
        <ele>1542</ele>
        <time>2021-08-03T11:59:33.045Z</time>
      </trkpt>
      <trkpt lat="46.99631" lon="8.86719">
        <ele>1542</ele>
        <time>2021-08-03T11:59:34.046Z</time>
      </trkpt>
      <trkpt lat="46.9963" lon="8.86718">
        <ele>1541</ele>
        <time>2021-08-03T11:59:35.045Z</time>
      </trkpt>
      <trkpt lat="46.99629" lon="8.86718">
        <ele>1541</ele>
        <time>2021-08-03T11:59:36.045Z</time>
      </trkpt>
      <trkpt lat="46.99628" lon="8.86718">
        <ele>1541</ele>
        <time>2021-08-03T11:59:37.045Z</time>
      </trkpt>
      <trkpt lat="46.99627" lon="8.86717">
        <ele>1541</ele>
        <time>2021-08-03T11:59:38.045Z</time>
      </trkpt>
      <trkpt lat="46.99626" lon="8.86716">
        <ele>1541</ele>
        <time>2021-08-03T11:59:39.045Z</time>
      </trkpt>
      <trkpt lat="46.99625" lon="8.86715">
        <ele>1541</ele>
        <time>2021-08-03T11:59:40.045Z</time>
      </trkpt>
      <trkpt lat="46.99624" lon="8.86714">
        <ele>1541</ele>
        <time>2021-08-03T11:59:41.045Z</time>
      </trkpt>
      <trkpt lat="46.99623" lon="8.86712">
        <ele>1541</ele>
        <time>2021-08-03T11:59:42.045Z</time>
      </trkpt>
      <trkpt lat="46.99622" lon="8.86711">
        <ele>1541</ele>
        <time>2021-08-03T11:59:43.046Z</time>
      </trkpt>
      <trkpt lat="46.99621" lon="8.86711">
        <ele>1541</ele>
        <time>2021-08-03T11:59:44.045Z</time>
      </trkpt>
      <trkpt lat="46.99621" lon="8.8671">
        <ele>1541</ele>
        <time>2021-08-03T11:59:45.046Z</time>
      </trkpt>
      <trkpt lat="46.9962" lon="8.8671">
        <ele>1541</ele>
        <time>2021-08-03T11:59:46.045Z</time>
      </trkpt>
      <trkpt lat="46.99619" lon="8.86709">
        <ele>1541</ele>
        <time>2021-08-03T11:59:47.045Z</time>
      </trkpt>
      <trkpt lat="46.99618" lon="8.86708">
        <ele>1540</ele>
        <time>2021-08-03T11:59:48.045Z</time>
      </trkpt>
      <trkpt lat="46.99618" lon="8.86707">
        <ele>1540</ele>
        <time>2021-08-03T11:59:49.046Z</time>
      </trkpt>
      <trkpt lat="46.99617" lon="8.86706">
        <ele>1540</ele>
        <time>2021-08-03T11:59:50.045Z</time>
      </trkpt>
      <trkpt lat="46.99616" lon="8.86705">
        <ele>1540</ele>
        <time>2021-08-03T11:59:51.045Z</time>
      </trkpt>
      <trkpt lat="46.99615" lon="8.86704">
        <ele>1539</ele>
        <time>2021-08-03T11:59:52.045Z</time>
      </trkpt>
      <trkpt lat="46.99615" lon="8.86703">
        <ele>1539</ele>
        <time>2021-08-03T11:59:53.046Z</time>
      </trkpt>
      <trkpt lat="46.99614" lon="8.86703">
        <ele>1539</ele>
        <time>2021-08-03T11:59:54.045Z</time>
      </trkpt>
      <trkpt lat="46.99613" lon="8.86702">
        <ele>1539</ele>
        <time>2021-08-03T11:59:55.045Z</time>
      </trkpt>
      <trkpt lat="46.99613" lon="8.86701">
        <ele>1539</ele>
        <time>2021-08-03T11:59:56.045Z</time>
      </trkpt>
      <trkpt lat="46.99612" lon="8.86699">
        <ele>1539</ele>
        <time>2021-08-03T11:59:57.045Z</time>
      </trkpt>
      <trkpt lat="46.99611" lon="8.86698">
        <ele>1538</ele>
        <time>2021-08-03T11:59:58.045Z</time>
      </trkpt>
      <trkpt lat="46.99611" lon="8.86697">
        <ele>1538</ele>
        <time>2021-08-03T11:59:59.045Z</time>
      </trkpt>
      <trkpt lat="46.99611" lon="8.86697">
        <ele>1538</ele>
        <time>2021-08-03T12:00:00.046Z</time>
      </trkpt>
      <trkpt lat="46.99612" lon="8.86697">
        <ele>1537</ele>
        <time>2021-08-03T12:00:01.045Z</time>
      </trkpt>
      <trkpt lat="46.99612" lon="8.86695">
        <ele>1536</ele>
        <time>2021-08-03T12:00:02.045Z</time>
      </trkpt>
      <trkpt lat="46.99612" lon="8.86694">
        <ele>1535</ele>
        <time>2021-08-03T12:00:03.045Z</time>
      </trkpt>
      <trkpt lat="46.99613" lon="8.86694">
        <ele>1535</ele>
        <time>2021-08-03T12:00:04.046Z</time>
      </trkpt>
      <trkpt lat="46.99612" lon="8.86694">
        <ele>1535</ele>
        <time>2021-08-03T12:00:05.046Z</time>
      </trkpt>
      <trkpt lat="46.99612" lon="8.86694">
        <ele>1535</ele>
        <time>2021-08-03T12:00:06.046Z</time>
      </trkpt>
      <trkpt lat="46.99612" lon="8.86695">
        <ele>1534</ele>
        <time>2021-08-03T12:00:07.045Z</time>
      </trkpt>
      <trkpt lat="46.99612" lon="8.86696">
        <ele>1534</ele>
        <time>2021-08-03T12:00:08.046Z</time>
      </trkpt>
      <trkpt lat="46.99612" lon="8.86696">
        <ele>1533</ele>
        <time>2021-08-03T12:00:09.046Z</time>
      </trkpt>
      <trkpt lat="46.99613" lon="8.86696">
        <ele>1532</ele>
        <time>2021-08-03T12:00:20.153Z</time>
      </trkpt>
      <trkpt lat="46.99613" lon="8.86696">
        <ele>1532</ele>
        <time>2021-08-03T12:00:24.064Z</time>
      </trkpt>
      <trkpt lat="46.99613" lon="8.86696">
        <ele>1532</ele>
        <time>2021-08-03T12:00:28.890Z</time>
      </trkpt>
      <trkpt lat="46.99613" lon="8.86695">
        <ele>1531</ele>
        <time>2021-08-03T12:00:29.890Z</time>
      </trkpt>
      <trkpt lat="46.99615" lon="8.86696">
        <ele>1531</ele>
        <time>2021-08-03T12:00:30.891Z</time>
      </trkpt>
      <trkpt lat="46.99616" lon="8.86697">
        <ele>1531</ele>
        <time>2021-08-03T12:00:31.890Z</time>
      </trkpt>
      <trkpt lat="46.99616" lon="8.86698">
        <ele>1531</ele>
        <time>2021-08-03T12:00:32.890Z</time>
      </trkpt>
      <trkpt lat="46.99617" lon="8.86699">
        <ele>1532</ele>
        <time>2021-08-03T12:00:33.891Z</time>
      </trkpt>
      <trkpt lat="46.99618" lon="8.867">
        <ele>1533</ele>
        <time>2021-08-03T12:00:34.890Z</time>
      </trkpt>
    </trkseg>
  </trk>
</gpx>